<?xml version="1.0" encoding="UTF-8"?>
<gpx creator="StravaGPX" version="1.1" xmlns="http://www.topografix.com/GPX/1/1" xmlns:xsi="http://www.w3.org/2001/XMLSchema-instance" xsi:schemaLocation="http://www.topografix.com/GPX/1/1 http://www.topografix.com/GPX/1/1/gpx.xsd">
 <metadata>
  <time>2026-06-24T04:54:30Z</time>
 </metadata>
 <trk>
  <name>Day 5/5 Team Kilimanjaro (Umbwe Route ) 🇹🇿🫶🏔️</name>
  <type>hiking</type>
  <trkseg>
   <trkpt lat="-3.1567850" lon="37.3669600">
    <ele>3075.3</ele>
    <time>2026-06-24T04:54:30Z</time>
   </trkpt>
   <trkpt lat="-3.1567830" lon="37.3669620">
    <ele>3075.2</ele>
    <time>2026-06-24T04:54:31Z</time>
   </trkpt>
   <trkpt lat="-3.1567830" lon="37.3669630">
    <ele>3075.2</ele>
    <time>2026-06-24T04:54:32Z</time>
   </trkpt>
   <trkpt lat="-3.1567880" lon="37.3669510">
    <ele>3075.1</ele>
    <time>2026-06-24T04:54:33Z</time>
   </trkpt>
   <trkpt lat="-3.1567910" lon="37.3669520">
    <ele>3075.0</ele>
    <time>2026-06-24T04:54:34Z</time>
   </trkpt>
   <trkpt lat="-3.1567900" lon="37.3669500">
    <ele>3075.0</ele>
    <time>2026-06-24T04:54:35Z</time>
   </trkpt>
   <trkpt lat="-3.1567880" lon="37.3669490">
    <ele>3075.0</ele>
    <time>2026-06-24T04:54:36Z</time>
   </trkpt>
   <trkpt lat="-3.1567860" lon="37.3669500">
    <ele>3075.0</ele>
    <time>2026-06-24T04:54:37Z</time>
   </trkpt>
   <trkpt lat="-3.1567850" lon="37.3669500">
    <ele>3074.9</ele>
    <time>2026-06-24T04:54:38Z</time>
   </trkpt>
   <trkpt lat="-3.1567830" lon="37.3669510">
    <ele>3074.9</ele>
    <time>2026-06-24T04:54:39Z</time>
   </trkpt>
   <trkpt lat="-3.1567810" lon="37.3669520">
    <ele>3074.9</ele>
    <time>2026-06-24T04:54:40Z</time>
   </trkpt>
   <trkpt lat="-3.1567800" lon="37.3669510">
    <ele>3074.9</ele>
    <time>2026-06-24T04:54:41Z</time>
   </trkpt>
   <trkpt lat="-3.1567820" lon="37.3669480">
    <ele>3074.8</ele>
    <time>2026-06-24T04:54:42Z</time>
   </trkpt>
   <trkpt lat="-3.1567800" lon="37.3669460">
    <ele>3074.8</ele>
    <time>2026-06-24T04:54:43Z</time>
   </trkpt>
   <trkpt lat="-3.1567810" lon="37.3669460">
    <ele>3074.8</ele>
    <time>2026-06-24T04:54:44Z</time>
   </trkpt>
   <trkpt lat="-3.1567770" lon="37.3669450">
    <ele>3074.7</ele>
    <time>2026-06-24T04:54:45Z</time>
   </trkpt>
   <trkpt lat="-3.1567720" lon="37.3669470">
    <ele>3074.7</ele>
    <time>2026-06-24T04:54:46Z</time>
   </trkpt>
   <trkpt lat="-3.1567730" lon="37.3669490">
    <ele>3074.7</ele>
    <time>2026-06-24T04:54:47Z</time>
   </trkpt>
   <trkpt lat="-3.1567720" lon="37.3669500">
    <ele>3074.6</ele>
    <time>2026-06-24T04:54:48Z</time>
   </trkpt>
   <trkpt lat="-3.1567720" lon="37.3669480">
    <ele>3074.6</ele>
    <time>2026-06-24T04:54:49Z</time>
   </trkpt>
   <trkpt lat="-3.1567720" lon="37.3669440">
    <ele>3074.6</ele>
    <time>2026-06-24T04:54:50Z</time>
   </trkpt>
   <trkpt lat="-3.1567720" lon="37.3669370">
    <ele>3074.5</ele>
    <time>2026-06-24T04:54:51Z</time>
   </trkpt>
   <trkpt lat="-3.1567730" lon="37.3669350">
    <ele>3074.5</ele>
    <time>2026-06-24T04:54:52Z</time>
   </trkpt>
   <trkpt lat="-3.1567710" lon="37.3669350">
    <ele>3074.4</ele>
    <time>2026-06-24T04:54:53Z</time>
   </trkpt>
   <trkpt lat="-3.1567700" lon="37.3669400">
    <ele>3074.4</ele>
    <time>2026-06-24T04:54:54Z</time>
   </trkpt>
   <trkpt lat="-3.1567700" lon="37.3669420">
    <ele>3074.4</ele>
    <time>2026-06-24T04:54:55Z</time>
   </trkpt>
   <trkpt lat="-3.1567700" lon="37.3669400">
    <ele>3074.3</ele>
    <time>2026-06-24T04:54:56Z</time>
   </trkpt>
   <trkpt lat="-3.1567670" lon="37.3669380">
    <ele>3074.3</ele>
    <time>2026-06-24T04:54:57Z</time>
   </trkpt>
   <trkpt lat="-3.1567630" lon="37.3669370">
    <ele>3074.2</ele>
    <time>2026-06-24T04:54:58Z</time>
   </trkpt>
   <trkpt lat="-3.1567620" lon="37.3669360">
    <ele>3074.2</ele>
    <time>2026-06-24T04:54:59Z</time>
   </trkpt>
   <trkpt lat="-3.1567620" lon="37.3669380">
    <ele>3074.2</ele>
    <time>2026-06-24T04:55:00Z</time>
   </trkpt>
   <trkpt lat="-3.1567590" lon="37.3669380">
    <ele>3074.2</ele>
    <time>2026-06-24T04:55:01Z</time>
   </trkpt>
   <trkpt lat="-3.1567590" lon="37.3669380">
    <ele>3074.2</ele>
    <time>2026-06-24T04:55:02Z</time>
   </trkpt>
   <trkpt lat="-3.1567620" lon="37.3669350">
    <ele>3074.1</ele>
    <time>2026-06-24T04:55:03Z</time>
   </trkpt>
   <trkpt lat="-3.1567610" lon="37.3669330">
    <ele>3074.1</ele>
    <time>2026-06-24T04:55:04Z</time>
   </trkpt>
   <trkpt lat="-3.1567630" lon="37.3669360">
    <ele>3074.0</ele>
    <time>2026-06-24T04:55:05Z</time>
   </trkpt>
   <trkpt lat="-3.1567620" lon="37.3669370">
    <ele>3074.0</ele>
    <time>2026-06-24T04:55:06Z</time>
   </trkpt>
   <trkpt lat="-3.1567670" lon="37.3669370">
    <ele>3074.0</ele>
    <time>2026-06-24T04:55:07Z</time>
   </trkpt>
   <trkpt lat="-3.1567680" lon="37.3669370">
    <ele>3073.9</ele>
    <time>2026-06-24T04:55:08Z</time>
   </trkpt>
   <trkpt lat="-3.1567750" lon="37.3669380">
    <ele>3073.9</ele>
    <time>2026-06-24T04:55:09Z</time>
   </trkpt>
   <trkpt lat="-3.1567790" lon="37.3669420">
    <ele>3073.8</ele>
    <time>2026-06-24T04:55:10Z</time>
   </trkpt>
   <trkpt lat="-3.1567820" lon="37.3669420">
    <ele>3073.7</ele>
    <time>2026-06-24T04:55:11Z</time>
   </trkpt>
   <trkpt lat="-3.1567820" lon="37.3669420">
    <ele>3073.7</ele>
    <time>2026-06-24T04:55:12Z</time>
   </trkpt>
   <trkpt lat="-3.1567810" lon="37.3669440">
    <ele>3073.7</ele>
    <time>2026-06-24T04:55:13Z</time>
   </trkpt>
   <trkpt lat="-3.1567840" lon="37.3669400">
    <ele>3073.7</ele>
    <time>2026-06-24T04:55:14Z</time>
   </trkpt>
   <trkpt lat="-3.1567830" lon="37.3669370">
    <ele>3073.6</ele>
    <time>2026-06-24T04:55:15Z</time>
   </trkpt>
   <trkpt lat="-3.1567820" lon="37.3669410">
    <ele>3073.6</ele>
    <time>2026-06-24T04:55:16Z</time>
   </trkpt>
   <trkpt lat="-3.1567810" lon="37.3669450">
    <ele>3073.5</ele>
    <time>2026-06-24T04:55:17Z</time>
   </trkpt>
   <trkpt lat="-3.1567800" lon="37.3669450">
    <ele>3073.5</ele>
    <time>2026-06-24T04:55:18Z</time>
   </trkpt>
   <trkpt lat="-3.1567820" lon="37.3669480">
    <ele>3073.4</ele>
    <time>2026-06-24T04:55:19Z</time>
   </trkpt>
   <trkpt lat="-3.1567800" lon="37.3669510">
    <ele>3073.4</ele>
    <time>2026-06-24T04:55:20Z</time>
   </trkpt>
   <trkpt lat="-3.1567830" lon="37.3669520">
    <ele>3073.4</ele>
    <time>2026-06-24T04:55:21Z</time>
   </trkpt>
   <trkpt lat="-3.1567760" lon="37.3669480">
    <ele>3073.2</ele>
    <time>2026-06-24T04:55:22Z</time>
   </trkpt>
   <trkpt lat="-3.1567720" lon="37.3669460">
    <ele>3073.2</ele>
    <time>2026-06-24T04:55:23Z</time>
   </trkpt>
   <trkpt lat="-3.1567720" lon="37.3669430">
    <ele>3073.1</ele>
    <time>2026-06-24T04:55:24Z</time>
   </trkpt>
   <trkpt lat="-3.1567740" lon="37.3669430">
    <ele>3073.1</ele>
    <time>2026-06-24T04:55:25Z</time>
   </trkpt>
   <trkpt lat="-3.1567660" lon="37.3669450">
    <ele>3073.0</ele>
    <time>2026-06-24T04:55:26Z</time>
   </trkpt>
   <trkpt lat="-3.1567660" lon="37.3669440">
    <ele>3073.0</ele>
    <time>2026-06-24T04:55:27Z</time>
   </trkpt>
   <trkpt lat="-3.1567670" lon="37.3669490">
    <ele>3072.9</ele>
    <time>2026-06-24T04:55:28Z</time>
   </trkpt>
   <trkpt lat="-3.1567680" lon="37.3669470">
    <ele>3072.9</ele>
    <time>2026-06-24T04:55:29Z</time>
   </trkpt>
   <trkpt lat="-3.1567680" lon="37.3669480">
    <ele>3072.9</ele>
    <time>2026-06-24T04:55:30Z</time>
   </trkpt>
   <trkpt lat="-3.1567690" lon="37.3669490">
    <ele>3072.9</ele>
    <time>2026-06-24T04:55:31Z</time>
   </trkpt>
   <trkpt lat="-3.1567700" lon="37.3669480">
    <ele>3072.9</ele>
    <time>2026-06-24T04:55:32Z</time>
   </trkpt>
   <trkpt lat="-3.1567760" lon="37.3669490">
    <ele>3072.8</ele>
    <time>2026-06-24T04:55:33Z</time>
   </trkpt>
   <trkpt lat="-3.1567800" lon="37.3669500">
    <ele>3072.7</ele>
    <time>2026-06-24T04:55:34Z</time>
   </trkpt>
   <trkpt lat="-3.1567800" lon="37.3669490">
    <ele>3072.7</ele>
    <time>2026-06-24T04:55:35Z</time>
   </trkpt>
   <trkpt lat="-3.1567800" lon="37.3669480">
    <ele>3072.7</ele>
    <time>2026-06-24T04:55:36Z</time>
   </trkpt>
   <trkpt lat="-3.1567780" lon="37.3669420">
    <ele>3072.6</ele>
    <time>2026-06-24T04:55:37Z</time>
   </trkpt>
   <trkpt lat="-3.1567790" lon="37.3669430">
    <ele>3072.6</ele>
    <time>2026-06-24T04:55:38Z</time>
   </trkpt>
   <trkpt lat="-3.1567780" lon="37.3669470">
    <ele>3072.5</ele>
    <time>2026-06-24T04:55:39Z</time>
   </trkpt>
   <trkpt lat="-3.1567780" lon="37.3669470">
    <ele>3072.5</ele>
    <time>2026-06-24T04:55:40Z</time>
   </trkpt>
   <trkpt lat="-3.1567790" lon="37.3669460">
    <ele>3072.5</ele>
    <time>2026-06-24T04:55:41Z</time>
   </trkpt>
   <trkpt lat="-3.1567800" lon="37.3669440">
    <ele>3072.5</ele>
    <time>2026-06-24T04:55:42Z</time>
   </trkpt>
   <trkpt lat="-3.1567800" lon="37.3669430">
    <ele>3072.5</ele>
    <time>2026-06-24T04:55:43Z</time>
   </trkpt>
   <trkpt lat="-3.1567790" lon="37.3669460">
    <ele>3072.4</ele>
    <time>2026-06-24T04:55:44Z</time>
   </trkpt>
   <trkpt lat="-3.1567810" lon="37.3669460">
    <ele>3072.4</ele>
    <time>2026-06-24T04:55:45Z</time>
   </trkpt>
   <trkpt lat="-3.1567800" lon="37.3669470">
    <ele>3072.4</ele>
    <time>2026-06-24T04:55:46Z</time>
   </trkpt>
   <trkpt lat="-3.1567800" lon="37.3669470">
    <ele>3072.4</ele>
    <time>2026-06-24T04:55:47Z</time>
   </trkpt>
   <trkpt lat="-3.1567820" lon="37.3669480">
    <ele>3072.4</ele>
    <time>2026-06-24T04:55:48Z</time>
   </trkpt>
   <trkpt lat="-3.1567850" lon="37.3669470">
    <ele>3072.3</ele>
    <time>2026-06-24T04:55:49Z</time>
   </trkpt>
   <trkpt lat="-3.1567890" lon="37.3669460">
    <ele>3072.3</ele>
    <time>2026-06-24T04:55:50Z</time>
   </trkpt>
   <trkpt lat="-3.1567820" lon="37.3669510">
    <ele>3072.1</ele>
    <time>2026-06-24T04:55:51Z</time>
   </trkpt>
   <trkpt lat="-3.1567810" lon="37.3669510">
    <ele>3072.1</ele>
    <time>2026-06-24T04:55:52Z</time>
   </trkpt>
   <trkpt lat="-3.1567800" lon="37.3669500">
    <ele>3072.1</ele>
    <time>2026-06-24T04:55:53Z</time>
   </trkpt>
   <trkpt lat="-3.1567800" lon="37.3669490">
    <ele>3072.1</ele>
    <time>2026-06-24T04:55:54Z</time>
   </trkpt>
   <trkpt lat="-3.1567820" lon="37.3669460">
    <ele>3072.0</ele>
    <time>2026-06-24T04:55:55Z</time>
   </trkpt>
   <trkpt lat="-3.1567820" lon="37.3669430">
    <ele>3072.0</ele>
    <time>2026-06-24T04:55:56Z</time>
   </trkpt>
   <trkpt lat="-3.1567830" lon="37.3669450">
    <ele>3072.0</ele>
    <time>2026-06-24T04:55:57Z</time>
   </trkpt>
   <trkpt lat="-3.1567850" lon="37.3669450">
    <ele>3072.0</ele>
    <time>2026-06-24T04:55:58Z</time>
   </trkpt>
   <trkpt lat="-3.1567880" lon="37.3669450">
    <ele>3071.9</ele>
    <time>2026-06-24T04:55:59Z</time>
   </trkpt>
   <trkpt lat="-3.1567900" lon="37.3669460">
    <ele>3071.9</ele>
    <time>2026-06-24T04:56:00Z</time>
   </trkpt>
   <trkpt lat="-3.1567890" lon="37.3669420">
    <ele>3071.8</ele>
    <time>2026-06-24T04:56:01Z</time>
   </trkpt>
   <trkpt lat="-3.1567810" lon="37.3669320">
    <ele>3071.7</ele>
    <time>2026-06-24T04:56:02Z</time>
   </trkpt>
   <trkpt lat="-3.1567680" lon="37.3669290">
    <ele>3071.5</ele>
    <time>2026-06-24T04:56:03Z</time>
   </trkpt>
   <trkpt lat="-3.1567690" lon="37.3669220">
    <ele>3071.4</ele>
    <time>2026-06-24T04:56:04Z</time>
   </trkpt>
   <trkpt lat="-3.1567720" lon="37.3669190">
    <ele>3071.3</ele>
    <time>2026-06-24T04:56:05Z</time>
   </trkpt>
   <trkpt lat="-3.1567760" lon="37.3669120">
    <ele>3071.2</ele>
    <time>2026-06-24T04:56:06Z</time>
   </trkpt>
   <trkpt lat="-3.1567750" lon="37.3669020">
    <ele>3071.1</ele>
    <time>2026-06-24T04:56:07Z</time>
   </trkpt>
   <trkpt lat="-3.1567750" lon="37.3668990">
    <ele>3071.1</ele>
    <time>2026-06-24T04:56:08Z</time>
   </trkpt>
   <trkpt lat="-3.1567760" lon="37.3668990">
    <ele>3071.0</ele>
    <time>2026-06-24T04:56:09Z</time>
   </trkpt>
   <trkpt lat="-3.1567790" lon="37.3668970">
    <ele>3071.0</ele>
    <time>2026-06-24T04:56:10Z</time>
   </trkpt>
   <trkpt lat="-3.1567850" lon="37.3668970">
    <ele>3070.9</ele>
    <time>2026-06-24T04:56:11Z</time>
   </trkpt>
   <trkpt lat="-3.1567850" lon="37.3668900">
    <ele>3070.8</ele>
    <time>2026-06-24T04:56:13Z</time>
   </trkpt>
   <trkpt lat="-3.1567970" lon="37.3668860">
    <ele>3070.6</ele>
    <time>2026-06-24T04:56:14Z</time>
   </trkpt>
   <trkpt lat="-3.1568050" lon="37.3668850">
    <ele>3070.5</ele>
    <time>2026-06-24T04:56:15Z</time>
   </trkpt>
   <trkpt lat="-3.1568150" lon="37.3668850">
    <ele>3070.4</ele>
    <time>2026-06-24T04:56:16Z</time>
   </trkpt>
   <trkpt lat="-3.1568190" lon="37.3668830">
    <ele>3070.3</ele>
    <time>2026-06-24T04:56:17Z</time>
   </trkpt>
   <trkpt lat="-3.1568200" lon="37.3668830">
    <ele>3070.3</ele>
    <time>2026-06-24T04:56:18Z</time>
   </trkpt>
   <trkpt lat="-3.1568320" lon="37.3668800">
    <ele>3070.2</ele>
    <time>2026-06-24T04:56:19Z</time>
   </trkpt>
   <trkpt lat="-3.1568340" lon="37.3668770">
    <ele>3070.1</ele>
    <time>2026-06-24T04:56:20Z</time>
   </trkpt>
   <trkpt lat="-3.1568400" lon="37.3668720">
    <ele>3070.0</ele>
    <time>2026-06-24T04:56:21Z</time>
   </trkpt>
   <trkpt lat="-3.1568370" lon="37.3668680">
    <ele>3070.0</ele>
    <time>2026-06-24T04:56:22Z</time>
   </trkpt>
   <trkpt lat="-3.1568310" lon="37.3668520">
    <ele>3069.7</ele>
    <time>2026-06-24T04:56:23Z</time>
   </trkpt>
   <trkpt lat="-3.1568310" lon="37.3668470">
    <ele>3069.7</ele>
    <time>2026-06-24T04:56:24Z</time>
   </trkpt>
   <trkpt lat="-3.1568310" lon="37.3668400">
    <ele>3069.6</ele>
    <time>2026-06-24T04:56:25Z</time>
   </trkpt>
   <trkpt lat="-3.1568320" lon="37.3668420">
    <ele>3069.5</ele>
    <time>2026-06-24T04:56:26Z</time>
   </trkpt>
   <trkpt lat="-3.1568390" lon="37.3668400">
    <ele>3069.4</ele>
    <time>2026-06-24T04:56:27Z</time>
   </trkpt>
   <trkpt lat="-3.1568440" lon="37.3668360">
    <ele>3069.4</ele>
    <time>2026-06-24T04:56:28Z</time>
   </trkpt>
   <trkpt lat="-3.1568470" lon="37.3668360">
    <ele>3069.3</ele>
    <time>2026-06-24T04:56:29Z</time>
   </trkpt>
   <trkpt lat="-3.1568490" lon="37.3668360">
    <ele>3069.3</ele>
    <time>2026-06-24T04:56:30Z</time>
   </trkpt>
   <trkpt lat="-3.1568500" lon="37.3668340">
    <ele>3069.3</ele>
    <time>2026-06-24T04:56:31Z</time>
   </trkpt>
   <trkpt lat="-3.1568510" lon="37.3668350">
    <ele>3069.2</ele>
    <time>2026-06-24T04:56:32Z</time>
   </trkpt>
   <trkpt lat="-3.1568570" lon="37.3668330">
    <ele>3069.2</ele>
    <time>2026-06-24T04:56:33Z</time>
   </trkpt>
   <trkpt lat="-3.1568580" lon="37.3668330">
    <ele>3069.1</ele>
    <time>2026-06-24T04:56:34Z</time>
   </trkpt>
   <trkpt lat="-3.1568610" lon="37.3668320">
    <ele>3069.1</ele>
    <time>2026-06-24T04:56:35Z</time>
   </trkpt>
   <trkpt lat="-3.1568670" lon="37.3668270">
    <ele>3069.0</ele>
    <time>2026-06-24T04:56:36Z</time>
   </trkpt>
   <trkpt lat="-3.1568680" lon="37.3668300">
    <ele>3068.9</ele>
    <time>2026-06-24T04:56:37Z</time>
   </trkpt>
   <trkpt lat="-3.1568740" lon="37.3668320">
    <ele>3068.8</ele>
    <time>2026-06-24T04:56:38Z</time>
   </trkpt>
   <trkpt lat="-3.1568780" lon="37.3668340">
    <ele>3068.8</ele>
    <time>2026-06-24T04:56:39Z</time>
   </trkpt>
   <trkpt lat="-3.1568760" lon="37.3668330">
    <ele>3068.7</ele>
    <time>2026-06-24T04:56:40Z</time>
   </trkpt>
   <trkpt lat="-3.1568780" lon="37.3668350">
    <ele>3068.7</ele>
    <time>2026-06-24T04:56:41Z</time>
   </trkpt>
   <trkpt lat="-3.1568830" lon="37.3668340">
    <ele>3068.6</ele>
    <time>2026-06-24T04:56:42Z</time>
   </trkpt>
   <trkpt lat="-3.1568910" lon="37.3668330">
    <ele>3068.5</ele>
    <time>2026-06-24T04:56:43Z</time>
   </trkpt>
   <trkpt lat="-3.1568890" lon="37.3668350">
    <ele>3068.5</ele>
    <time>2026-06-24T04:56:44Z</time>
   </trkpt>
   <trkpt lat="-3.1568880" lon="37.3668360">
    <ele>3068.5</ele>
    <time>2026-06-24T04:56:45Z</time>
   </trkpt>
   <trkpt lat="-3.1568900" lon="37.3668350">
    <ele>3068.4</ele>
    <time>2026-06-24T04:56:46Z</time>
   </trkpt>
   <trkpt lat="-3.1568890" lon="37.3668340">
    <ele>3068.4</ele>
    <time>2026-06-24T04:56:47Z</time>
   </trkpt>
   <trkpt lat="-3.1568920" lon="37.3668340">
    <ele>3068.4</ele>
    <time>2026-06-24T04:56:48Z</time>
   </trkpt>
   <trkpt lat="-3.1568960" lon="37.3668300">
    <ele>3068.3</ele>
    <time>2026-06-24T04:56:49Z</time>
   </trkpt>
   <trkpt lat="-3.1569000" lon="37.3668250">
    <ele>3068.2</ele>
    <time>2026-06-24T04:56:50Z</time>
   </trkpt>
   <trkpt lat="-3.1568990" lon="37.3668230">
    <ele>3068.2</ele>
    <time>2026-06-24T04:56:51Z</time>
   </trkpt>
   <trkpt lat="-3.1568980" lon="37.3668270">
    <ele>3068.1</ele>
    <time>2026-06-24T04:56:52Z</time>
   </trkpt>
   <trkpt lat="-3.1569050" lon="37.3668230">
    <ele>3068.0</ele>
    <time>2026-06-24T04:56:53Z</time>
   </trkpt>
   <trkpt lat="-3.1569120" lon="37.3668200">
    <ele>3067.9</ele>
    <time>2026-06-24T04:56:54Z</time>
   </trkpt>
   <trkpt lat="-3.1569110" lon="37.3668170">
    <ele>3067.8</ele>
    <time>2026-06-24T04:56:55Z</time>
   </trkpt>
   <trkpt lat="-3.1569080" lon="37.3668040">
    <ele>3067.6</ele>
    <time>2026-06-24T04:56:56Z</time>
   </trkpt>
   <trkpt lat="-3.1569130" lon="37.3668020">
    <ele>3067.6</ele>
    <time>2026-06-24T04:56:57Z</time>
   </trkpt>
   <trkpt lat="-3.1569190" lon="37.3668010">
    <ele>3067.5</ele>
    <time>2026-06-24T04:56:58Z</time>
   </trkpt>
   <trkpt lat="-3.1569280" lon="37.3667950">
    <ele>3067.3</ele>
    <time>2026-06-24T04:56:59Z</time>
   </trkpt>
   <trkpt lat="-3.1569300" lon="37.3667870">
    <ele>3067.2</ele>
    <time>2026-06-24T04:57:00Z</time>
   </trkpt>
   <trkpt lat="-3.1569310" lon="37.3667850">
    <ele>3067.2</ele>
    <time>2026-06-24T04:57:01Z</time>
   </trkpt>
   <trkpt lat="-3.1569380" lon="37.3667810">
    <ele>3067.0</ele>
    <time>2026-06-24T04:57:02Z</time>
   </trkpt>
   <trkpt lat="-3.1569430" lon="37.3667780">
    <ele>3067.0</ele>
    <time>2026-06-24T04:57:03Z</time>
   </trkpt>
   <trkpt lat="-3.1569480" lon="37.3667740">
    <ele>3066.9</ele>
    <time>2026-06-24T04:57:04Z</time>
   </trkpt>
   <trkpt lat="-3.1569550" lon="37.3667800">
    <ele>3066.7</ele>
    <time>2026-06-24T04:57:05Z</time>
   </trkpt>
   <trkpt lat="-3.1569610" lon="37.3667760">
    <ele>3066.6</ele>
    <time>2026-06-24T04:57:06Z</time>
   </trkpt>
   <trkpt lat="-3.1569610" lon="37.3667740">
    <ele>3066.6</ele>
    <time>2026-06-24T04:57:07Z</time>
   </trkpt>
   <trkpt lat="-3.1569630" lon="37.3667700">
    <ele>3066.6</ele>
    <time>2026-06-24T04:57:08Z</time>
   </trkpt>
   <trkpt lat="-3.1569660" lon="37.3667670">
    <ele>3066.5</ele>
    <time>2026-06-24T04:57:09Z</time>
   </trkpt>
   <trkpt lat="-3.1569720" lon="37.3667660">
    <ele>3066.4</ele>
    <time>2026-06-24T04:57:10Z</time>
   </trkpt>
   <trkpt lat="-3.1569810" lon="37.3667650">
    <ele>3066.3</ele>
    <time>2026-06-24T04:57:11Z</time>
   </trkpt>
   <trkpt lat="-3.1569830" lon="37.3667630">
    <ele>3066.2</ele>
    <time>2026-06-24T04:57:12Z</time>
   </trkpt>
   <trkpt lat="-3.1569830" lon="37.3667590">
    <ele>3066.2</ele>
    <time>2026-06-24T04:57:13Z</time>
   </trkpt>
   <trkpt lat="-3.1569870" lon="37.3667570">
    <ele>3066.1</ele>
    <time>2026-06-24T04:57:14Z</time>
   </trkpt>
   <trkpt lat="-3.1569930" lon="37.3667530">
    <ele>3066.0</ele>
    <time>2026-06-24T04:57:15Z</time>
   </trkpt>
   <trkpt lat="-3.1570060" lon="37.3667520">
    <ele>3065.9</ele>
    <time>2026-06-24T04:57:16Z</time>
   </trkpt>
   <trkpt lat="-3.1570140" lon="37.3667550">
    <ele>3065.8</ele>
    <time>2026-06-24T04:57:17Z</time>
   </trkpt>
   <trkpt lat="-3.1570160" lon="37.3667540">
    <ele>3065.7</ele>
    <time>2026-06-24T04:57:18Z</time>
   </trkpt>
   <trkpt lat="-3.1570240" lon="37.3667530">
    <ele>3065.6</ele>
    <time>2026-06-24T04:57:19Z</time>
   </trkpt>
   <trkpt lat="-3.1570300" lon="37.3667520">
    <ele>3065.6</ele>
    <time>2026-06-24T04:57:20Z</time>
   </trkpt>
   <trkpt lat="-3.1570400" lon="37.3667480">
    <ele>3065.4</ele>
    <time>2026-06-24T04:57:21Z</time>
   </trkpt>
   <trkpt lat="-3.1570440" lon="37.3667490">
    <ele>3065.4</ele>
    <time>2026-06-24T04:57:22Z</time>
   </trkpt>
   <trkpt lat="-3.1570520" lon="37.3667510">
    <ele>3065.3</ele>
    <time>2026-06-24T04:57:23Z</time>
   </trkpt>
   <trkpt lat="-3.1570590" lon="37.3667480">
    <ele>3065.2</ele>
    <time>2026-06-24T04:57:24Z</time>
   </trkpt>
   <trkpt lat="-3.1570640" lon="37.3667460">
    <ele>3065.1</ele>
    <time>2026-06-24T04:57:25Z</time>
   </trkpt>
   <trkpt lat="-3.1570730" lon="37.3667440">
    <ele>3065.0</ele>
    <time>2026-06-24T04:57:26Z</time>
   </trkpt>
   <trkpt lat="-3.1570780" lon="37.3667400">
    <ele>3064.9</ele>
    <time>2026-06-24T04:57:27Z</time>
   </trkpt>
   <trkpt lat="-3.1570820" lon="37.3667390">
    <ele>3064.9</ele>
    <time>2026-06-24T04:57:28Z</time>
   </trkpt>
   <trkpt lat="-3.1570850" lon="37.3667370">
    <ele>3064.8</ele>
    <time>2026-06-24T04:57:29Z</time>
   </trkpt>
   <trkpt lat="-3.1570860" lon="37.3667370">
    <ele>3064.8</ele>
    <time>2026-06-24T04:57:30Z</time>
   </trkpt>
   <trkpt lat="-3.1570930" lon="37.3667320">
    <ele>3064.7</ele>
    <time>2026-06-24T04:57:31Z</time>
   </trkpt>
   <trkpt lat="-3.1570940" lon="37.3667300">
    <ele>3064.7</ele>
    <time>2026-06-24T04:57:32Z</time>
   </trkpt>
   <trkpt lat="-3.1571040" lon="37.3667240">
    <ele>3064.6</ele>
    <time>2026-06-24T04:57:33Z</time>
   </trkpt>
   <trkpt lat="-3.1571100" lon="37.3667160">
    <ele>3064.5</ele>
    <time>2026-06-24T04:57:34Z</time>
   </trkpt>
   <trkpt lat="-3.1571160" lon="37.3667130">
    <ele>3064.4</ele>
    <time>2026-06-24T04:57:35Z</time>
   </trkpt>
   <trkpt lat="-3.1571220" lon="37.3667110">
    <ele>3064.3</ele>
    <time>2026-06-24T04:57:36Z</time>
   </trkpt>
   <trkpt lat="-3.1571260" lon="37.3667080">
    <ele>3064.2</ele>
    <time>2026-06-24T04:57:37Z</time>
   </trkpt>
   <trkpt lat="-3.1571290" lon="37.3667120">
    <ele>3064.2</ele>
    <time>2026-06-24T04:57:38Z</time>
   </trkpt>
   <trkpt lat="-3.1571390" lon="37.3667090">
    <ele>3064.1</ele>
    <time>2026-06-24T04:57:39Z</time>
   </trkpt>
   <trkpt lat="-3.1571450" lon="37.3667070">
    <ele>3064.0</ele>
    <time>2026-06-24T04:57:40Z</time>
   </trkpt>
   <trkpt lat="-3.1571530" lon="37.3667050">
    <ele>3063.9</ele>
    <time>2026-06-24T04:57:41Z</time>
   </trkpt>
   <trkpt lat="-3.1571570" lon="37.3667060">
    <ele>3063.8</ele>
    <time>2026-06-24T04:57:42Z</time>
   </trkpt>
   <trkpt lat="-3.1571650" lon="37.3667010">
    <ele>3063.7</ele>
    <time>2026-06-24T04:57:43Z</time>
   </trkpt>
   <trkpt lat="-3.1571740" lon="37.3666980">
    <ele>3063.6</ele>
    <time>2026-06-24T04:57:44Z</time>
   </trkpt>
   <trkpt lat="-3.1571800" lon="37.3666960">
    <ele>3063.5</ele>
    <time>2026-06-24T04:57:45Z</time>
   </trkpt>
   <trkpt lat="-3.1571870" lon="37.3666950">
    <ele>3063.5</ele>
    <time>2026-06-24T04:57:46Z</time>
   </trkpt>
   <trkpt lat="-3.1571940" lon="37.3666950">
    <ele>3063.4</ele>
    <time>2026-06-24T04:57:47Z</time>
   </trkpt>
   <trkpt lat="-3.1572060" lon="37.3666910">
    <ele>3063.2</ele>
    <time>2026-06-24T04:57:48Z</time>
   </trkpt>
   <trkpt lat="-3.1572080" lon="37.3666900">
    <ele>3063.2</ele>
    <time>2026-06-24T04:57:49Z</time>
   </trkpt>
   <trkpt lat="-3.1572090" lon="37.3666890">
    <ele>3063.2</ele>
    <time>2026-06-24T04:57:50Z</time>
   </trkpt>
   <trkpt lat="-3.1572170" lon="37.3666880">
    <ele>3063.1</ele>
    <time>2026-06-24T04:57:51Z</time>
   </trkpt>
   <trkpt lat="-3.1572200" lon="37.3666870">
    <ele>3063.0</ele>
    <time>2026-06-24T04:57:52Z</time>
   </trkpt>
   <trkpt lat="-3.1572250" lon="37.3666840">
    <ele>3063.0</ele>
    <time>2026-06-24T04:57:53Z</time>
   </trkpt>
   <trkpt lat="-3.1572310" lon="37.3666860">
    <ele>3062.9</ele>
    <time>2026-06-24T04:57:54Z</time>
   </trkpt>
   <trkpt lat="-3.1572360" lon="37.3666870">
    <ele>3062.8</ele>
    <time>2026-06-24T04:57:55Z</time>
   </trkpt>
   <trkpt lat="-3.1572400" lon="37.3666840">
    <ele>3062.8</ele>
    <time>2026-06-24T04:57:56Z</time>
   </trkpt>
   <trkpt lat="-3.1572420" lon="37.3666840">
    <ele>3062.7</ele>
    <time>2026-06-24T04:57:57Z</time>
   </trkpt>
   <trkpt lat="-3.1572450" lon="37.3666850">
    <ele>3062.7</ele>
    <time>2026-06-24T04:57:58Z</time>
   </trkpt>
   <trkpt lat="-3.1572560" lon="37.3666830">
    <ele>3062.5</ele>
    <time>2026-06-24T04:57:59Z</time>
   </trkpt>
   <trkpt lat="-3.1572570" lon="37.3666810">
    <ele>3062.5</ele>
    <time>2026-06-24T04:58:00Z</time>
   </trkpt>
   <trkpt lat="-3.1572600" lon="37.3666810">
    <ele>3062.5</ele>
    <time>2026-06-24T04:58:01Z</time>
   </trkpt>
   <trkpt lat="-3.1572690" lon="37.3666800">
    <ele>3062.4</ele>
    <time>2026-06-24T04:58:02Z</time>
   </trkpt>
   <trkpt lat="-3.1572720" lon="37.3666790">
    <ele>3062.3</ele>
    <time>2026-06-24T04:58:03Z</time>
   </trkpt>
   <trkpt lat="-3.1572720" lon="37.3666780">
    <ele>3062.3</ele>
    <time>2026-06-24T04:58:04Z</time>
   </trkpt>
   <trkpt lat="-3.1572760" lon="37.3666770">
    <ele>3062.2</ele>
    <time>2026-06-24T04:58:05Z</time>
   </trkpt>
   <trkpt lat="-3.1572780" lon="37.3666770">
    <ele>3062.2</ele>
    <time>2026-06-24T04:58:06Z</time>
   </trkpt>
   <trkpt lat="-3.1572820" lon="37.3666760">
    <ele>3062.2</ele>
    <time>2026-06-24T04:58:07Z</time>
   </trkpt>
   <trkpt lat="-3.1572920" lon="37.3666780">
    <ele>3062.0</ele>
    <time>2026-06-24T04:58:08Z</time>
   </trkpt>
   <trkpt lat="-3.1572930" lon="37.3666740">
    <ele>3062.0</ele>
    <time>2026-06-24T04:58:09Z</time>
   </trkpt>
   <trkpt lat="-3.1573010" lon="37.3666700">
    <ele>3061.9</ele>
    <time>2026-06-24T04:58:10Z</time>
   </trkpt>
   <trkpt lat="-3.1573050" lon="37.3666690">
    <ele>3061.8</ele>
    <time>2026-06-24T04:58:11Z</time>
   </trkpt>
   <trkpt lat="-3.1573120" lon="37.3666640">
    <ele>3061.7</ele>
    <time>2026-06-24T04:58:12Z</time>
   </trkpt>
   <trkpt lat="-3.1573270" lon="37.3666650">
    <ele>3061.5</ele>
    <time>2026-06-24T04:58:13Z</time>
   </trkpt>
   <trkpt lat="-3.1573320" lon="37.3666620">
    <ele>3061.4</ele>
    <time>2026-06-24T04:58:14Z</time>
   </trkpt>
   <trkpt lat="-3.1573430" lon="37.3666580">
    <ele>3061.3</ele>
    <time>2026-06-24T04:58:15Z</time>
   </trkpt>
   <trkpt lat="-3.1573500" lon="37.3666580">
    <ele>3061.2</ele>
    <time>2026-06-24T04:58:16Z</time>
   </trkpt>
   <trkpt lat="-3.1573540" lon="37.3666570">
    <ele>3061.1</ele>
    <time>2026-06-24T04:58:17Z</time>
   </trkpt>
   <trkpt lat="-3.1573580" lon="37.3666570">
    <ele>3061.1</ele>
    <time>2026-06-24T04:58:19Z</time>
   </trkpt>
   <trkpt lat="-3.1573630" lon="37.3666540">
    <ele>3061.0</ele>
    <time>2026-06-24T04:58:20Z</time>
   </trkpt>
   <trkpt lat="-3.1573690" lon="37.3666510">
    <ele>3060.9</ele>
    <time>2026-06-24T04:58:21Z</time>
   </trkpt>
   <trkpt lat="-3.1573740" lon="37.3666480">
    <ele>3060.8</ele>
    <time>2026-06-24T04:58:22Z</time>
   </trkpt>
   <trkpt lat="-3.1573770" lon="37.3666480">
    <ele>3060.8</ele>
    <time>2026-06-24T04:58:23Z</time>
   </trkpt>
   <trkpt lat="-3.1573810" lon="37.3666500">
    <ele>3060.7</ele>
    <time>2026-06-24T04:58:24Z</time>
   </trkpt>
   <trkpt lat="-3.1573870" lon="37.3666460">
    <ele>3060.6</ele>
    <time>2026-06-24T04:58:25Z</time>
   </trkpt>
   <trkpt lat="-3.1573930" lon="37.3666440">
    <ele>3060.6</ele>
    <time>2026-06-24T04:58:26Z</time>
   </trkpt>
   <trkpt lat="-3.1573940" lon="37.3666440">
    <ele>3060.6</ele>
    <time>2026-06-24T04:58:27Z</time>
   </trkpt>
   <trkpt lat="-3.1574070" lon="37.3666440">
    <ele>3060.4</ele>
    <time>2026-06-24T04:58:28Z</time>
   </trkpt>
   <trkpt lat="-3.1574090" lon="37.3666430">
    <ele>3060.4</ele>
    <time>2026-06-24T04:58:29Z</time>
   </trkpt>
   <trkpt lat="-3.1574120" lon="37.3666410">
    <ele>3060.3</ele>
    <time>2026-06-24T04:58:30Z</time>
   </trkpt>
   <trkpt lat="-3.1574120" lon="37.3666410">
    <ele>3060.3</ele>
    <time>2026-06-24T04:58:31Z</time>
   </trkpt>
   <trkpt lat="-3.1574140" lon="37.3666420">
    <ele>3060.3</ele>
    <time>2026-06-24T04:58:32Z</time>
   </trkpt>
   <trkpt lat="-3.1574200" lon="37.3666410">
    <ele>3060.2</ele>
    <time>2026-06-24T04:58:33Z</time>
   </trkpt>
   <trkpt lat="-3.1574190" lon="37.3666420">
    <ele>3060.2</ele>
    <time>2026-06-24T04:58:34Z</time>
   </trkpt>
   <trkpt lat="-3.1574260" lon="37.3666440">
    <ele>3060.1</ele>
    <time>2026-06-24T04:58:35Z</time>
   </trkpt>
   <trkpt lat="-3.1574300" lon="37.3666420">
    <ele>3060.0</ele>
    <time>2026-06-24T04:58:36Z</time>
   </trkpt>
   <trkpt lat="-3.1574340" lon="37.3666410">
    <ele>3060.0</ele>
    <time>2026-06-24T04:58:37Z</time>
   </trkpt>
   <trkpt lat="-3.1574380" lon="37.3666380">
    <ele>3059.9</ele>
    <time>2026-06-24T04:58:38Z</time>
   </trkpt>
   <trkpt lat="-3.1574390" lon="37.3666370">
    <ele>3059.9</ele>
    <time>2026-06-24T04:58:39Z</time>
   </trkpt>
   <trkpt lat="-3.1574430" lon="37.3666360">
    <ele>3059.8</ele>
    <time>2026-06-24T04:58:40Z</time>
   </trkpt>
   <trkpt lat="-3.1574450" lon="37.3666350">
    <ele>3059.8</ele>
    <time>2026-06-24T04:58:41Z</time>
   </trkpt>
   <trkpt lat="-3.1574500" lon="37.3666330">
    <ele>3059.7</ele>
    <time>2026-06-24T04:58:42Z</time>
   </trkpt>
   <trkpt lat="-3.1574600" lon="37.3666320">
    <ele>3059.6</ele>
    <time>2026-06-24T04:58:43Z</time>
   </trkpt>
   <trkpt lat="-3.1574670" lon="37.3666300">
    <ele>3059.5</ele>
    <time>2026-06-24T04:58:44Z</time>
   </trkpt>
   <trkpt lat="-3.1574750" lon="37.3666270">
    <ele>3059.4</ele>
    <time>2026-06-24T04:58:45Z</time>
   </trkpt>
   <trkpt lat="-3.1574820" lon="37.3666250">
    <ele>3059.4</ele>
    <time>2026-06-24T04:58:46Z</time>
   </trkpt>
   <trkpt lat="-3.1574870" lon="37.3666260">
    <ele>3059.3</ele>
    <time>2026-06-24T04:58:47Z</time>
   </trkpt>
   <trkpt lat="-3.1574960" lon="37.3666250">
    <ele>3059.2</ele>
    <time>2026-06-24T04:58:48Z</time>
   </trkpt>
   <trkpt lat="-3.1575040" lon="37.3666250">
    <ele>3059.1</ele>
    <time>2026-06-24T04:58:49Z</time>
   </trkpt>
   <trkpt lat="-3.1575100" lon="37.3666220">
    <ele>3059.0</ele>
    <time>2026-06-24T04:58:50Z</time>
   </trkpt>
   <trkpt lat="-3.1575170" lon="37.3666210">
    <ele>3058.9</ele>
    <time>2026-06-24T04:58:51Z</time>
   </trkpt>
   <trkpt lat="-3.1575210" lon="37.3666210">
    <ele>3058.9</ele>
    <time>2026-06-24T04:58:52Z</time>
   </trkpt>
   <trkpt lat="-3.1575320" lon="37.3666220">
    <ele>3058.8</ele>
    <time>2026-06-24T04:58:53Z</time>
   </trkpt>
   <trkpt lat="-3.1575360" lon="37.3666230">
    <ele>3058.7</ele>
    <time>2026-06-24T04:58:54Z</time>
   </trkpt>
   <trkpt lat="-3.1575470" lon="37.3666150">
    <ele>3058.6</ele>
    <time>2026-06-24T04:58:55Z</time>
   </trkpt>
   <trkpt lat="-3.1575520" lon="37.3666160">
    <ele>3058.5</ele>
    <time>2026-06-24T04:58:56Z</time>
   </trkpt>
   <trkpt lat="-3.1575530" lon="37.3666160">
    <ele>3058.5</ele>
    <time>2026-06-24T04:58:57Z</time>
   </trkpt>
   <trkpt lat="-3.1575630" lon="37.3666150">
    <ele>3058.4</ele>
    <time>2026-06-24T04:58:58Z</time>
   </trkpt>
   <trkpt lat="-3.1575670" lon="37.3666180">
    <ele>3058.3</ele>
    <time>2026-06-24T04:58:59Z</time>
   </trkpt>
   <trkpt lat="-3.1575730" lon="37.3666180">
    <ele>3058.3</ele>
    <time>2026-06-24T04:59:00Z</time>
   </trkpt>
   <trkpt lat="-3.1575800" lon="37.3666170">
    <ele>3058.2</ele>
    <time>2026-06-24T04:59:01Z</time>
   </trkpt>
   <trkpt lat="-3.1575850" lon="37.3666150">
    <ele>3058.1</ele>
    <time>2026-06-24T04:59:02Z</time>
   </trkpt>
   <trkpt lat="-3.1575920" lon="37.3666150">
    <ele>3058.0</ele>
    <time>2026-06-24T04:59:03Z</time>
   </trkpt>
   <trkpt lat="-3.1576010" lon="37.3666160">
    <ele>3057.9</ele>
    <time>2026-06-24T04:59:04Z</time>
   </trkpt>
   <trkpt lat="-3.1576100" lon="37.3666140">
    <ele>3057.8</ele>
    <time>2026-06-24T04:59:05Z</time>
   </trkpt>
   <trkpt lat="-3.1576200" lon="37.3666160">
    <ele>3057.7</ele>
    <time>2026-06-24T04:59:06Z</time>
   </trkpt>
   <trkpt lat="-3.1576250" lon="37.3666150">
    <ele>3057.7</ele>
    <time>2026-06-24T04:59:07Z</time>
   </trkpt>
   <trkpt lat="-3.1576300" lon="37.3666140">
    <ele>3057.6</ele>
    <time>2026-06-24T04:59:08Z</time>
   </trkpt>
   <trkpt lat="-3.1576400" lon="37.3666130">
    <ele>3057.5</ele>
    <time>2026-06-24T04:59:09Z</time>
   </trkpt>
   <trkpt lat="-3.1576480" lon="37.3666110">
    <ele>3057.4</ele>
    <time>2026-06-24T04:59:10Z</time>
   </trkpt>
   <trkpt lat="-3.1576540" lon="37.3666080">
    <ele>3057.3</ele>
    <time>2026-06-24T04:59:11Z</time>
   </trkpt>
   <trkpt lat="-3.1576630" lon="37.3666110">
    <ele>3057.2</ele>
    <time>2026-06-24T04:59:12Z</time>
   </trkpt>
   <trkpt lat="-3.1576710" lon="37.3666120">
    <ele>3057.2</ele>
    <time>2026-06-24T04:59:13Z</time>
   </trkpt>
   <trkpt lat="-3.1576830" lon="37.3666100">
    <ele>3057.0</ele>
    <time>2026-06-24T04:59:14Z</time>
   </trkpt>
   <trkpt lat="-3.1577030" lon="37.3666130">
    <ele>3056.8</ele>
    <time>2026-06-24T04:59:15Z</time>
   </trkpt>
   <trkpt lat="-3.1577090" lon="37.3666140">
    <ele>3056.7</ele>
    <time>2026-06-24T04:59:16Z</time>
   </trkpt>
   <trkpt lat="-3.1577160" lon="37.3666110">
    <ele>3056.6</ele>
    <time>2026-06-24T04:59:17Z</time>
   </trkpt>
   <trkpt lat="-3.1577190" lon="37.3666130">
    <ele>3056.6</ele>
    <time>2026-06-24T04:59:18Z</time>
   </trkpt>
   <trkpt lat="-3.1577250" lon="37.3666130">
    <ele>3056.5</ele>
    <time>2026-06-24T04:59:19Z</time>
   </trkpt>
   <trkpt lat="-3.1577290" lon="37.3666140">
    <ele>3056.5</ele>
    <time>2026-06-24T04:59:20Z</time>
   </trkpt>
   <trkpt lat="-3.1577370" lon="37.3666140">
    <ele>3056.4</ele>
    <time>2026-06-24T04:59:21Z</time>
   </trkpt>
   <trkpt lat="-3.1577420" lon="37.3666170">
    <ele>3056.3</ele>
    <time>2026-06-24T04:59:22Z</time>
   </trkpt>
   <trkpt lat="-3.1577450" lon="37.3666200">
    <ele>3056.3</ele>
    <time>2026-06-24T04:59:23Z</time>
   </trkpt>
   <trkpt lat="-3.1577530" lon="37.3666220">
    <ele>3056.2</ele>
    <time>2026-06-24T04:59:24Z</time>
   </trkpt>
   <trkpt lat="-3.1577600" lon="37.3666190">
    <ele>3056.1</ele>
    <time>2026-06-24T04:59:25Z</time>
   </trkpt>
   <trkpt lat="-3.1577650" lon="37.3666200">
    <ele>3056.1</ele>
    <time>2026-06-24T04:59:26Z</time>
   </trkpt>
   <trkpt lat="-3.1577760" lon="37.3666210">
    <ele>3055.9</ele>
    <time>2026-06-24T04:59:27Z</time>
   </trkpt>
   <trkpt lat="-3.1577800" lon="37.3666230">
    <ele>3055.9</ele>
    <time>2026-06-24T04:59:28Z</time>
   </trkpt>
   <trkpt lat="-3.1577890" lon="37.3666210">
    <ele>3055.8</ele>
    <time>2026-06-24T04:59:29Z</time>
   </trkpt>
   <trkpt lat="-3.1577980" lon="37.3666150">
    <ele>3055.6</ele>
    <time>2026-06-24T04:59:30Z</time>
   </trkpt>
   <trkpt lat="-3.1578070" lon="37.3666130">
    <ele>3055.5</ele>
    <time>2026-06-24T04:59:31Z</time>
   </trkpt>
   <trkpt lat="-3.1578150" lon="37.3666130">
    <ele>3055.4</ele>
    <time>2026-06-24T04:59:32Z</time>
   </trkpt>
   <trkpt lat="-3.1578250" lon="37.3666090">
    <ele>3055.3</ele>
    <time>2026-06-24T04:59:33Z</time>
   </trkpt>
   <trkpt lat="-3.1578300" lon="37.3666110">
    <ele>3055.2</ele>
    <time>2026-06-24T04:59:34Z</time>
   </trkpt>
   <trkpt lat="-3.1578350" lon="37.3666120">
    <ele>3055.2</ele>
    <time>2026-06-24T04:59:35Z</time>
   </trkpt>
   <trkpt lat="-3.1578440" lon="37.3666130">
    <ele>3055.1</ele>
    <time>2026-06-24T04:59:36Z</time>
   </trkpt>
   <trkpt lat="-3.1578500" lon="37.3666140">
    <ele>3055.0</ele>
    <time>2026-06-24T04:59:37Z</time>
   </trkpt>
   <trkpt lat="-3.1578590" lon="37.3666150">
    <ele>3054.9</ele>
    <time>2026-06-24T04:59:38Z</time>
   </trkpt>
   <trkpt lat="-3.1578630" lon="37.3666190">
    <ele>3054.8</ele>
    <time>2026-06-24T04:59:39Z</time>
   </trkpt>
   <trkpt lat="-3.1578720" lon="37.3666230">
    <ele>3054.7</ele>
    <time>2026-06-24T04:59:40Z</time>
   </trkpt>
   <trkpt lat="-3.1578870" lon="37.3666220">
    <ele>3054.5</ele>
    <time>2026-06-24T04:59:41Z</time>
   </trkpt>
   <trkpt lat="-3.1578950" lon="37.3666250">
    <ele>3054.4</ele>
    <time>2026-06-24T04:59:42Z</time>
   </trkpt>
   <trkpt lat="-3.1579020" lon="37.3666230">
    <ele>3054.3</ele>
    <time>2026-06-24T04:59:43Z</time>
   </trkpt>
   <trkpt lat="-3.1579150" lon="37.3666230">
    <ele>3054.2</ele>
    <time>2026-06-24T04:59:44Z</time>
   </trkpt>
   <trkpt lat="-3.1579250" lon="37.3666250">
    <ele>3054.0</ele>
    <time>2026-06-24T04:59:45Z</time>
   </trkpt>
   <trkpt lat="-3.1579320" lon="37.3666290">
    <ele>3053.9</ele>
    <time>2026-06-24T04:59:46Z</time>
   </trkpt>
   <trkpt lat="-3.1579410" lon="37.3666330">
    <ele>3053.8</ele>
    <time>2026-06-24T04:59:47Z</time>
   </trkpt>
   <trkpt lat="-3.1579480" lon="37.3666340">
    <ele>3053.7</ele>
    <time>2026-06-24T04:59:48Z</time>
   </trkpt>
   <trkpt lat="-3.1579540" lon="37.3666360">
    <ele>3053.7</ele>
    <time>2026-06-24T04:59:49Z</time>
   </trkpt>
   <trkpt lat="-3.1579570" lon="37.3666390">
    <ele>3053.6</ele>
    <time>2026-06-24T04:59:50Z</time>
   </trkpt>
   <trkpt lat="-3.1579620" lon="37.3666420">
    <ele>3053.5</ele>
    <time>2026-06-24T04:59:51Z</time>
   </trkpt>
   <trkpt lat="-3.1579670" lon="37.3666450">
    <ele>3053.5</ele>
    <time>2026-06-24T04:59:52Z</time>
   </trkpt>
   <trkpt lat="-3.1579740" lon="37.3666450">
    <ele>3053.4</ele>
    <time>2026-06-24T04:59:53Z</time>
   </trkpt>
   <trkpt lat="-3.1579770" lon="37.3666460">
    <ele>3053.3</ele>
    <time>2026-06-24T04:59:54Z</time>
   </trkpt>
   <trkpt lat="-3.1579830" lon="37.3666460">
    <ele>3053.3</ele>
    <time>2026-06-24T04:59:55Z</time>
   </trkpt>
   <trkpt lat="-3.1579900" lon="37.3666470">
    <ele>3053.2</ele>
    <time>2026-06-24T04:59:56Z</time>
   </trkpt>
   <trkpt lat="-3.1579950" lon="37.3666490">
    <ele>3053.1</ele>
    <time>2026-06-24T04:59:57Z</time>
   </trkpt>
   <trkpt lat="-3.1579990" lon="37.3666510">
    <ele>3053.1</ele>
    <time>2026-06-24T04:59:58Z</time>
   </trkpt>
   <trkpt lat="-3.1580030" lon="37.3666530">
    <ele>3053.0</ele>
    <time>2026-06-24T04:59:59Z</time>
   </trkpt>
   <trkpt lat="-3.1580090" lon="37.3666550">
    <ele>3052.9</ele>
    <time>2026-06-24T05:00:00Z</time>
   </trkpt>
   <trkpt lat="-3.1580150" lon="37.3666570">
    <ele>3052.8</ele>
    <time>2026-06-24T05:00:01Z</time>
   </trkpt>
   <trkpt lat="-3.1580190" lon="37.3666570">
    <ele>3052.8</ele>
    <time>2026-06-24T05:00:02Z</time>
   </trkpt>
   <trkpt lat="-3.1580280" lon="37.3666590">
    <ele>3052.7</ele>
    <time>2026-06-24T05:00:03Z</time>
   </trkpt>
   <trkpt lat="-3.1580340" lon="37.3666600">
    <ele>3052.6</ele>
    <time>2026-06-24T05:00:04Z</time>
   </trkpt>
   <trkpt lat="-3.1580420" lon="37.3666600">
    <ele>3052.5</ele>
    <time>2026-06-24T05:00:05Z</time>
   </trkpt>
   <trkpt lat="-3.1580440" lon="37.3666610">
    <ele>3052.5</ele>
    <time>2026-06-24T05:00:06Z</time>
   </trkpt>
   <trkpt lat="-3.1580530" lon="37.3666630">
    <ele>3052.4</ele>
    <time>2026-06-24T05:00:07Z</time>
   </trkpt>
   <trkpt lat="-3.1580620" lon="37.3666650">
    <ele>3052.3</ele>
    <time>2026-06-24T05:00:08Z</time>
   </trkpt>
   <trkpt lat="-3.1580680" lon="37.3666610">
    <ele>3052.2</ele>
    <time>2026-06-24T05:00:09Z</time>
   </trkpt>
   <trkpt lat="-3.1580750" lon="37.3666640">
    <ele>3052.1</ele>
    <time>2026-06-24T05:00:10Z</time>
   </trkpt>
   <trkpt lat="-3.1580830" lon="37.3666660">
    <ele>3052.0</ele>
    <time>2026-06-24T05:00:11Z</time>
   </trkpt>
   <trkpt lat="-3.1580880" lon="37.3666690">
    <ele>3051.9</ele>
    <time>2026-06-24T05:00:12Z</time>
   </trkpt>
   <trkpt lat="-3.1580930" lon="37.3666700">
    <ele>3051.8</ele>
    <time>2026-06-24T05:00:13Z</time>
   </trkpt>
   <trkpt lat="-3.1580990" lon="37.3666730">
    <ele>3051.7</ele>
    <time>2026-06-24T05:00:14Z</time>
   </trkpt>
   <trkpt lat="-3.1581050" lon="37.3666750">
    <ele>3051.6</ele>
    <time>2026-06-24T05:00:15Z</time>
   </trkpt>
   <trkpt lat="-3.1581120" lon="37.3666760">
    <ele>3051.6</ele>
    <time>2026-06-24T05:00:16Z</time>
   </trkpt>
   <trkpt lat="-3.1581190" lon="37.3666790">
    <ele>3051.5</ele>
    <time>2026-06-24T05:00:17Z</time>
   </trkpt>
   <trkpt lat="-3.1581260" lon="37.3666830">
    <ele>3051.3</ele>
    <time>2026-06-24T05:00:18Z</time>
   </trkpt>
   <trkpt lat="-3.1581340" lon="37.3666840">
    <ele>3051.2</ele>
    <time>2026-06-24T05:00:19Z</time>
   </trkpt>
   <trkpt lat="-3.1581420" lon="37.3666860">
    <ele>3051.1</ele>
    <time>2026-06-24T05:00:20Z</time>
   </trkpt>
   <trkpt lat="-3.1581500" lon="37.3666870">
    <ele>3051.0</ele>
    <time>2026-06-24T05:00:21Z</time>
   </trkpt>
   <trkpt lat="-3.1581600" lon="37.3666900">
    <ele>3050.9</ele>
    <time>2026-06-24T05:00:22Z</time>
   </trkpt>
   <trkpt lat="-3.1581640" lon="37.3666900">
    <ele>3050.8</ele>
    <time>2026-06-24T05:00:23Z</time>
   </trkpt>
   <trkpt lat="-3.1581720" lon="37.3666880">
    <ele>3050.7</ele>
    <time>2026-06-24T05:00:25Z</time>
   </trkpt>
   <trkpt lat="-3.1581850" lon="37.3666850">
    <ele>3050.6</ele>
    <time>2026-06-24T05:00:26Z</time>
   </trkpt>
   <trkpt lat="-3.1581900" lon="37.3666870">
    <ele>3050.5</ele>
    <time>2026-06-24T05:00:27Z</time>
   </trkpt>
   <trkpt lat="-3.1582000" lon="37.3666860">
    <ele>3050.4</ele>
    <time>2026-06-24T05:00:28Z</time>
   </trkpt>
   <trkpt lat="-3.1582060" lon="37.3666850">
    <ele>3050.3</ele>
    <time>2026-06-24T05:00:29Z</time>
   </trkpt>
   <trkpt lat="-3.1582140" lon="37.3666850">
    <ele>3050.2</ele>
    <time>2026-06-24T05:00:30Z</time>
   </trkpt>
   <trkpt lat="-3.1582210" lon="37.3666830">
    <ele>3050.1</ele>
    <time>2026-06-24T05:00:31Z</time>
   </trkpt>
   <trkpt lat="-3.1582290" lon="37.3666840">
    <ele>3050.0</ele>
    <time>2026-06-24T05:00:32Z</time>
   </trkpt>
   <trkpt lat="-3.1582370" lon="37.3666860">
    <ele>3049.9</ele>
    <time>2026-06-24T05:00:33Z</time>
   </trkpt>
   <trkpt lat="-3.1582430" lon="37.3666840">
    <ele>3049.8</ele>
    <time>2026-06-24T05:00:34Z</time>
   </trkpt>
   <trkpt lat="-3.1582520" lon="37.3666820">
    <ele>3049.7</ele>
    <time>2026-06-24T05:00:35Z</time>
   </trkpt>
   <trkpt lat="-3.1582570" lon="37.3666840">
    <ele>3049.6</ele>
    <time>2026-06-24T05:00:36Z</time>
   </trkpt>
   <trkpt lat="-3.1582660" lon="37.3666840">
    <ele>3049.5</ele>
    <time>2026-06-24T05:00:37Z</time>
   </trkpt>
   <trkpt lat="-3.1582740" lon="37.3666840">
    <ele>3049.4</ele>
    <time>2026-06-24T05:00:38Z</time>
   </trkpt>
   <trkpt lat="-3.1582780" lon="37.3666820">
    <ele>3049.3</ele>
    <time>2026-06-24T05:00:39Z</time>
   </trkpt>
   <trkpt lat="-3.1582890" lon="37.3666790">
    <ele>3049.2</ele>
    <time>2026-06-24T05:00:40Z</time>
   </trkpt>
   <trkpt lat="-3.1582920" lon="37.3666770">
    <ele>3049.1</ele>
    <time>2026-06-24T05:00:41Z</time>
   </trkpt>
   <trkpt lat="-3.1583010" lon="37.3666730">
    <ele>3049.0</ele>
    <time>2026-06-24T05:00:42Z</time>
   </trkpt>
   <trkpt lat="-3.1583110" lon="37.3666720">
    <ele>3048.9</ele>
    <time>2026-06-24T05:00:43Z</time>
   </trkpt>
   <trkpt lat="-3.1583170" lon="37.3666720">
    <ele>3048.8</ele>
    <time>2026-06-24T05:00:44Z</time>
   </trkpt>
   <trkpt lat="-3.1583220" lon="37.3666720">
    <ele>3048.7</ele>
    <time>2026-06-24T05:00:45Z</time>
   </trkpt>
   <trkpt lat="-3.1583300" lon="37.3666690">
    <ele>3048.6</ele>
    <time>2026-06-24T05:00:46Z</time>
   </trkpt>
   <trkpt lat="-3.1583360" lon="37.3666710">
    <ele>3048.5</ele>
    <time>2026-06-24T05:00:47Z</time>
   </trkpt>
   <trkpt lat="-3.1583500" lon="37.3666730">
    <ele>3048.4</ele>
    <time>2026-06-24T05:00:48Z</time>
   </trkpt>
   <trkpt lat="-3.1583590" lon="37.3666750">
    <ele>3048.2</ele>
    <time>2026-06-24T05:00:49Z</time>
   </trkpt>
   <trkpt lat="-3.1583680" lon="37.3666720">
    <ele>3048.1</ele>
    <time>2026-06-24T05:00:50Z</time>
   </trkpt>
   <trkpt lat="-3.1583760" lon="37.3666740">
    <ele>3048.0</ele>
    <time>2026-06-24T05:00:51Z</time>
   </trkpt>
   <trkpt lat="-3.1583830" lon="37.3666740">
    <ele>3047.9</ele>
    <time>2026-06-24T05:00:52Z</time>
   </trkpt>
   <trkpt lat="-3.1583890" lon="37.3666760">
    <ele>3047.8</ele>
    <time>2026-06-24T05:00:53Z</time>
   </trkpt>
   <trkpt lat="-3.1583970" lon="37.3666760">
    <ele>3047.7</ele>
    <time>2026-06-24T05:00:54Z</time>
   </trkpt>
   <trkpt lat="-3.1584020" lon="37.3666750">
    <ele>3047.7</ele>
    <time>2026-06-24T05:00:55Z</time>
   </trkpt>
   <trkpt lat="-3.1584060" lon="37.3666770">
    <ele>3047.6</ele>
    <time>2026-06-24T05:00:56Z</time>
   </trkpt>
   <trkpt lat="-3.1584140" lon="37.3666750">
    <ele>3047.5</ele>
    <time>2026-06-24T05:00:57Z</time>
   </trkpt>
   <trkpt lat="-3.1584230" lon="37.3666740">
    <ele>3047.4</ele>
    <time>2026-06-24T05:00:58Z</time>
   </trkpt>
   <trkpt lat="-3.1584300" lon="37.3666730">
    <ele>3047.3</ele>
    <time>2026-06-24T05:00:59Z</time>
   </trkpt>
   <trkpt lat="-3.1584350" lon="37.3666710">
    <ele>3047.3</ele>
    <time>2026-06-24T05:01:00Z</time>
   </trkpt>
   <trkpt lat="-3.1584440" lon="37.3666720">
    <ele>3047.2</ele>
    <time>2026-06-24T05:01:01Z</time>
   </trkpt>
   <trkpt lat="-3.1584510" lon="37.3666700">
    <ele>3047.1</ele>
    <time>2026-06-24T05:01:02Z</time>
   </trkpt>
   <trkpt lat="-3.1584540" lon="37.3666670">
    <ele>3047.0</ele>
    <time>2026-06-24T05:01:03Z</time>
   </trkpt>
   <trkpt lat="-3.1584650" lon="37.3666670">
    <ele>3046.9</ele>
    <time>2026-06-24T05:01:04Z</time>
   </trkpt>
   <trkpt lat="-3.1584710" lon="37.3666670">
    <ele>3046.8</ele>
    <time>2026-06-24T05:01:05Z</time>
   </trkpt>
   <trkpt lat="-3.1584790" lon="37.3666680">
    <ele>3046.7</ele>
    <time>2026-06-24T05:01:06Z</time>
   </trkpt>
   <trkpt lat="-3.1584880" lon="37.3666690">
    <ele>3046.6</ele>
    <time>2026-06-24T05:01:07Z</time>
   </trkpt>
   <trkpt lat="-3.1584930" lon="37.3666660">
    <ele>3046.6</ele>
    <time>2026-06-24T05:01:08Z</time>
   </trkpt>
   <trkpt lat="-3.1585000" lon="37.3666630">
    <ele>3046.5</ele>
    <time>2026-06-24T05:01:09Z</time>
   </trkpt>
   <trkpt lat="-3.1585050" lon="37.3666630">
    <ele>3046.4</ele>
    <time>2026-06-24T05:01:10Z</time>
   </trkpt>
   <trkpt lat="-3.1585160" lon="37.3666560">
    <ele>3046.3</ele>
    <time>2026-06-24T05:01:11Z</time>
   </trkpt>
   <trkpt lat="-3.1585270" lon="37.3666510">
    <ele>3046.1</ele>
    <time>2026-06-24T05:01:12Z</time>
   </trkpt>
   <trkpt lat="-3.1585350" lon="37.3666530">
    <ele>3046.0</ele>
    <time>2026-06-24T05:01:13Z</time>
   </trkpt>
   <trkpt lat="-3.1585460" lon="37.3666500">
    <ele>3045.9</ele>
    <time>2026-06-24T05:01:14Z</time>
   </trkpt>
   <trkpt lat="-3.1585530" lon="37.3666480">
    <ele>3045.8</ele>
    <time>2026-06-24T05:01:15Z</time>
   </trkpt>
   <trkpt lat="-3.1585630" lon="37.3666460">
    <ele>3045.7</ele>
    <time>2026-06-24T05:01:16Z</time>
   </trkpt>
   <trkpt lat="-3.1585730" lon="37.3666460">
    <ele>3045.6</ele>
    <time>2026-06-24T05:01:17Z</time>
   </trkpt>
   <trkpt lat="-3.1585780" lon="37.3666450">
    <ele>3045.6</ele>
    <time>2026-06-24T05:01:18Z</time>
   </trkpt>
   <trkpt lat="-3.1585800" lon="37.3666460">
    <ele>3045.5</ele>
    <time>2026-06-24T05:01:19Z</time>
   </trkpt>
   <trkpt lat="-3.1585840" lon="37.3666450">
    <ele>3045.5</ele>
    <time>2026-06-24T05:01:20Z</time>
   </trkpt>
   <trkpt lat="-3.1585890" lon="37.3666440">
    <ele>3045.4</ele>
    <time>2026-06-24T05:01:21Z</time>
   </trkpt>
   <trkpt lat="-3.1585960" lon="37.3666420">
    <ele>3045.4</ele>
    <time>2026-06-24T05:01:22Z</time>
   </trkpt>
   <trkpt lat="-3.1586000" lon="37.3666390">
    <ele>3045.3</ele>
    <time>2026-06-24T05:01:23Z</time>
   </trkpt>
   <trkpt lat="-3.1586030" lon="37.3666380">
    <ele>3045.3</ele>
    <time>2026-06-24T05:01:24Z</time>
   </trkpt>
   <trkpt lat="-3.1586100" lon="37.3666370">
    <ele>3045.2</ele>
    <time>2026-06-24T05:01:25Z</time>
   </trkpt>
   <trkpt lat="-3.1586180" lon="37.3666410">
    <ele>3045.1</ele>
    <time>2026-06-24T05:01:26Z</time>
   </trkpt>
   <trkpt lat="-3.1586250" lon="37.3666390">
    <ele>3045.0</ele>
    <time>2026-06-24T05:01:27Z</time>
   </trkpt>
   <trkpt lat="-3.1586300" lon="37.3666400">
    <ele>3044.9</ele>
    <time>2026-06-24T05:01:28Z</time>
   </trkpt>
   <trkpt lat="-3.1586350" lon="37.3666400">
    <ele>3044.9</ele>
    <time>2026-06-24T05:01:29Z</time>
   </trkpt>
   <trkpt lat="-3.1586490" lon="37.3666330">
    <ele>3044.7</ele>
    <time>2026-06-24T05:01:30Z</time>
   </trkpt>
   <trkpt lat="-3.1586530" lon="37.3666310">
    <ele>3044.7</ele>
    <time>2026-06-24T05:01:31Z</time>
   </trkpt>
   <trkpt lat="-3.1586580" lon="37.3666350">
    <ele>3044.6</ele>
    <time>2026-06-24T05:01:32Z</time>
   </trkpt>
   <trkpt lat="-3.1586620" lon="37.3666310">
    <ele>3044.5</ele>
    <time>2026-06-24T05:01:33Z</time>
   </trkpt>
   <trkpt lat="-3.1586710" lon="37.3666290">
    <ele>3044.4</ele>
    <time>2026-06-24T05:01:34Z</time>
   </trkpt>
   <trkpt lat="-3.1586800" lon="37.3666260">
    <ele>3044.3</ele>
    <time>2026-06-24T05:01:35Z</time>
   </trkpt>
   <trkpt lat="-3.1586830" lon="37.3666250">
    <ele>3044.3</ele>
    <time>2026-06-24T05:01:36Z</time>
   </trkpt>
   <trkpt lat="-3.1586950" lon="37.3666210">
    <ele>3044.2</ele>
    <time>2026-06-24T05:01:37Z</time>
   </trkpt>
   <trkpt lat="-3.1587000" lon="37.3666220">
    <ele>3044.1</ele>
    <time>2026-06-24T05:01:38Z</time>
   </trkpt>
   <trkpt lat="-3.1587100" lon="37.3666170">
    <ele>3044.0</ele>
    <time>2026-06-24T05:01:39Z</time>
   </trkpt>
   <trkpt lat="-3.1587170" lon="37.3666160">
    <ele>3043.9</ele>
    <time>2026-06-24T05:01:40Z</time>
   </trkpt>
   <trkpt lat="-3.1587230" lon="37.3666190">
    <ele>3043.8</ele>
    <time>2026-06-24T05:01:41Z</time>
   </trkpt>
   <trkpt lat="-3.1587300" lon="37.3666120">
    <ele>3043.7</ele>
    <time>2026-06-24T05:01:42Z</time>
   </trkpt>
   <trkpt lat="-3.1587410" lon="37.3666080">
    <ele>3043.6</ele>
    <time>2026-06-24T05:01:43Z</time>
   </trkpt>
   <trkpt lat="-3.1587460" lon="37.3666070">
    <ele>3043.5</ele>
    <time>2026-06-24T05:01:44Z</time>
   </trkpt>
   <trkpt lat="-3.1587520" lon="37.3666040">
    <ele>3043.5</ele>
    <time>2026-06-24T05:01:45Z</time>
   </trkpt>
   <trkpt lat="-3.1587580" lon="37.3666030">
    <ele>3043.4</ele>
    <time>2026-06-24T05:01:46Z</time>
   </trkpt>
   <trkpt lat="-3.1587620" lon="37.3666020">
    <ele>3043.3</ele>
    <time>2026-06-24T05:01:47Z</time>
   </trkpt>
   <trkpt lat="-3.1587740" lon="37.3666000">
    <ele>3043.2</ele>
    <time>2026-06-24T05:01:48Z</time>
   </trkpt>
   <trkpt lat="-3.1587890" lon="37.3665990">
    <ele>3043.1</ele>
    <time>2026-06-24T05:01:49Z</time>
   </trkpt>
   <trkpt lat="-3.1587910" lon="37.3665960">
    <ele>3043.0</ele>
    <time>2026-06-24T05:01:50Z</time>
   </trkpt>
   <trkpt lat="-3.1588030" lon="37.3665880">
    <ele>3042.9</ele>
    <time>2026-06-24T05:01:51Z</time>
   </trkpt>
   <trkpt lat="-3.1588090" lon="37.3665880">
    <ele>3042.8</ele>
    <time>2026-06-24T05:01:52Z</time>
   </trkpt>
   <trkpt lat="-3.1588110" lon="37.3665910">
    <ele>3042.8</ele>
    <time>2026-06-24T05:01:53Z</time>
   </trkpt>
   <trkpt lat="-3.1588230" lon="37.3665860">
    <ele>3042.6</ele>
    <time>2026-06-24T05:01:54Z</time>
   </trkpt>
   <trkpt lat="-3.1588290" lon="37.3665870">
    <ele>3042.6</ele>
    <time>2026-06-24T05:01:55Z</time>
   </trkpt>
   <trkpt lat="-3.1588400" lon="37.3665800">
    <ele>3042.4</ele>
    <time>2026-06-24T05:01:56Z</time>
   </trkpt>
   <trkpt lat="-3.1588430" lon="37.3665780">
    <ele>3042.4</ele>
    <time>2026-06-24T05:01:57Z</time>
   </trkpt>
   <trkpt lat="-3.1588520" lon="37.3665790">
    <ele>3042.3</ele>
    <time>2026-06-24T05:01:58Z</time>
   </trkpt>
   <trkpt lat="-3.1588600" lon="37.3665760">
    <ele>3042.2</ele>
    <time>2026-06-24T05:01:59Z</time>
   </trkpt>
   <trkpt lat="-3.1588670" lon="37.3665700">
    <ele>3042.1</ele>
    <time>2026-06-24T05:02:00Z</time>
   </trkpt>
   <trkpt lat="-3.1588770" lon="37.3665640">
    <ele>3042.0</ele>
    <time>2026-06-24T05:02:01Z</time>
   </trkpt>
   <trkpt lat="-3.1588830" lon="37.3665640">
    <ele>3042.0</ele>
    <time>2026-06-24T05:02:02Z</time>
   </trkpt>
   <trkpt lat="-3.1588890" lon="37.3665610">
    <ele>3041.9</ele>
    <time>2026-06-24T05:02:03Z</time>
   </trkpt>
   <trkpt lat="-3.1588920" lon="37.3665630">
    <ele>3041.9</ele>
    <time>2026-06-24T05:02:04Z</time>
   </trkpt>
   <trkpt lat="-3.1589030" lon="37.3665640">
    <ele>3041.7</ele>
    <time>2026-06-24T05:02:05Z</time>
   </trkpt>
   <trkpt lat="-3.1589150" lon="37.3665610">
    <ele>3041.6</ele>
    <time>2026-06-24T05:02:06Z</time>
   </trkpt>
   <trkpt lat="-3.1589210" lon="37.3665600">
    <ele>3041.6</ele>
    <time>2026-06-24T05:02:07Z</time>
   </trkpt>
   <trkpt lat="-3.1589320" lon="37.3665580">
    <ele>3041.4</ele>
    <time>2026-06-24T05:02:08Z</time>
   </trkpt>
   <trkpt lat="-3.1589340" lon="37.3665580">
    <ele>3041.4</ele>
    <time>2026-06-24T05:02:09Z</time>
   </trkpt>
   <trkpt lat="-3.1589450" lon="37.3665530">
    <ele>3041.3</ele>
    <time>2026-06-24T05:02:10Z</time>
   </trkpt>
   <trkpt lat="-3.1589540" lon="37.3665510">
    <ele>3041.2</ele>
    <time>2026-06-24T05:02:11Z</time>
   </trkpt>
   <trkpt lat="-3.1589690" lon="37.3665470">
    <ele>3041.1</ele>
    <time>2026-06-24T05:02:12Z</time>
   </trkpt>
   <trkpt lat="-3.1589750" lon="37.3665420">
    <ele>3041.0</ele>
    <time>2026-06-24T05:02:13Z</time>
   </trkpt>
   <trkpt lat="-3.1589840" lon="37.3665390">
    <ele>3040.9</ele>
    <time>2026-06-24T05:02:14Z</time>
   </trkpt>
   <trkpt lat="-3.1589910" lon="37.3665380">
    <ele>3040.8</ele>
    <time>2026-06-24T05:02:15Z</time>
   </trkpt>
   <trkpt lat="-3.1590020" lon="37.3665370">
    <ele>3040.7</ele>
    <time>2026-06-24T05:02:16Z</time>
   </trkpt>
   <trkpt lat="-3.1590090" lon="37.3665340">
    <ele>3040.6</ele>
    <time>2026-06-24T05:02:17Z</time>
   </trkpt>
   <trkpt lat="-3.1590180" lon="37.3665310">
    <ele>3040.5</ele>
    <time>2026-06-24T05:02:18Z</time>
   </trkpt>
   <trkpt lat="-3.1590260" lon="37.3665290">
    <ele>3040.5</ele>
    <time>2026-06-24T05:02:19Z</time>
   </trkpt>
   <trkpt lat="-3.1590300" lon="37.3665300">
    <ele>3040.4</ele>
    <time>2026-06-24T05:02:20Z</time>
   </trkpt>
   <trkpt lat="-3.1590380" lon="37.3665280">
    <ele>3040.3</ele>
    <time>2026-06-24T05:02:21Z</time>
   </trkpt>
   <trkpt lat="-3.1590450" lon="37.3665270">
    <ele>3040.3</ele>
    <time>2026-06-24T05:02:22Z</time>
   </trkpt>
   <trkpt lat="-3.1590490" lon="37.3665250">
    <ele>3040.2</ele>
    <time>2026-06-24T05:02:23Z</time>
   </trkpt>
   <trkpt lat="-3.1590550" lon="37.3665220">
    <ele>3040.1</ele>
    <time>2026-06-24T05:02:24Z</time>
   </trkpt>
   <trkpt lat="-3.1590630" lon="37.3665160">
    <ele>3040.0</ele>
    <time>2026-06-24T05:02:25Z</time>
   </trkpt>
   <trkpt lat="-3.1590720" lon="37.3665140">
    <ele>3040.0</ele>
    <time>2026-06-24T05:02:26Z</time>
   </trkpt>
   <trkpt lat="-3.1590770" lon="37.3665120">
    <ele>3039.9</ele>
    <time>2026-06-24T05:02:27Z</time>
   </trkpt>
   <trkpt lat="-3.1590790" lon="37.3665170">
    <ele>3039.9</ele>
    <time>2026-06-24T05:02:28Z</time>
   </trkpt>
   <trkpt lat="-3.1590860" lon="37.3665170">
    <ele>3039.8</ele>
    <time>2026-06-24T05:02:29Z</time>
   </trkpt>
   <trkpt lat="-3.1590960" lon="37.3665120">
    <ele>3039.7</ele>
    <time>2026-06-24T05:02:31Z</time>
   </trkpt>
   <trkpt lat="-3.1591060" lon="37.3665070">
    <ele>3039.6</ele>
    <time>2026-06-24T05:02:32Z</time>
   </trkpt>
   <trkpt lat="-3.1591220" lon="37.3665060">
    <ele>3039.4</ele>
    <time>2026-06-24T05:02:33Z</time>
   </trkpt>
   <trkpt lat="-3.1591310" lon="37.3665000">
    <ele>3039.3</ele>
    <time>2026-06-24T05:02:34Z</time>
   </trkpt>
   <trkpt lat="-3.1591360" lon="37.3664970">
    <ele>3039.3</ele>
    <time>2026-06-24T05:02:35Z</time>
   </trkpt>
   <trkpt lat="-3.1591420" lon="37.3664910">
    <ele>3039.2</ele>
    <time>2026-06-24T05:02:36Z</time>
   </trkpt>
   <trkpt lat="-3.1591510" lon="37.3664880">
    <ele>3039.1</ele>
    <time>2026-06-24T05:02:37Z</time>
   </trkpt>
   <trkpt lat="-3.1591560" lon="37.3664860">
    <ele>3039.0</ele>
    <time>2026-06-24T05:02:38Z</time>
   </trkpt>
   <trkpt lat="-3.1591630" lon="37.3664830">
    <ele>3039.0</ele>
    <time>2026-06-24T05:02:39Z</time>
   </trkpt>
   <trkpt lat="-3.1591690" lon="37.3664800">
    <ele>3038.9</ele>
    <time>2026-06-24T05:02:40Z</time>
   </trkpt>
   <trkpt lat="-3.1591770" lon="37.3664790">
    <ele>3038.8</ele>
    <time>2026-06-24T05:02:41Z</time>
   </trkpt>
   <trkpt lat="-3.1591840" lon="37.3664760">
    <ele>3038.7</ele>
    <time>2026-06-24T05:02:42Z</time>
   </trkpt>
   <trkpt lat="-3.1591900" lon="37.3664790">
    <ele>3038.7</ele>
    <time>2026-06-24T05:02:43Z</time>
   </trkpt>
   <trkpt lat="-3.1591950" lon="37.3664780">
    <ele>3038.6</ele>
    <time>2026-06-24T05:02:44Z</time>
   </trkpt>
   <trkpt lat="-3.1592040" lon="37.3664790">
    <ele>3038.6</ele>
    <time>2026-06-24T05:02:45Z</time>
   </trkpt>
   <trkpt lat="-3.1592100" lon="37.3664820">
    <ele>3038.5</ele>
    <time>2026-06-24T05:02:46Z</time>
   </trkpt>
   <trkpt lat="-3.1592180" lon="37.3664780">
    <ele>3038.4</ele>
    <time>2026-06-24T05:02:47Z</time>
   </trkpt>
   <trkpt lat="-3.1592310" lon="37.3664760">
    <ele>3038.3</ele>
    <time>2026-06-24T05:02:48Z</time>
   </trkpt>
   <trkpt lat="-3.1592420" lon="37.3664730">
    <ele>3038.2</ele>
    <time>2026-06-24T05:02:49Z</time>
   </trkpt>
   <trkpt lat="-3.1592450" lon="37.3664720">
    <ele>3038.2</ele>
    <time>2026-06-24T05:02:50Z</time>
   </trkpt>
   <trkpt lat="-3.1592530" lon="37.3664680">
    <ele>3038.1</ele>
    <time>2026-06-24T05:02:51Z</time>
   </trkpt>
   <trkpt lat="-3.1592630" lon="37.3664650">
    <ele>3038.0</ele>
    <time>2026-06-24T05:02:52Z</time>
   </trkpt>
   <trkpt lat="-3.1592690" lon="37.3664620">
    <ele>3038.0</ele>
    <time>2026-06-24T05:02:53Z</time>
   </trkpt>
   <trkpt lat="-3.1592780" lon="37.3664580">
    <ele>3037.9</ele>
    <time>2026-06-24T05:02:54Z</time>
   </trkpt>
   <trkpt lat="-3.1592820" lon="37.3664540">
    <ele>3037.8</ele>
    <time>2026-06-24T05:02:55Z</time>
   </trkpt>
   <trkpt lat="-3.1592880" lon="37.3664510">
    <ele>3037.8</ele>
    <time>2026-06-24T05:02:56Z</time>
   </trkpt>
   <trkpt lat="-3.1592950" lon="37.3664480">
    <ele>3037.7</ele>
    <time>2026-06-24T05:02:57Z</time>
   </trkpt>
   <trkpt lat="-3.1593030" lon="37.3664450">
    <ele>3037.6</ele>
    <time>2026-06-24T05:02:58Z</time>
   </trkpt>
   <trkpt lat="-3.1593160" lon="37.3664390">
    <ele>3037.5</ele>
    <time>2026-06-24T05:02:59Z</time>
   </trkpt>
   <trkpt lat="-3.1593170" lon="37.3664410">
    <ele>3037.5</ele>
    <time>2026-06-24T05:03:00Z</time>
   </trkpt>
   <trkpt lat="-3.1593260" lon="37.3664360">
    <ele>3037.4</ele>
    <time>2026-06-24T05:03:01Z</time>
   </trkpt>
   <trkpt lat="-3.1593350" lon="37.3664320">
    <ele>3037.3</ele>
    <time>2026-06-24T05:03:02Z</time>
   </trkpt>
   <trkpt lat="-3.1593440" lon="37.3664290">
    <ele>3037.2</ele>
    <time>2026-06-24T05:03:03Z</time>
   </trkpt>
   <trkpt lat="-3.1593530" lon="37.3664260">
    <ele>3037.1</ele>
    <time>2026-06-24T05:03:04Z</time>
   </trkpt>
   <trkpt lat="-3.1593550" lon="37.3664290">
    <ele>3037.1</ele>
    <time>2026-06-24T05:03:05Z</time>
   </trkpt>
   <trkpt lat="-3.1593630" lon="37.3664270">
    <ele>3037.0</ele>
    <time>2026-06-24T05:03:06Z</time>
   </trkpt>
   <trkpt lat="-3.1593700" lon="37.3664270">
    <ele>3037.0</ele>
    <time>2026-06-24T05:03:07Z</time>
   </trkpt>
   <trkpt lat="-3.1593810" lon="37.3664270">
    <ele>3036.9</ele>
    <time>2026-06-24T05:03:08Z</time>
   </trkpt>
   <trkpt lat="-3.1593870" lon="37.3664260">
    <ele>3036.8</ele>
    <time>2026-06-24T05:03:09Z</time>
   </trkpt>
   <trkpt lat="-3.1593960" lon="37.3664230">
    <ele>3036.8</ele>
    <time>2026-06-24T05:03:10Z</time>
   </trkpt>
   <trkpt lat="-3.1593980" lon="37.3664200">
    <ele>3036.7</ele>
    <time>2026-06-24T05:03:11Z</time>
   </trkpt>
   <trkpt lat="-3.1594030" lon="37.3664180">
    <ele>3036.7</ele>
    <time>2026-06-24T05:03:12Z</time>
   </trkpt>
   <trkpt lat="-3.1594120" lon="37.3664140">
    <ele>3036.6</ele>
    <time>2026-06-24T05:03:13Z</time>
   </trkpt>
   <trkpt lat="-3.1594190" lon="37.3664060">
    <ele>3036.5</ele>
    <time>2026-06-24T05:03:14Z</time>
   </trkpt>
   <trkpt lat="-3.1594250" lon="37.3664040">
    <ele>3036.5</ele>
    <time>2026-06-24T05:03:15Z</time>
   </trkpt>
   <trkpt lat="-3.1594320" lon="37.3664040">
    <ele>3036.4</ele>
    <time>2026-06-24T05:03:16Z</time>
   </trkpt>
   <trkpt lat="-3.1594400" lon="37.3664030">
    <ele>3036.4</ele>
    <time>2026-06-24T05:03:17Z</time>
   </trkpt>
   <trkpt lat="-3.1594510" lon="37.3664000">
    <ele>3036.3</ele>
    <time>2026-06-24T05:03:18Z</time>
   </trkpt>
   <trkpt lat="-3.1594550" lon="37.3664020">
    <ele>3036.2</ele>
    <time>2026-06-24T05:03:19Z</time>
   </trkpt>
   <trkpt lat="-3.1594640" lon="37.3664000">
    <ele>3036.1</ele>
    <time>2026-06-24T05:03:20Z</time>
   </trkpt>
   <trkpt lat="-3.1594760" lon="37.3664000">
    <ele>3036.1</ele>
    <time>2026-06-24T05:03:21Z</time>
   </trkpt>
   <trkpt lat="-3.1594860" lon="37.3664000">
    <ele>3036.0</ele>
    <time>2026-06-24T05:03:22Z</time>
   </trkpt>
   <trkpt lat="-3.1594950" lon="37.3664020">
    <ele>3035.9</ele>
    <time>2026-06-24T05:03:23Z</time>
   </trkpt>
   <trkpt lat="-3.1595030" lon="37.3664010">
    <ele>3035.8</ele>
    <time>2026-06-24T05:03:24Z</time>
   </trkpt>
   <trkpt lat="-3.1595040" lon="37.3664000">
    <ele>3035.8</ele>
    <time>2026-06-24T05:03:25Z</time>
   </trkpt>
   <trkpt lat="-3.1595090" lon="37.3663980">
    <ele>3035.8</ele>
    <time>2026-06-24T05:03:26Z</time>
   </trkpt>
   <trkpt lat="-3.1595150" lon="37.3663960">
    <ele>3035.7</ele>
    <time>2026-06-24T05:03:27Z</time>
   </trkpt>
   <trkpt lat="-3.1595250" lon="37.3663930">
    <ele>3035.6</ele>
    <time>2026-06-24T05:03:28Z</time>
   </trkpt>
   <trkpt lat="-3.1595360" lon="37.3663930">
    <ele>3035.6</ele>
    <time>2026-06-24T05:03:29Z</time>
   </trkpt>
   <trkpt lat="-3.1595430" lon="37.3663880">
    <ele>3035.5</ele>
    <time>2026-06-24T05:03:30Z</time>
   </trkpt>
   <trkpt lat="-3.1595520" lon="37.3663860">
    <ele>3035.4</ele>
    <time>2026-06-24T05:03:31Z</time>
   </trkpt>
   <trkpt lat="-3.1595660" lon="37.3663880">
    <ele>3035.3</ele>
    <time>2026-06-24T05:03:32Z</time>
   </trkpt>
   <trkpt lat="-3.1595780" lon="37.3663880">
    <ele>3035.2</ele>
    <time>2026-06-24T05:03:33Z</time>
   </trkpt>
   <trkpt lat="-3.1595840" lon="37.3663870">
    <ele>3035.2</ele>
    <time>2026-06-24T05:03:34Z</time>
   </trkpt>
   <trkpt lat="-3.1596000" lon="37.3663860">
    <ele>3035.1</ele>
    <time>2026-06-24T05:03:35Z</time>
   </trkpt>
   <trkpt lat="-3.1596090" lon="37.3663840">
    <ele>3035.0</ele>
    <time>2026-06-24T05:03:36Z</time>
   </trkpt>
   <trkpt lat="-3.1596110" lon="37.3663790">
    <ele>3035.0</ele>
    <time>2026-06-24T05:03:37Z</time>
   </trkpt>
   <trkpt lat="-3.1596240" lon="37.3663760">
    <ele>3034.9</ele>
    <time>2026-06-24T05:03:38Z</time>
   </trkpt>
   <trkpt lat="-3.1596340" lon="37.3663740">
    <ele>3034.8</ele>
    <time>2026-06-24T05:03:39Z</time>
   </trkpt>
   <trkpt lat="-3.1596390" lon="37.3663690">
    <ele>3034.8</ele>
    <time>2026-06-24T05:03:40Z</time>
   </trkpt>
   <trkpt lat="-3.1596490" lon="37.3663650">
    <ele>3034.7</ele>
    <time>2026-06-24T05:03:41Z</time>
   </trkpt>
   <trkpt lat="-3.1596560" lon="37.3663630">
    <ele>3034.7</ele>
    <time>2026-06-24T05:03:42Z</time>
   </trkpt>
   <trkpt lat="-3.1596690" lon="37.3663570">
    <ele>3034.6</ele>
    <time>2026-06-24T05:03:43Z</time>
   </trkpt>
   <trkpt lat="-3.1596820" lon="37.3663510">
    <ele>3034.6</ele>
    <time>2026-06-24T05:03:44Z</time>
   </trkpt>
   <trkpt lat="-3.1596970" lon="37.3663420">
    <ele>3034.5</ele>
    <time>2026-06-24T05:03:45Z</time>
   </trkpt>
   <trkpt lat="-3.1597090" lon="37.3663350">
    <ele>3034.4</ele>
    <time>2026-06-24T05:03:46Z</time>
   </trkpt>
   <trkpt lat="-3.1597190" lon="37.3663280">
    <ele>3034.4</ele>
    <time>2026-06-24T05:03:47Z</time>
   </trkpt>
   <trkpt lat="-3.1597330" lon="37.3663220">
    <ele>3034.3</ele>
    <time>2026-06-24T05:03:48Z</time>
   </trkpt>
   <trkpt lat="-3.1597430" lon="37.3663140">
    <ele>3034.3</ele>
    <time>2026-06-24T05:03:49Z</time>
   </trkpt>
   <trkpt lat="-3.1597480" lon="37.3663100">
    <ele>3034.3</ele>
    <time>2026-06-24T05:03:50Z</time>
   </trkpt>
   <trkpt lat="-3.1597580" lon="37.3663060">
    <ele>3034.2</ele>
    <time>2026-06-24T05:03:51Z</time>
   </trkpt>
   <trkpt lat="-3.1597580" lon="37.3663020">
    <ele>3034.2</ele>
    <time>2026-06-24T05:03:52Z</time>
   </trkpt>
   <trkpt lat="-3.1597580" lon="37.3662980">
    <ele>3034.2</ele>
    <time>2026-06-24T05:03:53Z</time>
   </trkpt>
   <trkpt lat="-3.1597630" lon="37.3662930">
    <ele>3034.2</ele>
    <time>2026-06-24T05:03:54Z</time>
   </trkpt>
   <trkpt lat="-3.1597630" lon="37.3662870">
    <ele>3034.2</ele>
    <time>2026-06-24T05:03:55Z</time>
   </trkpt>
   <trkpt lat="-3.1597660" lon="37.3662860">
    <ele>3034.1</ele>
    <time>2026-06-24T05:03:56Z</time>
   </trkpt>
   <trkpt lat="-3.1597690" lon="37.3662840">
    <ele>3034.1</ele>
    <time>2026-06-24T05:03:57Z</time>
   </trkpt>
   <trkpt lat="-3.1597780" lon="37.3662820">
    <ele>3034.1</ele>
    <time>2026-06-24T05:03:58Z</time>
   </trkpt>
   <trkpt lat="-3.1597900" lon="37.3662750">
    <ele>3034.1</ele>
    <time>2026-06-24T05:03:59Z</time>
   </trkpt>
   <trkpt lat="-3.1598000" lon="37.3662720">
    <ele>3034.0</ele>
    <time>2026-06-24T05:04:00Z</time>
   </trkpt>
   <trkpt lat="-3.1598080" lon="37.3662670">
    <ele>3034.0</ele>
    <time>2026-06-24T05:04:01Z</time>
   </trkpt>
   <trkpt lat="-3.1598170" lon="37.3662660">
    <ele>3034.0</ele>
    <time>2026-06-24T05:04:02Z</time>
   </trkpt>
   <trkpt lat="-3.1598270" lon="37.3662600">
    <ele>3033.9</ele>
    <time>2026-06-24T05:04:03Z</time>
   </trkpt>
   <trkpt lat="-3.1598330" lon="37.3662530">
    <ele>3033.9</ele>
    <time>2026-06-24T05:04:04Z</time>
   </trkpt>
   <trkpt lat="-3.1598420" lon="37.3662450">
    <ele>3033.9</ele>
    <time>2026-06-24T05:04:05Z</time>
   </trkpt>
   <trkpt lat="-3.1598480" lon="37.3662390">
    <ele>3033.8</ele>
    <time>2026-06-24T05:04:06Z</time>
   </trkpt>
   <trkpt lat="-3.1598550" lon="37.3662370">
    <ele>3033.8</ele>
    <time>2026-06-24T05:04:07Z</time>
   </trkpt>
   <trkpt lat="-3.1598630" lon="37.3662310">
    <ele>3033.8</ele>
    <time>2026-06-24T05:04:08Z</time>
   </trkpt>
   <trkpt lat="-3.1598690" lon="37.3662330">
    <ele>3033.7</ele>
    <time>2026-06-24T05:04:09Z</time>
   </trkpt>
   <trkpt lat="-3.1598750" lon="37.3662270">
    <ele>3033.7</ele>
    <time>2026-06-24T05:04:10Z</time>
   </trkpt>
   <trkpt lat="-3.1598830" lon="37.3662260">
    <ele>3033.7</ele>
    <time>2026-06-24T05:04:11Z</time>
   </trkpt>
   <trkpt lat="-3.1598920" lon="37.3662230">
    <ele>3033.6</ele>
    <time>2026-06-24T05:04:12Z</time>
   </trkpt>
   <trkpt lat="-3.1598980" lon="37.3662220">
    <ele>3033.6</ele>
    <time>2026-06-24T05:04:13Z</time>
   </trkpt>
   <trkpt lat="-3.1599050" lon="37.3662170">
    <ele>3033.5</ele>
    <time>2026-06-24T05:04:14Z</time>
   </trkpt>
   <trkpt lat="-3.1599130" lon="37.3662150">
    <ele>3033.5</ele>
    <time>2026-06-24T05:04:15Z</time>
   </trkpt>
   <trkpt lat="-3.1599160" lon="37.3662130">
    <ele>3033.5</ele>
    <time>2026-06-24T05:04:16Z</time>
   </trkpt>
   <trkpt lat="-3.1599260" lon="37.3662070">
    <ele>3033.4</ele>
    <time>2026-06-24T05:04:17Z</time>
   </trkpt>
   <trkpt lat="-3.1599320" lon="37.3662010">
    <ele>3033.3</ele>
    <time>2026-06-24T05:04:18Z</time>
   </trkpt>
   <trkpt lat="-3.1599400" lon="37.3661960">
    <ele>3033.3</ele>
    <time>2026-06-24T05:04:19Z</time>
   </trkpt>
   <trkpt lat="-3.1599450" lon="37.3661920">
    <ele>3033.2</ele>
    <time>2026-06-24T05:04:20Z</time>
   </trkpt>
   <trkpt lat="-3.1599540" lon="37.3661810">
    <ele>3033.1</ele>
    <time>2026-06-24T05:04:21Z</time>
   </trkpt>
   <trkpt lat="-3.1599590" lon="37.3661770">
    <ele>3033.1</ele>
    <time>2026-06-24T05:04:22Z</time>
   </trkpt>
   <trkpt lat="-3.1599650" lon="37.3661730">
    <ele>3033.0</ele>
    <time>2026-06-24T05:04:23Z</time>
   </trkpt>
   <trkpt lat="-3.1599710" lon="37.3661690">
    <ele>3032.9</ele>
    <time>2026-06-24T05:04:24Z</time>
   </trkpt>
   <trkpt lat="-3.1599750" lon="37.3661660">
    <ele>3032.9</ele>
    <time>2026-06-24T05:04:25Z</time>
   </trkpt>
   <trkpt lat="-3.1599890" lon="37.3661570">
    <ele>3032.7</ele>
    <time>2026-06-24T05:04:26Z</time>
   </trkpt>
   <trkpt lat="-3.1599940" lon="37.3661540">
    <ele>3032.7</ele>
    <time>2026-06-24T05:04:27Z</time>
   </trkpt>
   <trkpt lat="-3.1600030" lon="37.3661450">
    <ele>3032.6</ele>
    <time>2026-06-24T05:04:28Z</time>
   </trkpt>
   <trkpt lat="-3.1600110" lon="37.3661400">
    <ele>3032.5</ele>
    <time>2026-06-24T05:04:29Z</time>
   </trkpt>
   <trkpt lat="-3.1600170" lon="37.3661340">
    <ele>3032.4</ele>
    <time>2026-06-24T05:04:30Z</time>
   </trkpt>
   <trkpt lat="-3.1600230" lon="37.3661260">
    <ele>3032.3</ele>
    <time>2026-06-24T05:04:31Z</time>
   </trkpt>
   <trkpt lat="-3.1600310" lon="37.3661180">
    <ele>3032.2</ele>
    <time>2026-06-24T05:04:32Z</time>
   </trkpt>
   <trkpt lat="-3.1600370" lon="37.3661110">
    <ele>3032.1</ele>
    <time>2026-06-24T05:04:33Z</time>
   </trkpt>
   <trkpt lat="-3.1600430" lon="37.3661040">
    <ele>3032.0</ele>
    <time>2026-06-24T05:04:34Z</time>
   </trkpt>
   <trkpt lat="-3.1600470" lon="37.3660990">
    <ele>3031.9</ele>
    <time>2026-06-24T05:04:35Z</time>
   </trkpt>
   <trkpt lat="-3.1600490" lon="37.3660950">
    <ele>3031.9</ele>
    <time>2026-06-24T05:04:37Z</time>
   </trkpt>
   <trkpt lat="-3.1600560" lon="37.3660830">
    <ele>3031.7</ele>
    <time>2026-06-24T05:04:38Z</time>
   </trkpt>
   <trkpt lat="-3.1600660" lon="37.3660710">
    <ele>3031.6</ele>
    <time>2026-06-24T05:04:39Z</time>
   </trkpt>
   <trkpt lat="-3.1600720" lon="37.3660620">
    <ele>3031.5</ele>
    <time>2026-06-24T05:04:40Z</time>
   </trkpt>
   <trkpt lat="-3.1600750" lon="37.3660570">
    <ele>3031.4</ele>
    <time>2026-06-24T05:04:41Z</time>
   </trkpt>
   <trkpt lat="-3.1600780" lon="37.3660510">
    <ele>3031.3</ele>
    <time>2026-06-24T05:04:42Z</time>
   </trkpt>
   <trkpt lat="-3.1600830" lon="37.3660500">
    <ele>3031.3</ele>
    <time>2026-06-24T05:04:43Z</time>
   </trkpt>
   <trkpt lat="-3.1600870" lon="37.3660460">
    <ele>3031.2</ele>
    <time>2026-06-24T05:04:44Z</time>
   </trkpt>
   <trkpt lat="-3.1600890" lon="37.3660440">
    <ele>3031.2</ele>
    <time>2026-06-24T05:04:45Z</time>
   </trkpt>
   <trkpt lat="-3.1600940" lon="37.3660370">
    <ele>3031.1</ele>
    <time>2026-06-24T05:04:46Z</time>
   </trkpt>
   <trkpt lat="-3.1601010" lon="37.3660330">
    <ele>3031.0</ele>
    <time>2026-06-24T05:04:47Z</time>
   </trkpt>
   <trkpt lat="-3.1601040" lon="37.3660270">
    <ele>3030.9</ele>
    <time>2026-06-24T05:04:48Z</time>
   </trkpt>
   <trkpt lat="-3.1601080" lon="37.3660220">
    <ele>3030.8</ele>
    <time>2026-06-24T05:04:49Z</time>
   </trkpt>
   <trkpt lat="-3.1601130" lon="37.3660170">
    <ele>3030.8</ele>
    <time>2026-06-24T05:04:50Z</time>
   </trkpt>
   <trkpt lat="-3.1601160" lon="37.3660120">
    <ele>3030.7</ele>
    <time>2026-06-24T05:04:51Z</time>
   </trkpt>
   <trkpt lat="-3.1601220" lon="37.3660090">
    <ele>3030.6</ele>
    <time>2026-06-24T05:04:52Z</time>
   </trkpt>
   <trkpt lat="-3.1601280" lon="37.3660040">
    <ele>3030.5</ele>
    <time>2026-06-24T05:04:53Z</time>
   </trkpt>
   <trkpt lat="-3.1601300" lon="37.3660030">
    <ele>3030.5</ele>
    <time>2026-06-24T05:04:54Z</time>
   </trkpt>
   <trkpt lat="-3.1601330" lon="37.3660020">
    <ele>3030.5</ele>
    <time>2026-06-24T05:04:55Z</time>
   </trkpt>
   <trkpt lat="-3.1601370" lon="37.3660000">
    <ele>3030.4</ele>
    <time>2026-06-24T05:04:56Z</time>
   </trkpt>
   <trkpt lat="-3.1601450" lon="37.3659920">
    <ele>3030.3</ele>
    <time>2026-06-24T05:04:57Z</time>
   </trkpt>
   <trkpt lat="-3.1601560" lon="37.3659880">
    <ele>3030.1</ele>
    <time>2026-06-24T05:04:58Z</time>
   </trkpt>
   <trkpt lat="-3.1601620" lon="37.3659800">
    <ele>3030.0</ele>
    <time>2026-06-24T05:04:59Z</time>
   </trkpt>
   <trkpt lat="-3.1601660" lon="37.3659770">
    <ele>3030.0</ele>
    <time>2026-06-24T05:05:00Z</time>
   </trkpt>
   <trkpt lat="-3.1601720" lon="37.3659740">
    <ele>3029.9</ele>
    <time>2026-06-24T05:05:01Z</time>
   </trkpt>
   <trkpt lat="-3.1601810" lon="37.3659650">
    <ele>3029.7</ele>
    <time>2026-06-24T05:05:02Z</time>
   </trkpt>
   <trkpt lat="-3.1601860" lon="37.3659620">
    <ele>3029.7</ele>
    <time>2026-06-24T05:05:03Z</time>
   </trkpt>
   <trkpt lat="-3.1601920" lon="37.3659570">
    <ele>3029.6</ele>
    <time>2026-06-24T05:05:04Z</time>
   </trkpt>
   <trkpt lat="-3.1601930" lon="37.3659580">
    <ele>3029.6</ele>
    <time>2026-06-24T05:05:05Z</time>
   </trkpt>
   <trkpt lat="-3.1602040" lon="37.3659510">
    <ele>3029.4</ele>
    <time>2026-06-24T05:05:06Z</time>
   </trkpt>
   <trkpt lat="-3.1602160" lon="37.3659480">
    <ele>3029.3</ele>
    <time>2026-06-24T05:05:07Z</time>
   </trkpt>
   <trkpt lat="-3.1602260" lon="37.3659440">
    <ele>3029.2</ele>
    <time>2026-06-24T05:05:08Z</time>
   </trkpt>
   <trkpt lat="-3.1602370" lon="37.3659380">
    <ele>3029.0</ele>
    <time>2026-06-24T05:05:09Z</time>
   </trkpt>
   <trkpt lat="-3.1602440" lon="37.3659340">
    <ele>3028.9</ele>
    <time>2026-06-24T05:05:10Z</time>
   </trkpt>
   <trkpt lat="-3.1602520" lon="37.3659290">
    <ele>3028.8</ele>
    <time>2026-06-24T05:05:11Z</time>
   </trkpt>
   <trkpt lat="-3.1602580" lon="37.3659240">
    <ele>3028.7</ele>
    <time>2026-06-24T05:05:12Z</time>
   </trkpt>
   <trkpt lat="-3.1602650" lon="37.3659230">
    <ele>3028.7</ele>
    <time>2026-06-24T05:05:13Z</time>
   </trkpt>
   <trkpt lat="-3.1602720" lon="37.3659220">
    <ele>3028.6</ele>
    <time>2026-06-24T05:05:14Z</time>
   </trkpt>
   <trkpt lat="-3.1602820" lon="37.3659200">
    <ele>3028.5</ele>
    <time>2026-06-24T05:05:15Z</time>
   </trkpt>
   <trkpt lat="-3.1602970" lon="37.3659160">
    <ele>3028.3</ele>
    <time>2026-06-24T05:05:16Z</time>
   </trkpt>
   <trkpt lat="-3.1603070" lon="37.3659180">
    <ele>3028.2</ele>
    <time>2026-06-24T05:05:17Z</time>
   </trkpt>
   <trkpt lat="-3.1603110" lon="37.3659140">
    <ele>3028.1</ele>
    <time>2026-06-24T05:05:18Z</time>
   </trkpt>
   <trkpt lat="-3.1603200" lon="37.3659100">
    <ele>3028.0</ele>
    <time>2026-06-24T05:05:19Z</time>
   </trkpt>
   <trkpt lat="-3.1603310" lon="37.3659100">
    <ele>3027.9</ele>
    <time>2026-06-24T05:05:20Z</time>
   </trkpt>
   <trkpt lat="-3.1603430" lon="37.3659050">
    <ele>3027.8</ele>
    <time>2026-06-24T05:05:21Z</time>
   </trkpt>
   <trkpt lat="-3.1603560" lon="37.3659010">
    <ele>3027.7</ele>
    <time>2026-06-24T05:05:22Z</time>
   </trkpt>
   <trkpt lat="-3.1603680" lon="37.3658950">
    <ele>3027.5</ele>
    <time>2026-06-24T05:05:23Z</time>
   </trkpt>
   <trkpt lat="-3.1603760" lon="37.3658930">
    <ele>3027.5</ele>
    <time>2026-06-24T05:05:24Z</time>
   </trkpt>
   <trkpt lat="-3.1603860" lon="37.3658910">
    <ele>3027.4</ele>
    <time>2026-06-24T05:05:25Z</time>
   </trkpt>
   <trkpt lat="-3.1604000" lon="37.3658900">
    <ele>3027.2</ele>
    <time>2026-06-24T05:05:26Z</time>
   </trkpt>
   <trkpt lat="-3.1604120" lon="37.3658940">
    <ele>3027.1</ele>
    <time>2026-06-24T05:05:27Z</time>
   </trkpt>
   <trkpt lat="-3.1604220" lon="37.3658960">
    <ele>3027.0</ele>
    <time>2026-06-24T05:05:28Z</time>
   </trkpt>
   <trkpt lat="-3.1604310" lon="37.3658940">
    <ele>3026.9</ele>
    <time>2026-06-24T05:05:29Z</time>
   </trkpt>
   <trkpt lat="-3.1604410" lon="37.3658910">
    <ele>3026.8</ele>
    <time>2026-06-24T05:05:30Z</time>
   </trkpt>
   <trkpt lat="-3.1604490" lon="37.3658900">
    <ele>3026.8</ele>
    <time>2026-06-24T05:05:31Z</time>
   </trkpt>
   <trkpt lat="-3.1604600" lon="37.3658900">
    <ele>3026.7</ele>
    <time>2026-06-24T05:05:32Z</time>
   </trkpt>
   <trkpt lat="-3.1604650" lon="37.3658920">
    <ele>3026.6</ele>
    <time>2026-06-24T05:05:33Z</time>
   </trkpt>
   <trkpt lat="-3.1604720" lon="37.3658950">
    <ele>3026.5</ele>
    <time>2026-06-24T05:05:34Z</time>
   </trkpt>
   <trkpt lat="-3.1604790" lon="37.3658980">
    <ele>3026.5</ele>
    <time>2026-06-24T05:05:35Z</time>
   </trkpt>
   <trkpt lat="-3.1604870" lon="37.3659030">
    <ele>3026.4</ele>
    <time>2026-06-24T05:05:36Z</time>
   </trkpt>
   <trkpt lat="-3.1604910" lon="37.3659050">
    <ele>3026.3</ele>
    <time>2026-06-24T05:05:37Z</time>
   </trkpt>
   <trkpt lat="-3.1604960" lon="37.3659060">
    <ele>3026.3</ele>
    <time>2026-06-24T05:05:38Z</time>
   </trkpt>
   <trkpt lat="-3.1605060" lon="37.3659200">
    <ele>3026.1</ele>
    <time>2026-06-24T05:05:39Z</time>
   </trkpt>
   <trkpt lat="-3.1605070" lon="37.3659210">
    <ele>3026.1</ele>
    <time>2026-06-24T05:05:40Z</time>
   </trkpt>
   <trkpt lat="-3.1605090" lon="37.3659200">
    <ele>3026.1</ele>
    <time>2026-06-24T05:05:41Z</time>
   </trkpt>
   <trkpt lat="-3.1605130" lon="37.3659210">
    <ele>3026.1</ele>
    <time>2026-06-24T05:05:42Z</time>
   </trkpt>
   <trkpt lat="-3.1605160" lon="37.3659220">
    <ele>3026.0</ele>
    <time>2026-06-24T05:05:43Z</time>
   </trkpt>
   <trkpt lat="-3.1605200" lon="37.3659200">
    <ele>3026.0</ele>
    <time>2026-06-24T05:05:44Z</time>
   </trkpt>
   <trkpt lat="-3.1605240" lon="37.3659220">
    <ele>3025.9</ele>
    <time>2026-06-24T05:05:45Z</time>
   </trkpt>
   <trkpt lat="-3.1605270" lon="37.3659200">
    <ele>3025.9</ele>
    <time>2026-06-24T05:05:46Z</time>
   </trkpt>
   <trkpt lat="-3.1605210" lon="37.3659180">
    <ele>3025.8</ele>
    <time>2026-06-24T05:05:47Z</time>
   </trkpt>
   <trkpt lat="-3.1605260" lon="37.3659200">
    <ele>3025.8</ele>
    <time>2026-06-24T05:05:48Z</time>
   </trkpt>
   <trkpt lat="-3.1605300" lon="37.3659130">
    <ele>3025.7</ele>
    <time>2026-06-24T05:05:49Z</time>
   </trkpt>
   <trkpt lat="-3.1605350" lon="37.3659110">
    <ele>3025.6</ele>
    <time>2026-06-24T05:05:50Z</time>
   </trkpt>
   <trkpt lat="-3.1605380" lon="37.3659090">
    <ele>3025.6</ele>
    <time>2026-06-24T05:05:51Z</time>
   </trkpt>
   <trkpt lat="-3.1605400" lon="37.3659100">
    <ele>3025.6</ele>
    <time>2026-06-24T05:05:52Z</time>
   </trkpt>
   <trkpt lat="-3.1605450" lon="37.3659100">
    <ele>3025.5</ele>
    <time>2026-06-24T05:05:53Z</time>
   </trkpt>
   <trkpt lat="-3.1605460" lon="37.3659110">
    <ele>3025.5</ele>
    <time>2026-06-24T05:05:54Z</time>
   </trkpt>
   <trkpt lat="-3.1605510" lon="37.3659100">
    <ele>3025.4</ele>
    <time>2026-06-24T05:05:55Z</time>
   </trkpt>
   <trkpt lat="-3.1605540" lon="37.3659140">
    <ele>3025.4</ele>
    <time>2026-06-24T05:05:56Z</time>
   </trkpt>
   <trkpt lat="-3.1605610" lon="37.3659150">
    <ele>3025.3</ele>
    <time>2026-06-24T05:05:57Z</time>
   </trkpt>
   <trkpt lat="-3.1605630" lon="37.3659130">
    <ele>3025.2</ele>
    <time>2026-06-24T05:05:58Z</time>
   </trkpt>
   <trkpt lat="-3.1605660" lon="37.3659140">
    <ele>3025.2</ele>
    <time>2026-06-24T05:05:59Z</time>
   </trkpt>
   <trkpt lat="-3.1605700" lon="37.3659130">
    <ele>3025.1</ele>
    <time>2026-06-24T05:06:00Z</time>
   </trkpt>
   <trkpt lat="-3.1605730" lon="37.3659130">
    <ele>3025.1</ele>
    <time>2026-06-24T05:06:01Z</time>
   </trkpt>
   <trkpt lat="-3.1605810" lon="37.3659110">
    <ele>3025.0</ele>
    <time>2026-06-24T05:06:02Z</time>
   </trkpt>
   <trkpt lat="-3.1605840" lon="37.3659110">
    <ele>3025.0</ele>
    <time>2026-06-24T05:06:03Z</time>
   </trkpt>
   <trkpt lat="-3.1605910" lon="37.3659080">
    <ele>3024.9</ele>
    <time>2026-06-24T05:06:04Z</time>
   </trkpt>
   <trkpt lat="-3.1605930" lon="37.3659070">
    <ele>3024.8</ele>
    <time>2026-06-24T05:06:05Z</time>
   </trkpt>
   <trkpt lat="-3.1606020" lon="37.3658990">
    <ele>3024.6</ele>
    <time>2026-06-24T05:06:06Z</time>
   </trkpt>
   <trkpt lat="-3.1606030" lon="37.3658960">
    <ele>3024.6</ele>
    <time>2026-06-24T05:06:07Z</time>
   </trkpt>
   <trkpt lat="-3.1606040" lon="37.3658950">
    <ele>3024.6</ele>
    <time>2026-06-24T05:06:08Z</time>
   </trkpt>
   <trkpt lat="-3.1606070" lon="37.3658940">
    <ele>3024.5</ele>
    <time>2026-06-24T05:06:09Z</time>
   </trkpt>
   <trkpt lat="-3.1606170" lon="37.3658890">
    <ele>3024.3</ele>
    <time>2026-06-24T05:06:10Z</time>
   </trkpt>
   <trkpt lat="-3.1606180" lon="37.3658890">
    <ele>3024.3</ele>
    <time>2026-06-24T05:06:11Z</time>
   </trkpt>
   <trkpt lat="-3.1606260" lon="37.3658880">
    <ele>3024.2</ele>
    <time>2026-06-24T05:06:12Z</time>
   </trkpt>
   <trkpt lat="-3.1606340" lon="37.3658860">
    <ele>3024.1</ele>
    <time>2026-06-24T05:06:13Z</time>
   </trkpt>
   <trkpt lat="-3.1606370" lon="37.3658860">
    <ele>3024.0</ele>
    <time>2026-06-24T05:06:14Z</time>
   </trkpt>
   <trkpt lat="-3.1606420" lon="37.3658850">
    <ele>3023.9</ele>
    <time>2026-06-24T05:06:15Z</time>
   </trkpt>
   <trkpt lat="-3.1606470" lon="37.3658820">
    <ele>3023.8</ele>
    <time>2026-06-24T05:06:16Z</time>
   </trkpt>
   <trkpt lat="-3.1606540" lon="37.3658800">
    <ele>3023.7</ele>
    <time>2026-06-24T05:06:17Z</time>
   </trkpt>
   <trkpt lat="-3.1606660" lon="37.3658760">
    <ele>3023.4</ele>
    <time>2026-06-24T05:06:18Z</time>
   </trkpt>
   <trkpt lat="-3.1606720" lon="37.3658750">
    <ele>3023.3</ele>
    <time>2026-06-24T05:06:19Z</time>
   </trkpt>
   <trkpt lat="-3.1606750" lon="37.3658740">
    <ele>3023.2</ele>
    <time>2026-06-24T05:06:20Z</time>
   </trkpt>
   <trkpt lat="-3.1606810" lon="37.3658710">
    <ele>3023.1</ele>
    <time>2026-06-24T05:06:21Z</time>
   </trkpt>
   <trkpt lat="-3.1606870" lon="37.3658710">
    <ele>3023.0</ele>
    <time>2026-06-24T05:06:22Z</time>
   </trkpt>
   <trkpt lat="-3.1606900" lon="37.3658690">
    <ele>3022.9</ele>
    <time>2026-06-24T05:06:23Z</time>
   </trkpt>
   <trkpt lat="-3.1607030" lon="37.3658650">
    <ele>3022.6</ele>
    <time>2026-06-24T05:06:24Z</time>
   </trkpt>
   <trkpt lat="-3.1607100" lon="37.3658640">
    <ele>3022.5</ele>
    <time>2026-06-24T05:06:25Z</time>
   </trkpt>
   <trkpt lat="-3.1607160" lon="37.3658640">
    <ele>3022.3</ele>
    <time>2026-06-24T05:06:26Z</time>
   </trkpt>
   <trkpt lat="-3.1607250" lon="37.3658630">
    <ele>3022.1</ele>
    <time>2026-06-24T05:06:27Z</time>
   </trkpt>
   <trkpt lat="-3.1607280" lon="37.3658610">
    <ele>3022.0</ele>
    <time>2026-06-24T05:06:28Z</time>
   </trkpt>
   <trkpt lat="-3.1607330" lon="37.3658620">
    <ele>3021.9</ele>
    <time>2026-06-24T05:06:29Z</time>
   </trkpt>
   <trkpt lat="-3.1607370" lon="37.3658600">
    <ele>3021.8</ele>
    <time>2026-06-24T05:06:30Z</time>
   </trkpt>
   <trkpt lat="-3.1607430" lon="37.3658580">
    <ele>3021.7</ele>
    <time>2026-06-24T05:06:31Z</time>
   </trkpt>
   <trkpt lat="-3.1607510" lon="37.3658590">
    <ele>3021.5</ele>
    <time>2026-06-24T05:06:32Z</time>
   </trkpt>
   <trkpt lat="-3.1607560" lon="37.3658570">
    <ele>3021.3</ele>
    <time>2026-06-24T05:06:33Z</time>
   </trkpt>
   <trkpt lat="-3.1607590" lon="37.3658550">
    <ele>3021.2</ele>
    <time>2026-06-24T05:06:34Z</time>
   </trkpt>
   <trkpt lat="-3.1607640" lon="37.3658520">
    <ele>3021.1</ele>
    <time>2026-06-24T05:06:35Z</time>
   </trkpt>
   <trkpt lat="-3.1607670" lon="37.3658500">
    <ele>3021.0</ele>
    <time>2026-06-24T05:06:36Z</time>
   </trkpt>
   <trkpt lat="-3.1607710" lon="37.3658480">
    <ele>3020.9</ele>
    <time>2026-06-24T05:06:37Z</time>
   </trkpt>
   <trkpt lat="-3.1607730" lon="37.3658460">
    <ele>3020.8</ele>
    <time>2026-06-24T05:06:38Z</time>
   </trkpt>
   <trkpt lat="-3.1607760" lon="37.3658450">
    <ele>3020.8</ele>
    <time>2026-06-24T05:06:39Z</time>
   </trkpt>
   <trkpt lat="-3.1607820" lon="37.3658430">
    <ele>3020.6</ele>
    <time>2026-06-24T05:06:40Z</time>
   </trkpt>
   <trkpt lat="-3.1607870" lon="37.3658430">
    <ele>3020.5</ele>
    <time>2026-06-24T05:06:42Z</time>
   </trkpt>
   <trkpt lat="-3.1607920" lon="37.3658430">
    <ele>3020.4</ele>
    <time>2026-06-24T05:06:43Z</time>
   </trkpt>
   <trkpt lat="-3.1607990" lon="37.3658430">
    <ele>3020.2</ele>
    <time>2026-06-24T05:06:44Z</time>
   </trkpt>
   <trkpt lat="-3.1608040" lon="37.3658460">
    <ele>3020.1</ele>
    <time>2026-06-24T05:06:45Z</time>
   </trkpt>
   <trkpt lat="-3.1608130" lon="37.3658450">
    <ele>3019.8</ele>
    <time>2026-06-24T05:06:46Z</time>
   </trkpt>
   <trkpt lat="-3.1608180" lon="37.3658400">
    <ele>3019.7</ele>
    <time>2026-06-24T05:06:47Z</time>
   </trkpt>
   <trkpt lat="-3.1608220" lon="37.3658330">
    <ele>3019.5</ele>
    <time>2026-06-24T05:06:48Z</time>
   </trkpt>
   <trkpt lat="-3.1608220" lon="37.3658350">
    <ele>3019.4</ele>
    <time>2026-06-24T05:06:49Z</time>
   </trkpt>
   <trkpt lat="-3.1608320" lon="37.3658370">
    <ele>3019.2</ele>
    <time>2026-06-24T05:06:50Z</time>
   </trkpt>
   <trkpt lat="-3.1608390" lon="37.3658360">
    <ele>3019.0</ele>
    <time>2026-06-24T05:06:51Z</time>
   </trkpt>
   <trkpt lat="-3.1608480" lon="37.3658380">
    <ele>3018.8</ele>
    <time>2026-06-24T05:06:52Z</time>
   </trkpt>
   <trkpt lat="-3.1608550" lon="37.3658390">
    <ele>3018.6</ele>
    <time>2026-06-24T05:06:53Z</time>
   </trkpt>
   <trkpt lat="-3.1608570" lon="37.3658430">
    <ele>3018.5</ele>
    <time>2026-06-24T05:06:54Z</time>
   </trkpt>
   <trkpt lat="-3.1608670" lon="37.3658460">
    <ele>3018.3</ele>
    <time>2026-06-24T05:06:55Z</time>
   </trkpt>
   <trkpt lat="-3.1608740" lon="37.3658540">
    <ele>3018.1</ele>
    <time>2026-06-24T05:06:56Z</time>
   </trkpt>
   <trkpt lat="-3.1608800" lon="37.3658570">
    <ele>3017.9</ele>
    <time>2026-06-24T05:06:57Z</time>
   </trkpt>
   <trkpt lat="-3.1608910" lon="37.3658610">
    <ele>3017.6</ele>
    <time>2026-06-24T05:06:58Z</time>
   </trkpt>
   <trkpt lat="-3.1608990" lon="37.3658610">
    <ele>3017.5</ele>
    <time>2026-06-24T05:06:59Z</time>
   </trkpt>
   <trkpt lat="-3.1609040" lon="37.3658640">
    <ele>3017.4</ele>
    <time>2026-06-24T05:07:00Z</time>
   </trkpt>
   <trkpt lat="-3.1609040" lon="37.3658690">
    <ele>3017.2</ele>
    <time>2026-06-24T05:07:01Z</time>
   </trkpt>
   <trkpt lat="-3.1609120" lon="37.3658730">
    <ele>3017.1</ele>
    <time>2026-06-24T05:07:02Z</time>
   </trkpt>
   <trkpt lat="-3.1609160" lon="37.3658750">
    <ele>3017.0</ele>
    <time>2026-06-24T05:07:03Z</time>
   </trkpt>
   <trkpt lat="-3.1609230" lon="37.3658820">
    <ele>3016.8</ele>
    <time>2026-06-24T05:07:04Z</time>
   </trkpt>
   <trkpt lat="-3.1609240" lon="37.3658810">
    <ele>3016.7</ele>
    <time>2026-06-24T05:07:05Z</time>
   </trkpt>
   <trkpt lat="-3.1609280" lon="37.3658810">
    <ele>3016.6</ele>
    <time>2026-06-24T05:07:06Z</time>
   </trkpt>
   <trkpt lat="-3.1609270" lon="37.3658750">
    <ele>3016.5</ele>
    <time>2026-06-24T05:07:07Z</time>
   </trkpt>
   <trkpt lat="-3.1609260" lon="37.3658700">
    <ele>3016.4</ele>
    <time>2026-06-24T05:07:08Z</time>
   </trkpt>
   <trkpt lat="-3.1609230" lon="37.3658660">
    <ele>3016.3</ele>
    <time>2026-06-24T05:07:09Z</time>
   </trkpt>
   <trkpt lat="-3.1609230" lon="37.3658680">
    <ele>3016.3</ele>
    <time>2026-06-24T05:07:10Z</time>
   </trkpt>
   <trkpt lat="-3.1609210" lon="37.3658670">
    <ele>3016.2</ele>
    <time>2026-06-24T05:07:11Z</time>
   </trkpt>
   <trkpt lat="-3.1609210" lon="37.3658660">
    <ele>3016.2</ele>
    <time>2026-06-24T05:07:12Z</time>
   </trkpt>
   <trkpt lat="-3.1609200" lon="37.3658650">
    <ele>3016.2</ele>
    <time>2026-06-24T05:07:13Z</time>
   </trkpt>
   <trkpt lat="-3.1609220" lon="37.3658570">
    <ele>3016.0</ele>
    <time>2026-06-24T05:07:14Z</time>
   </trkpt>
   <trkpt lat="-3.1609210" lon="37.3658540">
    <ele>3015.9</ele>
    <time>2026-06-24T05:07:15Z</time>
   </trkpt>
   <trkpt lat="-3.1609190" lon="37.3658540">
    <ele>3015.9</ele>
    <time>2026-06-24T05:07:16Z</time>
   </trkpt>
   <trkpt lat="-3.1609180" lon="37.3658540">
    <ele>3015.9</ele>
    <time>2026-06-24T05:07:17Z</time>
   </trkpt>
   <trkpt lat="-3.1609230" lon="37.3658570">
    <ele>3015.8</ele>
    <time>2026-06-24T05:07:18Z</time>
   </trkpt>
   <trkpt lat="-3.1609250" lon="37.3658580">
    <ele>3015.7</ele>
    <time>2026-06-24T05:07:19Z</time>
   </trkpt>
   <trkpt lat="-3.1609270" lon="37.3658590">
    <ele>3015.7</ele>
    <time>2026-06-24T05:07:20Z</time>
   </trkpt>
   <trkpt lat="-3.1609310" lon="37.3658650">
    <ele>3015.5</ele>
    <time>2026-06-24T05:07:21Z</time>
   </trkpt>
   <trkpt lat="-3.1609280" lon="37.3658680">
    <ele>3015.4</ele>
    <time>2026-06-24T05:07:22Z</time>
   </trkpt>
   <trkpt lat="-3.1609280" lon="37.3658720">
    <ele>3015.3</ele>
    <time>2026-06-24T05:07:23Z</time>
   </trkpt>
   <trkpt lat="-3.1609280" lon="37.3658720">
    <ele>3015.3</ele>
    <time>2026-06-24T05:07:24Z</time>
   </trkpt>
   <trkpt lat="-3.1609380" lon="37.3658710">
    <ele>3015.1</ele>
    <time>2026-06-24T05:07:25Z</time>
   </trkpt>
   <trkpt lat="-3.1609420" lon="37.3658720">
    <ele>3015.1</ele>
    <time>2026-06-24T05:07:26Z</time>
   </trkpt>
   <trkpt lat="-3.1609460" lon="37.3658720">
    <ele>3015.0</ele>
    <time>2026-06-24T05:07:27Z</time>
   </trkpt>
   <trkpt lat="-3.1609460" lon="37.3658710">
    <ele>3015.0</ele>
    <time>2026-06-24T05:07:28Z</time>
   </trkpt>
   <trkpt lat="-3.1609470" lon="37.3658720">
    <ele>3014.9</ele>
    <time>2026-06-24T05:07:29Z</time>
   </trkpt>
   <trkpt lat="-3.1609470" lon="37.3658720">
    <ele>3014.9</ele>
    <time>2026-06-24T05:07:30Z</time>
   </trkpt>
   <trkpt lat="-3.1609470" lon="37.3658720">
    <ele>3014.9</ele>
    <time>2026-06-24T05:07:31Z</time>
   </trkpt>
   <trkpt lat="-3.1609510" lon="37.3658710">
    <ele>3014.9</ele>
    <time>2026-06-24T05:07:32Z</time>
   </trkpt>
   <trkpt lat="-3.1609540" lon="37.3658720">
    <ele>3014.8</ele>
    <time>2026-06-24T05:07:33Z</time>
   </trkpt>
   <trkpt lat="-3.1609530" lon="37.3658720">
    <ele>3014.8</ele>
    <time>2026-06-24T05:07:34Z</time>
   </trkpt>
   <trkpt lat="-3.1609530" lon="37.3658720">
    <ele>3014.8</ele>
    <time>2026-06-24T05:07:35Z</time>
   </trkpt>
   <trkpt lat="-3.1609530" lon="37.3658720">
    <ele>3014.8</ele>
    <time>2026-06-24T05:07:36Z</time>
   </trkpt>
   <trkpt lat="-3.1609570" lon="37.3658710">
    <ele>3014.7</ele>
    <time>2026-06-24T05:07:37Z</time>
   </trkpt>
   <trkpt lat="-3.1609580" lon="37.3658710">
    <ele>3014.7</ele>
    <time>2026-06-24T05:07:38Z</time>
   </trkpt>
   <trkpt lat="-3.1609580" lon="37.3658730">
    <ele>3014.6</ele>
    <time>2026-06-24T05:07:39Z</time>
   </trkpt>
   <trkpt lat="-3.1609580" lon="37.3658730">
    <ele>3014.6</ele>
    <time>2026-06-24T05:07:40Z</time>
   </trkpt>
   <trkpt lat="-3.1609570" lon="37.3658730">
    <ele>3014.6</ele>
    <time>2026-06-24T05:07:41Z</time>
   </trkpt>
   <trkpt lat="-3.1609590" lon="37.3658740">
    <ele>3014.6</ele>
    <time>2026-06-24T05:07:42Z</time>
   </trkpt>
   <trkpt lat="-3.1609600" lon="37.3658740">
    <ele>3014.6</ele>
    <time>2026-06-24T05:07:43Z</time>
   </trkpt>
   <trkpt lat="-3.1609610" lon="37.3658720">
    <ele>3014.5</ele>
    <time>2026-06-24T05:07:44Z</time>
   </trkpt>
   <trkpt lat="-3.1609600" lon="37.3658720">
    <ele>3014.5</ele>
    <time>2026-06-24T05:07:45Z</time>
   </trkpt>
   <trkpt lat="-3.1609600" lon="37.3658720">
    <ele>3014.5</ele>
    <time>2026-06-24T05:07:46Z</time>
   </trkpt>
   <trkpt lat="-3.1609600" lon="37.3658710">
    <ele>3014.5</ele>
    <time>2026-06-24T05:07:47Z</time>
   </trkpt>
   <trkpt lat="-3.1609610" lon="37.3658720">
    <ele>3014.4</ele>
    <time>2026-06-24T05:07:48Z</time>
   </trkpt>
   <trkpt lat="-3.1609610" lon="37.3658720">
    <ele>3014.4</ele>
    <time>2026-06-24T05:07:49Z</time>
   </trkpt>
   <trkpt lat="-3.1609610" lon="37.3658730">
    <ele>3014.4</ele>
    <time>2026-06-24T05:07:50Z</time>
   </trkpt>
   <trkpt lat="-3.1609600" lon="37.3658750">
    <ele>3014.4</ele>
    <time>2026-06-24T05:07:51Z</time>
   </trkpt>
   <trkpt lat="-3.1609610" lon="37.3658730">
    <ele>3014.3</ele>
    <time>2026-06-24T05:07:52Z</time>
   </trkpt>
   <trkpt lat="-3.1609640" lon="37.3658730">
    <ele>3014.3</ele>
    <time>2026-06-24T05:07:53Z</time>
   </trkpt>
   <trkpt lat="-3.1609610" lon="37.3658730">
    <ele>3014.2</ele>
    <time>2026-06-24T05:07:54Z</time>
   </trkpt>
   <trkpt lat="-3.1609630" lon="37.3658760">
    <ele>3014.1</ele>
    <time>2026-06-24T05:07:55Z</time>
   </trkpt>
   <trkpt lat="-3.1609610" lon="37.3658830">
    <ele>3014.0</ele>
    <time>2026-06-24T05:07:56Z</time>
   </trkpt>
   <trkpt lat="-3.1609600" lon="37.3658900">
    <ele>3013.9</ele>
    <time>2026-06-24T05:07:57Z</time>
   </trkpt>
   <trkpt lat="-3.1609600" lon="37.3658900">
    <ele>3013.9</ele>
    <time>2026-06-24T05:07:58Z</time>
   </trkpt>
   <trkpt lat="-3.1609600" lon="37.3659000">
    <ele>3013.7</ele>
    <time>2026-06-24T05:07:59Z</time>
   </trkpt>
   <trkpt lat="-3.1609660" lon="37.3659000">
    <ele>3013.6</ele>
    <time>2026-06-24T05:08:00Z</time>
   </trkpt>
   <trkpt lat="-3.1609680" lon="37.3658980">
    <ele>3013.5</ele>
    <time>2026-06-24T05:08:01Z</time>
   </trkpt>
   <trkpt lat="-3.1609700" lon="37.3658950">
    <ele>3013.4</ele>
    <time>2026-06-24T05:08:02Z</time>
   </trkpt>
   <trkpt lat="-3.1609640" lon="37.3658940">
    <ele>3013.3</ele>
    <time>2026-06-24T05:08:03Z</time>
   </trkpt>
   <trkpt lat="-3.1609630" lon="37.3658930">
    <ele>3013.3</ele>
    <time>2026-06-24T05:08:04Z</time>
   </trkpt>
   <trkpt lat="-3.1609630" lon="37.3658910">
    <ele>3013.2</ele>
    <time>2026-06-24T05:08:05Z</time>
   </trkpt>
   <trkpt lat="-3.1609620" lon="37.3658920">
    <ele>3013.2</ele>
    <time>2026-06-24T05:08:06Z</time>
   </trkpt>
   <trkpt lat="-3.1609600" lon="37.3658890">
    <ele>3013.1</ele>
    <time>2026-06-24T05:08:07Z</time>
   </trkpt>
   <trkpt lat="-3.1609600" lon="37.3658890">
    <ele>3013.1</ele>
    <time>2026-06-24T05:08:08Z</time>
   </trkpt>
   <trkpt lat="-3.1609600" lon="37.3658890">
    <ele>3013.1</ele>
    <time>2026-06-24T05:08:09Z</time>
   </trkpt>
   <trkpt lat="-3.1609560" lon="37.3658880">
    <ele>3013.1</ele>
    <time>2026-06-24T05:08:10Z</time>
   </trkpt>
   <trkpt lat="-3.1609560" lon="37.3658880">
    <ele>3013.1</ele>
    <time>2026-06-24T05:08:11Z</time>
   </trkpt>
   <trkpt lat="-3.1609530" lon="37.3658870">
    <ele>3013.0</ele>
    <time>2026-06-24T05:08:12Z</time>
   </trkpt>
   <trkpt lat="-3.1609510" lon="37.3658880">
    <ele>3013.0</ele>
    <time>2026-06-24T05:08:13Z</time>
   </trkpt>
   <trkpt lat="-3.1609500" lon="37.3658880">
    <ele>3012.9</ele>
    <time>2026-06-24T05:08:14Z</time>
   </trkpt>
   <trkpt lat="-3.1609510" lon="37.3658880">
    <ele>3012.9</ele>
    <time>2026-06-24T05:08:15Z</time>
   </trkpt>
   <trkpt lat="-3.1609480" lon="37.3658870">
    <ele>3012.9</ele>
    <time>2026-06-24T05:08:16Z</time>
   </trkpt>
   <trkpt lat="-3.1609490" lon="37.3658870">
    <ele>3012.8</ele>
    <time>2026-06-24T05:08:17Z</time>
   </trkpt>
   <trkpt lat="-3.1609490" lon="37.3658870">
    <ele>3012.8</ele>
    <time>2026-06-24T05:08:18Z</time>
   </trkpt>
   <trkpt lat="-3.1609480" lon="37.3658860">
    <ele>3012.8</ele>
    <time>2026-06-24T05:08:19Z</time>
   </trkpt>
   <trkpt lat="-3.1609470" lon="37.3658850">
    <ele>3012.8</ele>
    <time>2026-06-24T05:08:20Z</time>
   </trkpt>
   <trkpt lat="-3.1609470" lon="37.3658850">
    <ele>3012.8</ele>
    <time>2026-06-24T05:08:21Z</time>
   </trkpt>
   <trkpt lat="-3.1609470" lon="37.3658850">
    <ele>3012.8</ele>
    <time>2026-06-24T05:08:22Z</time>
   </trkpt>
   <trkpt lat="-3.1609470" lon="37.3658850">
    <ele>3012.8</ele>
    <time>2026-06-24T05:08:23Z</time>
   </trkpt>
   <trkpt lat="-3.1609440" lon="37.3658840">
    <ele>3012.7</ele>
    <time>2026-06-24T05:08:24Z</time>
   </trkpt>
   <trkpt lat="-3.1609440" lon="37.3658840">
    <ele>3012.7</ele>
    <time>2026-06-24T05:08:25Z</time>
   </trkpt>
   <trkpt lat="-3.1609450" lon="37.3658870">
    <ele>3012.7</ele>
    <time>2026-06-24T05:08:26Z</time>
   </trkpt>
   <trkpt lat="-3.1609450" lon="37.3658870">
    <ele>3012.7</ele>
    <time>2026-06-24T05:08:27Z</time>
   </trkpt>
   <trkpt lat="-3.1609460" lon="37.3658870">
    <ele>3012.6</ele>
    <time>2026-06-24T05:08:28Z</time>
   </trkpt>
   <trkpt lat="-3.1609450" lon="37.3658860">
    <ele>3012.6</ele>
    <time>2026-06-24T05:08:29Z</time>
   </trkpt>
   <trkpt lat="-3.1609440" lon="37.3658860">
    <ele>3012.6</ele>
    <time>2026-06-24T05:08:30Z</time>
   </trkpt>
   <trkpt lat="-3.1609450" lon="37.3658850">
    <ele>3012.6</ele>
    <time>2026-06-24T05:08:31Z</time>
   </trkpt>
   <trkpt lat="-3.1609460" lon="37.3658850">
    <ele>3012.6</ele>
    <time>2026-06-24T05:08:32Z</time>
   </trkpt>
   <trkpt lat="-3.1609460" lon="37.3658850">
    <ele>3012.6</ele>
    <time>2026-06-24T05:08:33Z</time>
   </trkpt>
   <trkpt lat="-3.1609460" lon="37.3658850">
    <ele>3012.6</ele>
    <time>2026-06-24T05:08:34Z</time>
   </trkpt>
   <trkpt lat="-3.1609460" lon="37.3658850">
    <ele>3012.6</ele>
    <time>2026-06-24T05:08:35Z</time>
   </trkpt>
   <trkpt lat="-3.1609460" lon="37.3658850">
    <ele>3012.6</ele>
    <time>2026-06-24T05:08:36Z</time>
   </trkpt>
   <trkpt lat="-3.1609460" lon="37.3658850">
    <ele>3012.6</ele>
    <time>2026-06-24T05:08:37Z</time>
   </trkpt>
   <trkpt lat="-3.1609460" lon="37.3658850">
    <ele>3012.6</ele>
    <time>2026-06-24T05:08:38Z</time>
   </trkpt>
   <trkpt lat="-3.1609470" lon="37.3658820">
    <ele>3012.5</ele>
    <time>2026-06-24T05:08:39Z</time>
   </trkpt>
   <trkpt lat="-3.1609460" lon="37.3658820">
    <ele>3012.5</ele>
    <time>2026-06-24T05:08:40Z</time>
   </trkpt>
   <trkpt lat="-3.1609460" lon="37.3658820">
    <ele>3012.5</ele>
    <time>2026-06-24T05:08:41Z</time>
   </trkpt>
   <trkpt lat="-3.1609460" lon="37.3658820">
    <ele>3012.5</ele>
    <time>2026-06-24T05:08:42Z</time>
   </trkpt>
   <trkpt lat="-3.1609460" lon="37.3658820">
    <ele>3012.5</ele>
    <time>2026-06-24T05:08:43Z</time>
   </trkpt>
   <trkpt lat="-3.1609460" lon="37.3658820">
    <ele>3012.5</ele>
    <time>2026-06-24T05:08:44Z</time>
   </trkpt>
   <trkpt lat="-3.1609460" lon="37.3658820">
    <ele>3012.5</ele>
    <time>2026-06-24T05:08:45Z</time>
   </trkpt>
   <trkpt lat="-3.1609460" lon="37.3658820">
    <ele>3012.5</ele>
    <time>2026-06-24T05:08:46Z</time>
   </trkpt>
   <trkpt lat="-3.1609440" lon="37.3658820">
    <ele>3012.4</ele>
    <time>2026-06-24T05:08:47Z</time>
   </trkpt>
   <trkpt lat="-3.1609430" lon="37.3658820">
    <ele>3012.4</ele>
    <time>2026-06-24T05:08:48Z</time>
   </trkpt>
   <trkpt lat="-3.1609430" lon="37.3658820">
    <ele>3012.4</ele>
    <time>2026-06-24T05:08:49Z</time>
   </trkpt>
   <trkpt lat="-3.1609430" lon="37.3658820">
    <ele>3012.4</ele>
    <time>2026-06-24T05:08:51Z</time>
   </trkpt>
   <trkpt lat="-3.1609430" lon="37.3658820">
    <ele>3012.4</ele>
    <time>2026-06-24T05:08:52Z</time>
   </trkpt>
   <trkpt lat="-3.1609440" lon="37.3658820">
    <ele>3012.4</ele>
    <time>2026-06-24T05:08:54Z</time>
   </trkpt>
   <trkpt lat="-3.1609450" lon="37.3658830">
    <ele>3012.4</ele>
    <time>2026-06-24T05:08:55Z</time>
   </trkpt>
   <trkpt lat="-3.1609450" lon="37.3658830">
    <ele>3012.4</ele>
    <time>2026-06-24T05:08:56Z</time>
   </trkpt>
   <trkpt lat="-3.1609450" lon="37.3658820">
    <ele>3012.4</ele>
    <time>2026-06-24T05:08:57Z</time>
   </trkpt>
   <trkpt lat="-3.1609460" lon="37.3658820">
    <ele>3012.3</ele>
    <time>2026-06-24T05:08:58Z</time>
   </trkpt>
   <trkpt lat="-3.1609450" lon="37.3658800">
    <ele>3012.3</ele>
    <time>2026-06-24T05:08:59Z</time>
   </trkpt>
   <trkpt lat="-3.1609440" lon="37.3658780">
    <ele>3012.2</ele>
    <time>2026-06-24T05:09:00Z</time>
   </trkpt>
   <trkpt lat="-3.1609430" lon="37.3658750">
    <ele>3012.2</ele>
    <time>2026-06-24T05:09:01Z</time>
   </trkpt>
   <trkpt lat="-3.1609440" lon="37.3658740">
    <ele>3012.2</ele>
    <time>2026-06-24T05:09:02Z</time>
   </trkpt>
   <trkpt lat="-3.1609450" lon="37.3658690">
    <ele>3012.1</ele>
    <time>2026-06-24T05:09:03Z</time>
   </trkpt>
   <trkpt lat="-3.1609430" lon="37.3658660">
    <ele>3012.0</ele>
    <time>2026-06-24T05:09:04Z</time>
   </trkpt>
   <trkpt lat="-3.1609430" lon="37.3658600">
    <ele>3011.9</ele>
    <time>2026-06-24T05:09:05Z</time>
   </trkpt>
   <trkpt lat="-3.1609470" lon="37.3658550">
    <ele>3011.8</ele>
    <time>2026-06-24T05:09:06Z</time>
   </trkpt>
   <trkpt lat="-3.1609480" lon="37.3658550">
    <ele>3011.7</ele>
    <time>2026-06-24T05:09:07Z</time>
   </trkpt>
   <trkpt lat="-3.1609540" lon="37.3658530">
    <ele>3011.6</ele>
    <time>2026-06-24T05:09:08Z</time>
   </trkpt>
   <trkpt lat="-3.1609600" lon="37.3658490">
    <ele>3011.5</ele>
    <time>2026-06-24T05:09:09Z</time>
   </trkpt>
   <trkpt lat="-3.1609660" lon="37.3658470">
    <ele>3011.4</ele>
    <time>2026-06-24T05:09:10Z</time>
   </trkpt>
   <trkpt lat="-3.1609720" lon="37.3658450">
    <ele>3011.2</ele>
    <time>2026-06-24T05:09:11Z</time>
   </trkpt>
   <trkpt lat="-3.1609760" lon="37.3658420">
    <ele>3011.1</ele>
    <time>2026-06-24T05:09:12Z</time>
   </trkpt>
   <trkpt lat="-3.1609750" lon="37.3658380">
    <ele>3011.1</ele>
    <time>2026-06-24T05:09:13Z</time>
   </trkpt>
   <trkpt lat="-3.1609770" lon="37.3658360">
    <ele>3011.0</ele>
    <time>2026-06-24T05:09:14Z</time>
   </trkpt>
   <trkpt lat="-3.1609820" lon="37.3658350">
    <ele>3010.9</ele>
    <time>2026-06-24T05:09:15Z</time>
   </trkpt>
   <trkpt lat="-3.1609880" lon="37.3658330">
    <ele>3010.8</ele>
    <time>2026-06-24T05:09:16Z</time>
   </trkpt>
   <trkpt lat="-3.1609830" lon="37.3658380">
    <ele>3010.7</ele>
    <time>2026-06-24T05:09:17Z</time>
   </trkpt>
   <trkpt lat="-3.1609870" lon="37.3658350">
    <ele>3010.6</ele>
    <time>2026-06-24T05:09:18Z</time>
   </trkpt>
   <trkpt lat="-3.1609940" lon="37.3658310">
    <ele>3010.4</ele>
    <time>2026-06-24T05:09:19Z</time>
   </trkpt>
   <trkpt lat="-3.1609990" lon="37.3658270">
    <ele>3010.3</ele>
    <time>2026-06-24T05:09:20Z</time>
   </trkpt>
   <trkpt lat="-3.1610040" lon="37.3658220">
    <ele>3010.2</ele>
    <time>2026-06-24T05:09:21Z</time>
   </trkpt>
   <trkpt lat="-3.1610050" lon="37.3658190">
    <ele>3010.1</ele>
    <time>2026-06-24T05:09:22Z</time>
   </trkpt>
   <trkpt lat="-3.1610090" lon="37.3658170">
    <ele>3010.0</ele>
    <time>2026-06-24T05:09:23Z</time>
   </trkpt>
   <trkpt lat="-3.1610140" lon="37.3658090">
    <ele>3009.9</ele>
    <time>2026-06-24T05:09:24Z</time>
   </trkpt>
   <trkpt lat="-3.1610230" lon="37.3657990">
    <ele>3009.6</ele>
    <time>2026-06-24T05:09:25Z</time>
   </trkpt>
   <trkpt lat="-3.1610260" lon="37.3657950">
    <ele>3009.5</ele>
    <time>2026-06-24T05:09:26Z</time>
   </trkpt>
   <trkpt lat="-3.1610300" lon="37.3657920">
    <ele>3009.4</ele>
    <time>2026-06-24T05:09:27Z</time>
   </trkpt>
   <trkpt lat="-3.1610390" lon="37.3657850">
    <ele>3009.2</ele>
    <time>2026-06-24T05:09:28Z</time>
   </trkpt>
   <trkpt lat="-3.1610460" lon="37.3657760">
    <ele>3009.0</ele>
    <time>2026-06-24T05:09:29Z</time>
   </trkpt>
   <trkpt lat="-3.1610510" lon="37.3657740">
    <ele>3008.9</ele>
    <time>2026-06-24T05:09:30Z</time>
   </trkpt>
   <trkpt lat="-3.1610550" lon="37.3657720">
    <ele>3008.9</ele>
    <time>2026-06-24T05:09:31Z</time>
   </trkpt>
   <trkpt lat="-3.1610630" lon="37.3657670">
    <ele>3008.7</ele>
    <time>2026-06-24T05:09:32Z</time>
   </trkpt>
   <trkpt lat="-3.1610710" lon="37.3657620">
    <ele>3008.5</ele>
    <time>2026-06-24T05:09:33Z</time>
   </trkpt>
   <trkpt lat="-3.1610750" lon="37.3657630">
    <ele>3008.4</ele>
    <time>2026-06-24T05:09:34Z</time>
   </trkpt>
   <trkpt lat="-3.1610790" lon="37.3657610">
    <ele>3008.4</ele>
    <time>2026-06-24T05:09:35Z</time>
   </trkpt>
   <trkpt lat="-3.1610880" lon="37.3657600">
    <ele>3008.2</ele>
    <time>2026-06-24T05:09:36Z</time>
   </trkpt>
   <trkpt lat="-3.1610910" lon="37.3657590">
    <ele>3008.1</ele>
    <time>2026-06-24T05:09:37Z</time>
   </trkpt>
   <trkpt lat="-3.1610930" lon="37.3657560">
    <ele>3008.1</ele>
    <time>2026-06-24T05:09:38Z</time>
   </trkpt>
   <trkpt lat="-3.1610960" lon="37.3657530">
    <ele>3008.0</ele>
    <time>2026-06-24T05:09:39Z</time>
   </trkpt>
   <trkpt lat="-3.1611020" lon="37.3657480">
    <ele>3007.8</ele>
    <time>2026-06-24T05:09:40Z</time>
   </trkpt>
   <trkpt lat="-3.1611050" lon="37.3657470">
    <ele>3007.8</ele>
    <time>2026-06-24T05:09:41Z</time>
   </trkpt>
   <trkpt lat="-3.1611080" lon="37.3657470">
    <ele>3007.7</ele>
    <time>2026-06-24T05:09:42Z</time>
   </trkpt>
   <trkpt lat="-3.1611090" lon="37.3657460">
    <ele>3007.7</ele>
    <time>2026-06-24T05:09:43Z</time>
   </trkpt>
   <trkpt lat="-3.1611140" lon="37.3657440">
    <ele>3007.6</ele>
    <time>2026-06-24T05:09:44Z</time>
   </trkpt>
   <trkpt lat="-3.1611200" lon="37.3657410">
    <ele>3007.5</ele>
    <time>2026-06-24T05:09:45Z</time>
   </trkpt>
   <trkpt lat="-3.1611260" lon="37.3657340">
    <ele>3007.3</ele>
    <time>2026-06-24T05:09:46Z</time>
   </trkpt>
   <trkpt lat="-3.1611310" lon="37.3657370">
    <ele>3007.2</ele>
    <time>2026-06-24T05:09:47Z</time>
   </trkpt>
   <trkpt lat="-3.1611380" lon="37.3657350">
    <ele>3007.1</ele>
    <time>2026-06-24T05:09:48Z</time>
   </trkpt>
   <trkpt lat="-3.1611440" lon="37.3657330">
    <ele>3007.0</ele>
    <time>2026-06-24T05:09:49Z</time>
   </trkpt>
   <trkpt lat="-3.1611490" lon="37.3657300">
    <ele>3006.9</ele>
    <time>2026-06-24T05:09:50Z</time>
   </trkpt>
   <trkpt lat="-3.1611570" lon="37.3657280">
    <ele>3006.7</ele>
    <time>2026-06-24T05:09:51Z</time>
   </trkpt>
   <trkpt lat="-3.1611620" lon="37.3657250">
    <ele>3006.6</ele>
    <time>2026-06-24T05:09:52Z</time>
   </trkpt>
   <trkpt lat="-3.1611690" lon="37.3657300">
    <ele>3006.4</ele>
    <time>2026-06-24T05:09:53Z</time>
   </trkpt>
   <trkpt lat="-3.1611740" lon="37.3657280">
    <ele>3006.3</ele>
    <time>2026-06-24T05:09:54Z</time>
   </trkpt>
   <trkpt lat="-3.1611830" lon="37.3657220">
    <ele>3006.1</ele>
    <time>2026-06-24T05:09:55Z</time>
   </trkpt>
   <trkpt lat="-3.1611880" lon="37.3657160">
    <ele>3006.0</ele>
    <time>2026-06-24T05:09:56Z</time>
   </trkpt>
   <trkpt lat="-3.1611940" lon="37.3657070">
    <ele>3005.8</ele>
    <time>2026-06-24T05:09:57Z</time>
   </trkpt>
   <trkpt lat="-3.1611970" lon="37.3657050">
    <ele>3005.7</ele>
    <time>2026-06-24T05:09:58Z</time>
   </trkpt>
   <trkpt lat="-3.1612020" lon="37.3657040">
    <ele>3005.6</ele>
    <time>2026-06-24T05:09:59Z</time>
   </trkpt>
   <trkpt lat="-3.1612070" lon="37.3657030">
    <ele>3005.5</ele>
    <time>2026-06-24T05:10:00Z</time>
   </trkpt>
   <trkpt lat="-3.1612090" lon="37.3656980">
    <ele>3005.4</ele>
    <time>2026-06-24T05:10:01Z</time>
   </trkpt>
   <trkpt lat="-3.1612180" lon="37.3656970">
    <ele>3005.2</ele>
    <time>2026-06-24T05:10:02Z</time>
   </trkpt>
   <trkpt lat="-3.1612190" lon="37.3656910">
    <ele>3005.1</ele>
    <time>2026-06-24T05:10:03Z</time>
   </trkpt>
   <trkpt lat="-3.1612210" lon="37.3656930">
    <ele>3005.0</ele>
    <time>2026-06-24T05:10:04Z</time>
   </trkpt>
   <trkpt lat="-3.1612270" lon="37.3656920">
    <ele>3004.9</ele>
    <time>2026-06-24T05:10:05Z</time>
   </trkpt>
   <trkpt lat="-3.1612260" lon="37.3656950">
    <ele>3004.8</ele>
    <time>2026-06-24T05:10:06Z</time>
   </trkpt>
   <trkpt lat="-3.1612270" lon="37.3656830">
    <ele>3004.6</ele>
    <time>2026-06-24T05:10:07Z</time>
   </trkpt>
   <trkpt lat="-3.1612290" lon="37.3656810">
    <ele>3004.6</ele>
    <time>2026-06-24T05:10:08Z</time>
   </trkpt>
   <trkpt lat="-3.1612300" lon="37.3656810">
    <ele>3004.5</ele>
    <time>2026-06-24T05:10:09Z</time>
   </trkpt>
   <trkpt lat="-3.1612360" lon="37.3656730">
    <ele>3004.3</ele>
    <time>2026-06-24T05:10:10Z</time>
   </trkpt>
   <trkpt lat="-3.1612360" lon="37.3656750">
    <ele>3004.3</ele>
    <time>2026-06-24T05:10:11Z</time>
   </trkpt>
   <trkpt lat="-3.1612360" lon="37.3656750">
    <ele>3004.3</ele>
    <time>2026-06-24T05:10:12Z</time>
   </trkpt>
   <trkpt lat="-3.1612360" lon="37.3656750">
    <ele>3004.3</ele>
    <time>2026-06-24T05:10:13Z</time>
   </trkpt>
   <trkpt lat="-3.1612320" lon="37.3656670">
    <ele>3004.1</ele>
    <time>2026-06-24T05:10:14Z</time>
   </trkpt>
   <trkpt lat="-3.1612350" lon="37.3656650">
    <ele>3004.0</ele>
    <time>2026-06-24T05:10:15Z</time>
   </trkpt>
   <trkpt lat="-3.1612420" lon="37.3656640">
    <ele>3003.9</ele>
    <time>2026-06-24T05:10:16Z</time>
   </trkpt>
   <trkpt lat="-3.1612370" lon="37.3656580">
    <ele>3003.7</ele>
    <time>2026-06-24T05:10:17Z</time>
   </trkpt>
   <trkpt lat="-3.1612410" lon="37.3656610">
    <ele>3003.6</ele>
    <time>2026-06-24T05:10:18Z</time>
   </trkpt>
   <trkpt lat="-3.1612430" lon="37.3656620">
    <ele>3003.6</ele>
    <time>2026-06-24T05:10:19Z</time>
   </trkpt>
   <trkpt lat="-3.1612470" lon="37.3656590">
    <ele>3003.5</ele>
    <time>2026-06-24T05:10:20Z</time>
   </trkpt>
   <trkpt lat="-3.1612500" lon="37.3656600">
    <ele>3003.4</ele>
    <time>2026-06-24T05:10:21Z</time>
   </trkpt>
   <trkpt lat="-3.1612540" lon="37.3656630">
    <ele>3003.3</ele>
    <time>2026-06-24T05:10:22Z</time>
   </trkpt>
   <trkpt lat="-3.1612600" lon="37.3656620">
    <ele>3003.2</ele>
    <time>2026-06-24T05:10:23Z</time>
   </trkpt>
   <trkpt lat="-3.1612610" lon="37.3656610">
    <ele>3003.2</ele>
    <time>2026-06-24T05:10:24Z</time>
   </trkpt>
   <trkpt lat="-3.1612670" lon="37.3656610">
    <ele>3003.1</ele>
    <time>2026-06-24T05:10:25Z</time>
   </trkpt>
   <trkpt lat="-3.1612680" lon="37.3656640">
    <ele>3003.0</ele>
    <time>2026-06-24T05:10:26Z</time>
   </trkpt>
   <trkpt lat="-3.1612670" lon="37.3656650">
    <ele>3003.0</ele>
    <time>2026-06-24T05:10:27Z</time>
   </trkpt>
   <trkpt lat="-3.1612750" lon="37.3656630">
    <ele>3002.8</ele>
    <time>2026-06-24T05:10:28Z</time>
   </trkpt>
   <trkpt lat="-3.1612790" lon="37.3656620">
    <ele>3002.7</ele>
    <time>2026-06-24T05:10:29Z</time>
   </trkpt>
   <trkpt lat="-3.1612850" lon="37.3656600">
    <ele>3002.6</ele>
    <time>2026-06-24T05:10:30Z</time>
   </trkpt>
   <trkpt lat="-3.1612880" lon="37.3656570">
    <ele>3002.5</ele>
    <time>2026-06-24T05:10:31Z</time>
   </trkpt>
   <trkpt lat="-3.1612900" lon="37.3656570">
    <ele>3002.5</ele>
    <time>2026-06-24T05:10:32Z</time>
   </trkpt>
   <trkpt lat="-3.1612950" lon="37.3656540">
    <ele>3002.4</ele>
    <time>2026-06-24T05:10:33Z</time>
   </trkpt>
   <trkpt lat="-3.1612980" lon="37.3656530">
    <ele>3002.3</ele>
    <time>2026-06-24T05:10:34Z</time>
   </trkpt>
   <trkpt lat="-3.1612950" lon="37.3656540">
    <ele>3002.2</ele>
    <time>2026-06-24T05:10:35Z</time>
   </trkpt>
   <trkpt lat="-3.1612990" lon="37.3656490">
    <ele>3002.1</ele>
    <time>2026-06-24T05:10:36Z</time>
   </trkpt>
   <trkpt lat="-3.1612990" lon="37.3656440">
    <ele>3002.0</ele>
    <time>2026-06-24T05:10:37Z</time>
   </trkpt>
   <trkpt lat="-3.1613010" lon="37.3656440">
    <ele>3002.0</ele>
    <time>2026-06-24T05:10:38Z</time>
   </trkpt>
   <trkpt lat="-3.1613050" lon="37.3656420">
    <ele>3001.9</ele>
    <time>2026-06-24T05:10:39Z</time>
   </trkpt>
   <trkpt lat="-3.1613110" lon="37.3656380">
    <ele>3001.7</ele>
    <time>2026-06-24T05:10:40Z</time>
   </trkpt>
   <trkpt lat="-3.1613160" lon="37.3656270">
    <ele>3001.5</ele>
    <time>2026-06-24T05:10:41Z</time>
   </trkpt>
   <trkpt lat="-3.1613190" lon="37.3656230">
    <ele>3001.4</ele>
    <time>2026-06-24T05:10:42Z</time>
   </trkpt>
   <trkpt lat="-3.1613220" lon="37.3656200">
    <ele>3001.3</ele>
    <time>2026-06-24T05:10:43Z</time>
   </trkpt>
   <trkpt lat="-3.1613250" lon="37.3656160">
    <ele>3001.2</ele>
    <time>2026-06-24T05:10:44Z</time>
   </trkpt>
   <trkpt lat="-3.1613310" lon="37.3656130">
    <ele>3001.1</ele>
    <time>2026-06-24T05:10:45Z</time>
   </trkpt>
   <trkpt lat="-3.1613310" lon="37.3656120">
    <ele>3001.1</ele>
    <time>2026-06-24T05:10:46Z</time>
   </trkpt>
   <trkpt lat="-3.1613320" lon="37.3656120">
    <ele>3001.0</ele>
    <time>2026-06-24T05:10:47Z</time>
   </trkpt>
   <trkpt lat="-3.1613330" lon="37.3656120">
    <ele>3001.0</ele>
    <time>2026-06-24T05:10:48Z</time>
   </trkpt>
   <trkpt lat="-3.1613380" lon="37.3656080">
    <ele>3000.9</ele>
    <time>2026-06-24T05:10:49Z</time>
   </trkpt>
   <trkpt lat="-3.1613440" lon="37.3656040">
    <ele>3000.7</ele>
    <time>2026-06-24T05:10:50Z</time>
   </trkpt>
   <trkpt lat="-3.1613510" lon="37.3655990">
    <ele>3000.6</ele>
    <time>2026-06-24T05:10:51Z</time>
   </trkpt>
   <trkpt lat="-3.1613570" lon="37.3655960">
    <ele>3000.4</ele>
    <time>2026-06-24T05:10:52Z</time>
   </trkpt>
   <trkpt lat="-3.1613630" lon="37.3655960">
    <ele>3000.3</ele>
    <time>2026-06-24T05:10:53Z</time>
   </trkpt>
   <trkpt lat="-3.1613670" lon="37.3655970">
    <ele>3000.3</ele>
    <time>2026-06-24T05:10:54Z</time>
   </trkpt>
   <trkpt lat="-3.1613760" lon="37.3655960">
    <ele>3000.1</ele>
    <time>2026-06-24T05:10:55Z</time>
   </trkpt>
   <trkpt lat="-3.1613830" lon="37.3655940">
    <ele>2999.9</ele>
    <time>2026-06-24T05:10:56Z</time>
   </trkpt>
   <trkpt lat="-3.1613910" lon="37.3655920">
    <ele>2999.8</ele>
    <time>2026-06-24T05:10:57Z</time>
   </trkpt>
   <trkpt lat="-3.1613990" lon="37.3655910">
    <ele>2999.6</ele>
    <time>2026-06-24T05:10:58Z</time>
   </trkpt>
   <trkpt lat="-3.1614050" lon="37.3655850">
    <ele>2999.5</ele>
    <time>2026-06-24T05:10:59Z</time>
   </trkpt>
   <trkpt lat="-3.1614130" lon="37.3655800">
    <ele>2999.3</ele>
    <time>2026-06-24T05:11:00Z</time>
   </trkpt>
   <trkpt lat="-3.1614190" lon="37.3655770">
    <ele>2999.2</ele>
    <time>2026-06-24T05:11:01Z</time>
   </trkpt>
   <trkpt lat="-3.1614210" lon="37.3655730">
    <ele>2999.1</ele>
    <time>2026-06-24T05:11:02Z</time>
   </trkpt>
   <trkpt lat="-3.1614240" lon="37.3655690">
    <ele>2999.0</ele>
    <time>2026-06-24T05:11:03Z</time>
   </trkpt>
   <trkpt lat="-3.1614280" lon="37.3655670">
    <ele>2998.9</ele>
    <time>2026-06-24T05:11:04Z</time>
   </trkpt>
   <trkpt lat="-3.1614440" lon="37.3655590">
    <ele>2998.6</ele>
    <time>2026-06-24T05:11:05Z</time>
   </trkpt>
   <trkpt lat="-3.1614560" lon="37.3655560">
    <ele>2998.3</ele>
    <time>2026-06-24T05:11:06Z</time>
   </trkpt>
   <trkpt lat="-3.1614670" lon="37.3655500">
    <ele>2998.1</ele>
    <time>2026-06-24T05:11:07Z</time>
   </trkpt>
   <trkpt lat="-3.1614770" lon="37.3655400">
    <ele>2997.8</ele>
    <time>2026-06-24T05:11:08Z</time>
   </trkpt>
   <trkpt lat="-3.1614760" lon="37.3655400">
    <ele>2997.8</ele>
    <time>2026-06-24T05:11:09Z</time>
   </trkpt>
   <trkpt lat="-3.1614830" lon="37.3655350">
    <ele>2997.6</ele>
    <time>2026-06-24T05:11:10Z</time>
   </trkpt>
   <trkpt lat="-3.1614800" lon="37.3655310">
    <ele>2997.5</ele>
    <time>2026-06-24T05:11:11Z</time>
   </trkpt>
   <trkpt lat="-3.1614850" lon="37.3655230">
    <ele>2997.4</ele>
    <time>2026-06-24T05:11:12Z</time>
   </trkpt>
   <trkpt lat="-3.1614890" lon="37.3655180">
    <ele>2997.2</ele>
    <time>2026-06-24T05:11:13Z</time>
   </trkpt>
   <trkpt lat="-3.1614890" lon="37.3655130">
    <ele>2997.2</ele>
    <time>2026-06-24T05:11:14Z</time>
   </trkpt>
   <trkpt lat="-3.1614900" lon="37.3655130">
    <ele>2997.1</ele>
    <time>2026-06-24T05:11:15Z</time>
   </trkpt>
   <trkpt lat="-3.1614940" lon="37.3655100">
    <ele>2997.0</ele>
    <time>2026-06-24T05:11:16Z</time>
   </trkpt>
   <trkpt lat="-3.1614960" lon="37.3655120">
    <ele>2997.0</ele>
    <time>2026-06-24T05:11:17Z</time>
   </trkpt>
   <trkpt lat="-3.1615020" lon="37.3655140">
    <ele>2996.9</ele>
    <time>2026-06-24T05:11:18Z</time>
   </trkpt>
   <trkpt lat="-3.1615030" lon="37.3655160">
    <ele>2996.8</ele>
    <time>2026-06-24T05:11:19Z</time>
   </trkpt>
   <trkpt lat="-3.1615030" lon="37.3655170">
    <ele>2996.8</ele>
    <time>2026-06-24T05:11:20Z</time>
   </trkpt>
   <trkpt lat="-3.1615110" lon="37.3655110">
    <ele>2996.6</ele>
    <time>2026-06-24T05:11:21Z</time>
   </trkpt>
   <trkpt lat="-3.1615170" lon="37.3655090">
    <ele>2996.5</ele>
    <time>2026-06-24T05:11:22Z</time>
   </trkpt>
   <trkpt lat="-3.1615160" lon="37.3655080">
    <ele>2996.5</ele>
    <time>2026-06-24T05:11:23Z</time>
   </trkpt>
   <trkpt lat="-3.1615180" lon="37.3655060">
    <ele>2996.4</ele>
    <time>2026-06-24T05:11:24Z</time>
   </trkpt>
   <trkpt lat="-3.1615170" lon="37.3655070">
    <ele>2996.4</ele>
    <time>2026-06-24T05:11:25Z</time>
   </trkpt>
   <trkpt lat="-3.1615190" lon="37.3655030">
    <ele>2996.3</ele>
    <time>2026-06-24T05:11:26Z</time>
   </trkpt>
   <trkpt lat="-3.1615170" lon="37.3655050">
    <ele>2996.2</ele>
    <time>2026-06-24T05:11:27Z</time>
   </trkpt>
   <trkpt lat="-3.1615280" lon="37.3655100">
    <ele>2996.0</ele>
    <time>2026-06-24T05:11:28Z</time>
   </trkpt>
   <trkpt lat="-3.1615340" lon="37.3655040">
    <ele>2995.9</ele>
    <time>2026-06-24T05:11:29Z</time>
   </trkpt>
   <trkpt lat="-3.1615310" lon="37.3655060">
    <ele>2995.8</ele>
    <time>2026-06-24T05:11:30Z</time>
   </trkpt>
   <trkpt lat="-3.1615280" lon="37.3655080">
    <ele>2995.7</ele>
    <time>2026-06-24T05:11:31Z</time>
   </trkpt>
   <trkpt lat="-3.1615300" lon="37.3655110">
    <ele>2995.7</ele>
    <time>2026-06-24T05:11:32Z</time>
   </trkpt>
   <trkpt lat="-3.1615360" lon="37.3655100">
    <ele>2995.5</ele>
    <time>2026-06-24T05:11:33Z</time>
   </trkpt>
   <trkpt lat="-3.1615380" lon="37.3655080">
    <ele>2995.5</ele>
    <time>2026-06-24T05:11:34Z</time>
   </trkpt>
   <trkpt lat="-3.1615410" lon="37.3655080">
    <ele>2995.4</ele>
    <time>2026-06-24T05:11:35Z</time>
   </trkpt>
   <trkpt lat="-3.1615520" lon="37.3655070">
    <ele>2995.2</ele>
    <time>2026-06-24T05:11:36Z</time>
   </trkpt>
   <trkpt lat="-3.1615530" lon="37.3655120">
    <ele>2995.1</ele>
    <time>2026-06-24T05:11:37Z</time>
   </trkpt>
   <trkpt lat="-3.1615540" lon="37.3655170">
    <ele>2995.0</ele>
    <time>2026-06-24T05:11:38Z</time>
   </trkpt>
   <trkpt lat="-3.1615570" lon="37.3655220">
    <ele>2994.9</ele>
    <time>2026-06-24T05:11:39Z</time>
   </trkpt>
   <trkpt lat="-3.1615660" lon="37.3655220">
    <ele>2994.7</ele>
    <time>2026-06-24T05:11:40Z</time>
   </trkpt>
   <trkpt lat="-3.1615690" lon="37.3655250">
    <ele>2994.7</ele>
    <time>2026-06-24T05:11:41Z</time>
   </trkpt>
   <trkpt lat="-3.1615750" lon="37.3655330">
    <ele>2994.5</ele>
    <time>2026-06-24T05:11:42Z</time>
   </trkpt>
   <trkpt lat="-3.1615790" lon="37.3655370">
    <ele>2994.4</ele>
    <time>2026-06-24T05:11:43Z</time>
   </trkpt>
   <trkpt lat="-3.1615830" lon="37.3655350">
    <ele>2994.3</ele>
    <time>2026-06-24T05:11:44Z</time>
   </trkpt>
   <trkpt lat="-3.1615880" lon="37.3655350">
    <ele>2994.2</ele>
    <time>2026-06-24T05:11:45Z</time>
   </trkpt>
   <trkpt lat="-3.1615950" lon="37.3655380">
    <ele>2994.1</ele>
    <time>2026-06-24T05:11:46Z</time>
   </trkpt>
   <trkpt lat="-3.1616050" lon="37.3655390">
    <ele>2993.9</ele>
    <time>2026-06-24T05:11:47Z</time>
   </trkpt>
   <trkpt lat="-3.1616130" lon="37.3655400">
    <ele>2993.7</ele>
    <time>2026-06-24T05:11:48Z</time>
   </trkpt>
   <trkpt lat="-3.1616260" lon="37.3655430">
    <ele>2993.5</ele>
    <time>2026-06-24T05:11:49Z</time>
   </trkpt>
   <trkpt lat="-3.1616360" lon="37.3655440">
    <ele>2993.3</ele>
    <time>2026-06-24T05:11:50Z</time>
   </trkpt>
   <trkpt lat="-3.1616430" lon="37.3655450">
    <ele>2993.2</ele>
    <time>2026-06-24T05:11:51Z</time>
   </trkpt>
   <trkpt lat="-3.1616510" lon="37.3655450">
    <ele>2993.1</ele>
    <time>2026-06-24T05:11:52Z</time>
   </trkpt>
   <trkpt lat="-3.1616580" lon="37.3655430">
    <ele>2993.0</ele>
    <time>2026-06-24T05:11:53Z</time>
   </trkpt>
   <trkpt lat="-3.1616620" lon="37.3655440">
    <ele>2992.9</ele>
    <time>2026-06-24T05:11:54Z</time>
   </trkpt>
   <trkpt lat="-3.1616790" lon="37.3655450">
    <ele>2992.6</ele>
    <time>2026-06-24T05:11:55Z</time>
   </trkpt>
   <trkpt lat="-3.1616940" lon="37.3655570">
    <ele>2992.3</ele>
    <time>2026-06-24T05:11:56Z</time>
   </trkpt>
   <trkpt lat="-3.1616940" lon="37.3655590">
    <ele>2992.3</ele>
    <time>2026-06-24T05:11:57Z</time>
   </trkpt>
   <trkpt lat="-3.1617010" lon="37.3655610">
    <ele>2992.2</ele>
    <time>2026-06-24T05:11:58Z</time>
   </trkpt>
   <trkpt lat="-3.1617100" lon="37.3655610">
    <ele>2992.0</ele>
    <time>2026-06-24T05:11:59Z</time>
   </trkpt>
   <trkpt lat="-3.1617160" lon="37.3655540">
    <ele>2991.9</ele>
    <time>2026-06-24T05:12:00Z</time>
   </trkpt>
   <trkpt lat="-3.1617210" lon="37.3655450">
    <ele>2991.7</ele>
    <time>2026-06-24T05:12:01Z</time>
   </trkpt>
   <trkpt lat="-3.1617300" lon="37.3655390">
    <ele>2991.6</ele>
    <time>2026-06-24T05:12:02Z</time>
   </trkpt>
   <trkpt lat="-3.1617420" lon="37.3655350">
    <ele>2991.4</ele>
    <time>2026-06-24T05:12:03Z</time>
   </trkpt>
   <trkpt lat="-3.1617680" lon="37.3655240">
    <ele>2991.0</ele>
    <time>2026-06-24T05:12:04Z</time>
   </trkpt>
   <trkpt lat="-3.1617670" lon="37.3655140">
    <ele>2990.9</ele>
    <time>2026-06-24T05:12:05Z</time>
   </trkpt>
   <trkpt lat="-3.1617760" lon="37.3655100">
    <ele>2990.8</ele>
    <time>2026-06-24T05:12:06Z</time>
   </trkpt>
   <trkpt lat="-3.1617830" lon="37.3655120">
    <ele>2990.7</ele>
    <time>2026-06-24T05:12:07Z</time>
   </trkpt>
   <trkpt lat="-3.1617880" lon="37.3655100">
    <ele>2990.6</ele>
    <time>2026-06-24T05:12:08Z</time>
   </trkpt>
   <trkpt lat="-3.1617930" lon="37.3655040">
    <ele>2990.5</ele>
    <time>2026-06-24T05:12:09Z</time>
   </trkpt>
   <trkpt lat="-3.1618000" lon="37.3655020">
    <ele>2990.5</ele>
    <time>2026-06-24T05:12:10Z</time>
   </trkpt>
   <trkpt lat="-3.1617970" lon="37.3654970">
    <ele>2990.4</ele>
    <time>2026-06-24T05:12:11Z</time>
   </trkpt>
   <trkpt lat="-3.1617950" lon="37.3654930">
    <ele>2990.3</ele>
    <time>2026-06-24T05:12:12Z</time>
   </trkpt>
   <trkpt lat="-3.1618000" lon="37.3654830">
    <ele>2990.2</ele>
    <time>2026-06-24T05:12:13Z</time>
   </trkpt>
   <trkpt lat="-3.1618100" lon="37.3654790">
    <ele>2990.1</ele>
    <time>2026-06-24T05:12:14Z</time>
   </trkpt>
   <trkpt lat="-3.1618140" lon="37.3654800">
    <ele>2990.0</ele>
    <time>2026-06-24T05:12:15Z</time>
   </trkpt>
   <trkpt lat="-3.1618190" lon="37.3654790">
    <ele>2990.0</ele>
    <time>2026-06-24T05:12:16Z</time>
   </trkpt>
   <trkpt lat="-3.1618220" lon="37.3654760">
    <ele>2989.9</ele>
    <time>2026-06-24T05:12:17Z</time>
   </trkpt>
   <trkpt lat="-3.1618250" lon="37.3654700">
    <ele>2989.8</ele>
    <time>2026-06-24T05:12:18Z</time>
   </trkpt>
   <trkpt lat="-3.1618290" lon="37.3654690">
    <ele>2989.8</ele>
    <time>2026-06-24T05:12:19Z</time>
   </trkpt>
   <trkpt lat="-3.1618370" lon="37.3654620">
    <ele>2989.7</ele>
    <time>2026-06-24T05:12:20Z</time>
   </trkpt>
   <trkpt lat="-3.1618450" lon="37.3654560">
    <ele>2989.5</ele>
    <time>2026-06-24T05:12:21Z</time>
   </trkpt>
   <trkpt lat="-3.1618490" lon="37.3654490">
    <ele>2989.5</ele>
    <time>2026-06-24T05:12:22Z</time>
   </trkpt>
   <trkpt lat="-3.1618560" lon="37.3654450">
    <ele>2989.4</ele>
    <time>2026-06-24T05:12:23Z</time>
   </trkpt>
   <trkpt lat="-3.1618540" lon="37.3654390">
    <ele>2989.3</ele>
    <time>2026-06-24T05:12:24Z</time>
   </trkpt>
   <trkpt lat="-3.1618640" lon="37.3654370">
    <ele>2989.2</ele>
    <time>2026-06-24T05:12:25Z</time>
   </trkpt>
   <trkpt lat="-3.1618630" lon="37.3654390">
    <ele>2989.1</ele>
    <time>2026-06-24T05:12:26Z</time>
   </trkpt>
   <trkpt lat="-3.1618690" lon="37.3654400">
    <ele>2989.1</ele>
    <time>2026-06-24T05:12:27Z</time>
   </trkpt>
   <trkpt lat="-3.1618730" lon="37.3654460">
    <ele>2989.0</ele>
    <time>2026-06-24T05:12:28Z</time>
   </trkpt>
   <trkpt lat="-3.1618820" lon="37.3654410">
    <ele>2988.9</ele>
    <time>2026-06-24T05:12:29Z</time>
   </trkpt>
   <trkpt lat="-3.1618840" lon="37.3654380">
    <ele>2988.8</ele>
    <time>2026-06-24T05:12:30Z</time>
   </trkpt>
   <trkpt lat="-3.1618840" lon="37.3654410">
    <ele>2988.8</ele>
    <time>2026-06-24T05:12:31Z</time>
   </trkpt>
   <trkpt lat="-3.1618980" lon="37.3654330">
    <ele>2988.6</ele>
    <time>2026-06-24T05:12:32Z</time>
   </trkpt>
   <trkpt lat="-3.1619010" lon="37.3654330">
    <ele>2988.6</ele>
    <time>2026-06-24T05:12:33Z</time>
   </trkpt>
   <trkpt lat="-3.1619070" lon="37.3654330">
    <ele>2988.5</ele>
    <time>2026-06-24T05:12:34Z</time>
   </trkpt>
   <trkpt lat="-3.1619100" lon="37.3654300">
    <ele>2988.5</ele>
    <time>2026-06-24T05:12:35Z</time>
   </trkpt>
   <trkpt lat="-3.1619090" lon="37.3654290">
    <ele>2988.4</ele>
    <time>2026-06-24T05:12:36Z</time>
   </trkpt>
   <trkpt lat="-3.1619020" lon="37.3654230">
    <ele>2988.3</ele>
    <time>2026-06-24T05:12:37Z</time>
   </trkpt>
   <trkpt lat="-3.1619170" lon="37.3654240">
    <ele>2988.2</ele>
    <time>2026-06-24T05:12:38Z</time>
   </trkpt>
   <trkpt lat="-3.1619210" lon="37.3654200">
    <ele>2988.1</ele>
    <time>2026-06-24T05:12:39Z</time>
   </trkpt>
   <trkpt lat="-3.1619150" lon="37.3654160">
    <ele>2988.0</ele>
    <time>2026-06-24T05:12:40Z</time>
   </trkpt>
   <trkpt lat="-3.1619270" lon="37.3654040">
    <ele>2987.8</ele>
    <time>2026-06-24T05:12:41Z</time>
   </trkpt>
   <trkpt lat="-3.1619330" lon="37.3653980">
    <ele>2987.7</ele>
    <time>2026-06-24T05:12:42Z</time>
   </trkpt>
   <trkpt lat="-3.1619400" lon="37.3653920">
    <ele>2987.6</ele>
    <time>2026-06-24T05:12:43Z</time>
   </trkpt>
   <trkpt lat="-3.1619560" lon="37.3653850">
    <ele>2987.4</ele>
    <time>2026-06-24T05:12:44Z</time>
   </trkpt>
   <trkpt lat="-3.1619570" lon="37.3653870">
    <ele>2987.4</ele>
    <time>2026-06-24T05:12:45Z</time>
   </trkpt>
   <trkpt lat="-3.1619620" lon="37.3653910">
    <ele>2987.3</ele>
    <time>2026-06-24T05:12:46Z</time>
   </trkpt>
   <trkpt lat="-3.1619660" lon="37.3653940">
    <ele>2987.2</ele>
    <time>2026-06-24T05:12:47Z</time>
   </trkpt>
   <trkpt lat="-3.1619800" lon="37.3653880">
    <ele>2987.1</ele>
    <time>2026-06-24T05:12:48Z</time>
   </trkpt>
   <trkpt lat="-3.1619900" lon="37.3653890">
    <ele>2986.9</ele>
    <time>2026-06-24T05:12:49Z</time>
   </trkpt>
   <trkpt lat="-3.1619930" lon="37.3653840">
    <ele>2986.9</ele>
    <time>2026-06-24T05:12:50Z</time>
   </trkpt>
   <trkpt lat="-3.1620010" lon="37.3653760">
    <ele>2986.7</ele>
    <time>2026-06-24T05:12:51Z</time>
   </trkpt>
   <trkpt lat="-3.1620230" lon="37.3653680">
    <ele>2986.5</ele>
    <time>2026-06-24T05:12:52Z</time>
   </trkpt>
   <trkpt lat="-3.1620290" lon="37.3653730">
    <ele>2986.4</ele>
    <time>2026-06-24T05:12:53Z</time>
   </trkpt>
   <trkpt lat="-3.1620350" lon="37.3653790">
    <ele>2986.3</ele>
    <time>2026-06-24T05:12:54Z</time>
   </trkpt>
   <trkpt lat="-3.1620430" lon="37.3653720">
    <ele>2986.1</ele>
    <time>2026-06-24T05:12:55Z</time>
   </trkpt>
   <trkpt lat="-3.1620440" lon="37.3653680">
    <ele>2986.1</ele>
    <time>2026-06-24T05:12:56Z</time>
   </trkpt>
   <trkpt lat="-3.1620480" lon="37.3653620">
    <ele>2986.0</ele>
    <time>2026-06-24T05:12:57Z</time>
   </trkpt>
   <trkpt lat="-3.1620540" lon="37.3653560">
    <ele>2985.9</ele>
    <time>2026-06-24T05:12:58Z</time>
   </trkpt>
   <trkpt lat="-3.1620630" lon="37.3653460">
    <ele>2985.7</ele>
    <time>2026-06-24T05:12:59Z</time>
   </trkpt>
   <trkpt lat="-3.1620730" lon="37.3653360">
    <ele>2985.5</ele>
    <time>2026-06-24T05:13:00Z</time>
   </trkpt>
   <trkpt lat="-3.1620860" lon="37.3653310">
    <ele>2985.4</ele>
    <time>2026-06-24T05:13:01Z</time>
   </trkpt>
   <trkpt lat="-3.1621020" lon="37.3653200">
    <ele>2985.1</ele>
    <time>2026-06-24T05:13:02Z</time>
   </trkpt>
   <trkpt lat="-3.1621020" lon="37.3653160">
    <ele>2985.1</ele>
    <time>2026-06-24T05:13:03Z</time>
   </trkpt>
   <trkpt lat="-3.1621060" lon="37.3653080">
    <ele>2984.9</ele>
    <time>2026-06-24T05:13:04Z</time>
   </trkpt>
   <trkpt lat="-3.1621280" lon="37.3652900">
    <ele>2984.5</ele>
    <time>2026-06-24T05:13:05Z</time>
   </trkpt>
   <trkpt lat="-3.1621270" lon="37.3652920">
    <ele>2984.5</ele>
    <time>2026-06-24T05:13:06Z</time>
   </trkpt>
   <trkpt lat="-3.1621310" lon="37.3652870">
    <ele>2984.4</ele>
    <time>2026-06-24T05:13:07Z</time>
   </trkpt>
   <trkpt lat="-3.1621360" lon="37.3652850">
    <ele>2984.3</ele>
    <time>2026-06-24T05:13:08Z</time>
   </trkpt>
   <trkpt lat="-3.1621490" lon="37.3652790">
    <ele>2984.1</ele>
    <time>2026-06-24T05:13:09Z</time>
   </trkpt>
   <trkpt lat="-3.1621600" lon="37.3652710">
    <ele>2984.0</ele>
    <time>2026-06-24T05:13:10Z</time>
   </trkpt>
   <trkpt lat="-3.1621660" lon="37.3652630">
    <ele>2983.8</ele>
    <time>2026-06-24T05:13:11Z</time>
   </trkpt>
   <trkpt lat="-3.1621710" lon="37.3652580">
    <ele>2983.7</ele>
    <time>2026-06-24T05:13:12Z</time>
   </trkpt>
   <trkpt lat="-3.1621820" lon="37.3652500">
    <ele>2983.5</ele>
    <time>2026-06-24T05:13:13Z</time>
   </trkpt>
   <trkpt lat="-3.1621760" lon="37.3652520">
    <ele>2983.4</ele>
    <time>2026-06-24T05:13:14Z</time>
   </trkpt>
   <trkpt lat="-3.1621850" lon="37.3652400">
    <ele>2983.2</ele>
    <time>2026-06-24T05:13:15Z</time>
   </trkpt>
   <trkpt lat="-3.1621960" lon="37.3652330">
    <ele>2983.0</ele>
    <time>2026-06-24T05:13:16Z</time>
   </trkpt>
   <trkpt lat="-3.1621890" lon="37.3652290">
    <ele>2982.9</ele>
    <time>2026-06-24T05:13:17Z</time>
   </trkpt>
   <trkpt lat="-3.1621980" lon="37.3652220">
    <ele>2982.7</ele>
    <time>2026-06-24T05:13:18Z</time>
   </trkpt>
   <trkpt lat="-3.1622010" lon="37.3652180">
    <ele>2982.7</ele>
    <time>2026-06-24T05:13:19Z</time>
   </trkpt>
   <trkpt lat="-3.1621980" lon="37.3652080">
    <ele>2982.5</ele>
    <time>2026-06-24T05:13:20Z</time>
   </trkpt>
   <trkpt lat="-3.1622010" lon="37.3652020">
    <ele>2982.4</ele>
    <time>2026-06-24T05:13:21Z</time>
   </trkpt>
   <trkpt lat="-3.1622090" lon="37.3651970">
    <ele>2982.3</ele>
    <time>2026-06-24T05:13:22Z</time>
   </trkpt>
   <trkpt lat="-3.1622200" lon="37.3651940">
    <ele>2982.1</ele>
    <time>2026-06-24T05:13:23Z</time>
   </trkpt>
   <trkpt lat="-3.1622310" lon="37.3651830">
    <ele>2981.9</ele>
    <time>2026-06-24T05:13:24Z</time>
   </trkpt>
   <trkpt lat="-3.1622330" lon="37.3651810">
    <ele>2981.8</ele>
    <time>2026-06-24T05:13:25Z</time>
   </trkpt>
   <trkpt lat="-3.1622340" lon="37.3651790">
    <ele>2981.8</ele>
    <time>2026-06-24T05:13:26Z</time>
   </trkpt>
   <trkpt lat="-3.1622350" lon="37.3651780">
    <ele>2981.8</ele>
    <time>2026-06-24T05:13:27Z</time>
   </trkpt>
   <trkpt lat="-3.1622410" lon="37.3651700">
    <ele>2981.6</ele>
    <time>2026-06-24T05:13:28Z</time>
   </trkpt>
   <trkpt lat="-3.1622470" lon="37.3651640">
    <ele>2981.5</ele>
    <time>2026-06-24T05:13:29Z</time>
   </trkpt>
   <trkpt lat="-3.1622480" lon="37.3651750">
    <ele>2981.3</ele>
    <time>2026-06-24T05:13:30Z</time>
   </trkpt>
   <trkpt lat="-3.1622480" lon="37.3651740">
    <ele>2981.3</ele>
    <time>2026-06-24T05:13:31Z</time>
   </trkpt>
   <trkpt lat="-3.1622480" lon="37.3651780">
    <ele>2981.2</ele>
    <time>2026-06-24T05:13:32Z</time>
   </trkpt>
   <trkpt lat="-3.1622530" lon="37.3651680">
    <ele>2981.0</ele>
    <time>2026-06-24T05:13:33Z</time>
   </trkpt>
   <trkpt lat="-3.1622530" lon="37.3651660">
    <ele>2981.0</ele>
    <time>2026-06-24T05:13:34Z</time>
   </trkpt>
   <trkpt lat="-3.1622580" lon="37.3651600">
    <ele>2980.9</ele>
    <time>2026-06-24T05:13:35Z</time>
   </trkpt>
   <trkpt lat="-3.1622610" lon="37.3651680">
    <ele>2980.7</ele>
    <time>2026-06-24T05:13:36Z</time>
   </trkpt>
   <trkpt lat="-3.1622600" lon="37.3651710">
    <ele>2980.7</ele>
    <time>2026-06-24T05:13:37Z</time>
   </trkpt>
   <trkpt lat="-3.1622650" lon="37.3651610">
    <ele>2980.5</ele>
    <time>2026-06-24T05:13:38Z</time>
   </trkpt>
   <trkpt lat="-3.1622650" lon="37.3651530">
    <ele>2980.4</ele>
    <time>2026-06-24T05:13:39Z</time>
   </trkpt>
   <trkpt lat="-3.1622650" lon="37.3651450">
    <ele>2980.2</ele>
    <time>2026-06-24T05:13:40Z</time>
   </trkpt>
   <trkpt lat="-3.1622690" lon="37.3651450">
    <ele>2980.2</ele>
    <time>2026-06-24T05:13:41Z</time>
   </trkpt>
   <trkpt lat="-3.1622830" lon="37.3651380">
    <ele>2979.9</ele>
    <time>2026-06-24T05:13:42Z</time>
   </trkpt>
   <trkpt lat="-3.1622890" lon="37.3651340">
    <ele>2979.8</ele>
    <time>2026-06-24T05:13:43Z</time>
   </trkpt>
   <trkpt lat="-3.1622940" lon="37.3651290">
    <ele>2979.7</ele>
    <time>2026-06-24T05:13:44Z</time>
   </trkpt>
   <trkpt lat="-3.1623040" lon="37.3651230">
    <ele>2979.5</ele>
    <time>2026-06-24T05:13:45Z</time>
   </trkpt>
   <trkpt lat="-3.1623120" lon="37.3651260">
    <ele>2979.3</ele>
    <time>2026-06-24T05:13:46Z</time>
   </trkpt>
   <trkpt lat="-3.1623100" lon="37.3651200">
    <ele>2979.2</ele>
    <time>2026-06-24T05:13:47Z</time>
   </trkpt>
   <trkpt lat="-3.1623140" lon="37.3651150">
    <ele>2979.1</ele>
    <time>2026-06-24T05:13:48Z</time>
   </trkpt>
   <trkpt lat="-3.1623180" lon="37.3651070">
    <ele>2978.9</ele>
    <time>2026-06-24T05:13:49Z</time>
   </trkpt>
   <trkpt lat="-3.1623240" lon="37.3650940">
    <ele>2978.7</ele>
    <time>2026-06-24T05:13:50Z</time>
   </trkpt>
   <trkpt lat="-3.1623240" lon="37.3650890">
    <ele>2978.6</ele>
    <time>2026-06-24T05:13:51Z</time>
   </trkpt>
   <trkpt lat="-3.1623240" lon="37.3650920">
    <ele>2978.5</ele>
    <time>2026-06-24T05:13:52Z</time>
   </trkpt>
   <trkpt lat="-3.1623310" lon="37.3650870">
    <ele>2978.4</ele>
    <time>2026-06-24T05:13:53Z</time>
   </trkpt>
   <trkpt lat="-3.1623350" lon="37.3650880">
    <ele>2978.3</ele>
    <time>2026-06-24T05:13:54Z</time>
   </trkpt>
   <trkpt lat="-3.1623400" lon="37.3650810">
    <ele>2978.1</ele>
    <time>2026-06-24T05:13:55Z</time>
   </trkpt>
   <trkpt lat="-3.1623390" lon="37.3650840">
    <ele>2978.1</ele>
    <time>2026-06-24T05:13:56Z</time>
   </trkpt>
   <trkpt lat="-3.1623320" lon="37.3650860">
    <ele>2977.9</ele>
    <time>2026-06-24T05:13:57Z</time>
   </trkpt>
   <trkpt lat="-3.1623330" lon="37.3650800">
    <ele>2977.8</ele>
    <time>2026-06-24T05:13:58Z</time>
   </trkpt>
   <trkpt lat="-3.1623320" lon="37.3650730">
    <ele>2977.6</ele>
    <time>2026-06-24T05:13:59Z</time>
   </trkpt>
   <trkpt lat="-3.1623350" lon="37.3650760">
    <ele>2977.6</ele>
    <time>2026-06-24T05:14:00Z</time>
   </trkpt>
   <trkpt lat="-3.1623360" lon="37.3650740">
    <ele>2977.5</ele>
    <time>2026-06-24T05:14:01Z</time>
   </trkpt>
   <trkpt lat="-3.1623380" lon="37.3650720">
    <ele>2977.5</ele>
    <time>2026-06-24T05:14:02Z</time>
   </trkpt>
   <trkpt lat="-3.1623390" lon="37.3650660">
    <ele>2977.3</ele>
    <time>2026-06-24T05:14:03Z</time>
   </trkpt>
   <trkpt lat="-3.1623370" lon="37.3650650">
    <ele>2977.3</ele>
    <time>2026-06-24T05:14:04Z</time>
   </trkpt>
   <trkpt lat="-3.1623320" lon="37.3650590">
    <ele>2977.1</ele>
    <time>2026-06-24T05:14:05Z</time>
   </trkpt>
   <trkpt lat="-3.1623350" lon="37.3650550">
    <ele>2977.0</ele>
    <time>2026-06-24T05:14:06Z</time>
   </trkpt>
   <trkpt lat="-3.1623360" lon="37.3650520">
    <ele>2977.0</ele>
    <time>2026-06-24T05:14:07Z</time>
   </trkpt>
   <trkpt lat="-3.1623370" lon="37.3650540">
    <ele>2976.9</ele>
    <time>2026-06-24T05:14:08Z</time>
   </trkpt>
   <trkpt lat="-3.1623380" lon="37.3650450">
    <ele>2976.7</ele>
    <time>2026-06-24T05:14:09Z</time>
   </trkpt>
   <trkpt lat="-3.1623430" lon="37.3650410">
    <ele>2976.6</ele>
    <time>2026-06-24T05:14:10Z</time>
   </trkpt>
   <trkpt lat="-3.1623500" lon="37.3650460">
    <ele>2976.4</ele>
    <time>2026-06-24T05:14:11Z</time>
   </trkpt>
   <trkpt lat="-3.1623550" lon="37.3650440">
    <ele>2976.3</ele>
    <time>2026-06-24T05:14:12Z</time>
   </trkpt>
   <trkpt lat="-3.1623570" lon="37.3650490">
    <ele>2976.2</ele>
    <time>2026-06-24T05:14:13Z</time>
   </trkpt>
   <trkpt lat="-3.1623560" lon="37.3650490">
    <ele>2976.2</ele>
    <time>2026-06-24T05:14:14Z</time>
   </trkpt>
   <trkpt lat="-3.1623620" lon="37.3650470">
    <ele>2976.0</ele>
    <time>2026-06-24T05:14:15Z</time>
   </trkpt>
   <trkpt lat="-3.1623680" lon="37.3650380">
    <ele>2975.8</ele>
    <time>2026-06-24T05:14:16Z</time>
   </trkpt>
   <trkpt lat="-3.1623680" lon="37.3650270">
    <ele>2975.6</ele>
    <time>2026-06-24T05:14:17Z</time>
   </trkpt>
   <trkpt lat="-3.1623720" lon="37.3650240">
    <ele>2975.5</ele>
    <time>2026-06-24T05:14:18Z</time>
   </trkpt>
   <trkpt lat="-3.1623760" lon="37.3650150">
    <ele>2975.3</ele>
    <time>2026-06-24T05:14:19Z</time>
   </trkpt>
   <trkpt lat="-3.1623810" lon="37.3650150">
    <ele>2975.2</ele>
    <time>2026-06-24T05:14:20Z</time>
   </trkpt>
   <trkpt lat="-3.1623850" lon="37.3650170">
    <ele>2975.1</ele>
    <time>2026-06-24T05:14:21Z</time>
   </trkpt>
   <trkpt lat="-3.1624050" lon="37.3650030">
    <ele>2974.6</ele>
    <time>2026-06-24T05:14:22Z</time>
   </trkpt>
   <trkpt lat="-3.1624060" lon="37.3649980">
    <ele>2974.5</ele>
    <time>2026-06-24T05:14:23Z</time>
   </trkpt>
   <trkpt lat="-3.1624060" lon="37.3649940">
    <ele>2974.4</ele>
    <time>2026-06-24T05:14:24Z</time>
   </trkpt>
   <trkpt lat="-3.1624080" lon="37.3649900">
    <ele>2974.3</ele>
    <time>2026-06-24T05:14:25Z</time>
   </trkpt>
   <trkpt lat="-3.1624070" lon="37.3649890">
    <ele>2974.3</ele>
    <time>2026-06-24T05:14:26Z</time>
   </trkpt>
   <trkpt lat="-3.1624090" lon="37.3649820">
    <ele>2974.1</ele>
    <time>2026-06-24T05:14:27Z</time>
   </trkpt>
   <trkpt lat="-3.1624040" lon="37.3649910">
    <ele>2973.9</ele>
    <time>2026-06-24T05:14:28Z</time>
   </trkpt>
   <trkpt lat="-3.1624080" lon="37.3649880">
    <ele>2973.8</ele>
    <time>2026-06-24T05:14:29Z</time>
   </trkpt>
   <trkpt lat="-3.1624140" lon="37.3649810">
    <ele>2973.6</ele>
    <time>2026-06-24T05:14:30Z</time>
   </trkpt>
   <trkpt lat="-3.1624120" lon="37.3649780">
    <ele>2973.5</ele>
    <time>2026-06-24T05:14:31Z</time>
   </trkpt>
   <trkpt lat="-3.1624110" lon="37.3649720">
    <ele>2973.4</ele>
    <time>2026-06-24T05:14:32Z</time>
   </trkpt>
   <trkpt lat="-3.1624170" lon="37.3649720">
    <ele>2973.3</ele>
    <time>2026-06-24T05:14:33Z</time>
   </trkpt>
   <trkpt lat="-3.1624240" lon="37.3649730">
    <ele>2973.1</ele>
    <time>2026-06-24T05:14:34Z</time>
   </trkpt>
   <trkpt lat="-3.1624230" lon="37.3649800">
    <ele>2973.0</ele>
    <time>2026-06-24T05:14:35Z</time>
   </trkpt>
   <trkpt lat="-3.1624300" lon="37.3649840">
    <ele>2972.8</ele>
    <time>2026-06-24T05:14:36Z</time>
   </trkpt>
   <trkpt lat="-3.1624360" lon="37.3649770">
    <ele>2972.6</ele>
    <time>2026-06-24T05:14:37Z</time>
   </trkpt>
   <trkpt lat="-3.1624420" lon="37.3649740">
    <ele>2972.5</ele>
    <time>2026-06-24T05:14:38Z</time>
   </trkpt>
   <trkpt lat="-3.1624460" lon="37.3649740">
    <ele>2972.4</ele>
    <time>2026-06-24T05:14:39Z</time>
   </trkpt>
   <trkpt lat="-3.1624530" lon="37.3649690">
    <ele>2972.2</ele>
    <time>2026-06-24T05:14:40Z</time>
   </trkpt>
   <trkpt lat="-3.1624590" lon="37.3649580">
    <ele>2972.0</ele>
    <time>2026-06-24T05:14:41Z</time>
   </trkpt>
   <trkpt lat="-3.1624700" lon="37.3649490">
    <ele>2971.7</ele>
    <time>2026-06-24T05:14:42Z</time>
   </trkpt>
   <trkpt lat="-3.1624770" lon="37.3649350">
    <ele>2971.4</ele>
    <time>2026-06-24T05:14:43Z</time>
   </trkpt>
   <trkpt lat="-3.1624790" lon="37.3649230">
    <ele>2971.1</ele>
    <time>2026-06-24T05:14:44Z</time>
   </trkpt>
   <trkpt lat="-3.1624880" lon="37.3649090">
    <ele>2970.8</ele>
    <time>2026-06-24T05:14:45Z</time>
   </trkpt>
   <trkpt lat="-3.1624920" lon="37.3648930">
    <ele>2970.5</ele>
    <time>2026-06-24T05:14:46Z</time>
   </trkpt>
   <trkpt lat="-3.1624910" lon="37.3648980">
    <ele>2970.4</ele>
    <time>2026-06-24T05:14:47Z</time>
   </trkpt>
   <trkpt lat="-3.1624960" lon="37.3648920">
    <ele>2970.2</ele>
    <time>2026-06-24T05:14:48Z</time>
   </trkpt>
   <trkpt lat="-3.1624970" lon="37.3648850">
    <ele>2970.1</ele>
    <time>2026-06-24T05:14:49Z</time>
   </trkpt>
   <trkpt lat="-3.1624960" lon="37.3648850">
    <ele>2970.1</ele>
    <time>2026-06-24T05:14:50Z</time>
   </trkpt>
   <trkpt lat="-3.1625070" lon="37.3648810">
    <ele>2969.9</ele>
    <time>2026-06-24T05:14:51Z</time>
   </trkpt>
   <trkpt lat="-3.1625200" lon="37.3648730">
    <ele>2969.6</ele>
    <time>2026-06-24T05:14:52Z</time>
   </trkpt>
   <trkpt lat="-3.1625310" lon="37.3648660">
    <ele>2969.4</ele>
    <time>2026-06-24T05:14:53Z</time>
   </trkpt>
   <trkpt lat="-3.1625310" lon="37.3648610">
    <ele>2969.3</ele>
    <time>2026-06-24T05:14:54Z</time>
   </trkpt>
   <trkpt lat="-3.1625350" lon="37.3648560">
    <ele>2969.2</ele>
    <time>2026-06-24T05:14:55Z</time>
   </trkpt>
   <trkpt lat="-3.1625290" lon="37.3648530">
    <ele>2969.1</ele>
    <time>2026-06-24T05:14:56Z</time>
   </trkpt>
   <trkpt lat="-3.1625260" lon="37.3648530">
    <ele>2969.0</ele>
    <time>2026-06-24T05:14:57Z</time>
   </trkpt>
   <trkpt lat="-3.1625270" lon="37.3648490">
    <ele>2968.9</ele>
    <time>2026-06-24T05:14:58Z</time>
   </trkpt>
   <trkpt lat="-3.1625310" lon="37.3648470">
    <ele>2968.9</ele>
    <time>2026-06-24T05:14:59Z</time>
   </trkpt>
   <trkpt lat="-3.1625330" lon="37.3648420">
    <ele>2968.8</ele>
    <time>2026-06-24T05:15:00Z</time>
   </trkpt>
   <trkpt lat="-3.1625370" lon="37.3648390">
    <ele>2968.7</ele>
    <time>2026-06-24T05:15:01Z</time>
   </trkpt>
   <trkpt lat="-3.1625440" lon="37.3648320">
    <ele>2968.5</ele>
    <time>2026-06-24T05:15:02Z</time>
   </trkpt>
   <trkpt lat="-3.1625540" lon="37.3648250">
    <ele>2968.3</ele>
    <time>2026-06-24T05:15:04Z</time>
   </trkpt>
   <trkpt lat="-3.1625570" lon="37.3648220">
    <ele>2968.2</ele>
    <time>2026-06-24T05:15:05Z</time>
   </trkpt>
   <trkpt lat="-3.1625620" lon="37.3648170">
    <ele>2968.1</ele>
    <time>2026-06-24T05:15:06Z</time>
   </trkpt>
   <trkpt lat="-3.1625640" lon="37.3648130">
    <ele>2968.1</ele>
    <time>2026-06-24T05:15:07Z</time>
   </trkpt>
   <trkpt lat="-3.1625710" lon="37.3648190">
    <ele>2967.9</ele>
    <time>2026-06-24T05:15:08Z</time>
   </trkpt>
   <trkpt lat="-3.1625780" lon="37.3648120">
    <ele>2967.8</ele>
    <time>2026-06-24T05:15:09Z</time>
   </trkpt>
   <trkpt lat="-3.1625810" lon="37.3648030">
    <ele>2967.6</ele>
    <time>2026-06-24T05:15:10Z</time>
   </trkpt>
   <trkpt lat="-3.1625850" lon="37.3647980">
    <ele>2967.5</ele>
    <time>2026-06-24T05:15:11Z</time>
   </trkpt>
   <trkpt lat="-3.1625890" lon="37.3648010">
    <ele>2967.4</ele>
    <time>2026-06-24T05:15:12Z</time>
   </trkpt>
   <trkpt lat="-3.1625900" lon="37.3648010">
    <ele>2967.4</ele>
    <time>2026-06-24T05:15:13Z</time>
   </trkpt>
   <trkpt lat="-3.1625900" lon="37.3648030">
    <ele>2967.4</ele>
    <time>2026-06-24T05:15:14Z</time>
   </trkpt>
   <trkpt lat="-3.1625860" lon="37.3648010">
    <ele>2967.3</ele>
    <time>2026-06-24T05:15:15Z</time>
   </trkpt>
   <trkpt lat="-3.1625830" lon="37.3647930">
    <ele>2967.2</ele>
    <time>2026-06-24T05:15:16Z</time>
   </trkpt>
   <trkpt lat="-3.1625870" lon="37.3647920">
    <ele>2967.1</ele>
    <time>2026-06-24T05:15:17Z</time>
   </trkpt>
   <trkpt lat="-3.1625950" lon="37.3647870">
    <ele>2967.0</ele>
    <time>2026-06-24T05:15:18Z</time>
   </trkpt>
   <trkpt lat="-3.1625910" lon="37.3647780">
    <ele>2966.8</ele>
    <time>2026-06-24T05:15:19Z</time>
   </trkpt>
   <trkpt lat="-3.1625920" lon="37.3647710">
    <ele>2966.7</ele>
    <time>2026-06-24T05:15:20Z</time>
   </trkpt>
   <trkpt lat="-3.1625930" lon="37.3647640">
    <ele>2966.6</ele>
    <time>2026-06-24T05:15:21Z</time>
   </trkpt>
   <trkpt lat="-3.1625870" lon="37.3647560">
    <ele>2966.4</ele>
    <time>2026-06-24T05:15:22Z</time>
   </trkpt>
   <trkpt lat="-3.1625840" lon="37.3647440">
    <ele>2966.2</ele>
    <time>2026-06-24T05:15:23Z</time>
   </trkpt>
   <trkpt lat="-3.1625920" lon="37.3647280">
    <ele>2966.0</ele>
    <time>2026-06-24T05:15:24Z</time>
   </trkpt>
   <trkpt lat="-3.1625920" lon="37.3647090">
    <ele>2965.7</ele>
    <time>2026-06-24T05:15:25Z</time>
   </trkpt>
   <trkpt lat="-3.1625880" lon="37.3647100">
    <ele>2965.6</ele>
    <time>2026-06-24T05:15:26Z</time>
   </trkpt>
   <trkpt lat="-3.1625900" lon="37.3647020">
    <ele>2965.5</ele>
    <time>2026-06-24T05:15:27Z</time>
   </trkpt>
   <trkpt lat="-3.1625870" lon="37.3647080">
    <ele>2965.4</ele>
    <time>2026-06-24T05:15:28Z</time>
   </trkpt>
   <trkpt lat="-3.1625890" lon="37.3647040">
    <ele>2965.3</ele>
    <time>2026-06-24T05:15:29Z</time>
   </trkpt>
   <trkpt lat="-3.1625880" lon="37.3647070">
    <ele>2965.2</ele>
    <time>2026-06-24T05:15:30Z</time>
   </trkpt>
   <trkpt lat="-3.1625880" lon="37.3647030">
    <ele>2965.2</ele>
    <time>2026-06-24T05:15:31Z</time>
   </trkpt>
   <trkpt lat="-3.1625930" lon="37.3647010">
    <ele>2965.1</ele>
    <time>2026-06-24T05:15:32Z</time>
   </trkpt>
   <trkpt lat="-3.1625920" lon="37.3646980">
    <ele>2965.1</ele>
    <time>2026-06-24T05:15:33Z</time>
   </trkpt>
   <trkpt lat="-3.1625930" lon="37.3646880">
    <ele>2964.9</ele>
    <time>2026-06-24T05:15:34Z</time>
   </trkpt>
   <trkpt lat="-3.1625940" lon="37.3646840">
    <ele>2964.8</ele>
    <time>2026-06-24T05:15:35Z</time>
   </trkpt>
   <trkpt lat="-3.1625990" lon="37.3646830">
    <ele>2964.8</ele>
    <time>2026-06-24T05:15:36Z</time>
   </trkpt>
   <trkpt lat="-3.1626010" lon="37.3646720">
    <ele>2964.6</ele>
    <time>2026-06-24T05:15:37Z</time>
   </trkpt>
   <trkpt lat="-3.1626060" lon="37.3646730">
    <ele>2964.5</ele>
    <time>2026-06-24T05:15:38Z</time>
   </trkpt>
   <trkpt lat="-3.1626100" lon="37.3646590">
    <ele>2964.3</ele>
    <time>2026-06-24T05:15:39Z</time>
   </trkpt>
   <trkpt lat="-3.1626140" lon="37.3646580">
    <ele>2964.3</ele>
    <time>2026-06-24T05:15:40Z</time>
   </trkpt>
   <trkpt lat="-3.1626160" lon="37.3646630">
    <ele>2964.2</ele>
    <time>2026-06-24T05:15:41Z</time>
   </trkpt>
   <trkpt lat="-3.1626180" lon="37.3646670">
    <ele>2964.1</ele>
    <time>2026-06-24T05:15:42Z</time>
   </trkpt>
   <trkpt lat="-3.1626210" lon="37.3646610">
    <ele>2964.0</ele>
    <time>2026-06-24T05:15:43Z</time>
   </trkpt>
   <trkpt lat="-3.1626270" lon="37.3646490">
    <ele>2963.8</ele>
    <time>2026-06-24T05:15:44Z</time>
   </trkpt>
   <trkpt lat="-3.1626340" lon="37.3646400">
    <ele>2963.7</ele>
    <time>2026-06-24T05:15:45Z</time>
   </trkpt>
   <trkpt lat="-3.1626390" lon="37.3646390">
    <ele>2963.6</ele>
    <time>2026-06-24T05:15:46Z</time>
   </trkpt>
   <trkpt lat="-3.1626450" lon="37.3646430">
    <ele>2963.5</ele>
    <time>2026-06-24T05:15:47Z</time>
   </trkpt>
   <trkpt lat="-3.1626480" lon="37.3646470">
    <ele>2963.4</ele>
    <time>2026-06-24T05:15:48Z</time>
   </trkpt>
   <trkpt lat="-3.1626500" lon="37.3646450">
    <ele>2963.4</ele>
    <time>2026-06-24T05:15:49Z</time>
   </trkpt>
   <trkpt lat="-3.1626530" lon="37.3646420">
    <ele>2963.3</ele>
    <time>2026-06-24T05:15:50Z</time>
   </trkpt>
   <trkpt lat="-3.1626600" lon="37.3646390">
    <ele>2963.2</ele>
    <time>2026-06-24T05:15:51Z</time>
   </trkpt>
   <trkpt lat="-3.1626670" lon="37.3646300">
    <ele>2963.1</ele>
    <time>2026-06-24T05:15:52Z</time>
   </trkpt>
   <trkpt lat="-3.1626690" lon="37.3646220">
    <ele>2962.9</ele>
    <time>2026-06-24T05:15:53Z</time>
   </trkpt>
   <trkpt lat="-3.1626700" lon="37.3646250">
    <ele>2962.9</ele>
    <time>2026-06-24T05:15:54Z</time>
   </trkpt>
   <trkpt lat="-3.1626750" lon="37.3646200">
    <ele>2962.8</ele>
    <time>2026-06-24T05:15:55Z</time>
   </trkpt>
   <trkpt lat="-3.1626830" lon="37.3646110">
    <ele>2962.6</ele>
    <time>2026-06-24T05:15:56Z</time>
   </trkpt>
   <trkpt lat="-3.1626890" lon="37.3646170">
    <ele>2962.5</ele>
    <time>2026-06-24T05:15:57Z</time>
   </trkpt>
   <trkpt lat="-3.1626970" lon="37.3646130">
    <ele>2962.4</ele>
    <time>2026-06-24T05:15:58Z</time>
   </trkpt>
   <trkpt lat="-3.1627210" lon="37.3646040">
    <ele>2962.1</ele>
    <time>2026-06-24T05:15:59Z</time>
   </trkpt>
   <trkpt lat="-3.1627290" lon="37.3646030">
    <ele>2962.0</ele>
    <time>2026-06-24T05:16:00Z</time>
   </trkpt>
   <trkpt lat="-3.1627410" lon="37.3645930">
    <ele>2961.7</ele>
    <time>2026-06-24T05:16:01Z</time>
   </trkpt>
   <trkpt lat="-3.1627600" lon="37.3645850">
    <ele>2961.5</ele>
    <time>2026-06-24T05:16:02Z</time>
   </trkpt>
   <trkpt lat="-3.1627650" lon="37.3645840">
    <ele>2961.4</ele>
    <time>2026-06-24T05:16:03Z</time>
   </trkpt>
   <trkpt lat="-3.1627740" lon="37.3645750">
    <ele>2961.3</ele>
    <time>2026-06-24T05:16:04Z</time>
   </trkpt>
   <trkpt lat="-3.1627890" lon="37.3645640">
    <ele>2961.0</ele>
    <time>2026-06-24T05:16:05Z</time>
   </trkpt>
   <trkpt lat="-3.1627890" lon="37.3645690">
    <ele>2961.0</ele>
    <time>2026-06-24T05:16:06Z</time>
   </trkpt>
   <trkpt lat="-3.1627940" lon="37.3645630">
    <ele>2960.9</ele>
    <time>2026-06-24T05:16:07Z</time>
   </trkpt>
   <trkpt lat="-3.1627980" lon="37.3645580">
    <ele>2960.8</ele>
    <time>2026-06-24T05:16:08Z</time>
   </trkpt>
   <trkpt lat="-3.1627990" lon="37.3645540">
    <ele>2960.7</ele>
    <time>2026-06-24T05:16:09Z</time>
   </trkpt>
   <trkpt lat="-3.1628020" lon="37.3645460">
    <ele>2960.6</ele>
    <time>2026-06-24T05:16:10Z</time>
   </trkpt>
   <trkpt lat="-3.1627990" lon="37.3645410">
    <ele>2960.6</ele>
    <time>2026-06-24T05:16:11Z</time>
   </trkpt>
   <trkpt lat="-3.1628030" lon="37.3645360">
    <ele>2960.5</ele>
    <time>2026-06-24T05:16:12Z</time>
   </trkpt>
   <trkpt lat="-3.1628080" lon="37.3645340">
    <ele>2960.4</ele>
    <time>2026-06-24T05:16:13Z</time>
   </trkpt>
   <trkpt lat="-3.1628210" lon="37.3645290">
    <ele>2960.3</ele>
    <time>2026-06-24T05:16:14Z</time>
   </trkpt>
   <trkpt lat="-3.1628290" lon="37.3645280">
    <ele>2960.2</ele>
    <time>2026-06-24T05:16:15Z</time>
   </trkpt>
   <trkpt lat="-3.1628310" lon="37.3645330">
    <ele>2960.1</ele>
    <time>2026-06-24T05:16:16Z</time>
   </trkpt>
   <trkpt lat="-3.1628370" lon="37.3645340">
    <ele>2960.0</ele>
    <time>2026-06-24T05:16:17Z</time>
   </trkpt>
   <trkpt lat="-3.1628420" lon="37.3645270">
    <ele>2959.9</ele>
    <time>2026-06-24T05:16:18Z</time>
   </trkpt>
   <trkpt lat="-3.1628500" lon="37.3645160">
    <ele>2959.8</ele>
    <time>2026-06-24T05:16:19Z</time>
   </trkpt>
   <trkpt lat="-3.1628500" lon="37.3645150">
    <ele>2959.8</ele>
    <time>2026-06-24T05:16:20Z</time>
   </trkpt>
   <trkpt lat="-3.1628510" lon="37.3645120">
    <ele>2959.8</ele>
    <time>2026-06-24T05:16:21Z</time>
   </trkpt>
   <trkpt lat="-3.1628580" lon="37.3645070">
    <ele>2959.7</ele>
    <time>2026-06-24T05:16:22Z</time>
   </trkpt>
   <trkpt lat="-3.1628680" lon="37.3645050">
    <ele>2959.6</ele>
    <time>2026-06-24T05:16:23Z</time>
   </trkpt>
   <trkpt lat="-3.1628760" lon="37.3645060">
    <ele>2959.5</ele>
    <time>2026-06-24T05:16:24Z</time>
   </trkpt>
   <trkpt lat="-3.1628920" lon="37.3645010">
    <ele>2959.3</ele>
    <time>2026-06-24T05:16:25Z</time>
   </trkpt>
   <trkpt lat="-3.1629000" lon="37.3644910">
    <ele>2959.2</ele>
    <time>2026-06-24T05:16:26Z</time>
   </trkpt>
   <trkpt lat="-3.1629000" lon="37.3644980">
    <ele>2959.1</ele>
    <time>2026-06-24T05:16:27Z</time>
   </trkpt>
   <trkpt lat="-3.1629040" lon="37.3644990">
    <ele>2959.1</ele>
    <time>2026-06-24T05:16:28Z</time>
   </trkpt>
   <trkpt lat="-3.1629110" lon="37.3644980">
    <ele>2959.0</ele>
    <time>2026-06-24T05:16:29Z</time>
   </trkpt>
   <trkpt lat="-3.1629210" lon="37.3644940">
    <ele>2958.9</ele>
    <time>2026-06-24T05:16:30Z</time>
   </trkpt>
   <trkpt lat="-3.1629270" lon="37.3644900">
    <ele>2958.9</ele>
    <time>2026-06-24T05:16:31Z</time>
   </trkpt>
   <trkpt lat="-3.1629380" lon="37.3644890">
    <ele>2958.8</ele>
    <time>2026-06-24T05:16:32Z</time>
   </trkpt>
   <trkpt lat="-3.1629400" lon="37.3644850">
    <ele>2958.7</ele>
    <time>2026-06-24T05:16:33Z</time>
   </trkpt>
   <trkpt lat="-3.1629500" lon="37.3644830">
    <ele>2958.6</ele>
    <time>2026-06-24T05:16:34Z</time>
   </trkpt>
   <trkpt lat="-3.1629600" lon="37.3644760">
    <ele>2958.5</ele>
    <time>2026-06-24T05:16:35Z</time>
   </trkpt>
   <trkpt lat="-3.1629630" lon="37.3644600">
    <ele>2958.4</ele>
    <time>2026-06-24T05:16:36Z</time>
   </trkpt>
   <trkpt lat="-3.1629700" lon="37.3644550">
    <ele>2958.3</ele>
    <time>2026-06-24T05:16:37Z</time>
   </trkpt>
   <trkpt lat="-3.1629740" lon="37.3644450">
    <ele>2958.2</ele>
    <time>2026-06-24T05:16:38Z</time>
   </trkpt>
   <trkpt lat="-3.1629750" lon="37.3644330">
    <ele>2958.1</ele>
    <time>2026-06-24T05:16:39Z</time>
   </trkpt>
   <trkpt lat="-3.1629780" lon="37.3644230">
    <ele>2958.0</ele>
    <time>2026-06-24T05:16:40Z</time>
   </trkpt>
   <trkpt lat="-3.1629900" lon="37.3644080">
    <ele>2957.8</ele>
    <time>2026-06-24T05:16:41Z</time>
   </trkpt>
   <trkpt lat="-3.1629990" lon="37.3644030">
    <ele>2957.7</ele>
    <time>2026-06-24T05:16:42Z</time>
   </trkpt>
   <trkpt lat="-3.1630100" lon="37.3643960">
    <ele>2957.6</ele>
    <time>2026-06-24T05:16:43Z</time>
   </trkpt>
   <trkpt lat="-3.1630220" lon="37.3643850">
    <ele>2957.5</ele>
    <time>2026-06-24T05:16:44Z</time>
   </trkpt>
   <trkpt lat="-3.1630250" lon="37.3643760">
    <ele>2957.4</ele>
    <time>2026-06-24T05:16:45Z</time>
   </trkpt>
   <trkpt lat="-3.1630330" lon="37.3643690">
    <ele>2957.3</ele>
    <time>2026-06-24T05:16:46Z</time>
   </trkpt>
   <trkpt lat="-3.1630430" lon="37.3643570">
    <ele>2957.1</ele>
    <time>2026-06-24T05:16:47Z</time>
   </trkpt>
   <trkpt lat="-3.1630530" lon="37.3643560">
    <ele>2957.0</ele>
    <time>2026-06-24T05:16:48Z</time>
   </trkpt>
   <trkpt lat="-3.1630600" lon="37.3643550">
    <ele>2956.9</ele>
    <time>2026-06-24T05:16:49Z</time>
   </trkpt>
   <trkpt lat="-3.1630630" lon="37.3643570">
    <ele>2956.9</ele>
    <time>2026-06-24T05:16:50Z</time>
   </trkpt>
   <trkpt lat="-3.1630680" lon="37.3643540">
    <ele>2956.8</ele>
    <time>2026-06-24T05:16:51Z</time>
   </trkpt>
   <trkpt lat="-3.1630770" lon="37.3643530">
    <ele>2956.8</ele>
    <time>2026-06-24T05:16:52Z</time>
   </trkpt>
   <trkpt lat="-3.1630840" lon="37.3643460">
    <ele>2956.7</ele>
    <time>2026-06-24T05:16:53Z</time>
   </trkpt>
   <trkpt lat="-3.1630780" lon="37.3643440">
    <ele>2956.6</ele>
    <time>2026-06-24T05:16:54Z</time>
   </trkpt>
   <trkpt lat="-3.1630910" lon="37.3643460">
    <ele>2956.5</ele>
    <time>2026-06-24T05:16:55Z</time>
   </trkpt>
   <trkpt lat="-3.1630970" lon="37.3643420">
    <ele>2956.4</ele>
    <time>2026-06-24T05:16:56Z</time>
   </trkpt>
   <trkpt lat="-3.1630980" lon="37.3643430">
    <ele>2956.4</ele>
    <time>2026-06-24T05:16:57Z</time>
   </trkpt>
   <trkpt lat="-3.1631010" lon="37.3643430">
    <ele>2956.4</ele>
    <time>2026-06-24T05:16:58Z</time>
   </trkpt>
   <trkpt lat="-3.1631040" lon="37.3643440">
    <ele>2956.4</ele>
    <time>2026-06-24T05:16:59Z</time>
   </trkpt>
   <trkpt lat="-3.1631090" lon="37.3643420">
    <ele>2956.3</ele>
    <time>2026-06-24T05:17:00Z</time>
   </trkpt>
   <trkpt lat="-3.1631080" lon="37.3643390">
    <ele>2956.3</ele>
    <time>2026-06-24T05:17:01Z</time>
   </trkpt>
   <trkpt lat="-3.1631120" lon="37.3643410">
    <ele>2956.2</ele>
    <time>2026-06-24T05:17:02Z</time>
   </trkpt>
   <trkpt lat="-3.1631170" lon="37.3643400">
    <ele>2956.2</ele>
    <time>2026-06-24T05:17:03Z</time>
   </trkpt>
   <trkpt lat="-3.1631340" lon="37.3643380">
    <ele>2956.1</ele>
    <time>2026-06-24T05:17:04Z</time>
   </trkpt>
   <trkpt lat="-3.1631400" lon="37.3643320">
    <ele>2956.0</ele>
    <time>2026-06-24T05:17:05Z</time>
   </trkpt>
   <trkpt lat="-3.1631450" lon="37.3643230">
    <ele>2955.9</ele>
    <time>2026-06-24T05:17:06Z</time>
   </trkpt>
   <trkpt lat="-3.1631490" lon="37.3643210">
    <ele>2955.9</ele>
    <time>2026-06-24T05:17:07Z</time>
   </trkpt>
   <trkpt lat="-3.1631500" lon="37.3643210">
    <ele>2955.9</ele>
    <time>2026-06-24T05:17:08Z</time>
   </trkpt>
   <trkpt lat="-3.1631550" lon="37.3643140">
    <ele>2955.8</ele>
    <time>2026-06-24T05:17:09Z</time>
   </trkpt>
   <trkpt lat="-3.1631620" lon="37.3643060">
    <ele>2955.7</ele>
    <time>2026-06-24T05:17:10Z</time>
   </trkpt>
   <trkpt lat="-3.1631780" lon="37.3642940">
    <ele>2955.6</ele>
    <time>2026-06-24T05:17:11Z</time>
   </trkpt>
   <trkpt lat="-3.1631820" lon="37.3642990">
    <ele>2955.6</ele>
    <time>2026-06-24T05:17:12Z</time>
   </trkpt>
   <trkpt lat="-3.1631850" lon="37.3642980">
    <ele>2955.5</ele>
    <time>2026-06-24T05:17:13Z</time>
   </trkpt>
   <trkpt lat="-3.1631850" lon="37.3642980">
    <ele>2955.5</ele>
    <time>2026-06-24T05:17:14Z</time>
   </trkpt>
   <trkpt lat="-3.1631900" lon="37.3642950">
    <ele>2955.5</ele>
    <time>2026-06-24T05:17:15Z</time>
   </trkpt>
   <trkpt lat="-3.1631990" lon="37.3642920">
    <ele>2955.4</ele>
    <time>2026-06-24T05:17:16Z</time>
   </trkpt>
   <trkpt lat="-3.1632020" lon="37.3642890">
    <ele>2955.4</ele>
    <time>2026-06-24T05:17:17Z</time>
   </trkpt>
   <trkpt lat="-3.1632110" lon="37.3642860">
    <ele>2955.4</ele>
    <time>2026-06-24T05:17:18Z</time>
   </trkpt>
   <trkpt lat="-3.1632200" lon="37.3642740">
    <ele>2955.3</ele>
    <time>2026-06-24T05:17:19Z</time>
   </trkpt>
   <trkpt lat="-3.1632370" lon="37.3642620">
    <ele>2955.2</ele>
    <time>2026-06-24T05:17:20Z</time>
   </trkpt>
   <trkpt lat="-3.1632460" lon="37.3642630">
    <ele>2955.1</ele>
    <time>2026-06-24T05:17:21Z</time>
   </trkpt>
   <trkpt lat="-3.1632600" lon="37.3642590">
    <ele>2955.0</ele>
    <time>2026-06-24T05:17:22Z</time>
   </trkpt>
   <trkpt lat="-3.1632680" lon="37.3642550">
    <ele>2955.0</ele>
    <time>2026-06-24T05:17:23Z</time>
   </trkpt>
   <trkpt lat="-3.1632740" lon="37.3642520">
    <ele>2955.0</ele>
    <time>2026-06-24T05:17:24Z</time>
   </trkpt>
   <trkpt lat="-3.1632850" lon="37.3642500">
    <ele>2954.9</ele>
    <time>2026-06-24T05:17:25Z</time>
   </trkpt>
   <trkpt lat="-3.1632950" lon="37.3642450">
    <ele>2954.8</ele>
    <time>2026-06-24T05:17:26Z</time>
   </trkpt>
   <trkpt lat="-3.1633060" lon="37.3642400">
    <ele>2954.8</ele>
    <time>2026-06-24T05:17:27Z</time>
   </trkpt>
   <trkpt lat="-3.1633160" lon="37.3642390">
    <ele>2954.7</ele>
    <time>2026-06-24T05:17:28Z</time>
   </trkpt>
   <trkpt lat="-3.1633260" lon="37.3642370">
    <ele>2954.6</ele>
    <time>2026-06-24T05:17:29Z</time>
   </trkpt>
   <trkpt lat="-3.1633400" lon="37.3642370">
    <ele>2954.5</ele>
    <time>2026-06-24T05:17:30Z</time>
   </trkpt>
   <trkpt lat="-3.1633550" lon="37.3642330">
    <ele>2954.4</ele>
    <time>2026-06-24T05:17:31Z</time>
   </trkpt>
   <trkpt lat="-3.1633660" lon="37.3642250">
    <ele>2954.3</ele>
    <time>2026-06-24T05:17:32Z</time>
   </trkpt>
   <trkpt lat="-3.1633800" lon="37.3642160">
    <ele>2954.1</ele>
    <time>2026-06-24T05:17:33Z</time>
   </trkpt>
   <trkpt lat="-3.1633890" lon="37.3642100">
    <ele>2954.0</ele>
    <time>2026-06-24T05:17:34Z</time>
   </trkpt>
   <trkpt lat="-3.1633930" lon="37.3642040">
    <ele>2954.0</ele>
    <time>2026-06-24T05:17:35Z</time>
   </trkpt>
   <trkpt lat="-3.1634000" lon="37.3642010">
    <ele>2953.9</ele>
    <time>2026-06-24T05:17:36Z</time>
   </trkpt>
   <trkpt lat="-3.1634070" lon="37.3641960">
    <ele>2953.8</ele>
    <time>2026-06-24T05:17:37Z</time>
   </trkpt>
   <trkpt lat="-3.1634110" lon="37.3641880">
    <ele>2953.6</ele>
    <time>2026-06-24T05:17:38Z</time>
   </trkpt>
   <trkpt lat="-3.1634170" lon="37.3641800">
    <ele>2953.5</ele>
    <time>2026-06-24T05:17:39Z</time>
   </trkpt>
   <trkpt lat="-3.1634220" lon="37.3641780">
    <ele>2953.5</ele>
    <time>2026-06-24T05:17:40Z</time>
   </trkpt>
   <trkpt lat="-3.1634300" lon="37.3641740">
    <ele>2953.4</ele>
    <time>2026-06-24T05:17:41Z</time>
   </trkpt>
   <trkpt lat="-3.1634360" lon="37.3641700">
    <ele>2953.3</ele>
    <time>2026-06-24T05:17:42Z</time>
   </trkpt>
   <trkpt lat="-3.1634390" lon="37.3641690">
    <ele>2953.2</ele>
    <time>2026-06-24T05:17:43Z</time>
   </trkpt>
   <trkpt lat="-3.1634470" lon="37.3641710">
    <ele>2953.1</ele>
    <time>2026-06-24T05:17:44Z</time>
   </trkpt>
   <trkpt lat="-3.1634530" lon="37.3641700">
    <ele>2953.0</ele>
    <time>2026-06-24T05:17:45Z</time>
   </trkpt>
   <trkpt lat="-3.1634610" lon="37.3641690">
    <ele>2952.9</ele>
    <time>2026-06-24T05:17:46Z</time>
   </trkpt>
   <trkpt lat="-3.1634670" lon="37.3641670">
    <ele>2952.8</ele>
    <time>2026-06-24T05:17:47Z</time>
   </trkpt>
   <trkpt lat="-3.1634700" lon="37.3641690">
    <ele>2952.7</ele>
    <time>2026-06-24T05:17:48Z</time>
   </trkpt>
   <trkpt lat="-3.1634750" lon="37.3641690">
    <ele>2952.6</ele>
    <time>2026-06-24T05:17:49Z</time>
   </trkpt>
   <trkpt lat="-3.1634820" lon="37.3641660">
    <ele>2952.5</ele>
    <time>2026-06-24T05:17:50Z</time>
   </trkpt>
   <trkpt lat="-3.1634900" lon="37.3641620">
    <ele>2952.4</ele>
    <time>2026-06-24T05:17:51Z</time>
   </trkpt>
   <trkpt lat="-3.1634940" lon="37.3641580">
    <ele>2952.3</ele>
    <time>2026-06-24T05:17:52Z</time>
   </trkpt>
   <trkpt lat="-3.1635010" lon="37.3641530">
    <ele>2952.1</ele>
    <time>2026-06-24T05:17:53Z</time>
   </trkpt>
   <trkpt lat="-3.1635120" lon="37.3641470">
    <ele>2951.9</ele>
    <time>2026-06-24T05:17:54Z</time>
   </trkpt>
   <trkpt lat="-3.1635200" lon="37.3641460">
    <ele>2951.8</ele>
    <time>2026-06-24T05:17:55Z</time>
   </trkpt>
   <trkpt lat="-3.1635250" lon="37.3641390">
    <ele>2951.6</ele>
    <time>2026-06-24T05:17:56Z</time>
   </trkpt>
   <trkpt lat="-3.1635270" lon="37.3641350">
    <ele>2951.5</ele>
    <time>2026-06-24T05:17:57Z</time>
   </trkpt>
   <trkpt lat="-3.1635360" lon="37.3641330">
    <ele>2951.3</ele>
    <time>2026-06-24T05:17:58Z</time>
   </trkpt>
   <trkpt lat="-3.1635480" lon="37.3641320">
    <ele>2951.1</ele>
    <time>2026-06-24T05:17:59Z</time>
   </trkpt>
   <trkpt lat="-3.1635500" lon="37.3641360">
    <ele>2951.0</ele>
    <time>2026-06-24T05:18:00Z</time>
   </trkpt>
   <trkpt lat="-3.1635530" lon="37.3641350">
    <ele>2951.0</ele>
    <time>2026-06-24T05:18:01Z</time>
   </trkpt>
   <trkpt lat="-3.1635570" lon="37.3641300">
    <ele>2950.8</ele>
    <time>2026-06-24T05:18:02Z</time>
   </trkpt>
   <trkpt lat="-3.1635630" lon="37.3641260">
    <ele>2950.7</ele>
    <time>2026-06-24T05:18:03Z</time>
   </trkpt>
   <trkpt lat="-3.1635710" lon="37.3641290">
    <ele>2950.5</ele>
    <time>2026-06-24T05:18:04Z</time>
   </trkpt>
   <trkpt lat="-3.1635790" lon="37.3641280">
    <ele>2950.3</ele>
    <time>2026-06-24T05:18:05Z</time>
   </trkpt>
   <trkpt lat="-3.1635880" lon="37.3641300">
    <ele>2950.2</ele>
    <time>2026-06-24T05:18:06Z</time>
   </trkpt>
   <trkpt lat="-3.1635940" lon="37.3641330">
    <ele>2950.0</ele>
    <time>2026-06-24T05:18:07Z</time>
   </trkpt>
   <trkpt lat="-3.1636030" lon="37.3641310">
    <ele>2949.8</ele>
    <time>2026-06-24T05:18:08Z</time>
   </trkpt>
   <trkpt lat="-3.1636090" lon="37.3641290">
    <ele>2949.7</ele>
    <time>2026-06-24T05:18:09Z</time>
   </trkpt>
   <trkpt lat="-3.1636170" lon="37.3641260">
    <ele>2949.5</ele>
    <time>2026-06-24T05:18:10Z</time>
   </trkpt>
   <trkpt lat="-3.1636170" lon="37.3641250">
    <ele>2949.5</ele>
    <time>2026-06-24T05:18:11Z</time>
   </trkpt>
   <trkpt lat="-3.1636190" lon="37.3641260">
    <ele>2949.4</ele>
    <time>2026-06-24T05:18:12Z</time>
   </trkpt>
   <trkpt lat="-3.1636160" lon="37.3641300">
    <ele>2949.3</ele>
    <time>2026-06-24T05:18:13Z</time>
   </trkpt>
   <trkpt lat="-3.1636220" lon="37.3641310">
    <ele>2949.2</ele>
    <time>2026-06-24T05:18:14Z</time>
   </trkpt>
   <trkpt lat="-3.1636220" lon="37.3641290">
    <ele>2949.1</ele>
    <time>2026-06-24T05:18:15Z</time>
   </trkpt>
   <trkpt lat="-3.1636240" lon="37.3641290">
    <ele>2949.1</ele>
    <time>2026-06-24T05:18:16Z</time>
   </trkpt>
   <trkpt lat="-3.1636240" lon="37.3641250">
    <ele>2949.0</ele>
    <time>2026-06-24T05:18:17Z</time>
   </trkpt>
   <trkpt lat="-3.1636320" lon="37.3641220">
    <ele>2948.7</ele>
    <time>2026-06-24T05:18:18Z</time>
   </trkpt>
   <trkpt lat="-3.1636320" lon="37.3641190">
    <ele>2948.6</ele>
    <time>2026-06-24T05:18:19Z</time>
   </trkpt>
   <trkpt lat="-3.1636380" lon="37.3641150">
    <ele>2948.4</ele>
    <time>2026-06-24T05:18:20Z</time>
   </trkpt>
   <trkpt lat="-3.1636440" lon="37.3641140">
    <ele>2948.2</ele>
    <time>2026-06-24T05:18:21Z</time>
   </trkpt>
   <trkpt lat="-3.1636450" lon="37.3641090">
    <ele>2948.0</ele>
    <time>2026-06-24T05:18:22Z</time>
   </trkpt>
   <trkpt lat="-3.1636490" lon="37.3641080">
    <ele>2947.9</ele>
    <time>2026-06-24T05:18:23Z</time>
   </trkpt>
   <trkpt lat="-3.1636490" lon="37.3641040">
    <ele>2947.8</ele>
    <time>2026-06-24T05:18:24Z</time>
   </trkpt>
   <trkpt lat="-3.1636510" lon="37.3640980">
    <ele>2947.6</ele>
    <time>2026-06-24T05:18:25Z</time>
   </trkpt>
   <trkpt lat="-3.1636560" lon="37.3640910">
    <ele>2947.3</ele>
    <time>2026-06-24T05:18:26Z</time>
   </trkpt>
   <trkpt lat="-3.1636570" lon="37.3640860">
    <ele>2947.2</ele>
    <time>2026-06-24T05:18:27Z</time>
   </trkpt>
   <trkpt lat="-3.1636570" lon="37.3640810">
    <ele>2947.0</ele>
    <time>2026-06-24T05:18:28Z</time>
   </trkpt>
   <trkpt lat="-3.1636560" lon="37.3640800">
    <ele>2947.0</ele>
    <time>2026-06-24T05:18:29Z</time>
   </trkpt>
   <trkpt lat="-3.1636580" lon="37.3640760">
    <ele>2946.8</ele>
    <time>2026-06-24T05:18:30Z</time>
   </trkpt>
   <trkpt lat="-3.1636620" lon="37.3640710">
    <ele>2946.6</ele>
    <time>2026-06-24T05:18:31Z</time>
   </trkpt>
   <trkpt lat="-3.1636690" lon="37.3640740">
    <ele>2946.4</ele>
    <time>2026-06-24T05:18:32Z</time>
   </trkpt>
   <trkpt lat="-3.1636700" lon="37.3640770">
    <ele>2946.3</ele>
    <time>2026-06-24T05:18:33Z</time>
   </trkpt>
   <trkpt lat="-3.1636730" lon="37.3640720">
    <ele>2946.1</ele>
    <time>2026-06-24T05:18:34Z</time>
   </trkpt>
   <trkpt lat="-3.1636790" lon="37.3640680">
    <ele>2945.9</ele>
    <time>2026-06-24T05:18:35Z</time>
   </trkpt>
   <trkpt lat="-3.1636840" lon="37.3640680">
    <ele>2945.8</ele>
    <time>2026-06-24T05:18:36Z</time>
   </trkpt>
   <trkpt lat="-3.1636830" lon="37.3640670">
    <ele>2945.7</ele>
    <time>2026-06-24T05:18:37Z</time>
   </trkpt>
   <trkpt lat="-3.1636830" lon="37.3640670">
    <ele>2945.7</ele>
    <time>2026-06-24T05:18:38Z</time>
   </trkpt>
   <trkpt lat="-3.1636830" lon="37.3640670">
    <ele>2945.7</ele>
    <time>2026-06-24T05:18:39Z</time>
   </trkpt>
   <trkpt lat="-3.1636830" lon="37.3640690">
    <ele>2945.7</ele>
    <time>2026-06-24T05:18:40Z</time>
   </trkpt>
   <trkpt lat="-3.1636830" lon="37.3640670">
    <ele>2945.6</ele>
    <time>2026-06-24T05:18:41Z</time>
   </trkpt>
   <trkpt lat="-3.1636840" lon="37.3640630">
    <ele>2945.5</ele>
    <time>2026-06-24T05:18:42Z</time>
   </trkpt>
   <trkpt lat="-3.1636780" lon="37.3640620">
    <ele>2945.3</ele>
    <time>2026-06-24T05:18:43Z</time>
   </trkpt>
   <trkpt lat="-3.1636770" lon="37.3640580">
    <ele>2945.2</ele>
    <time>2026-06-24T05:18:44Z</time>
   </trkpt>
   <trkpt lat="-3.1636770" lon="37.3640530">
    <ele>2945.0</ele>
    <time>2026-06-24T05:18:45Z</time>
   </trkpt>
   <trkpt lat="-3.1636750" lon="37.3640510">
    <ele>2944.9</ele>
    <time>2026-06-24T05:18:46Z</time>
   </trkpt>
   <trkpt lat="-3.1636750" lon="37.3640500">
    <ele>2944.9</ele>
    <time>2026-06-24T05:18:47Z</time>
   </trkpt>
   <trkpt lat="-3.1636750" lon="37.3640500">
    <ele>2944.9</ele>
    <time>2026-06-24T05:18:48Z</time>
   </trkpt>
   <trkpt lat="-3.1636740" lon="37.3640460">
    <ele>2944.8</ele>
    <time>2026-06-24T05:18:49Z</time>
   </trkpt>
   <trkpt lat="-3.1636790" lon="37.3640450">
    <ele>2944.6</ele>
    <time>2026-06-24T05:18:50Z</time>
   </trkpt>
   <trkpt lat="-3.1636820" lon="37.3640460">
    <ele>2944.5</ele>
    <time>2026-06-24T05:18:51Z</time>
   </trkpt>
   <trkpt lat="-3.1636850" lon="37.3640450">
    <ele>2944.4</ele>
    <time>2026-06-24T05:18:52Z</time>
   </trkpt>
   <trkpt lat="-3.1636890" lon="37.3640390">
    <ele>2944.2</ele>
    <time>2026-06-24T05:18:53Z</time>
   </trkpt>
   <trkpt lat="-3.1636920" lon="37.3640380">
    <ele>2944.1</ele>
    <time>2026-06-24T05:18:54Z</time>
   </trkpt>
   <trkpt lat="-3.1636970" lon="37.3640380">
    <ele>2943.9</ele>
    <time>2026-06-24T05:18:55Z</time>
   </trkpt>
   <trkpt lat="-3.1636990" lon="37.3640380">
    <ele>2943.9</ele>
    <time>2026-06-24T05:18:56Z</time>
   </trkpt>
   <trkpt lat="-3.1636990" lon="37.3640350">
    <ele>2943.8</ele>
    <time>2026-06-24T05:18:57Z</time>
   </trkpt>
   <trkpt lat="-3.1637010" lon="37.3640300">
    <ele>2943.6</ele>
    <time>2026-06-24T05:18:58Z</time>
   </trkpt>
   <trkpt lat="-3.1636990" lon="37.3640290">
    <ele>2943.6</ele>
    <time>2026-06-24T05:18:59Z</time>
   </trkpt>
   <trkpt lat="-3.1636990" lon="37.3640260">
    <ele>2943.5</ele>
    <time>2026-06-24T05:19:00Z</time>
   </trkpt>
   <trkpt lat="-3.1636960" lon="37.3640220">
    <ele>2943.3</ele>
    <time>2026-06-24T05:19:01Z</time>
   </trkpt>
   <trkpt lat="-3.1636940" lon="37.3640200">
    <ele>2943.2</ele>
    <time>2026-06-24T05:19:02Z</time>
   </trkpt>
   <trkpt lat="-3.1636930" lon="37.3640130">
    <ele>2943.0</ele>
    <time>2026-06-24T05:19:03Z</time>
   </trkpt>
   <trkpt lat="-3.1636990" lon="37.3640160">
    <ele>2942.8</ele>
    <time>2026-06-24T05:19:04Z</time>
   </trkpt>
   <trkpt lat="-3.1636960" lon="37.3640120">
    <ele>2942.7</ele>
    <time>2026-06-24T05:19:05Z</time>
   </trkpt>
   <trkpt lat="-3.1636950" lon="37.3640120">
    <ele>2942.7</ele>
    <time>2026-06-24T05:19:06Z</time>
   </trkpt>
   <trkpt lat="-3.1636920" lon="37.3640020">
    <ele>2942.4</ele>
    <time>2026-06-24T05:19:07Z</time>
   </trkpt>
   <trkpt lat="-3.1636950" lon="37.3640010">
    <ele>2942.3</ele>
    <time>2026-06-24T05:19:08Z</time>
   </trkpt>
   <trkpt lat="-3.1636940" lon="37.3639990">
    <ele>2942.2</ele>
    <time>2026-06-24T05:19:09Z</time>
   </trkpt>
   <trkpt lat="-3.1636980" lon="37.3639970">
    <ele>2942.1</ele>
    <time>2026-06-24T05:19:10Z</time>
   </trkpt>
   <trkpt lat="-3.1637020" lon="37.3639920">
    <ele>2942.0</ele>
    <time>2026-06-24T05:19:11Z</time>
   </trkpt>
   <trkpt lat="-3.1637070" lon="37.3639940">
    <ele>2941.8</ele>
    <time>2026-06-24T05:19:12Z</time>
   </trkpt>
   <trkpt lat="-3.1637120" lon="37.3639990">
    <ele>2941.6</ele>
    <time>2026-06-24T05:19:13Z</time>
   </trkpt>
   <trkpt lat="-3.1637110" lon="37.3640020">
    <ele>2941.5</ele>
    <time>2026-06-24T05:19:14Z</time>
   </trkpt>
   <trkpt lat="-3.1637150" lon="37.3640050">
    <ele>2941.4</ele>
    <time>2026-06-24T05:19:15Z</time>
   </trkpt>
   <trkpt lat="-3.1637210" lon="37.3640050">
    <ele>2941.3</ele>
    <time>2026-06-24T05:19:16Z</time>
   </trkpt>
   <trkpt lat="-3.1637260" lon="37.3640040">
    <ele>2941.1</ele>
    <time>2026-06-24T05:19:17Z</time>
   </trkpt>
   <trkpt lat="-3.1637270" lon="37.3640080">
    <ele>2941.0</ele>
    <time>2026-06-24T05:19:18Z</time>
   </trkpt>
   <trkpt lat="-3.1637270" lon="37.3640090">
    <ele>2941.0</ele>
    <time>2026-06-24T05:19:19Z</time>
   </trkpt>
   <trkpt lat="-3.1637240" lon="37.3640180">
    <ele>2940.8</ele>
    <time>2026-06-24T05:19:20Z</time>
   </trkpt>
   <trkpt lat="-3.1637310" lon="37.3640240">
    <ele>2940.6</ele>
    <time>2026-06-24T05:19:21Z</time>
   </trkpt>
   <trkpt lat="-3.1637340" lon="37.3640260">
    <ele>2940.5</ele>
    <time>2026-06-24T05:19:22Z</time>
   </trkpt>
   <trkpt lat="-3.1637360" lon="37.3640280">
    <ele>2940.4</ele>
    <time>2026-06-24T05:19:23Z</time>
   </trkpt>
   <trkpt lat="-3.1637410" lon="37.3640310">
    <ele>2940.3</ele>
    <time>2026-06-24T05:19:24Z</time>
   </trkpt>
   <trkpt lat="-3.1637490" lon="37.3640320">
    <ele>2940.1</ele>
    <time>2026-06-24T05:19:25Z</time>
   </trkpt>
   <trkpt lat="-3.1637550" lon="37.3640330">
    <ele>2940.0</ele>
    <time>2026-06-24T05:19:26Z</time>
   </trkpt>
   <trkpt lat="-3.1637590" lon="37.3640320">
    <ele>2939.9</ele>
    <time>2026-06-24T05:19:27Z</time>
   </trkpt>
   <trkpt lat="-3.1637670" lon="37.3640270">
    <ele>2939.7</ele>
    <time>2026-06-24T05:19:28Z</time>
   </trkpt>
   <trkpt lat="-3.1637690" lon="37.3640170">
    <ele>2939.5</ele>
    <time>2026-06-24T05:19:29Z</time>
   </trkpt>
   <trkpt lat="-3.1637820" lon="37.3640100">
    <ele>2939.2</ele>
    <time>2026-06-24T05:19:30Z</time>
   </trkpt>
   <trkpt lat="-3.1637910" lon="37.3640030">
    <ele>2939.0</ele>
    <time>2026-06-24T05:19:31Z</time>
   </trkpt>
   <trkpt lat="-3.1638010" lon="37.3639980">
    <ele>2938.8</ele>
    <time>2026-06-24T05:19:32Z</time>
   </trkpt>
   <trkpt lat="-3.1638060" lon="37.3639920">
    <ele>2938.7</ele>
    <time>2026-06-24T05:19:33Z</time>
   </trkpt>
   <trkpt lat="-3.1638120" lon="37.3639880">
    <ele>2938.5</ele>
    <time>2026-06-24T05:19:34Z</time>
   </trkpt>
   <trkpt lat="-3.1638140" lon="37.3639810">
    <ele>2938.4</ele>
    <time>2026-06-24T05:19:35Z</time>
   </trkpt>
   <trkpt lat="-3.1638190" lon="37.3639750">
    <ele>2938.3</ele>
    <time>2026-06-24T05:19:36Z</time>
   </trkpt>
   <trkpt lat="-3.1638230" lon="37.3639770">
    <ele>2938.2</ele>
    <time>2026-06-24T05:19:37Z</time>
   </trkpt>
   <trkpt lat="-3.1638220" lon="37.3639810">
    <ele>2938.1</ele>
    <time>2026-06-24T05:19:38Z</time>
   </trkpt>
   <trkpt lat="-3.1638290" lon="37.3639790">
    <ele>2938.0</ele>
    <time>2026-06-24T05:19:39Z</time>
   </trkpt>
   <trkpt lat="-3.1638280" lon="37.3639720">
    <ele>2937.9</ele>
    <time>2026-06-24T05:19:40Z</time>
   </trkpt>
   <trkpt lat="-3.1638320" lon="37.3639680">
    <ele>2937.8</ele>
    <time>2026-06-24T05:19:41Z</time>
   </trkpt>
   <trkpt lat="-3.1638360" lon="37.3639650">
    <ele>2937.7</ele>
    <time>2026-06-24T05:19:42Z</time>
   </trkpt>
   <trkpt lat="-3.1638450" lon="37.3639660">
    <ele>2937.6</ele>
    <time>2026-06-24T05:19:43Z</time>
   </trkpt>
   <trkpt lat="-3.1638520" lon="37.3639580">
    <ele>2937.5</ele>
    <time>2026-06-24T05:19:44Z</time>
   </trkpt>
   <trkpt lat="-3.1638550" lon="37.3639530">
    <ele>2937.4</ele>
    <time>2026-06-24T05:19:45Z</time>
   </trkpt>
   <trkpt lat="-3.1638590" lon="37.3639490">
    <ele>2937.3</ele>
    <time>2026-06-24T05:19:46Z</time>
   </trkpt>
   <trkpt lat="-3.1638590" lon="37.3639450">
    <ele>2937.2</ele>
    <time>2026-06-24T05:19:47Z</time>
   </trkpt>
   <trkpt lat="-3.1638710" lon="37.3639370">
    <ele>2937.1</ele>
    <time>2026-06-24T05:19:48Z</time>
   </trkpt>
   <trkpt lat="-3.1638740" lon="37.3639330">
    <ele>2937.0</ele>
    <time>2026-06-24T05:19:49Z</time>
   </trkpt>
   <trkpt lat="-3.1638850" lon="37.3639260">
    <ele>2936.8</ele>
    <time>2026-06-24T05:19:50Z</time>
   </trkpt>
   <trkpt lat="-3.1638900" lon="37.3639200">
    <ele>2936.7</ele>
    <time>2026-06-24T05:19:51Z</time>
   </trkpt>
   <trkpt lat="-3.1638940" lon="37.3639190">
    <ele>2936.7</ele>
    <time>2026-06-24T05:19:52Z</time>
   </trkpt>
   <trkpt lat="-3.1639010" lon="37.3639160">
    <ele>2936.6</ele>
    <time>2026-06-24T05:19:53Z</time>
   </trkpt>
   <trkpt lat="-3.1639050" lon="37.3639150">
    <ele>2936.5</ele>
    <time>2026-06-24T05:19:54Z</time>
   </trkpt>
   <trkpt lat="-3.1639040" lon="37.3639150">
    <ele>2936.5</ele>
    <time>2026-06-24T05:19:55Z</time>
   </trkpt>
   <trkpt lat="-3.1639110" lon="37.3639160">
    <ele>2936.4</ele>
    <time>2026-06-24T05:19:56Z</time>
   </trkpt>
   <trkpt lat="-3.1639140" lon="37.3639140">
    <ele>2936.4</ele>
    <time>2026-06-24T05:19:57Z</time>
   </trkpt>
   <trkpt lat="-3.1639200" lon="37.3639100">
    <ele>2936.3</ele>
    <time>2026-06-24T05:19:58Z</time>
   </trkpt>
   <trkpt lat="-3.1639300" lon="37.3639050">
    <ele>2936.2</ele>
    <time>2026-06-24T05:19:59Z</time>
   </trkpt>
   <trkpt lat="-3.1639330" lon="37.3639030">
    <ele>2936.1</ele>
    <time>2026-06-24T05:20:00Z</time>
   </trkpt>
   <trkpt lat="-3.1639350" lon="37.3639000">
    <ele>2936.1</ele>
    <time>2026-06-24T05:20:01Z</time>
   </trkpt>
   <trkpt lat="-3.1639440" lon="37.3638950">
    <ele>2935.9</ele>
    <time>2026-06-24T05:20:02Z</time>
   </trkpt>
   <trkpt lat="-3.1639510" lon="37.3638890">
    <ele>2935.8</ele>
    <time>2026-06-24T05:20:03Z</time>
   </trkpt>
   <trkpt lat="-3.1639530" lon="37.3638830">
    <ele>2935.8</ele>
    <time>2026-06-24T05:20:04Z</time>
   </trkpt>
   <trkpt lat="-3.1639650" lon="37.3638750">
    <ele>2935.6</ele>
    <time>2026-06-24T05:20:05Z</time>
   </trkpt>
   <trkpt lat="-3.1639680" lon="37.3638680">
    <ele>2935.5</ele>
    <time>2026-06-24T05:20:06Z</time>
   </trkpt>
   <trkpt lat="-3.1639740" lon="37.3638600">
    <ele>2935.4</ele>
    <time>2026-06-24T05:20:07Z</time>
   </trkpt>
   <trkpt lat="-3.1639820" lon="37.3638550">
    <ele>2935.2</ele>
    <time>2026-06-24T05:20:08Z</time>
   </trkpt>
   <trkpt lat="-3.1639940" lon="37.3638420">
    <ele>2935.0</ele>
    <time>2026-06-24T05:20:09Z</time>
   </trkpt>
   <trkpt lat="-3.1640040" lon="37.3638360">
    <ele>2934.8</ele>
    <time>2026-06-24T05:20:10Z</time>
   </trkpt>
   <trkpt lat="-3.1640160" lon="37.3638310">
    <ele>2934.7</ele>
    <time>2026-06-24T05:20:11Z</time>
   </trkpt>
   <trkpt lat="-3.1640260" lon="37.3638280">
    <ele>2934.5</ele>
    <time>2026-06-24T05:20:12Z</time>
   </trkpt>
   <trkpt lat="-3.1640410" lon="37.3638250">
    <ele>2934.3</ele>
    <time>2026-06-24T05:20:13Z</time>
   </trkpt>
   <trkpt lat="-3.1640510" lon="37.3638210">
    <ele>2934.1</ele>
    <time>2026-06-24T05:20:14Z</time>
   </trkpt>
   <trkpt lat="-3.1640510" lon="37.3638180">
    <ele>2934.1</ele>
    <time>2026-06-24T05:20:15Z</time>
   </trkpt>
   <trkpt lat="-3.1640530" lon="37.3638140">
    <ele>2934.0</ele>
    <time>2026-06-24T05:20:16Z</time>
   </trkpt>
   <trkpt lat="-3.1640620" lon="37.3638100">
    <ele>2933.8</ele>
    <time>2026-06-24T05:20:17Z</time>
   </trkpt>
   <trkpt lat="-3.1640650" lon="37.3638090">
    <ele>2933.8</ele>
    <time>2026-06-24T05:20:18Z</time>
   </trkpt>
   <trkpt lat="-3.1640690" lon="37.3638040">
    <ele>2933.7</ele>
    <time>2026-06-24T05:20:19Z</time>
   </trkpt>
   <trkpt lat="-3.1640780" lon="37.3637970">
    <ele>2933.5</ele>
    <time>2026-06-24T05:20:20Z</time>
   </trkpt>
   <trkpt lat="-3.1640870" lon="37.3637930">
    <ele>2933.3</ele>
    <time>2026-06-24T05:20:21Z</time>
   </trkpt>
   <trkpt lat="-3.1640920" lon="37.3637880">
    <ele>2933.2</ele>
    <time>2026-06-24T05:20:22Z</time>
   </trkpt>
   <trkpt lat="-3.1640950" lon="37.3637850">
    <ele>2933.1</ele>
    <time>2026-06-24T05:20:23Z</time>
   </trkpt>
   <trkpt lat="-3.1641040" lon="37.3637850">
    <ele>2933.0</ele>
    <time>2026-06-24T05:20:24Z</time>
   </trkpt>
   <trkpt lat="-3.1641030" lon="37.3637870">
    <ele>2933.0</ele>
    <time>2026-06-24T05:20:25Z</time>
   </trkpt>
   <trkpt lat="-3.1641160" lon="37.3637750">
    <ele>2932.7</ele>
    <time>2026-06-24T05:20:26Z</time>
   </trkpt>
   <trkpt lat="-3.1641190" lon="37.3637750">
    <ele>2932.6</ele>
    <time>2026-06-24T05:20:27Z</time>
   </trkpt>
   <trkpt lat="-3.1641210" lon="37.3637700">
    <ele>2932.5</ele>
    <time>2026-06-24T05:20:28Z</time>
   </trkpt>
   <trkpt lat="-3.1641220" lon="37.3637710">
    <ele>2932.5</ele>
    <time>2026-06-24T05:20:29Z</time>
   </trkpt>
   <trkpt lat="-3.1641180" lon="37.3637740">
    <ele>2932.4</ele>
    <time>2026-06-24T05:20:30Z</time>
   </trkpt>
   <trkpt lat="-3.1641160" lon="37.3637770">
    <ele>2932.4</ele>
    <time>2026-06-24T05:20:31Z</time>
   </trkpt>
   <trkpt lat="-3.1641180" lon="37.3637720">
    <ele>2932.3</ele>
    <time>2026-06-24T05:20:32Z</time>
   </trkpt>
   <trkpt lat="-3.1641230" lon="37.3637680">
    <ele>2932.2</ele>
    <time>2026-06-24T05:20:33Z</time>
   </trkpt>
   <trkpt lat="-3.1641320" lon="37.3637670">
    <ele>2932.1</ele>
    <time>2026-06-24T05:20:34Z</time>
   </trkpt>
   <trkpt lat="-3.1641370" lon="37.3637680">
    <ele>2932.0</ele>
    <time>2026-06-24T05:20:35Z</time>
   </trkpt>
   <trkpt lat="-3.1641390" lon="37.3637700">
    <ele>2932.0</ele>
    <time>2026-06-24T05:20:36Z</time>
   </trkpt>
   <trkpt lat="-3.1641440" lon="37.3637700">
    <ele>2931.9</ele>
    <time>2026-06-24T05:20:37Z</time>
   </trkpt>
   <trkpt lat="-3.1641470" lon="37.3637740">
    <ele>2931.8</ele>
    <time>2026-06-24T05:20:38Z</time>
   </trkpt>
   <trkpt lat="-3.1641420" lon="37.3637850">
    <ele>2931.6</ele>
    <time>2026-06-24T05:20:39Z</time>
   </trkpt>
   <trkpt lat="-3.1641530" lon="37.3637830">
    <ele>2931.5</ele>
    <time>2026-06-24T05:20:40Z</time>
   </trkpt>
   <trkpt lat="-3.1641610" lon="37.3637830">
    <ele>2931.4</ele>
    <time>2026-06-24T05:20:41Z</time>
   </trkpt>
   <trkpt lat="-3.1641660" lon="37.3637800">
    <ele>2931.3</ele>
    <time>2026-06-24T05:20:42Z</time>
   </trkpt>
   <trkpt lat="-3.1641750" lon="37.3637740">
    <ele>2931.2</ele>
    <time>2026-06-24T05:20:43Z</time>
   </trkpt>
   <trkpt lat="-3.1641750" lon="37.3637670">
    <ele>2931.1</ele>
    <time>2026-06-24T05:20:44Z</time>
   </trkpt>
   <trkpt lat="-3.1641790" lon="37.3637620">
    <ele>2931.1</ele>
    <time>2026-06-24T05:20:45Z</time>
   </trkpt>
   <trkpt lat="-3.1641850" lon="37.3637630">
    <ele>2931.0</ele>
    <time>2026-06-24T05:20:46Z</time>
   </trkpt>
   <trkpt lat="-3.1641900" lon="37.3637770">
    <ele>2930.9</ele>
    <time>2026-06-24T05:20:47Z</time>
   </trkpt>
   <trkpt lat="-3.1641970" lon="37.3637760">
    <ele>2930.8</ele>
    <time>2026-06-24T05:20:48Z</time>
   </trkpt>
   <trkpt lat="-3.1642010" lon="37.3637690">
    <ele>2930.7</ele>
    <time>2026-06-24T05:20:49Z</time>
   </trkpt>
   <trkpt lat="-3.1642090" lon="37.3637610">
    <ele>2930.6</ele>
    <time>2026-06-24T05:20:50Z</time>
   </trkpt>
   <trkpt lat="-3.1642170" lon="37.3637580">
    <ele>2930.5</ele>
    <time>2026-06-24T05:20:51Z</time>
   </trkpt>
   <trkpt lat="-3.1642150" lon="37.3637640">
    <ele>2930.5</ele>
    <time>2026-06-24T05:20:52Z</time>
   </trkpt>
   <trkpt lat="-3.1642190" lon="37.3637650">
    <ele>2930.5</ele>
    <time>2026-06-24T05:20:53Z</time>
   </trkpt>
   <trkpt lat="-3.1642230" lon="37.3637610">
    <ele>2930.4</ele>
    <time>2026-06-24T05:20:54Z</time>
   </trkpt>
   <trkpt lat="-3.1642330" lon="37.3637500">
    <ele>2930.3</ele>
    <time>2026-06-24T05:20:55Z</time>
   </trkpt>
   <trkpt lat="-3.1642380" lon="37.3637430">
    <ele>2930.2</ele>
    <time>2026-06-24T05:20:56Z</time>
   </trkpt>
   <trkpt lat="-3.1642440" lon="37.3637340">
    <ele>2930.1</ele>
    <time>2026-06-24T05:20:57Z</time>
   </trkpt>
   <trkpt lat="-3.1642540" lon="37.3637210">
    <ele>2930.0</ele>
    <time>2026-06-24T05:20:58Z</time>
   </trkpt>
   <trkpt lat="-3.1642600" lon="37.3637140">
    <ele>2929.9</ele>
    <time>2026-06-24T05:20:59Z</time>
   </trkpt>
   <trkpt lat="-3.1642690" lon="37.3637040">
    <ele>2929.8</ele>
    <time>2026-06-24T05:21:00Z</time>
   </trkpt>
   <trkpt lat="-3.1642800" lon="37.3636960">
    <ele>2929.7</ele>
    <time>2026-06-24T05:21:01Z</time>
   </trkpt>
   <trkpt lat="-3.1642920" lon="37.3636850">
    <ele>2929.5</ele>
    <time>2026-06-24T05:21:02Z</time>
   </trkpt>
   <trkpt lat="-3.1642980" lon="37.3636730">
    <ele>2929.4</ele>
    <time>2026-06-24T05:21:03Z</time>
   </trkpt>
   <trkpt lat="-3.1643010" lon="37.3636650">
    <ele>2929.3</ele>
    <time>2026-06-24T05:21:04Z</time>
   </trkpt>
   <trkpt lat="-3.1643070" lon="37.3636570">
    <ele>2929.2</ele>
    <time>2026-06-24T05:21:05Z</time>
   </trkpt>
   <trkpt lat="-3.1643130" lon="37.3636530">
    <ele>2929.1</ele>
    <time>2026-06-24T05:21:06Z</time>
   </trkpt>
   <trkpt lat="-3.1643200" lon="37.3636470">
    <ele>2929.0</ele>
    <time>2026-06-24T05:21:07Z</time>
   </trkpt>
   <trkpt lat="-3.1643250" lon="37.3636390">
    <ele>2928.8</ele>
    <time>2026-06-24T05:21:08Z</time>
   </trkpt>
   <trkpt lat="-3.1643360" lon="37.3636280">
    <ele>2928.6</ele>
    <time>2026-06-24T05:21:09Z</time>
   </trkpt>
   <trkpt lat="-3.1643460" lon="37.3636230">
    <ele>2928.5</ele>
    <time>2026-06-24T05:21:10Z</time>
   </trkpt>
   <trkpt lat="-3.1643540" lon="37.3636170">
    <ele>2928.3</ele>
    <time>2026-06-24T05:21:11Z</time>
   </trkpt>
   <trkpt lat="-3.1643670" lon="37.3636040">
    <ele>2928.1</ele>
    <time>2026-06-24T05:21:12Z</time>
   </trkpt>
   <trkpt lat="-3.1643790" lon="37.3635990">
    <ele>2927.9</ele>
    <time>2026-06-24T05:21:13Z</time>
   </trkpt>
   <trkpt lat="-3.1643840" lon="37.3635890">
    <ele>2927.7</ele>
    <time>2026-06-24T05:21:14Z</time>
   </trkpt>
   <trkpt lat="-3.1643880" lon="37.3635860">
    <ele>2927.6</ele>
    <time>2026-06-24T05:21:15Z</time>
   </trkpt>
   <trkpt lat="-3.1643930" lon="37.3635830">
    <ele>2927.5</ele>
    <time>2026-06-24T05:21:16Z</time>
   </trkpt>
   <trkpt lat="-3.1643980" lon="37.3635790">
    <ele>2927.4</ele>
    <time>2026-06-24T05:21:17Z</time>
   </trkpt>
   <trkpt lat="-3.1644060" lon="37.3635690">
    <ele>2927.2</ele>
    <time>2026-06-24T05:21:18Z</time>
   </trkpt>
   <trkpt lat="-3.1644110" lon="37.3635620">
    <ele>2927.1</ele>
    <time>2026-06-24T05:21:19Z</time>
   </trkpt>
   <trkpt lat="-3.1644120" lon="37.3635550">
    <ele>2927.0</ele>
    <time>2026-06-24T05:21:20Z</time>
   </trkpt>
   <trkpt lat="-3.1644130" lon="37.3635490">
    <ele>2926.9</ele>
    <time>2026-06-24T05:21:21Z</time>
   </trkpt>
   <trkpt lat="-3.1644130" lon="37.3635480">
    <ele>2926.8</ele>
    <time>2026-06-24T05:21:22Z</time>
   </trkpt>
   <trkpt lat="-3.1644180" lon="37.3635430">
    <ele>2926.7</ele>
    <time>2026-06-24T05:21:23Z</time>
   </trkpt>
   <trkpt lat="-3.1644250" lon="37.3635360">
    <ele>2926.6</ele>
    <time>2026-06-24T05:21:24Z</time>
   </trkpt>
   <trkpt lat="-3.1644200" lon="37.3635260">
    <ele>2926.4</ele>
    <time>2026-06-24T05:21:25Z</time>
   </trkpt>
   <trkpt lat="-3.1644180" lon="37.3635210">
    <ele>2926.3</ele>
    <time>2026-06-24T05:21:26Z</time>
   </trkpt>
   <trkpt lat="-3.1644180" lon="37.3635220">
    <ele>2926.3</ele>
    <time>2026-06-24T05:21:27Z</time>
   </trkpt>
   <trkpt lat="-3.1644190" lon="37.3635160">
    <ele>2926.2</ele>
    <time>2026-06-24T05:21:28Z</time>
   </trkpt>
   <trkpt lat="-3.1644180" lon="37.3635160">
    <ele>2926.2</ele>
    <time>2026-06-24T05:21:29Z</time>
   </trkpt>
   <trkpt lat="-3.1644200" lon="37.3635170">
    <ele>2926.1</ele>
    <time>2026-06-24T05:21:30Z</time>
   </trkpt>
   <trkpt lat="-3.1644230" lon="37.3635190">
    <ele>2926.1</ele>
    <time>2026-06-24T05:21:31Z</time>
   </trkpt>
   <trkpt lat="-3.1644270" lon="37.3635210">
    <ele>2926.0</ele>
    <time>2026-06-24T05:21:32Z</time>
   </trkpt>
   <trkpt lat="-3.1644330" lon="37.3635210">
    <ele>2925.9</ele>
    <time>2026-06-24T05:21:33Z</time>
   </trkpt>
   <trkpt lat="-3.1644350" lon="37.3635230">
    <ele>2925.8</ele>
    <time>2026-06-24T05:21:34Z</time>
   </trkpt>
   <trkpt lat="-3.1644390" lon="37.3635100">
    <ele>2925.6</ele>
    <time>2026-06-24T05:21:35Z</time>
   </trkpt>
   <trkpt lat="-3.1644430" lon="37.3634990">
    <ele>2925.4</ele>
    <time>2026-06-24T05:21:36Z</time>
   </trkpt>
   <trkpt lat="-3.1644480" lon="37.3634900">
    <ele>2925.2</ele>
    <time>2026-06-24T05:21:37Z</time>
   </trkpt>
   <trkpt lat="-3.1644550" lon="37.3634810">
    <ele>2925.1</ele>
    <time>2026-06-24T05:21:38Z</time>
   </trkpt>
   <trkpt lat="-3.1644510" lon="37.3634880">
    <ele>2924.9</ele>
    <time>2026-06-24T05:21:39Z</time>
   </trkpt>
   <trkpt lat="-3.1644520" lon="37.3634800">
    <ele>2924.8</ele>
    <time>2026-06-24T05:21:40Z</time>
   </trkpt>
   <trkpt lat="-3.1644480" lon="37.3634710">
    <ele>2924.6</ele>
    <time>2026-06-24T05:21:41Z</time>
   </trkpt>
   <trkpt lat="-3.1644460" lon="37.3634650">
    <ele>2924.5</ele>
    <time>2026-06-24T05:21:42Z</time>
   </trkpt>
   <trkpt lat="-3.1644470" lon="37.3634570">
    <ele>2924.4</ele>
    <time>2026-06-24T05:21:43Z</time>
   </trkpt>
   <trkpt lat="-3.1644520" lon="37.3634430">
    <ele>2924.2</ele>
    <time>2026-06-24T05:21:44Z</time>
   </trkpt>
   <trkpt lat="-3.1644480" lon="37.3634410">
    <ele>2924.1</ele>
    <time>2026-06-24T05:21:45Z</time>
   </trkpt>
   <trkpt lat="-3.1644510" lon="37.3634310">
    <ele>2923.9</ele>
    <time>2026-06-24T05:21:46Z</time>
   </trkpt>
   <trkpt lat="-3.1644570" lon="37.3634260">
    <ele>2923.8</ele>
    <time>2026-06-24T05:21:47Z</time>
   </trkpt>
   <trkpt lat="-3.1644620" lon="37.3634120">
    <ele>2923.5</ele>
    <time>2026-06-24T05:21:48Z</time>
   </trkpt>
   <trkpt lat="-3.1644680" lon="37.3633950">
    <ele>2923.2</ele>
    <time>2026-06-24T05:21:49Z</time>
   </trkpt>
   <trkpt lat="-3.1644710" lon="37.3633850">
    <ele>2923.0</ele>
    <time>2026-06-24T05:21:50Z</time>
   </trkpt>
   <trkpt lat="-3.1644710" lon="37.3633850">
    <ele>2923.0</ele>
    <time>2026-06-24T05:21:51Z</time>
   </trkpt>
   <trkpt lat="-3.1644770" lon="37.3633740">
    <ele>2922.8</ele>
    <time>2026-06-24T05:21:52Z</time>
   </trkpt>
   <trkpt lat="-3.1644800" lon="37.3633730">
    <ele>2922.7</ele>
    <time>2026-06-24T05:21:53Z</time>
   </trkpt>
   <trkpt lat="-3.1644860" lon="37.3633640">
    <ele>2922.5</ele>
    <time>2026-06-24T05:21:54Z</time>
   </trkpt>
   <trkpt lat="-3.1644930" lon="37.3633600">
    <ele>2922.4</ele>
    <time>2026-06-24T05:21:55Z</time>
   </trkpt>
   <trkpt lat="-3.1645050" lon="37.3633550">
    <ele>2922.1</ele>
    <time>2026-06-24T05:21:56Z</time>
   </trkpt>
   <trkpt lat="-3.1645030" lon="37.3633560">
    <ele>2922.1</ele>
    <time>2026-06-24T05:21:57Z</time>
   </trkpt>
   <trkpt lat="-3.1645090" lon="37.3633550">
    <ele>2922.0</ele>
    <time>2026-06-24T05:21:58Z</time>
   </trkpt>
   <trkpt lat="-3.1645110" lon="37.3633510">
    <ele>2921.9</ele>
    <time>2026-06-24T05:21:59Z</time>
   </trkpt>
   <trkpt lat="-3.1645130" lon="37.3633520">
    <ele>2921.9</ele>
    <time>2026-06-24T05:22:00Z</time>
   </trkpt>
   <trkpt lat="-3.1645190" lon="37.3633500">
    <ele>2921.7</ele>
    <time>2026-06-24T05:22:01Z</time>
   </trkpt>
   <trkpt lat="-3.1645280" lon="37.3633460">
    <ele>2921.6</ele>
    <time>2026-06-24T05:22:02Z</time>
   </trkpt>
   <trkpt lat="-3.1645290" lon="37.3633460">
    <ele>2921.6</ele>
    <time>2026-06-24T05:22:03Z</time>
   </trkpt>
   <trkpt lat="-3.1645290" lon="37.3633460">
    <ele>2921.6</ele>
    <time>2026-06-24T05:22:04Z</time>
   </trkpt>
   <trkpt lat="-3.1645320" lon="37.3633430">
    <ele>2921.5</ele>
    <time>2026-06-24T05:22:05Z</time>
   </trkpt>
   <trkpt lat="-3.1645370" lon="37.3633450">
    <ele>2921.4</ele>
    <time>2026-06-24T05:22:06Z</time>
   </trkpt>
   <trkpt lat="-3.1645430" lon="37.3633430">
    <ele>2921.3</ele>
    <time>2026-06-24T05:22:07Z</time>
   </trkpt>
   <trkpt lat="-3.1645480" lon="37.3633430">
    <ele>2921.2</ele>
    <time>2026-06-24T05:22:08Z</time>
   </trkpt>
   <trkpt lat="-3.1645550" lon="37.3633440">
    <ele>2921.1</ele>
    <time>2026-06-24T05:22:09Z</time>
   </trkpt>
   <trkpt lat="-3.1645500" lon="37.3633460">
    <ele>2921.0</ele>
    <time>2026-06-24T05:22:10Z</time>
   </trkpt>
   <trkpt lat="-3.1645540" lon="37.3633460">
    <ele>2920.9</ele>
    <time>2026-06-24T05:22:11Z</time>
   </trkpt>
   <trkpt lat="-3.1645600" lon="37.3633500">
    <ele>2920.8</ele>
    <time>2026-06-24T05:22:12Z</time>
   </trkpt>
   <trkpt lat="-3.1645630" lon="37.3633460">
    <ele>2920.7</ele>
    <time>2026-06-24T05:22:13Z</time>
   </trkpt>
   <trkpt lat="-3.1645700" lon="37.3633370">
    <ele>2920.5</ele>
    <time>2026-06-24T05:22:14Z</time>
   </trkpt>
   <trkpt lat="-3.1645760" lon="37.3633290">
    <ele>2920.3</ele>
    <time>2026-06-24T05:22:15Z</time>
   </trkpt>
   <trkpt lat="-3.1645850" lon="37.3633220">
    <ele>2920.1</ele>
    <time>2026-06-24T05:22:16Z</time>
   </trkpt>
   <trkpt lat="-3.1645910" lon="37.3633200">
    <ele>2920.0</ele>
    <time>2026-06-24T05:22:17Z</time>
   </trkpt>
   <trkpt lat="-3.1645950" lon="37.3633150">
    <ele>2919.8</ele>
    <time>2026-06-24T05:22:18Z</time>
   </trkpt>
   <trkpt lat="-3.1646010" lon="37.3633110">
    <ele>2919.7</ele>
    <time>2026-06-24T05:22:19Z</time>
   </trkpt>
   <trkpt lat="-3.1646010" lon="37.3633150">
    <ele>2919.6</ele>
    <time>2026-06-24T05:22:20Z</time>
   </trkpt>
   <trkpt lat="-3.1646080" lon="37.3633090">
    <ele>2919.5</ele>
    <time>2026-06-24T05:22:21Z</time>
   </trkpt>
   <trkpt lat="-3.1646140" lon="37.3633050">
    <ele>2919.3</ele>
    <time>2026-06-24T05:22:22Z</time>
   </trkpt>
   <trkpt lat="-3.1646170" lon="37.3633040">
    <ele>2919.3</ele>
    <time>2026-06-24T05:22:23Z</time>
   </trkpt>
   <trkpt lat="-3.1646230" lon="37.3633020">
    <ele>2919.2</ele>
    <time>2026-06-24T05:22:24Z</time>
   </trkpt>
   <trkpt lat="-3.1646230" lon="37.3633020">
    <ele>2919.2</ele>
    <time>2026-06-24T05:22:25Z</time>
   </trkpt>
   <trkpt lat="-3.1646290" lon="37.3632980">
    <ele>2919.0</ele>
    <time>2026-06-24T05:22:26Z</time>
   </trkpt>
   <trkpt lat="-3.1646330" lon="37.3632960">
    <ele>2919.0</ele>
    <time>2026-06-24T05:22:27Z</time>
   </trkpt>
   <trkpt lat="-3.1646430" lon="37.3632870">
    <ele>2918.7</ele>
    <time>2026-06-24T05:22:28Z</time>
   </trkpt>
   <trkpt lat="-3.1646490" lon="37.3632800">
    <ele>2918.6</ele>
    <time>2026-06-24T05:22:29Z</time>
   </trkpt>
   <trkpt lat="-3.1646580" lon="37.3632770">
    <ele>2918.4</ele>
    <time>2026-06-24T05:22:30Z</time>
   </trkpt>
   <trkpt lat="-3.1646550" lon="37.3632800">
    <ele>2918.3</ele>
    <time>2026-06-24T05:22:31Z</time>
   </trkpt>
   <trkpt lat="-3.1646610" lon="37.3632800">
    <ele>2918.2</ele>
    <time>2026-06-24T05:22:32Z</time>
   </trkpt>
   <trkpt lat="-3.1646710" lon="37.3632770">
    <ele>2918.0</ele>
    <time>2026-06-24T05:22:33Z</time>
   </trkpt>
   <trkpt lat="-3.1646770" lon="37.3632750">
    <ele>2917.9</ele>
    <time>2026-06-24T05:22:34Z</time>
   </trkpt>
   <trkpt lat="-3.1646880" lon="37.3632690">
    <ele>2917.7</ele>
    <time>2026-06-24T05:22:35Z</time>
   </trkpt>
   <trkpt lat="-3.1646910" lon="37.3632670">
    <ele>2917.6</ele>
    <time>2026-06-24T05:22:36Z</time>
   </trkpt>
   <trkpt lat="-3.1646970" lon="37.3632640">
    <ele>2917.5</ele>
    <time>2026-06-24T05:22:37Z</time>
   </trkpt>
   <trkpt lat="-3.1647020" lon="37.3632620">
    <ele>2917.4</ele>
    <time>2026-06-24T05:22:38Z</time>
   </trkpt>
   <trkpt lat="-3.1647050" lon="37.3632610">
    <ele>2917.3</ele>
    <time>2026-06-24T05:22:39Z</time>
   </trkpt>
   <trkpt lat="-3.1647160" lon="37.3632580">
    <ele>2917.1</ele>
    <time>2026-06-24T05:22:40Z</time>
   </trkpt>
   <trkpt lat="-3.1647220" lon="37.3632520">
    <ele>2917.0</ele>
    <time>2026-06-24T05:22:41Z</time>
   </trkpt>
   <trkpt lat="-3.1647270" lon="37.3632540">
    <ele>2916.9</ele>
    <time>2026-06-24T05:22:42Z</time>
   </trkpt>
   <trkpt lat="-3.1647310" lon="37.3632500">
    <ele>2916.8</ele>
    <time>2026-06-24T05:22:43Z</time>
   </trkpt>
   <trkpt lat="-3.1647360" lon="37.3632430">
    <ele>2916.6</ele>
    <time>2026-06-24T05:22:44Z</time>
   </trkpt>
   <trkpt lat="-3.1647450" lon="37.3632380">
    <ele>2916.4</ele>
    <time>2026-06-24T05:22:45Z</time>
   </trkpt>
   <trkpt lat="-3.1647510" lon="37.3632270">
    <ele>2916.2</ele>
    <time>2026-06-24T05:22:46Z</time>
   </trkpt>
   <trkpt lat="-3.1647620" lon="37.3632140">
    <ele>2915.9</ele>
    <time>2026-06-24T05:22:47Z</time>
   </trkpt>
   <trkpt lat="-3.1647700" lon="37.3632090">
    <ele>2915.7</ele>
    <time>2026-06-24T05:22:48Z</time>
   </trkpt>
   <trkpt lat="-3.1647780" lon="37.3632040">
    <ele>2915.6</ele>
    <time>2026-06-24T05:22:49Z</time>
   </trkpt>
   <trkpt lat="-3.1647810" lon="37.3631920">
    <ele>2915.3</ele>
    <time>2026-06-24T05:22:50Z</time>
   </trkpt>
   <trkpt lat="-3.1647870" lon="37.3631880">
    <ele>2915.2</ele>
    <time>2026-06-24T05:22:51Z</time>
   </trkpt>
   <trkpt lat="-3.1647960" lon="37.3631780">
    <ele>2915.0</ele>
    <time>2026-06-24T05:22:52Z</time>
   </trkpt>
   <trkpt lat="-3.1648020" lon="37.3631780">
    <ele>2914.9</ele>
    <time>2026-06-24T05:22:53Z</time>
   </trkpt>
   <trkpt lat="-3.1648080" lon="37.3631770">
    <ele>2914.8</ele>
    <time>2026-06-24T05:22:54Z</time>
   </trkpt>
   <trkpt lat="-3.1648070" lon="37.3631790">
    <ele>2914.7</ele>
    <time>2026-06-24T05:22:55Z</time>
   </trkpt>
   <trkpt lat="-3.1648090" lon="37.3631810">
    <ele>2914.7</ele>
    <time>2026-06-24T05:22:56Z</time>
   </trkpt>
   <trkpt lat="-3.1648120" lon="37.3631800">
    <ele>2914.6</ele>
    <time>2026-06-24T05:22:57Z</time>
   </trkpt>
   <trkpt lat="-3.1648180" lon="37.3631800">
    <ele>2914.5</ele>
    <time>2026-06-24T05:22:58Z</time>
   </trkpt>
   <trkpt lat="-3.1648300" lon="37.3631690">
    <ele>2914.3</ele>
    <time>2026-06-24T05:22:59Z</time>
   </trkpt>
   <trkpt lat="-3.1648360" lon="37.3631580">
    <ele>2914.1</ele>
    <time>2026-06-24T05:23:00Z</time>
   </trkpt>
   <trkpt lat="-3.1648390" lon="37.3631540">
    <ele>2914.0</ele>
    <time>2026-06-24T05:23:01Z</time>
   </trkpt>
   <trkpt lat="-3.1648410" lon="37.3631480">
    <ele>2913.9</ele>
    <time>2026-06-24T05:23:02Z</time>
   </trkpt>
   <trkpt lat="-3.1648440" lon="37.3631450">
    <ele>2913.8</ele>
    <time>2026-06-24T05:23:03Z</time>
   </trkpt>
   <trkpt lat="-3.1648540" lon="37.3631360">
    <ele>2913.6</ele>
    <time>2026-06-24T05:23:04Z</time>
   </trkpt>
   <trkpt lat="-3.1648610" lon="37.3631310">
    <ele>2913.5</ele>
    <time>2026-06-24T05:23:05Z</time>
   </trkpt>
   <trkpt lat="-3.1648670" lon="37.3631230">
    <ele>2913.3</ele>
    <time>2026-06-24T05:23:06Z</time>
   </trkpt>
   <trkpt lat="-3.1648700" lon="37.3631200">
    <ele>2913.3</ele>
    <time>2026-06-24T05:23:07Z</time>
   </trkpt>
   <trkpt lat="-3.1648700" lon="37.3631190">
    <ele>2913.3</ele>
    <time>2026-06-24T05:23:08Z</time>
   </trkpt>
   <trkpt lat="-3.1648720" lon="37.3631190">
    <ele>2913.2</ele>
    <time>2026-06-24T05:23:09Z</time>
   </trkpt>
   <trkpt lat="-3.1648640" lon="37.3631150">
    <ele>2913.1</ele>
    <time>2026-06-24T05:23:10Z</time>
   </trkpt>
   <trkpt lat="-3.1648720" lon="37.3631060">
    <ele>2912.9</ele>
    <time>2026-06-24T05:23:11Z</time>
   </trkpt>
   <trkpt lat="-3.1648770" lon="37.3631050">
    <ele>2912.9</ele>
    <time>2026-06-24T05:23:12Z</time>
   </trkpt>
   <trkpt lat="-3.1648830" lon="37.3630990">
    <ele>2912.7</ele>
    <time>2026-06-24T05:23:13Z</time>
   </trkpt>
   <trkpt lat="-3.1648930" lon="37.3630910">
    <ele>2912.6</ele>
    <time>2026-06-24T05:23:14Z</time>
   </trkpt>
   <trkpt lat="-3.1649000" lon="37.3630850">
    <ele>2912.4</ele>
    <time>2026-06-24T05:23:15Z</time>
   </trkpt>
   <trkpt lat="-3.1649040" lon="37.3630860">
    <ele>2912.4</ele>
    <time>2026-06-24T05:23:16Z</time>
   </trkpt>
   <trkpt lat="-3.1649100" lon="37.3630850">
    <ele>2912.3</ele>
    <time>2026-06-24T05:23:17Z</time>
   </trkpt>
   <trkpt lat="-3.1649160" lon="37.3630820">
    <ele>2912.2</ele>
    <time>2026-06-24T05:23:18Z</time>
   </trkpt>
   <trkpt lat="-3.1649240" lon="37.3630730">
    <ele>2912.1</ele>
    <time>2026-06-24T05:23:19Z</time>
   </trkpt>
   <trkpt lat="-3.1649260" lon="37.3630720">
    <ele>2912.1</ele>
    <time>2026-06-24T05:23:20Z</time>
   </trkpt>
   <trkpt lat="-3.1649270" lon="37.3630670">
    <ele>2912.0</ele>
    <time>2026-06-24T05:23:21Z</time>
   </trkpt>
   <trkpt lat="-3.1649290" lon="37.3630630">
    <ele>2911.9</ele>
    <time>2026-06-24T05:23:22Z</time>
   </trkpt>
   <trkpt lat="-3.1649350" lon="37.3630590">
    <ele>2911.8</ele>
    <time>2026-06-24T05:23:23Z</time>
   </trkpt>
   <trkpt lat="-3.1649450" lon="37.3630460">
    <ele>2911.7</ele>
    <time>2026-06-24T05:23:24Z</time>
   </trkpt>
   <trkpt lat="-3.1649500" lon="37.3630360">
    <ele>2911.6</ele>
    <time>2026-06-24T05:23:25Z</time>
   </trkpt>
   <trkpt lat="-3.1649530" lon="37.3630330">
    <ele>2911.5</ele>
    <time>2026-06-24T05:23:26Z</time>
   </trkpt>
   <trkpt lat="-3.1649490" lon="37.3630320">
    <ele>2911.5</ele>
    <time>2026-06-24T05:23:27Z</time>
   </trkpt>
   <trkpt lat="-3.1649560" lon="37.3630230">
    <ele>2911.3</ele>
    <time>2026-06-24T05:23:28Z</time>
   </trkpt>
   <trkpt lat="-3.1649590" lon="37.3630120">
    <ele>2911.2</ele>
    <time>2026-06-24T05:23:29Z</time>
   </trkpt>
   <trkpt lat="-3.1649600" lon="37.3630030">
    <ele>2911.2</ele>
    <time>2026-06-24T05:23:30Z</time>
   </trkpt>
   <trkpt lat="-3.1649610" lon="37.3629940">
    <ele>2911.1</ele>
    <time>2026-06-24T05:23:31Z</time>
   </trkpt>
   <trkpt lat="-3.1649640" lon="37.3629810">
    <ele>2911.0</ele>
    <time>2026-06-24T05:23:32Z</time>
   </trkpt>
   <trkpt lat="-3.1649710" lon="37.3629670">
    <ele>2910.8</ele>
    <time>2026-06-24T05:23:33Z</time>
   </trkpt>
   <trkpt lat="-3.1649740" lon="37.3629610">
    <ele>2910.8</ele>
    <time>2026-06-24T05:23:34Z</time>
   </trkpt>
   <trkpt lat="-3.1649760" lon="37.3629600">
    <ele>2910.8</ele>
    <time>2026-06-24T05:23:35Z</time>
   </trkpt>
   <trkpt lat="-3.1649820" lon="37.3629510">
    <ele>2910.7</ele>
    <time>2026-06-24T05:23:36Z</time>
   </trkpt>
   <trkpt lat="-3.1649820" lon="37.3629460">
    <ele>2910.7</ele>
    <time>2026-06-24T05:23:37Z</time>
   </trkpt>
   <trkpt lat="-3.1649840" lon="37.3629380">
    <ele>2910.6</ele>
    <time>2026-06-24T05:23:38Z</time>
   </trkpt>
   <trkpt lat="-3.1649840" lon="37.3629250">
    <ele>2910.5</ele>
    <time>2026-06-24T05:23:39Z</time>
   </trkpt>
   <trkpt lat="-3.1649850" lon="37.3629150">
    <ele>2910.5</ele>
    <time>2026-06-24T05:23:40Z</time>
   </trkpt>
   <trkpt lat="-3.1649850" lon="37.3629090">
    <ele>2910.4</ele>
    <time>2026-06-24T05:23:41Z</time>
   </trkpt>
   <trkpt lat="-3.1649860" lon="37.3629020">
    <ele>2910.4</ele>
    <time>2026-06-24T05:23:42Z</time>
   </trkpt>
   <trkpt lat="-3.1649860" lon="37.3628980">
    <ele>2910.3</ele>
    <time>2026-06-24T05:23:43Z</time>
   </trkpt>
   <trkpt lat="-3.1649890" lon="37.3628920">
    <ele>2910.3</ele>
    <time>2026-06-24T05:23:44Z</time>
   </trkpt>
   <trkpt lat="-3.1649860" lon="37.3628830">
    <ele>2910.2</ele>
    <time>2026-06-24T05:23:45Z</time>
   </trkpt>
   <trkpt lat="-3.1649880" lon="37.3628780">
    <ele>2910.2</ele>
    <time>2026-06-24T05:23:46Z</time>
   </trkpt>
   <trkpt lat="-3.1649880" lon="37.3628730">
    <ele>2910.2</ele>
    <time>2026-06-24T05:23:47Z</time>
   </trkpt>
   <trkpt lat="-3.1649900" lon="37.3628710">
    <ele>2910.2</ele>
    <time>2026-06-24T05:23:48Z</time>
   </trkpt>
   <trkpt lat="-3.1649930" lon="37.3628630">
    <ele>2910.1</ele>
    <time>2026-06-24T05:23:49Z</time>
   </trkpt>
   <trkpt lat="-3.1649930" lon="37.3628520">
    <ele>2910.0</ele>
    <time>2026-06-24T05:23:50Z</time>
   </trkpt>
   <trkpt lat="-3.1649980" lon="37.3628450">
    <ele>2909.9</ele>
    <time>2026-06-24T05:23:51Z</time>
   </trkpt>
   <trkpt lat="-3.1650000" lon="37.3628380">
    <ele>2909.9</ele>
    <time>2026-06-24T05:23:52Z</time>
   </trkpt>
   <trkpt lat="-3.1650030" lon="37.3628290">
    <ele>2909.8</ele>
    <time>2026-06-24T05:23:53Z</time>
   </trkpt>
   <trkpt lat="-3.1650050" lon="37.3628210">
    <ele>2909.7</ele>
    <time>2026-06-24T05:23:54Z</time>
   </trkpt>
   <trkpt lat="-3.1650090" lon="37.3628160">
    <ele>2909.7</ele>
    <time>2026-06-24T05:23:55Z</time>
   </trkpt>
   <trkpt lat="-3.1650120" lon="37.3628110">
    <ele>2909.6</ele>
    <time>2026-06-24T05:23:56Z</time>
   </trkpt>
   <trkpt lat="-3.1650190" lon="37.3628040">
    <ele>2909.5</ele>
    <time>2026-06-24T05:23:57Z</time>
   </trkpt>
   <trkpt lat="-3.1650170" lon="37.3628000">
    <ele>2909.5</ele>
    <time>2026-06-24T05:23:58Z</time>
   </trkpt>
   <trkpt lat="-3.1650270" lon="37.3627940">
    <ele>2909.4</ele>
    <time>2026-06-24T05:23:59Z</time>
   </trkpt>
   <trkpt lat="-3.1650310" lon="37.3627920">
    <ele>2909.3</ele>
    <time>2026-06-24T05:24:00Z</time>
   </trkpt>
   <trkpt lat="-3.1650390" lon="37.3627880">
    <ele>2909.2</ele>
    <time>2026-06-24T05:24:01Z</time>
   </trkpt>
   <trkpt lat="-3.1650430" lon="37.3627830">
    <ele>2909.1</ele>
    <time>2026-06-24T05:24:02Z</time>
   </trkpt>
   <trkpt lat="-3.1650490" lon="37.3627820">
    <ele>2909.1</ele>
    <time>2026-06-24T05:24:03Z</time>
   </trkpt>
   <trkpt lat="-3.1650520" lon="37.3627820">
    <ele>2909.0</ele>
    <time>2026-06-24T05:24:04Z</time>
   </trkpt>
   <trkpt lat="-3.1650540" lon="37.3627850">
    <ele>2909.0</ele>
    <time>2026-06-24T05:24:05Z</time>
   </trkpt>
   <trkpt lat="-3.1650550" lon="37.3627830">
    <ele>2909.0</ele>
    <time>2026-06-24T05:24:06Z</time>
   </trkpt>
   <trkpt lat="-3.1650520" lon="37.3627860">
    <ele>2908.9</ele>
    <time>2026-06-24T05:24:07Z</time>
   </trkpt>
   <trkpt lat="-3.1650550" lon="37.3627780">
    <ele>2908.8</ele>
    <time>2026-06-24T05:24:08Z</time>
   </trkpt>
   <trkpt lat="-3.1650570" lon="37.3627760">
    <ele>2908.7</ele>
    <time>2026-06-24T05:24:09Z</time>
   </trkpt>
   <trkpt lat="-3.1650630" lon="37.3627710">
    <ele>2908.6</ele>
    <time>2026-06-24T05:24:10Z</time>
   </trkpt>
   <trkpt lat="-3.1650670" lon="37.3627680">
    <ele>2908.6</ele>
    <time>2026-06-24T05:24:11Z</time>
   </trkpt>
   <trkpt lat="-3.1650710" lon="37.3627610">
    <ele>2908.4</ele>
    <time>2026-06-24T05:24:12Z</time>
   </trkpt>
   <trkpt lat="-3.1650750" lon="37.3627500">
    <ele>2908.3</ele>
    <time>2026-06-24T05:24:13Z</time>
   </trkpt>
   <trkpt lat="-3.1650760" lon="37.3627440">
    <ele>2908.2</ele>
    <time>2026-06-24T05:24:14Z</time>
   </trkpt>
   <trkpt lat="-3.1650790" lon="37.3627370">
    <ele>2908.1</ele>
    <time>2026-06-24T05:24:15Z</time>
   </trkpt>
   <trkpt lat="-3.1650840" lon="37.3627330">
    <ele>2908.0</ele>
    <time>2026-06-24T05:24:16Z</time>
   </trkpt>
   <trkpt lat="-3.1650850" lon="37.3627340">
    <ele>2907.9</ele>
    <time>2026-06-24T05:24:17Z</time>
   </trkpt>
   <trkpt lat="-3.1650880" lon="37.3627340">
    <ele>2907.9</ele>
    <time>2026-06-24T05:24:18Z</time>
   </trkpt>
   <trkpt lat="-3.1650890" lon="37.3627370">
    <ele>2907.8</ele>
    <time>2026-06-24T05:24:19Z</time>
   </trkpt>
   <trkpt lat="-3.1650930" lon="37.3627330">
    <ele>2907.8</ele>
    <time>2026-06-24T05:24:20Z</time>
   </trkpt>
   <trkpt lat="-3.1650980" lon="37.3627320">
    <ele>2907.7</ele>
    <time>2026-06-24T05:24:21Z</time>
   </trkpt>
   <trkpt lat="-3.1651050" lon="37.3627220">
    <ele>2907.5</ele>
    <time>2026-06-24T05:24:22Z</time>
   </trkpt>
   <trkpt lat="-3.1651010" lon="37.3627240">
    <ele>2907.4</ele>
    <time>2026-06-24T05:24:23Z</time>
   </trkpt>
   <trkpt lat="-3.1651040" lon="37.3627210">
    <ele>2907.3</ele>
    <time>2026-06-24T05:24:24Z</time>
   </trkpt>
   <trkpt lat="-3.1651030" lon="37.3627150">
    <ele>2907.2</ele>
    <time>2026-06-24T05:24:25Z</time>
   </trkpt>
   <trkpt lat="-3.1651060" lon="37.3627070">
    <ele>2907.1</ele>
    <time>2026-06-24T05:24:26Z</time>
   </trkpt>
   <trkpt lat="-3.1651100" lon="37.3627000">
    <ele>2906.9</ele>
    <time>2026-06-24T05:24:27Z</time>
   </trkpt>
   <trkpt lat="-3.1651150" lon="37.3626870">
    <ele>2906.7</ele>
    <time>2026-06-24T05:24:28Z</time>
   </trkpt>
   <trkpt lat="-3.1651170" lon="37.3626800">
    <ele>2906.5</ele>
    <time>2026-06-24T05:24:29Z</time>
   </trkpt>
   <trkpt lat="-3.1651210" lon="37.3626740">
    <ele>2906.4</ele>
    <time>2026-06-24T05:24:30Z</time>
   </trkpt>
   <trkpt lat="-3.1651260" lon="37.3626690">
    <ele>2906.3</ele>
    <time>2026-06-24T05:24:31Z</time>
   </trkpt>
   <trkpt lat="-3.1651300" lon="37.3626600">
    <ele>2906.1</ele>
    <time>2026-06-24T05:24:32Z</time>
   </trkpt>
   <trkpt lat="-3.1651330" lon="37.3626610">
    <ele>2906.0</ele>
    <time>2026-06-24T05:24:33Z</time>
   </trkpt>
   <trkpt lat="-3.1651360" lon="37.3626510">
    <ele>2905.8</ele>
    <time>2026-06-24T05:24:34Z</time>
   </trkpt>
   <trkpt lat="-3.1651430" lon="37.3626400">
    <ele>2905.6</ele>
    <time>2026-06-24T05:24:35Z</time>
   </trkpt>
   <trkpt lat="-3.1651460" lon="37.3626280">
    <ele>2905.3</ele>
    <time>2026-06-24T05:24:36Z</time>
   </trkpt>
   <trkpt lat="-3.1651490" lon="37.3626160">
    <ele>2905.0</ele>
    <time>2026-06-24T05:24:37Z</time>
   </trkpt>
   <trkpt lat="-3.1651520" lon="37.3626060">
    <ele>2904.8</ele>
    <time>2026-06-24T05:24:38Z</time>
   </trkpt>
   <trkpt lat="-3.1651540" lon="37.3625980">
    <ele>2904.6</ele>
    <time>2026-06-24T05:24:39Z</time>
   </trkpt>
   <trkpt lat="-3.1651550" lon="37.3625980">
    <ele>2904.6</ele>
    <time>2026-06-24T05:24:40Z</time>
   </trkpt>
   <trkpt lat="-3.1651630" lon="37.3625890">
    <ele>2904.3</ele>
    <time>2026-06-24T05:24:41Z</time>
   </trkpt>
   <trkpt lat="-3.1651670" lon="37.3625900">
    <ele>2904.2</ele>
    <time>2026-06-24T05:24:42Z</time>
   </trkpt>
   <trkpt lat="-3.1651770" lon="37.3625880">
    <ele>2903.9</ele>
    <time>2026-06-24T05:24:43Z</time>
   </trkpt>
   <trkpt lat="-3.1651840" lon="37.3625820">
    <ele>2903.7</ele>
    <time>2026-06-24T05:24:44Z</time>
   </trkpt>
   <trkpt lat="-3.1651860" lon="37.3625750">
    <ele>2903.5</ele>
    <time>2026-06-24T05:24:45Z</time>
   </trkpt>
   <trkpt lat="-3.1651920" lon="37.3625670">
    <ele>2903.3</ele>
    <time>2026-06-24T05:24:46Z</time>
   </trkpt>
   <trkpt lat="-3.1651930" lon="37.3625620">
    <ele>2903.1</ele>
    <time>2026-06-24T05:24:47Z</time>
   </trkpt>
   <trkpt lat="-3.1651940" lon="37.3625590">
    <ele>2903.1</ele>
    <time>2026-06-24T05:24:48Z</time>
   </trkpt>
   <trkpt lat="-3.1651940" lon="37.3625570">
    <ele>2903.0</ele>
    <time>2026-06-24T05:24:49Z</time>
   </trkpt>
   <trkpt lat="-3.1651970" lon="37.3625510">
    <ele>2902.8</ele>
    <time>2026-06-24T05:24:50Z</time>
   </trkpt>
   <trkpt lat="-3.1651910" lon="37.3625460">
    <ele>2902.6</ele>
    <time>2026-06-24T05:24:51Z</time>
   </trkpt>
   <trkpt lat="-3.1651910" lon="37.3625460">
    <ele>2902.6</ele>
    <time>2026-06-24T05:24:52Z</time>
   </trkpt>
   <trkpt lat="-3.1651850" lon="37.3625360">
    <ele>2902.3</ele>
    <time>2026-06-24T05:24:53Z</time>
   </trkpt>
   <trkpt lat="-3.1651850" lon="37.3625370">
    <ele>2902.3</ele>
    <time>2026-06-24T05:24:54Z</time>
   </trkpt>
   <trkpt lat="-3.1651870" lon="37.3625330">
    <ele>2902.2</ele>
    <time>2026-06-24T05:24:55Z</time>
   </trkpt>
   <trkpt lat="-3.1651850" lon="37.3625210">
    <ele>2901.9</ele>
    <time>2026-06-24T05:24:56Z</time>
   </trkpt>
   <trkpt lat="-3.1651830" lon="37.3625160">
    <ele>2901.7</ele>
    <time>2026-06-24T05:24:57Z</time>
   </trkpt>
   <trkpt lat="-3.1651810" lon="37.3625130">
    <ele>2901.6</ele>
    <time>2026-06-24T05:24:58Z</time>
   </trkpt>
   <trkpt lat="-3.1651810" lon="37.3625130">
    <ele>2901.6</ele>
    <time>2026-06-24T05:24:59Z</time>
   </trkpt>
   <trkpt lat="-3.1651870" lon="37.3625100">
    <ele>2901.4</ele>
    <time>2026-06-24T05:25:00Z</time>
   </trkpt>
   <trkpt lat="-3.1651890" lon="37.3625070">
    <ele>2901.3</ele>
    <time>2026-06-24T05:25:01Z</time>
   </trkpt>
   <trkpt lat="-3.1651910" lon="37.3625060">
    <ele>2901.3</ele>
    <time>2026-06-24T05:25:02Z</time>
   </trkpt>
   <trkpt lat="-3.1651910" lon="37.3625060">
    <ele>2901.3</ele>
    <time>2026-06-24T05:25:03Z</time>
   </trkpt>
   <trkpt lat="-3.1651930" lon="37.3625050">
    <ele>2901.2</ele>
    <time>2026-06-24T05:25:04Z</time>
   </trkpt>
   <trkpt lat="-3.1651950" lon="37.3625030">
    <ele>2901.1</ele>
    <time>2026-06-24T05:25:05Z</time>
   </trkpt>
   <trkpt lat="-3.1651990" lon="37.3625070">
    <ele>2901.0</ele>
    <time>2026-06-24T05:25:06Z</time>
   </trkpt>
   <trkpt lat="-3.1652010" lon="37.3625080">
    <ele>2900.9</ele>
    <time>2026-06-24T05:25:07Z</time>
   </trkpt>
   <trkpt lat="-3.1652000" lon="37.3625100">
    <ele>2900.9</ele>
    <time>2026-06-24T05:25:08Z</time>
   </trkpt>
   <trkpt lat="-3.1652000" lon="37.3625140">
    <ele>2900.8</ele>
    <time>2026-06-24T05:25:09Z</time>
   </trkpt>
   <trkpt lat="-3.1652020" lon="37.3625120">
    <ele>2900.7</ele>
    <time>2026-06-24T05:25:10Z</time>
   </trkpt>
   <trkpt lat="-3.1652020" lon="37.3625130">
    <ele>2900.7</ele>
    <time>2026-06-24T05:25:11Z</time>
   </trkpt>
   <trkpt lat="-3.1652030" lon="37.3625130">
    <ele>2900.6</ele>
    <time>2026-06-24T05:25:12Z</time>
   </trkpt>
   <trkpt lat="-3.1652000" lon="37.3625150">
    <ele>2900.5</ele>
    <time>2026-06-24T05:25:13Z</time>
   </trkpt>
   <trkpt lat="-3.1651940" lon="37.3625180">
    <ele>2900.4</ele>
    <time>2026-06-24T05:25:14Z</time>
   </trkpt>
   <trkpt lat="-3.1651930" lon="37.3625170">
    <ele>2900.3</ele>
    <time>2026-06-24T05:25:15Z</time>
   </trkpt>
   <trkpt lat="-3.1651920" lon="37.3625220">
    <ele>2900.2</ele>
    <time>2026-06-24T05:25:16Z</time>
   </trkpt>
   <trkpt lat="-3.1651920" lon="37.3625220">
    <ele>2900.2</ele>
    <time>2026-06-24T05:25:17Z</time>
   </trkpt>
   <trkpt lat="-3.1651920" lon="37.3625220">
    <ele>2900.2</ele>
    <time>2026-06-24T05:25:18Z</time>
   </trkpt>
   <trkpt lat="-3.1651920" lon="37.3625220">
    <ele>2900.2</ele>
    <time>2026-06-24T05:25:19Z</time>
   </trkpt>
   <trkpt lat="-3.1651920" lon="37.3625220">
    <ele>2900.2</ele>
    <time>2026-06-24T05:25:20Z</time>
   </trkpt>
   <trkpt lat="-3.1651870" lon="37.3625170">
    <ele>2900.0</ele>
    <time>2026-06-24T05:25:21Z</time>
   </trkpt>
   <trkpt lat="-3.1651860" lon="37.3625170">
    <ele>2900.0</ele>
    <time>2026-06-24T05:25:22Z</time>
   </trkpt>
   <trkpt lat="-3.1651840" lon="37.3625160">
    <ele>2899.9</ele>
    <time>2026-06-24T05:25:23Z</time>
   </trkpt>
   <trkpt lat="-3.1651880" lon="37.3625130">
    <ele>2899.8</ele>
    <time>2026-06-24T05:25:24Z</time>
   </trkpt>
   <trkpt lat="-3.1651870" lon="37.3625140">
    <ele>2899.8</ele>
    <time>2026-06-24T05:25:25Z</time>
   </trkpt>
   <trkpt lat="-3.1651870" lon="37.3625140">
    <ele>2899.8</ele>
    <time>2026-06-24T05:25:26Z</time>
   </trkpt>
   <trkpt lat="-3.1651880" lon="37.3625150">
    <ele>2899.7</ele>
    <time>2026-06-24T05:25:27Z</time>
   </trkpt>
   <trkpt lat="-3.1651880" lon="37.3625160">
    <ele>2899.7</ele>
    <time>2026-06-24T05:25:28Z</time>
   </trkpt>
   <trkpt lat="-3.1651860" lon="37.3625130">
    <ele>2899.6</ele>
    <time>2026-06-24T05:25:29Z</time>
   </trkpt>
   <trkpt lat="-3.1651860" lon="37.3625150">
    <ele>2899.5</ele>
    <time>2026-06-24T05:25:30Z</time>
   </trkpt>
   <trkpt lat="-3.1651850" lon="37.3625090">
    <ele>2899.4</ele>
    <time>2026-06-24T05:25:31Z</time>
   </trkpt>
   <trkpt lat="-3.1651850" lon="37.3625090">
    <ele>2899.4</ele>
    <time>2026-06-24T05:25:32Z</time>
   </trkpt>
   <trkpt lat="-3.1651850" lon="37.3625090">
    <ele>2899.4</ele>
    <time>2026-06-24T05:25:33Z</time>
   </trkpt>
   <trkpt lat="-3.1651850" lon="37.3625090">
    <ele>2899.4</ele>
    <time>2026-06-24T05:25:34Z</time>
   </trkpt>
   <trkpt lat="-3.1651850" lon="37.3625090">
    <ele>2899.4</ele>
    <time>2026-06-24T05:25:35Z</time>
   </trkpt>
   <trkpt lat="-3.1651850" lon="37.3625090">
    <ele>2899.4</ele>
    <time>2026-06-24T05:25:36Z</time>
   </trkpt>
   <trkpt lat="-3.1651850" lon="37.3625090">
    <ele>2899.4</ele>
    <time>2026-06-24T05:25:37Z</time>
   </trkpt>
   <trkpt lat="-3.1651850" lon="37.3625090">
    <ele>2899.4</ele>
    <time>2026-06-24T05:25:38Z</time>
   </trkpt>
   <trkpt lat="-3.1651850" lon="37.3625090">
    <ele>2899.4</ele>
    <time>2026-06-24T05:25:39Z</time>
   </trkpt>
   <trkpt lat="-3.1651850" lon="37.3625090">
    <ele>2899.4</ele>
    <time>2026-06-24T05:25:40Z</time>
   </trkpt>
   <trkpt lat="-3.1651750" lon="37.3625140">
    <ele>2899.1</ele>
    <time>2026-06-24T05:25:41Z</time>
   </trkpt>
   <trkpt lat="-3.1651720" lon="37.3625140">
    <ele>2899.0</ele>
    <time>2026-06-24T05:25:42Z</time>
   </trkpt>
   <trkpt lat="-3.1651700" lon="37.3625140">
    <ele>2898.9</ele>
    <time>2026-06-24T05:25:43Z</time>
   </trkpt>
   <trkpt lat="-3.1651680" lon="37.3625140">
    <ele>2898.9</ele>
    <time>2026-06-24T05:25:44Z</time>
   </trkpt>
   <trkpt lat="-3.1651650" lon="37.3625140">
    <ele>2898.8</ele>
    <time>2026-06-24T05:25:45Z</time>
   </trkpt>
   <trkpt lat="-3.1651630" lon="37.3625160">
    <ele>2898.7</ele>
    <time>2026-06-24T05:25:46Z</time>
   </trkpt>
   <trkpt lat="-3.1651640" lon="37.3625140">
    <ele>2898.7</ele>
    <time>2026-06-24T05:25:47Z</time>
   </trkpt>
   <trkpt lat="-3.1651650" lon="37.3625120">
    <ele>2898.6</ele>
    <time>2026-06-24T05:25:48Z</time>
   </trkpt>
   <trkpt lat="-3.1651650" lon="37.3625110">
    <ele>2898.6</ele>
    <time>2026-06-24T05:25:49Z</time>
   </trkpt>
   <trkpt lat="-3.1651660" lon="37.3625110">
    <ele>2898.6</ele>
    <time>2026-06-24T05:25:50Z</time>
   </trkpt>
   <trkpt lat="-3.1651660" lon="37.3625110">
    <ele>2898.6</ele>
    <time>2026-06-24T05:25:51Z</time>
   </trkpt>
   <trkpt lat="-3.1651660" lon="37.3625110">
    <ele>2898.6</ele>
    <time>2026-06-24T05:25:52Z</time>
   </trkpt>
   <trkpt lat="-3.1651660" lon="37.3625110">
    <ele>2898.6</ele>
    <time>2026-06-24T05:25:53Z</time>
   </trkpt>
   <trkpt lat="-3.1651660" lon="37.3625110">
    <ele>2898.6</ele>
    <time>2026-06-24T05:25:54Z</time>
   </trkpt>
   <trkpt lat="-3.1651660" lon="37.3625110">
    <ele>2898.6</ele>
    <time>2026-06-24T05:25:55Z</time>
   </trkpt>
   <trkpt lat="-3.1651580" lon="37.3625040">
    <ele>2898.3</ele>
    <time>2026-06-24T05:25:56Z</time>
   </trkpt>
   <trkpt lat="-3.1651570" lon="37.3625040">
    <ele>2898.3</ele>
    <time>2026-06-24T05:25:57Z</time>
   </trkpt>
   <trkpt lat="-3.1651570" lon="37.3625040">
    <ele>2898.3</ele>
    <time>2026-06-24T05:25:58Z</time>
   </trkpt>
   <trkpt lat="-3.1651550" lon="37.3625020">
    <ele>2898.2</ele>
    <time>2026-06-24T05:25:59Z</time>
   </trkpt>
   <trkpt lat="-3.1651550" lon="37.3625020">
    <ele>2898.2</ele>
    <time>2026-06-24T05:26:00Z</time>
   </trkpt>
   <trkpt lat="-3.1651550" lon="37.3625020">
    <ele>2898.2</ele>
    <time>2026-06-24T05:26:01Z</time>
   </trkpt>
   <trkpt lat="-3.1651550" lon="37.3625020">
    <ele>2898.2</ele>
    <time>2026-06-24T05:26:02Z</time>
   </trkpt>
   <trkpt lat="-3.1651510" lon="37.3624970">
    <ele>2898.1</ele>
    <time>2026-06-24T05:26:03Z</time>
   </trkpt>
   <trkpt lat="-3.1651520" lon="37.3624970">
    <ele>2898.0</ele>
    <time>2026-06-24T05:26:04Z</time>
   </trkpt>
   <trkpt lat="-3.1651520" lon="37.3624970">
    <ele>2898.0</ele>
    <time>2026-06-24T05:26:05Z</time>
   </trkpt>
   <trkpt lat="-3.1651520" lon="37.3624970">
    <ele>2898.0</ele>
    <time>2026-06-24T05:26:06Z</time>
   </trkpt>
   <trkpt lat="-3.1651500" lon="37.3624940">
    <ele>2898.0</ele>
    <time>2026-06-24T05:26:07Z</time>
   </trkpt>
   <trkpt lat="-3.1651500" lon="37.3624930">
    <ele>2897.9</ele>
    <time>2026-06-24T05:26:08Z</time>
   </trkpt>
   <trkpt lat="-3.1651520" lon="37.3624930">
    <ele>2897.9</ele>
    <time>2026-06-24T05:26:09Z</time>
   </trkpt>
   <trkpt lat="-3.1651510" lon="37.3624950">
    <ele>2897.8</ele>
    <time>2026-06-24T05:26:10Z</time>
   </trkpt>
   <trkpt lat="-3.1651510" lon="37.3624950">
    <ele>2897.8</ele>
    <time>2026-06-24T05:26:11Z</time>
   </trkpt>
   <trkpt lat="-3.1651510" lon="37.3624950">
    <ele>2897.8</ele>
    <time>2026-06-24T05:26:12Z</time>
   </trkpt>
   <trkpt lat="-3.1651530" lon="37.3624980">
    <ele>2897.7</ele>
    <time>2026-06-24T05:26:13Z</time>
   </trkpt>
   <trkpt lat="-3.1651540" lon="37.3625000">
    <ele>2897.7</ele>
    <time>2026-06-24T05:26:14Z</time>
   </trkpt>
   <trkpt lat="-3.1651530" lon="37.3624980">
    <ele>2897.6</ele>
    <time>2026-06-24T05:26:15Z</time>
   </trkpt>
   <trkpt lat="-3.1651540" lon="37.3624970">
    <ele>2897.6</ele>
    <time>2026-06-24T05:26:16Z</time>
   </trkpt>
   <trkpt lat="-3.1651550" lon="37.3624960">
    <ele>2897.6</ele>
    <time>2026-06-24T05:26:17Z</time>
   </trkpt>
   <trkpt lat="-3.1651550" lon="37.3624930">
    <ele>2897.5</ele>
    <time>2026-06-24T05:26:18Z</time>
   </trkpt>
   <trkpt lat="-3.1651570" lon="37.3624920">
    <ele>2897.4</ele>
    <time>2026-06-24T05:26:19Z</time>
   </trkpt>
   <trkpt lat="-3.1651570" lon="37.3624880">
    <ele>2897.4</ele>
    <time>2026-06-24T05:26:20Z</time>
   </trkpt>
   <trkpt lat="-3.1651610" lon="37.3624890">
    <ele>2897.3</ele>
    <time>2026-06-24T05:26:21Z</time>
   </trkpt>
   <trkpt lat="-3.1651620" lon="37.3624850">
    <ele>2897.2</ele>
    <time>2026-06-24T05:26:22Z</time>
   </trkpt>
   <trkpt lat="-3.1651640" lon="37.3624850">
    <ele>2897.1</ele>
    <time>2026-06-24T05:26:23Z</time>
   </trkpt>
   <trkpt lat="-3.1651660" lon="37.3624850">
    <ele>2897.1</ele>
    <time>2026-06-24T05:26:24Z</time>
   </trkpt>
   <trkpt lat="-3.1651710" lon="37.3624830">
    <ele>2897.0</ele>
    <time>2026-06-24T05:26:25Z</time>
   </trkpt>
   <trkpt lat="-3.1651780" lon="37.3624800">
    <ele>2896.8</ele>
    <time>2026-06-24T05:26:26Z</time>
   </trkpt>
   <trkpt lat="-3.1651810" lon="37.3624810">
    <ele>2896.7</ele>
    <time>2026-06-24T05:26:27Z</time>
   </trkpt>
   <trkpt lat="-3.1651840" lon="37.3624760">
    <ele>2896.6</ele>
    <time>2026-06-24T05:26:28Z</time>
   </trkpt>
   <trkpt lat="-3.1651840" lon="37.3624720">
    <ele>2896.5</ele>
    <time>2026-06-24T05:26:29Z</time>
   </trkpt>
   <trkpt lat="-3.1651990" lon="37.3624700">
    <ele>2896.2</ele>
    <time>2026-06-24T05:26:30Z</time>
   </trkpt>
   <trkpt lat="-3.1652010" lon="37.3624700">
    <ele>2896.1</ele>
    <time>2026-06-24T05:26:31Z</time>
   </trkpt>
   <trkpt lat="-3.1652010" lon="37.3624560">
    <ele>2895.8</ele>
    <time>2026-06-24T05:26:32Z</time>
   </trkpt>
   <trkpt lat="-3.1652030" lon="37.3624520">
    <ele>2895.7</ele>
    <time>2026-06-24T05:26:33Z</time>
   </trkpt>
   <trkpt lat="-3.1652020" lon="37.3624530">
    <ele>2895.7</ele>
    <time>2026-06-24T05:26:34Z</time>
   </trkpt>
   <trkpt lat="-3.1652010" lon="37.3624520">
    <ele>2895.7</ele>
    <time>2026-06-24T05:26:35Z</time>
   </trkpt>
   <trkpt lat="-3.1651980" lon="37.3624500">
    <ele>2895.6</ele>
    <time>2026-06-24T05:26:36Z</time>
   </trkpt>
   <trkpt lat="-3.1651950" lon="37.3624480">
    <ele>2895.5</ele>
    <time>2026-06-24T05:26:37Z</time>
   </trkpt>
   <trkpt lat="-3.1651910" lon="37.3624470">
    <ele>2895.4</ele>
    <time>2026-06-24T05:26:38Z</time>
   </trkpt>
   <trkpt lat="-3.1651880" lon="37.3624410">
    <ele>2895.3</ele>
    <time>2026-06-24T05:26:39Z</time>
   </trkpt>
   <trkpt lat="-3.1651890" lon="37.3624430">
    <ele>2895.3</ele>
    <time>2026-06-24T05:26:40Z</time>
   </trkpt>
   <trkpt lat="-3.1651880" lon="37.3624380">
    <ele>2895.2</ele>
    <time>2026-06-24T05:26:41Z</time>
   </trkpt>
   <trkpt lat="-3.1651900" lon="37.3624370">
    <ele>2895.1</ele>
    <time>2026-06-24T05:26:42Z</time>
   </trkpt>
   <trkpt lat="-3.1651870" lon="37.3624360">
    <ele>2895.0</ele>
    <time>2026-06-24T05:26:43Z</time>
   </trkpt>
   <trkpt lat="-3.1651840" lon="37.3624360">
    <ele>2895.0</ele>
    <time>2026-06-24T05:26:44Z</time>
   </trkpt>
   <trkpt lat="-3.1651790" lon="37.3624310">
    <ele>2894.8</ele>
    <time>2026-06-24T05:26:45Z</time>
   </trkpt>
   <trkpt lat="-3.1651810" lon="37.3624180">
    <ele>2894.6</ele>
    <time>2026-06-24T05:26:46Z</time>
   </trkpt>
   <trkpt lat="-3.1651830" lon="37.3624080">
    <ele>2894.3</ele>
    <time>2026-06-24T05:26:47Z</time>
   </trkpt>
   <trkpt lat="-3.1651850" lon="37.3624150">
    <ele>2894.2</ele>
    <time>2026-06-24T05:26:48Z</time>
   </trkpt>
   <trkpt lat="-3.1651870" lon="37.3624200">
    <ele>2894.1</ele>
    <time>2026-06-24T05:26:49Z</time>
   </trkpt>
   <trkpt lat="-3.1651930" lon="37.3624140">
    <ele>2893.9</ele>
    <time>2026-06-24T05:26:50Z</time>
   </trkpt>
   <trkpt lat="-3.1651980" lon="37.3624150">
    <ele>2893.8</ele>
    <time>2026-06-24T05:26:51Z</time>
   </trkpt>
   <trkpt lat="-3.1652050" lon="37.3624100">
    <ele>2893.6</ele>
    <time>2026-06-24T05:26:52Z</time>
   </trkpt>
   <trkpt lat="-3.1652170" lon="37.3624060">
    <ele>2893.3</ele>
    <time>2026-06-24T05:26:53Z</time>
   </trkpt>
   <trkpt lat="-3.1652280" lon="37.3623930">
    <ele>2892.9</ele>
    <time>2026-06-24T05:26:54Z</time>
   </trkpt>
   <trkpt lat="-3.1652250" lon="37.3623780">
    <ele>2892.6</ele>
    <time>2026-06-24T05:26:55Z</time>
   </trkpt>
   <trkpt lat="-3.1652250" lon="37.3623670">
    <ele>2892.3</ele>
    <time>2026-06-24T05:26:56Z</time>
   </trkpt>
   <trkpt lat="-3.1652260" lon="37.3623670">
    <ele>2892.3</ele>
    <time>2026-06-24T05:26:57Z</time>
   </trkpt>
   <trkpt lat="-3.1652260" lon="37.3623630">
    <ele>2892.2</ele>
    <time>2026-06-24T05:26:58Z</time>
   </trkpt>
   <trkpt lat="-3.1652270" lon="37.3623580">
    <ele>2892.1</ele>
    <time>2026-06-24T05:26:59Z</time>
   </trkpt>
   <trkpt lat="-3.1652310" lon="37.3623560">
    <ele>2892.0</ele>
    <time>2026-06-24T05:27:00Z</time>
   </trkpt>
   <trkpt lat="-3.1652410" lon="37.3623480">
    <ele>2891.7</ele>
    <time>2026-06-24T05:27:01Z</time>
   </trkpt>
   <trkpt lat="-3.1652480" lon="37.3623370">
    <ele>2891.4</ele>
    <time>2026-06-24T05:27:02Z</time>
   </trkpt>
   <trkpt lat="-3.1652550" lon="37.3623320">
    <ele>2891.1</ele>
    <time>2026-06-24T05:27:03Z</time>
   </trkpt>
   <trkpt lat="-3.1652600" lon="37.3623280">
    <ele>2891.0</ele>
    <time>2026-06-24T05:27:04Z</time>
   </trkpt>
   <trkpt lat="-3.1652680" lon="37.3623220">
    <ele>2890.7</ele>
    <time>2026-06-24T05:27:05Z</time>
   </trkpt>
   <trkpt lat="-3.1652750" lon="37.3623240">
    <ele>2890.5</ele>
    <time>2026-06-24T05:27:06Z</time>
   </trkpt>
   <trkpt lat="-3.1652840" lon="37.3623210">
    <ele>2890.2</ele>
    <time>2026-06-24T05:27:07Z</time>
   </trkpt>
   <trkpt lat="-3.1652940" lon="37.3623160">
    <ele>2889.9</ele>
    <time>2026-06-24T05:27:08Z</time>
   </trkpt>
   <trkpt lat="-3.1653030" lon="37.3623090">
    <ele>2889.6</ele>
    <time>2026-06-24T05:27:09Z</time>
   </trkpt>
   <trkpt lat="-3.1653090" lon="37.3623040">
    <ele>2889.4</ele>
    <time>2026-06-24T05:27:10Z</time>
   </trkpt>
   <trkpt lat="-3.1653180" lon="37.3622990">
    <ele>2889.1</ele>
    <time>2026-06-24T05:27:11Z</time>
   </trkpt>
   <trkpt lat="-3.1653250" lon="37.3622920">
    <ele>2888.9</ele>
    <time>2026-06-24T05:27:12Z</time>
   </trkpt>
   <trkpt lat="-3.1653310" lon="37.3622870">
    <ele>2888.7</ele>
    <time>2026-06-24T05:27:13Z</time>
   </trkpt>
   <trkpt lat="-3.1653330" lon="37.3622830">
    <ele>2888.5</ele>
    <time>2026-06-24T05:27:14Z</time>
   </trkpt>
   <trkpt lat="-3.1653380" lon="37.3622770">
    <ele>2888.3</ele>
    <time>2026-06-24T05:27:15Z</time>
   </trkpt>
   <trkpt lat="-3.1653490" lon="37.3622680">
    <ele>2887.9</ele>
    <time>2026-06-24T05:27:16Z</time>
   </trkpt>
   <trkpt lat="-3.1653560" lon="37.3622650">
    <ele>2887.7</ele>
    <time>2026-06-24T05:27:17Z</time>
   </trkpt>
   <trkpt lat="-3.1653640" lon="37.3622570">
    <ele>2887.4</ele>
    <time>2026-06-24T05:27:18Z</time>
   </trkpt>
   <trkpt lat="-3.1653700" lon="37.3622510">
    <ele>2887.2</ele>
    <time>2026-06-24T05:27:19Z</time>
   </trkpt>
   <trkpt lat="-3.1653730" lon="37.3622450">
    <ele>2887.0</ele>
    <time>2026-06-24T05:27:20Z</time>
   </trkpt>
   <trkpt lat="-3.1653800" lon="37.3622410">
    <ele>2886.8</ele>
    <time>2026-06-24T05:27:21Z</time>
   </trkpt>
   <trkpt lat="-3.1653890" lon="37.3622330">
    <ele>2886.5</ele>
    <time>2026-06-24T05:27:22Z</time>
   </trkpt>
   <trkpt lat="-3.1653980" lon="37.3622280">
    <ele>2886.2</ele>
    <time>2026-06-24T05:27:23Z</time>
   </trkpt>
   <trkpt lat="-3.1654030" lon="37.3622240">
    <ele>2886.0</ele>
    <time>2026-06-24T05:27:24Z</time>
   </trkpt>
   <trkpt lat="-3.1654130" lon="37.3622210">
    <ele>2885.8</ele>
    <time>2026-06-24T05:27:25Z</time>
   </trkpt>
   <trkpt lat="-3.1654170" lon="37.3622200">
    <ele>2885.7</ele>
    <time>2026-06-24T05:27:26Z</time>
   </trkpt>
   <trkpt lat="-3.1654200" lon="37.3622190">
    <ele>2885.6</ele>
    <time>2026-06-24T05:27:27Z</time>
   </trkpt>
   <trkpt lat="-3.1654200" lon="37.3622240">
    <ele>2885.4</ele>
    <time>2026-06-24T05:27:28Z</time>
   </trkpt>
   <trkpt lat="-3.1654250" lon="37.3622190">
    <ele>2885.3</ele>
    <time>2026-06-24T05:27:29Z</time>
   </trkpt>
   <trkpt lat="-3.1654310" lon="37.3622120">
    <ele>2885.0</ele>
    <time>2026-06-24T05:27:30Z</time>
   </trkpt>
   <trkpt lat="-3.1654340" lon="37.3622040">
    <ele>2884.8</ele>
    <time>2026-06-24T05:27:31Z</time>
   </trkpt>
   <trkpt lat="-3.1654320" lon="37.3621970">
    <ele>2884.6</ele>
    <time>2026-06-24T05:27:32Z</time>
   </trkpt>
   <trkpt lat="-3.1654330" lon="37.3621880">
    <ele>2884.4</ele>
    <time>2026-06-24T05:27:33Z</time>
   </trkpt>
   <trkpt lat="-3.1654390" lon="37.3621780">
    <ele>2884.1</ele>
    <time>2026-06-24T05:27:34Z</time>
   </trkpt>
   <trkpt lat="-3.1654430" lon="37.3621750">
    <ele>2883.9</ele>
    <time>2026-06-24T05:27:35Z</time>
   </trkpt>
   <trkpt lat="-3.1654510" lon="37.3621700">
    <ele>2883.7</ele>
    <time>2026-06-24T05:27:36Z</time>
   </trkpt>
   <trkpt lat="-3.1654590" lon="37.3621680">
    <ele>2883.5</ele>
    <time>2026-06-24T05:27:37Z</time>
   </trkpt>
   <trkpt lat="-3.1654620" lon="37.3621640">
    <ele>2883.4</ele>
    <time>2026-06-24T05:27:38Z</time>
   </trkpt>
   <trkpt lat="-3.1654630" lon="37.3621600">
    <ele>2883.3</ele>
    <time>2026-06-24T05:27:39Z</time>
   </trkpt>
   <trkpt lat="-3.1654670" lon="37.3621600">
    <ele>2883.2</ele>
    <time>2026-06-24T05:27:40Z</time>
   </trkpt>
   <trkpt lat="-3.1654710" lon="37.3621560">
    <ele>2883.0</ele>
    <time>2026-06-24T05:27:41Z</time>
   </trkpt>
   <trkpt lat="-3.1654800" lon="37.3621540">
    <ele>2882.8</ele>
    <time>2026-06-24T05:27:42Z</time>
   </trkpt>
   <trkpt lat="-3.1654810" lon="37.3621510">
    <ele>2882.7</ele>
    <time>2026-06-24T05:27:43Z</time>
   </trkpt>
   <trkpt lat="-3.1654820" lon="37.3621520">
    <ele>2882.7</ele>
    <time>2026-06-24T05:27:44Z</time>
   </trkpt>
   <trkpt lat="-3.1654890" lon="37.3621560">
    <ele>2882.5</ele>
    <time>2026-06-24T05:27:45Z</time>
   </trkpt>
   <trkpt lat="-3.1654900" lon="37.3621590">
    <ele>2882.4</ele>
    <time>2026-06-24T05:27:46Z</time>
   </trkpt>
   <trkpt lat="-3.1654940" lon="37.3621640">
    <ele>2882.3</ele>
    <time>2026-06-24T05:27:47Z</time>
   </trkpt>
   <trkpt lat="-3.1655000" lon="37.3621630">
    <ele>2882.1</ele>
    <time>2026-06-24T05:27:48Z</time>
   </trkpt>
   <trkpt lat="-3.1655060" lon="37.3621600">
    <ele>2882.0</ele>
    <time>2026-06-24T05:27:49Z</time>
   </trkpt>
   <trkpt lat="-3.1655270" lon="37.3621500">
    <ele>2881.4</ele>
    <time>2026-06-24T05:27:50Z</time>
   </trkpt>
   <trkpt lat="-3.1655270" lon="37.3621460">
    <ele>2881.3</ele>
    <time>2026-06-24T05:27:51Z</time>
   </trkpt>
   <trkpt lat="-3.1655250" lon="37.3621440">
    <ele>2881.2</ele>
    <time>2026-06-24T05:27:52Z</time>
   </trkpt>
   <trkpt lat="-3.1655190" lon="37.3621420">
    <ele>2881.1</ele>
    <time>2026-06-24T05:27:53Z</time>
   </trkpt>
   <trkpt lat="-3.1655280" lon="37.3621360">
    <ele>2880.8</ele>
    <time>2026-06-24T05:27:54Z</time>
   </trkpt>
   <trkpt lat="-3.1655400" lon="37.3621290">
    <ele>2880.5</ele>
    <time>2026-06-24T05:27:55Z</time>
   </trkpt>
   <trkpt lat="-3.1655460" lon="37.3621310">
    <ele>2880.4</ele>
    <time>2026-06-24T05:27:56Z</time>
   </trkpt>
   <trkpt lat="-3.1655570" lon="37.3621270">
    <ele>2880.1</ele>
    <time>2026-06-24T05:27:57Z</time>
   </trkpt>
   <trkpt lat="-3.1655600" lon="37.3621200">
    <ele>2879.9</ele>
    <time>2026-06-24T05:27:58Z</time>
   </trkpt>
   <trkpt lat="-3.1655700" lon="37.3621160">
    <ele>2879.7</ele>
    <time>2026-06-24T05:27:59Z</time>
   </trkpt>
   <trkpt lat="-3.1655700" lon="37.3621090">
    <ele>2879.5</ele>
    <time>2026-06-24T05:28:00Z</time>
   </trkpt>
   <trkpt lat="-3.1655740" lon="37.3621080">
    <ele>2879.4</ele>
    <time>2026-06-24T05:28:01Z</time>
   </trkpt>
   <trkpt lat="-3.1655750" lon="37.3621040">
    <ele>2879.3</ele>
    <time>2026-06-24T05:28:02Z</time>
   </trkpt>
   <trkpt lat="-3.1655820" lon="37.3620990">
    <ele>2879.1</ele>
    <time>2026-06-24T05:28:03Z</time>
   </trkpt>
   <trkpt lat="-3.1655850" lon="37.3620980">
    <ele>2879.1</ele>
    <time>2026-06-24T05:28:04Z</time>
   </trkpt>
   <trkpt lat="-3.1655880" lon="37.3620950">
    <ele>2879.0</ele>
    <time>2026-06-24T05:28:05Z</time>
   </trkpt>
   <trkpt lat="-3.1655920" lon="37.3620890">
    <ele>2878.8</ele>
    <time>2026-06-24T05:28:06Z</time>
   </trkpt>
   <trkpt lat="-3.1655970" lon="37.3620860">
    <ele>2878.7</ele>
    <time>2026-06-24T05:28:07Z</time>
   </trkpt>
   <trkpt lat="-3.1656000" lon="37.3620820">
    <ele>2878.6</ele>
    <time>2026-06-24T05:28:08Z</time>
   </trkpt>
   <trkpt lat="-3.1655950" lon="37.3620850">
    <ele>2878.4</ele>
    <time>2026-06-24T05:28:09Z</time>
   </trkpt>
   <trkpt lat="-3.1655890" lon="37.3620810">
    <ele>2878.3</ele>
    <time>2026-06-24T05:28:10Z</time>
   </trkpt>
   <trkpt lat="-3.1655860" lon="37.3620800">
    <ele>2878.2</ele>
    <time>2026-06-24T05:28:11Z</time>
   </trkpt>
   <trkpt lat="-3.1655830" lon="37.3620770">
    <ele>2878.1</ele>
    <time>2026-06-24T05:28:12Z</time>
   </trkpt>
   <trkpt lat="-3.1655840" lon="37.3620680">
    <ele>2877.9</ele>
    <time>2026-06-24T05:28:13Z</time>
   </trkpt>
   <trkpt lat="-3.1655920" lon="37.3620580">
    <ele>2877.6</ele>
    <time>2026-06-24T05:28:14Z</time>
   </trkpt>
   <trkpt lat="-3.1655990" lon="37.3620500">
    <ele>2877.4</ele>
    <time>2026-06-24T05:28:15Z</time>
   </trkpt>
   <trkpt lat="-3.1656050" lon="37.3620390">
    <ele>2877.1</ele>
    <time>2026-06-24T05:28:16Z</time>
   </trkpt>
   <trkpt lat="-3.1656140" lon="37.3620340">
    <ele>2876.9</ele>
    <time>2026-06-24T05:28:17Z</time>
   </trkpt>
   <trkpt lat="-3.1656200" lon="37.3620300">
    <ele>2876.7</ele>
    <time>2026-06-24T05:28:18Z</time>
   </trkpt>
   <trkpt lat="-3.1656260" lon="37.3620280">
    <ele>2876.6</ele>
    <time>2026-06-24T05:28:19Z</time>
   </trkpt>
   <trkpt lat="-3.1656280" lon="37.3620280">
    <ele>2876.6</ele>
    <time>2026-06-24T05:28:20Z</time>
   </trkpt>
   <trkpt lat="-3.1656310" lon="37.3620240">
    <ele>2876.5</ele>
    <time>2026-06-24T05:28:21Z</time>
   </trkpt>
   <trkpt lat="-3.1656370" lon="37.3620200">
    <ele>2876.3</ele>
    <time>2026-06-24T05:28:22Z</time>
   </trkpt>
   <trkpt lat="-3.1656390" lon="37.3620160">
    <ele>2876.2</ele>
    <time>2026-06-24T05:28:23Z</time>
   </trkpt>
   <trkpt lat="-3.1656360" lon="37.3620230">
    <ele>2876.1</ele>
    <time>2026-06-24T05:28:24Z</time>
   </trkpt>
   <trkpt lat="-3.1656360" lon="37.3620200">
    <ele>2876.0</ele>
    <time>2026-06-24T05:28:25Z</time>
   </trkpt>
   <trkpt lat="-3.1656420" lon="37.3620160">
    <ele>2875.9</ele>
    <time>2026-06-24T05:28:26Z</time>
   </trkpt>
   <trkpt lat="-3.1656490" lon="37.3620120">
    <ele>2875.7</ele>
    <time>2026-06-24T05:28:27Z</time>
   </trkpt>
   <trkpt lat="-3.1656570" lon="37.3620060">
    <ele>2875.5</ele>
    <time>2026-06-24T05:28:28Z</time>
   </trkpt>
   <trkpt lat="-3.1656640" lon="37.3620040">
    <ele>2875.4</ele>
    <time>2026-06-24T05:28:29Z</time>
   </trkpt>
   <trkpt lat="-3.1656710" lon="37.3620020">
    <ele>2875.2</ele>
    <time>2026-06-24T05:28:30Z</time>
   </trkpt>
   <trkpt lat="-3.1656760" lon="37.3620010">
    <ele>2875.1</ele>
    <time>2026-06-24T05:28:31Z</time>
   </trkpt>
   <trkpt lat="-3.1656820" lon="37.3619980">
    <ele>2875.0</ele>
    <time>2026-06-24T05:28:32Z</time>
   </trkpt>
   <trkpt lat="-3.1656870" lon="37.3619880">
    <ele>2874.8</ele>
    <time>2026-06-24T05:28:33Z</time>
   </trkpt>
   <trkpt lat="-3.1656900" lon="37.3619840">
    <ele>2874.7</ele>
    <time>2026-06-24T05:28:34Z</time>
   </trkpt>
   <trkpt lat="-3.1656900" lon="37.3619760">
    <ele>2874.5</ele>
    <time>2026-06-24T05:28:35Z</time>
   </trkpt>
   <trkpt lat="-3.1656940" lon="37.3619700">
    <ele>2874.4</ele>
    <time>2026-06-24T05:28:36Z</time>
   </trkpt>
   <trkpt lat="-3.1656980" lon="37.3619680">
    <ele>2874.3</ele>
    <time>2026-06-24T05:28:37Z</time>
   </trkpt>
   <trkpt lat="-3.1656970" lon="37.3619660">
    <ele>2874.3</ele>
    <time>2026-06-24T05:28:38Z</time>
   </trkpt>
   <trkpt lat="-3.1656930" lon="37.3619650">
    <ele>2874.2</ele>
    <time>2026-06-24T05:28:39Z</time>
   </trkpt>
   <trkpt lat="-3.1656930" lon="37.3619640">
    <ele>2874.2</ele>
    <time>2026-06-24T05:28:40Z</time>
   </trkpt>
   <trkpt lat="-3.1656920" lon="37.3619630">
    <ele>2874.2</ele>
    <time>2026-06-24T05:28:41Z</time>
   </trkpt>
   <trkpt lat="-3.1656920" lon="37.3619630">
    <ele>2874.2</ele>
    <time>2026-06-24T05:28:42Z</time>
   </trkpt>
   <trkpt lat="-3.1656940" lon="37.3619560">
    <ele>2874.0</ele>
    <time>2026-06-24T05:28:43Z</time>
   </trkpt>
   <trkpt lat="-3.1656900" lon="37.3619610">
    <ele>2873.9</ele>
    <time>2026-06-24T05:28:44Z</time>
   </trkpt>
   <trkpt lat="-3.1656810" lon="37.3619690">
    <ele>2873.7</ele>
    <time>2026-06-24T05:28:45Z</time>
   </trkpt>
   <trkpt lat="-3.1656820" lon="37.3619710">
    <ele>2873.6</ele>
    <time>2026-06-24T05:28:46Z</time>
   </trkpt>
   <trkpt lat="-3.1656790" lon="37.3619790">
    <ele>2873.5</ele>
    <time>2026-06-24T05:28:47Z</time>
   </trkpt>
   <trkpt lat="-3.1656820" lon="37.3619780">
    <ele>2873.4</ele>
    <time>2026-06-24T05:28:48Z</time>
   </trkpt>
   <trkpt lat="-3.1656940" lon="37.3619770">
    <ele>2873.2</ele>
    <time>2026-06-24T05:28:49Z</time>
   </trkpt>
   <trkpt lat="-3.1657040" lon="37.3619730">
    <ele>2873.0</ele>
    <time>2026-06-24T05:28:50Z</time>
   </trkpt>
   <trkpt lat="-3.1657040" lon="37.3619740">
    <ele>2872.9</ele>
    <time>2026-06-24T05:28:51Z</time>
   </trkpt>
   <trkpt lat="-3.1657110" lon="37.3619700">
    <ele>2872.8</ele>
    <time>2026-06-24T05:28:52Z</time>
   </trkpt>
   <trkpt lat="-3.1657180" lon="37.3619680">
    <ele>2872.6</ele>
    <time>2026-06-24T05:28:53Z</time>
   </trkpt>
   <trkpt lat="-3.1657240" lon="37.3619660">
    <ele>2872.5</ele>
    <time>2026-06-24T05:28:54Z</time>
   </trkpt>
   <trkpt lat="-3.1657330" lon="37.3619590">
    <ele>2872.3</ele>
    <time>2026-06-24T05:28:55Z</time>
   </trkpt>
   <trkpt lat="-3.1657410" lon="37.3619540">
    <ele>2872.1</ele>
    <time>2026-06-24T05:28:56Z</time>
   </trkpt>
   <trkpt lat="-3.1657480" lon="37.3619520">
    <ele>2872.0</ele>
    <time>2026-06-24T05:28:57Z</time>
   </trkpt>
   <trkpt lat="-3.1657580" lon="37.3619430">
    <ele>2871.7</ele>
    <time>2026-06-24T05:28:58Z</time>
   </trkpt>
   <trkpt lat="-3.1657580" lon="37.3619360">
    <ele>2871.6</ele>
    <time>2026-06-24T05:28:59Z</time>
   </trkpt>
   <trkpt lat="-3.1657680" lon="37.3619310">
    <ele>2871.4</ele>
    <time>2026-06-24T05:29:00Z</time>
   </trkpt>
   <trkpt lat="-3.1657770" lon="37.3619250">
    <ele>2871.2</ele>
    <time>2026-06-24T05:29:01Z</time>
   </trkpt>
   <trkpt lat="-3.1657900" lon="37.3619150">
    <ele>2870.9</ele>
    <time>2026-06-24T05:29:02Z</time>
   </trkpt>
   <trkpt lat="-3.1657940" lon="37.3619130">
    <ele>2870.8</ele>
    <time>2026-06-24T05:29:03Z</time>
   </trkpt>
   <trkpt lat="-3.1657890" lon="37.3619120">
    <ele>2870.7</ele>
    <time>2026-06-24T05:29:04Z</time>
   </trkpt>
   <trkpt lat="-3.1657940" lon="37.3619100">
    <ele>2870.6</ele>
    <time>2026-06-24T05:29:05Z</time>
   </trkpt>
   <trkpt lat="-3.1658010" lon="37.3619050">
    <ele>2870.4</ele>
    <time>2026-06-24T05:29:06Z</time>
   </trkpt>
   <trkpt lat="-3.1658100" lon="37.3618970">
    <ele>2870.2</ele>
    <time>2026-06-24T05:29:07Z</time>
   </trkpt>
   <trkpt lat="-3.1658170" lon="37.3618950">
    <ele>2870.0</ele>
    <time>2026-06-24T05:29:08Z</time>
   </trkpt>
   <trkpt lat="-3.1658340" lon="37.3618900">
    <ele>2869.7</ele>
    <time>2026-06-24T05:29:09Z</time>
   </trkpt>
   <trkpt lat="-3.1658440" lon="37.3618820">
    <ele>2869.4</ele>
    <time>2026-06-24T05:29:10Z</time>
   </trkpt>
   <trkpt lat="-3.1658490" lon="37.3618800">
    <ele>2869.3</ele>
    <time>2026-06-24T05:29:11Z</time>
   </trkpt>
   <trkpt lat="-3.1658570" lon="37.3618760">
    <ele>2869.1</ele>
    <time>2026-06-24T05:29:12Z</time>
   </trkpt>
   <trkpt lat="-3.1658630" lon="37.3618750">
    <ele>2869.0</ele>
    <time>2026-06-24T05:29:13Z</time>
   </trkpt>
   <trkpt lat="-3.1658700" lon="37.3618750">
    <ele>2868.9</ele>
    <time>2026-06-24T05:29:14Z</time>
   </trkpt>
   <trkpt lat="-3.1658810" lon="37.3618700">
    <ele>2868.6</ele>
    <time>2026-06-24T05:29:15Z</time>
   </trkpt>
   <trkpt lat="-3.1658830" lon="37.3618630">
    <ele>2868.5</ele>
    <time>2026-06-24T05:29:16Z</time>
   </trkpt>
   <trkpt lat="-3.1658900" lon="37.3618590">
    <ele>2868.3</ele>
    <time>2026-06-24T05:29:17Z</time>
   </trkpt>
   <trkpt lat="-3.1658950" lon="37.3618530">
    <ele>2868.2</ele>
    <time>2026-06-24T05:29:18Z</time>
   </trkpt>
   <trkpt lat="-3.1658950" lon="37.3618510">
    <ele>2868.1</ele>
    <time>2026-06-24T05:29:19Z</time>
   </trkpt>
   <trkpt lat="-3.1658990" lon="37.3618430">
    <ele>2868.0</ele>
    <time>2026-06-24T05:29:20Z</time>
   </trkpt>
   <trkpt lat="-3.1659020" lon="37.3618430">
    <ele>2867.9</ele>
    <time>2026-06-24T05:29:21Z</time>
   </trkpt>
   <trkpt lat="-3.1659060" lon="37.3618510">
    <ele>2867.7</ele>
    <time>2026-06-24T05:29:22Z</time>
   </trkpt>
   <trkpt lat="-3.1659130" lon="37.3618450">
    <ele>2867.6</ele>
    <time>2026-06-24T05:29:23Z</time>
   </trkpt>
   <trkpt lat="-3.1659170" lon="37.3618440">
    <ele>2867.5</ele>
    <time>2026-06-24T05:29:24Z</time>
   </trkpt>
   <trkpt lat="-3.1659160" lon="37.3618500">
    <ele>2867.4</ele>
    <time>2026-06-24T05:29:25Z</time>
   </trkpt>
   <trkpt lat="-3.1659220" lon="37.3618540">
    <ele>2867.2</ele>
    <time>2026-06-24T05:29:26Z</time>
   </trkpt>
   <trkpt lat="-3.1659290" lon="37.3618510">
    <ele>2867.1</ele>
    <time>2026-06-24T05:29:27Z</time>
   </trkpt>
   <trkpt lat="-3.1659310" lon="37.3618500">
    <ele>2867.0</ele>
    <time>2026-06-24T05:29:28Z</time>
   </trkpt>
   <trkpt lat="-3.1659380" lon="37.3618480">
    <ele>2866.9</ele>
    <time>2026-06-24T05:29:29Z</time>
   </trkpt>
   <trkpt lat="-3.1659440" lon="37.3618430">
    <ele>2866.7</ele>
    <time>2026-06-24T05:29:30Z</time>
   </trkpt>
   <trkpt lat="-3.1659500" lon="37.3618390">
    <ele>2866.6</ele>
    <time>2026-06-24T05:29:31Z</time>
   </trkpt>
   <trkpt lat="-3.1659550" lon="37.3618340">
    <ele>2866.4</ele>
    <time>2026-06-24T05:29:32Z</time>
   </trkpt>
   <trkpt lat="-3.1659600" lon="37.3618330">
    <ele>2866.3</ele>
    <time>2026-06-24T05:29:33Z</time>
   </trkpt>
   <trkpt lat="-3.1659700" lon="37.3618320">
    <ele>2866.1</ele>
    <time>2026-06-24T05:29:34Z</time>
   </trkpt>
   <trkpt lat="-3.1659770" lon="37.3618280">
    <ele>2866.0</ele>
    <time>2026-06-24T05:29:35Z</time>
   </trkpt>
   <trkpt lat="-3.1659740" lon="37.3618340">
    <ele>2865.9</ele>
    <time>2026-06-24T05:29:36Z</time>
   </trkpt>
   <trkpt lat="-3.1659800" lon="37.3618290">
    <ele>2865.7</ele>
    <time>2026-06-24T05:29:37Z</time>
   </trkpt>
   <trkpt lat="-3.1659860" lon="37.3618270">
    <ele>2865.6</ele>
    <time>2026-06-24T05:29:38Z</time>
   </trkpt>
   <trkpt lat="-3.1659940" lon="37.3618240">
    <ele>2865.4</ele>
    <time>2026-06-24T05:29:39Z</time>
   </trkpt>
   <trkpt lat="-3.1660030" lon="37.3618200">
    <ele>2865.2</ele>
    <time>2026-06-24T05:29:40Z</time>
   </trkpt>
   <trkpt lat="-3.1660110" lon="37.3618160">
    <ele>2865.0</ele>
    <time>2026-06-24T05:29:41Z</time>
   </trkpt>
   <trkpt lat="-3.1660100" lon="37.3618170">
    <ele>2865.0</ele>
    <time>2026-06-24T05:29:42Z</time>
   </trkpt>
   <trkpt lat="-3.1660140" lon="37.3618170">
    <ele>2864.9</ele>
    <time>2026-06-24T05:29:43Z</time>
   </trkpt>
   <trkpt lat="-3.1660210" lon="37.3618120">
    <ele>2864.8</ele>
    <time>2026-06-24T05:29:44Z</time>
   </trkpt>
   <trkpt lat="-3.1660170" lon="37.3618080">
    <ele>2864.7</ele>
    <time>2026-06-24T05:29:45Z</time>
   </trkpt>
   <trkpt lat="-3.1660170" lon="37.3618040">
    <ele>2864.6</ele>
    <time>2026-06-24T05:29:46Z</time>
   </trkpt>
   <trkpt lat="-3.1660140" lon="37.3618080">
    <ele>2864.5</ele>
    <time>2026-06-24T05:29:47Z</time>
   </trkpt>
   <trkpt lat="-3.1660130" lon="37.3617990">
    <ele>2864.3</ele>
    <time>2026-06-24T05:29:48Z</time>
   </trkpt>
   <trkpt lat="-3.1660140" lon="37.3617890">
    <ele>2864.1</ele>
    <time>2026-06-24T05:29:49Z</time>
   </trkpt>
   <trkpt lat="-3.1660160" lon="37.3617880">
    <ele>2864.1</ele>
    <time>2026-06-24T05:29:50Z</time>
   </trkpt>
   <trkpt lat="-3.1660100" lon="37.3617920">
    <ele>2864.0</ele>
    <time>2026-06-24T05:29:51Z</time>
   </trkpt>
   <trkpt lat="-3.1660070" lon="37.3617830">
    <ele>2863.8</ele>
    <time>2026-06-24T05:29:52Z</time>
   </trkpt>
   <trkpt lat="-3.1660070" lon="37.3617710">
    <ele>2863.6</ele>
    <time>2026-06-24T05:29:53Z</time>
   </trkpt>
   <trkpt lat="-3.1660080" lon="37.3617740">
    <ele>2863.5</ele>
    <time>2026-06-24T05:29:54Z</time>
   </trkpt>
   <trkpt lat="-3.1660070" lon="37.3617750">
    <ele>2863.5</ele>
    <time>2026-06-24T05:29:55Z</time>
   </trkpt>
   <trkpt lat="-3.1660150" lon="37.3617750">
    <ele>2863.3</ele>
    <time>2026-06-24T05:29:56Z</time>
   </trkpt>
   <trkpt lat="-3.1660150" lon="37.3617770">
    <ele>2863.3</ele>
    <time>2026-06-24T05:29:57Z</time>
   </trkpt>
   <trkpt lat="-3.1660150" lon="37.3617760">
    <ele>2863.3</ele>
    <time>2026-06-24T05:29:58Z</time>
   </trkpt>
   <trkpt lat="-3.1660160" lon="37.3617750">
    <ele>2863.3</ele>
    <time>2026-06-24T05:29:59Z</time>
   </trkpt>
   <trkpt lat="-3.1660160" lon="37.3617750">
    <ele>2863.3</ele>
    <time>2026-06-24T05:30:00Z</time>
   </trkpt>
   <trkpt lat="-3.1660180" lon="37.3617720">
    <ele>2863.2</ele>
    <time>2026-06-24T05:30:01Z</time>
   </trkpt>
   <trkpt lat="-3.1660250" lon="37.3617680">
    <ele>2863.0</ele>
    <time>2026-06-24T05:30:02Z</time>
   </trkpt>
   <trkpt lat="-3.1660230" lon="37.3617710">
    <ele>2863.0</ele>
    <time>2026-06-24T05:30:03Z</time>
   </trkpt>
   <trkpt lat="-3.1660250" lon="37.3617690">
    <ele>2862.9</ele>
    <time>2026-06-24T05:30:04Z</time>
   </trkpt>
   <trkpt lat="-3.1660270" lon="37.3617700">
    <ele>2862.9</ele>
    <time>2026-06-24T05:30:05Z</time>
   </trkpt>
   <trkpt lat="-3.1660270" lon="37.3617720">
    <ele>2862.9</ele>
    <time>2026-06-24T05:30:06Z</time>
   </trkpt>
   <trkpt lat="-3.1660290" lon="37.3617740">
    <ele>2862.8</ele>
    <time>2026-06-24T05:30:07Z</time>
   </trkpt>
   <trkpt lat="-3.1660270" lon="37.3617710">
    <ele>2862.7</ele>
    <time>2026-06-24T05:30:08Z</time>
   </trkpt>
   <trkpt lat="-3.1660300" lon="37.3617680">
    <ele>2862.7</ele>
    <time>2026-06-24T05:30:09Z</time>
   </trkpt>
   <trkpt lat="-3.1660330" lon="37.3617650">
    <ele>2862.6</ele>
    <time>2026-06-24T05:30:10Z</time>
   </trkpt>
   <trkpt lat="-3.1660410" lon="37.3617610">
    <ele>2862.4</ele>
    <time>2026-06-24T05:30:11Z</time>
   </trkpt>
   <trkpt lat="-3.1660460" lon="37.3617570">
    <ele>2862.3</ele>
    <time>2026-06-24T05:30:12Z</time>
   </trkpt>
   <trkpt lat="-3.1660500" lon="37.3617590">
    <ele>2862.2</ele>
    <time>2026-06-24T05:30:13Z</time>
   </trkpt>
   <trkpt lat="-3.1660590" lon="37.3617550">
    <ele>2862.1</ele>
    <time>2026-06-24T05:30:14Z</time>
   </trkpt>
   <trkpt lat="-3.1660650" lon="37.3617590">
    <ele>2861.9</ele>
    <time>2026-06-24T05:30:15Z</time>
   </trkpt>
   <trkpt lat="-3.1660730" lon="37.3617550">
    <ele>2861.8</ele>
    <time>2026-06-24T05:30:16Z</time>
   </trkpt>
   <trkpt lat="-3.1660820" lon="37.3617460">
    <ele>2861.6</ele>
    <time>2026-06-24T05:30:17Z</time>
   </trkpt>
   <trkpt lat="-3.1660980" lon="37.3617400">
    <ele>2861.3</ele>
    <time>2026-06-24T05:30:18Z</time>
   </trkpt>
   <trkpt lat="-3.1661020" lon="37.3617370">
    <ele>2861.2</ele>
    <time>2026-06-24T05:30:19Z</time>
   </trkpt>
   <trkpt lat="-3.1661040" lon="37.3617310">
    <ele>2861.1</ele>
    <time>2026-06-24T05:30:20Z</time>
   </trkpt>
   <trkpt lat="-3.1661020" lon="37.3617290">
    <ele>2861.0</ele>
    <time>2026-06-24T05:30:21Z</time>
   </trkpt>
   <trkpt lat="-3.1661030" lon="37.3617230">
    <ele>2860.9</ele>
    <time>2026-06-24T05:30:22Z</time>
   </trkpt>
   <trkpt lat="-3.1661030" lon="37.3617150">
    <ele>2860.8</ele>
    <time>2026-06-24T05:30:23Z</time>
   </trkpt>
   <trkpt lat="-3.1661070" lon="37.3617080">
    <ele>2860.6</ele>
    <time>2026-06-24T05:30:24Z</time>
   </trkpt>
   <trkpt lat="-3.1661090" lon="37.3617030">
    <ele>2860.5</ele>
    <time>2026-06-24T05:30:25Z</time>
   </trkpt>
   <trkpt lat="-3.1661140" lon="37.3617020">
    <ele>2860.5</ele>
    <time>2026-06-24T05:30:26Z</time>
   </trkpt>
   <trkpt lat="-3.1661230" lon="37.3616960">
    <ele>2860.3</ele>
    <time>2026-06-24T05:30:27Z</time>
   </trkpt>
   <trkpt lat="-3.1661260" lon="37.3616980">
    <ele>2860.2</ele>
    <time>2026-06-24T05:30:28Z</time>
   </trkpt>
   <trkpt lat="-3.1661300" lon="37.3616930">
    <ele>2860.1</ele>
    <time>2026-06-24T05:30:29Z</time>
   </trkpt>
   <trkpt lat="-3.1661370" lon="37.3616930">
    <ele>2860.0</ele>
    <time>2026-06-24T05:30:30Z</time>
   </trkpt>
   <trkpt lat="-3.1661390" lon="37.3616900">
    <ele>2859.9</ele>
    <time>2026-06-24T05:30:31Z</time>
   </trkpt>
   <trkpt lat="-3.1661460" lon="37.3616860">
    <ele>2859.8</ele>
    <time>2026-06-24T05:30:32Z</time>
   </trkpt>
   <trkpt lat="-3.1661610" lon="37.3616760">
    <ele>2859.5</ele>
    <time>2026-06-24T05:30:33Z</time>
   </trkpt>
   <trkpt lat="-3.1661700" lon="37.3616720">
    <ele>2859.3</ele>
    <time>2026-06-24T05:30:34Z</time>
   </trkpt>
   <trkpt lat="-3.1661770" lon="37.3616660">
    <ele>2859.2</ele>
    <time>2026-06-24T05:30:35Z</time>
   </trkpt>
   <trkpt lat="-3.1661850" lon="37.3616590">
    <ele>2859.0</ele>
    <time>2026-06-24T05:30:36Z</time>
   </trkpt>
   <trkpt lat="-3.1661890" lon="37.3616500">
    <ele>2858.9</ele>
    <time>2026-06-24T05:30:37Z</time>
   </trkpt>
   <trkpt lat="-3.1661960" lon="37.3616400">
    <ele>2858.7</ele>
    <time>2026-06-24T05:30:38Z</time>
   </trkpt>
   <trkpt lat="-3.1662020" lon="37.3616290">
    <ele>2858.5</ele>
    <time>2026-06-24T05:30:39Z</time>
   </trkpt>
   <trkpt lat="-3.1662050" lon="37.3616260">
    <ele>2858.4</ele>
    <time>2026-06-24T05:30:40Z</time>
   </trkpt>
   <trkpt lat="-3.1662160" lon="37.3616200">
    <ele>2858.2</ele>
    <time>2026-06-24T05:30:41Z</time>
   </trkpt>
   <trkpt lat="-3.1662260" lon="37.3616130">
    <ele>2858.0</ele>
    <time>2026-06-24T05:30:42Z</time>
   </trkpt>
   <trkpt lat="-3.1662280" lon="37.3616150">
    <ele>2858.0</ele>
    <time>2026-06-24T05:30:43Z</time>
   </trkpt>
   <trkpt lat="-3.1662330" lon="37.3616130">
    <ele>2857.9</ele>
    <time>2026-06-24T05:30:44Z</time>
   </trkpt>
   <trkpt lat="-3.1662370" lon="37.3616070">
    <ele>2857.8</ele>
    <time>2026-06-24T05:30:45Z</time>
   </trkpt>
   <trkpt lat="-3.1662420" lon="37.3615970">
    <ele>2857.7</ele>
    <time>2026-06-24T05:30:46Z</time>
   </trkpt>
   <trkpt lat="-3.1662440" lon="37.3615870">
    <ele>2857.5</ele>
    <time>2026-06-24T05:30:47Z</time>
   </trkpt>
   <trkpt lat="-3.1662450" lon="37.3615830">
    <ele>2857.5</ele>
    <time>2026-06-24T05:30:48Z</time>
   </trkpt>
   <trkpt lat="-3.1662510" lon="37.3615770">
    <ele>2857.4</ele>
    <time>2026-06-24T05:30:49Z</time>
   </trkpt>
   <trkpt lat="-3.1662520" lon="37.3615710">
    <ele>2857.3</ele>
    <time>2026-06-24T05:30:50Z</time>
   </trkpt>
   <trkpt lat="-3.1662570" lon="37.3615610">
    <ele>2857.2</ele>
    <time>2026-06-24T05:30:51Z</time>
   </trkpt>
   <trkpt lat="-3.1662580" lon="37.3615590">
    <ele>2857.1</ele>
    <time>2026-06-24T05:30:52Z</time>
   </trkpt>
   <trkpt lat="-3.1662560" lon="37.3615580">
    <ele>2857.1</ele>
    <time>2026-06-24T05:30:53Z</time>
   </trkpt>
   <trkpt lat="-3.1662540" lon="37.3615530">
    <ele>2857.1</ele>
    <time>2026-06-24T05:30:54Z</time>
   </trkpt>
   <trkpt lat="-3.1662520" lon="37.3615580">
    <ele>2857.0</ele>
    <time>2026-06-24T05:30:55Z</time>
   </trkpt>
   <trkpt lat="-3.1662510" lon="37.3615490">
    <ele>2856.9</ele>
    <time>2026-06-24T05:30:56Z</time>
   </trkpt>
   <trkpt lat="-3.1662610" lon="37.3615400">
    <ele>2856.7</ele>
    <time>2026-06-24T05:30:57Z</time>
   </trkpt>
   <trkpt lat="-3.1662650" lon="37.3615400">
    <ele>2856.7</ele>
    <time>2026-06-24T05:30:58Z</time>
   </trkpt>
   <trkpt lat="-3.1662670" lon="37.3615370">
    <ele>2856.7</ele>
    <time>2026-06-24T05:30:59Z</time>
   </trkpt>
   <trkpt lat="-3.1662700" lon="37.3615240">
    <ele>2856.5</ele>
    <time>2026-06-24T05:31:00Z</time>
   </trkpt>
   <trkpt lat="-3.1662690" lon="37.3615200">
    <ele>2856.5</ele>
    <time>2026-06-24T05:31:01Z</time>
   </trkpt>
   <trkpt lat="-3.1662720" lon="37.3615100">
    <ele>2856.4</ele>
    <time>2026-06-24T05:31:02Z</time>
   </trkpt>
   <trkpt lat="-3.1662740" lon="37.3614970">
    <ele>2856.3</ele>
    <time>2026-06-24T05:31:03Z</time>
   </trkpt>
   <trkpt lat="-3.1662800" lon="37.3614890">
    <ele>2856.2</ele>
    <time>2026-06-24T05:31:04Z</time>
   </trkpt>
   <trkpt lat="-3.1662840" lon="37.3614800">
    <ele>2856.1</ele>
    <time>2026-06-24T05:31:05Z</time>
   </trkpt>
   <trkpt lat="-3.1662910" lon="37.3614700">
    <ele>2856.0</ele>
    <time>2026-06-24T05:31:06Z</time>
   </trkpt>
   <trkpt lat="-3.1662930" lon="37.3614630">
    <ele>2855.9</ele>
    <time>2026-06-24T05:31:07Z</time>
   </trkpt>
   <trkpt lat="-3.1662940" lon="37.3614560">
    <ele>2855.9</ele>
    <time>2026-06-24T05:31:08Z</time>
   </trkpt>
   <trkpt lat="-3.1662970" lon="37.3614500">
    <ele>2855.8</ele>
    <time>2026-06-24T05:31:09Z</time>
   </trkpt>
   <trkpt lat="-3.1663040" lon="37.3614420">
    <ele>2855.8</ele>
    <time>2026-06-24T05:31:10Z</time>
   </trkpt>
   <trkpt lat="-3.1663020" lon="37.3614400">
    <ele>2855.7</ele>
    <time>2026-06-24T05:31:11Z</time>
   </trkpt>
   <trkpt lat="-3.1663050" lon="37.3614430">
    <ele>2855.7</ele>
    <time>2026-06-24T05:31:12Z</time>
   </trkpt>
   <trkpt lat="-3.1663090" lon="37.3614300">
    <ele>2855.6</ele>
    <time>2026-06-24T05:31:13Z</time>
   </trkpt>
   <trkpt lat="-3.1663080" lon="37.3614220">
    <ele>2855.5</ele>
    <time>2026-06-24T05:31:14Z</time>
   </trkpt>
   <trkpt lat="-3.1663080" lon="37.3614160">
    <ele>2855.5</ele>
    <time>2026-06-24T05:31:15Z</time>
   </trkpt>
   <trkpt lat="-3.1663090" lon="37.3614090">
    <ele>2855.4</ele>
    <time>2026-06-24T05:31:16Z</time>
   </trkpt>
   <trkpt lat="-3.1663120" lon="37.3614070">
    <ele>2855.4</ele>
    <time>2026-06-24T05:31:17Z</time>
   </trkpt>
   <trkpt lat="-3.1663180" lon="37.3613900">
    <ele>2855.2</ele>
    <time>2026-06-24T05:31:18Z</time>
   </trkpt>
   <trkpt lat="-3.1663220" lon="37.3613710">
    <ele>2855.0</ele>
    <time>2026-06-24T05:31:19Z</time>
   </trkpt>
   <trkpt lat="-3.1663220" lon="37.3613630">
    <ele>2854.9</ele>
    <time>2026-06-24T05:31:20Z</time>
   </trkpt>
   <trkpt lat="-3.1663260" lon="37.3613530">
    <ele>2854.8</ele>
    <time>2026-06-24T05:31:21Z</time>
   </trkpt>
   <trkpt lat="-3.1663220" lon="37.3613510">
    <ele>2854.8</ele>
    <time>2026-06-24T05:31:22Z</time>
   </trkpt>
   <trkpt lat="-3.1663230" lon="37.3613380">
    <ele>2854.6</ele>
    <time>2026-06-24T05:31:23Z</time>
   </trkpt>
   <trkpt lat="-3.1663150" lon="37.3613450">
    <ele>2854.5</ele>
    <time>2026-06-24T05:31:24Z</time>
   </trkpt>
   <trkpt lat="-3.1663100" lon="37.3613450">
    <ele>2854.4</ele>
    <time>2026-06-24T05:31:25Z</time>
   </trkpt>
   <trkpt lat="-3.1663090" lon="37.3613450">
    <ele>2854.4</ele>
    <time>2026-06-24T05:31:26Z</time>
   </trkpt>
   <trkpt lat="-3.1663060" lon="37.3613460">
    <ele>2854.3</ele>
    <time>2026-06-24T05:31:27Z</time>
   </trkpt>
   <trkpt lat="-3.1663060" lon="37.3613400">
    <ele>2854.3</ele>
    <time>2026-06-24T05:31:28Z</time>
   </trkpt>
   <trkpt lat="-3.1663090" lon="37.3613360">
    <ele>2854.2</ele>
    <time>2026-06-24T05:31:29Z</time>
   </trkpt>
   <trkpt lat="-3.1663060" lon="37.3613390">
    <ele>2854.1</ele>
    <time>2026-06-24T05:31:30Z</time>
   </trkpt>
   <trkpt lat="-3.1663050" lon="37.3613330">
    <ele>2854.1</ele>
    <time>2026-06-24T05:31:31Z</time>
   </trkpt>
   <trkpt lat="-3.1663100" lon="37.3613220">
    <ele>2853.9</ele>
    <time>2026-06-24T05:31:32Z</time>
   </trkpt>
   <trkpt lat="-3.1663140" lon="37.3613080">
    <ele>2853.6</ele>
    <time>2026-06-24T05:31:33Z</time>
   </trkpt>
   <trkpt lat="-3.1663140" lon="37.3612930">
    <ele>2853.4</ele>
    <time>2026-06-24T05:31:34Z</time>
   </trkpt>
   <trkpt lat="-3.1663150" lon="37.3612820">
    <ele>2853.2</ele>
    <time>2026-06-24T05:31:35Z</time>
   </trkpt>
   <trkpt lat="-3.1663170" lon="37.3612700">
    <ele>2852.9</ele>
    <time>2026-06-24T05:31:36Z</time>
   </trkpt>
   <trkpt lat="-3.1663150" lon="37.3612510">
    <ele>2852.6</ele>
    <time>2026-06-24T05:31:37Z</time>
   </trkpt>
   <trkpt lat="-3.1663130" lon="37.3612300">
    <ele>2852.2</ele>
    <time>2026-06-24T05:31:38Z</time>
   </trkpt>
   <trkpt lat="-3.1663090" lon="37.3612200">
    <ele>2852.0</ele>
    <time>2026-06-24T05:31:39Z</time>
   </trkpt>
   <trkpt lat="-3.1663040" lon="37.3612100">
    <ele>2851.8</ele>
    <time>2026-06-24T05:31:40Z</time>
   </trkpt>
   <trkpt lat="-3.1663010" lon="37.3612000">
    <ele>2851.6</ele>
    <time>2026-06-24T05:31:41Z</time>
   </trkpt>
   <trkpt lat="-3.1662980" lon="37.3611960">
    <ele>2851.5</ele>
    <time>2026-06-24T05:31:42Z</time>
   </trkpt>
   <trkpt lat="-3.1662980" lon="37.3611860">
    <ele>2851.3</ele>
    <time>2026-06-24T05:31:43Z</time>
   </trkpt>
   <trkpt lat="-3.1662950" lon="37.3611790">
    <ele>2851.1</ele>
    <time>2026-06-24T05:31:44Z</time>
   </trkpt>
   <trkpt lat="-3.1662990" lon="37.3611690">
    <ele>2850.9</ele>
    <time>2026-06-24T05:31:45Z</time>
   </trkpt>
   <trkpt lat="-3.1663030" lon="37.3611570">
    <ele>2850.7</ele>
    <time>2026-06-24T05:31:46Z</time>
   </trkpt>
   <trkpt lat="-3.1663070" lon="37.3611430">
    <ele>2850.4</ele>
    <time>2026-06-24T05:31:47Z</time>
   </trkpt>
   <trkpt lat="-3.1663090" lon="37.3611390">
    <ele>2850.3</ele>
    <time>2026-06-24T05:31:48Z</time>
   </trkpt>
   <trkpt lat="-3.1663070" lon="37.3611350">
    <ele>2850.2</ele>
    <time>2026-06-24T05:31:49Z</time>
   </trkpt>
   <trkpt lat="-3.1663080" lon="37.3611340">
    <ele>2850.2</ele>
    <time>2026-06-24T05:31:50Z</time>
   </trkpt>
   <trkpt lat="-3.1663180" lon="37.3611200">
    <ele>2849.9</ele>
    <time>2026-06-24T05:31:51Z</time>
   </trkpt>
   <trkpt lat="-3.1663210" lon="37.3611150">
    <ele>2849.8</ele>
    <time>2026-06-24T05:31:52Z</time>
   </trkpt>
   <trkpt lat="-3.1663240" lon="37.3611090">
    <ele>2849.7</ele>
    <time>2026-06-24T05:31:53Z</time>
   </trkpt>
   <trkpt lat="-3.1663250" lon="37.3611130">
    <ele>2849.6</ele>
    <time>2026-06-24T05:31:54Z</time>
   </trkpt>
   <trkpt lat="-3.1663290" lon="37.3611000">
    <ele>2849.3</ele>
    <time>2026-06-24T05:31:55Z</time>
   </trkpt>
   <trkpt lat="-3.1663330" lon="37.3610900">
    <ele>2849.2</ele>
    <time>2026-06-24T05:31:56Z</time>
   </trkpt>
   <trkpt lat="-3.1663350" lon="37.3610880">
    <ele>2849.1</ele>
    <time>2026-06-24T05:31:57Z</time>
   </trkpt>
   <trkpt lat="-3.1663360" lon="37.3610850">
    <ele>2849.1</ele>
    <time>2026-06-24T05:31:58Z</time>
   </trkpt>
   <trkpt lat="-3.1663370" lon="37.3610810">
    <ele>2849.0</ele>
    <time>2026-06-24T05:31:59Z</time>
   </trkpt>
   <trkpt lat="-3.1663420" lon="37.3610740">
    <ele>2848.9</ele>
    <time>2026-06-24T05:32:00Z</time>
   </trkpt>
   <trkpt lat="-3.1663430" lon="37.3610690">
    <ele>2848.8</ele>
    <time>2026-06-24T05:32:01Z</time>
   </trkpt>
   <trkpt lat="-3.1663440" lon="37.3610690">
    <ele>2848.8</ele>
    <time>2026-06-24T05:32:02Z</time>
   </trkpt>
   <trkpt lat="-3.1663480" lon="37.3610610">
    <ele>2848.6</ele>
    <time>2026-06-24T05:32:03Z</time>
   </trkpt>
   <trkpt lat="-3.1663490" lon="37.3610560">
    <ele>2848.5</ele>
    <time>2026-06-24T05:32:04Z</time>
   </trkpt>
   <trkpt lat="-3.1663490" lon="37.3610570">
    <ele>2848.5</ele>
    <time>2026-06-24T05:32:05Z</time>
   </trkpt>
   <trkpt lat="-3.1663490" lon="37.3610570">
    <ele>2848.5</ele>
    <time>2026-06-24T05:32:06Z</time>
   </trkpt>
   <trkpt lat="-3.1663440" lon="37.3610510">
    <ele>2848.4</ele>
    <time>2026-06-24T05:32:07Z</time>
   </trkpt>
   <trkpt lat="-3.1663470" lon="37.3610380">
    <ele>2848.2</ele>
    <time>2026-06-24T05:32:08Z</time>
   </trkpt>
   <trkpt lat="-3.1663560" lon="37.3610250">
    <ele>2848.0</ele>
    <time>2026-06-24T05:32:09Z</time>
   </trkpt>
   <trkpt lat="-3.1663580" lon="37.3610250">
    <ele>2848.0</ele>
    <time>2026-06-24T05:32:10Z</time>
   </trkpt>
   <trkpt lat="-3.1663550" lon="37.3610190">
    <ele>2847.9</ele>
    <time>2026-06-24T05:32:11Z</time>
   </trkpt>
   <trkpt lat="-3.1663540" lon="37.3610150">
    <ele>2847.8</ele>
    <time>2026-06-24T05:32:12Z</time>
   </trkpt>
   <trkpt lat="-3.1663530" lon="37.3610120">
    <ele>2847.8</ele>
    <time>2026-06-24T05:32:13Z</time>
   </trkpt>
   <trkpt lat="-3.1663490" lon="37.3610000">
    <ele>2847.6</ele>
    <time>2026-06-24T05:32:14Z</time>
   </trkpt>
   <trkpt lat="-3.1663480" lon="37.3609920">
    <ele>2847.5</ele>
    <time>2026-06-24T05:32:15Z</time>
   </trkpt>
   <trkpt lat="-3.1663480" lon="37.3610020">
    <ele>2847.4</ele>
    <time>2026-06-24T05:32:16Z</time>
   </trkpt>
   <trkpt lat="-3.1663530" lon="37.3609990">
    <ele>2847.3</ele>
    <time>2026-06-24T05:32:17Z</time>
   </trkpt>
   <trkpt lat="-3.1663540" lon="37.3610060">
    <ele>2847.2</ele>
    <time>2026-06-24T05:32:18Z</time>
   </trkpt>
   <trkpt lat="-3.1663610" lon="37.3609940">
    <ele>2847.1</ele>
    <time>2026-06-24T05:32:19Z</time>
   </trkpt>
   <trkpt lat="-3.1663660" lon="37.3609900">
    <ele>2847.0</ele>
    <time>2026-06-24T05:32:20Z</time>
   </trkpt>
   <trkpt lat="-3.1663670" lon="37.3609850">
    <ele>2846.9</ele>
    <time>2026-06-24T05:32:21Z</time>
   </trkpt>
   <trkpt lat="-3.1663720" lon="37.3609760">
    <ele>2846.8</ele>
    <time>2026-06-24T05:32:22Z</time>
   </trkpt>
   <trkpt lat="-3.1663700" lon="37.3609800">
    <ele>2846.8</ele>
    <time>2026-06-24T05:32:23Z</time>
   </trkpt>
   <trkpt lat="-3.1663750" lon="37.3609810">
    <ele>2846.7</ele>
    <time>2026-06-24T05:32:24Z</time>
   </trkpt>
   <trkpt lat="-3.1663780" lon="37.3609780">
    <ele>2846.7</ele>
    <time>2026-06-24T05:32:25Z</time>
   </trkpt>
   <trkpt lat="-3.1663800" lon="37.3609770">
    <ele>2846.7</ele>
    <time>2026-06-24T05:32:26Z</time>
   </trkpt>
   <trkpt lat="-3.1663850" lon="37.3609710">
    <ele>2846.6</ele>
    <time>2026-06-24T05:32:27Z</time>
   </trkpt>
   <trkpt lat="-3.1663930" lon="37.3609660">
    <ele>2846.5</ele>
    <time>2026-06-24T05:32:28Z</time>
   </trkpt>
   <trkpt lat="-3.1663980" lon="37.3609580">
    <ele>2846.4</ele>
    <time>2026-06-24T05:32:29Z</time>
   </trkpt>
   <trkpt lat="-3.1664040" lon="37.3609520">
    <ele>2846.3</ele>
    <time>2026-06-24T05:32:30Z</time>
   </trkpt>
   <trkpt lat="-3.1664040" lon="37.3609510">
    <ele>2846.3</ele>
    <time>2026-06-24T05:32:31Z</time>
   </trkpt>
   <trkpt lat="-3.1664060" lon="37.3609420">
    <ele>2846.2</ele>
    <time>2026-06-24T05:32:32Z</time>
   </trkpt>
   <trkpt lat="-3.1664090" lon="37.3609360">
    <ele>2846.2</ele>
    <time>2026-06-24T05:32:33Z</time>
   </trkpt>
   <trkpt lat="-3.1664150" lon="37.3609310">
    <ele>2846.1</ele>
    <time>2026-06-24T05:32:34Z</time>
   </trkpt>
   <trkpt lat="-3.1664250" lon="37.3609240">
    <ele>2846.0</ele>
    <time>2026-06-24T05:32:35Z</time>
   </trkpt>
   <trkpt lat="-3.1664320" lon="37.3609180">
    <ele>2845.9</ele>
    <time>2026-06-24T05:32:36Z</time>
   </trkpt>
   <trkpt lat="-3.1664380" lon="37.3609090">
    <ele>2845.8</ele>
    <time>2026-06-24T05:32:37Z</time>
   </trkpt>
   <trkpt lat="-3.1664460" lon="37.3609020">
    <ele>2845.7</ele>
    <time>2026-06-24T05:32:38Z</time>
   </trkpt>
   <trkpt lat="-3.1664540" lon="37.3608910">
    <ele>2845.6</ele>
    <time>2026-06-24T05:32:39Z</time>
   </trkpt>
   <trkpt lat="-3.1664590" lon="37.3608840">
    <ele>2845.6</ele>
    <time>2026-06-24T05:32:40Z</time>
   </trkpt>
   <trkpt lat="-3.1664650" lon="37.3608730">
    <ele>2845.5</ele>
    <time>2026-06-24T05:32:41Z</time>
   </trkpt>
   <trkpt lat="-3.1664730" lon="37.3608620">
    <ele>2845.4</ele>
    <time>2026-06-24T05:32:42Z</time>
   </trkpt>
   <trkpt lat="-3.1664810" lon="37.3608480">
    <ele>2845.2</ele>
    <time>2026-06-24T05:32:43Z</time>
   </trkpt>
   <trkpt lat="-3.1664840" lon="37.3608420">
    <ele>2845.2</ele>
    <time>2026-06-24T05:32:44Z</time>
   </trkpt>
   <trkpt lat="-3.1664850" lon="37.3608390">
    <ele>2845.2</ele>
    <time>2026-06-24T05:32:45Z</time>
   </trkpt>
   <trkpt lat="-3.1664870" lon="37.3608380">
    <ele>2845.2</ele>
    <time>2026-06-24T05:32:46Z</time>
   </trkpt>
   <trkpt lat="-3.1664910" lon="37.3608330">
    <ele>2845.1</ele>
    <time>2026-06-24T05:32:47Z</time>
   </trkpt>
   <trkpt lat="-3.1664950" lon="37.3608270">
    <ele>2845.1</ele>
    <time>2026-06-24T05:32:48Z</time>
   </trkpt>
   <trkpt lat="-3.1665010" lon="37.3608180">
    <ele>2845.0</ele>
    <time>2026-06-24T05:32:49Z</time>
   </trkpt>
   <trkpt lat="-3.1665110" lon="37.3608060">
    <ele>2844.9</ele>
    <time>2026-06-24T05:32:50Z</time>
   </trkpt>
   <trkpt lat="-3.1665110" lon="37.3607950">
    <ele>2844.8</ele>
    <time>2026-06-24T05:32:51Z</time>
   </trkpt>
   <trkpt lat="-3.1665160" lon="37.3607850">
    <ele>2844.7</ele>
    <time>2026-06-24T05:32:52Z</time>
   </trkpt>
   <trkpt lat="-3.1665250" lon="37.3607800">
    <ele>2844.6</ele>
    <time>2026-06-24T05:32:53Z</time>
   </trkpt>
   <trkpt lat="-3.1665310" lon="37.3607640">
    <ele>2844.5</ele>
    <time>2026-06-24T05:32:54Z</time>
   </trkpt>
   <trkpt lat="-3.1665360" lon="37.3607500">
    <ele>2844.4</ele>
    <time>2026-06-24T05:32:55Z</time>
   </trkpt>
   <trkpt lat="-3.1665380" lon="37.3607430">
    <ele>2844.4</ele>
    <time>2026-06-24T05:32:56Z</time>
   </trkpt>
   <trkpt lat="-3.1665410" lon="37.3607350">
    <ele>2844.3</ele>
    <time>2026-06-24T05:32:57Z</time>
   </trkpt>
   <trkpt lat="-3.1665450" lon="37.3607280">
    <ele>2844.3</ele>
    <time>2026-06-24T05:32:58Z</time>
   </trkpt>
   <trkpt lat="-3.1665500" lon="37.3607230">
    <ele>2844.2</ele>
    <time>2026-06-24T05:32:59Z</time>
   </trkpt>
   <trkpt lat="-3.1665530" lon="37.3607130">
    <ele>2844.1</ele>
    <time>2026-06-24T05:33:00Z</time>
   </trkpt>
   <trkpt lat="-3.1665560" lon="37.3607010">
    <ele>2844.1</ele>
    <time>2026-06-24T05:33:01Z</time>
   </trkpt>
   <trkpt lat="-3.1665600" lon="37.3606950">
    <ele>2844.0</ele>
    <time>2026-06-24T05:33:02Z</time>
   </trkpt>
   <trkpt lat="-3.1665670" lon="37.3606840">
    <ele>2843.9</ele>
    <time>2026-06-24T05:33:03Z</time>
   </trkpt>
   <trkpt lat="-3.1665650" lon="37.3606840">
    <ele>2843.9</ele>
    <time>2026-06-24T05:33:04Z</time>
   </trkpt>
   <trkpt lat="-3.1665650" lon="37.3606810">
    <ele>2843.9</ele>
    <time>2026-06-24T05:33:05Z</time>
   </trkpt>
   <trkpt lat="-3.1665660" lon="37.3606810">
    <ele>2843.9</ele>
    <time>2026-06-24T05:33:06Z</time>
   </trkpt>
   <trkpt lat="-3.1665680" lon="37.3606750">
    <ele>2843.8</ele>
    <time>2026-06-24T05:33:07Z</time>
   </trkpt>
   <trkpt lat="-3.1665740" lon="37.3606740">
    <ele>2843.8</ele>
    <time>2026-06-24T05:33:08Z</time>
   </trkpt>
   <trkpt lat="-3.1665760" lon="37.3606700">
    <ele>2843.8</ele>
    <time>2026-06-24T05:33:09Z</time>
   </trkpt>
   <trkpt lat="-3.1665840" lon="37.3606720">
    <ele>2843.7</ele>
    <time>2026-06-24T05:33:10Z</time>
   </trkpt>
   <trkpt lat="-3.1665850" lon="37.3606650">
    <ele>2843.7</ele>
    <time>2026-06-24T05:33:11Z</time>
   </trkpt>
   <trkpt lat="-3.1665860" lon="37.3606550">
    <ele>2843.6</ele>
    <time>2026-06-24T05:33:12Z</time>
   </trkpt>
   <trkpt lat="-3.1665910" lon="37.3606450">
    <ele>2843.5</ele>
    <time>2026-06-24T05:33:13Z</time>
   </trkpt>
   <trkpt lat="-3.1665930" lon="37.3606360">
    <ele>2843.5</ele>
    <time>2026-06-24T05:33:14Z</time>
   </trkpt>
   <trkpt lat="-3.1665860" lon="37.3606290">
    <ele>2843.4</ele>
    <time>2026-06-24T05:33:15Z</time>
   </trkpt>
   <trkpt lat="-3.1665860" lon="37.3606200">
    <ele>2843.3</ele>
    <time>2026-06-24T05:33:16Z</time>
   </trkpt>
   <trkpt lat="-3.1665880" lon="37.3606070">
    <ele>2843.2</ele>
    <time>2026-06-24T05:33:17Z</time>
   </trkpt>
   <trkpt lat="-3.1665900" lon="37.3605970">
    <ele>2843.2</ele>
    <time>2026-06-24T05:33:18Z</time>
   </trkpt>
   <trkpt lat="-3.1665880" lon="37.3605870">
    <ele>2843.1</ele>
    <time>2026-06-24T05:33:19Z</time>
   </trkpt>
   <trkpt lat="-3.1665820" lon="37.3605830">
    <ele>2843.1</ele>
    <time>2026-06-24T05:33:20Z</time>
   </trkpt>
   <trkpt lat="-3.1665810" lon="37.3605740">
    <ele>2843.0</ele>
    <time>2026-06-24T05:33:21Z</time>
   </trkpt>
   <trkpt lat="-3.1665830" lon="37.3605680">
    <ele>2843.0</ele>
    <time>2026-06-24T05:33:22Z</time>
   </trkpt>
   <trkpt lat="-3.1665880" lon="37.3605610">
    <ele>2842.9</ele>
    <time>2026-06-24T05:33:23Z</time>
   </trkpt>
   <trkpt lat="-3.1665890" lon="37.3605490">
    <ele>2842.8</ele>
    <time>2026-06-24T05:33:24Z</time>
   </trkpt>
   <trkpt lat="-3.1665900" lon="37.3605400">
    <ele>2842.8</ele>
    <time>2026-06-24T05:33:25Z</time>
   </trkpt>
   <trkpt lat="-3.1665890" lon="37.3605360">
    <ele>2842.8</ele>
    <time>2026-06-24T05:33:26Z</time>
   </trkpt>
   <trkpt lat="-3.1665950" lon="37.3605270">
    <ele>2842.7</ele>
    <time>2026-06-24T05:33:27Z</time>
   </trkpt>
   <trkpt lat="-3.1666010" lon="37.3605140">
    <ele>2842.6</ele>
    <time>2026-06-24T05:33:28Z</time>
   </trkpt>
   <trkpt lat="-3.1666060" lon="37.3605030">
    <ele>2842.5</ele>
    <time>2026-06-24T05:33:29Z</time>
   </trkpt>
   <trkpt lat="-3.1666110" lon="37.3604970">
    <ele>2842.5</ele>
    <time>2026-06-24T05:33:30Z</time>
   </trkpt>
   <trkpt lat="-3.1666160" lon="37.3604900">
    <ele>2842.5</ele>
    <time>2026-06-24T05:33:31Z</time>
   </trkpt>
   <trkpt lat="-3.1666230" lon="37.3604870">
    <ele>2842.4</ele>
    <time>2026-06-24T05:33:32Z</time>
   </trkpt>
   <trkpt lat="-3.1666250" lon="37.3604930">
    <ele>2842.4</ele>
    <time>2026-06-24T05:33:33Z</time>
   </trkpt>
   <trkpt lat="-3.1666330" lon="37.3604910">
    <ele>2842.3</ele>
    <time>2026-06-24T05:33:34Z</time>
   </trkpt>
   <trkpt lat="-3.1666350" lon="37.3604930">
    <ele>2842.3</ele>
    <time>2026-06-24T05:33:35Z</time>
   </trkpt>
   <trkpt lat="-3.1666460" lon="37.3604880">
    <ele>2842.3</ele>
    <time>2026-06-24T05:33:36Z</time>
   </trkpt>
   <trkpt lat="-3.1666480" lon="37.3604820">
    <ele>2842.2</ele>
    <time>2026-06-24T05:33:37Z</time>
   </trkpt>
   <trkpt lat="-3.1666570" lon="37.3604760">
    <ele>2842.2</ele>
    <time>2026-06-24T05:33:38Z</time>
   </trkpt>
   <trkpt lat="-3.1666650" lon="37.3604670">
    <ele>2842.1</ele>
    <time>2026-06-24T05:33:39Z</time>
   </trkpt>
   <trkpt lat="-3.1666740" lon="37.3604580">
    <ele>2842.1</ele>
    <time>2026-06-24T05:33:40Z</time>
   </trkpt>
   <trkpt lat="-3.1666790" lon="37.3604430">
    <ele>2842.0</ele>
    <time>2026-06-24T05:33:41Z</time>
   </trkpt>
   <trkpt lat="-3.1666810" lon="37.3604370">
    <ele>2842.0</ele>
    <time>2026-06-24T05:33:42Z</time>
   </trkpt>
   <trkpt lat="-3.1666820" lon="37.3604320">
    <ele>2841.9</ele>
    <time>2026-06-24T05:33:43Z</time>
   </trkpt>
   <trkpt lat="-3.1666800" lon="37.3604280">
    <ele>2841.9</ele>
    <time>2026-06-24T05:33:44Z</time>
   </trkpt>
   <trkpt lat="-3.1666840" lon="37.3604210">
    <ele>2841.9</ele>
    <time>2026-06-24T05:33:45Z</time>
   </trkpt>
   <trkpt lat="-3.1666990" lon="37.3604080">
    <ele>2841.8</ele>
    <time>2026-06-24T05:33:46Z</time>
   </trkpt>
   <trkpt lat="-3.1667120" lon="37.3604030">
    <ele>2841.7</ele>
    <time>2026-06-24T05:33:47Z</time>
   </trkpt>
   <trkpt lat="-3.1667230" lon="37.3603910">
    <ele>2841.7</ele>
    <time>2026-06-24T05:33:48Z</time>
   </trkpt>
   <trkpt lat="-3.1667310" lon="37.3603860">
    <ele>2841.7</ele>
    <time>2026-06-24T05:33:49Z</time>
   </trkpt>
   <trkpt lat="-3.1667420" lon="37.3603770">
    <ele>2841.6</ele>
    <time>2026-06-24T05:33:50Z</time>
   </trkpt>
   <trkpt lat="-3.1667510" lon="37.3603690">
    <ele>2841.6</ele>
    <time>2026-06-24T05:33:51Z</time>
   </trkpt>
   <trkpt lat="-3.1667620" lon="37.3603580">
    <ele>2841.5</ele>
    <time>2026-06-24T05:33:52Z</time>
   </trkpt>
   <trkpt lat="-3.1667580" lon="37.3603500">
    <ele>2841.5</ele>
    <time>2026-06-24T05:33:53Z</time>
   </trkpt>
   <trkpt lat="-3.1667640" lon="37.3603430">
    <ele>2841.4</ele>
    <time>2026-06-24T05:33:54Z</time>
   </trkpt>
   <trkpt lat="-3.1667720" lon="37.3603300">
    <ele>2841.4</ele>
    <time>2026-06-24T05:33:55Z</time>
   </trkpt>
   <trkpt lat="-3.1667840" lon="37.3603120">
    <ele>2841.3</ele>
    <time>2026-06-24T05:33:56Z</time>
   </trkpt>
   <trkpt lat="-3.1667970" lon="37.3603020">
    <ele>2841.2</ele>
    <time>2026-06-24T05:33:57Z</time>
   </trkpt>
   <trkpt lat="-3.1668090" lon="37.3602870">
    <ele>2841.2</ele>
    <time>2026-06-24T05:33:58Z</time>
   </trkpt>
   <trkpt lat="-3.1668100" lon="37.3602880">
    <ele>2841.2</ele>
    <time>2026-06-24T05:33:59Z</time>
   </trkpt>
   <trkpt lat="-3.1668130" lon="37.3602830">
    <ele>2841.1</ele>
    <time>2026-06-24T05:34:00Z</time>
   </trkpt>
   <trkpt lat="-3.1668220" lon="37.3602760">
    <ele>2841.1</ele>
    <time>2026-06-24T05:34:01Z</time>
   </trkpt>
   <trkpt lat="-3.1668360" lon="37.3602670">
    <ele>2841.0</ele>
    <time>2026-06-24T05:34:02Z</time>
   </trkpt>
   <trkpt lat="-3.1668510" lon="37.3602570">
    <ele>2841.0</ele>
    <time>2026-06-24T05:34:03Z</time>
   </trkpt>
   <trkpt lat="-3.1668570" lon="37.3602500">
    <ele>2840.9</ele>
    <time>2026-06-24T05:34:04Z</time>
   </trkpt>
   <trkpt lat="-3.1668660" lon="37.3602380">
    <ele>2840.9</ele>
    <time>2026-06-24T05:34:05Z</time>
   </trkpt>
   <trkpt lat="-3.1668720" lon="37.3602260">
    <ele>2840.8</ele>
    <time>2026-06-24T05:34:06Z</time>
   </trkpt>
   <trkpt lat="-3.1668800" lon="37.3602180">
    <ele>2840.7</ele>
    <time>2026-06-24T05:34:07Z</time>
   </trkpt>
   <trkpt lat="-3.1668850" lon="37.3602130">
    <ele>2840.7</ele>
    <time>2026-06-24T05:34:08Z</time>
   </trkpt>
   <trkpt lat="-3.1668900" lon="37.3602000">
    <ele>2840.6</ele>
    <time>2026-06-24T05:34:09Z</time>
   </trkpt>
   <trkpt lat="-3.1669000" lon="37.3601890">
    <ele>2840.5</ele>
    <time>2026-06-24T05:34:10Z</time>
   </trkpt>
   <trkpt lat="-3.1669060" lon="37.3601830">
    <ele>2840.5</ele>
    <time>2026-06-24T05:34:11Z</time>
   </trkpt>
   <trkpt lat="-3.1669130" lon="37.3601720">
    <ele>2840.4</ele>
    <time>2026-06-24T05:34:12Z</time>
   </trkpt>
   <trkpt lat="-3.1669190" lon="37.3601590">
    <ele>2840.3</ele>
    <time>2026-06-24T05:34:13Z</time>
   </trkpt>
   <trkpt lat="-3.1669210" lon="37.3601490">
    <ele>2840.3</ele>
    <time>2026-06-24T05:34:14Z</time>
   </trkpt>
   <trkpt lat="-3.1669240" lon="37.3601370">
    <ele>2840.2</ele>
    <time>2026-06-24T05:34:15Z</time>
   </trkpt>
   <trkpt lat="-3.1669270" lon="37.3601270">
    <ele>2840.1</ele>
    <time>2026-06-24T05:34:16Z</time>
   </trkpt>
   <trkpt lat="-3.1669290" lon="37.3601220">
    <ele>2840.1</ele>
    <time>2026-06-24T05:34:17Z</time>
   </trkpt>
   <trkpt lat="-3.1669320" lon="37.3601110">
    <ele>2840.0</ele>
    <time>2026-06-24T05:34:18Z</time>
   </trkpt>
   <trkpt lat="-3.1669360" lon="37.3601070">
    <ele>2840.0</ele>
    <time>2026-06-24T05:34:19Z</time>
   </trkpt>
   <trkpt lat="-3.1669360" lon="37.3601000">
    <ele>2839.9</ele>
    <time>2026-06-24T05:34:20Z</time>
   </trkpt>
   <trkpt lat="-3.1669390" lon="37.3600870">
    <ele>2839.9</ele>
    <time>2026-06-24T05:34:21Z</time>
   </trkpt>
   <trkpt lat="-3.1669400" lon="37.3600810">
    <ele>2839.8</ele>
    <time>2026-06-24T05:34:22Z</time>
   </trkpt>
   <trkpt lat="-3.1669420" lon="37.3600670">
    <ele>2839.7</ele>
    <time>2026-06-24T05:34:23Z</time>
   </trkpt>
   <trkpt lat="-3.1669410" lon="37.3600580">
    <ele>2839.7</ele>
    <time>2026-06-24T05:34:24Z</time>
   </trkpt>
   <trkpt lat="-3.1669430" lon="37.3600440">
    <ele>2839.6</ele>
    <time>2026-06-24T05:34:25Z</time>
   </trkpt>
   <trkpt lat="-3.1669480" lon="37.3600450">
    <ele>2839.5</ele>
    <time>2026-06-24T05:34:26Z</time>
   </trkpt>
   <trkpt lat="-3.1669490" lon="37.3600410">
    <ele>2839.5</ele>
    <time>2026-06-24T05:34:27Z</time>
   </trkpt>
   <trkpt lat="-3.1669560" lon="37.3600330">
    <ele>2839.5</ele>
    <time>2026-06-24T05:34:28Z</time>
   </trkpt>
   <trkpt lat="-3.1669540" lon="37.3600180">
    <ele>2839.4</ele>
    <time>2026-06-24T05:34:29Z</time>
   </trkpt>
   <trkpt lat="-3.1669580" lon="37.3600120">
    <ele>2839.3</ele>
    <time>2026-06-24T05:34:30Z</time>
   </trkpt>
   <trkpt lat="-3.1669600" lon="37.3600050">
    <ele>2839.3</ele>
    <time>2026-06-24T05:34:31Z</time>
   </trkpt>
   <trkpt lat="-3.1669650" lon="37.3599970">
    <ele>2839.2</ele>
    <time>2026-06-24T05:34:32Z</time>
   </trkpt>
   <trkpt lat="-3.1669680" lon="37.3599880">
    <ele>2839.2</ele>
    <time>2026-06-24T05:34:33Z</time>
   </trkpt>
   <trkpt lat="-3.1669740" lon="37.3599770">
    <ele>2839.1</ele>
    <time>2026-06-24T05:34:34Z</time>
   </trkpt>
   <trkpt lat="-3.1669790" lon="37.3599680">
    <ele>2839.1</ele>
    <time>2026-06-24T05:34:35Z</time>
   </trkpt>
   <trkpt lat="-3.1669820" lon="37.3599570">
    <ele>2839.0</ele>
    <time>2026-06-24T05:34:36Z</time>
   </trkpt>
   <trkpt lat="-3.1669810" lon="37.3599490">
    <ele>2839.0</ele>
    <time>2026-06-24T05:34:37Z</time>
   </trkpt>
   <trkpt lat="-3.1669860" lon="37.3599440">
    <ele>2839.0</ele>
    <time>2026-06-24T05:34:38Z</time>
   </trkpt>
   <trkpt lat="-3.1669920" lon="37.3599340">
    <ele>2838.9</ele>
    <time>2026-06-24T05:34:39Z</time>
   </trkpt>
   <trkpt lat="-3.1669970" lon="37.3599310">
    <ele>2838.9</ele>
    <time>2026-06-24T05:34:40Z</time>
   </trkpt>
   <trkpt lat="-3.1670010" lon="37.3599240">
    <ele>2838.9</ele>
    <time>2026-06-24T05:34:41Z</time>
   </trkpt>
   <trkpt lat="-3.1670070" lon="37.3599140">
    <ele>2838.8</ele>
    <time>2026-06-24T05:34:42Z</time>
   </trkpt>
   <trkpt lat="-3.1670080" lon="37.3599080">
    <ele>2838.8</ele>
    <time>2026-06-24T05:34:43Z</time>
   </trkpt>
   <trkpt lat="-3.1670120" lon="37.3598990">
    <ele>2838.8</ele>
    <time>2026-06-24T05:34:44Z</time>
   </trkpt>
   <trkpt lat="-3.1670180" lon="37.3598920">
    <ele>2838.7</ele>
    <time>2026-06-24T05:34:45Z</time>
   </trkpt>
   <trkpt lat="-3.1670220" lon="37.3598890">
    <ele>2838.7</ele>
    <time>2026-06-24T05:34:46Z</time>
   </trkpt>
   <trkpt lat="-3.1670200" lon="37.3598860">
    <ele>2838.7</ele>
    <time>2026-06-24T05:34:47Z</time>
   </trkpt>
   <trkpt lat="-3.1670210" lon="37.3598770">
    <ele>2838.7</ele>
    <time>2026-06-24T05:34:48Z</time>
   </trkpt>
   <trkpt lat="-3.1670280" lon="37.3598630">
    <ele>2838.6</ele>
    <time>2026-06-24T05:34:49Z</time>
   </trkpt>
   <trkpt lat="-3.1670320" lon="37.3598600">
    <ele>2838.6</ele>
    <time>2026-06-24T05:34:50Z</time>
   </trkpt>
   <trkpt lat="-3.1670380" lon="37.3598450">
    <ele>2838.6</ele>
    <time>2026-06-24T05:34:51Z</time>
   </trkpt>
   <trkpt lat="-3.1670450" lon="37.3598330">
    <ele>2838.5</ele>
    <time>2026-06-24T05:34:52Z</time>
   </trkpt>
   <trkpt lat="-3.1670470" lon="37.3598270">
    <ele>2838.5</ele>
    <time>2026-06-24T05:34:53Z</time>
   </trkpt>
   <trkpt lat="-3.1670460" lon="37.3598160">
    <ele>2838.5</ele>
    <time>2026-06-24T05:34:54Z</time>
   </trkpt>
   <trkpt lat="-3.1670470" lon="37.3598040">
    <ele>2838.4</ele>
    <time>2026-06-24T05:34:55Z</time>
   </trkpt>
   <trkpt lat="-3.1670530" lon="37.3597900">
    <ele>2838.4</ele>
    <time>2026-06-24T05:34:56Z</time>
   </trkpt>
   <trkpt lat="-3.1670530" lon="37.3597800">
    <ele>2838.3</ele>
    <time>2026-06-24T05:34:57Z</time>
   </trkpt>
   <trkpt lat="-3.1670670" lon="37.3597690">
    <ele>2838.2</ele>
    <time>2026-06-24T05:34:58Z</time>
   </trkpt>
   <trkpt lat="-3.1670720" lon="37.3597670">
    <ele>2838.2</ele>
    <time>2026-06-24T05:34:59Z</time>
   </trkpt>
   <trkpt lat="-3.1670790" lon="37.3597560">
    <ele>2838.1</ele>
    <time>2026-06-24T05:35:00Z</time>
   </trkpt>
   <trkpt lat="-3.1670980" lon="37.3597500">
    <ele>2838.0</ele>
    <time>2026-06-24T05:35:01Z</time>
   </trkpt>
   <trkpt lat="-3.1670990" lon="37.3597460">
    <ele>2838.0</ele>
    <time>2026-06-24T05:35:02Z</time>
   </trkpt>
   <trkpt lat="-3.1671100" lon="37.3597400">
    <ele>2837.9</ele>
    <time>2026-06-24T05:35:03Z</time>
   </trkpt>
   <trkpt lat="-3.1671170" lon="37.3597320">
    <ele>2837.9</ele>
    <time>2026-06-24T05:35:04Z</time>
   </trkpt>
   <trkpt lat="-3.1671250" lon="37.3597250">
    <ele>2837.8</ele>
    <time>2026-06-24T05:35:05Z</time>
   </trkpt>
   <trkpt lat="-3.1671330" lon="37.3597170">
    <ele>2837.7</ele>
    <time>2026-06-24T05:35:06Z</time>
   </trkpt>
   <trkpt lat="-3.1671440" lon="37.3597050">
    <ele>2837.6</ele>
    <time>2026-06-24T05:35:07Z</time>
   </trkpt>
   <trkpt lat="-3.1671510" lon="37.3597110">
    <ele>2837.5</ele>
    <time>2026-06-24T05:35:08Z</time>
   </trkpt>
   <trkpt lat="-3.1671600" lon="37.3597130">
    <ele>2837.5</ele>
    <time>2026-06-24T05:35:09Z</time>
   </trkpt>
   <trkpt lat="-3.1671600" lon="37.3597100">
    <ele>2837.5</ele>
    <time>2026-06-24T05:35:10Z</time>
   </trkpt>
   <trkpt lat="-3.1671720" lon="37.3597050">
    <ele>2837.4</ele>
    <time>2026-06-24T05:35:11Z</time>
   </trkpt>
   <trkpt lat="-3.1671710" lon="37.3597020">
    <ele>2837.3</ele>
    <time>2026-06-24T05:35:12Z</time>
   </trkpt>
   <trkpt lat="-3.1671790" lon="37.3596970">
    <ele>2837.3</ele>
    <time>2026-06-24T05:35:13Z</time>
   </trkpt>
   <trkpt lat="-3.1671850" lon="37.3596940">
    <ele>2837.2</ele>
    <time>2026-06-24T05:35:14Z</time>
   </trkpt>
   <trkpt lat="-3.1671900" lon="37.3596910">
    <ele>2837.2</ele>
    <time>2026-06-24T05:35:15Z</time>
   </trkpt>
   <trkpt lat="-3.1671920" lon="37.3596900">
    <ele>2837.2</ele>
    <time>2026-06-24T05:35:16Z</time>
   </trkpt>
   <trkpt lat="-3.1672050" lon="37.3596860">
    <ele>2837.1</ele>
    <time>2026-06-24T05:35:17Z</time>
   </trkpt>
   <trkpt lat="-3.1672190" lon="37.3596770">
    <ele>2837.0</ele>
    <time>2026-06-24T05:35:18Z</time>
   </trkpt>
   <trkpt lat="-3.1672260" lon="37.3596740">
    <ele>2836.9</ele>
    <time>2026-06-24T05:35:19Z</time>
   </trkpt>
   <trkpt lat="-3.1672420" lon="37.3596710">
    <ele>2836.8</ele>
    <time>2026-06-24T05:35:20Z</time>
   </trkpt>
   <trkpt lat="-3.1672520" lon="37.3596670">
    <ele>2836.7</ele>
    <time>2026-06-24T05:35:21Z</time>
   </trkpt>
   <trkpt lat="-3.1672580" lon="37.3596690">
    <ele>2836.7</ele>
    <time>2026-06-24T05:35:22Z</time>
   </trkpt>
   <trkpt lat="-3.1672660" lon="37.3596650">
    <ele>2836.6</ele>
    <time>2026-06-24T05:35:23Z</time>
   </trkpt>
   <trkpt lat="-3.1672670" lon="37.3596630">
    <ele>2836.6</ele>
    <time>2026-06-24T05:35:24Z</time>
   </trkpt>
   <trkpt lat="-3.1672810" lon="37.3596580">
    <ele>2836.5</ele>
    <time>2026-06-24T05:35:25Z</time>
   </trkpt>
   <trkpt lat="-3.1673020" lon="37.3596480">
    <ele>2836.3</ele>
    <time>2026-06-24T05:35:26Z</time>
   </trkpt>
   <trkpt lat="-3.1673180" lon="37.3596420">
    <ele>2836.2</ele>
    <time>2026-06-24T05:35:27Z</time>
   </trkpt>
   <trkpt lat="-3.1673280" lon="37.3596440">
    <ele>2836.1</ele>
    <time>2026-06-24T05:35:28Z</time>
   </trkpt>
   <trkpt lat="-3.1673340" lon="37.3596450">
    <ele>2836.1</ele>
    <time>2026-06-24T05:35:29Z</time>
   </trkpt>
   <trkpt lat="-3.1673290" lon="37.3596370">
    <ele>2836.0</ele>
    <time>2026-06-24T05:35:30Z</time>
   </trkpt>
   <trkpt lat="-3.1673330" lon="37.3596380">
    <ele>2836.0</ele>
    <time>2026-06-24T05:35:31Z</time>
   </trkpt>
   <trkpt lat="-3.1673330" lon="37.3596420">
    <ele>2836.0</ele>
    <time>2026-06-24T05:35:32Z</time>
   </trkpt>
   <trkpt lat="-3.1673370" lon="37.3596460">
    <ele>2835.9</ele>
    <time>2026-06-24T05:35:33Z</time>
   </trkpt>
   <trkpt lat="-3.1673430" lon="37.3596450">
    <ele>2835.9</ele>
    <time>2026-06-24T05:35:34Z</time>
   </trkpt>
   <trkpt lat="-3.1673440" lon="37.3596440">
    <ele>2835.9</ele>
    <time>2026-06-24T05:35:35Z</time>
   </trkpt>
   <trkpt lat="-3.1673430" lon="37.3596450">
    <ele>2835.9</ele>
    <time>2026-06-24T05:35:36Z</time>
   </trkpt>
   <trkpt lat="-3.1673380" lon="37.3596410">
    <ele>2835.8</ele>
    <time>2026-06-24T05:35:37Z</time>
   </trkpt>
   <trkpt lat="-3.1673530" lon="37.3596340">
    <ele>2835.7</ele>
    <time>2026-06-24T05:35:38Z</time>
   </trkpt>
   <trkpt lat="-3.1673600" lon="37.3596270">
    <ele>2835.6</ele>
    <time>2026-06-24T05:35:39Z</time>
   </trkpt>
   <trkpt lat="-3.1673670" lon="37.3596280">
    <ele>2835.5</ele>
    <time>2026-06-24T05:35:40Z</time>
   </trkpt>
   <trkpt lat="-3.1673710" lon="37.3596260">
    <ele>2835.5</ele>
    <time>2026-06-24T05:35:41Z</time>
   </trkpt>
   <trkpt lat="-3.1673810" lon="37.3596240">
    <ele>2835.4</ele>
    <time>2026-06-24T05:35:42Z</time>
   </trkpt>
   <trkpt lat="-3.1673860" lon="37.3596230">
    <ele>2835.4</ele>
    <time>2026-06-24T05:35:43Z</time>
   </trkpt>
   <trkpt lat="-3.1673840" lon="37.3596280">
    <ele>2835.3</ele>
    <time>2026-06-24T05:35:44Z</time>
   </trkpt>
   <trkpt lat="-3.1673890" lon="37.3596260">
    <ele>2835.3</ele>
    <time>2026-06-24T05:35:45Z</time>
   </trkpt>
   <trkpt lat="-3.1673890" lon="37.3596260">
    <ele>2835.3</ele>
    <time>2026-06-24T05:35:46Z</time>
   </trkpt>
   <trkpt lat="-3.1673890" lon="37.3596230">
    <ele>2835.3</ele>
    <time>2026-06-24T05:35:47Z</time>
   </trkpt>
   <trkpt lat="-3.1673890" lon="37.3596230">
    <ele>2835.3</ele>
    <time>2026-06-24T05:35:48Z</time>
   </trkpt>
   <trkpt lat="-3.1673890" lon="37.3596230">
    <ele>2835.3</ele>
    <time>2026-06-24T05:35:49Z</time>
   </trkpt>
   <trkpt lat="-3.1673890" lon="37.3596230">
    <ele>2835.3</ele>
    <time>2026-06-24T05:35:50Z</time>
   </trkpt>
   <trkpt lat="-3.1673890" lon="37.3596230">
    <ele>2835.3</ele>
    <time>2026-06-24T05:35:51Z</time>
   </trkpt>
   <trkpt lat="-3.1673890" lon="37.3596230">
    <ele>2835.3</ele>
    <time>2026-06-24T05:35:52Z</time>
   </trkpt>
   <trkpt lat="-3.1673890" lon="37.3596230">
    <ele>2835.3</ele>
    <time>2026-06-24T05:35:53Z</time>
   </trkpt>
   <trkpt lat="-3.1674050" lon="37.3596230">
    <ele>2835.1</ele>
    <time>2026-06-24T05:35:54Z</time>
   </trkpt>
   <trkpt lat="-3.1674030" lon="37.3596240">
    <ele>2835.1</ele>
    <time>2026-06-24T05:35:55Z</time>
   </trkpt>
   <trkpt lat="-3.1674070" lon="37.3596220">
    <ele>2835.1</ele>
    <time>2026-06-24T05:35:56Z</time>
   </trkpt>
   <trkpt lat="-3.1674070" lon="37.3596220">
    <ele>2835.1</ele>
    <time>2026-06-24T05:35:57Z</time>
   </trkpt>
   <trkpt lat="-3.1674070" lon="37.3596220">
    <ele>2835.1</ele>
    <time>2026-06-24T05:35:58Z</time>
   </trkpt>
   <trkpt lat="-3.1674070" lon="37.3596220">
    <ele>2835.1</ele>
    <time>2026-06-24T05:35:59Z</time>
   </trkpt>
   <trkpt lat="-3.1674070" lon="37.3596220">
    <ele>2835.1</ele>
    <time>2026-06-24T05:36:00Z</time>
   </trkpt>
   <trkpt lat="-3.1674070" lon="37.3596220">
    <ele>2835.1</ele>
    <time>2026-06-24T05:36:01Z</time>
   </trkpt>
   <trkpt lat="-3.1674000" lon="37.3596290">
    <ele>2835.0</ele>
    <time>2026-06-24T05:36:02Z</time>
   </trkpt>
   <trkpt lat="-3.1673990" lon="37.3596330">
    <ele>2834.9</ele>
    <time>2026-06-24T05:36:03Z</time>
   </trkpt>
   <trkpt lat="-3.1673960" lon="37.3596330">
    <ele>2834.9</ele>
    <time>2026-06-24T05:36:04Z</time>
   </trkpt>
   <trkpt lat="-3.1673910" lon="37.3596370">
    <ele>2834.8</ele>
    <time>2026-06-24T05:36:05Z</time>
   </trkpt>
   <trkpt lat="-3.1673900" lon="37.3596390">
    <ele>2834.8</ele>
    <time>2026-06-24T05:36:06Z</time>
   </trkpt>
   <trkpt lat="-3.1673830" lon="37.3596420">
    <ele>2834.7</ele>
    <time>2026-06-24T05:36:07Z</time>
   </trkpt>
   <trkpt lat="-3.1673800" lon="37.3596420">
    <ele>2834.7</ele>
    <time>2026-06-24T05:36:08Z</time>
   </trkpt>
   <trkpt lat="-3.1673810" lon="37.3596390">
    <ele>2834.7</ele>
    <time>2026-06-24T05:36:09Z</time>
   </trkpt>
   <trkpt lat="-3.1673800" lon="37.3596400">
    <ele>2834.7</ele>
    <time>2026-06-24T05:36:10Z</time>
   </trkpt>
   <trkpt lat="-3.1673800" lon="37.3596400">
    <ele>2834.7</ele>
    <time>2026-06-24T05:36:11Z</time>
   </trkpt>
   <trkpt lat="-3.1673800" lon="37.3596400">
    <ele>2834.7</ele>
    <time>2026-06-24T05:36:12Z</time>
   </trkpt>
   <trkpt lat="-3.1673800" lon="37.3596400">
    <ele>2834.7</ele>
    <time>2026-06-24T05:36:13Z</time>
   </trkpt>
   <trkpt lat="-3.1673800" lon="37.3596400">
    <ele>2834.7</ele>
    <time>2026-06-24T05:36:14Z</time>
   </trkpt>
   <trkpt lat="-3.1673800" lon="37.3596400">
    <ele>2834.7</ele>
    <time>2026-06-24T05:36:15Z</time>
   </trkpt>
   <trkpt lat="-3.1673800" lon="37.3596400">
    <ele>2834.7</ele>
    <time>2026-06-24T05:36:16Z</time>
   </trkpt>
   <trkpt lat="-3.1673910" lon="37.3596120">
    <ele>2834.3</ele>
    <time>2026-06-24T05:36:17Z</time>
   </trkpt>
   <trkpt lat="-3.1673910" lon="37.3596120">
    <ele>2834.3</ele>
    <time>2026-06-24T05:36:18Z</time>
   </trkpt>
   <trkpt lat="-3.1673920" lon="37.3596080">
    <ele>2834.3</ele>
    <time>2026-06-24T05:36:19Z</time>
   </trkpt>
   <trkpt lat="-3.1673940" lon="37.3596080">
    <ele>2834.3</ele>
    <time>2026-06-24T05:36:20Z</time>
   </trkpt>
   <trkpt lat="-3.1673990" lon="37.3596060">
    <ele>2834.2</ele>
    <time>2026-06-24T05:36:21Z</time>
   </trkpt>
   <trkpt lat="-3.1674000" lon="37.3596070">
    <ele>2834.2</ele>
    <time>2026-06-24T05:36:22Z</time>
   </trkpt>
   <trkpt lat="-3.1674040" lon="37.3596080">
    <ele>2834.1</ele>
    <time>2026-06-24T05:36:23Z</time>
   </trkpt>
   <trkpt lat="-3.1674110" lon="37.3596110">
    <ele>2834.0</ele>
    <time>2026-06-24T05:36:24Z</time>
   </trkpt>
   <trkpt lat="-3.1674250" lon="37.3596050">
    <ele>2833.9</ele>
    <time>2026-06-24T05:36:25Z</time>
   </trkpt>
   <trkpt lat="-3.1674350" lon="37.3596060">
    <ele>2833.7</ele>
    <time>2026-06-24T05:36:26Z</time>
   </trkpt>
   <trkpt lat="-3.1674390" lon="37.3596040">
    <ele>2833.7</ele>
    <time>2026-06-24T05:36:27Z</time>
   </trkpt>
   <trkpt lat="-3.1674490" lon="37.3596060">
    <ele>2833.6</ele>
    <time>2026-06-24T05:36:28Z</time>
   </trkpt>
   <trkpt lat="-3.1674450" lon="37.3596050">
    <ele>2833.5</ele>
    <time>2026-06-24T05:36:29Z</time>
   </trkpt>
   <trkpt lat="-3.1674550" lon="37.3596140">
    <ele>2833.3</ele>
    <time>2026-06-24T05:36:30Z</time>
   </trkpt>
   <trkpt lat="-3.1674670" lon="37.3596130">
    <ele>2833.2</ele>
    <time>2026-06-24T05:36:31Z</time>
   </trkpt>
   <trkpt lat="-3.1674770" lon="37.3596180">
    <ele>2833.0</ele>
    <time>2026-06-24T05:36:32Z</time>
   </trkpt>
   <trkpt lat="-3.1674870" lon="37.3596160">
    <ele>2832.9</ele>
    <time>2026-06-24T05:36:33Z</time>
   </trkpt>
   <trkpt lat="-3.1674980" lon="37.3596170">
    <ele>2832.7</ele>
    <time>2026-06-24T05:36:34Z</time>
   </trkpt>
   <trkpt lat="-3.1675090" lon="37.3596170">
    <ele>2832.6</ele>
    <time>2026-06-24T05:36:35Z</time>
   </trkpt>
   <trkpt lat="-3.1675190" lon="37.3596190">
    <ele>2832.4</ele>
    <time>2026-06-24T05:36:36Z</time>
   </trkpt>
   <trkpt lat="-3.1675330" lon="37.3596210">
    <ele>2832.2</ele>
    <time>2026-06-24T05:36:37Z</time>
   </trkpt>
   <trkpt lat="-3.1675470" lon="37.3596240">
    <ele>2832.0</ele>
    <time>2026-06-24T05:36:38Z</time>
   </trkpt>
   <trkpt lat="-3.1675600" lon="37.3596250">
    <ele>2831.8</ele>
    <time>2026-06-24T05:36:39Z</time>
   </trkpt>
   <trkpt lat="-3.1675610" lon="37.3596270">
    <ele>2831.7</ele>
    <time>2026-06-24T05:36:40Z</time>
   </trkpt>
   <trkpt lat="-3.1675700" lon="37.3596300">
    <ele>2831.6</ele>
    <time>2026-06-24T05:36:41Z</time>
   </trkpt>
   <trkpt lat="-3.1675650" lon="37.3596330">
    <ele>2831.5</ele>
    <time>2026-06-24T05:36:42Z</time>
   </trkpt>
   <trkpt lat="-3.1675710" lon="37.3596370">
    <ele>2831.4</ele>
    <time>2026-06-24T05:36:43Z</time>
   </trkpt>
   <trkpt lat="-3.1675830" lon="37.3596450">
    <ele>2831.2</ele>
    <time>2026-06-24T05:36:44Z</time>
   </trkpt>
   <trkpt lat="-3.1675900" lon="37.3596500">
    <ele>2831.0</ele>
    <time>2026-06-24T05:36:45Z</time>
   </trkpt>
   <trkpt lat="-3.1675960" lon="37.3596480">
    <ele>2830.9</ele>
    <time>2026-06-24T05:36:46Z</time>
   </trkpt>
   <trkpt lat="-3.1676090" lon="37.3596460">
    <ele>2830.7</ele>
    <time>2026-06-24T05:36:47Z</time>
   </trkpt>
   <trkpt lat="-3.1676230" lon="37.3596480">
    <ele>2830.5</ele>
    <time>2026-06-24T05:36:48Z</time>
   </trkpt>
   <trkpt lat="-3.1676400" lon="37.3596470">
    <ele>2830.2</ele>
    <time>2026-06-24T05:36:49Z</time>
   </trkpt>
   <trkpt lat="-3.1676480" lon="37.3596500">
    <ele>2830.1</ele>
    <time>2026-06-24T05:36:50Z</time>
   </trkpt>
   <trkpt lat="-3.1676520" lon="37.3596520">
    <ele>2830.0</ele>
    <time>2026-06-24T05:36:51Z</time>
   </trkpt>
   <trkpt lat="-3.1676580" lon="37.3596510">
    <ele>2829.9</ele>
    <time>2026-06-24T05:36:52Z</time>
   </trkpt>
   <trkpt lat="-3.1676640" lon="37.3596540">
    <ele>2829.8</ele>
    <time>2026-06-24T05:36:53Z</time>
   </trkpt>
   <trkpt lat="-3.1676730" lon="37.3596570">
    <ele>2829.7</ele>
    <time>2026-06-24T05:36:54Z</time>
   </trkpt>
   <trkpt lat="-3.1676810" lon="37.3596580">
    <ele>2829.6</ele>
    <time>2026-06-24T05:36:55Z</time>
   </trkpt>
   <trkpt lat="-3.1676880" lon="37.3596560">
    <ele>2829.5</ele>
    <time>2026-06-24T05:36:56Z</time>
   </trkpt>
   <trkpt lat="-3.1676990" lon="37.3596540">
    <ele>2829.3</ele>
    <time>2026-06-24T05:36:57Z</time>
   </trkpt>
   <trkpt lat="-3.1677070" lon="37.3596570">
    <ele>2829.2</ele>
    <time>2026-06-24T05:36:58Z</time>
   </trkpt>
   <trkpt lat="-3.1677130" lon="37.3596610">
    <ele>2829.1</ele>
    <time>2026-06-24T05:36:59Z</time>
   </trkpt>
   <trkpt lat="-3.1677140" lon="37.3596650">
    <ele>2829.0</ele>
    <time>2026-06-24T05:37:00Z</time>
   </trkpt>
   <trkpt lat="-3.1677190" lon="37.3596650">
    <ele>2828.9</ele>
    <time>2026-06-24T05:37:01Z</time>
   </trkpt>
   <trkpt lat="-3.1677290" lon="37.3596670">
    <ele>2828.8</ele>
    <time>2026-06-24T05:37:02Z</time>
   </trkpt>
   <trkpt lat="-3.1677360" lon="37.3596710">
    <ele>2828.7</ele>
    <time>2026-06-24T05:37:03Z</time>
   </trkpt>
   <trkpt lat="-3.1677420" lon="37.3596710">
    <ele>2828.6</ele>
    <time>2026-06-24T05:37:04Z</time>
   </trkpt>
   <trkpt lat="-3.1677440" lon="37.3596730">
    <ele>2828.6</ele>
    <time>2026-06-24T05:37:05Z</time>
   </trkpt>
   <trkpt lat="-3.1677470" lon="37.3596690">
    <ele>2828.5</ele>
    <time>2026-06-24T05:37:06Z</time>
   </trkpt>
   <trkpt lat="-3.1677570" lon="37.3596720">
    <ele>2828.4</ele>
    <time>2026-06-24T05:37:07Z</time>
   </trkpt>
   <trkpt lat="-3.1677640" lon="37.3596770">
    <ele>2828.3</ele>
    <time>2026-06-24T05:37:08Z</time>
   </trkpt>
   <trkpt lat="-3.1677630" lon="37.3596770">
    <ele>2828.3</ele>
    <time>2026-06-24T05:37:09Z</time>
   </trkpt>
   <trkpt lat="-3.1677670" lon="37.3596740">
    <ele>2828.2</ele>
    <time>2026-06-24T05:37:10Z</time>
   </trkpt>
   <trkpt lat="-3.1677680" lon="37.3596680">
    <ele>2828.2</ele>
    <time>2026-06-24T05:37:11Z</time>
   </trkpt>
   <trkpt lat="-3.1677750" lon="37.3596660">
    <ele>2828.1</ele>
    <time>2026-06-24T05:37:12Z</time>
   </trkpt>
   <trkpt lat="-3.1677890" lon="37.3596640">
    <ele>2827.9</ele>
    <time>2026-06-24T05:37:13Z</time>
   </trkpt>
   <trkpt lat="-3.1677960" lon="37.3596660">
    <ele>2827.8</ele>
    <time>2026-06-24T05:37:14Z</time>
   </trkpt>
   <trkpt lat="-3.1678010" lon="37.3596620">
    <ele>2827.8</ele>
    <time>2026-06-24T05:37:15Z</time>
   </trkpt>
   <trkpt lat="-3.1678040" lon="37.3596580">
    <ele>2827.7</ele>
    <time>2026-06-24T05:37:16Z</time>
   </trkpt>
   <trkpt lat="-3.1678070" lon="37.3596540">
    <ele>2827.7</ele>
    <time>2026-06-24T05:37:17Z</time>
   </trkpt>
   <trkpt lat="-3.1678110" lon="37.3596450">
    <ele>2827.6</ele>
    <time>2026-06-24T05:37:18Z</time>
   </trkpt>
   <trkpt lat="-3.1678210" lon="37.3596440">
    <ele>2827.5</ele>
    <time>2026-06-24T05:37:19Z</time>
   </trkpt>
   <trkpt lat="-3.1678270" lon="37.3596450">
    <ele>2827.4</ele>
    <time>2026-06-24T05:37:20Z</time>
   </trkpt>
   <trkpt lat="-3.1678300" lon="37.3596430">
    <ele>2827.4</ele>
    <time>2026-06-24T05:37:21Z</time>
   </trkpt>
   <trkpt lat="-3.1678390" lon="37.3596420">
    <ele>2827.3</ele>
    <time>2026-06-24T05:37:22Z</time>
   </trkpt>
   <trkpt lat="-3.1678400" lon="37.3596430">
    <ele>2827.3</ele>
    <time>2026-06-24T05:37:23Z</time>
   </trkpt>
   <trkpt lat="-3.1678350" lon="37.3596440">
    <ele>2827.3</ele>
    <time>2026-06-24T05:37:24Z</time>
   </trkpt>
   <trkpt lat="-3.1678410" lon="37.3596460">
    <ele>2827.2</ele>
    <time>2026-06-24T05:37:25Z</time>
   </trkpt>
   <trkpt lat="-3.1678540" lon="37.3596470">
    <ele>2827.1</ele>
    <time>2026-06-24T05:37:26Z</time>
   </trkpt>
   <trkpt lat="-3.1678500" lon="37.3596450">
    <ele>2827.1</ele>
    <time>2026-06-24T05:37:27Z</time>
   </trkpt>
   <trkpt lat="-3.1678630" lon="37.3596500">
    <ele>2827.0</ele>
    <time>2026-06-24T05:37:28Z</time>
   </trkpt>
   <trkpt lat="-3.1678840" lon="37.3596520">
    <ele>2826.8</ele>
    <time>2026-06-24T05:37:29Z</time>
   </trkpt>
   <trkpt lat="-3.1678950" lon="37.3596540">
    <ele>2826.7</ele>
    <time>2026-06-24T05:37:30Z</time>
   </trkpt>
   <trkpt lat="-3.1679100" lon="37.3596530">
    <ele>2826.6</ele>
    <time>2026-06-24T05:37:31Z</time>
   </trkpt>
   <trkpt lat="-3.1679260" lon="37.3596530">
    <ele>2826.4</ele>
    <time>2026-06-24T05:37:32Z</time>
   </trkpt>
   <trkpt lat="-3.1679390" lon="37.3596500">
    <ele>2826.3</ele>
    <time>2026-06-24T05:37:33Z</time>
   </trkpt>
   <trkpt lat="-3.1679470" lon="37.3596480">
    <ele>2826.3</ele>
    <time>2026-06-24T05:37:34Z</time>
   </trkpt>
   <trkpt lat="-3.1679620" lon="37.3596460">
    <ele>2826.1</ele>
    <time>2026-06-24T05:37:35Z</time>
   </trkpt>
   <trkpt lat="-3.1679710" lon="37.3596420">
    <ele>2826.0</ele>
    <time>2026-06-24T05:37:36Z</time>
   </trkpt>
   <trkpt lat="-3.1679860" lon="37.3596390">
    <ele>2825.9</ele>
    <time>2026-06-24T05:37:37Z</time>
   </trkpt>
   <trkpt lat="-3.1680080" lon="37.3596330">
    <ele>2825.7</ele>
    <time>2026-06-24T05:37:38Z</time>
   </trkpt>
   <trkpt lat="-3.1680200" lon="37.3596370">
    <ele>2825.6</ele>
    <time>2026-06-24T05:37:39Z</time>
   </trkpt>
   <trkpt lat="-3.1680290" lon="37.3596380">
    <ele>2825.5</ele>
    <time>2026-06-24T05:37:40Z</time>
   </trkpt>
   <trkpt lat="-3.1680340" lon="37.3596480">
    <ele>2825.4</ele>
    <time>2026-06-24T05:37:41Z</time>
   </trkpt>
   <trkpt lat="-3.1680490" lon="37.3596440">
    <ele>2825.2</ele>
    <time>2026-06-24T05:37:42Z</time>
   </trkpt>
   <trkpt lat="-3.1680660" lon="37.3596480">
    <ele>2825.0</ele>
    <time>2026-06-24T05:37:43Z</time>
   </trkpt>
   <trkpt lat="-3.1680790" lon="37.3596510">
    <ele>2824.9</ele>
    <time>2026-06-24T05:37:44Z</time>
   </trkpt>
   <trkpt lat="-3.1680890" lon="37.3596510">
    <ele>2824.8</ele>
    <time>2026-06-24T05:37:45Z</time>
   </trkpt>
   <trkpt lat="-3.1680940" lon="37.3596490">
    <ele>2824.8</ele>
    <time>2026-06-24T05:37:46Z</time>
   </trkpt>
   <trkpt lat="-3.1681050" lon="37.3596510">
    <ele>2824.6</ele>
    <time>2026-06-24T05:37:47Z</time>
   </trkpt>
   <trkpt lat="-3.1681250" lon="37.3596530">
    <ele>2824.4</ele>
    <time>2026-06-24T05:37:48Z</time>
   </trkpt>
   <trkpt lat="-3.1681370" lon="37.3596520">
    <ele>2824.3</ele>
    <time>2026-06-24T05:37:49Z</time>
   </trkpt>
   <trkpt lat="-3.1681460" lon="37.3596530">
    <ele>2824.2</ele>
    <time>2026-06-24T05:37:50Z</time>
   </trkpt>
   <trkpt lat="-3.1681510" lon="37.3596530">
    <ele>2824.1</ele>
    <time>2026-06-24T05:37:51Z</time>
   </trkpt>
   <trkpt lat="-3.1681560" lon="37.3596490">
    <ele>2824.1</ele>
    <time>2026-06-24T05:37:52Z</time>
   </trkpt>
   <trkpt lat="-3.1681630" lon="37.3596520">
    <ele>2824.0</ele>
    <time>2026-06-24T05:37:53Z</time>
   </trkpt>
   <trkpt lat="-3.1681780" lon="37.3596530">
    <ele>2823.8</ele>
    <time>2026-06-24T05:37:54Z</time>
   </trkpt>
   <trkpt lat="-3.1681880" lon="37.3596530">
    <ele>2823.7</ele>
    <time>2026-06-24T05:37:55Z</time>
   </trkpt>
   <trkpt lat="-3.1682020" lon="37.3596480">
    <ele>2823.6</ele>
    <time>2026-06-24T05:37:56Z</time>
   </trkpt>
   <trkpt lat="-3.1682110" lon="37.3596500">
    <ele>2823.5</ele>
    <time>2026-06-24T05:37:57Z</time>
   </trkpt>
   <trkpt lat="-3.1682130" lon="37.3596520">
    <ele>2823.4</ele>
    <time>2026-06-24T05:37:58Z</time>
   </trkpt>
   <trkpt lat="-3.1682220" lon="37.3596470">
    <ele>2823.3</ele>
    <time>2026-06-24T05:37:59Z</time>
   </trkpt>
   <trkpt lat="-3.1682290" lon="37.3596510">
    <ele>2823.2</ele>
    <time>2026-06-24T05:38:00Z</time>
   </trkpt>
   <trkpt lat="-3.1682320" lon="37.3596540">
    <ele>2823.2</ele>
    <time>2026-06-24T05:38:01Z</time>
   </trkpt>
   <trkpt lat="-3.1682410" lon="37.3596580">
    <ele>2823.1</ele>
    <time>2026-06-24T05:38:02Z</time>
   </trkpt>
   <trkpt lat="-3.1682530" lon="37.3596560">
    <ele>2822.9</ele>
    <time>2026-06-24T05:38:03Z</time>
   </trkpt>
   <trkpt lat="-3.1682630" lon="37.3596600">
    <ele>2822.8</ele>
    <time>2026-06-24T05:38:04Z</time>
   </trkpt>
   <trkpt lat="-3.1682710" lon="37.3596600">
    <ele>2822.7</ele>
    <time>2026-06-24T05:38:05Z</time>
   </trkpt>
   <trkpt lat="-3.1682780" lon="37.3596630">
    <ele>2822.7</ele>
    <time>2026-06-24T05:38:06Z</time>
   </trkpt>
   <trkpt lat="-3.1682900" lon="37.3596620">
    <ele>2822.5</ele>
    <time>2026-06-24T05:38:07Z</time>
   </trkpt>
   <trkpt lat="-3.1683000" lon="37.3596640">
    <ele>2822.4</ele>
    <time>2026-06-24T05:38:08Z</time>
   </trkpt>
   <trkpt lat="-3.1683170" lon="37.3596630">
    <ele>2822.2</ele>
    <time>2026-06-24T05:38:09Z</time>
   </trkpt>
   <trkpt lat="-3.1683250" lon="37.3596620">
    <ele>2822.1</ele>
    <time>2026-06-24T05:38:10Z</time>
   </trkpt>
   <trkpt lat="-3.1683320" lon="37.3596630">
    <ele>2822.1</ele>
    <time>2026-06-24T05:38:11Z</time>
   </trkpt>
   <trkpt lat="-3.1683410" lon="37.3596620">
    <ele>2822.0</ele>
    <time>2026-06-24T05:38:12Z</time>
   </trkpt>
   <trkpt lat="-3.1683510" lon="37.3596610">
    <ele>2821.9</ele>
    <time>2026-06-24T05:38:13Z</time>
   </trkpt>
   <trkpt lat="-3.1683590" lon="37.3596600">
    <ele>2821.8</ele>
    <time>2026-06-24T05:38:14Z</time>
   </trkpt>
   <trkpt lat="-3.1683680" lon="37.3596530">
    <ele>2821.7</ele>
    <time>2026-06-24T05:38:15Z</time>
   </trkpt>
   <trkpt lat="-3.1683740" lon="37.3596480">
    <ele>2821.6</ele>
    <time>2026-06-24T05:38:16Z</time>
   </trkpt>
   <trkpt lat="-3.1683820" lon="37.3596410">
    <ele>2821.5</ele>
    <time>2026-06-24T05:38:17Z</time>
   </trkpt>
   <trkpt lat="-3.1683900" lon="37.3596350">
    <ele>2821.4</ele>
    <time>2026-06-24T05:38:18Z</time>
   </trkpt>
   <trkpt lat="-3.1683970" lon="37.3596340">
    <ele>2821.3</ele>
    <time>2026-06-24T05:38:19Z</time>
   </trkpt>
   <trkpt lat="-3.1684030" lon="37.3596350">
    <ele>2821.2</ele>
    <time>2026-06-24T05:38:20Z</time>
   </trkpt>
   <trkpt lat="-3.1684120" lon="37.3596360">
    <ele>2821.2</ele>
    <time>2026-06-24T05:38:21Z</time>
   </trkpt>
   <trkpt lat="-3.1684230" lon="37.3596350">
    <ele>2821.0</ele>
    <time>2026-06-24T05:38:22Z</time>
   </trkpt>
   <trkpt lat="-3.1684350" lon="37.3596320">
    <ele>2820.9</ele>
    <time>2026-06-24T05:38:23Z</time>
   </trkpt>
   <trkpt lat="-3.1684380" lon="37.3596270">
    <ele>2820.9</ele>
    <time>2026-06-24T05:38:24Z</time>
   </trkpt>
   <trkpt lat="-3.1684540" lon="37.3596230">
    <ele>2820.7</ele>
    <time>2026-06-24T05:38:25Z</time>
   </trkpt>
   <trkpt lat="-3.1684800" lon="37.3596180">
    <ele>2820.5</ele>
    <time>2026-06-24T05:38:26Z</time>
   </trkpt>
   <trkpt lat="-3.1684870" lon="37.3596130">
    <ele>2820.4</ele>
    <time>2026-06-24T05:38:27Z</time>
   </trkpt>
   <trkpt lat="-3.1684960" lon="37.3596120">
    <ele>2820.3</ele>
    <time>2026-06-24T05:38:28Z</time>
   </trkpt>
   <trkpt lat="-3.1685090" lon="37.3596120">
    <ele>2820.2</ele>
    <time>2026-06-24T05:38:29Z</time>
   </trkpt>
   <trkpt lat="-3.1685190" lon="37.3596110">
    <ele>2820.1</ele>
    <time>2026-06-24T05:38:30Z</time>
   </trkpt>
   <trkpt lat="-3.1685270" lon="37.3596110">
    <ele>2820.1</ele>
    <time>2026-06-24T05:38:31Z</time>
   </trkpt>
   <trkpt lat="-3.1685330" lon="37.3596120">
    <ele>2820.0</ele>
    <time>2026-06-24T05:38:32Z</time>
   </trkpt>
   <trkpt lat="-3.1685420" lon="37.3596110">
    <ele>2820.0</ele>
    <time>2026-06-24T05:38:33Z</time>
   </trkpt>
   <trkpt lat="-3.1685500" lon="37.3596060">
    <ele>2819.9</ele>
    <time>2026-06-24T05:38:34Z</time>
   </trkpt>
   <trkpt lat="-3.1685610" lon="37.3596030">
    <ele>2819.8</ele>
    <time>2026-06-24T05:38:35Z</time>
   </trkpt>
   <trkpt lat="-3.1685690" lon="37.3595990">
    <ele>2819.7</ele>
    <time>2026-06-24T05:38:36Z</time>
   </trkpt>
   <trkpt lat="-3.1685760" lon="37.3595980">
    <ele>2819.7</ele>
    <time>2026-06-24T05:38:37Z</time>
   </trkpt>
   <trkpt lat="-3.1685820" lon="37.3595990">
    <ele>2819.7</ele>
    <time>2026-06-24T05:38:38Z</time>
   </trkpt>
   <trkpt lat="-3.1685860" lon="37.3595960">
    <ele>2819.6</ele>
    <time>2026-06-24T05:38:39Z</time>
   </trkpt>
   <trkpt lat="-3.1685900" lon="37.3595930">
    <ele>2819.6</ele>
    <time>2026-06-24T05:38:40Z</time>
   </trkpt>
   <trkpt lat="-3.1685960" lon="37.3595870">
    <ele>2819.5</ele>
    <time>2026-06-24T05:38:41Z</time>
   </trkpt>
   <trkpt lat="-3.1686040" lon="37.3595880">
    <ele>2819.5</ele>
    <time>2026-06-24T05:38:42Z</time>
   </trkpt>
   <trkpt lat="-3.1686020" lon="37.3595920">
    <ele>2819.5</ele>
    <time>2026-06-24T05:38:43Z</time>
   </trkpt>
   <trkpt lat="-3.1686100" lon="37.3595960">
    <ele>2819.4</ele>
    <time>2026-06-24T05:38:44Z</time>
   </trkpt>
   <trkpt lat="-3.1686150" lon="37.3595960">
    <ele>2819.4</ele>
    <time>2026-06-24T05:38:45Z</time>
   </trkpt>
   <trkpt lat="-3.1686220" lon="37.3595970">
    <ele>2819.3</ele>
    <time>2026-06-24T05:38:46Z</time>
   </trkpt>
   <trkpt lat="-3.1686280" lon="37.3595950">
    <ele>2819.3</ele>
    <time>2026-06-24T05:38:47Z</time>
   </trkpt>
   <trkpt lat="-3.1686300" lon="37.3595900">
    <ele>2819.2</ele>
    <time>2026-06-24T05:38:48Z</time>
   </trkpt>
   <trkpt lat="-3.1686410" lon="37.3595860">
    <ele>2819.2</ele>
    <time>2026-06-24T05:38:49Z</time>
   </trkpt>
   <trkpt lat="-3.1686450" lon="37.3595850">
    <ele>2819.1</ele>
    <time>2026-06-24T05:38:50Z</time>
   </trkpt>
   <trkpt lat="-3.1686520" lon="37.3595830">
    <ele>2819.1</ele>
    <time>2026-06-24T05:38:51Z</time>
   </trkpt>
   <trkpt lat="-3.1686560" lon="37.3595760">
    <ele>2819.1</ele>
    <time>2026-06-24T05:38:52Z</time>
   </trkpt>
   <trkpt lat="-3.1686740" lon="37.3595700">
    <ele>2818.9</ele>
    <time>2026-06-24T05:38:53Z</time>
   </trkpt>
   <trkpt lat="-3.1686860" lon="37.3595690">
    <ele>2818.9</ele>
    <time>2026-06-24T05:38:54Z</time>
   </trkpt>
   <trkpt lat="-3.1686940" lon="37.3595690">
    <ele>2818.8</ele>
    <time>2026-06-24T05:38:55Z</time>
   </trkpt>
   <trkpt lat="-3.1687000" lon="37.3595670">
    <ele>2818.8</ele>
    <time>2026-06-24T05:38:56Z</time>
   </trkpt>
   <trkpt lat="-3.1687110" lon="37.3595660">
    <ele>2818.7</ele>
    <time>2026-06-24T05:38:57Z</time>
   </trkpt>
   <trkpt lat="-3.1687260" lon="37.3595680">
    <ele>2818.6</ele>
    <time>2026-06-24T05:38:58Z</time>
   </trkpt>
   <trkpt lat="-3.1687380" lon="37.3595670">
    <ele>2818.6</ele>
    <time>2026-06-24T05:38:59Z</time>
   </trkpt>
   <trkpt lat="-3.1687510" lon="37.3595680">
    <ele>2818.5</ele>
    <time>2026-06-24T05:39:00Z</time>
   </trkpt>
   <trkpt lat="-3.1687570" lon="37.3595670">
    <ele>2818.4</ele>
    <time>2026-06-24T05:39:01Z</time>
   </trkpt>
   <trkpt lat="-3.1687670" lon="37.3595650">
    <ele>2818.4</ele>
    <time>2026-06-24T05:39:02Z</time>
   </trkpt>
   <trkpt lat="-3.1687780" lon="37.3595630">
    <ele>2818.3</ele>
    <time>2026-06-24T05:39:03Z</time>
   </trkpt>
   <trkpt lat="-3.1687880" lon="37.3595620">
    <ele>2818.2</ele>
    <time>2026-06-24T05:39:04Z</time>
   </trkpt>
   <trkpt lat="-3.1687980" lon="37.3595510">
    <ele>2818.1</ele>
    <time>2026-06-24T05:39:05Z</time>
   </trkpt>
   <trkpt lat="-3.1688010" lon="37.3595420">
    <ele>2818.0</ele>
    <time>2026-06-24T05:39:06Z</time>
   </trkpt>
   <trkpt lat="-3.1688110" lon="37.3595320">
    <ele>2817.9</ele>
    <time>2026-06-24T05:39:07Z</time>
   </trkpt>
   <trkpt lat="-3.1688170" lon="37.3595250">
    <ele>2817.9</ele>
    <time>2026-06-24T05:39:08Z</time>
   </trkpt>
   <trkpt lat="-3.1688270" lon="37.3595170">
    <ele>2817.8</ele>
    <time>2026-06-24T05:39:09Z</time>
   </trkpt>
   <trkpt lat="-3.1688330" lon="37.3595120">
    <ele>2817.7</ele>
    <time>2026-06-24T05:39:10Z</time>
   </trkpt>
   <trkpt lat="-3.1688390" lon="37.3595060">
    <ele>2817.7</ele>
    <time>2026-06-24T05:39:11Z</time>
   </trkpt>
   <trkpt lat="-3.1688410" lon="37.3595070">
    <ele>2817.6</ele>
    <time>2026-06-24T05:39:12Z</time>
   </trkpt>
   <trkpt lat="-3.1688480" lon="37.3594970">
    <ele>2817.5</ele>
    <time>2026-06-24T05:39:13Z</time>
   </trkpt>
   <trkpt lat="-3.1688500" lon="37.3594960">
    <ele>2817.5</ele>
    <time>2026-06-24T05:39:14Z</time>
   </trkpt>
   <trkpt lat="-3.1688550" lon="37.3594950">
    <ele>2817.5</ele>
    <time>2026-06-24T05:39:15Z</time>
   </trkpt>
   <trkpt lat="-3.1688600" lon="37.3594840">
    <ele>2817.4</ele>
    <time>2026-06-24T05:39:16Z</time>
   </trkpt>
   <trkpt lat="-3.1688630" lon="37.3594780">
    <ele>2817.3</ele>
    <time>2026-06-24T05:39:17Z</time>
   </trkpt>
   <trkpt lat="-3.1688670" lon="37.3594750">
    <ele>2817.3</ele>
    <time>2026-06-24T05:39:18Z</time>
   </trkpt>
   <trkpt lat="-3.1688720" lon="37.3594720">
    <ele>2817.2</ele>
    <time>2026-06-24T05:39:19Z</time>
   </trkpt>
   <trkpt lat="-3.1688830" lon="37.3594660">
    <ele>2817.1</ele>
    <time>2026-06-24T05:39:20Z</time>
   </trkpt>
   <trkpt lat="-3.1688930" lon="37.3594610">
    <ele>2817.1</ele>
    <time>2026-06-24T05:39:21Z</time>
   </trkpt>
   <trkpt lat="-3.1689040" lon="37.3594580">
    <ele>2817.0</ele>
    <time>2026-06-24T05:39:22Z</time>
   </trkpt>
   <trkpt lat="-3.1689160" lon="37.3594550">
    <ele>2816.9</ele>
    <time>2026-06-24T05:39:23Z</time>
   </trkpt>
   <trkpt lat="-3.1689290" lon="37.3594490">
    <ele>2816.7</ele>
    <time>2026-06-24T05:39:24Z</time>
   </trkpt>
   <trkpt lat="-3.1689400" lon="37.3594470">
    <ele>2816.6</ele>
    <time>2026-06-24T05:39:25Z</time>
   </trkpt>
   <trkpt lat="-3.1689480" lon="37.3594470">
    <ele>2816.6</ele>
    <time>2026-06-24T05:39:26Z</time>
   </trkpt>
   <trkpt lat="-3.1689530" lon="37.3594450">
    <ele>2816.5</ele>
    <time>2026-06-24T05:39:27Z</time>
   </trkpt>
   <trkpt lat="-3.1689610" lon="37.3594400">
    <ele>2816.5</ele>
    <time>2026-06-24T05:39:28Z</time>
   </trkpt>
   <trkpt lat="-3.1689760" lon="37.3594330">
    <ele>2816.3</ele>
    <time>2026-06-24T05:39:29Z</time>
   </trkpt>
   <trkpt lat="-3.1689900" lon="37.3594330">
    <ele>2816.2</ele>
    <time>2026-06-24T05:39:30Z</time>
   </trkpt>
   <trkpt lat="-3.1690000" lon="37.3594310">
    <ele>2816.1</ele>
    <time>2026-06-24T05:39:31Z</time>
   </trkpt>
   <trkpt lat="-3.1690100" lon="37.3594290">
    <ele>2816.0</ele>
    <time>2026-06-24T05:39:32Z</time>
   </trkpt>
   <trkpt lat="-3.1690210" lon="37.3594220">
    <ele>2815.9</ele>
    <time>2026-06-24T05:39:33Z</time>
   </trkpt>
   <trkpt lat="-3.1690340" lon="37.3594180">
    <ele>2815.7</ele>
    <time>2026-06-24T05:39:34Z</time>
   </trkpt>
   <trkpt lat="-3.1690380" lon="37.3594140">
    <ele>2815.7</ele>
    <time>2026-06-24T05:39:35Z</time>
   </trkpt>
   <trkpt lat="-3.1690470" lon="37.3594090">
    <ele>2815.6</ele>
    <time>2026-06-24T05:39:36Z</time>
   </trkpt>
   <trkpt lat="-3.1690640" lon="37.3594000">
    <ele>2815.3</ele>
    <time>2026-06-24T05:39:37Z</time>
   </trkpt>
   <trkpt lat="-3.1690700" lon="37.3593930">
    <ele>2815.2</ele>
    <time>2026-06-24T05:39:38Z</time>
   </trkpt>
   <trkpt lat="-3.1690830" lon="37.3593870">
    <ele>2815.0</ele>
    <time>2026-06-24T05:39:39Z</time>
   </trkpt>
   <trkpt lat="-3.1690880" lon="37.3593840">
    <ele>2815.0</ele>
    <time>2026-06-24T05:39:40Z</time>
   </trkpt>
   <trkpt lat="-3.1690910" lon="37.3593820">
    <ele>2814.9</ele>
    <time>2026-06-24T05:39:41Z</time>
   </trkpt>
   <trkpt lat="-3.1690970" lon="37.3593800">
    <ele>2814.9</ele>
    <time>2026-06-24T05:39:42Z</time>
   </trkpt>
   <trkpt lat="-3.1691120" lon="37.3593730">
    <ele>2814.6</ele>
    <time>2026-06-24T05:39:43Z</time>
   </trkpt>
   <trkpt lat="-3.1691210" lon="37.3593690">
    <ele>2814.5</ele>
    <time>2026-06-24T05:39:44Z</time>
   </trkpt>
   <trkpt lat="-3.1691360" lon="37.3593650">
    <ele>2814.3</ele>
    <time>2026-06-24T05:39:45Z</time>
   </trkpt>
   <trkpt lat="-3.1691480" lon="37.3593580">
    <ele>2814.1</ele>
    <time>2026-06-24T05:39:46Z</time>
   </trkpt>
   <trkpt lat="-3.1691580" lon="37.3593520">
    <ele>2813.9</ele>
    <time>2026-06-24T05:39:47Z</time>
   </trkpt>
   <trkpt lat="-3.1691640" lon="37.3593480">
    <ele>2813.8</ele>
    <time>2026-06-24T05:39:48Z</time>
   </trkpt>
   <trkpt lat="-3.1691720" lon="37.3593420">
    <ele>2813.6</ele>
    <time>2026-06-24T05:39:49Z</time>
   </trkpt>
   <trkpt lat="-3.1691800" lon="37.3593350">
    <ele>2813.4</ele>
    <time>2026-06-24T05:39:50Z</time>
   </trkpt>
   <trkpt lat="-3.1691840" lon="37.3593310">
    <ele>2813.3</ele>
    <time>2026-06-24T05:39:51Z</time>
   </trkpt>
   <trkpt lat="-3.1691910" lon="37.3593240">
    <ele>2813.2</ele>
    <time>2026-06-24T05:39:52Z</time>
   </trkpt>
   <trkpt lat="-3.1691920" lon="37.3593210">
    <ele>2813.1</ele>
    <time>2026-06-24T05:39:53Z</time>
   </trkpt>
   <trkpt lat="-3.1691940" lon="37.3593200">
    <ele>2813.1</ele>
    <time>2026-06-24T05:39:54Z</time>
   </trkpt>
   <trkpt lat="-3.1691950" lon="37.3593180">
    <ele>2813.0</ele>
    <time>2026-06-24T05:39:55Z</time>
   </trkpt>
   <trkpt lat="-3.1691950" lon="37.3593150">
    <ele>2813.0</ele>
    <time>2026-06-24T05:39:56Z</time>
   </trkpt>
   <trkpt lat="-3.1692030" lon="37.3593090">
    <ele>2812.8</ele>
    <time>2026-06-24T05:39:57Z</time>
   </trkpt>
   <trkpt lat="-3.1692100" lon="37.3593070">
    <ele>2812.7</ele>
    <time>2026-06-24T05:39:58Z</time>
   </trkpt>
   <trkpt lat="-3.1692170" lon="37.3593000">
    <ele>2812.5</ele>
    <time>2026-06-24T05:39:59Z</time>
   </trkpt>
   <trkpt lat="-3.1692230" lon="37.3592990">
    <ele>2812.4</ele>
    <time>2026-06-24T05:40:00Z</time>
   </trkpt>
   <trkpt lat="-3.1692300" lon="37.3592940">
    <ele>2812.3</ele>
    <time>2026-06-24T05:40:01Z</time>
   </trkpt>
   <trkpt lat="-3.1692340" lon="37.3592940">
    <ele>2812.2</ele>
    <time>2026-06-24T05:40:02Z</time>
   </trkpt>
   <trkpt lat="-3.1692410" lon="37.3592930">
    <ele>2812.1</ele>
    <time>2026-06-24T05:40:03Z</time>
   </trkpt>
   <trkpt lat="-3.1692460" lon="37.3592900">
    <ele>2812.0</ele>
    <time>2026-06-24T05:40:04Z</time>
   </trkpt>
   <trkpt lat="-3.1692490" lon="37.3592900">
    <ele>2811.9</ele>
    <time>2026-06-24T05:40:05Z</time>
   </trkpt>
   <trkpt lat="-3.1692540" lon="37.3592860">
    <ele>2811.8</ele>
    <time>2026-06-24T05:40:06Z</time>
   </trkpt>
   <trkpt lat="-3.1692590" lon="37.3592820">
    <ele>2811.7</ele>
    <time>2026-06-24T05:40:07Z</time>
   </trkpt>
   <trkpt lat="-3.1692620" lon="37.3592760">
    <ele>2811.6</ele>
    <time>2026-06-24T05:40:08Z</time>
   </trkpt>
   <trkpt lat="-3.1692710" lon="37.3592740">
    <ele>2811.5</ele>
    <time>2026-06-24T05:40:09Z</time>
   </trkpt>
   <trkpt lat="-3.1692760" lon="37.3592700">
    <ele>2811.3</ele>
    <time>2026-06-24T05:40:10Z</time>
   </trkpt>
   <trkpt lat="-3.1692890" lon="37.3592670">
    <ele>2811.1</ele>
    <time>2026-06-24T05:40:11Z</time>
   </trkpt>
   <trkpt lat="-3.1692930" lon="37.3592640">
    <ele>2811.0</ele>
    <time>2026-06-24T05:40:12Z</time>
   </trkpt>
   <trkpt lat="-3.1693040" lon="37.3592560">
    <ele>2810.8</ele>
    <time>2026-06-24T05:40:13Z</time>
   </trkpt>
   <trkpt lat="-3.1693160" lon="37.3592540">
    <ele>2810.6</ele>
    <time>2026-06-24T05:40:14Z</time>
   </trkpt>
   <trkpt lat="-3.1693190" lon="37.3592500">
    <ele>2810.5</ele>
    <time>2026-06-24T05:40:15Z</time>
   </trkpt>
   <trkpt lat="-3.1693260" lon="37.3592420">
    <ele>2810.3</ele>
    <time>2026-06-24T05:40:16Z</time>
   </trkpt>
   <trkpt lat="-3.1693360" lon="37.3592350">
    <ele>2810.1</ele>
    <time>2026-06-24T05:40:17Z</time>
   </trkpt>
   <trkpt lat="-3.1693400" lon="37.3592360">
    <ele>2810.1</ele>
    <time>2026-06-24T05:40:18Z</time>
   </trkpt>
   <trkpt lat="-3.1693500" lon="37.3592320">
    <ele>2809.9</ele>
    <time>2026-06-24T05:40:19Z</time>
   </trkpt>
   <trkpt lat="-3.1693580" lon="37.3592310">
    <ele>2809.7</ele>
    <time>2026-06-24T05:40:20Z</time>
   </trkpt>
   <trkpt lat="-3.1693660" lon="37.3592340">
    <ele>2809.6</ele>
    <time>2026-06-24T05:40:21Z</time>
   </trkpt>
   <trkpt lat="-3.1693750" lon="37.3592370">
    <ele>2809.4</ele>
    <time>2026-06-24T05:40:22Z</time>
   </trkpt>
   <trkpt lat="-3.1693760" lon="37.3592360">
    <ele>2809.4</ele>
    <time>2026-06-24T05:40:23Z</time>
   </trkpt>
   <trkpt lat="-3.1693900" lon="37.3592340">
    <ele>2809.2</ele>
    <time>2026-06-24T05:40:24Z</time>
   </trkpt>
   <trkpt lat="-3.1693990" lon="37.3592330">
    <ele>2809.0</ele>
    <time>2026-06-24T05:40:25Z</time>
   </trkpt>
   <trkpt lat="-3.1694100" lon="37.3592350">
    <ele>2808.8</ele>
    <time>2026-06-24T05:40:26Z</time>
   </trkpt>
   <trkpt lat="-3.1694190" lon="37.3592320">
    <ele>2808.6</ele>
    <time>2026-06-24T05:40:27Z</time>
   </trkpt>
   <trkpt lat="-3.1694380" lon="37.3592320">
    <ele>2808.3</ele>
    <time>2026-06-24T05:40:28Z</time>
   </trkpt>
   <trkpt lat="-3.1694460" lon="37.3592350">
    <ele>2808.2</ele>
    <time>2026-06-24T05:40:29Z</time>
   </trkpt>
   <trkpt lat="-3.1694520" lon="37.3592340">
    <ele>2808.0</ele>
    <time>2026-06-24T05:40:30Z</time>
   </trkpt>
   <trkpt lat="-3.1694550" lon="37.3592380">
    <ele>2808.0</ele>
    <time>2026-06-24T05:40:31Z</time>
   </trkpt>
   <trkpt lat="-3.1694640" lon="37.3592380">
    <ele>2807.8</ele>
    <time>2026-06-24T05:40:32Z</time>
   </trkpt>
   <trkpt lat="-3.1694750" lon="37.3592340">
    <ele>2807.6</ele>
    <time>2026-06-24T05:40:33Z</time>
   </trkpt>
   <trkpt lat="-3.1694870" lon="37.3592360">
    <ele>2807.4</ele>
    <time>2026-06-24T05:40:34Z</time>
   </trkpt>
   <trkpt lat="-3.1695020" lon="37.3592350">
    <ele>2807.1</ele>
    <time>2026-06-24T05:40:35Z</time>
   </trkpt>
   <trkpt lat="-3.1695110" lon="37.3592380">
    <ele>2806.9</ele>
    <time>2026-06-24T05:40:36Z</time>
   </trkpt>
   <trkpt lat="-3.1695210" lon="37.3592360">
    <ele>2806.7</ele>
    <time>2026-06-24T05:40:37Z</time>
   </trkpt>
   <trkpt lat="-3.1695200" lon="37.3592370">
    <ele>2806.7</ele>
    <time>2026-06-24T05:40:38Z</time>
   </trkpt>
   <trkpt lat="-3.1695260" lon="37.3592380">
    <ele>2806.6</ele>
    <time>2026-06-24T05:40:39Z</time>
   </trkpt>
   <trkpt lat="-3.1695340" lon="37.3592400">
    <ele>2806.4</ele>
    <time>2026-06-24T05:40:40Z</time>
   </trkpt>
   <trkpt lat="-3.1695420" lon="37.3592410">
    <ele>2806.3</ele>
    <time>2026-06-24T05:40:41Z</time>
   </trkpt>
   <trkpt lat="-3.1695470" lon="37.3592400">
    <ele>2806.2</ele>
    <time>2026-06-24T05:40:42Z</time>
   </trkpt>
   <trkpt lat="-3.1695520" lon="37.3592360">
    <ele>2806.1</ele>
    <time>2026-06-24T05:40:43Z</time>
   </trkpt>
   <trkpt lat="-3.1695590" lon="37.3592370">
    <ele>2805.9</ele>
    <time>2026-06-24T05:40:44Z</time>
   </trkpt>
   <trkpt lat="-3.1695680" lon="37.3592340">
    <ele>2805.7</ele>
    <time>2026-06-24T05:40:45Z</time>
   </trkpt>
   <trkpt lat="-3.1695820" lon="37.3592310">
    <ele>2805.5</ele>
    <time>2026-06-24T05:40:46Z</time>
   </trkpt>
   <trkpt lat="-3.1695930" lon="37.3592250">
    <ele>2805.2</ele>
    <time>2026-06-24T05:40:47Z</time>
   </trkpt>
   <trkpt lat="-3.1696020" lon="37.3592280">
    <ele>2805.0</ele>
    <time>2026-06-24T05:40:48Z</time>
   </trkpt>
   <trkpt lat="-3.1696080" lon="37.3592330">
    <ele>2804.8</ele>
    <time>2026-06-24T05:40:49Z</time>
   </trkpt>
   <trkpt lat="-3.1696110" lon="37.3592350">
    <ele>2804.8</ele>
    <time>2026-06-24T05:40:50Z</time>
   </trkpt>
   <trkpt lat="-3.1696130" lon="37.3592390">
    <ele>2804.7</ele>
    <time>2026-06-24T05:40:51Z</time>
   </trkpt>
   <trkpt lat="-3.1696270" lon="37.3592400">
    <ele>2804.4</ele>
    <time>2026-06-24T05:40:52Z</time>
   </trkpt>
   <trkpt lat="-3.1696320" lon="37.3592430">
    <ele>2804.3</ele>
    <time>2026-06-24T05:40:53Z</time>
   </trkpt>
   <trkpt lat="-3.1696360" lon="37.3592440">
    <ele>2804.2</ele>
    <time>2026-06-24T05:40:54Z</time>
   </trkpt>
   <trkpt lat="-3.1696390" lon="37.3592480">
    <ele>2804.1</ele>
    <time>2026-06-24T05:40:55Z</time>
   </trkpt>
   <trkpt lat="-3.1696440" lon="37.3592480">
    <ele>2804.0</ele>
    <time>2026-06-24T05:40:56Z</time>
   </trkpt>
   <trkpt lat="-3.1696490" lon="37.3592440">
    <ele>2803.8</ele>
    <time>2026-06-24T05:40:57Z</time>
   </trkpt>
   <trkpt lat="-3.1696620" lon="37.3592440">
    <ele>2803.5</ele>
    <time>2026-06-24T05:40:58Z</time>
   </trkpt>
   <trkpt lat="-3.1696770" lon="37.3592490">
    <ele>2803.2</ele>
    <time>2026-06-24T05:40:59Z</time>
   </trkpt>
   <trkpt lat="-3.1696910" lon="37.3592510">
    <ele>2802.9</ele>
    <time>2026-06-24T05:41:00Z</time>
   </trkpt>
   <trkpt lat="-3.1696990" lon="37.3592520">
    <ele>2802.7</ele>
    <time>2026-06-24T05:41:01Z</time>
   </trkpt>
   <trkpt lat="-3.1696990" lon="37.3592520">
    <ele>2802.7</ele>
    <time>2026-06-24T05:41:02Z</time>
   </trkpt>
   <trkpt lat="-3.1697060" lon="37.3592600">
    <ele>2802.5</ele>
    <time>2026-06-24T05:41:03Z</time>
   </trkpt>
   <trkpt lat="-3.1697070" lon="37.3592600">
    <ele>2802.4</ele>
    <time>2026-06-24T05:41:04Z</time>
   </trkpt>
   <trkpt lat="-3.1697170" lon="37.3592620">
    <ele>2802.2</ele>
    <time>2026-06-24T05:41:05Z</time>
   </trkpt>
   <trkpt lat="-3.1697170" lon="37.3592640">
    <ele>2802.2</ele>
    <time>2026-06-24T05:41:06Z</time>
   </trkpt>
   <trkpt lat="-3.1697090" lon="37.3592640">
    <ele>2802.0</ele>
    <time>2026-06-24T05:41:07Z</time>
   </trkpt>
   <trkpt lat="-3.1697220" lon="37.3592580">
    <ele>2801.7</ele>
    <time>2026-06-24T05:41:08Z</time>
   </trkpt>
   <trkpt lat="-3.1697330" lon="37.3592640">
    <ele>2801.4</ele>
    <time>2026-06-24T05:41:09Z</time>
   </trkpt>
   <trkpt lat="-3.1697410" lon="37.3592690">
    <ele>2801.2</ele>
    <time>2026-06-24T05:41:10Z</time>
   </trkpt>
   <trkpt lat="-3.1697410" lon="37.3592720">
    <ele>2801.1</ele>
    <time>2026-06-24T05:41:11Z</time>
   </trkpt>
   <trkpt lat="-3.1697480" lon="37.3592750">
    <ele>2801.0</ele>
    <time>2026-06-24T05:41:12Z</time>
   </trkpt>
   <trkpt lat="-3.1697540" lon="37.3592770">
    <ele>2800.8</ele>
    <time>2026-06-24T05:41:13Z</time>
   </trkpt>
   <trkpt lat="-3.1697550" lon="37.3592800">
    <ele>2800.8</ele>
    <time>2026-06-24T05:41:14Z</time>
   </trkpt>
   <trkpt lat="-3.1697610" lon="37.3592830">
    <ele>2800.6</ele>
    <time>2026-06-24T05:41:15Z</time>
   </trkpt>
   <trkpt lat="-3.1697650" lon="37.3592840">
    <ele>2800.5</ele>
    <time>2026-06-24T05:41:16Z</time>
   </trkpt>
   <trkpt lat="-3.1697720" lon="37.3592870">
    <ele>2800.4</ele>
    <time>2026-06-24T05:41:17Z</time>
   </trkpt>
   <trkpt lat="-3.1697750" lon="37.3592880">
    <ele>2800.3</ele>
    <time>2026-06-24T05:41:18Z</time>
   </trkpt>
   <trkpt lat="-3.1697810" lon="37.3592920">
    <ele>2800.2</ele>
    <time>2026-06-24T05:41:19Z</time>
   </trkpt>
   <trkpt lat="-3.1697850" lon="37.3592920">
    <ele>2800.1</ele>
    <time>2026-06-24T05:41:20Z</time>
   </trkpt>
   <trkpt lat="-3.1697910" lon="37.3592950">
    <ele>2800.0</ele>
    <time>2026-06-24T05:41:21Z</time>
   </trkpt>
   <trkpt lat="-3.1698000" lon="37.3592990">
    <ele>2799.8</ele>
    <time>2026-06-24T05:41:22Z</time>
   </trkpt>
   <trkpt lat="-3.1698050" lon="37.3592980">
    <ele>2799.7</ele>
    <time>2026-06-24T05:41:23Z</time>
   </trkpt>
   <trkpt lat="-3.1698090" lon="37.3592960">
    <ele>2799.6</ele>
    <time>2026-06-24T05:41:24Z</time>
   </trkpt>
   <trkpt lat="-3.1698130" lon="37.3592940">
    <ele>2799.5</ele>
    <time>2026-06-24T05:41:25Z</time>
   </trkpt>
   <trkpt lat="-3.1698210" lon="37.3592890">
    <ele>2799.3</ele>
    <time>2026-06-24T05:41:26Z</time>
   </trkpt>
   <trkpt lat="-3.1698330" lon="37.3592860">
    <ele>2799.1</ele>
    <time>2026-06-24T05:41:27Z</time>
   </trkpt>
   <trkpt lat="-3.1698350" lon="37.3592810">
    <ele>2799.0</ele>
    <time>2026-06-24T05:41:28Z</time>
   </trkpt>
   <trkpt lat="-3.1698390" lon="37.3592780">
    <ele>2798.9</ele>
    <time>2026-06-24T05:41:29Z</time>
   </trkpt>
   <trkpt lat="-3.1698540" lon="37.3592780">
    <ele>2798.6</ele>
    <time>2026-06-24T05:41:30Z</time>
   </trkpt>
   <trkpt lat="-3.1698540" lon="37.3592820">
    <ele>2798.5</ele>
    <time>2026-06-24T05:41:31Z</time>
   </trkpt>
   <trkpt lat="-3.1698570" lon="37.3592870">
    <ele>2798.4</ele>
    <time>2026-06-24T05:41:32Z</time>
   </trkpt>
   <trkpt lat="-3.1698610" lon="37.3592880">
    <ele>2798.3</ele>
    <time>2026-06-24T05:41:33Z</time>
   </trkpt>
   <trkpt lat="-3.1698640" lon="37.3592870">
    <ele>2798.3</ele>
    <time>2026-06-24T05:41:34Z</time>
   </trkpt>
   <trkpt lat="-3.1698730" lon="37.3592870">
    <ele>2798.1</ele>
    <time>2026-06-24T05:41:35Z</time>
   </trkpt>
   <trkpt lat="-3.1698800" lon="37.3592880">
    <ele>2798.0</ele>
    <time>2026-06-24T05:41:36Z</time>
   </trkpt>
   <trkpt lat="-3.1698870" lon="37.3592870">
    <ele>2797.8</ele>
    <time>2026-06-24T05:41:37Z</time>
   </trkpt>
   <trkpt lat="-3.1698940" lon="37.3592870">
    <ele>2797.7</ele>
    <time>2026-06-24T05:41:38Z</time>
   </trkpt>
   <trkpt lat="-3.1698970" lon="37.3592860">
    <ele>2797.7</ele>
    <time>2026-06-24T05:41:39Z</time>
   </trkpt>
   <trkpt lat="-3.1699060" lon="37.3592810">
    <ele>2797.6</ele>
    <time>2026-06-24T05:41:40Z</time>
   </trkpt>
   <trkpt lat="-3.1699160" lon="37.3592770">
    <ele>2797.5</ele>
    <time>2026-06-24T05:41:41Z</time>
   </trkpt>
   <trkpt lat="-3.1699270" lon="37.3592710">
    <ele>2797.4</ele>
    <time>2026-06-24T05:41:42Z</time>
   </trkpt>
   <trkpt lat="-3.1699360" lon="37.3592610">
    <ele>2797.3</ele>
    <time>2026-06-24T05:41:43Z</time>
   </trkpt>
   <trkpt lat="-3.1699460" lon="37.3592510">
    <ele>2797.2</ele>
    <time>2026-06-24T05:41:44Z</time>
   </trkpt>
   <trkpt lat="-3.1699540" lon="37.3592450">
    <ele>2797.1</ele>
    <time>2026-06-24T05:41:45Z</time>
   </trkpt>
   <trkpt lat="-3.1699690" lon="37.3592390">
    <ele>2797.0</ele>
    <time>2026-06-24T05:41:46Z</time>
   </trkpt>
   <trkpt lat="-3.1699820" lon="37.3592300">
    <ele>2796.9</ele>
    <time>2026-06-24T05:41:47Z</time>
   </trkpt>
   <trkpt lat="-3.1699960" lon="37.3592220">
    <ele>2796.8</ele>
    <time>2026-06-24T05:41:48Z</time>
   </trkpt>
   <trkpt lat="-3.1700010" lon="37.3592190">
    <ele>2796.7</ele>
    <time>2026-06-24T05:41:49Z</time>
   </trkpt>
   <trkpt lat="-3.1700090" lon="37.3592170">
    <ele>2796.7</ele>
    <time>2026-06-24T05:41:50Z</time>
   </trkpt>
   <trkpt lat="-3.1700090" lon="37.3592180">
    <ele>2796.7</ele>
    <time>2026-06-24T05:41:51Z</time>
   </trkpt>
   <trkpt lat="-3.1700130" lon="37.3592210">
    <ele>2796.6</ele>
    <time>2026-06-24T05:41:52Z</time>
   </trkpt>
   <trkpt lat="-3.1700230" lon="37.3592190">
    <ele>2796.5</ele>
    <time>2026-06-24T05:41:53Z</time>
   </trkpt>
   <trkpt lat="-3.1700290" lon="37.3592120">
    <ele>2796.5</ele>
    <time>2026-06-24T05:41:54Z</time>
   </trkpt>
   <trkpt lat="-3.1700380" lon="37.3592080">
    <ele>2796.4</ele>
    <time>2026-06-24T05:41:55Z</time>
   </trkpt>
   <trkpt lat="-3.1700480" lon="37.3592060">
    <ele>2796.3</ele>
    <time>2026-06-24T05:41:56Z</time>
   </trkpt>
   <trkpt lat="-3.1700580" lon="37.3592010">
    <ele>2796.2</ele>
    <time>2026-06-24T05:41:57Z</time>
   </trkpt>
   <trkpt lat="-3.1700660" lon="37.3591990">
    <ele>2796.1</ele>
    <time>2026-06-24T05:41:58Z</time>
   </trkpt>
   <trkpt lat="-3.1700720" lon="37.3591940">
    <ele>2796.0</ele>
    <time>2026-06-24T05:41:59Z</time>
   </trkpt>
   <trkpt lat="-3.1700770" lon="37.3591940">
    <ele>2795.9</ele>
    <time>2026-06-24T05:42:00Z</time>
   </trkpt>
   <trkpt lat="-3.1700870" lon="37.3591930">
    <ele>2795.8</ele>
    <time>2026-06-24T05:42:01Z</time>
   </trkpt>
   <trkpt lat="-3.1700910" lon="37.3591960">
    <ele>2795.8</ele>
    <time>2026-06-24T05:42:02Z</time>
   </trkpt>
   <trkpt lat="-3.1701010" lon="37.3591970">
    <ele>2795.7</ele>
    <time>2026-06-24T05:42:03Z</time>
   </trkpt>
   <trkpt lat="-3.1701080" lon="37.3591980">
    <ele>2795.6</ele>
    <time>2026-06-24T05:42:04Z</time>
   </trkpt>
   <trkpt lat="-3.1701190" lon="37.3591960">
    <ele>2795.5</ele>
    <time>2026-06-24T05:42:05Z</time>
   </trkpt>
   <trkpt lat="-3.1701280" lon="37.3591890">
    <ele>2795.3</ele>
    <time>2026-06-24T05:42:06Z</time>
   </trkpt>
   <trkpt lat="-3.1701280" lon="37.3591830">
    <ele>2795.2</ele>
    <time>2026-06-24T05:42:07Z</time>
   </trkpt>
   <trkpt lat="-3.1701390" lon="37.3591770">
    <ele>2795.1</ele>
    <time>2026-06-24T05:42:08Z</time>
   </trkpt>
   <trkpt lat="-3.1701440" lon="37.3591640">
    <ele>2794.9</ele>
    <time>2026-06-24T05:42:09Z</time>
   </trkpt>
   <trkpt lat="-3.1701450" lon="37.3591550">
    <ele>2794.8</ele>
    <time>2026-06-24T05:42:10Z</time>
   </trkpt>
   <trkpt lat="-3.1701490" lon="37.3591480">
    <ele>2794.6</ele>
    <time>2026-06-24T05:42:11Z</time>
   </trkpt>
   <trkpt lat="-3.1701520" lon="37.3591430">
    <ele>2794.5</ele>
    <time>2026-06-24T05:42:12Z</time>
   </trkpt>
   <trkpt lat="-3.1701530" lon="37.3591390">
    <ele>2794.5</ele>
    <time>2026-06-24T05:42:13Z</time>
   </trkpt>
   <trkpt lat="-3.1701490" lon="37.3591350">
    <ele>2794.4</ele>
    <time>2026-06-24T05:42:14Z</time>
   </trkpt>
   <trkpt lat="-3.1701520" lon="37.3591310">
    <ele>2794.3</ele>
    <time>2026-06-24T05:42:15Z</time>
   </trkpt>
   <trkpt lat="-3.1701560" lon="37.3591310">
    <ele>2794.2</ele>
    <time>2026-06-24T05:42:16Z</time>
   </trkpt>
   <trkpt lat="-3.1701500" lon="37.3591270">
    <ele>2794.1</ele>
    <time>2026-06-24T05:42:17Z</time>
   </trkpt>
   <trkpt lat="-3.1701440" lon="37.3591320">
    <ele>2794.0</ele>
    <time>2026-06-24T05:42:18Z</time>
   </trkpt>
   <trkpt lat="-3.1701380" lon="37.3591380">
    <ele>2793.9</ele>
    <time>2026-06-24T05:42:19Z</time>
   </trkpt>
   <trkpt lat="-3.1701380" lon="37.3591420">
    <ele>2793.8</ele>
    <time>2026-06-24T05:42:20Z</time>
   </trkpt>
   <trkpt lat="-3.1701440" lon="37.3591410">
    <ele>2793.7</ele>
    <time>2026-06-24T05:42:21Z</time>
   </trkpt>
   <trkpt lat="-3.1701540" lon="37.3591370">
    <ele>2793.5</ele>
    <time>2026-06-24T05:42:22Z</time>
   </trkpt>
   <trkpt lat="-3.1701620" lon="37.3591400">
    <ele>2793.3</ele>
    <time>2026-06-24T05:42:23Z</time>
   </trkpt>
   <trkpt lat="-3.1701640" lon="37.3591360">
    <ele>2793.2</ele>
    <time>2026-06-24T05:42:24Z</time>
   </trkpt>
   <trkpt lat="-3.1701770" lon="37.3591300">
    <ele>2793.0</ele>
    <time>2026-06-24T05:42:25Z</time>
   </trkpt>
   <trkpt lat="-3.1701860" lon="37.3591330">
    <ele>2792.8</ele>
    <time>2026-06-24T05:42:26Z</time>
   </trkpt>
   <trkpt lat="-3.1701930" lon="37.3591260">
    <ele>2792.6</ele>
    <time>2026-06-24T05:42:27Z</time>
   </trkpt>
   <trkpt lat="-3.1702020" lon="37.3591220">
    <ele>2792.4</ele>
    <time>2026-06-24T05:42:28Z</time>
   </trkpt>
   <trkpt lat="-3.1702100" lon="37.3591190">
    <ele>2792.2</ele>
    <time>2026-06-24T05:42:29Z</time>
   </trkpt>
   <trkpt lat="-3.1702120" lon="37.3591130">
    <ele>2792.1</ele>
    <time>2026-06-24T05:42:30Z</time>
   </trkpt>
   <trkpt lat="-3.1702140" lon="37.3591110">
    <ele>2792.1</ele>
    <time>2026-06-24T05:42:31Z</time>
   </trkpt>
   <trkpt lat="-3.1702160" lon="37.3591070">
    <ele>2792.0</ele>
    <time>2026-06-24T05:42:32Z</time>
   </trkpt>
   <trkpt lat="-3.1702190" lon="37.3591090">
    <ele>2791.9</ele>
    <time>2026-06-24T05:42:33Z</time>
   </trkpt>
   <trkpt lat="-3.1702300" lon="37.3591140">
    <ele>2791.7</ele>
    <time>2026-06-24T05:42:34Z</time>
   </trkpt>
   <trkpt lat="-3.1702360" lon="37.3591120">
    <ele>2791.5</ele>
    <time>2026-06-24T05:42:35Z</time>
   </trkpt>
   <trkpt lat="-3.1702430" lon="37.3591090">
    <ele>2791.4</ele>
    <time>2026-06-24T05:42:36Z</time>
   </trkpt>
   <trkpt lat="-3.1702480" lon="37.3591100">
    <ele>2791.3</ele>
    <time>2026-06-24T05:42:37Z</time>
   </trkpt>
   <trkpt lat="-3.1702510" lon="37.3591130">
    <ele>2791.2</ele>
    <time>2026-06-24T05:42:38Z</time>
   </trkpt>
   <trkpt lat="-3.1702510" lon="37.3591130">
    <ele>2791.2</ele>
    <time>2026-06-24T05:42:39Z</time>
   </trkpt>
   <trkpt lat="-3.1702510" lon="37.3591130">
    <ele>2791.2</ele>
    <time>2026-06-24T05:42:40Z</time>
   </trkpt>
   <trkpt lat="-3.1702400" lon="37.3591200">
    <ele>2791.0</ele>
    <time>2026-06-24T05:42:41Z</time>
   </trkpt>
   <trkpt lat="-3.1702450" lon="37.3591220">
    <ele>2790.9</ele>
    <time>2026-06-24T05:42:42Z</time>
   </trkpt>
   <trkpt lat="-3.1702490" lon="37.3591200">
    <ele>2790.8</ele>
    <time>2026-06-24T05:42:43Z</time>
   </trkpt>
   <trkpt lat="-3.1702620" lon="37.3591230">
    <ele>2790.5</ele>
    <time>2026-06-24T05:42:44Z</time>
   </trkpt>
   <trkpt lat="-3.1702640" lon="37.3591250">
    <ele>2790.5</ele>
    <time>2026-06-24T05:42:45Z</time>
   </trkpt>
   <trkpt lat="-3.1702660" lon="37.3591260">
    <ele>2790.4</ele>
    <time>2026-06-24T05:42:46Z</time>
   </trkpt>
   <trkpt lat="-3.1702610" lon="37.3591310">
    <ele>2790.3</ele>
    <time>2026-06-24T05:42:47Z</time>
   </trkpt>
   <trkpt lat="-3.1702650" lon="37.3591370">
    <ele>2790.1</ele>
    <time>2026-06-24T05:42:48Z</time>
   </trkpt>
   <trkpt lat="-3.1702750" lon="37.3591410">
    <ele>2789.9</ele>
    <time>2026-06-24T05:42:49Z</time>
   </trkpt>
   <trkpt lat="-3.1702830" lon="37.3591480">
    <ele>2789.7</ele>
    <time>2026-06-24T05:42:50Z</time>
   </trkpt>
   <trkpt lat="-3.1702850" lon="37.3591500">
    <ele>2789.7</ele>
    <time>2026-06-24T05:42:51Z</time>
   </trkpt>
   <trkpt lat="-3.1702840" lon="37.3591480">
    <ele>2789.6</ele>
    <time>2026-06-24T05:42:52Z</time>
   </trkpt>
   <trkpt lat="-3.1702870" lon="37.3591490">
    <ele>2789.6</ele>
    <time>2026-06-24T05:42:53Z</time>
   </trkpt>
   <trkpt lat="-3.1702930" lon="37.3591490">
    <ele>2789.4</ele>
    <time>2026-06-24T05:42:54Z</time>
   </trkpt>
   <trkpt lat="-3.1702970" lon="37.3591500">
    <ele>2789.4</ele>
    <time>2026-06-24T05:42:55Z</time>
   </trkpt>
   <trkpt lat="-3.1702970" lon="37.3591500">
    <ele>2789.4</ele>
    <time>2026-06-24T05:42:56Z</time>
   </trkpt>
   <trkpt lat="-3.1702970" lon="37.3591500">
    <ele>2789.4</ele>
    <time>2026-06-24T05:42:57Z</time>
   </trkpt>
   <trkpt lat="-3.1702970" lon="37.3591500">
    <ele>2789.4</ele>
    <time>2026-06-24T05:42:58Z</time>
   </trkpt>
   <trkpt lat="-3.1702970" lon="37.3591500">
    <ele>2789.4</ele>
    <time>2026-06-24T05:42:59Z</time>
   </trkpt>
   <trkpt lat="-3.1703100" lon="37.3591400">
    <ele>2789.0</ele>
    <time>2026-06-24T05:43:00Z</time>
   </trkpt>
   <trkpt lat="-3.1703120" lon="37.3591390">
    <ele>2789.0</ele>
    <time>2026-06-24T05:43:01Z</time>
   </trkpt>
   <trkpt lat="-3.1703170" lon="37.3591390">
    <ele>2788.9</ele>
    <time>2026-06-24T05:43:02Z</time>
   </trkpt>
   <trkpt lat="-3.1703170" lon="37.3591390">
    <ele>2788.9</ele>
    <time>2026-06-24T05:43:03Z</time>
   </trkpt>
   <trkpt lat="-3.1703240" lon="37.3591410">
    <ele>2788.8</ele>
    <time>2026-06-24T05:43:04Z</time>
   </trkpt>
   <trkpt lat="-3.1703280" lon="37.3591420">
    <ele>2788.7</ele>
    <time>2026-06-24T05:43:05Z</time>
   </trkpt>
   <trkpt lat="-3.1703400" lon="37.3591440">
    <ele>2788.5</ele>
    <time>2026-06-24T05:43:06Z</time>
   </trkpt>
   <trkpt lat="-3.1703430" lon="37.3591450">
    <ele>2788.4</ele>
    <time>2026-06-24T05:43:07Z</time>
   </trkpt>
   <trkpt lat="-3.1703490" lon="37.3591460">
    <ele>2788.3</ele>
    <time>2026-06-24T05:43:08Z</time>
   </trkpt>
   <trkpt lat="-3.1703550" lon="37.3591460">
    <ele>2788.2</ele>
    <time>2026-06-24T05:43:09Z</time>
   </trkpt>
   <trkpt lat="-3.1703640" lon="37.3591450">
    <ele>2788.0</ele>
    <time>2026-06-24T05:43:10Z</time>
   </trkpt>
   <trkpt lat="-3.1703680" lon="37.3591450">
    <ele>2788.0</ele>
    <time>2026-06-24T05:43:11Z</time>
   </trkpt>
   <trkpt lat="-3.1703710" lon="37.3591430">
    <ele>2787.9</ele>
    <time>2026-06-24T05:43:12Z</time>
   </trkpt>
   <trkpt lat="-3.1703740" lon="37.3591430">
    <ele>2787.8</ele>
    <time>2026-06-24T05:43:13Z</time>
   </trkpt>
   <trkpt lat="-3.1703810" lon="37.3591430">
    <ele>2787.7</ele>
    <time>2026-06-24T05:43:14Z</time>
   </trkpt>
   <trkpt lat="-3.1703930" lon="37.3591390">
    <ele>2787.5</ele>
    <time>2026-06-24T05:43:15Z</time>
   </trkpt>
   <trkpt lat="-3.1704000" lon="37.3591400">
    <ele>2787.3</ele>
    <time>2026-06-24T05:43:16Z</time>
   </trkpt>
   <trkpt lat="-3.1704060" lon="37.3591360">
    <ele>2787.2</ele>
    <time>2026-06-24T05:43:17Z</time>
   </trkpt>
   <trkpt lat="-3.1704140" lon="37.3591330">
    <ele>2787.1</ele>
    <time>2026-06-24T05:43:18Z</time>
   </trkpt>
   <trkpt lat="-3.1704210" lon="37.3591350">
    <ele>2786.9</ele>
    <time>2026-06-24T05:43:19Z</time>
   </trkpt>
   <trkpt lat="-3.1704340" lon="37.3591390">
    <ele>2786.7</ele>
    <time>2026-06-24T05:43:20Z</time>
   </trkpt>
   <trkpt lat="-3.1704370" lon="37.3591350">
    <ele>2786.6</ele>
    <time>2026-06-24T05:43:21Z</time>
   </trkpt>
   <trkpt lat="-3.1704420" lon="37.3591350">
    <ele>2786.5</ele>
    <time>2026-06-24T05:43:22Z</time>
   </trkpt>
   <trkpt lat="-3.1704400" lon="37.3591390">
    <ele>2786.4</ele>
    <time>2026-06-24T05:43:23Z</time>
   </trkpt>
   <trkpt lat="-3.1704420" lon="37.3591420">
    <ele>2786.3</ele>
    <time>2026-06-24T05:43:24Z</time>
   </trkpt>
   <trkpt lat="-3.1704510" lon="37.3591480">
    <ele>2786.1</ele>
    <time>2026-06-24T05:43:25Z</time>
   </trkpt>
   <trkpt lat="-3.1704700" lon="37.3591550">
    <ele>2785.8</ele>
    <time>2026-06-24T05:43:26Z</time>
   </trkpt>
   <trkpt lat="-3.1704750" lon="37.3591580">
    <ele>2785.7</ele>
    <time>2026-06-24T05:43:27Z</time>
   </trkpt>
   <trkpt lat="-3.1704790" lon="37.3591660">
    <ele>2785.5</ele>
    <time>2026-06-24T05:43:28Z</time>
   </trkpt>
   <trkpt lat="-3.1704820" lon="37.3591720">
    <ele>2785.4</ele>
    <time>2026-06-24T05:43:29Z</time>
   </trkpt>
   <trkpt lat="-3.1704940" lon="37.3591730">
    <ele>2785.2</ele>
    <time>2026-06-24T05:43:30Z</time>
   </trkpt>
   <trkpt lat="-3.1705040" lon="37.3591760">
    <ele>2785.0</ele>
    <time>2026-06-24T05:43:31Z</time>
   </trkpt>
   <trkpt lat="-3.1705130" lon="37.3591820">
    <ele>2784.8</ele>
    <time>2026-06-24T05:43:32Z</time>
   </trkpt>
   <trkpt lat="-3.1705200" lon="37.3591890">
    <ele>2784.6</ele>
    <time>2026-06-24T05:43:33Z</time>
   </trkpt>
   <trkpt lat="-3.1705180" lon="37.3591910">
    <ele>2784.5</ele>
    <time>2026-06-24T05:43:34Z</time>
   </trkpt>
   <trkpt lat="-3.1705200" lon="37.3591960">
    <ele>2784.4</ele>
    <time>2026-06-24T05:43:35Z</time>
   </trkpt>
   <trkpt lat="-3.1705280" lon="37.3591990">
    <ele>2784.3</ele>
    <time>2026-06-24T05:43:36Z</time>
   </trkpt>
   <trkpt lat="-3.1705310" lon="37.3592000">
    <ele>2784.2</ele>
    <time>2026-06-24T05:43:37Z</time>
   </trkpt>
   <trkpt lat="-3.1705360" lon="37.3592010">
    <ele>2784.1</ele>
    <time>2026-06-24T05:43:38Z</time>
   </trkpt>
   <trkpt lat="-3.1705470" lon="37.3592020">
    <ele>2783.9</ele>
    <time>2026-06-24T05:43:39Z</time>
   </trkpt>
   <trkpt lat="-3.1705550" lon="37.3592030">
    <ele>2783.8</ele>
    <time>2026-06-24T05:43:40Z</time>
   </trkpt>
   <trkpt lat="-3.1705630" lon="37.3592050">
    <ele>2783.6</ele>
    <time>2026-06-24T05:43:41Z</time>
   </trkpt>
   <trkpt lat="-3.1705710" lon="37.3592090">
    <ele>2783.5</ele>
    <time>2026-06-24T05:43:42Z</time>
   </trkpt>
   <trkpt lat="-3.1705770" lon="37.3592100">
    <ele>2783.4</ele>
    <time>2026-06-24T05:43:43Z</time>
   </trkpt>
   <trkpt lat="-3.1705770" lon="37.3592140">
    <ele>2783.3</ele>
    <time>2026-06-24T05:43:44Z</time>
   </trkpt>
   <trkpt lat="-3.1705800" lon="37.3592170">
    <ele>2783.2</ele>
    <time>2026-06-24T05:43:45Z</time>
   </trkpt>
   <trkpt lat="-3.1705810" lon="37.3592180">
    <ele>2783.2</ele>
    <time>2026-06-24T05:43:46Z</time>
   </trkpt>
   <trkpt lat="-3.1705840" lon="37.3592210">
    <ele>2783.1</ele>
    <time>2026-06-24T05:43:47Z</time>
   </trkpt>
   <trkpt lat="-3.1705900" lon="37.3592250">
    <ele>2783.0</ele>
    <time>2026-06-24T05:43:48Z</time>
   </trkpt>
   <trkpt lat="-3.1705960" lon="37.3592280">
    <ele>2782.9</ele>
    <time>2026-06-24T05:43:49Z</time>
   </trkpt>
   <trkpt lat="-3.1705970" lon="37.3592260">
    <ele>2782.8</ele>
    <time>2026-06-24T05:43:50Z</time>
   </trkpt>
   <trkpt lat="-3.1706040" lon="37.3592250">
    <ele>2782.7</ele>
    <time>2026-06-24T05:43:51Z</time>
   </trkpt>
   <trkpt lat="-3.1706070" lon="37.3592240">
    <ele>2782.6</ele>
    <time>2026-06-24T05:43:52Z</time>
   </trkpt>
   <trkpt lat="-3.1706160" lon="37.3592260">
    <ele>2782.5</ele>
    <time>2026-06-24T05:43:53Z</time>
   </trkpt>
   <trkpt lat="-3.1706180" lon="37.3592230">
    <ele>2782.4</ele>
    <time>2026-06-24T05:43:54Z</time>
   </trkpt>
   <trkpt lat="-3.1706280" lon="37.3592180">
    <ele>2782.2</ele>
    <time>2026-06-24T05:43:55Z</time>
   </trkpt>
   <trkpt lat="-3.1706360" lon="37.3592140">
    <ele>2782.0</ele>
    <time>2026-06-24T05:43:56Z</time>
   </trkpt>
   <trkpt lat="-3.1706310" lon="37.3592060">
    <ele>2781.8</ele>
    <time>2026-06-24T05:43:57Z</time>
   </trkpt>
   <trkpt lat="-3.1706350" lon="37.3592070">
    <ele>2781.8</ele>
    <time>2026-06-24T05:43:58Z</time>
   </trkpt>
   <trkpt lat="-3.1706430" lon="37.3592040">
    <ele>2781.6</ele>
    <time>2026-06-24T05:43:59Z</time>
   </trkpt>
   <trkpt lat="-3.1706510" lon="37.3592010">
    <ele>2781.4</ele>
    <time>2026-06-24T05:44:00Z</time>
   </trkpt>
   <trkpt lat="-3.1706550" lon="37.3592010">
    <ele>2781.4</ele>
    <time>2026-06-24T05:44:01Z</time>
   </trkpt>
   <trkpt lat="-3.1706630" lon="37.3591990">
    <ele>2781.2</ele>
    <time>2026-06-24T05:44:02Z</time>
   </trkpt>
   <trkpt lat="-3.1706690" lon="37.3592000">
    <ele>2781.1</ele>
    <time>2026-06-24T05:44:03Z</time>
   </trkpt>
   <trkpt lat="-3.1706870" lon="37.3591970">
    <ele>2780.7</ele>
    <time>2026-06-24T05:44:04Z</time>
   </trkpt>
   <trkpt lat="-3.1706880" lon="37.3591990">
    <ele>2780.7</ele>
    <time>2026-06-24T05:44:05Z</time>
   </trkpt>
   <trkpt lat="-3.1707050" lon="37.3592010">
    <ele>2780.3</ele>
    <time>2026-06-24T05:44:06Z</time>
   </trkpt>
   <trkpt lat="-3.1707170" lon="37.3592030">
    <ele>2780.1</ele>
    <time>2026-06-24T05:44:07Z</time>
   </trkpt>
   <trkpt lat="-3.1707270" lon="37.3592040">
    <ele>2779.9</ele>
    <time>2026-06-24T05:44:08Z</time>
   </trkpt>
   <trkpt lat="-3.1707310" lon="37.3592040">
    <ele>2779.8</ele>
    <time>2026-06-24T05:44:09Z</time>
   </trkpt>
   <trkpt lat="-3.1707360" lon="37.3592040">
    <ele>2779.7</ele>
    <time>2026-06-24T05:44:10Z</time>
   </trkpt>
   <trkpt lat="-3.1707380" lon="37.3591990">
    <ele>2779.6</ele>
    <time>2026-06-24T05:44:11Z</time>
   </trkpt>
   <trkpt lat="-3.1707440" lon="37.3591980">
    <ele>2779.5</ele>
    <time>2026-06-24T05:44:12Z</time>
   </trkpt>
   <trkpt lat="-3.1707490" lon="37.3592000">
    <ele>2779.4</ele>
    <time>2026-06-24T05:44:13Z</time>
   </trkpt>
   <trkpt lat="-3.1707540" lon="37.3592010">
    <ele>2779.3</ele>
    <time>2026-06-24T05:44:14Z</time>
   </trkpt>
   <trkpt lat="-3.1707590" lon="37.3592000">
    <ele>2779.2</ele>
    <time>2026-06-24T05:44:15Z</time>
   </trkpt>
   <trkpt lat="-3.1707690" lon="37.3592000">
    <ele>2779.0</ele>
    <time>2026-06-24T05:44:16Z</time>
   </trkpt>
   <trkpt lat="-3.1707830" lon="37.3592090">
    <ele>2778.6</ele>
    <time>2026-06-24T05:44:17Z</time>
   </trkpt>
   <trkpt lat="-3.1707890" lon="37.3592110">
    <ele>2778.5</ele>
    <time>2026-06-24T05:44:18Z</time>
   </trkpt>
   <trkpt lat="-3.1707950" lon="37.3592110">
    <ele>2778.4</ele>
    <time>2026-06-24T05:44:19Z</time>
   </trkpt>
   <trkpt lat="-3.1708020" lon="37.3592110">
    <ele>2778.2</ele>
    <time>2026-06-24T05:44:20Z</time>
   </trkpt>
   <trkpt lat="-3.1708150" lon="37.3592120">
    <ele>2778.0</ele>
    <time>2026-06-24T05:44:21Z</time>
   </trkpt>
   <trkpt lat="-3.1708190" lon="37.3592120">
    <ele>2777.9</ele>
    <time>2026-06-24T05:44:22Z</time>
   </trkpt>
   <trkpt lat="-3.1708240" lon="37.3592150">
    <ele>2777.8</ele>
    <time>2026-06-24T05:44:23Z</time>
   </trkpt>
   <trkpt lat="-3.1708330" lon="37.3592180">
    <ele>2777.6</ele>
    <time>2026-06-24T05:44:24Z</time>
   </trkpt>
   <trkpt lat="-3.1708340" lon="37.3592200">
    <ele>2777.6</ele>
    <time>2026-06-24T05:44:25Z</time>
   </trkpt>
   <trkpt lat="-3.1708350" lon="37.3592250">
    <ele>2777.5</ele>
    <time>2026-06-24T05:44:26Z</time>
   </trkpt>
   <trkpt lat="-3.1708430" lon="37.3592230">
    <ele>2777.3</ele>
    <time>2026-06-24T05:44:27Z</time>
   </trkpt>
   <trkpt lat="-3.1708510" lon="37.3592140">
    <ele>2777.0</ele>
    <time>2026-06-24T05:44:28Z</time>
   </trkpt>
   <trkpt lat="-3.1708620" lon="37.3592140">
    <ele>2776.8</ele>
    <time>2026-06-24T05:44:29Z</time>
   </trkpt>
   <trkpt lat="-3.1708780" lon="37.3592150">
    <ele>2776.5</ele>
    <time>2026-06-24T05:44:30Z</time>
   </trkpt>
   <trkpt lat="-3.1708850" lon="37.3592190">
    <ele>2776.3</ele>
    <time>2026-06-24T05:44:31Z</time>
   </trkpt>
   <trkpt lat="-3.1708940" lon="37.3592230">
    <ele>2776.1</ele>
    <time>2026-06-24T05:44:32Z</time>
   </trkpt>
   <trkpt lat="-3.1709010" lon="37.3592250">
    <ele>2776.0</ele>
    <time>2026-06-24T05:44:33Z</time>
   </trkpt>
   <trkpt lat="-3.1709060" lon="37.3592280">
    <ele>2775.9</ele>
    <time>2026-06-24T05:44:34Z</time>
   </trkpt>
   <trkpt lat="-3.1709150" lon="37.3592330">
    <ele>2775.7</ele>
    <time>2026-06-24T05:44:35Z</time>
   </trkpt>
   <trkpt lat="-3.1709150" lon="37.3592350">
    <ele>2775.7</ele>
    <time>2026-06-24T05:44:36Z</time>
   </trkpt>
   <trkpt lat="-3.1709190" lon="37.3592360">
    <ele>2775.6</ele>
    <time>2026-06-24T05:44:37Z</time>
   </trkpt>
   <trkpt lat="-3.1709200" lon="37.3592430">
    <ele>2775.4</ele>
    <time>2026-06-24T05:44:38Z</time>
   </trkpt>
   <trkpt lat="-3.1709240" lon="37.3592500">
    <ele>2775.3</ele>
    <time>2026-06-24T05:44:39Z</time>
   </trkpt>
   <trkpt lat="-3.1709290" lon="37.3592520">
    <ele>2775.2</ele>
    <time>2026-06-24T05:44:40Z</time>
   </trkpt>
   <trkpt lat="-3.1709330" lon="37.3592530">
    <ele>2775.1</ele>
    <time>2026-06-24T05:44:41Z</time>
   </trkpt>
   <trkpt lat="-3.1709390" lon="37.3592560">
    <ele>2775.0</ele>
    <time>2026-06-24T05:44:42Z</time>
   </trkpt>
   <trkpt lat="-3.1709410" lon="37.3592570">
    <ele>2774.9</ele>
    <time>2026-06-24T05:44:43Z</time>
   </trkpt>
   <trkpt lat="-3.1709470" lon="37.3592630">
    <ele>2774.8</ele>
    <time>2026-06-24T05:44:44Z</time>
   </trkpt>
   <trkpt lat="-3.1709480" lon="37.3592700">
    <ele>2774.6</ele>
    <time>2026-06-24T05:44:45Z</time>
   </trkpt>
   <trkpt lat="-3.1709560" lon="37.3592730">
    <ele>2774.5</ele>
    <time>2026-06-24T05:44:46Z</time>
   </trkpt>
   <trkpt lat="-3.1709640" lon="37.3592730">
    <ele>2774.3</ele>
    <time>2026-06-24T05:44:47Z</time>
   </trkpt>
   <trkpt lat="-3.1709700" lon="37.3592730">
    <ele>2774.2</ele>
    <time>2026-06-24T05:44:48Z</time>
   </trkpt>
   <trkpt lat="-3.1709840" lon="37.3592730">
    <ele>2773.9</ele>
    <time>2026-06-24T05:44:49Z</time>
   </trkpt>
   <trkpt lat="-3.1709890" lon="37.3592760">
    <ele>2773.8</ele>
    <time>2026-06-24T05:44:50Z</time>
   </trkpt>
   <trkpt lat="-3.1709980" lon="37.3592820">
    <ele>2773.6</ele>
    <time>2026-06-24T05:44:51Z</time>
   </trkpt>
   <trkpt lat="-3.1710060" lon="37.3592860">
    <ele>2773.4</ele>
    <time>2026-06-24T05:44:52Z</time>
   </trkpt>
   <trkpt lat="-3.1710170" lon="37.3592900">
    <ele>2773.2</ele>
    <time>2026-06-24T05:44:53Z</time>
   </trkpt>
   <trkpt lat="-3.1710090" lon="37.3592950">
    <ele>2773.0</ele>
    <time>2026-06-24T05:44:54Z</time>
   </trkpt>
   <trkpt lat="-3.1710120" lon="37.3593030">
    <ele>2772.9</ele>
    <time>2026-06-24T05:44:55Z</time>
   </trkpt>
   <trkpt lat="-3.1710160" lon="37.3593030">
    <ele>2772.8</ele>
    <time>2026-06-24T05:44:56Z</time>
   </trkpt>
   <trkpt lat="-3.1710280" lon="37.3593090">
    <ele>2772.5</ele>
    <time>2026-06-24T05:44:57Z</time>
   </trkpt>
   <trkpt lat="-3.1710370" lon="37.3593090">
    <ele>2772.4</ele>
    <time>2026-06-24T05:44:58Z</time>
   </trkpt>
   <trkpt lat="-3.1710480" lon="37.3593080">
    <ele>2772.2</ele>
    <time>2026-06-24T05:44:59Z</time>
   </trkpt>
   <trkpt lat="-3.1710560" lon="37.3593090">
    <ele>2772.0</ele>
    <time>2026-06-24T05:45:00Z</time>
   </trkpt>
   <trkpt lat="-3.1710630" lon="37.3593120">
    <ele>2771.9</ele>
    <time>2026-06-24T05:45:01Z</time>
   </trkpt>
   <trkpt lat="-3.1710720" lon="37.3593140">
    <ele>2771.7</ele>
    <time>2026-06-24T05:45:02Z</time>
   </trkpt>
   <trkpt lat="-3.1710840" lon="37.3593100">
    <ele>2771.5</ele>
    <time>2026-06-24T05:45:03Z</time>
   </trkpt>
   <trkpt lat="-3.1710900" lon="37.3593070">
    <ele>2771.4</ele>
    <time>2026-06-24T05:45:04Z</time>
   </trkpt>
   <trkpt lat="-3.1710950" lon="37.3593060">
    <ele>2771.3</ele>
    <time>2026-06-24T05:45:05Z</time>
   </trkpt>
   <trkpt lat="-3.1711000" lon="37.3593070">
    <ele>2771.2</ele>
    <time>2026-06-24T05:45:06Z</time>
   </trkpt>
   <trkpt lat="-3.1711040" lon="37.3593100">
    <ele>2771.1</ele>
    <time>2026-06-24T05:45:07Z</time>
   </trkpt>
   <trkpt lat="-3.1711050" lon="37.3593120">
    <ele>2771.1</ele>
    <time>2026-06-24T05:45:08Z</time>
   </trkpt>
   <trkpt lat="-3.1711060" lon="37.3593160">
    <ele>2771.0</ele>
    <time>2026-06-24T05:45:09Z</time>
   </trkpt>
   <trkpt lat="-3.1711150" lon="37.3593280">
    <ele>2770.7</ele>
    <time>2026-06-24T05:45:10Z</time>
   </trkpt>
   <trkpt lat="-3.1711170" lon="37.3593320">
    <ele>2770.6</ele>
    <time>2026-06-24T05:45:11Z</time>
   </trkpt>
   <trkpt lat="-3.1711200" lon="37.3593390">
    <ele>2770.5</ele>
    <time>2026-06-24T05:45:12Z</time>
   </trkpt>
   <trkpt lat="-3.1711360" lon="37.3593390">
    <ele>2770.2</ele>
    <time>2026-06-24T05:45:13Z</time>
   </trkpt>
   <trkpt lat="-3.1711410" lon="37.3593410">
    <ele>2770.1</ele>
    <time>2026-06-24T05:45:14Z</time>
   </trkpt>
   <trkpt lat="-3.1711400" lon="37.3593500">
    <ele>2770.0</ele>
    <time>2026-06-24T05:45:15Z</time>
   </trkpt>
   <trkpt lat="-3.1711400" lon="37.3593520">
    <ele>2769.9</ele>
    <time>2026-06-24T05:45:16Z</time>
   </trkpt>
   <trkpt lat="-3.1711420" lon="37.3593560">
    <ele>2769.8</ele>
    <time>2026-06-24T05:45:17Z</time>
   </trkpt>
   <trkpt lat="-3.1711420" lon="37.3593630">
    <ele>2769.7</ele>
    <time>2026-06-24T05:45:18Z</time>
   </trkpt>
   <trkpt lat="-3.1711480" lon="37.3593680">
    <ele>2769.6</ele>
    <time>2026-06-24T05:45:19Z</time>
   </trkpt>
   <trkpt lat="-3.1711500" lon="37.3593720">
    <ele>2769.5</ele>
    <time>2026-06-24T05:45:20Z</time>
   </trkpt>
   <trkpt lat="-3.1711530" lon="37.3593750">
    <ele>2769.4</ele>
    <time>2026-06-24T05:45:21Z</time>
   </trkpt>
   <trkpt lat="-3.1711590" lon="37.3593700">
    <ele>2769.3</ele>
    <time>2026-06-24T05:45:22Z</time>
   </trkpt>
   <trkpt lat="-3.1711700" lon="37.3593720">
    <ele>2769.1</ele>
    <time>2026-06-24T05:45:23Z</time>
   </trkpt>
   <trkpt lat="-3.1711790" lon="37.3593740">
    <ele>2768.9</ele>
    <time>2026-06-24T05:45:24Z</time>
   </trkpt>
   <trkpt lat="-3.1711820" lon="37.3593770">
    <ele>2768.9</ele>
    <time>2026-06-24T05:45:25Z</time>
   </trkpt>
   <trkpt lat="-3.1711840" lon="37.3593790">
    <ele>2768.8</ele>
    <time>2026-06-24T05:45:26Z</time>
   </trkpt>
   <trkpt lat="-3.1711860" lon="37.3593860">
    <ele>2768.7</ele>
    <time>2026-06-24T05:45:27Z</time>
   </trkpt>
   <trkpt lat="-3.1711940" lon="37.3593880">
    <ele>2768.6</ele>
    <time>2026-06-24T05:45:28Z</time>
   </trkpt>
   <trkpt lat="-3.1712050" lon="37.3593860">
    <ele>2768.4</ele>
    <time>2026-06-24T05:45:29Z</time>
   </trkpt>
   <trkpt lat="-3.1712120" lon="37.3593970">
    <ele>2768.1</ele>
    <time>2026-06-24T05:45:30Z</time>
   </trkpt>
   <trkpt lat="-3.1712170" lon="37.3594040">
    <ele>2768.0</ele>
    <time>2026-06-24T05:45:31Z</time>
   </trkpt>
   <trkpt lat="-3.1712190" lon="37.3594110">
    <ele>2767.9</ele>
    <time>2026-06-24T05:45:32Z</time>
   </trkpt>
   <trkpt lat="-3.1712210" lon="37.3594170">
    <ele>2767.8</ele>
    <time>2026-06-24T05:45:33Z</time>
   </trkpt>
   <trkpt lat="-3.1712250" lon="37.3594190">
    <ele>2767.7</ele>
    <time>2026-06-24T05:45:34Z</time>
   </trkpt>
   <trkpt lat="-3.1712270" lon="37.3594320">
    <ele>2767.4</ele>
    <time>2026-06-24T05:45:35Z</time>
   </trkpt>
   <trkpt lat="-3.1712360" lon="37.3594340">
    <ele>2767.3</ele>
    <time>2026-06-24T05:45:36Z</time>
   </trkpt>
   <trkpt lat="-3.1712430" lon="37.3594390">
    <ele>2767.1</ele>
    <time>2026-06-24T05:45:37Z</time>
   </trkpt>
   <trkpt lat="-3.1712400" lon="37.3594450">
    <ele>2767.0</ele>
    <time>2026-06-24T05:45:38Z</time>
   </trkpt>
   <trkpt lat="-3.1712370" lon="37.3594540">
    <ele>2766.9</ele>
    <time>2026-06-24T05:45:39Z</time>
   </trkpt>
   <trkpt lat="-3.1712320" lon="37.3594580">
    <ele>2766.7</ele>
    <time>2026-06-24T05:45:40Z</time>
   </trkpt>
   <trkpt lat="-3.1712350" lon="37.3594650">
    <ele>2766.6</ele>
    <time>2026-06-24T05:45:41Z</time>
   </trkpt>
   <trkpt lat="-3.1712430" lon="37.3594640">
    <ele>2766.5</ele>
    <time>2026-06-24T05:45:42Z</time>
   </trkpt>
   <trkpt lat="-3.1712490" lon="37.3594710">
    <ele>2766.3</ele>
    <time>2026-06-24T05:45:43Z</time>
   </trkpt>
   <trkpt lat="-3.1712530" lon="37.3594770">
    <ele>2766.2</ele>
    <time>2026-06-24T05:45:44Z</time>
   </trkpt>
   <trkpt lat="-3.1712550" lon="37.3594840">
    <ele>2766.1</ele>
    <time>2026-06-24T05:45:45Z</time>
   </trkpt>
   <trkpt lat="-3.1712620" lon="37.3594900">
    <ele>2765.9</ele>
    <time>2026-06-24T05:45:46Z</time>
   </trkpt>
   <trkpt lat="-3.1712700" lon="37.3594990">
    <ele>2765.7</ele>
    <time>2026-06-24T05:45:47Z</time>
   </trkpt>
   <trkpt lat="-3.1712710" lon="37.3595090">
    <ele>2765.5</ele>
    <time>2026-06-24T05:45:48Z</time>
   </trkpt>
   <trkpt lat="-3.1712760" lon="37.3595150">
    <ele>2765.3</ele>
    <time>2026-06-24T05:45:49Z</time>
   </trkpt>
   <trkpt lat="-3.1712770" lon="37.3595220">
    <ele>2765.2</ele>
    <time>2026-06-24T05:45:50Z</time>
   </trkpt>
   <trkpt lat="-3.1712740" lon="37.3595350">
    <ele>2765.0</ele>
    <time>2026-06-24T05:45:51Z</time>
   </trkpt>
   <trkpt lat="-3.1712670" lon="37.3595460">
    <ele>2764.7</ele>
    <time>2026-06-24T05:45:52Z</time>
   </trkpt>
   <trkpt lat="-3.1712640" lon="37.3595560">
    <ele>2764.5</ele>
    <time>2026-06-24T05:45:53Z</time>
   </trkpt>
   <trkpt lat="-3.1712660" lon="37.3595600">
    <ele>2764.5</ele>
    <time>2026-06-24T05:45:54Z</time>
   </trkpt>
   <trkpt lat="-3.1712660" lon="37.3595630">
    <ele>2764.4</ele>
    <time>2026-06-24T05:45:55Z</time>
   </trkpt>
   <trkpt lat="-3.1712660" lon="37.3595700">
    <ele>2764.3</ele>
    <time>2026-06-24T05:45:56Z</time>
   </trkpt>
   <trkpt lat="-3.1712670" lon="37.3595710">
    <ele>2764.3</ele>
    <time>2026-06-24T05:45:57Z</time>
   </trkpt>
   <trkpt lat="-3.1712640" lon="37.3595700">
    <ele>2764.2</ele>
    <time>2026-06-24T05:45:58Z</time>
   </trkpt>
   <trkpt lat="-3.1712660" lon="37.3595710">
    <ele>2764.2</ele>
    <time>2026-06-24T05:45:59Z</time>
   </trkpt>
   <trkpt lat="-3.1712640" lon="37.3595770">
    <ele>2764.0</ele>
    <time>2026-06-24T05:46:00Z</time>
   </trkpt>
   <trkpt lat="-3.1712650" lon="37.3595830">
    <ele>2763.9</ele>
    <time>2026-06-24T05:46:01Z</time>
   </trkpt>
   <trkpt lat="-3.1712630" lon="37.3595870">
    <ele>2763.8</ele>
    <time>2026-06-24T05:46:02Z</time>
   </trkpt>
   <trkpt lat="-3.1712690" lon="37.3595900">
    <ele>2763.7</ele>
    <time>2026-06-24T05:46:03Z</time>
   </trkpt>
   <trkpt lat="-3.1712750" lon="37.3595960">
    <ele>2763.6</ele>
    <time>2026-06-24T05:46:04Z</time>
   </trkpt>
   <trkpt lat="-3.1712780" lon="37.3595960">
    <ele>2763.5</ele>
    <time>2026-06-24T05:46:05Z</time>
   </trkpt>
   <trkpt lat="-3.1712760" lon="37.3595910">
    <ele>2763.4</ele>
    <time>2026-06-24T05:46:06Z</time>
   </trkpt>
   <trkpt lat="-3.1712810" lon="37.3596000">
    <ele>2763.2</ele>
    <time>2026-06-24T05:46:07Z</time>
   </trkpt>
   <trkpt lat="-3.1712980" lon="37.3596040">
    <ele>2762.9</ele>
    <time>2026-06-24T05:46:08Z</time>
   </trkpt>
   <trkpt lat="-3.1713070" lon="37.3596030">
    <ele>2762.7</ele>
    <time>2026-06-24T05:46:09Z</time>
   </trkpt>
   <trkpt lat="-3.1713100" lon="37.3596060">
    <ele>2762.6</ele>
    <time>2026-06-24T05:46:10Z</time>
   </trkpt>
   <trkpt lat="-3.1713140" lon="37.3596040">
    <ele>2762.5</ele>
    <time>2026-06-24T05:46:11Z</time>
   </trkpt>
   <trkpt lat="-3.1713120" lon="37.3596070">
    <ele>2762.5</ele>
    <time>2026-06-24T05:46:12Z</time>
   </trkpt>
   <trkpt lat="-3.1713080" lon="37.3596100">
    <ele>2762.4</ele>
    <time>2026-06-24T05:46:13Z</time>
   </trkpt>
   <trkpt lat="-3.1713020" lon="37.3596090">
    <ele>2762.3</ele>
    <time>2026-06-24T05:46:14Z</time>
   </trkpt>
   <trkpt lat="-3.1712970" lon="37.3596090">
    <ele>2762.2</ele>
    <time>2026-06-24T05:46:15Z</time>
   </trkpt>
   <trkpt lat="-3.1713010" lon="37.3596170">
    <ele>2762.0</ele>
    <time>2026-06-24T05:46:16Z</time>
   </trkpt>
   <trkpt lat="-3.1713060" lon="37.3596350">
    <ele>2761.6</ele>
    <time>2026-06-24T05:46:17Z</time>
   </trkpt>
   <trkpt lat="-3.1713140" lon="37.3596390">
    <ele>2761.5</ele>
    <time>2026-06-24T05:46:18Z</time>
   </trkpt>
   <trkpt lat="-3.1713140" lon="37.3596490">
    <ele>2761.3</ele>
    <time>2026-06-24T05:46:19Z</time>
   </trkpt>
   <trkpt lat="-3.1713180" lon="37.3596610">
    <ele>2761.0</ele>
    <time>2026-06-24T05:46:20Z</time>
   </trkpt>
   <trkpt lat="-3.1713260" lon="37.3596700">
    <ele>2760.8</ele>
    <time>2026-06-24T05:46:21Z</time>
   </trkpt>
   <trkpt lat="-3.1713300" lon="37.3596750">
    <ele>2760.7</ele>
    <time>2026-06-24T05:46:22Z</time>
   </trkpt>
   <trkpt lat="-3.1713340" lon="37.3596770">
    <ele>2760.6</ele>
    <time>2026-06-24T05:46:23Z</time>
   </trkpt>
   <trkpt lat="-3.1713420" lon="37.3596810">
    <ele>2760.4</ele>
    <time>2026-06-24T05:46:24Z</time>
   </trkpt>
   <trkpt lat="-3.1713480" lon="37.3596880">
    <ele>2760.3</ele>
    <time>2026-06-24T05:46:25Z</time>
   </trkpt>
   <trkpt lat="-3.1713560" lon="37.3596910">
    <ele>2760.1</ele>
    <time>2026-06-24T05:46:26Z</time>
   </trkpt>
   <trkpt lat="-3.1713640" lon="37.3596960">
    <ele>2759.9</ele>
    <time>2026-06-24T05:46:27Z</time>
   </trkpt>
   <trkpt lat="-3.1713730" lon="37.3596980">
    <ele>2759.8</ele>
    <time>2026-06-24T05:46:28Z</time>
   </trkpt>
   <trkpt lat="-3.1713720" lon="37.3597010">
    <ele>2759.7</ele>
    <time>2026-06-24T05:46:29Z</time>
   </trkpt>
   <trkpt lat="-3.1713750" lon="37.3597070">
    <ele>2759.6</ele>
    <time>2026-06-24T05:46:30Z</time>
   </trkpt>
   <trkpt lat="-3.1713820" lon="37.3597100">
    <ele>2759.5</ele>
    <time>2026-06-24T05:46:31Z</time>
   </trkpt>
   <trkpt lat="-3.1713920" lon="37.3597160">
    <ele>2759.3</ele>
    <time>2026-06-24T05:46:32Z</time>
   </trkpt>
   <trkpt lat="-3.1713990" lon="37.3597170">
    <ele>2759.2</ele>
    <time>2026-06-24T05:46:33Z</time>
   </trkpt>
   <trkpt lat="-3.1714060" lon="37.3597170">
    <ele>2759.0</ele>
    <time>2026-06-24T05:46:34Z</time>
   </trkpt>
   <trkpt lat="-3.1714120" lon="37.3597170">
    <ele>2758.9</ele>
    <time>2026-06-24T05:46:35Z</time>
   </trkpt>
   <trkpt lat="-3.1714150" lon="37.3597150">
    <ele>2758.9</ele>
    <time>2026-06-24T05:46:36Z</time>
   </trkpt>
   <trkpt lat="-3.1714190" lon="37.3597100">
    <ele>2758.8</ele>
    <time>2026-06-24T05:46:37Z</time>
   </trkpt>
   <trkpt lat="-3.1714230" lon="37.3597100">
    <ele>2758.7</ele>
    <time>2026-06-24T05:46:38Z</time>
   </trkpt>
   <trkpt lat="-3.1714220" lon="37.3597120">
    <ele>2758.7</ele>
    <time>2026-06-24T05:46:39Z</time>
   </trkpt>
   <trkpt lat="-3.1714220" lon="37.3597120">
    <ele>2758.7</ele>
    <time>2026-06-24T05:46:40Z</time>
   </trkpt>
   <trkpt lat="-3.1714220" lon="37.3597120">
    <ele>2758.7</ele>
    <time>2026-06-24T05:46:41Z</time>
   </trkpt>
   <trkpt lat="-3.1714220" lon="37.3597120">
    <ele>2758.7</ele>
    <time>2026-06-24T05:46:42Z</time>
   </trkpt>
   <trkpt lat="-3.1714220" lon="37.3597080">
    <ele>2758.6</ele>
    <time>2026-06-24T05:46:43Z</time>
   </trkpt>
   <trkpt lat="-3.1714280" lon="37.3597090">
    <ele>2758.5</ele>
    <time>2026-06-24T05:46:44Z</time>
   </trkpt>
   <trkpt lat="-3.1714340" lon="37.3597110">
    <ele>2758.4</ele>
    <time>2026-06-24T05:46:45Z</time>
   </trkpt>
   <trkpt lat="-3.1714440" lon="37.3597150">
    <ele>2758.2</ele>
    <time>2026-06-24T05:46:46Z</time>
   </trkpt>
   <trkpt lat="-3.1714550" lon="37.3597190">
    <ele>2758.0</ele>
    <time>2026-06-24T05:46:47Z</time>
   </trkpt>
   <trkpt lat="-3.1714540" lon="37.3597190">
    <ele>2758.0</ele>
    <time>2026-06-24T05:46:48Z</time>
   </trkpt>
   <trkpt lat="-3.1714590" lon="37.3597190">
    <ele>2757.9</ele>
    <time>2026-06-24T05:46:49Z</time>
   </trkpt>
   <trkpt lat="-3.1714620" lon="37.3597220">
    <ele>2757.8</ele>
    <time>2026-06-24T05:46:50Z</time>
   </trkpt>
   <trkpt lat="-3.1714660" lon="37.3597270">
    <ele>2757.7</ele>
    <time>2026-06-24T05:46:51Z</time>
   </trkpt>
   <trkpt lat="-3.1714690" lon="37.3597240">
    <ele>2757.6</ele>
    <time>2026-06-24T05:46:52Z</time>
   </trkpt>
   <trkpt lat="-3.1714800" lon="37.3597240">
    <ele>2757.5</ele>
    <time>2026-06-24T05:46:53Z</time>
   </trkpt>
   <trkpt lat="-3.1714860" lon="37.3597280">
    <ele>2757.3</ele>
    <time>2026-06-24T05:46:54Z</time>
   </trkpt>
   <trkpt lat="-3.1714960" lon="37.3597280">
    <ele>2757.2</ele>
    <time>2026-06-24T05:46:55Z</time>
   </trkpt>
   <trkpt lat="-3.1715010" lon="37.3597320">
    <ele>2757.1</ele>
    <time>2026-06-24T05:46:56Z</time>
   </trkpt>
   <trkpt lat="-3.1715090" lon="37.3597320">
    <ele>2756.9</ele>
    <time>2026-06-24T05:46:57Z</time>
   </trkpt>
   <trkpt lat="-3.1715130" lon="37.3597340">
    <ele>2756.9</ele>
    <time>2026-06-24T05:46:58Z</time>
   </trkpt>
   <trkpt lat="-3.1715110" lon="37.3597380">
    <ele>2756.8</ele>
    <time>2026-06-24T05:46:59Z</time>
   </trkpt>
   <trkpt lat="-3.1715060" lon="37.3597390">
    <ele>2756.7</ele>
    <time>2026-06-24T05:47:00Z</time>
   </trkpt>
   <trkpt lat="-3.1715060" lon="37.3597450">
    <ele>2756.6</ele>
    <time>2026-06-24T05:47:01Z</time>
   </trkpt>
   <trkpt lat="-3.1715020" lon="37.3597490">
    <ele>2756.5</ele>
    <time>2026-06-24T05:47:02Z</time>
   </trkpt>
   <trkpt lat="-3.1714960" lon="37.3597540">
    <ele>2756.4</ele>
    <time>2026-06-24T05:47:03Z</time>
   </trkpt>
   <trkpt lat="-3.1714910" lon="37.3597590">
    <ele>2756.3</ele>
    <time>2026-06-24T05:47:04Z</time>
   </trkpt>
   <trkpt lat="-3.1714920" lon="37.3597650">
    <ele>2756.2</ele>
    <time>2026-06-24T05:47:05Z</time>
   </trkpt>
   <trkpt lat="-3.1714960" lon="37.3597690">
    <ele>2756.1</ele>
    <time>2026-06-24T05:47:06Z</time>
   </trkpt>
   <trkpt lat="-3.1714960" lon="37.3597730">
    <ele>2756.0</ele>
    <time>2026-06-24T05:47:07Z</time>
   </trkpt>
   <trkpt lat="-3.1714990" lon="37.3597800">
    <ele>2755.9</ele>
    <time>2026-06-24T05:47:08Z</time>
   </trkpt>
   <trkpt lat="-3.1715020" lon="37.3597860">
    <ele>2755.8</ele>
    <time>2026-06-24T05:47:09Z</time>
   </trkpt>
   <trkpt lat="-3.1715050" lon="37.3597890">
    <ele>2755.7</ele>
    <time>2026-06-24T05:47:10Z</time>
   </trkpt>
   <trkpt lat="-3.1715070" lon="37.3597890">
    <ele>2755.7</ele>
    <time>2026-06-24T05:47:11Z</time>
   </trkpt>
   <trkpt lat="-3.1715050" lon="37.3597890">
    <ele>2755.6</ele>
    <time>2026-06-24T05:47:12Z</time>
   </trkpt>
   <trkpt lat="-3.1715080" lon="37.3597940">
    <ele>2755.5</ele>
    <time>2026-06-24T05:47:13Z</time>
   </trkpt>
   <trkpt lat="-3.1715100" lon="37.3597940">
    <ele>2755.5</ele>
    <time>2026-06-24T05:47:14Z</time>
   </trkpt>
   <trkpt lat="-3.1715060" lon="37.3597910">
    <ele>2755.4</ele>
    <time>2026-06-24T05:47:15Z</time>
   </trkpt>
   <trkpt lat="-3.1715060" lon="37.3597890">
    <ele>2755.4</ele>
    <time>2026-06-24T05:47:16Z</time>
   </trkpt>
   <trkpt lat="-3.1715030" lon="37.3597850">
    <ele>2755.3</ele>
    <time>2026-06-24T05:47:17Z</time>
   </trkpt>
   <trkpt lat="-3.1715010" lon="37.3597820">
    <ele>2755.2</ele>
    <time>2026-06-24T05:47:18Z</time>
   </trkpt>
   <trkpt lat="-3.1715010" lon="37.3597820">
    <ele>2755.2</ele>
    <time>2026-06-24T05:47:19Z</time>
   </trkpt>
   <trkpt lat="-3.1714990" lon="37.3597790">
    <ele>2755.2</ele>
    <time>2026-06-24T05:47:20Z</time>
   </trkpt>
   <trkpt lat="-3.1714990" lon="37.3597820">
    <ele>2755.1</ele>
    <time>2026-06-24T05:47:21Z</time>
   </trkpt>
   <trkpt lat="-3.1714920" lon="37.3597800">
    <ele>2755.0</ele>
    <time>2026-06-24T05:47:22Z</time>
   </trkpt>
   <trkpt lat="-3.1714880" lon="37.3597770">
    <ele>2754.9</ele>
    <time>2026-06-24T05:47:23Z</time>
   </trkpt>
   <trkpt lat="-3.1714890" lon="37.3597740">
    <ele>2754.9</ele>
    <time>2026-06-24T05:47:24Z</time>
   </trkpt>
   <trkpt lat="-3.1714900" lon="37.3597710">
    <ele>2754.8</ele>
    <time>2026-06-24T05:47:25Z</time>
   </trkpt>
   <trkpt lat="-3.1714900" lon="37.3597650">
    <ele>2754.7</ele>
    <time>2026-06-24T05:47:26Z</time>
   </trkpt>
   <trkpt lat="-3.1714900" lon="37.3597650">
    <ele>2754.7</ele>
    <time>2026-06-24T05:47:27Z</time>
   </trkpt>
   <trkpt lat="-3.1714900" lon="37.3597650">
    <ele>2754.7</ele>
    <time>2026-06-24T05:47:28Z</time>
   </trkpt>
   <trkpt lat="-3.1714850" lon="37.3597630">
    <ele>2754.6</ele>
    <time>2026-06-24T05:47:29Z</time>
   </trkpt>
   <trkpt lat="-3.1714860" lon="37.3597590">
    <ele>2754.6</ele>
    <time>2026-06-24T05:47:30Z</time>
   </trkpt>
   <trkpt lat="-3.1714930" lon="37.3597600">
    <ele>2754.4</ele>
    <time>2026-06-24T05:47:31Z</time>
   </trkpt>
   <trkpt lat="-3.1714970" lon="37.3597600">
    <ele>2754.4</ele>
    <time>2026-06-24T05:47:32Z</time>
   </trkpt>
   <trkpt lat="-3.1715080" lon="37.3597660">
    <ele>2754.2</ele>
    <time>2026-06-24T05:47:33Z</time>
   </trkpt>
   <trkpt lat="-3.1715070" lon="37.3597660">
    <ele>2754.1</ele>
    <time>2026-06-24T05:47:34Z</time>
   </trkpt>
   <trkpt lat="-3.1715040" lon="37.3597630">
    <ele>2754.1</ele>
    <time>2026-06-24T05:47:35Z</time>
   </trkpt>
   <trkpt lat="-3.1715030" lon="37.3597650">
    <ele>2754.0</ele>
    <time>2026-06-24T05:47:36Z</time>
   </trkpt>
   <trkpt lat="-3.1715050" lon="37.3597630">
    <ele>2754.0</ele>
    <time>2026-06-24T05:47:37Z</time>
   </trkpt>
   <trkpt lat="-3.1715110" lon="37.3597650">
    <ele>2753.9</ele>
    <time>2026-06-24T05:47:38Z</time>
   </trkpt>
   <trkpt lat="-3.1715120" lon="37.3597640">
    <ele>2753.9</ele>
    <time>2026-06-24T05:47:39Z</time>
   </trkpt>
   <trkpt lat="-3.1715100" lon="37.3597670">
    <ele>2753.8</ele>
    <time>2026-06-24T05:47:40Z</time>
   </trkpt>
   <trkpt lat="-3.1715120" lon="37.3597690">
    <ele>2753.8</ele>
    <time>2026-06-24T05:47:41Z</time>
   </trkpt>
   <trkpt lat="-3.1715100" lon="37.3597680">
    <ele>2753.7</ele>
    <time>2026-06-24T05:47:42Z</time>
   </trkpt>
   <trkpt lat="-3.1715090" lon="37.3597670">
    <ele>2753.7</ele>
    <time>2026-06-24T05:47:43Z</time>
   </trkpt>
   <trkpt lat="-3.1715090" lon="37.3597670">
    <ele>2753.7</ele>
    <time>2026-06-24T05:47:44Z</time>
   </trkpt>
   <trkpt lat="-3.1715090" lon="37.3597670">
    <ele>2753.7</ele>
    <time>2026-06-24T05:47:45Z</time>
   </trkpt>
   <trkpt lat="-3.1715140" lon="37.3597690">
    <ele>2753.6</ele>
    <time>2026-06-24T05:47:46Z</time>
   </trkpt>
   <trkpt lat="-3.1715110" lon="37.3597710">
    <ele>2753.6</ele>
    <time>2026-06-24T05:47:47Z</time>
   </trkpt>
   <trkpt lat="-3.1715080" lon="37.3597770">
    <ele>2753.4</ele>
    <time>2026-06-24T05:47:48Z</time>
   </trkpt>
   <trkpt lat="-3.1715100" lon="37.3597760">
    <ele>2753.4</ele>
    <time>2026-06-24T05:47:49Z</time>
   </trkpt>
   <trkpt lat="-3.1715090" lon="37.3597760">
    <ele>2753.4</ele>
    <time>2026-06-24T05:47:50Z</time>
   </trkpt>
   <trkpt lat="-3.1715120" lon="37.3597770">
    <ele>2753.3</ele>
    <time>2026-06-24T05:47:51Z</time>
   </trkpt>
   <trkpt lat="-3.1715120" lon="37.3597770">
    <ele>2753.3</ele>
    <time>2026-06-24T05:47:52Z</time>
   </trkpt>
   <trkpt lat="-3.1715110" lon="37.3597820">
    <ele>2753.3</ele>
    <time>2026-06-24T05:47:53Z</time>
   </trkpt>
   <trkpt lat="-3.1715110" lon="37.3597840">
    <ele>2753.2</ele>
    <time>2026-06-24T05:47:54Z</time>
   </trkpt>
   <trkpt lat="-3.1715080" lon="37.3597850">
    <ele>2753.2</ele>
    <time>2026-06-24T05:47:55Z</time>
   </trkpt>
   <trkpt lat="-3.1715070" lon="37.3597860">
    <ele>2753.2</ele>
    <time>2026-06-24T05:47:56Z</time>
   </trkpt>
   <trkpt lat="-3.1715070" lon="37.3597860">
    <ele>2753.2</ele>
    <time>2026-06-24T05:47:57Z</time>
   </trkpt>
   <trkpt lat="-3.1715070" lon="37.3597870">
    <ele>2753.1</ele>
    <time>2026-06-24T05:47:58Z</time>
   </trkpt>
   <trkpt lat="-3.1715130" lon="37.3597910">
    <ele>2753.0</ele>
    <time>2026-06-24T05:47:59Z</time>
   </trkpt>
   <trkpt lat="-3.1715170" lon="37.3597880">
    <ele>2752.9</ele>
    <time>2026-06-24T05:48:00Z</time>
   </trkpt>
   <trkpt lat="-3.1715190" lon="37.3597870">
    <ele>2752.9</ele>
    <time>2026-06-24T05:48:01Z</time>
   </trkpt>
   <trkpt lat="-3.1715180" lon="37.3597850">
    <ele>2752.9</ele>
    <time>2026-06-24T05:48:02Z</time>
   </trkpt>
   <trkpt lat="-3.1715220" lon="37.3597870">
    <ele>2752.8</ele>
    <time>2026-06-24T05:48:03Z</time>
   </trkpt>
   <trkpt lat="-3.1715210" lon="37.3597860">
    <ele>2752.8</ele>
    <time>2026-06-24T05:48:04Z</time>
   </trkpt>
   <trkpt lat="-3.1715210" lon="37.3597850">
    <ele>2752.8</ele>
    <time>2026-06-24T05:48:05Z</time>
   </trkpt>
   <trkpt lat="-3.1715210" lon="37.3597850">
    <ele>2752.8</ele>
    <time>2026-06-24T05:48:06Z</time>
   </trkpt>
   <trkpt lat="-3.1715210" lon="37.3597850">
    <ele>2752.8</ele>
    <time>2026-06-24T05:48:07Z</time>
   </trkpt>
   <trkpt lat="-3.1715210" lon="37.3597850">
    <ele>2752.8</ele>
    <time>2026-06-24T05:48:08Z</time>
   </trkpt>
   <trkpt lat="-3.1715290" lon="37.3597890">
    <ele>2752.6</ele>
    <time>2026-06-24T05:48:09Z</time>
   </trkpt>
   <trkpt lat="-3.1715280" lon="37.3597880">
    <ele>2752.6</ele>
    <time>2026-06-24T05:48:10Z</time>
   </trkpt>
   <trkpt lat="-3.1715300" lon="37.3597920">
    <ele>2752.6</ele>
    <time>2026-06-24T05:48:11Z</time>
   </trkpt>
   <trkpt lat="-3.1715310" lon="37.3597950">
    <ele>2752.5</ele>
    <time>2026-06-24T05:48:12Z</time>
   </trkpt>
   <trkpt lat="-3.1715310" lon="37.3597910">
    <ele>2752.4</ele>
    <time>2026-06-24T05:48:13Z</time>
   </trkpt>
   <trkpt lat="-3.1715310" lon="37.3597910">
    <ele>2752.4</ele>
    <time>2026-06-24T05:48:14Z</time>
   </trkpt>
   <trkpt lat="-3.1715310" lon="37.3597910">
    <ele>2752.4</ele>
    <time>2026-06-24T05:48:15Z</time>
   </trkpt>
   <trkpt lat="-3.1715310" lon="37.3597910">
    <ele>2752.4</ele>
    <time>2026-06-24T05:48:16Z</time>
   </trkpt>
   <trkpt lat="-3.1715310" lon="37.3597910">
    <ele>2752.4</ele>
    <time>2026-06-24T05:48:17Z</time>
   </trkpt>
   <trkpt lat="-3.1715310" lon="37.3597910">
    <ele>2752.4</ele>
    <time>2026-06-24T05:48:18Z</time>
   </trkpt>
   <trkpt lat="-3.1715330" lon="37.3597860">
    <ele>2752.4</ele>
    <time>2026-06-24T05:48:19Z</time>
   </trkpt>
   <trkpt lat="-3.1715330" lon="37.3597860">
    <ele>2752.4</ele>
    <time>2026-06-24T05:48:20Z</time>
   </trkpt>
   <trkpt lat="-3.1715350" lon="37.3597870">
    <ele>2752.3</ele>
    <time>2026-06-24T05:48:21Z</time>
   </trkpt>
   <trkpt lat="-3.1715390" lon="37.3597900">
    <ele>2752.3</ele>
    <time>2026-06-24T05:48:22Z</time>
   </trkpt>
   <trkpt lat="-3.1715380" lon="37.3597890">
    <ele>2752.2</ele>
    <time>2026-06-24T05:48:23Z</time>
   </trkpt>
   <trkpt lat="-3.1715380" lon="37.3597890">
    <ele>2752.2</ele>
    <time>2026-06-24T05:48:24Z</time>
   </trkpt>
   <trkpt lat="-3.1715380" lon="37.3597890">
    <ele>2752.2</ele>
    <time>2026-06-24T05:48:25Z</time>
   </trkpt>
   <trkpt lat="-3.1715380" lon="37.3597890">
    <ele>2752.2</ele>
    <time>2026-06-24T05:48:26Z</time>
   </trkpt>
   <trkpt lat="-3.1715380" lon="37.3597890">
    <ele>2752.2</ele>
    <time>2026-06-24T05:48:27Z</time>
   </trkpt>
   <trkpt lat="-3.1715380" lon="37.3597890">
    <ele>2752.2</ele>
    <time>2026-06-24T05:48:28Z</time>
   </trkpt>
   <trkpt lat="-3.1715440" lon="37.3597880">
    <ele>2752.2</ele>
    <time>2026-06-24T05:48:29Z</time>
   </trkpt>
   <trkpt lat="-3.1715440" lon="37.3597880">
    <ele>2752.2</ele>
    <time>2026-06-24T05:48:30Z</time>
   </trkpt>
   <trkpt lat="-3.1715430" lon="37.3597900">
    <ele>2752.1</ele>
    <time>2026-06-24T05:48:31Z</time>
   </trkpt>
   <trkpt lat="-3.1715430" lon="37.3597910">
    <ele>2752.1</ele>
    <time>2026-06-24T05:48:32Z</time>
   </trkpt>
   <trkpt lat="-3.1715420" lon="37.3597910">
    <ele>2752.1</ele>
    <time>2026-06-24T05:48:33Z</time>
   </trkpt>
   <trkpt lat="-3.1715420" lon="37.3597910">
    <ele>2752.1</ele>
    <time>2026-06-24T05:48:34Z</time>
   </trkpt>
   <trkpt lat="-3.1715420" lon="37.3597910">
    <ele>2752.1</ele>
    <time>2026-06-24T05:48:35Z</time>
   </trkpt>
   <trkpt lat="-3.1715420" lon="37.3597910">
    <ele>2752.1</ele>
    <time>2026-06-24T05:48:36Z</time>
   </trkpt>
   <trkpt lat="-3.1715490" lon="37.3597910">
    <ele>2752.0</ele>
    <time>2026-06-24T05:48:37Z</time>
   </trkpt>
   <trkpt lat="-3.1715490" lon="37.3597910">
    <ele>2752.0</ele>
    <time>2026-06-24T05:48:38Z</time>
   </trkpt>
   <trkpt lat="-3.1715490" lon="37.3597910">
    <ele>2752.0</ele>
    <time>2026-06-24T05:48:39Z</time>
   </trkpt>
   <trkpt lat="-3.1715490" lon="37.3597910">
    <ele>2752.0</ele>
    <time>2026-06-24T05:48:40Z</time>
   </trkpt>
   <trkpt lat="-3.1715490" lon="37.3597910">
    <ele>2752.0</ele>
    <time>2026-06-24T05:48:41Z</time>
   </trkpt>
   <trkpt lat="-3.1715490" lon="37.3597910">
    <ele>2752.0</ele>
    <time>2026-06-24T05:48:42Z</time>
   </trkpt>
   <trkpt lat="-3.1715490" lon="37.3597910">
    <ele>2752.0</ele>
    <time>2026-06-24T05:48:43Z</time>
   </trkpt>
   <trkpt lat="-3.1715600" lon="37.3597920">
    <ele>2751.8</ele>
    <time>2026-06-24T05:48:44Z</time>
   </trkpt>
   <trkpt lat="-3.1715600" lon="37.3597920">
    <ele>2751.8</ele>
    <time>2026-06-24T05:48:45Z</time>
   </trkpt>
   <trkpt lat="-3.1715590" lon="37.3597910">
    <ele>2751.8</ele>
    <time>2026-06-24T05:48:46Z</time>
   </trkpt>
   <trkpt lat="-3.1715590" lon="37.3597930">
    <ele>2751.8</ele>
    <time>2026-06-24T05:48:47Z</time>
   </trkpt>
   <trkpt lat="-3.1715610" lon="37.3597980">
    <ele>2751.7</ele>
    <time>2026-06-24T05:48:48Z</time>
   </trkpt>
   <trkpt lat="-3.1715610" lon="37.3597980">
    <ele>2751.7</ele>
    <time>2026-06-24T05:48:49Z</time>
   </trkpt>
   <trkpt lat="-3.1715580" lon="37.3598000">
    <ele>2751.6</ele>
    <time>2026-06-24T05:48:50Z</time>
   </trkpt>
   <trkpt lat="-3.1715560" lon="37.3597960">
    <ele>2751.6</ele>
    <time>2026-06-24T05:48:51Z</time>
   </trkpt>
   <trkpt lat="-3.1715560" lon="37.3597940">
    <ele>2751.5</ele>
    <time>2026-06-24T05:48:52Z</time>
   </trkpt>
   <trkpt lat="-3.1715560" lon="37.3597940">
    <ele>2751.5</ele>
    <time>2026-06-24T05:48:53Z</time>
   </trkpt>
   <trkpt lat="-3.1715560" lon="37.3597940">
    <ele>2751.5</ele>
    <time>2026-06-24T05:48:54Z</time>
   </trkpt>
   <trkpt lat="-3.1715560" lon="37.3597940">
    <ele>2751.5</ele>
    <time>2026-06-24T05:48:55Z</time>
   </trkpt>
   <trkpt lat="-3.1715500" lon="37.3598010">
    <ele>2751.4</ele>
    <time>2026-06-24T05:48:56Z</time>
   </trkpt>
   <trkpt lat="-3.1715510" lon="37.3598020">
    <ele>2751.4</ele>
    <time>2026-06-24T05:48:57Z</time>
   </trkpt>
   <trkpt lat="-3.1715500" lon="37.3598010">
    <ele>2751.4</ele>
    <time>2026-06-24T05:48:58Z</time>
   </trkpt>
   <trkpt lat="-3.1715480" lon="37.3597970">
    <ele>2751.3</ele>
    <time>2026-06-24T05:48:59Z</time>
   </trkpt>
   <trkpt lat="-3.1715490" lon="37.3598040">
    <ele>2751.2</ele>
    <time>2026-06-24T05:49:00Z</time>
   </trkpt>
   <trkpt lat="-3.1715500" lon="37.3598020">
    <ele>2751.2</ele>
    <time>2026-06-24T05:49:01Z</time>
   </trkpt>
   <trkpt lat="-3.1715480" lon="37.3598020">
    <ele>2751.1</ele>
    <time>2026-06-24T05:49:02Z</time>
   </trkpt>
   <trkpt lat="-3.1715490" lon="37.3598020">
    <ele>2751.1</ele>
    <time>2026-06-24T05:49:03Z</time>
   </trkpt>
   <trkpt lat="-3.1715470" lon="37.3598020">
    <ele>2751.1</ele>
    <time>2026-06-24T05:49:04Z</time>
   </trkpt>
   <trkpt lat="-3.1715500" lon="37.3598050">
    <ele>2751.0</ele>
    <time>2026-06-24T05:49:05Z</time>
   </trkpt>
   <trkpt lat="-3.1715490" lon="37.3598060">
    <ele>2751.0</ele>
    <time>2026-06-24T05:49:06Z</time>
   </trkpt>
   <trkpt lat="-3.1715490" lon="37.3598120">
    <ele>2750.9</ele>
    <time>2026-06-24T05:49:07Z</time>
   </trkpt>
   <trkpt lat="-3.1715490" lon="37.3598150">
    <ele>2750.9</ele>
    <time>2026-06-24T05:49:08Z</time>
   </trkpt>
   <trkpt lat="-3.1715470" lon="37.3598210">
    <ele>2750.8</ele>
    <time>2026-06-24T05:49:09Z</time>
   </trkpt>
   <trkpt lat="-3.1715450" lon="37.3598260">
    <ele>2750.7</ele>
    <time>2026-06-24T05:49:10Z</time>
   </trkpt>
   <trkpt lat="-3.1715420" lon="37.3598310">
    <ele>2750.6</ele>
    <time>2026-06-24T05:49:11Z</time>
   </trkpt>
   <trkpt lat="-3.1715470" lon="37.3598350">
    <ele>2750.5</ele>
    <time>2026-06-24T05:49:12Z</time>
   </trkpt>
   <trkpt lat="-3.1715490" lon="37.3598460">
    <ele>2750.3</ele>
    <time>2026-06-24T05:49:13Z</time>
   </trkpt>
   <trkpt lat="-3.1715560" lon="37.3598450">
    <ele>2750.2</ele>
    <time>2026-06-24T05:49:14Z</time>
   </trkpt>
   <trkpt lat="-3.1715640" lon="37.3598480">
    <ele>2750.1</ele>
    <time>2026-06-24T05:49:15Z</time>
   </trkpt>
   <trkpt lat="-3.1715700" lon="37.3598530">
    <ele>2750.0</ele>
    <time>2026-06-24T05:49:16Z</time>
   </trkpt>
   <trkpt lat="-3.1715730" lon="37.3598580">
    <ele>2749.9</ele>
    <time>2026-06-24T05:49:17Z</time>
   </trkpt>
   <trkpt lat="-3.1715730" lon="37.3598650">
    <ele>2749.8</ele>
    <time>2026-06-24T05:49:18Z</time>
   </trkpt>
   <trkpt lat="-3.1715790" lon="37.3598690">
    <ele>2749.7</ele>
    <time>2026-06-24T05:49:19Z</time>
   </trkpt>
   <trkpt lat="-3.1715920" lon="37.3598780">
    <ele>2749.4</ele>
    <time>2026-06-24T05:49:20Z</time>
   </trkpt>
   <trkpt lat="-3.1716030" lon="37.3598810">
    <ele>2749.3</ele>
    <time>2026-06-24T05:49:21Z</time>
   </trkpt>
   <trkpt lat="-3.1716100" lon="37.3598830">
    <ele>2749.1</ele>
    <time>2026-06-24T05:49:22Z</time>
   </trkpt>
   <trkpt lat="-3.1716200" lon="37.3598810">
    <ele>2749.0</ele>
    <time>2026-06-24T05:49:23Z</time>
   </trkpt>
   <trkpt lat="-3.1716200" lon="37.3598770">
    <ele>2748.9</ele>
    <time>2026-06-24T05:49:24Z</time>
   </trkpt>
   <trkpt lat="-3.1716280" lon="37.3598720">
    <ele>2748.7</ele>
    <time>2026-06-24T05:49:25Z</time>
   </trkpt>
   <trkpt lat="-3.1716370" lon="37.3598690">
    <ele>2748.6</ele>
    <time>2026-06-24T05:49:26Z</time>
   </trkpt>
   <trkpt lat="-3.1716510" lon="37.3598700">
    <ele>2748.3</ele>
    <time>2026-06-24T05:49:27Z</time>
   </trkpt>
   <trkpt lat="-3.1716560" lon="37.3598620">
    <ele>2748.2</ele>
    <time>2026-06-24T05:49:28Z</time>
   </trkpt>
   <trkpt lat="-3.1716540" lon="37.3598580">
    <ele>2748.1</ele>
    <time>2026-06-24T05:49:29Z</time>
   </trkpt>
   <trkpt lat="-3.1716630" lon="37.3598510">
    <ele>2747.9</ele>
    <time>2026-06-24T05:49:30Z</time>
   </trkpt>
   <trkpt lat="-3.1716670" lon="37.3598440">
    <ele>2747.7</ele>
    <time>2026-06-24T05:49:31Z</time>
   </trkpt>
   <trkpt lat="-3.1716740" lon="37.3598320">
    <ele>2747.5</ele>
    <time>2026-06-24T05:49:32Z</time>
   </trkpt>
   <trkpt lat="-3.1716800" lon="37.3598290">
    <ele>2747.3</ele>
    <time>2026-06-24T05:49:33Z</time>
   </trkpt>
   <trkpt lat="-3.1716830" lon="37.3598280">
    <ele>2747.3</ele>
    <time>2026-06-24T05:49:34Z</time>
   </trkpt>
   <trkpt lat="-3.1716910" lon="37.3598230">
    <ele>2747.1</ele>
    <time>2026-06-24T05:49:35Z</time>
   </trkpt>
   <trkpt lat="-3.1716950" lon="37.3598210">
    <ele>2747.0</ele>
    <time>2026-06-24T05:49:36Z</time>
   </trkpt>
   <trkpt lat="-3.1717000" lon="37.3598220">
    <ele>2746.9</ele>
    <time>2026-06-24T05:49:37Z</time>
   </trkpt>
   <trkpt lat="-3.1717100" lon="37.3598230">
    <ele>2746.7</ele>
    <time>2026-06-24T05:49:38Z</time>
   </trkpt>
   <trkpt lat="-3.1717150" lon="37.3598250">
    <ele>2746.6</ele>
    <time>2026-06-24T05:49:39Z</time>
   </trkpt>
   <trkpt lat="-3.1717210" lon="37.3598250">
    <ele>2746.5</ele>
    <time>2026-06-24T05:49:40Z</time>
   </trkpt>
   <trkpt lat="-3.1717220" lon="37.3598240">
    <ele>2746.5</ele>
    <time>2026-06-24T05:49:41Z</time>
   </trkpt>
   <trkpt lat="-3.1717310" lon="37.3598250">
    <ele>2746.3</ele>
    <time>2026-06-24T05:49:42Z</time>
   </trkpt>
   <trkpt lat="-3.1717330" lon="37.3598260">
    <ele>2746.3</ele>
    <time>2026-06-24T05:49:43Z</time>
   </trkpt>
   <trkpt lat="-3.1717380" lon="37.3598260">
    <ele>2746.2</ele>
    <time>2026-06-24T05:49:44Z</time>
   </trkpt>
   <trkpt lat="-3.1717420" lon="37.3598260">
    <ele>2746.1</ele>
    <time>2026-06-24T05:49:45Z</time>
   </trkpt>
   <trkpt lat="-3.1717440" lon="37.3598280">
    <ele>2746.0</ele>
    <time>2026-06-24T05:49:46Z</time>
   </trkpt>
   <trkpt lat="-3.1717470" lon="37.3598300">
    <ele>2745.9</ele>
    <time>2026-06-24T05:49:47Z</time>
   </trkpt>
   <trkpt lat="-3.1717510" lon="37.3598340">
    <ele>2745.8</ele>
    <time>2026-06-24T05:49:48Z</time>
   </trkpt>
   <trkpt lat="-3.1717570" lon="37.3598380">
    <ele>2745.7</ele>
    <time>2026-06-24T05:49:49Z</time>
   </trkpt>
   <trkpt lat="-3.1717640" lon="37.3598380">
    <ele>2745.5</ele>
    <time>2026-06-24T05:49:50Z</time>
   </trkpt>
   <trkpt lat="-3.1717650" lon="37.3598420">
    <ele>2745.5</ele>
    <time>2026-06-24T05:49:51Z</time>
   </trkpt>
   <trkpt lat="-3.1717670" lon="37.3598430">
    <ele>2745.4</ele>
    <time>2026-06-24T05:49:52Z</time>
   </trkpt>
   <trkpt lat="-3.1717710" lon="37.3598430">
    <ele>2745.3</ele>
    <time>2026-06-24T05:49:53Z</time>
   </trkpt>
   <trkpt lat="-3.1717780" lon="37.3598450">
    <ele>2745.2</ele>
    <time>2026-06-24T05:49:54Z</time>
   </trkpt>
   <trkpt lat="-3.1717810" lon="37.3598380">
    <ele>2745.0</ele>
    <time>2026-06-24T05:49:55Z</time>
   </trkpt>
   <trkpt lat="-3.1717910" lon="37.3598320">
    <ele>2744.8</ele>
    <time>2026-06-24T05:49:56Z</time>
   </trkpt>
   <trkpt lat="-3.1717960" lon="37.3598310">
    <ele>2744.7</ele>
    <time>2026-06-24T05:49:57Z</time>
   </trkpt>
   <trkpt lat="-3.1717990" lon="37.3598300">
    <ele>2744.6</ele>
    <time>2026-06-24T05:49:58Z</time>
   </trkpt>
   <trkpt lat="-3.1717970" lon="37.3598280">
    <ele>2744.6</ele>
    <time>2026-06-24T05:49:59Z</time>
   </trkpt>
   <trkpt lat="-3.1717980" lon="37.3598250">
    <ele>2744.5</ele>
    <time>2026-06-24T05:50:00Z</time>
   </trkpt>
   <trkpt lat="-3.1718130" lon="37.3598220">
    <ele>2744.2</ele>
    <time>2026-06-24T05:50:01Z</time>
   </trkpt>
   <trkpt lat="-3.1718220" lon="37.3598170">
    <ele>2744.0</ele>
    <time>2026-06-24T05:50:02Z</time>
   </trkpt>
   <trkpt lat="-3.1718300" lon="37.3598170">
    <ele>2743.8</ele>
    <time>2026-06-24T05:50:03Z</time>
   </trkpt>
   <trkpt lat="-3.1718320" lon="37.3598160">
    <ele>2743.7</ele>
    <time>2026-06-24T05:50:04Z</time>
   </trkpt>
   <trkpt lat="-3.1718320" lon="37.3598180">
    <ele>2743.7</ele>
    <time>2026-06-24T05:50:05Z</time>
   </trkpt>
   <trkpt lat="-3.1718390" lon="37.3598150">
    <ele>2743.5</ele>
    <time>2026-06-24T05:50:06Z</time>
   </trkpt>
   <trkpt lat="-3.1718430" lon="37.3598130">
    <ele>2743.5</ele>
    <time>2026-06-24T05:50:07Z</time>
   </trkpt>
   <trkpt lat="-3.1718500" lon="37.3598170">
    <ele>2743.3</ele>
    <time>2026-06-24T05:50:08Z</time>
   </trkpt>
   <trkpt lat="-3.1718520" lon="37.3598190">
    <ele>2743.2</ele>
    <time>2026-06-24T05:50:09Z</time>
   </trkpt>
   <trkpt lat="-3.1718580" lon="37.3598180">
    <ele>2743.1</ele>
    <time>2026-06-24T05:50:10Z</time>
   </trkpt>
   <trkpt lat="-3.1718640" lon="37.3598210">
    <ele>2743.0</ele>
    <time>2026-06-24T05:50:11Z</time>
   </trkpt>
   <trkpt lat="-3.1718700" lon="37.3598230">
    <ele>2742.8</ele>
    <time>2026-06-24T05:50:12Z</time>
   </trkpt>
   <trkpt lat="-3.1718760" lon="37.3598250">
    <ele>2742.7</ele>
    <time>2026-06-24T05:50:13Z</time>
   </trkpt>
   <trkpt lat="-3.1718780" lon="37.3598300">
    <ele>2742.6</ele>
    <time>2026-06-24T05:50:14Z</time>
   </trkpt>
   <trkpt lat="-3.1718790" lon="37.3598360">
    <ele>2742.5</ele>
    <time>2026-06-24T05:50:15Z</time>
   </trkpt>
   <trkpt lat="-3.1718820" lon="37.3598410">
    <ele>2742.4</ele>
    <time>2026-06-24T05:50:16Z</time>
   </trkpt>
   <trkpt lat="-3.1718860" lon="37.3598460">
    <ele>2742.2</ele>
    <time>2026-06-24T05:50:17Z</time>
   </trkpt>
   <trkpt lat="-3.1718880" lon="37.3598480">
    <ele>2742.2</ele>
    <time>2026-06-24T05:50:18Z</time>
   </trkpt>
   <trkpt lat="-3.1718960" lon="37.3598490">
    <ele>2742.0</ele>
    <time>2026-06-24T05:50:19Z</time>
   </trkpt>
   <trkpt lat="-3.1719070" lon="37.3598490">
    <ele>2741.8</ele>
    <time>2026-06-24T05:50:20Z</time>
   </trkpt>
   <trkpt lat="-3.1719140" lon="37.3598510">
    <ele>2741.6</ele>
    <time>2026-06-24T05:50:21Z</time>
   </trkpt>
   <trkpt lat="-3.1719200" lon="37.3598530">
    <ele>2741.5</ele>
    <time>2026-06-24T05:50:22Z</time>
   </trkpt>
   <trkpt lat="-3.1719230" lon="37.3598550">
    <ele>2741.4</ele>
    <time>2026-06-24T05:50:23Z</time>
   </trkpt>
   <trkpt lat="-3.1719330" lon="37.3598550">
    <ele>2741.3</ele>
    <time>2026-06-24T05:50:24Z</time>
   </trkpt>
   <trkpt lat="-3.1719330" lon="37.3598550">
    <ele>2741.3</ele>
    <time>2026-06-24T05:50:25Z</time>
   </trkpt>
   <trkpt lat="-3.1719380" lon="37.3598650">
    <ele>2741.0</ele>
    <time>2026-06-24T05:50:26Z</time>
   </trkpt>
   <trkpt lat="-3.1719270" lon="37.3598630">
    <ele>2740.8</ele>
    <time>2026-06-24T05:50:27Z</time>
   </trkpt>
   <trkpt lat="-3.1719260" lon="37.3598650">
    <ele>2740.8</ele>
    <time>2026-06-24T05:50:28Z</time>
   </trkpt>
   <trkpt lat="-3.1719310" lon="37.3598640">
    <ele>2740.7</ele>
    <time>2026-06-24T05:50:29Z</time>
   </trkpt>
   <trkpt lat="-3.1719350" lon="37.3598620">
    <ele>2740.6</ele>
    <time>2026-06-24T05:50:30Z</time>
   </trkpt>
   <trkpt lat="-3.1719410" lon="37.3598580">
    <ele>2740.5</ele>
    <time>2026-06-24T05:50:31Z</time>
   </trkpt>
   <trkpt lat="-3.1719450" lon="37.3598610">
    <ele>2740.4</ele>
    <time>2026-06-24T05:50:32Z</time>
   </trkpt>
   <trkpt lat="-3.1719500" lon="37.3598620">
    <ele>2740.3</ele>
    <time>2026-06-24T05:50:33Z</time>
   </trkpt>
   <trkpt lat="-3.1719610" lon="37.3598600">
    <ele>2740.0</ele>
    <time>2026-06-24T05:50:34Z</time>
   </trkpt>
   <trkpt lat="-3.1719730" lon="37.3598590">
    <ele>2739.8</ele>
    <time>2026-06-24T05:50:35Z</time>
   </trkpt>
   <trkpt lat="-3.1719750" lon="37.3598650">
    <ele>2739.7</ele>
    <time>2026-06-24T05:50:36Z</time>
   </trkpt>
   <trkpt lat="-3.1719800" lon="37.3598660">
    <ele>2739.6</ele>
    <time>2026-06-24T05:50:37Z</time>
   </trkpt>
   <trkpt lat="-3.1719830" lon="37.3598640">
    <ele>2739.5</ele>
    <time>2026-06-24T05:50:38Z</time>
   </trkpt>
   <trkpt lat="-3.1719900" lon="37.3598620">
    <ele>2739.4</ele>
    <time>2026-06-24T05:50:39Z</time>
   </trkpt>
   <trkpt lat="-3.1719920" lon="37.3598600">
    <ele>2739.3</ele>
    <time>2026-06-24T05:50:40Z</time>
   </trkpt>
   <trkpt lat="-3.1719980" lon="37.3598600">
    <ele>2739.2</ele>
    <time>2026-06-24T05:50:41Z</time>
   </trkpt>
   <trkpt lat="-3.1720050" lon="37.3598610">
    <ele>2739.1</ele>
    <time>2026-06-24T05:50:42Z</time>
   </trkpt>
   <trkpt lat="-3.1720140" lon="37.3598560">
    <ele>2738.9</ele>
    <time>2026-06-24T05:50:43Z</time>
   </trkpt>
   <trkpt lat="-3.1720190" lon="37.3598530">
    <ele>2738.8</ele>
    <time>2026-06-24T05:50:44Z</time>
   </trkpt>
   <trkpt lat="-3.1720280" lon="37.3598530">
    <ele>2738.6</ele>
    <time>2026-06-24T05:50:45Z</time>
   </trkpt>
   <trkpt lat="-3.1720330" lon="37.3598540">
    <ele>2738.5</ele>
    <time>2026-06-24T05:50:46Z</time>
   </trkpt>
   <trkpt lat="-3.1720430" lon="37.3598510">
    <ele>2738.3</ele>
    <time>2026-06-24T05:50:47Z</time>
   </trkpt>
   <trkpt lat="-3.1720480" lon="37.3598450">
    <ele>2738.1</ele>
    <time>2026-06-24T05:50:48Z</time>
   </trkpt>
   <trkpt lat="-3.1720620" lon="37.3598470">
    <ele>2737.9</ele>
    <time>2026-06-24T05:50:49Z</time>
   </trkpt>
   <trkpt lat="-3.1720700" lon="37.3598450">
    <ele>2737.7</ele>
    <time>2026-06-24T05:50:50Z</time>
   </trkpt>
   <trkpt lat="-3.1720760" lon="37.3598420">
    <ele>2737.6</ele>
    <time>2026-06-24T05:50:51Z</time>
   </trkpt>
   <trkpt lat="-3.1720840" lon="37.3598360">
    <ele>2737.4</ele>
    <time>2026-06-24T05:50:52Z</time>
   </trkpt>
   <trkpt lat="-3.1720870" lon="37.3598310">
    <ele>2737.3</ele>
    <time>2026-06-24T05:50:53Z</time>
   </trkpt>
   <trkpt lat="-3.1720910" lon="37.3598310">
    <ele>2737.2</ele>
    <time>2026-06-24T05:50:54Z</time>
   </trkpt>
   <trkpt lat="-3.1720950" lon="37.3598330">
    <ele>2737.1</ele>
    <time>2026-06-24T05:50:55Z</time>
   </trkpt>
   <trkpt lat="-3.1721090" lon="37.3598330">
    <ele>2736.8</ele>
    <time>2026-06-24T05:50:56Z</time>
   </trkpt>
   <trkpt lat="-3.1721170" lon="37.3598300">
    <ele>2736.6</ele>
    <time>2026-06-24T05:50:57Z</time>
   </trkpt>
   <trkpt lat="-3.1721270" lon="37.3598350">
    <ele>2736.4</ele>
    <time>2026-06-24T05:50:58Z</time>
   </trkpt>
   <trkpt lat="-3.1721310" lon="37.3598390">
    <ele>2736.3</ele>
    <time>2026-06-24T05:50:59Z</time>
   </trkpt>
   <trkpt lat="-3.1721380" lon="37.3598360">
    <ele>2736.1</ele>
    <time>2026-06-24T05:51:00Z</time>
   </trkpt>
   <trkpt lat="-3.1721430" lon="37.3598340">
    <ele>2736.0</ele>
    <time>2026-06-24T05:51:01Z</time>
   </trkpt>
   <trkpt lat="-3.1721460" lon="37.3598320">
    <ele>2735.9</ele>
    <time>2026-06-24T05:51:02Z</time>
   </trkpt>
   <trkpt lat="-3.1721480" lon="37.3598280">
    <ele>2735.8</ele>
    <time>2026-06-24T05:51:03Z</time>
   </trkpt>
   <trkpt lat="-3.1721430" lon="37.3598230">
    <ele>2735.7</ele>
    <time>2026-06-24T05:51:04Z</time>
   </trkpt>
   <trkpt lat="-3.1721430" lon="37.3598230">
    <ele>2735.7</ele>
    <time>2026-06-24T05:51:05Z</time>
   </trkpt>
   <trkpt lat="-3.1721430" lon="37.3598230">
    <ele>2735.7</ele>
    <time>2026-06-24T05:51:06Z</time>
   </trkpt>
   <trkpt lat="-3.1721430" lon="37.3598230">
    <ele>2735.7</ele>
    <time>2026-06-24T05:51:07Z</time>
   </trkpt>
   <trkpt lat="-3.1721510" lon="37.3598140">
    <ele>2735.4</ele>
    <time>2026-06-24T05:51:08Z</time>
   </trkpt>
   <trkpt lat="-3.1721540" lon="37.3598130">
    <ele>2735.4</ele>
    <time>2026-06-24T05:51:09Z</time>
   </trkpt>
   <trkpt lat="-3.1721540" lon="37.3598140">
    <ele>2735.4</ele>
    <time>2026-06-24T05:51:10Z</time>
   </trkpt>
   <trkpt lat="-3.1721540" lon="37.3598140">
    <ele>2735.4</ele>
    <time>2026-06-24T05:51:11Z</time>
   </trkpt>
   <trkpt lat="-3.1721540" lon="37.3598140">
    <ele>2735.4</ele>
    <time>2026-06-24T05:51:12Z</time>
   </trkpt>
   <trkpt lat="-3.1721540" lon="37.3598140">
    <ele>2735.4</ele>
    <time>2026-06-24T05:51:13Z</time>
   </trkpt>
   <trkpt lat="-3.1721540" lon="37.3598140">
    <ele>2735.4</ele>
    <time>2026-06-24T05:51:14Z</time>
   </trkpt>
   <trkpt lat="-3.1721540" lon="37.3598140">
    <ele>2735.4</ele>
    <time>2026-06-24T05:51:15Z</time>
   </trkpt>
   <trkpt lat="-3.1721540" lon="37.3598140">
    <ele>2735.4</ele>
    <time>2026-06-24T05:51:16Z</time>
   </trkpt>
   <trkpt lat="-3.1721540" lon="37.3598140">
    <ele>2735.4</ele>
    <time>2026-06-24T05:51:17Z</time>
   </trkpt>
   <trkpt lat="-3.1721690" lon="37.3598170">
    <ele>2735.0</ele>
    <time>2026-06-24T05:51:18Z</time>
   </trkpt>
   <trkpt lat="-3.1721690" lon="37.3598170">
    <ele>2735.0</ele>
    <time>2026-06-24T05:51:19Z</time>
   </trkpt>
   <trkpt lat="-3.1721690" lon="37.3598170">
    <ele>2735.0</ele>
    <time>2026-06-24T05:51:20Z</time>
   </trkpt>
   <trkpt lat="-3.1721690" lon="37.3598170">
    <ele>2735.0</ele>
    <time>2026-06-24T05:51:21Z</time>
   </trkpt>
   <trkpt lat="-3.1721690" lon="37.3598170">
    <ele>2735.0</ele>
    <time>2026-06-24T05:51:22Z</time>
   </trkpt>
   <trkpt lat="-3.1721690" lon="37.3598170">
    <ele>2735.0</ele>
    <time>2026-06-24T05:51:23Z</time>
   </trkpt>
   <trkpt lat="-3.1721690" lon="37.3598170">
    <ele>2735.0</ele>
    <time>2026-06-24T05:51:24Z</time>
   </trkpt>
   <trkpt lat="-3.1721690" lon="37.3598170">
    <ele>2735.0</ele>
    <time>2026-06-24T05:51:25Z</time>
   </trkpt>
   <trkpt lat="-3.1721690" lon="37.3598170">
    <ele>2735.0</ele>
    <time>2026-06-24T05:51:26Z</time>
   </trkpt>
   <trkpt lat="-3.1721690" lon="37.3598170">
    <ele>2735.0</ele>
    <time>2026-06-24T05:51:27Z</time>
   </trkpt>
   <trkpt lat="-3.1721410" lon="37.3598340">
    <ele>2734.4</ele>
    <time>2026-06-24T05:51:28Z</time>
   </trkpt>
   <trkpt lat="-3.1721400" lon="37.3598340">
    <ele>2734.3</ele>
    <time>2026-06-24T05:51:29Z</time>
   </trkpt>
   <trkpt lat="-3.1721400" lon="37.3598340">
    <ele>2734.3</ele>
    <time>2026-06-24T05:51:30Z</time>
   </trkpt>
   <trkpt lat="-3.1721400" lon="37.3598340">
    <ele>2734.3</ele>
    <time>2026-06-24T05:51:31Z</time>
   </trkpt>
   <trkpt lat="-3.1721340" lon="37.3598400">
    <ele>2734.2</ele>
    <time>2026-06-24T05:51:32Z</time>
   </trkpt>
   <trkpt lat="-3.1721340" lon="37.3598400">
    <ele>2734.2</ele>
    <time>2026-06-24T05:51:33Z</time>
   </trkpt>
   <trkpt lat="-3.1721340" lon="37.3598400">
    <ele>2734.2</ele>
    <time>2026-06-24T05:51:34Z</time>
   </trkpt>
   <trkpt lat="-3.1721340" lon="37.3598400">
    <ele>2734.2</ele>
    <time>2026-06-24T05:51:35Z</time>
   </trkpt>
   <trkpt lat="-3.1721340" lon="37.3598400">
    <ele>2734.2</ele>
    <time>2026-06-24T05:51:36Z</time>
   </trkpt>
   <trkpt lat="-3.1721340" lon="37.3598400">
    <ele>2734.2</ele>
    <time>2026-06-24T05:51:37Z</time>
   </trkpt>
   <trkpt lat="-3.1721340" lon="37.3598400">
    <ele>2734.2</ele>
    <time>2026-06-24T05:51:38Z</time>
   </trkpt>
   <trkpt lat="-3.1721340" lon="37.3598400">
    <ele>2734.2</ele>
    <time>2026-06-24T05:51:39Z</time>
   </trkpt>
   <trkpt lat="-3.1721310" lon="37.3598470">
    <ele>2734.0</ele>
    <time>2026-06-24T05:51:40Z</time>
   </trkpt>
   <trkpt lat="-3.1721290" lon="37.3598490">
    <ele>2734.0</ele>
    <time>2026-06-24T05:51:41Z</time>
   </trkpt>
   <trkpt lat="-3.1721290" lon="37.3598500">
    <ele>2733.9</ele>
    <time>2026-06-24T05:51:42Z</time>
   </trkpt>
   <trkpt lat="-3.1721290" lon="37.3598500">
    <ele>2733.9</ele>
    <time>2026-06-24T05:51:43Z</time>
   </trkpt>
   <trkpt lat="-3.1721290" lon="37.3598500">
    <ele>2733.9</ele>
    <time>2026-06-24T05:51:44Z</time>
   </trkpt>
   <trkpt lat="-3.1721290" lon="37.3598470">
    <ele>2733.9</ele>
    <time>2026-06-24T05:51:45Z</time>
   </trkpt>
   <trkpt lat="-3.1721270" lon="37.3598460">
    <ele>2733.8</ele>
    <time>2026-06-24T05:51:46Z</time>
   </trkpt>
   <trkpt lat="-3.1721280" lon="37.3598420">
    <ele>2733.7</ele>
    <time>2026-06-24T05:51:47Z</time>
   </trkpt>
   <trkpt lat="-3.1721280" lon="37.3598420">
    <ele>2733.7</ele>
    <time>2026-06-24T05:51:48Z</time>
   </trkpt>
   <trkpt lat="-3.1721270" lon="37.3598320">
    <ele>2733.5</ele>
    <time>2026-06-24T05:51:49Z</time>
   </trkpt>
   <trkpt lat="-3.1721300" lon="37.3598290">
    <ele>2733.4</ele>
    <time>2026-06-24T05:51:50Z</time>
   </trkpt>
   <trkpt lat="-3.1721290" lon="37.3598280">
    <ele>2733.4</ele>
    <time>2026-06-24T05:51:51Z</time>
   </trkpt>
   <trkpt lat="-3.1721290" lon="37.3598280">
    <ele>2733.4</ele>
    <time>2026-06-24T05:51:52Z</time>
   </trkpt>
   <trkpt lat="-3.1721290" lon="37.3598280">
    <ele>2733.4</ele>
    <time>2026-06-24T05:51:53Z</time>
   </trkpt>
   <trkpt lat="-3.1721290" lon="37.3598280">
    <ele>2733.4</ele>
    <time>2026-06-24T05:51:54Z</time>
   </trkpt>
   <trkpt lat="-3.1721290" lon="37.3598280">
    <ele>2733.4</ele>
    <time>2026-06-24T05:51:55Z</time>
   </trkpt>
   <trkpt lat="-3.1721280" lon="37.3598230">
    <ele>2733.3</ele>
    <time>2026-06-24T05:51:56Z</time>
   </trkpt>
   <trkpt lat="-3.1721280" lon="37.3598240">
    <ele>2733.3</ele>
    <time>2026-06-24T05:51:57Z</time>
   </trkpt>
   <trkpt lat="-3.1721280" lon="37.3598240">
    <ele>2733.3</ele>
    <time>2026-06-24T05:51:58Z</time>
   </trkpt>
   <trkpt lat="-3.1721280" lon="37.3598240">
    <ele>2733.3</ele>
    <time>2026-06-24T05:51:59Z</time>
   </trkpt>
   <trkpt lat="-3.1721300" lon="37.3598280">
    <ele>2733.2</ele>
    <time>2026-06-24T05:52:00Z</time>
   </trkpt>
   <trkpt lat="-3.1721290" lon="37.3598290">
    <ele>2733.2</ele>
    <time>2026-06-24T05:52:01Z</time>
   </trkpt>
   <trkpt lat="-3.1721290" lon="37.3598290">
    <ele>2733.2</ele>
    <time>2026-06-24T05:52:02Z</time>
   </trkpt>
   <trkpt lat="-3.1721270" lon="37.3598320">
    <ele>2733.1</ele>
    <time>2026-06-24T05:52:03Z</time>
   </trkpt>
   <trkpt lat="-3.1721270" lon="37.3598320">
    <ele>2733.1</ele>
    <time>2026-06-24T05:52:04Z</time>
   </trkpt>
   <trkpt lat="-3.1721290" lon="37.3598360">
    <ele>2733.0</ele>
    <time>2026-06-24T05:52:05Z</time>
   </trkpt>
   <trkpt lat="-3.1721290" lon="37.3598330">
    <ele>2732.9</ele>
    <time>2026-06-24T05:52:06Z</time>
   </trkpt>
   <trkpt lat="-3.1721330" lon="37.3598300">
    <ele>2732.8</ele>
    <time>2026-06-24T05:52:07Z</time>
   </trkpt>
   <trkpt lat="-3.1721350" lon="37.3598270">
    <ele>2732.8</ele>
    <time>2026-06-24T05:52:08Z</time>
   </trkpt>
   <trkpt lat="-3.1721360" lon="37.3598270">
    <ele>2732.8</ele>
    <time>2026-06-24T05:52:09Z</time>
   </trkpt>
   <trkpt lat="-3.1721380" lon="37.3598250">
    <ele>2732.7</ele>
    <time>2026-06-24T05:52:10Z</time>
   </trkpt>
   <trkpt lat="-3.1721430" lon="37.3598200">
    <ele>2732.6</ele>
    <time>2026-06-24T05:52:11Z</time>
   </trkpt>
   <trkpt lat="-3.1721470" lon="37.3598190">
    <ele>2732.5</ele>
    <time>2026-06-24T05:52:12Z</time>
   </trkpt>
   <trkpt lat="-3.1721520" lon="37.3598210">
    <ele>2732.4</ele>
    <time>2026-06-24T05:52:13Z</time>
   </trkpt>
   <trkpt lat="-3.1721580" lon="37.3598170">
    <ele>2732.2</ele>
    <time>2026-06-24T05:52:14Z</time>
   </trkpt>
   <trkpt lat="-3.1721570" lon="37.3598160">
    <ele>2732.2</ele>
    <time>2026-06-24T05:52:15Z</time>
   </trkpt>
   <trkpt lat="-3.1721600" lon="37.3598180">
    <ele>2732.1</ele>
    <time>2026-06-24T05:52:16Z</time>
   </trkpt>
   <trkpt lat="-3.1721700" lon="37.3598160">
    <ele>2731.9</ele>
    <time>2026-06-24T05:52:17Z</time>
   </trkpt>
   <trkpt lat="-3.1721780" lon="37.3598080">
    <ele>2731.7</ele>
    <time>2026-06-24T05:52:18Z</time>
   </trkpt>
   <trkpt lat="-3.1721790" lon="37.3598100">
    <ele>2731.7</ele>
    <time>2026-06-24T05:52:19Z</time>
   </trkpt>
   <trkpt lat="-3.1721870" lon="37.3598060">
    <ele>2731.5</ele>
    <time>2026-06-24T05:52:20Z</time>
   </trkpt>
   <trkpt lat="-3.1721910" lon="37.3598080">
    <ele>2731.4</ele>
    <time>2026-06-24T05:52:21Z</time>
   </trkpt>
   <trkpt lat="-3.1721930" lon="37.3598140">
    <ele>2731.3</ele>
    <time>2026-06-24T05:52:22Z</time>
   </trkpt>
   <trkpt lat="-3.1721930" lon="37.3598150">
    <ele>2731.3</ele>
    <time>2026-06-24T05:52:23Z</time>
   </trkpt>
   <trkpt lat="-3.1721970" lon="37.3598160">
    <ele>2731.2</ele>
    <time>2026-06-24T05:52:24Z</time>
   </trkpt>
   <trkpt lat="-3.1722020" lon="37.3598150">
    <ele>2731.1</ele>
    <time>2026-06-24T05:52:25Z</time>
   </trkpt>
   <trkpt lat="-3.1722050" lon="37.3598120">
    <ele>2731.0</ele>
    <time>2026-06-24T05:52:26Z</time>
   </trkpt>
   <trkpt lat="-3.1722080" lon="37.3598100">
    <ele>2731.0</ele>
    <time>2026-06-24T05:52:27Z</time>
   </trkpt>
   <trkpt lat="-3.1722090" lon="37.3598080">
    <ele>2730.9</ele>
    <time>2026-06-24T05:52:28Z</time>
   </trkpt>
   <trkpt lat="-3.1722070" lon="37.3598080">
    <ele>2730.9</ele>
    <time>2026-06-24T05:52:29Z</time>
   </trkpt>
   <trkpt lat="-3.1722130" lon="37.3598080">
    <ele>2730.8</ele>
    <time>2026-06-24T05:52:30Z</time>
   </trkpt>
   <trkpt lat="-3.1722140" lon="37.3598070">
    <ele>2730.8</ele>
    <time>2026-06-24T05:52:31Z</time>
   </trkpt>
   <trkpt lat="-3.1722150" lon="37.3598060">
    <ele>2730.7</ele>
    <time>2026-06-24T05:52:32Z</time>
   </trkpt>
   <trkpt lat="-3.1722190" lon="37.3598020">
    <ele>2730.7</ele>
    <time>2026-06-24T05:52:33Z</time>
   </trkpt>
   <trkpt lat="-3.1722250" lon="37.3598000">
    <ele>2730.5</ele>
    <time>2026-06-24T05:52:34Z</time>
   </trkpt>
   <trkpt lat="-3.1722280" lon="37.3597990">
    <ele>2730.5</ele>
    <time>2026-06-24T05:52:35Z</time>
   </trkpt>
   <trkpt lat="-3.1722290" lon="37.3598030">
    <ele>2730.4</ele>
    <time>2026-06-24T05:52:36Z</time>
   </trkpt>
   <trkpt lat="-3.1722370" lon="37.3598030">
    <ele>2730.3</ele>
    <time>2026-06-24T05:52:37Z</time>
   </trkpt>
   <trkpt lat="-3.1722410" lon="37.3598000">
    <ele>2730.2</ele>
    <time>2026-06-24T05:52:38Z</time>
   </trkpt>
   <trkpt lat="-3.1722370" lon="37.3598000">
    <ele>2730.1</ele>
    <time>2026-06-24T05:52:39Z</time>
   </trkpt>
   <trkpt lat="-3.1722440" lon="37.3597920">
    <ele>2730.0</ele>
    <time>2026-06-24T05:52:40Z</time>
   </trkpt>
   <trkpt lat="-3.1722450" lon="37.3597930">
    <ele>2729.9</ele>
    <time>2026-06-24T05:52:41Z</time>
   </trkpt>
   <trkpt lat="-3.1722500" lon="37.3597890">
    <ele>2729.8</ele>
    <time>2026-06-24T05:52:42Z</time>
   </trkpt>
   <trkpt lat="-3.1722520" lon="37.3597880">
    <ele>2729.8</ele>
    <time>2026-06-24T05:52:43Z</time>
   </trkpt>
   <trkpt lat="-3.1722580" lon="37.3597830">
    <ele>2729.7</ele>
    <time>2026-06-24T05:52:44Z</time>
   </trkpt>
   <trkpt lat="-3.1722600" lon="37.3597810">
    <ele>2729.6</ele>
    <time>2026-06-24T05:52:45Z</time>
   </trkpt>
   <trkpt lat="-3.1722610" lon="37.3597820">
    <ele>2729.6</ele>
    <time>2026-06-24T05:52:46Z</time>
   </trkpt>
   <trkpt lat="-3.1722680" lon="37.3597830">
    <ele>2729.5</ele>
    <time>2026-06-24T05:52:47Z</time>
   </trkpt>
   <trkpt lat="-3.1722730" lon="37.3597780">
    <ele>2729.4</ele>
    <time>2026-06-24T05:52:48Z</time>
   </trkpt>
   <trkpt lat="-3.1722750" lon="37.3597780">
    <ele>2729.4</ele>
    <time>2026-06-24T05:52:49Z</time>
   </trkpt>
   <trkpt lat="-3.1722790" lon="37.3597780">
    <ele>2729.3</ele>
    <time>2026-06-24T05:52:50Z</time>
   </trkpt>
   <trkpt lat="-3.1722830" lon="37.3597740">
    <ele>2729.2</ele>
    <time>2026-06-24T05:52:51Z</time>
   </trkpt>
   <trkpt lat="-3.1722830" lon="37.3597740">
    <ele>2729.2</ele>
    <time>2026-06-24T05:52:52Z</time>
   </trkpt>
   <trkpt lat="-3.1722840" lon="37.3597700">
    <ele>2729.2</ele>
    <time>2026-06-24T05:52:53Z</time>
   </trkpt>
   <trkpt lat="-3.1722850" lon="37.3597610">
    <ele>2729.0</ele>
    <time>2026-06-24T05:52:54Z</time>
   </trkpt>
   <trkpt lat="-3.1722860" lon="37.3597540">
    <ele>2728.9</ele>
    <time>2026-06-24T05:52:55Z</time>
   </trkpt>
   <trkpt lat="-3.1722910" lon="37.3597490">
    <ele>2728.8</ele>
    <time>2026-06-24T05:52:56Z</time>
   </trkpt>
   <trkpt lat="-3.1722910" lon="37.3597530">
    <ele>2728.8</ele>
    <time>2026-06-24T05:52:57Z</time>
   </trkpt>
   <trkpt lat="-3.1722970" lon="37.3597540">
    <ele>2728.7</ele>
    <time>2026-06-24T05:52:58Z</time>
   </trkpt>
   <trkpt lat="-3.1723090" lon="37.3597560">
    <ele>2728.5</ele>
    <time>2026-06-24T05:52:59Z</time>
   </trkpt>
   <trkpt lat="-3.1723220" lon="37.3597610">
    <ele>2728.4</ele>
    <time>2026-06-24T05:53:00Z</time>
   </trkpt>
   <trkpt lat="-3.1723300" lon="37.3597570">
    <ele>2728.2</ele>
    <time>2026-06-24T05:53:01Z</time>
   </trkpt>
   <trkpt lat="-3.1723350" lon="37.3597510">
    <ele>2728.1</ele>
    <time>2026-06-24T05:53:02Z</time>
   </trkpt>
   <trkpt lat="-3.1723440" lon="37.3597490">
    <ele>2728.0</ele>
    <time>2026-06-24T05:53:03Z</time>
   </trkpt>
   <trkpt lat="-3.1723480" lon="37.3597500">
    <ele>2728.0</ele>
    <time>2026-06-24T05:53:04Z</time>
   </trkpt>
   <trkpt lat="-3.1723560" lon="37.3597500">
    <ele>2727.9</ele>
    <time>2026-06-24T05:53:05Z</time>
   </trkpt>
   <trkpt lat="-3.1723620" lon="37.3597480">
    <ele>2727.8</ele>
    <time>2026-06-24T05:53:06Z</time>
   </trkpt>
   <trkpt lat="-3.1723700" lon="37.3597480">
    <ele>2727.7</ele>
    <time>2026-06-24T05:53:07Z</time>
   </trkpt>
   <trkpt lat="-3.1723810" lon="37.3597410">
    <ele>2727.5</ele>
    <time>2026-06-24T05:53:08Z</time>
   </trkpt>
   <trkpt lat="-3.1723930" lon="37.3597420">
    <ele>2727.4</ele>
    <time>2026-06-24T05:53:09Z</time>
   </trkpt>
   <trkpt lat="-3.1723990" lon="37.3597410">
    <ele>2727.3</ele>
    <time>2026-06-24T05:53:10Z</time>
   </trkpt>
   <trkpt lat="-3.1724130" lon="37.3597390">
    <ele>2727.2</ele>
    <time>2026-06-24T05:53:11Z</time>
   </trkpt>
   <trkpt lat="-3.1724180" lon="37.3597390">
    <ele>2727.1</ele>
    <time>2026-06-24T05:53:12Z</time>
   </trkpt>
   <trkpt lat="-3.1724250" lon="37.3597370">
    <ele>2727.0</ele>
    <time>2026-06-24T05:53:13Z</time>
   </trkpt>
   <trkpt lat="-3.1724320" lon="37.3597310">
    <ele>2726.9</ele>
    <time>2026-06-24T05:53:14Z</time>
   </trkpt>
   <trkpt lat="-3.1724400" lon="37.3597310">
    <ele>2726.8</ele>
    <time>2026-06-24T05:53:15Z</time>
   </trkpt>
   <trkpt lat="-3.1724500" lon="37.3597260">
    <ele>2726.7</ele>
    <time>2026-06-24T05:53:16Z</time>
   </trkpt>
   <trkpt lat="-3.1724560" lon="37.3597280">
    <ele>2726.6</ele>
    <time>2026-06-24T05:53:17Z</time>
   </trkpt>
   <trkpt lat="-3.1724680" lon="37.3597270">
    <ele>2726.5</ele>
    <time>2026-06-24T05:53:18Z</time>
   </trkpt>
   <trkpt lat="-3.1724770" lon="37.3597250">
    <ele>2726.4</ele>
    <time>2026-06-24T05:53:19Z</time>
   </trkpt>
   <trkpt lat="-3.1724870" lon="37.3597210">
    <ele>2726.3</ele>
    <time>2026-06-24T05:53:20Z</time>
   </trkpt>
   <trkpt lat="-3.1724930" lon="37.3597160">
    <ele>2726.2</ele>
    <time>2026-06-24T05:53:21Z</time>
   </trkpt>
   <trkpt lat="-3.1725000" lon="37.3597140">
    <ele>2726.1</ele>
    <time>2026-06-24T05:53:22Z</time>
   </trkpt>
   <trkpt lat="-3.1725060" lon="37.3597080">
    <ele>2726.0</ele>
    <time>2026-06-24T05:53:23Z</time>
   </trkpt>
   <trkpt lat="-3.1725080" lon="37.3597040">
    <ele>2726.0</ele>
    <time>2026-06-24T05:53:24Z</time>
   </trkpt>
   <trkpt lat="-3.1725120" lon="37.3596970">
    <ele>2725.9</ele>
    <time>2026-06-24T05:53:25Z</time>
   </trkpt>
   <trkpt lat="-3.1725210" lon="37.3596920">
    <ele>2725.8</ele>
    <time>2026-06-24T05:53:26Z</time>
   </trkpt>
   <trkpt lat="-3.1725300" lon="37.3596850">
    <ele>2725.7</ele>
    <time>2026-06-24T05:53:27Z</time>
   </trkpt>
   <trkpt lat="-3.1725360" lon="37.3596850">
    <ele>2725.6</ele>
    <time>2026-06-24T05:53:28Z</time>
   </trkpt>
   <trkpt lat="-3.1725510" lon="37.3596770">
    <ele>2725.4</ele>
    <time>2026-06-24T05:53:29Z</time>
   </trkpt>
   <trkpt lat="-3.1725600" lon="37.3596770">
    <ele>2725.3</ele>
    <time>2026-06-24T05:53:30Z</time>
   </trkpt>
   <trkpt lat="-3.1725720" lon="37.3596760">
    <ele>2725.2</ele>
    <time>2026-06-24T05:53:31Z</time>
   </trkpt>
   <trkpt lat="-3.1725850" lon="37.3596760">
    <ele>2725.1</ele>
    <time>2026-06-24T05:53:32Z</time>
   </trkpt>
   <trkpt lat="-3.1725930" lon="37.3596740">
    <ele>2725.0</ele>
    <time>2026-06-24T05:53:33Z</time>
   </trkpt>
   <trkpt lat="-3.1725990" lon="37.3596720">
    <ele>2724.9</ele>
    <time>2026-06-24T05:53:34Z</time>
   </trkpt>
   <trkpt lat="-3.1726070" lon="37.3596650">
    <ele>2724.8</ele>
    <time>2026-06-24T05:53:35Z</time>
   </trkpt>
   <trkpt lat="-3.1726030" lon="37.3596590">
    <ele>2724.8</ele>
    <time>2026-06-24T05:53:36Z</time>
   </trkpt>
   <trkpt lat="-3.1726070" lon="37.3596640">
    <ele>2724.7</ele>
    <time>2026-06-24T05:53:37Z</time>
   </trkpt>
   <trkpt lat="-3.1726100" lon="37.3596580">
    <ele>2724.6</ele>
    <time>2026-06-24T05:53:38Z</time>
   </trkpt>
   <trkpt lat="-3.1726180" lon="37.3596570">
    <ele>2724.6</ele>
    <time>2026-06-24T05:53:39Z</time>
   </trkpt>
   <trkpt lat="-3.1726220" lon="37.3596560">
    <ele>2724.5</ele>
    <time>2026-06-24T05:53:40Z</time>
   </trkpt>
   <trkpt lat="-3.1726250" lon="37.3596590">
    <ele>2724.5</ele>
    <time>2026-06-24T05:53:41Z</time>
   </trkpt>
   <trkpt lat="-3.1726320" lon="37.3596560">
    <ele>2724.4</ele>
    <time>2026-06-24T05:53:42Z</time>
   </trkpt>
   <trkpt lat="-3.1726410" lon="37.3596560">
    <ele>2724.3</ele>
    <time>2026-06-24T05:53:43Z</time>
   </trkpt>
   <trkpt lat="-3.1726440" lon="37.3596570">
    <ele>2724.3</ele>
    <time>2026-06-24T05:53:44Z</time>
   </trkpt>
   <trkpt lat="-3.1726530" lon="37.3596550">
    <ele>2724.2</ele>
    <time>2026-06-24T05:53:45Z</time>
   </trkpt>
   <trkpt lat="-3.1726680" lon="37.3596550">
    <ele>2724.1</ele>
    <time>2026-06-24T05:53:46Z</time>
   </trkpt>
   <trkpt lat="-3.1726800" lon="37.3596570">
    <ele>2724.0</ele>
    <time>2026-06-24T05:53:47Z</time>
   </trkpt>
   <trkpt lat="-3.1726930" lon="37.3596570">
    <ele>2723.8</ele>
    <time>2026-06-24T05:53:48Z</time>
   </trkpt>
   <trkpt lat="-3.1727060" lon="37.3596530">
    <ele>2723.7</ele>
    <time>2026-06-24T05:53:49Z</time>
   </trkpt>
   <trkpt lat="-3.1727220" lon="37.3596480">
    <ele>2723.6</ele>
    <time>2026-06-24T05:53:50Z</time>
   </trkpt>
   <trkpt lat="-3.1727340" lon="37.3596430">
    <ele>2723.5</ele>
    <time>2026-06-24T05:53:51Z</time>
   </trkpt>
   <trkpt lat="-3.1727370" lon="37.3596440">
    <ele>2723.4</ele>
    <time>2026-06-24T05:53:52Z</time>
   </trkpt>
   <trkpt lat="-3.1727490" lon="37.3596440">
    <ele>2723.3</ele>
    <time>2026-06-24T05:53:53Z</time>
   </trkpt>
   <trkpt lat="-3.1727630" lon="37.3596460">
    <ele>2723.2</ele>
    <time>2026-06-24T05:53:54Z</time>
   </trkpt>
   <trkpt lat="-3.1727790" lon="37.3596470">
    <ele>2723.1</ele>
    <time>2026-06-24T05:53:55Z</time>
   </trkpt>
   <trkpt lat="-3.1727890" lon="37.3596420">
    <ele>2723.0</ele>
    <time>2026-06-24T05:53:56Z</time>
   </trkpt>
   <trkpt lat="-3.1728070" lon="37.3596410">
    <ele>2722.9</ele>
    <time>2026-06-24T05:53:57Z</time>
   </trkpt>
   <trkpt lat="-3.1728230" lon="37.3596420">
    <ele>2722.7</ele>
    <time>2026-06-24T05:53:58Z</time>
   </trkpt>
   <trkpt lat="-3.1728330" lon="37.3596390">
    <ele>2722.6</ele>
    <time>2026-06-24T05:53:59Z</time>
   </trkpt>
   <trkpt lat="-3.1728440" lon="37.3596380">
    <ele>2722.5</ele>
    <time>2026-06-24T05:54:00Z</time>
   </trkpt>
   <trkpt lat="-3.1728650" lon="37.3596310">
    <ele>2722.4</ele>
    <time>2026-06-24T05:54:01Z</time>
   </trkpt>
   <trkpt lat="-3.1728750" lon="37.3596340">
    <ele>2722.3</ele>
    <time>2026-06-24T05:54:02Z</time>
   </trkpt>
   <trkpt lat="-3.1728810" lon="37.3596400">
    <ele>2722.2</ele>
    <time>2026-06-24T05:54:03Z</time>
   </trkpt>
   <trkpt lat="-3.1728910" lon="37.3596420">
    <ele>2722.1</ele>
    <time>2026-06-24T05:54:04Z</time>
   </trkpt>
   <trkpt lat="-3.1729040" lon="37.3596410">
    <ele>2722.0</ele>
    <time>2026-06-24T05:54:05Z</time>
   </trkpt>
   <trkpt lat="-3.1729180" lon="37.3596370">
    <ele>2721.9</ele>
    <time>2026-06-24T05:54:06Z</time>
   </trkpt>
   <trkpt lat="-3.1729270" lon="37.3596340">
    <ele>2721.8</ele>
    <time>2026-06-24T05:54:07Z</time>
   </trkpt>
   <trkpt lat="-3.1729330" lon="37.3596310">
    <ele>2721.7</ele>
    <time>2026-06-24T05:54:08Z</time>
   </trkpt>
   <trkpt lat="-3.1729380" lon="37.3596310">
    <ele>2721.7</ele>
    <time>2026-06-24T05:54:09Z</time>
   </trkpt>
   <trkpt lat="-3.1729500" lon="37.3596310">
    <ele>2721.6</ele>
    <time>2026-06-24T05:54:10Z</time>
   </trkpt>
   <trkpt lat="-3.1729580" lon="37.3596330">
    <ele>2721.5</ele>
    <time>2026-06-24T05:54:11Z</time>
   </trkpt>
   <trkpt lat="-3.1729670" lon="37.3596270">
    <ele>2721.4</ele>
    <time>2026-06-24T05:54:12Z</time>
   </trkpt>
   <trkpt lat="-3.1729780" lon="37.3596250">
    <ele>2721.3</ele>
    <time>2026-06-24T05:54:13Z</time>
   </trkpt>
   <trkpt lat="-3.1729880" lon="37.3596230">
    <ele>2721.2</ele>
    <time>2026-06-24T05:54:14Z</time>
   </trkpt>
   <trkpt lat="-3.1729970" lon="37.3596220">
    <ele>2721.1</ele>
    <time>2026-06-24T05:54:15Z</time>
   </trkpt>
   <trkpt lat="-3.1730070" lon="37.3596230">
    <ele>2721.0</ele>
    <time>2026-06-24T05:54:16Z</time>
   </trkpt>
   <trkpt lat="-3.1730190" lon="37.3596250">
    <ele>2720.9</ele>
    <time>2026-06-24T05:54:17Z</time>
   </trkpt>
   <trkpt lat="-3.1730250" lon="37.3596300">
    <ele>2720.8</ele>
    <time>2026-06-24T05:54:18Z</time>
   </trkpt>
   <trkpt lat="-3.1730350" lon="37.3596320">
    <ele>2720.6</ele>
    <time>2026-06-24T05:54:19Z</time>
   </trkpt>
   <trkpt lat="-3.1730420" lon="37.3596320">
    <ele>2720.5</ele>
    <time>2026-06-24T05:54:20Z</time>
   </trkpt>
   <trkpt lat="-3.1730470" lon="37.3596330">
    <ele>2720.5</ele>
    <time>2026-06-24T05:54:21Z</time>
   </trkpt>
   <trkpt lat="-3.1730540" lon="37.3596290">
    <ele>2720.4</ele>
    <time>2026-06-24T05:54:22Z</time>
   </trkpt>
   <trkpt lat="-3.1730570" lon="37.3596260">
    <ele>2720.3</ele>
    <time>2026-06-24T05:54:23Z</time>
   </trkpt>
   <trkpt lat="-3.1730590" lon="37.3596290">
    <ele>2720.3</ele>
    <time>2026-06-24T05:54:24Z</time>
   </trkpt>
   <trkpt lat="-3.1730590" lon="37.3596290">
    <ele>2720.3</ele>
    <time>2026-06-24T05:54:25Z</time>
   </trkpt>
   <trkpt lat="-3.1730690" lon="37.3596170">
    <ele>2720.1</ele>
    <time>2026-06-24T05:54:26Z</time>
   </trkpt>
   <trkpt lat="-3.1730730" lon="37.3596110">
    <ele>2720.0</ele>
    <time>2026-06-24T05:54:27Z</time>
   </trkpt>
   <trkpt lat="-3.1730760" lon="37.3596120">
    <ele>2720.0</ele>
    <time>2026-06-24T05:54:28Z</time>
   </trkpt>
   <trkpt lat="-3.1730830" lon="37.3596110">
    <ele>2719.9</ele>
    <time>2026-06-24T05:54:29Z</time>
   </trkpt>
   <trkpt lat="-3.1730850" lon="37.3596130">
    <ele>2719.8</ele>
    <time>2026-06-24T05:54:30Z</time>
   </trkpt>
   <trkpt lat="-3.1731000" lon="37.3596200">
    <ele>2719.6</ele>
    <time>2026-06-24T05:54:31Z</time>
   </trkpt>
   <trkpt lat="-3.1731050" lon="37.3596210">
    <ele>2719.5</ele>
    <time>2026-06-24T05:54:32Z</time>
   </trkpt>
   <trkpt lat="-3.1731160" lon="37.3596180">
    <ele>2719.4</ele>
    <time>2026-06-24T05:54:33Z</time>
   </trkpt>
   <trkpt lat="-3.1731210" lon="37.3596210">
    <ele>2719.3</ele>
    <time>2026-06-24T05:54:34Z</time>
   </trkpt>
   <trkpt lat="-3.1731220" lon="37.3596260">
    <ele>2719.2</ele>
    <time>2026-06-24T05:54:35Z</time>
   </trkpt>
   <trkpt lat="-3.1731290" lon="37.3596240">
    <ele>2719.1</ele>
    <time>2026-06-24T05:54:36Z</time>
   </trkpt>
   <trkpt lat="-3.1731330" lon="37.3596220">
    <ele>2719.0</ele>
    <time>2026-06-24T05:54:37Z</time>
   </trkpt>
   <trkpt lat="-3.1731320" lon="37.3596210">
    <ele>2719.0</ele>
    <time>2026-06-24T05:54:38Z</time>
   </trkpt>
   <trkpt lat="-3.1731360" lon="37.3596200">
    <ele>2718.9</ele>
    <time>2026-06-24T05:54:39Z</time>
   </trkpt>
   <trkpt lat="-3.1731440" lon="37.3596170">
    <ele>2718.8</ele>
    <time>2026-06-24T05:54:40Z</time>
   </trkpt>
   <trkpt lat="-3.1731530" lon="37.3596130">
    <ele>2718.6</ele>
    <time>2026-06-24T05:54:41Z</time>
   </trkpt>
   <trkpt lat="-3.1731550" lon="37.3596110">
    <ele>2718.6</ele>
    <time>2026-06-24T05:54:42Z</time>
   </trkpt>
   <trkpt lat="-3.1731620" lon="37.3596070">
    <ele>2718.4</ele>
    <time>2026-06-24T05:54:43Z</time>
   </trkpt>
   <trkpt lat="-3.1731650" lon="37.3596040">
    <ele>2718.4</ele>
    <time>2026-06-24T05:54:44Z</time>
   </trkpt>
   <trkpt lat="-3.1731690" lon="37.3596040">
    <ele>2718.3</ele>
    <time>2026-06-24T05:54:45Z</time>
   </trkpt>
   <trkpt lat="-3.1731700" lon="37.3596050">
    <ele>2718.3</ele>
    <time>2026-06-24T05:54:46Z</time>
   </trkpt>
   <trkpt lat="-3.1731740" lon="37.3596030">
    <ele>2718.2</ele>
    <time>2026-06-24T05:54:47Z</time>
   </trkpt>
   <trkpt lat="-3.1731780" lon="37.3596060">
    <ele>2718.1</ele>
    <time>2026-06-24T05:54:48Z</time>
   </trkpt>
   <trkpt lat="-3.1731850" lon="37.3596030">
    <ele>2718.0</ele>
    <time>2026-06-24T05:54:49Z</time>
   </trkpt>
   <trkpt lat="-3.1731870" lon="37.3596050">
    <ele>2717.9</ele>
    <time>2026-06-24T05:54:50Z</time>
   </trkpt>
   <trkpt lat="-3.1731860" lon="37.3596050">
    <ele>2717.9</ele>
    <time>2026-06-24T05:54:52Z</time>
   </trkpt>
   <trkpt lat="-3.1731850" lon="37.3596100">
    <ele>2717.8</ele>
    <time>2026-06-24T05:54:53Z</time>
   </trkpt>
   <trkpt lat="-3.1731910" lon="37.3596130">
    <ele>2717.7</ele>
    <time>2026-06-24T05:54:54Z</time>
   </trkpt>
   <trkpt lat="-3.1731970" lon="37.3596120">
    <ele>2717.6</ele>
    <time>2026-06-24T05:54:55Z</time>
   </trkpt>
   <trkpt lat="-3.1731980" lon="37.3596120">
    <ele>2717.6</ele>
    <time>2026-06-24T05:54:56Z</time>
   </trkpt>
   <trkpt lat="-3.1732050" lon="37.3596110">
    <ele>2717.4</ele>
    <time>2026-06-24T05:54:57Z</time>
   </trkpt>
   <trkpt lat="-3.1732120" lon="37.3596100">
    <ele>2717.3</ele>
    <time>2026-06-24T05:54:58Z</time>
   </trkpt>
   <trkpt lat="-3.1732180" lon="37.3596150">
    <ele>2717.2</ele>
    <time>2026-06-24T05:54:59Z</time>
   </trkpt>
   <trkpt lat="-3.1732300" lon="37.3596150">
    <ele>2716.9</ele>
    <time>2026-06-24T05:55:00Z</time>
   </trkpt>
   <trkpt lat="-3.1732310" lon="37.3596170">
    <ele>2716.9</ele>
    <time>2026-06-24T05:55:01Z</time>
   </trkpt>
   <trkpt lat="-3.1732320" lon="37.3596150">
    <ele>2716.8</ele>
    <time>2026-06-24T05:55:02Z</time>
   </trkpt>
   <trkpt lat="-3.1732390" lon="37.3596200">
    <ele>2716.7</ele>
    <time>2026-06-24T05:55:03Z</time>
   </trkpt>
   <trkpt lat="-3.1732420" lon="37.3596200">
    <ele>2716.6</ele>
    <time>2026-06-24T05:55:04Z</time>
   </trkpt>
   <trkpt lat="-3.1732400" lon="37.3596250">
    <ele>2716.5</ele>
    <time>2026-06-24T05:55:05Z</time>
   </trkpt>
   <trkpt lat="-3.1732510" lon="37.3596270">
    <ele>2716.3</ele>
    <time>2026-06-24T05:55:06Z</time>
   </trkpt>
   <trkpt lat="-3.1732510" lon="37.3596250">
    <ele>2716.3</ele>
    <time>2026-06-24T05:55:07Z</time>
   </trkpt>
   <trkpt lat="-3.1732540" lon="37.3596250">
    <ele>2716.2</ele>
    <time>2026-06-24T05:55:08Z</time>
   </trkpt>
   <trkpt lat="-3.1732640" lon="37.3596250">
    <ele>2716.0</ele>
    <time>2026-06-24T05:55:09Z</time>
   </trkpt>
   <trkpt lat="-3.1732690" lon="37.3596280">
    <ele>2715.9</ele>
    <time>2026-06-24T05:55:10Z</time>
   </trkpt>
   <trkpt lat="-3.1732760" lon="37.3596270">
    <ele>2715.7</ele>
    <time>2026-06-24T05:55:11Z</time>
   </trkpt>
   <trkpt lat="-3.1732820" lon="37.3596210">
    <ele>2715.6</ele>
    <time>2026-06-24T05:55:12Z</time>
   </trkpt>
   <trkpt lat="-3.1732850" lon="37.3596210">
    <ele>2715.5</ele>
    <time>2026-06-24T05:55:13Z</time>
   </trkpt>
   <trkpt lat="-3.1732900" lon="37.3596230">
    <ele>2715.4</ele>
    <time>2026-06-24T05:55:14Z</time>
   </trkpt>
   <trkpt lat="-3.1732900" lon="37.3596240">
    <ele>2715.4</ele>
    <time>2026-06-24T05:55:15Z</time>
   </trkpt>
   <trkpt lat="-3.1732910" lon="37.3596280">
    <ele>2715.3</ele>
    <time>2026-06-24T05:55:16Z</time>
   </trkpt>
   <trkpt lat="-3.1732950" lon="37.3596300">
    <ele>2715.2</ele>
    <time>2026-06-24T05:55:17Z</time>
   </trkpt>
   <trkpt lat="-3.1733010" lon="37.3596310">
    <ele>2715.1</ele>
    <time>2026-06-24T05:55:18Z</time>
   </trkpt>
   <trkpt lat="-3.1733030" lon="37.3596280">
    <ele>2715.0</ele>
    <time>2026-06-24T05:55:19Z</time>
   </trkpt>
   <trkpt lat="-3.1733080" lon="37.3596290">
    <ele>2714.9</ele>
    <time>2026-06-24T05:55:20Z</time>
   </trkpt>
   <trkpt lat="-3.1733110" lon="37.3596320">
    <ele>2714.8</ele>
    <time>2026-06-24T05:55:21Z</time>
   </trkpt>
   <trkpt lat="-3.1733170" lon="37.3596290">
    <ele>2714.6</ele>
    <time>2026-06-24T05:55:22Z</time>
   </trkpt>
   <trkpt lat="-3.1733180" lon="37.3596300">
    <ele>2714.6</ele>
    <time>2026-06-24T05:55:23Z</time>
   </trkpt>
   <trkpt lat="-3.1733220" lon="37.3596290">
    <ele>2714.5</ele>
    <time>2026-06-24T05:55:24Z</time>
   </trkpt>
   <trkpt lat="-3.1733370" lon="37.3596290">
    <ele>2714.2</ele>
    <time>2026-06-24T05:55:25Z</time>
   </trkpt>
   <trkpt lat="-3.1733440" lon="37.3596330">
    <ele>2714.0</ele>
    <time>2026-06-24T05:55:26Z</time>
   </trkpt>
   <trkpt lat="-3.1733530" lon="37.3596350">
    <ele>2713.8</ele>
    <time>2026-06-24T05:55:27Z</time>
   </trkpt>
   <trkpt lat="-3.1733650" lon="37.3596340">
    <ele>2713.6</ele>
    <time>2026-06-24T05:55:28Z</time>
   </trkpt>
   <trkpt lat="-3.1733700" lon="37.3596340">
    <ele>2713.5</ele>
    <time>2026-06-24T05:55:29Z</time>
   </trkpt>
   <trkpt lat="-3.1733790" lon="37.3596340">
    <ele>2713.3</ele>
    <time>2026-06-24T05:55:30Z</time>
   </trkpt>
   <trkpt lat="-3.1733830" lon="37.3596320">
    <ele>2713.2</ele>
    <time>2026-06-24T05:55:31Z</time>
   </trkpt>
   <trkpt lat="-3.1733860" lon="37.3596300">
    <ele>2713.1</ele>
    <time>2026-06-24T05:55:32Z</time>
   </trkpt>
   <trkpt lat="-3.1733900" lon="37.3596310">
    <ele>2713.0</ele>
    <time>2026-06-24T05:55:33Z</time>
   </trkpt>
   <trkpt lat="-3.1733840" lon="37.3596340">
    <ele>2712.8</ele>
    <time>2026-06-24T05:55:34Z</time>
   </trkpt>
   <trkpt lat="-3.1733870" lon="37.3596370">
    <ele>2712.8</ele>
    <time>2026-06-24T05:55:35Z</time>
   </trkpt>
   <trkpt lat="-3.1733880" lon="37.3596350">
    <ele>2712.7</ele>
    <time>2026-06-24T05:55:36Z</time>
   </trkpt>
   <trkpt lat="-3.1734000" lon="37.3596390">
    <ele>2712.4</ele>
    <time>2026-06-24T05:55:37Z</time>
   </trkpt>
   <trkpt lat="-3.1734060" lon="37.3596420">
    <ele>2712.3</ele>
    <time>2026-06-24T05:55:38Z</time>
   </trkpt>
   <trkpt lat="-3.1734100" lon="37.3596480">
    <ele>2712.1</ele>
    <time>2026-06-24T05:55:39Z</time>
   </trkpt>
   <trkpt lat="-3.1734100" lon="37.3596510">
    <ele>2712.1</ele>
    <time>2026-06-24T05:55:40Z</time>
   </trkpt>
   <trkpt lat="-3.1734100" lon="37.3596640">
    <ele>2711.8</ele>
    <time>2026-06-24T05:55:41Z</time>
   </trkpt>
   <trkpt lat="-3.1734120" lon="37.3596690">
    <ele>2711.7</ele>
    <time>2026-06-24T05:55:42Z</time>
   </trkpt>
   <trkpt lat="-3.1734180" lon="37.3596680">
    <ele>2711.5</ele>
    <time>2026-06-24T05:55:43Z</time>
   </trkpt>
   <trkpt lat="-3.1734240" lon="37.3596680">
    <ele>2711.4</ele>
    <time>2026-06-24T05:55:44Z</time>
   </trkpt>
   <trkpt lat="-3.1734290" lon="37.3596700">
    <ele>2711.3</ele>
    <time>2026-06-24T05:55:45Z</time>
   </trkpt>
   <trkpt lat="-3.1734370" lon="37.3596700">
    <ele>2711.1</ele>
    <time>2026-06-24T05:55:46Z</time>
   </trkpt>
   <trkpt lat="-3.1734450" lon="37.3596720">
    <ele>2710.9</ele>
    <time>2026-06-24T05:55:47Z</time>
   </trkpt>
   <trkpt lat="-3.1734510" lon="37.3596750">
    <ele>2710.8</ele>
    <time>2026-06-24T05:55:48Z</time>
   </trkpt>
   <trkpt lat="-3.1734540" lon="37.3596750">
    <ele>2710.7</ele>
    <time>2026-06-24T05:55:49Z</time>
   </trkpt>
   <trkpt lat="-3.1734540" lon="37.3596790">
    <ele>2710.6</ele>
    <time>2026-06-24T05:55:50Z</time>
   </trkpt>
   <trkpt lat="-3.1734560" lon="37.3596850">
    <ele>2710.5</ele>
    <time>2026-06-24T05:55:51Z</time>
   </trkpt>
   <trkpt lat="-3.1734590" lon="37.3596860">
    <ele>2710.4</ele>
    <time>2026-06-24T05:55:52Z</time>
   </trkpt>
   <trkpt lat="-3.1734620" lon="37.3596890">
    <ele>2710.4</ele>
    <time>2026-06-24T05:55:53Z</time>
   </trkpt>
   <trkpt lat="-3.1734700" lon="37.3596900">
    <ele>2710.2</ele>
    <time>2026-06-24T05:55:54Z</time>
   </trkpt>
   <trkpt lat="-3.1734740" lon="37.3596940">
    <ele>2710.1</ele>
    <time>2026-06-24T05:55:55Z</time>
   </trkpt>
   <trkpt lat="-3.1734770" lon="37.3596990">
    <ele>2710.0</ele>
    <time>2026-06-24T05:55:56Z</time>
   </trkpt>
   <trkpt lat="-3.1734780" lon="37.3596980">
    <ele>2709.9</ele>
    <time>2026-06-24T05:55:57Z</time>
   </trkpt>
   <trkpt lat="-3.1734890" lon="37.3597030">
    <ele>2709.7</ele>
    <time>2026-06-24T05:55:58Z</time>
   </trkpt>
   <trkpt lat="-3.1734940" lon="37.3597080">
    <ele>2709.5</ele>
    <time>2026-06-24T05:55:59Z</time>
   </trkpt>
   <trkpt lat="-3.1734940" lon="37.3597110">
    <ele>2709.5</ele>
    <time>2026-06-24T05:56:00Z</time>
   </trkpt>
   <trkpt lat="-3.1735040" lon="37.3597130">
    <ele>2709.3</ele>
    <time>2026-06-24T05:56:01Z</time>
   </trkpt>
   <trkpt lat="-3.1735110" lon="37.3597170">
    <ele>2709.1</ele>
    <time>2026-06-24T05:56:02Z</time>
   </trkpt>
   <trkpt lat="-3.1735110" lon="37.3597170">
    <ele>2709.1</ele>
    <time>2026-06-24T05:56:03Z</time>
   </trkpt>
   <trkpt lat="-3.1735110" lon="37.3597170">
    <ele>2709.1</ele>
    <time>2026-06-24T05:56:04Z</time>
   </trkpt>
   <trkpt lat="-3.1735110" lon="37.3597170">
    <ele>2709.1</ele>
    <time>2026-06-24T05:56:05Z</time>
   </trkpt>
   <trkpt lat="-3.1735110" lon="37.3597170">
    <ele>2709.1</ele>
    <time>2026-06-24T05:56:06Z</time>
   </trkpt>
   <trkpt lat="-3.1735110" lon="37.3597170">
    <ele>2709.1</ele>
    <time>2026-06-24T05:56:07Z</time>
   </trkpt>
   <trkpt lat="-3.1735380" lon="37.3597150">
    <ele>2708.6</ele>
    <time>2026-06-24T05:56:08Z</time>
   </trkpt>
   <trkpt lat="-3.1735410" lon="37.3597180">
    <ele>2708.5</ele>
    <time>2026-06-24T05:56:09Z</time>
   </trkpt>
   <trkpt lat="-3.1735400" lon="37.3597190">
    <ele>2708.5</ele>
    <time>2026-06-24T05:56:10Z</time>
   </trkpt>
   <trkpt lat="-3.1735400" lon="37.3597240">
    <ele>2708.4</ele>
    <time>2026-06-24T05:56:11Z</time>
   </trkpt>
   <trkpt lat="-3.1735430" lon="37.3597280">
    <ele>2708.3</ele>
    <time>2026-06-24T05:56:12Z</time>
   </trkpt>
   <trkpt lat="-3.1735450" lon="37.3597250">
    <ele>2708.2</ele>
    <time>2026-06-24T05:56:13Z</time>
   </trkpt>
   <trkpt lat="-3.1735470" lon="37.3597240">
    <ele>2708.1</ele>
    <time>2026-06-24T05:56:14Z</time>
   </trkpt>
   <trkpt lat="-3.1735500" lon="37.3597210">
    <ele>2708.1</ele>
    <time>2026-06-24T05:56:15Z</time>
   </trkpt>
   <trkpt lat="-3.1735560" lon="37.3597160">
    <ele>2707.9</ele>
    <time>2026-06-24T05:56:16Z</time>
   </trkpt>
   <trkpt lat="-3.1735580" lon="37.3597120">
    <ele>2707.8</ele>
    <time>2026-06-24T05:56:17Z</time>
   </trkpt>
   <trkpt lat="-3.1735550" lon="37.3597110">
    <ele>2707.8</ele>
    <time>2026-06-24T05:56:18Z</time>
   </trkpt>
   <trkpt lat="-3.1735520" lon="37.3597140">
    <ele>2707.7</ele>
    <time>2026-06-24T05:56:19Z</time>
   </trkpt>
   <trkpt lat="-3.1735520" lon="37.3597100">
    <ele>2707.6</ele>
    <time>2026-06-24T05:56:20Z</time>
   </trkpt>
   <trkpt lat="-3.1735510" lon="37.3597120">
    <ele>2707.6</ele>
    <time>2026-06-24T05:56:21Z</time>
   </trkpt>
   <trkpt lat="-3.1735440" lon="37.3597110">
    <ele>2707.4</ele>
    <time>2026-06-24T05:56:22Z</time>
   </trkpt>
   <trkpt lat="-3.1735410" lon="37.3597140">
    <ele>2707.4</ele>
    <time>2026-06-24T05:56:23Z</time>
   </trkpt>
   <trkpt lat="-3.1735410" lon="37.3597180">
    <ele>2707.3</ele>
    <time>2026-06-24T05:56:24Z</time>
   </trkpt>
   <trkpt lat="-3.1735420" lon="37.3597160">
    <ele>2707.3</ele>
    <time>2026-06-24T05:56:25Z</time>
   </trkpt>
   <trkpt lat="-3.1735430" lon="37.3597200">
    <ele>2707.2</ele>
    <time>2026-06-24T05:56:26Z</time>
   </trkpt>
   <trkpt lat="-3.1735410" lon="37.3597210">
    <ele>2707.1</ele>
    <time>2026-06-24T05:56:27Z</time>
   </trkpt>
   <trkpt lat="-3.1735410" lon="37.3597220">
    <ele>2707.1</ele>
    <time>2026-06-24T05:56:28Z</time>
   </trkpt>
   <trkpt lat="-3.1735410" lon="37.3597220">
    <ele>2707.1</ele>
    <time>2026-06-24T05:56:29Z</time>
   </trkpt>
   <trkpt lat="-3.1735410" lon="37.3597220">
    <ele>2707.1</ele>
    <time>2026-06-24T05:56:30Z</time>
   </trkpt>
   <trkpt lat="-3.1735430" lon="37.3597210">
    <ele>2707.1</ele>
    <time>2026-06-24T05:56:31Z</time>
   </trkpt>
   <trkpt lat="-3.1735450" lon="37.3597230">
    <ele>2707.0</ele>
    <time>2026-06-24T05:56:32Z</time>
   </trkpt>
   <trkpt lat="-3.1735470" lon="37.3597220">
    <ele>2707.0</ele>
    <time>2026-06-24T05:56:33Z</time>
   </trkpt>
   <trkpt lat="-3.1735440" lon="37.3597250">
    <ele>2706.9</ele>
    <time>2026-06-24T05:56:34Z</time>
   </trkpt>
   <trkpt lat="-3.1735420" lon="37.3597270">
    <ele>2706.9</ele>
    <time>2026-06-24T05:56:35Z</time>
   </trkpt>
   <trkpt lat="-3.1735430" lon="37.3597300">
    <ele>2706.8</ele>
    <time>2026-06-24T05:56:36Z</time>
   </trkpt>
   <trkpt lat="-3.1735520" lon="37.3597270">
    <ele>2706.6</ele>
    <time>2026-06-24T05:56:37Z</time>
   </trkpt>
   <trkpt lat="-3.1735580" lon="37.3597260">
    <ele>2706.5</ele>
    <time>2026-06-24T05:56:38Z</time>
   </trkpt>
   <trkpt lat="-3.1735600" lon="37.3597230">
    <ele>2706.5</ele>
    <time>2026-06-24T05:56:39Z</time>
   </trkpt>
   <trkpt lat="-3.1735650" lon="37.3597240">
    <ele>2706.4</ele>
    <time>2026-06-24T05:56:40Z</time>
   </trkpt>
   <trkpt lat="-3.1735710" lon="37.3597230">
    <ele>2706.3</ele>
    <time>2026-06-24T05:56:41Z</time>
   </trkpt>
   <trkpt lat="-3.1735720" lon="37.3597180">
    <ele>2706.2</ele>
    <time>2026-06-24T05:56:42Z</time>
   </trkpt>
   <trkpt lat="-3.1735760" lon="37.3597170">
    <ele>2706.1</ele>
    <time>2026-06-24T05:56:43Z</time>
   </trkpt>
   <trkpt lat="-3.1735830" lon="37.3597100">
    <ele>2705.9</ele>
    <time>2026-06-24T05:56:44Z</time>
   </trkpt>
   <trkpt lat="-3.1735870" lon="37.3597110">
    <ele>2705.9</ele>
    <time>2026-06-24T05:56:45Z</time>
   </trkpt>
   <trkpt lat="-3.1735910" lon="37.3597150">
    <ele>2705.8</ele>
    <time>2026-06-24T05:56:46Z</time>
   </trkpt>
   <trkpt lat="-3.1735970" lon="37.3597190">
    <ele>2705.6</ele>
    <time>2026-06-24T05:56:47Z</time>
   </trkpt>
   <trkpt lat="-3.1736030" lon="37.3597220">
    <ele>2705.5</ele>
    <time>2026-06-24T05:56:48Z</time>
   </trkpt>
   <trkpt lat="-3.1736120" lon="37.3597240">
    <ele>2705.4</ele>
    <time>2026-06-24T05:56:49Z</time>
   </trkpt>
   <trkpt lat="-3.1736170" lon="37.3597240">
    <ele>2705.3</ele>
    <time>2026-06-24T05:56:50Z</time>
   </trkpt>
   <trkpt lat="-3.1736240" lon="37.3597210">
    <ele>2705.2</ele>
    <time>2026-06-24T05:56:51Z</time>
   </trkpt>
   <trkpt lat="-3.1736290" lon="37.3597250">
    <ele>2705.0</ele>
    <time>2026-06-24T05:56:52Z</time>
   </trkpt>
   <trkpt lat="-3.1736360" lon="37.3597270">
    <ele>2704.9</ele>
    <time>2026-06-24T05:56:53Z</time>
   </trkpt>
   <trkpt lat="-3.1736390" lon="37.3597260">
    <ele>2704.9</ele>
    <time>2026-06-24T05:56:54Z</time>
   </trkpt>
   <trkpt lat="-3.1736320" lon="37.3597260">
    <ele>2704.7</ele>
    <time>2026-06-24T05:56:56Z</time>
   </trkpt>
   <trkpt lat="-3.1736290" lon="37.3597300">
    <ele>2704.6</ele>
    <time>2026-06-24T05:56:57Z</time>
   </trkpt>
   <trkpt lat="-3.1736310" lon="37.3597340">
    <ele>2704.6</ele>
    <time>2026-06-24T05:56:58Z</time>
   </trkpt>
   <trkpt lat="-3.1736230" lon="37.3597370">
    <ele>2704.4</ele>
    <time>2026-06-24T05:56:59Z</time>
   </trkpt>
   <trkpt lat="-3.1736180" lon="37.3597400">
    <ele>2704.3</ele>
    <time>2026-06-24T05:57:00Z</time>
   </trkpt>
   <trkpt lat="-3.1736250" lon="37.3597470">
    <ele>2704.1</ele>
    <time>2026-06-24T05:57:01Z</time>
   </trkpt>
   <trkpt lat="-3.1736330" lon="37.3597520">
    <ele>2704.0</ele>
    <time>2026-06-24T05:57:02Z</time>
   </trkpt>
   <trkpt lat="-3.1736380" lon="37.3597540">
    <ele>2703.9</ele>
    <time>2026-06-24T05:57:03Z</time>
   </trkpt>
   <trkpt lat="-3.1736510" lon="37.3597660">
    <ele>2703.6</ele>
    <time>2026-06-24T05:57:04Z</time>
   </trkpt>
   <trkpt lat="-3.1736590" lon="37.3597710">
    <ele>2703.4</ele>
    <time>2026-06-24T05:57:05Z</time>
   </trkpt>
   <trkpt lat="-3.1736670" lon="37.3597780">
    <ele>2703.2</ele>
    <time>2026-06-24T05:57:06Z</time>
   </trkpt>
   <trkpt lat="-3.1736820" lon="37.3597840">
    <ele>2703.0</ele>
    <time>2026-06-24T05:57:07Z</time>
   </trkpt>
   <trkpt lat="-3.1736960" lon="37.3597910">
    <ele>2702.7</ele>
    <time>2026-06-24T05:57:08Z</time>
   </trkpt>
   <trkpt lat="-3.1737010" lon="37.3597940">
    <ele>2702.6</ele>
    <time>2026-06-24T05:57:09Z</time>
   </trkpt>
   <trkpt lat="-3.1737160" lon="37.3597970">
    <ele>2702.3</ele>
    <time>2026-06-24T05:57:10Z</time>
   </trkpt>
   <trkpt lat="-3.1737190" lon="37.3597950">
    <ele>2702.3</ele>
    <time>2026-06-24T05:57:11Z</time>
   </trkpt>
   <trkpt lat="-3.1737220" lon="37.3597930">
    <ele>2702.2</ele>
    <time>2026-06-24T05:57:12Z</time>
   </trkpt>
   <trkpt lat="-3.1737230" lon="37.3597910">
    <ele>2702.2</ele>
    <time>2026-06-24T05:57:13Z</time>
   </trkpt>
   <trkpt lat="-3.1737260" lon="37.3597920">
    <ele>2702.1</ele>
    <time>2026-06-24T05:57:14Z</time>
   </trkpt>
   <trkpt lat="-3.1737260" lon="37.3597950">
    <ele>2702.1</ele>
    <time>2026-06-24T05:57:15Z</time>
   </trkpt>
   <trkpt lat="-3.1737290" lon="37.3597960">
    <ele>2702.0</ele>
    <time>2026-06-24T05:57:16Z</time>
   </trkpt>
   <trkpt lat="-3.1737330" lon="37.3598010">
    <ele>2701.9</ele>
    <time>2026-06-24T05:57:17Z</time>
   </trkpt>
   <trkpt lat="-3.1737360" lon="37.3598000">
    <ele>2701.9</ele>
    <time>2026-06-24T05:57:18Z</time>
   </trkpt>
   <trkpt lat="-3.1737360" lon="37.3597990">
    <ele>2701.8</ele>
    <time>2026-06-24T05:57:19Z</time>
   </trkpt>
   <trkpt lat="-3.1737410" lon="37.3597980">
    <ele>2701.8</ele>
    <time>2026-06-24T05:57:20Z</time>
   </trkpt>
   <trkpt lat="-3.1737470" lon="37.3597920">
    <ele>2701.6</ele>
    <time>2026-06-24T05:57:21Z</time>
   </trkpt>
   <trkpt lat="-3.1737580" lon="37.3597940">
    <ele>2701.4</ele>
    <time>2026-06-24T05:57:22Z</time>
   </trkpt>
   <trkpt lat="-3.1737650" lon="37.3597940">
    <ele>2701.3</ele>
    <time>2026-06-24T05:57:23Z</time>
   </trkpt>
   <trkpt lat="-3.1737690" lon="37.3597970">
    <ele>2701.2</ele>
    <time>2026-06-24T05:57:24Z</time>
   </trkpt>
   <trkpt lat="-3.1737770" lon="37.3597940">
    <ele>2701.1</ele>
    <time>2026-06-24T05:57:25Z</time>
   </trkpt>
   <trkpt lat="-3.1737860" lon="37.3597970">
    <ele>2700.9</ele>
    <time>2026-06-24T05:57:26Z</time>
   </trkpt>
   <trkpt lat="-3.1737910" lon="37.3598030">
    <ele>2700.8</ele>
    <time>2026-06-24T05:57:27Z</time>
   </trkpt>
   <trkpt lat="-3.1737930" lon="37.3598030">
    <ele>2700.8</ele>
    <time>2026-06-24T05:57:28Z</time>
   </trkpt>
   <trkpt lat="-3.1738030" lon="37.3598010">
    <ele>2700.6</ele>
    <time>2026-06-24T05:57:29Z</time>
   </trkpt>
   <trkpt lat="-3.1738090" lon="37.3597950">
    <ele>2700.5</ele>
    <time>2026-06-24T05:57:30Z</time>
   </trkpt>
   <trkpt lat="-3.1738100" lon="37.3597940">
    <ele>2700.5</ele>
    <time>2026-06-24T05:57:31Z</time>
   </trkpt>
   <trkpt lat="-3.1738100" lon="37.3597950">
    <ele>2700.4</ele>
    <time>2026-06-24T05:57:32Z</time>
   </trkpt>
   <trkpt lat="-3.1738170" lon="37.3597970">
    <ele>2700.3</ele>
    <time>2026-06-24T05:57:33Z</time>
   </trkpt>
   <trkpt lat="-3.1738250" lon="37.3598010">
    <ele>2700.2</ele>
    <time>2026-06-24T05:57:34Z</time>
   </trkpt>
   <trkpt lat="-3.1738340" lon="37.3598060">
    <ele>2700.0</ele>
    <time>2026-06-24T05:57:35Z</time>
   </trkpt>
   <trkpt lat="-3.1738460" lon="37.3598100">
    <ele>2699.8</ele>
    <time>2026-06-24T05:57:36Z</time>
   </trkpt>
   <trkpt lat="-3.1738540" lon="37.3598130">
    <ele>2699.6</ele>
    <time>2026-06-24T05:57:37Z</time>
   </trkpt>
   <trkpt lat="-3.1738560" lon="37.3598140">
    <ele>2699.6</ele>
    <time>2026-06-24T05:57:38Z</time>
   </trkpt>
   <trkpt lat="-3.1738610" lon="37.3598180">
    <ele>2699.5</ele>
    <time>2026-06-24T05:57:39Z</time>
   </trkpt>
   <trkpt lat="-3.1738600" lon="37.3598220">
    <ele>2699.4</ele>
    <time>2026-06-24T05:57:40Z</time>
   </trkpt>
   <trkpt lat="-3.1738630" lon="37.3598370">
    <ele>2699.2</ele>
    <time>2026-06-24T05:57:41Z</time>
   </trkpt>
   <trkpt lat="-3.1738630" lon="37.3598370">
    <ele>2699.2</ele>
    <time>2026-06-24T05:57:42Z</time>
   </trkpt>
   <trkpt lat="-3.1738630" lon="37.3598320">
    <ele>2699.1</ele>
    <time>2026-06-24T05:57:43Z</time>
   </trkpt>
   <trkpt lat="-3.1738590" lon="37.3598380">
    <ele>2699.0</ele>
    <time>2026-06-24T05:57:44Z</time>
   </trkpt>
   <trkpt lat="-3.1738620" lon="37.3598400">
    <ele>2698.9</ele>
    <time>2026-06-24T05:57:45Z</time>
   </trkpt>
   <trkpt lat="-3.1738650" lon="37.3598380">
    <ele>2698.9</ele>
    <time>2026-06-24T05:57:46Z</time>
   </trkpt>
   <trkpt lat="-3.1738640" lon="37.3598380">
    <ele>2698.8</ele>
    <time>2026-06-24T05:57:47Z</time>
   </trkpt>
   <trkpt lat="-3.1738640" lon="37.3598380">
    <ele>2698.8</ele>
    <time>2026-06-24T05:57:48Z</time>
   </trkpt>
   <trkpt lat="-3.1738640" lon="37.3598380">
    <ele>2698.8</ele>
    <time>2026-06-24T05:57:49Z</time>
   </trkpt>
   <trkpt lat="-3.1738640" lon="37.3598380">
    <ele>2698.8</ele>
    <time>2026-06-24T05:57:50Z</time>
   </trkpt>
   <trkpt lat="-3.1738640" lon="37.3598380">
    <ele>2698.8</ele>
    <time>2026-06-24T05:57:51Z</time>
   </trkpt>
   <trkpt lat="-3.1738640" lon="37.3598440">
    <ele>2698.7</ele>
    <time>2026-06-24T05:57:52Z</time>
   </trkpt>
   <trkpt lat="-3.1738640" lon="37.3598410">
    <ele>2698.7</ele>
    <time>2026-06-24T05:57:53Z</time>
   </trkpt>
   <trkpt lat="-3.1738670" lon="37.3598470">
    <ele>2698.6</ele>
    <time>2026-06-24T05:57:54Z</time>
   </trkpt>
   <trkpt lat="-3.1738700" lon="37.3598500">
    <ele>2698.5</ele>
    <time>2026-06-24T05:57:55Z</time>
   </trkpt>
   <trkpt lat="-3.1738650" lon="37.3598490">
    <ele>2698.4</ele>
    <time>2026-06-24T05:57:56Z</time>
   </trkpt>
   <trkpt lat="-3.1738650" lon="37.3598490">
    <ele>2698.4</ele>
    <time>2026-06-24T05:57:57Z</time>
   </trkpt>
   <trkpt lat="-3.1738650" lon="37.3598490">
    <ele>2698.4</ele>
    <time>2026-06-24T05:57:58Z</time>
   </trkpt>
   <trkpt lat="-3.1738650" lon="37.3598490">
    <ele>2698.4</ele>
    <time>2026-06-24T05:57:59Z</time>
   </trkpt>
   <trkpt lat="-3.1738650" lon="37.3598490">
    <ele>2698.4</ele>
    <time>2026-06-24T05:58:00Z</time>
   </trkpt>
   <trkpt lat="-3.1738650" lon="37.3598490">
    <ele>2698.4</ele>
    <time>2026-06-24T05:58:01Z</time>
   </trkpt>
   <trkpt lat="-3.1738650" lon="37.3598490">
    <ele>2698.4</ele>
    <time>2026-06-24T05:58:02Z</time>
   </trkpt>
   <trkpt lat="-3.1738650" lon="37.3598490">
    <ele>2698.4</ele>
    <time>2026-06-24T05:58:03Z</time>
   </trkpt>
   <trkpt lat="-3.1738650" lon="37.3598490">
    <ele>2698.4</ele>
    <time>2026-06-24T05:58:04Z</time>
   </trkpt>
   <trkpt lat="-3.1738650" lon="37.3598490">
    <ele>2698.4</ele>
    <time>2026-06-24T05:58:05Z</time>
   </trkpt>
   <trkpt lat="-3.1738450" lon="37.3598600">
    <ele>2698.0</ele>
    <time>2026-06-24T05:58:06Z</time>
   </trkpt>
   <trkpt lat="-3.1738430" lon="37.3598590">
    <ele>2698.0</ele>
    <time>2026-06-24T05:58:07Z</time>
   </trkpt>
   <trkpt lat="-3.1738430" lon="37.3598610">
    <ele>2697.9</ele>
    <time>2026-06-24T05:58:08Z</time>
   </trkpt>
   <trkpt lat="-3.1738430" lon="37.3598590">
    <ele>2697.9</ele>
    <time>2026-06-24T05:58:09Z</time>
   </trkpt>
   <trkpt lat="-3.1738570" lon="37.3598690">
    <ele>2697.6</ele>
    <time>2026-06-24T05:58:10Z</time>
   </trkpt>
   <trkpt lat="-3.1738580" lon="37.3598690">
    <ele>2697.6</ele>
    <time>2026-06-24T05:58:11Z</time>
   </trkpt>
   <trkpt lat="-3.1738660" lon="37.3598730">
    <ele>2697.4</ele>
    <time>2026-06-24T05:58:12Z</time>
   </trkpt>
   <trkpt lat="-3.1738700" lon="37.3598780">
    <ele>2697.3</ele>
    <time>2026-06-24T05:58:13Z</time>
   </trkpt>
   <trkpt lat="-3.1738800" lon="37.3598810">
    <ele>2697.1</ele>
    <time>2026-06-24T05:58:14Z</time>
   </trkpt>
   <trkpt lat="-3.1738840" lon="37.3598810">
    <ele>2697.0</ele>
    <time>2026-06-24T05:58:15Z</time>
   </trkpt>
   <trkpt lat="-3.1738870" lon="37.3598790">
    <ele>2697.0</ele>
    <time>2026-06-24T05:58:16Z</time>
   </trkpt>
   <trkpt lat="-3.1738810" lon="37.3598820">
    <ele>2696.8</ele>
    <time>2026-06-24T05:58:17Z</time>
   </trkpt>
   <trkpt lat="-3.1738760" lon="37.3598830">
    <ele>2696.8</ele>
    <time>2026-06-24T05:58:18Z</time>
   </trkpt>
   <trkpt lat="-3.1738710" lon="37.3598830">
    <ele>2696.7</ele>
    <time>2026-06-24T05:58:19Z</time>
   </trkpt>
   <trkpt lat="-3.1738720" lon="37.3598810">
    <ele>2696.6</ele>
    <time>2026-06-24T05:58:20Z</time>
   </trkpt>
   <trkpt lat="-3.1738690" lon="37.3598820">
    <ele>2696.6</ele>
    <time>2026-06-24T05:58:21Z</time>
   </trkpt>
   <trkpt lat="-3.1738680" lon="37.3598850">
    <ele>2696.5</ele>
    <time>2026-06-24T05:58:22Z</time>
   </trkpt>
   <trkpt lat="-3.1738680" lon="37.3598870">
    <ele>2696.5</ele>
    <time>2026-06-24T05:58:23Z</time>
   </trkpt>
   <trkpt lat="-3.1738680" lon="37.3598930">
    <ele>2696.4</ele>
    <time>2026-06-24T05:58:24Z</time>
   </trkpt>
   <trkpt lat="-3.1738700" lon="37.3599000">
    <ele>2696.3</ele>
    <time>2026-06-24T05:58:25Z</time>
   </trkpt>
   <trkpt lat="-3.1738670" lon="37.3599040">
    <ele>2696.3</ele>
    <time>2026-06-24T05:58:26Z</time>
   </trkpt>
   <trkpt lat="-3.1738710" lon="37.3599130">
    <ele>2696.2</ele>
    <time>2026-06-24T05:58:27Z</time>
   </trkpt>
   <trkpt lat="-3.1738760" lon="37.3599230">
    <ele>2696.1</ele>
    <time>2026-06-24T05:58:28Z</time>
   </trkpt>
   <trkpt lat="-3.1738790" lon="37.3599230">
    <ele>2696.1</ele>
    <time>2026-06-24T05:58:29Z</time>
   </trkpt>
   <trkpt lat="-3.1738840" lon="37.3599250">
    <ele>2696.0</ele>
    <time>2026-06-24T05:58:30Z</time>
   </trkpt>
   <trkpt lat="-3.1738910" lon="37.3599260">
    <ele>2696.0</ele>
    <time>2026-06-24T05:58:31Z</time>
   </trkpt>
   <trkpt lat="-3.1738860" lon="37.3599270">
    <ele>2695.9</ele>
    <time>2026-06-24T05:58:32Z</time>
   </trkpt>
   <trkpt lat="-3.1738850" lon="37.3599290">
    <ele>2695.9</ele>
    <time>2026-06-24T05:58:33Z</time>
   </trkpt>
   <trkpt lat="-3.1738950" lon="37.3599400">
    <ele>2695.8</ele>
    <time>2026-06-24T05:58:34Z</time>
   </trkpt>
   <trkpt lat="-3.1739030" lon="37.3599430">
    <ele>2695.8</ele>
    <time>2026-06-24T05:58:35Z</time>
   </trkpt>
   <trkpt lat="-3.1739000" lon="37.3599450">
    <ele>2695.7</ele>
    <time>2026-06-24T05:58:36Z</time>
   </trkpt>
   <trkpt lat="-3.1739030" lon="37.3599460">
    <ele>2695.7</ele>
    <time>2026-06-24T05:58:37Z</time>
   </trkpt>
   <trkpt lat="-3.1739100" lon="37.3599420">
    <ele>2695.7</ele>
    <time>2026-06-24T05:58:38Z</time>
   </trkpt>
   <trkpt lat="-3.1739060" lon="37.3599490">
    <ele>2695.6</ele>
    <time>2026-06-24T05:58:39Z</time>
   </trkpt>
   <trkpt lat="-3.1739050" lon="37.3599550">
    <ele>2695.6</ele>
    <time>2026-06-24T05:58:40Z</time>
   </trkpt>
   <trkpt lat="-3.1739030" lon="37.3599620">
    <ele>2695.5</ele>
    <time>2026-06-24T05:58:41Z</time>
   </trkpt>
   <trkpt lat="-3.1739030" lon="37.3599670">
    <ele>2695.5</ele>
    <time>2026-06-24T05:58:42Z</time>
   </trkpt>
   <trkpt lat="-3.1739040" lon="37.3599700">
    <ele>2695.5</ele>
    <time>2026-06-24T05:58:43Z</time>
   </trkpt>
   <trkpt lat="-3.1739130" lon="37.3599870">
    <ele>2695.4</ele>
    <time>2026-06-24T05:58:44Z</time>
   </trkpt>
   <trkpt lat="-3.1739160" lon="37.3599920">
    <ele>2695.4</ele>
    <time>2026-06-24T05:58:45Z</time>
   </trkpt>
   <trkpt lat="-3.1739150" lon="37.3600000">
    <ele>2695.4</ele>
    <time>2026-06-24T05:58:46Z</time>
   </trkpt>
   <trkpt lat="-3.1739170" lon="37.3600080">
    <ele>2695.3</ele>
    <time>2026-06-24T05:58:47Z</time>
   </trkpt>
   <trkpt lat="-3.1739170" lon="37.3600130">
    <ele>2695.3</ele>
    <time>2026-06-24T05:58:48Z</time>
   </trkpt>
   <trkpt lat="-3.1739180" lon="37.3600120">
    <ele>2695.3</ele>
    <time>2026-06-24T05:58:49Z</time>
   </trkpt>
   <trkpt lat="-3.1739130" lon="37.3600270">
    <ele>2695.3</ele>
    <time>2026-06-24T05:58:50Z</time>
   </trkpt>
   <trkpt lat="-3.1739140" lon="37.3600320">
    <ele>2695.3</ele>
    <time>2026-06-24T05:58:51Z</time>
   </trkpt>
   <trkpt lat="-3.1739180" lon="37.3600390">
    <ele>2695.3</ele>
    <time>2026-06-24T05:58:52Z</time>
   </trkpt>
   <trkpt lat="-3.1739150" lon="37.3600480">
    <ele>2695.2</ele>
    <time>2026-06-24T05:58:53Z</time>
   </trkpt>
   <trkpt lat="-3.1739100" lon="37.3600520">
    <ele>2695.2</ele>
    <time>2026-06-24T05:58:54Z</time>
   </trkpt>
   <trkpt lat="-3.1739080" lon="37.3600600">
    <ele>2695.2</ele>
    <time>2026-06-24T05:58:55Z</time>
   </trkpt>
   <trkpt lat="-3.1739110" lon="37.3600590">
    <ele>2695.2</ele>
    <time>2026-06-24T05:58:56Z</time>
   </trkpt>
   <trkpt lat="-3.1739110" lon="37.3600690">
    <ele>2695.2</ele>
    <time>2026-06-24T05:58:57Z</time>
   </trkpt>
   <trkpt lat="-3.1739130" lon="37.3600870">
    <ele>2695.2</ele>
    <time>2026-06-24T05:58:58Z</time>
   </trkpt>
   <trkpt lat="-3.1739160" lon="37.3600930">
    <ele>2695.2</ele>
    <time>2026-06-24T05:58:59Z</time>
   </trkpt>
   <trkpt lat="-3.1739160" lon="37.3601110">
    <ele>2695.1</ele>
    <time>2026-06-24T05:59:01Z</time>
   </trkpt>
   <trkpt lat="-3.1739140" lon="37.3601180">
    <ele>2695.1</ele>
    <time>2026-06-24T05:59:02Z</time>
   </trkpt>
   <trkpt lat="-3.1739180" lon="37.3601150">
    <ele>2695.1</ele>
    <time>2026-06-24T05:59:03Z</time>
   </trkpt>
   <trkpt lat="-3.1739230" lon="37.3601170">
    <ele>2695.1</ele>
    <time>2026-06-24T05:59:04Z</time>
   </trkpt>
   <trkpt lat="-3.1739290" lon="37.3601290">
    <ele>2695.0</ele>
    <time>2026-06-24T05:59:05Z</time>
   </trkpt>
   <trkpt lat="-3.1739390" lon="37.3601360">
    <ele>2695.0</ele>
    <time>2026-06-24T05:59:06Z</time>
   </trkpt>
   <trkpt lat="-3.1739470" lon="37.3601410">
    <ele>2695.0</ele>
    <time>2026-06-24T05:59:07Z</time>
   </trkpt>
   <trkpt lat="-3.1739570" lon="37.3601420">
    <ele>2694.9</ele>
    <time>2026-06-24T05:59:08Z</time>
   </trkpt>
   <trkpt lat="-3.1739680" lon="37.3601400">
    <ele>2694.9</ele>
    <time>2026-06-24T05:59:09Z</time>
   </trkpt>
   <trkpt lat="-3.1739740" lon="37.3601410">
    <ele>2694.8</ele>
    <time>2026-06-24T05:59:10Z</time>
   </trkpt>
   <trkpt lat="-3.1739830" lon="37.3601360">
    <ele>2694.8</ele>
    <time>2026-06-24T05:59:11Z</time>
   </trkpt>
   <trkpt lat="-3.1739950" lon="37.3601400">
    <ele>2694.7</ele>
    <time>2026-06-24T05:59:12Z</time>
   </trkpt>
   <trkpt lat="-3.1740000" lon="37.3601390">
    <ele>2694.7</ele>
    <time>2026-06-24T05:59:13Z</time>
   </trkpt>
   <trkpt lat="-3.1740080" lon="37.3601370">
    <ele>2694.7</ele>
    <time>2026-06-24T05:59:14Z</time>
   </trkpt>
   <trkpt lat="-3.1740170" lon="37.3601390">
    <ele>2694.6</ele>
    <time>2026-06-24T05:59:15Z</time>
   </trkpt>
   <trkpt lat="-3.1740250" lon="37.3601430">
    <ele>2694.6</ele>
    <time>2026-06-24T05:59:16Z</time>
   </trkpt>
   <trkpt lat="-3.1740310" lon="37.3601430">
    <ele>2694.5</ele>
    <time>2026-06-24T05:59:17Z</time>
   </trkpt>
   <trkpt lat="-3.1740330" lon="37.3601440">
    <ele>2694.5</ele>
    <time>2026-06-24T05:59:18Z</time>
   </trkpt>
   <trkpt lat="-3.1740370" lon="37.3601490">
    <ele>2694.4</ele>
    <time>2026-06-24T05:59:19Z</time>
   </trkpt>
   <trkpt lat="-3.1740480" lon="37.3601490">
    <ele>2694.3</ele>
    <time>2026-06-24T05:59:20Z</time>
   </trkpt>
   <trkpt lat="-3.1740560" lon="37.3601480">
    <ele>2694.3</ele>
    <time>2026-06-24T05:59:21Z</time>
   </trkpt>
   <trkpt lat="-3.1740580" lon="37.3601550">
    <ele>2694.2</ele>
    <time>2026-06-24T05:59:22Z</time>
   </trkpt>
   <trkpt lat="-3.1740690" lon="37.3601520">
    <ele>2694.1</ele>
    <time>2026-06-24T05:59:23Z</time>
   </trkpt>
   <trkpt lat="-3.1740760" lon="37.3601490">
    <ele>2694.1</ele>
    <time>2026-06-24T05:59:24Z</time>
   </trkpt>
   <trkpt lat="-3.1740840" lon="37.3601480">
    <ele>2694.0</ele>
    <time>2026-06-24T05:59:25Z</time>
   </trkpt>
   <trkpt lat="-3.1740830" lon="37.3601490">
    <ele>2694.0</ele>
    <time>2026-06-24T05:59:26Z</time>
   </trkpt>
   <trkpt lat="-3.1740920" lon="37.3601450">
    <ele>2693.9</ele>
    <time>2026-06-24T05:59:27Z</time>
   </trkpt>
   <trkpt lat="-3.1740930" lon="37.3601280">
    <ele>2693.7</ele>
    <time>2026-06-24T05:59:28Z</time>
   </trkpt>
   <trkpt lat="-3.1740950" lon="37.3601180">
    <ele>2693.6</ele>
    <time>2026-06-24T05:59:29Z</time>
   </trkpt>
   <trkpt lat="-3.1740970" lon="37.3601160">
    <ele>2693.5</ele>
    <time>2026-06-24T05:59:30Z</time>
   </trkpt>
   <trkpt lat="-3.1741020" lon="37.3601110">
    <ele>2693.5</ele>
    <time>2026-06-24T05:59:31Z</time>
   </trkpt>
   <trkpt lat="-3.1741130" lon="37.3601080">
    <ele>2693.3</ele>
    <time>2026-06-24T05:59:32Z</time>
   </trkpt>
   <trkpt lat="-3.1741200" lon="37.3601070">
    <ele>2693.3</ele>
    <time>2026-06-24T05:59:33Z</time>
   </trkpt>
   <trkpt lat="-3.1741270" lon="37.3601060">
    <ele>2693.2</ele>
    <time>2026-06-24T05:59:34Z</time>
   </trkpt>
   <trkpt lat="-3.1741300" lon="37.3601030">
    <ele>2693.1</ele>
    <time>2026-06-24T05:59:35Z</time>
   </trkpt>
   <trkpt lat="-3.1741350" lon="37.3600970">
    <ele>2693.0</ele>
    <time>2026-06-24T05:59:36Z</time>
   </trkpt>
   <trkpt lat="-3.1741400" lon="37.3600950">
    <ele>2692.9</ele>
    <time>2026-06-24T05:59:37Z</time>
   </trkpt>
   <trkpt lat="-3.1741460" lon="37.3600920">
    <ele>2692.8</ele>
    <time>2026-06-24T05:59:38Z</time>
   </trkpt>
   <trkpt lat="-3.1741580" lon="37.3600860">
    <ele>2692.7</ele>
    <time>2026-06-24T05:59:39Z</time>
   </trkpt>
   <trkpt lat="-3.1741630" lon="37.3600830">
    <ele>2692.6</ele>
    <time>2026-06-24T05:59:40Z</time>
   </trkpt>
   <trkpt lat="-3.1741660" lon="37.3600850">
    <ele>2692.5</ele>
    <time>2026-06-24T05:59:41Z</time>
   </trkpt>
   <trkpt lat="-3.1741740" lon="37.3600800">
    <ele>2692.4</ele>
    <time>2026-06-24T05:59:42Z</time>
   </trkpt>
   <trkpt lat="-3.1741820" lon="37.3600690">
    <ele>2692.2</ele>
    <time>2026-06-24T05:59:43Z</time>
   </trkpt>
   <trkpt lat="-3.1741880" lon="37.3600640">
    <ele>2692.1</ele>
    <time>2026-06-24T05:59:44Z</time>
   </trkpt>
   <trkpt lat="-3.1741940" lon="37.3600630">
    <ele>2692.0</ele>
    <time>2026-06-24T05:59:45Z</time>
   </trkpt>
   <trkpt lat="-3.1742080" lon="37.3600580">
    <ele>2691.8</ele>
    <time>2026-06-24T05:59:46Z</time>
   </trkpt>
   <trkpt lat="-3.1742120" lon="37.3600580">
    <ele>2691.7</ele>
    <time>2026-06-24T05:59:47Z</time>
   </trkpt>
   <trkpt lat="-3.1742160" lon="37.3600610">
    <ele>2691.7</ele>
    <time>2026-06-24T05:59:48Z</time>
   </trkpt>
   <trkpt lat="-3.1742210" lon="37.3600630">
    <ele>2691.6</ele>
    <time>2026-06-24T05:59:49Z</time>
   </trkpt>
   <trkpt lat="-3.1742320" lon="37.3600590">
    <ele>2691.4</ele>
    <time>2026-06-24T05:59:50Z</time>
   </trkpt>
   <trkpt lat="-3.1742410" lon="37.3600560">
    <ele>2691.2</ele>
    <time>2026-06-24T05:59:51Z</time>
   </trkpt>
   <trkpt lat="-3.1742450" lon="37.3600570">
    <ele>2691.2</ele>
    <time>2026-06-24T05:59:52Z</time>
   </trkpt>
   <trkpt lat="-3.1742590" lon="37.3600600">
    <ele>2690.9</ele>
    <time>2026-06-24T05:59:53Z</time>
   </trkpt>
   <trkpt lat="-3.1742610" lon="37.3600620">
    <ele>2690.9</ele>
    <time>2026-06-24T05:59:54Z</time>
   </trkpt>
   <trkpt lat="-3.1742710" lon="37.3600640">
    <ele>2690.7</ele>
    <time>2026-06-24T05:59:55Z</time>
   </trkpt>
   <trkpt lat="-3.1742830" lon="37.3600700">
    <ele>2690.5</ele>
    <time>2026-06-24T05:59:56Z</time>
   </trkpt>
   <trkpt lat="-3.1742870" lon="37.3600720">
    <ele>2690.4</ele>
    <time>2026-06-24T05:59:57Z</time>
   </trkpt>
   <trkpt lat="-3.1742890" lon="37.3600760">
    <ele>2690.4</ele>
    <time>2026-06-24T05:59:58Z</time>
   </trkpt>
   <trkpt lat="-3.1742870" lon="37.3600800">
    <ele>2690.3</ele>
    <time>2026-06-24T05:59:59Z</time>
   </trkpt>
   <trkpt lat="-3.1742910" lon="37.3600810">
    <ele>2690.2</ele>
    <time>2026-06-24T06:00:00Z</time>
   </trkpt>
   <trkpt lat="-3.1742890" lon="37.3600880">
    <ele>2690.1</ele>
    <time>2026-06-24T06:00:01Z</time>
   </trkpt>
   <trkpt lat="-3.1742920" lon="37.3600900">
    <ele>2690.1</ele>
    <time>2026-06-24T06:00:02Z</time>
   </trkpt>
   <trkpt lat="-3.1742930" lon="37.3600920">
    <ele>2690.0</ele>
    <time>2026-06-24T06:00:03Z</time>
   </trkpt>
   <trkpt lat="-3.1742930" lon="37.3600970">
    <ele>2689.9</ele>
    <time>2026-06-24T06:00:04Z</time>
   </trkpt>
   <trkpt lat="-3.1742840" lon="37.3601180">
    <ele>2689.6</ele>
    <time>2026-06-24T06:00:05Z</time>
   </trkpt>
   <trkpt lat="-3.1742790" lon="37.3601160">
    <ele>2689.5</ele>
    <time>2026-06-24T06:00:06Z</time>
   </trkpt>
   <trkpt lat="-3.1742880" lon="37.3601160">
    <ele>2689.3</ele>
    <time>2026-06-24T06:00:07Z</time>
   </trkpt>
   <trkpt lat="-3.1742970" lon="37.3601120">
    <ele>2689.2</ele>
    <time>2026-06-24T06:00:08Z</time>
   </trkpt>
   <trkpt lat="-3.1742930" lon="37.3601160">
    <ele>2689.1</ele>
    <time>2026-06-24T06:00:09Z</time>
   </trkpt>
   <trkpt lat="-3.1742950" lon="37.3601220">
    <ele>2689.0</ele>
    <time>2026-06-24T06:00:10Z</time>
   </trkpt>
   <trkpt lat="-3.1743010" lon="37.3601270">
    <ele>2688.8</ele>
    <time>2026-06-24T06:00:11Z</time>
   </trkpt>
   <trkpt lat="-3.1743070" lon="37.3601290">
    <ele>2688.7</ele>
    <time>2026-06-24T06:00:12Z</time>
   </trkpt>
   <trkpt lat="-3.1743110" lon="37.3601360">
    <ele>2688.6</ele>
    <time>2026-06-24T06:00:13Z</time>
   </trkpt>
   <trkpt lat="-3.1743160" lon="37.3601380">
    <ele>2688.5</ele>
    <time>2026-06-24T06:00:14Z</time>
   </trkpt>
   <trkpt lat="-3.1743240" lon="37.3601370">
    <ele>2688.4</ele>
    <time>2026-06-24T06:00:15Z</time>
   </trkpt>
   <trkpt lat="-3.1743340" lon="37.3601350">
    <ele>2688.2</ele>
    <time>2026-06-24T06:00:16Z</time>
   </trkpt>
   <trkpt lat="-3.1743410" lon="37.3601310">
    <ele>2688.0</ele>
    <time>2026-06-24T06:00:17Z</time>
   </trkpt>
   <trkpt lat="-3.1743510" lon="37.3601340">
    <ele>2687.9</ele>
    <time>2026-06-24T06:00:18Z</time>
   </trkpt>
   <trkpt lat="-3.1743630" lon="37.3601320">
    <ele>2687.7</ele>
    <time>2026-06-24T06:00:19Z</time>
   </trkpt>
   <trkpt lat="-3.1743710" lon="37.3601320">
    <ele>2687.5</ele>
    <time>2026-06-24T06:00:20Z</time>
   </trkpt>
   <trkpt lat="-3.1743750" lon="37.3601310">
    <ele>2687.4</ele>
    <time>2026-06-24T06:00:21Z</time>
   </trkpt>
   <trkpt lat="-3.1743790" lon="37.3601290">
    <ele>2687.4</ele>
    <time>2026-06-24T06:00:22Z</time>
   </trkpt>
   <trkpt lat="-3.1743820" lon="37.3601280">
    <ele>2687.3</ele>
    <time>2026-06-24T06:00:23Z</time>
   </trkpt>
   <trkpt lat="-3.1743860" lon="37.3601260">
    <ele>2687.2</ele>
    <time>2026-06-24T06:00:24Z</time>
   </trkpt>
   <trkpt lat="-3.1743920" lon="37.3601310">
    <ele>2687.1</ele>
    <time>2026-06-24T06:00:25Z</time>
   </trkpt>
   <trkpt lat="-3.1743980" lon="37.3601290">
    <ele>2687.0</ele>
    <time>2026-06-24T06:00:26Z</time>
   </trkpt>
   <trkpt lat="-3.1744060" lon="37.3601280">
    <ele>2686.8</ele>
    <time>2026-06-24T06:00:27Z</time>
   </trkpt>
   <trkpt lat="-3.1744130" lon="37.3601300">
    <ele>2686.7</ele>
    <time>2026-06-24T06:00:28Z</time>
   </trkpt>
   <trkpt lat="-3.1744210" lon="37.3601280">
    <ele>2686.5</ele>
    <time>2026-06-24T06:00:29Z</time>
   </trkpt>
   <trkpt lat="-3.1744200" lon="37.3601280">
    <ele>2686.5</ele>
    <time>2026-06-24T06:00:30Z</time>
   </trkpt>
   <trkpt lat="-3.1744270" lon="37.3601260">
    <ele>2686.4</ele>
    <time>2026-06-24T06:00:31Z</time>
   </trkpt>
   <trkpt lat="-3.1744310" lon="37.3601250">
    <ele>2686.3</ele>
    <time>2026-06-24T06:00:32Z</time>
   </trkpt>
   <trkpt lat="-3.1744330" lon="37.3601270">
    <ele>2686.3</ele>
    <time>2026-06-24T06:00:33Z</time>
   </trkpt>
   <trkpt lat="-3.1744410" lon="37.3601220">
    <ele>2686.1</ele>
    <time>2026-06-24T06:00:34Z</time>
   </trkpt>
   <trkpt lat="-3.1744490" lon="37.3601200">
    <ele>2685.9</ele>
    <time>2026-06-24T06:00:35Z</time>
   </trkpt>
   <trkpt lat="-3.1744520" lon="37.3601230">
    <ele>2685.8</ele>
    <time>2026-06-24T06:00:36Z</time>
   </trkpt>
   <trkpt lat="-3.1744540" lon="37.3601170">
    <ele>2685.7</ele>
    <time>2026-06-24T06:00:37Z</time>
   </trkpt>
   <trkpt lat="-3.1744530" lon="37.3601170">
    <ele>2685.7</ele>
    <time>2026-06-24T06:00:38Z</time>
   </trkpt>
   <trkpt lat="-3.1744530" lon="37.3601170">
    <ele>2685.7</ele>
    <time>2026-06-24T06:00:39Z</time>
   </trkpt>
   <trkpt lat="-3.1744530" lon="37.3601170">
    <ele>2685.7</ele>
    <time>2026-06-24T06:00:40Z</time>
   </trkpt>
   <trkpt lat="-3.1744530" lon="37.3601170">
    <ele>2685.7</ele>
    <time>2026-06-24T06:00:41Z</time>
   </trkpt>
   <trkpt lat="-3.1744530" lon="37.3601170">
    <ele>2685.7</ele>
    <time>2026-06-24T06:00:42Z</time>
   </trkpt>
   <trkpt lat="-3.1744500" lon="37.3601060">
    <ele>2685.4</ele>
    <time>2026-06-24T06:00:43Z</time>
   </trkpt>
   <trkpt lat="-3.1744490" lon="37.3601080">
    <ele>2685.4</ele>
    <time>2026-06-24T06:00:44Z</time>
   </trkpt>
   <trkpt lat="-3.1744490" lon="37.3601080">
    <ele>2685.4</ele>
    <time>2026-06-24T06:00:45Z</time>
   </trkpt>
   <trkpt lat="-3.1744440" lon="37.3601120">
    <ele>2685.3</ele>
    <time>2026-06-24T06:00:46Z</time>
   </trkpt>
   <trkpt lat="-3.1744450" lon="37.3601130">
    <ele>2685.2</ele>
    <time>2026-06-24T06:00:47Z</time>
   </trkpt>
   <trkpt lat="-3.1744470" lon="37.3601080">
    <ele>2685.1</ele>
    <time>2026-06-24T06:00:48Z</time>
   </trkpt>
   <trkpt lat="-3.1744470" lon="37.3601060">
    <ele>2685.1</ele>
    <time>2026-06-24T06:00:49Z</time>
   </trkpt>
   <trkpt lat="-3.1744500" lon="37.3601050">
    <ele>2685.0</ele>
    <time>2026-06-24T06:00:50Z</time>
   </trkpt>
   <trkpt lat="-3.1744490" lon="37.3601020">
    <ele>2685.0</ele>
    <time>2026-06-24T06:00:51Z</time>
   </trkpt>
   <trkpt lat="-3.1744510" lon="37.3601020">
    <ele>2684.9</ele>
    <time>2026-06-24T06:00:52Z</time>
   </trkpt>
   <trkpt lat="-3.1744530" lon="37.3600940">
    <ele>2684.8</ele>
    <time>2026-06-24T06:00:53Z</time>
   </trkpt>
   <trkpt lat="-3.1744550" lon="37.3600980">
    <ele>2684.7</ele>
    <time>2026-06-24T06:00:54Z</time>
   </trkpt>
   <trkpt lat="-3.1744560" lon="37.3601010">
    <ele>2684.6</ele>
    <time>2026-06-24T06:00:55Z</time>
   </trkpt>
   <trkpt lat="-3.1744640" lon="37.3601100">
    <ele>2684.3</ele>
    <time>2026-06-24T06:00:56Z</time>
   </trkpt>
   <trkpt lat="-3.1744640" lon="37.3601140">
    <ele>2684.2</ele>
    <time>2026-06-24T06:00:57Z</time>
   </trkpt>
   <trkpt lat="-3.1744710" lon="37.3601200">
    <ele>2684.1</ele>
    <time>2026-06-24T06:00:58Z</time>
   </trkpt>
   <trkpt lat="-3.1744820" lon="37.3601240">
    <ele>2683.8</ele>
    <time>2026-06-24T06:00:59Z</time>
   </trkpt>
   <trkpt lat="-3.1744860" lon="37.3601230">
    <ele>2683.7</ele>
    <time>2026-06-24T06:01:00Z</time>
   </trkpt>
   <trkpt lat="-3.1744970" lon="37.3601260">
    <ele>2683.5</ele>
    <time>2026-06-24T06:01:01Z</time>
   </trkpt>
   <trkpt lat="-3.1745020" lon="37.3601240">
    <ele>2683.4</ele>
    <time>2026-06-24T06:01:02Z</time>
   </trkpt>
   <trkpt lat="-3.1745100" lon="37.3601250">
    <ele>2683.2</ele>
    <time>2026-06-24T06:01:03Z</time>
   </trkpt>
   <trkpt lat="-3.1745110" lon="37.3601300">
    <ele>2683.1</ele>
    <time>2026-06-24T06:01:04Z</time>
   </trkpt>
   <trkpt lat="-3.1745110" lon="37.3601300">
    <ele>2683.1</ele>
    <time>2026-06-24T06:01:05Z</time>
   </trkpt>
   <trkpt lat="-3.1745100" lon="37.3601330">
    <ele>2683.0</ele>
    <time>2026-06-24T06:01:07Z</time>
   </trkpt>
   <trkpt lat="-3.1745100" lon="37.3601380">
    <ele>2682.9</ele>
    <time>2026-06-24T06:01:08Z</time>
   </trkpt>
   <trkpt lat="-3.1745160" lon="37.3601420">
    <ele>2682.8</ele>
    <time>2026-06-24T06:01:09Z</time>
   </trkpt>
   <trkpt lat="-3.1745190" lon="37.3601450">
    <ele>2682.7</ele>
    <time>2026-06-24T06:01:10Z</time>
   </trkpt>
   <trkpt lat="-3.1745250" lon="37.3601490">
    <ele>2682.5</ele>
    <time>2026-06-24T06:01:11Z</time>
   </trkpt>
   <trkpt lat="-3.1745300" lon="37.3601470">
    <ele>2682.4</ele>
    <time>2026-06-24T06:01:12Z</time>
   </trkpt>
   <trkpt lat="-3.1745320" lon="37.3601470">
    <ele>2682.4</ele>
    <time>2026-06-24T06:01:13Z</time>
   </trkpt>
   <trkpt lat="-3.1745340" lon="37.3601500">
    <ele>2682.3</ele>
    <time>2026-06-24T06:01:14Z</time>
   </trkpt>
   <trkpt lat="-3.1745350" lon="37.3601480">
    <ele>2682.2</ele>
    <time>2026-06-24T06:01:15Z</time>
   </trkpt>
   <trkpt lat="-3.1745340" lon="37.3601490">
    <ele>2682.2</ele>
    <time>2026-06-24T06:01:16Z</time>
   </trkpt>
   <trkpt lat="-3.1745350" lon="37.3601480">
    <ele>2682.2</ele>
    <time>2026-06-24T06:01:17Z</time>
   </trkpt>
   <trkpt lat="-3.1745380" lon="37.3601440">
    <ele>2682.1</ele>
    <time>2026-06-24T06:01:18Z</time>
   </trkpt>
   <trkpt lat="-3.1745380" lon="37.3601410">
    <ele>2682.0</ele>
    <time>2026-06-24T06:01:19Z</time>
   </trkpt>
   <trkpt lat="-3.1745380" lon="37.3601390">
    <ele>2682.0</ele>
    <time>2026-06-24T06:01:20Z</time>
   </trkpt>
   <trkpt lat="-3.1745380" lon="37.3601390">
    <ele>2682.0</ele>
    <time>2026-06-24T06:01:21Z</time>
   </trkpt>
   <trkpt lat="-3.1745380" lon="37.3601370">
    <ele>2681.9</ele>
    <time>2026-06-24T06:01:22Z</time>
   </trkpt>
   <trkpt lat="-3.1745380" lon="37.3601370">
    <ele>2681.9</ele>
    <time>2026-06-24T06:01:23Z</time>
   </trkpt>
   <trkpt lat="-3.1745400" lon="37.3601380">
    <ele>2681.9</ele>
    <time>2026-06-24T06:01:24Z</time>
   </trkpt>
   <trkpt lat="-3.1745480" lon="37.3601390">
    <ele>2681.7</ele>
    <time>2026-06-24T06:01:25Z</time>
   </trkpt>
   <trkpt lat="-3.1745560" lon="37.3601360">
    <ele>2681.5</ele>
    <time>2026-06-24T06:01:26Z</time>
   </trkpt>
   <trkpt lat="-3.1745690" lon="37.3601330">
    <ele>2681.2</ele>
    <time>2026-06-24T06:01:27Z</time>
   </trkpt>
   <trkpt lat="-3.1745780" lon="37.3601310">
    <ele>2681.0</ele>
    <time>2026-06-24T06:01:28Z</time>
   </trkpt>
   <trkpt lat="-3.1745770" lon="37.3601340">
    <ele>2681.0</ele>
    <time>2026-06-24T06:01:29Z</time>
   </trkpt>
   <trkpt lat="-3.1745860" lon="37.3601420">
    <ele>2680.7</ele>
    <time>2026-06-24T06:01:30Z</time>
   </trkpt>
   <trkpt lat="-3.1745940" lon="37.3601500">
    <ele>2680.5</ele>
    <time>2026-06-24T06:01:31Z</time>
   </trkpt>
   <trkpt lat="-3.1745930" lon="37.3601510">
    <ele>2680.5</ele>
    <time>2026-06-24T06:01:32Z</time>
   </trkpt>
   <trkpt lat="-3.1745920" lon="37.3601520">
    <ele>2680.4</ele>
    <time>2026-06-24T06:01:33Z</time>
   </trkpt>
   <trkpt lat="-3.1745950" lon="37.3601530">
    <ele>2680.4</ele>
    <time>2026-06-24T06:01:34Z</time>
   </trkpt>
   <trkpt lat="-3.1746020" lon="37.3601520">
    <ele>2680.2</ele>
    <time>2026-06-24T06:01:35Z</time>
   </trkpt>
   <trkpt lat="-3.1746070" lon="37.3601540">
    <ele>2680.1</ele>
    <time>2026-06-24T06:01:36Z</time>
   </trkpt>
   <trkpt lat="-3.1746150" lon="37.3601540">
    <ele>2680.0</ele>
    <time>2026-06-24T06:01:37Z</time>
   </trkpt>
   <trkpt lat="-3.1746190" lon="37.3601580">
    <ele>2679.9</ele>
    <time>2026-06-24T06:01:38Z</time>
   </trkpt>
   <trkpt lat="-3.1746250" lon="37.3601590">
    <ele>2679.7</ele>
    <time>2026-06-24T06:01:39Z</time>
   </trkpt>
   <trkpt lat="-3.1746320" lon="37.3601620">
    <ele>2679.6</ele>
    <time>2026-06-24T06:01:40Z</time>
   </trkpt>
   <trkpt lat="-3.1746340" lon="37.3601600">
    <ele>2679.5</ele>
    <time>2026-06-24T06:01:41Z</time>
   </trkpt>
   <trkpt lat="-3.1746380" lon="37.3601580">
    <ele>2679.5</ele>
    <time>2026-06-24T06:01:42Z</time>
   </trkpt>
   <trkpt lat="-3.1746390" lon="37.3601570">
    <ele>2679.4</ele>
    <time>2026-06-24T06:01:43Z</time>
   </trkpt>
   <trkpt lat="-3.1746430" lon="37.3601570">
    <ele>2679.4</ele>
    <time>2026-06-24T06:01:44Z</time>
   </trkpt>
   <trkpt lat="-3.1746480" lon="37.3601580">
    <ele>2679.3</ele>
    <time>2026-06-24T06:01:45Z</time>
   </trkpt>
   <trkpt lat="-3.1746510" lon="37.3601560">
    <ele>2679.2</ele>
    <time>2026-06-24T06:01:46Z</time>
   </trkpt>
   <trkpt lat="-3.1746540" lon="37.3601510">
    <ele>2679.1</ele>
    <time>2026-06-24T06:01:47Z</time>
   </trkpt>
   <trkpt lat="-3.1746630" lon="37.3601470">
    <ele>2678.9</ele>
    <time>2026-06-24T06:01:48Z</time>
   </trkpt>
   <trkpt lat="-3.1746710" lon="37.3601460">
    <ele>2678.8</ele>
    <time>2026-06-24T06:01:49Z</time>
   </trkpt>
   <trkpt lat="-3.1746780" lon="37.3601420">
    <ele>2678.6</ele>
    <time>2026-06-24T06:01:50Z</time>
   </trkpt>
   <trkpt lat="-3.1746830" lon="37.3601440">
    <ele>2678.5</ele>
    <time>2026-06-24T06:01:51Z</time>
   </trkpt>
   <trkpt lat="-3.1746890" lon="37.3601430">
    <ele>2678.4</ele>
    <time>2026-06-24T06:01:52Z</time>
   </trkpt>
   <trkpt lat="-3.1746940" lon="37.3601430">
    <ele>2678.3</ele>
    <time>2026-06-24T06:01:53Z</time>
   </trkpt>
   <trkpt lat="-3.1747020" lon="37.3601390">
    <ele>2678.2</ele>
    <time>2026-06-24T06:01:54Z</time>
   </trkpt>
   <trkpt lat="-3.1747110" lon="37.3601300">
    <ele>2677.9</ele>
    <time>2026-06-24T06:01:55Z</time>
   </trkpt>
   <trkpt lat="-3.1747190" lon="37.3601290">
    <ele>2677.8</ele>
    <time>2026-06-24T06:01:56Z</time>
   </trkpt>
   <trkpt lat="-3.1747250" lon="37.3601280">
    <ele>2677.7</ele>
    <time>2026-06-24T06:01:57Z</time>
   </trkpt>
   <trkpt lat="-3.1747290" lon="37.3601230">
    <ele>2677.6</ele>
    <time>2026-06-24T06:01:58Z</time>
   </trkpt>
   <trkpt lat="-3.1747360" lon="37.3601220">
    <ele>2677.4</ele>
    <time>2026-06-24T06:01:59Z</time>
   </trkpt>
   <trkpt lat="-3.1747400" lon="37.3601240">
    <ele>2677.4</ele>
    <time>2026-06-24T06:02:00Z</time>
   </trkpt>
   <trkpt lat="-3.1747400" lon="37.3601250">
    <ele>2677.3</ele>
    <time>2026-06-24T06:02:01Z</time>
   </trkpt>
   <trkpt lat="-3.1747410" lon="37.3601290">
    <ele>2677.3</ele>
    <time>2026-06-24T06:02:02Z</time>
   </trkpt>
   <trkpt lat="-3.1747380" lon="37.3601380">
    <ele>2677.1</ele>
    <time>2026-06-24T06:02:03Z</time>
   </trkpt>
   <trkpt lat="-3.1747440" lon="37.3601430">
    <ele>2676.9</ele>
    <time>2026-06-24T06:02:04Z</time>
   </trkpt>
   <trkpt lat="-3.1747550" lon="37.3601460">
    <ele>2676.7</ele>
    <time>2026-06-24T06:02:05Z</time>
   </trkpt>
   <trkpt lat="-3.1747570" lon="37.3601480">
    <ele>2676.7</ele>
    <time>2026-06-24T06:02:06Z</time>
   </trkpt>
   <trkpt lat="-3.1747590" lon="37.3601490">
    <ele>2676.6</ele>
    <time>2026-06-24T06:02:07Z</time>
   </trkpt>
   <trkpt lat="-3.1747560" lon="37.3601540">
    <ele>2676.5</ele>
    <time>2026-06-24T06:02:08Z</time>
   </trkpt>
   <trkpt lat="-3.1747600" lon="37.3601540">
    <ele>2676.5</ele>
    <time>2026-06-24T06:02:09Z</time>
   </trkpt>
   <trkpt lat="-3.1747670" lon="37.3601540">
    <ele>2676.3</ele>
    <time>2026-06-24T06:02:10Z</time>
   </trkpt>
   <trkpt lat="-3.1747770" lon="37.3601510">
    <ele>2676.1</ele>
    <time>2026-06-24T06:02:11Z</time>
   </trkpt>
   <trkpt lat="-3.1747810" lon="37.3601470">
    <ele>2676.0</ele>
    <time>2026-06-24T06:02:12Z</time>
   </trkpt>
   <trkpt lat="-3.1747850" lon="37.3601520">
    <ele>2675.9</ele>
    <time>2026-06-24T06:02:13Z</time>
   </trkpt>
   <trkpt lat="-3.1747930" lon="37.3601560">
    <ele>2675.8</ele>
    <time>2026-06-24T06:02:14Z</time>
   </trkpt>
   <trkpt lat="-3.1748000" lon="37.3601550">
    <ele>2675.6</ele>
    <time>2026-06-24T06:02:15Z</time>
   </trkpt>
   <trkpt lat="-3.1748060" lon="37.3601500">
    <ele>2675.5</ele>
    <time>2026-06-24T06:02:16Z</time>
   </trkpt>
   <trkpt lat="-3.1748070" lon="37.3601540">
    <ele>2675.4</ele>
    <time>2026-06-24T06:02:17Z</time>
   </trkpt>
   <trkpt lat="-3.1748140" lon="37.3601510">
    <ele>2675.3</ele>
    <time>2026-06-24T06:02:18Z</time>
   </trkpt>
   <trkpt lat="-3.1748240" lon="37.3601420">
    <ele>2675.0</ele>
    <time>2026-06-24T06:02:19Z</time>
   </trkpt>
   <trkpt lat="-3.1748340" lon="37.3601320">
    <ele>2674.8</ele>
    <time>2026-06-24T06:02:20Z</time>
   </trkpt>
   <trkpt lat="-3.1748320" lon="37.3601380">
    <ele>2674.7</ele>
    <time>2026-06-24T06:02:21Z</time>
   </trkpt>
   <trkpt lat="-3.1748360" lon="37.3601360">
    <ele>2674.6</ele>
    <time>2026-06-24T06:02:22Z</time>
   </trkpt>
   <trkpt lat="-3.1748390" lon="37.3601370">
    <ele>2674.5</ele>
    <time>2026-06-24T06:02:23Z</time>
   </trkpt>
   <trkpt lat="-3.1748470" lon="37.3601380">
    <ele>2674.4</ele>
    <time>2026-06-24T06:02:24Z</time>
   </trkpt>
   <trkpt lat="-3.1748530" lon="37.3601380">
    <ele>2674.2</ele>
    <time>2026-06-24T06:02:25Z</time>
   </trkpt>
   <trkpt lat="-3.1748580" lon="37.3601400">
    <ele>2674.1</ele>
    <time>2026-06-24T06:02:26Z</time>
   </trkpt>
   <trkpt lat="-3.1748630" lon="37.3601400">
    <ele>2674.0</ele>
    <time>2026-06-24T06:02:27Z</time>
   </trkpt>
   <trkpt lat="-3.1748600" lon="37.3601450">
    <ele>2673.9</ele>
    <time>2026-06-24T06:02:28Z</time>
   </trkpt>
   <trkpt lat="-3.1748590" lon="37.3601480">
    <ele>2673.9</ele>
    <time>2026-06-24T06:02:29Z</time>
   </trkpt>
   <trkpt lat="-3.1748580" lon="37.3601480">
    <ele>2673.8</ele>
    <time>2026-06-24T06:02:30Z</time>
   </trkpt>
   <trkpt lat="-3.1748560" lon="37.3601530">
    <ele>2673.7</ele>
    <time>2026-06-24T06:02:31Z</time>
   </trkpt>
   <trkpt lat="-3.1748580" lon="37.3601490">
    <ele>2673.7</ele>
    <time>2026-06-24T06:02:32Z</time>
   </trkpt>
   <trkpt lat="-3.1748660" lon="37.3601470">
    <ele>2673.5</ele>
    <time>2026-06-24T06:02:33Z</time>
   </trkpt>
   <trkpt lat="-3.1748810" lon="37.3601400">
    <ele>2673.2</ele>
    <time>2026-06-24T06:02:34Z</time>
   </trkpt>
   <trkpt lat="-3.1748830" lon="37.3601400">
    <ele>2673.1</ele>
    <time>2026-06-24T06:02:35Z</time>
   </trkpt>
   <trkpt lat="-3.1748920" lon="37.3601260">
    <ele>2672.8</ele>
    <time>2026-06-24T06:02:36Z</time>
   </trkpt>
   <trkpt lat="-3.1748960" lon="37.3601230">
    <ele>2672.7</ele>
    <time>2026-06-24T06:02:37Z</time>
   </trkpt>
   <trkpt lat="-3.1748970" lon="37.3601220">
    <ele>2672.7</ele>
    <time>2026-06-24T06:02:38Z</time>
   </trkpt>
   <trkpt lat="-3.1749050" lon="37.3601200">
    <ele>2672.5</ele>
    <time>2026-06-24T06:02:39Z</time>
   </trkpt>
   <trkpt lat="-3.1749140" lon="37.3601140">
    <ele>2672.3</ele>
    <time>2026-06-24T06:02:40Z</time>
   </trkpt>
   <trkpt lat="-3.1749210" lon="37.3601150">
    <ele>2672.2</ele>
    <time>2026-06-24T06:02:41Z</time>
   </trkpt>
   <trkpt lat="-3.1749260" lon="37.3601140">
    <ele>2672.1</ele>
    <time>2026-06-24T06:02:42Z</time>
   </trkpt>
   <trkpt lat="-3.1749270" lon="37.3601150">
    <ele>2672.1</ele>
    <time>2026-06-24T06:02:43Z</time>
   </trkpt>
   <trkpt lat="-3.1749300" lon="37.3601150">
    <ele>2672.0</ele>
    <time>2026-06-24T06:02:44Z</time>
   </trkpt>
   <trkpt lat="-3.1749300" lon="37.3601210">
    <ele>2671.9</ele>
    <time>2026-06-24T06:02:45Z</time>
   </trkpt>
   <trkpt lat="-3.1749320" lon="37.3601270">
    <ele>2671.8</ele>
    <time>2026-06-24T06:02:46Z</time>
   </trkpt>
   <trkpt lat="-3.1749340" lon="37.3601320">
    <ele>2671.7</ele>
    <time>2026-06-24T06:02:47Z</time>
   </trkpt>
   <trkpt lat="-3.1749370" lon="37.3601350">
    <ele>2671.6</ele>
    <time>2026-06-24T06:02:48Z</time>
   </trkpt>
   <trkpt lat="-3.1749430" lon="37.3601330">
    <ele>2671.5</ele>
    <time>2026-06-24T06:02:49Z</time>
   </trkpt>
   <trkpt lat="-3.1749460" lon="37.3601360">
    <ele>2671.4</ele>
    <time>2026-06-24T06:02:50Z</time>
   </trkpt>
   <trkpt lat="-3.1749510" lon="37.3601310">
    <ele>2671.3</ele>
    <time>2026-06-24T06:02:51Z</time>
   </trkpt>
   <trkpt lat="-3.1749550" lon="37.3601300">
    <ele>2671.2</ele>
    <time>2026-06-24T06:02:52Z</time>
   </trkpt>
   <trkpt lat="-3.1749640" lon="37.3601300">
    <ele>2671.0</ele>
    <time>2026-06-24T06:02:53Z</time>
   </trkpt>
   <trkpt lat="-3.1749630" lon="37.3601340">
    <ele>2670.9</ele>
    <time>2026-06-24T06:02:54Z</time>
   </trkpt>
   <trkpt lat="-3.1749640" lon="37.3601370">
    <ele>2670.9</ele>
    <time>2026-06-24T06:02:55Z</time>
   </trkpt>
   <trkpt lat="-3.1749680" lon="37.3601380">
    <ele>2670.8</ele>
    <time>2026-06-24T06:02:56Z</time>
   </trkpt>
   <trkpt lat="-3.1749750" lon="37.3601400">
    <ele>2670.6</ele>
    <time>2026-06-24T06:02:57Z</time>
   </trkpt>
   <trkpt lat="-3.1749840" lon="37.3601340">
    <ele>2670.4</ele>
    <time>2026-06-24T06:02:58Z</time>
   </trkpt>
   <trkpt lat="-3.1749920" lon="37.3601340">
    <ele>2670.3</ele>
    <time>2026-06-24T06:02:59Z</time>
   </trkpt>
   <trkpt lat="-3.1749920" lon="37.3601290">
    <ele>2670.2</ele>
    <time>2026-06-24T06:03:00Z</time>
   </trkpt>
   <trkpt lat="-3.1749990" lon="37.3601230">
    <ele>2670.0</ele>
    <time>2026-06-24T06:03:01Z</time>
   </trkpt>
   <trkpt lat="-3.1750060" lon="37.3601190">
    <ele>2669.9</ele>
    <time>2026-06-24T06:03:02Z</time>
   </trkpt>
   <trkpt lat="-3.1750170" lon="37.3601160">
    <ele>2669.6</ele>
    <time>2026-06-24T06:03:03Z</time>
   </trkpt>
   <trkpt lat="-3.1750270" lon="37.3601130">
    <ele>2669.4</ele>
    <time>2026-06-24T06:03:04Z</time>
   </trkpt>
   <trkpt lat="-3.1750310" lon="37.3601060">
    <ele>2669.3</ele>
    <time>2026-06-24T06:03:05Z</time>
   </trkpt>
   <trkpt lat="-3.1750300" lon="37.3601020">
    <ele>2669.2</ele>
    <time>2026-06-24T06:03:06Z</time>
   </trkpt>
   <trkpt lat="-3.1750380" lon="37.3600960">
    <ele>2669.0</ele>
    <time>2026-06-24T06:03:07Z</time>
   </trkpt>
   <trkpt lat="-3.1750430" lon="37.3600980">
    <ele>2668.9</ele>
    <time>2026-06-24T06:03:08Z</time>
   </trkpt>
   <trkpt lat="-3.1750490" lon="37.3600980">
    <ele>2668.8</ele>
    <time>2026-06-24T06:03:09Z</time>
   </trkpt>
   <trkpt lat="-3.1750550" lon="37.3600970">
    <ele>2668.7</ele>
    <time>2026-06-24T06:03:10Z</time>
   </trkpt>
   <trkpt lat="-3.1750630" lon="37.3600970">
    <ele>2668.5</ele>
    <time>2026-06-24T06:03:11Z</time>
   </trkpt>
   <trkpt lat="-3.1750680" lon="37.3600940">
    <ele>2668.4</ele>
    <time>2026-06-24T06:03:13Z</time>
   </trkpt>
   <trkpt lat="-3.1750800" lon="37.3600900">
    <ele>2668.2</ele>
    <time>2026-06-24T06:03:14Z</time>
   </trkpt>
   <trkpt lat="-3.1750860" lon="37.3600840">
    <ele>2668.0</ele>
    <time>2026-06-24T06:03:15Z</time>
   </trkpt>
   <trkpt lat="-3.1750880" lon="37.3600780">
    <ele>2667.9</ele>
    <time>2026-06-24T06:03:16Z</time>
   </trkpt>
   <trkpt lat="-3.1750930" lon="37.3600680">
    <ele>2667.7</ele>
    <time>2026-06-24T06:03:17Z</time>
   </trkpt>
   <trkpt lat="-3.1750970" lon="37.3600650">
    <ele>2667.6</ele>
    <time>2026-06-24T06:03:18Z</time>
   </trkpt>
   <trkpt lat="-3.1751020" lon="37.3600590">
    <ele>2667.5</ele>
    <time>2026-06-24T06:03:19Z</time>
   </trkpt>
   <trkpt lat="-3.1751100" lon="37.3600600">
    <ele>2667.3</ele>
    <time>2026-06-24T06:03:20Z</time>
   </trkpt>
   <trkpt lat="-3.1751130" lon="37.3600610">
    <ele>2667.2</ele>
    <time>2026-06-24T06:03:21Z</time>
   </trkpt>
   <trkpt lat="-3.1751190" lon="37.3600610">
    <ele>2667.1</ele>
    <time>2026-06-24T06:03:22Z</time>
   </trkpt>
   <trkpt lat="-3.1751280" lon="37.3600580">
    <ele>2667.0</ele>
    <time>2026-06-24T06:03:23Z</time>
   </trkpt>
   <trkpt lat="-3.1751340" lon="37.3600610">
    <ele>2666.8</ele>
    <time>2026-06-24T06:03:24Z</time>
   </trkpt>
   <trkpt lat="-3.1751380" lon="37.3600620">
    <ele>2666.7</ele>
    <time>2026-06-24T06:03:25Z</time>
   </trkpt>
   <trkpt lat="-3.1751460" lon="37.3600610">
    <ele>2666.6</ele>
    <time>2026-06-24T06:03:26Z</time>
   </trkpt>
   <trkpt lat="-3.1751520" lon="37.3600590">
    <ele>2666.5</ele>
    <time>2026-06-24T06:03:27Z</time>
   </trkpt>
   <trkpt lat="-3.1751570" lon="37.3600650">
    <ele>2666.3</ele>
    <time>2026-06-24T06:03:28Z</time>
   </trkpt>
   <trkpt lat="-3.1751630" lon="37.3600660">
    <ele>2666.2</ele>
    <time>2026-06-24T06:03:29Z</time>
   </trkpt>
   <trkpt lat="-3.1751750" lon="37.3600620">
    <ele>2666.0</ele>
    <time>2026-06-24T06:03:30Z</time>
   </trkpt>
   <trkpt lat="-3.1751800" lon="37.3600580">
    <ele>2665.9</ele>
    <time>2026-06-24T06:03:31Z</time>
   </trkpt>
   <trkpt lat="-3.1751860" lon="37.3600570">
    <ele>2665.7</ele>
    <time>2026-06-24T06:03:32Z</time>
   </trkpt>
   <trkpt lat="-3.1751930" lon="37.3600530">
    <ele>2665.6</ele>
    <time>2026-06-24T06:03:33Z</time>
   </trkpt>
   <trkpt lat="-3.1751970" lon="37.3600560">
    <ele>2665.5</ele>
    <time>2026-06-24T06:03:34Z</time>
   </trkpt>
   <trkpt lat="-3.1752090" lon="37.3600530">
    <ele>2665.3</ele>
    <time>2026-06-24T06:03:35Z</time>
   </trkpt>
   <trkpt lat="-3.1752130" lon="37.3600500">
    <ele>2665.2</ele>
    <time>2026-06-24T06:03:36Z</time>
   </trkpt>
   <trkpt lat="-3.1752190" lon="37.3600490">
    <ele>2665.0</ele>
    <time>2026-06-24T06:03:37Z</time>
   </trkpt>
   <trkpt lat="-3.1752230" lon="37.3600460">
    <ele>2665.0</ele>
    <time>2026-06-24T06:03:38Z</time>
   </trkpt>
   <trkpt lat="-3.1752290" lon="37.3600410">
    <ele>2664.8</ele>
    <time>2026-06-24T06:03:39Z</time>
   </trkpt>
   <trkpt lat="-3.1752340" lon="37.3600420">
    <ele>2664.7</ele>
    <time>2026-06-24T06:03:40Z</time>
   </trkpt>
   <trkpt lat="-3.1752380" lon="37.3600390">
    <ele>2664.6</ele>
    <time>2026-06-24T06:03:41Z</time>
   </trkpt>
   <trkpt lat="-3.1752450" lon="37.3600380">
    <ele>2664.5</ele>
    <time>2026-06-24T06:03:42Z</time>
   </trkpt>
   <trkpt lat="-3.1752510" lon="37.3600340">
    <ele>2664.3</ele>
    <time>2026-06-24T06:03:43Z</time>
   </trkpt>
   <trkpt lat="-3.1752560" lon="37.3600330">
    <ele>2664.3</ele>
    <time>2026-06-24T06:03:44Z</time>
   </trkpt>
   <trkpt lat="-3.1752690" lon="37.3600310">
    <ele>2664.0</ele>
    <time>2026-06-24T06:03:45Z</time>
   </trkpt>
   <trkpt lat="-3.1752760" lon="37.3600290">
    <ele>2663.9</ele>
    <time>2026-06-24T06:03:46Z</time>
   </trkpt>
   <trkpt lat="-3.1752790" lon="37.3600260">
    <ele>2663.8</ele>
    <time>2026-06-24T06:03:47Z</time>
   </trkpt>
   <trkpt lat="-3.1752810" lon="37.3600230">
    <ele>2663.7</ele>
    <time>2026-06-24T06:03:48Z</time>
   </trkpt>
   <trkpt lat="-3.1752880" lon="37.3600260">
    <ele>2663.6</ele>
    <time>2026-06-24T06:03:49Z</time>
   </trkpt>
   <trkpt lat="-3.1752830" lon="37.3600220">
    <ele>2663.5</ele>
    <time>2026-06-24T06:03:50Z</time>
   </trkpt>
   <trkpt lat="-3.1752940" lon="37.3600170">
    <ele>2663.3</ele>
    <time>2026-06-24T06:03:51Z</time>
   </trkpt>
   <trkpt lat="-3.1753010" lon="37.3600180">
    <ele>2663.1</ele>
    <time>2026-06-24T06:03:52Z</time>
   </trkpt>
   <trkpt lat="-3.1753060" lon="37.3600140">
    <ele>2663.0</ele>
    <time>2026-06-24T06:03:53Z</time>
   </trkpt>
   <trkpt lat="-3.1753240" lon="37.3600170">
    <ele>2662.7</ele>
    <time>2026-06-24T06:03:54Z</time>
   </trkpt>
   <trkpt lat="-3.1753330" lon="37.3600110">
    <ele>2662.5</ele>
    <time>2026-06-24T06:03:55Z</time>
   </trkpt>
   <trkpt lat="-3.1753410" lon="37.3600070">
    <ele>2662.3</ele>
    <time>2026-06-24T06:03:56Z</time>
   </trkpt>
   <trkpt lat="-3.1753490" lon="37.3600030">
    <ele>2662.2</ele>
    <time>2026-06-24T06:03:57Z</time>
   </trkpt>
   <trkpt lat="-3.1753540" lon="37.3599960">
    <ele>2662.0</ele>
    <time>2026-06-24T06:03:58Z</time>
   </trkpt>
   <trkpt lat="-3.1753640" lon="37.3599870">
    <ele>2661.8</ele>
    <time>2026-06-24T06:03:59Z</time>
   </trkpt>
   <trkpt lat="-3.1753710" lon="37.3599830">
    <ele>2661.7</ele>
    <time>2026-06-24T06:04:00Z</time>
   </trkpt>
   <trkpt lat="-3.1753780" lon="37.3599760">
    <ele>2661.5</ele>
    <time>2026-06-24T06:04:01Z</time>
   </trkpt>
   <trkpt lat="-3.1753840" lon="37.3599740">
    <ele>2661.4</ele>
    <time>2026-06-24T06:04:02Z</time>
   </trkpt>
   <trkpt lat="-3.1753900" lon="37.3599720">
    <ele>2661.3</ele>
    <time>2026-06-24T06:04:03Z</time>
   </trkpt>
   <trkpt lat="-3.1753960" lon="37.3599680">
    <ele>2661.2</ele>
    <time>2026-06-24T06:04:04Z</time>
   </trkpt>
   <trkpt lat="-3.1754080" lon="37.3599650">
    <ele>2661.0</ele>
    <time>2026-06-24T06:04:05Z</time>
   </trkpt>
   <trkpt lat="-3.1754190" lon="37.3599660">
    <ele>2660.8</ele>
    <time>2026-06-24T06:04:06Z</time>
   </trkpt>
   <trkpt lat="-3.1754300" lon="37.3599630">
    <ele>2660.6</ele>
    <time>2026-06-24T06:04:07Z</time>
   </trkpt>
   <trkpt lat="-3.1754430" lon="37.3599610">
    <ele>2660.4</ele>
    <time>2026-06-24T06:04:08Z</time>
   </trkpt>
   <trkpt lat="-3.1754510" lon="37.3599580">
    <ele>2660.3</ele>
    <time>2026-06-24T06:04:09Z</time>
   </trkpt>
   <trkpt lat="-3.1754590" lon="37.3599570">
    <ele>2660.2</ele>
    <time>2026-06-24T06:04:10Z</time>
   </trkpt>
   <trkpt lat="-3.1754600" lon="37.3599560">
    <ele>2660.2</ele>
    <time>2026-06-24T06:04:11Z</time>
   </trkpt>
   <trkpt lat="-3.1754640" lon="37.3599560">
    <ele>2660.1</ele>
    <time>2026-06-24T06:04:12Z</time>
   </trkpt>
   <trkpt lat="-3.1754720" lon="37.3599450">
    <ele>2659.9</ele>
    <time>2026-06-24T06:04:13Z</time>
   </trkpt>
   <trkpt lat="-3.1754780" lon="37.3599320">
    <ele>2659.7</ele>
    <time>2026-06-24T06:04:14Z</time>
   </trkpt>
   <trkpt lat="-3.1754820" lon="37.3599250">
    <ele>2659.6</ele>
    <time>2026-06-24T06:04:15Z</time>
   </trkpt>
   <trkpt lat="-3.1754880" lon="37.3599230">
    <ele>2659.6</ele>
    <time>2026-06-24T06:04:16Z</time>
   </trkpt>
   <trkpt lat="-3.1754940" lon="37.3599120">
    <ele>2659.4</ele>
    <time>2026-06-24T06:04:17Z</time>
   </trkpt>
   <trkpt lat="-3.1754950" lon="37.3599030">
    <ele>2659.3</ele>
    <time>2026-06-24T06:04:18Z</time>
   </trkpt>
   <trkpt lat="-3.1755000" lon="37.3598960">
    <ele>2659.2</ele>
    <time>2026-06-24T06:04:19Z</time>
   </trkpt>
   <trkpt lat="-3.1755050" lon="37.3598830">
    <ele>2659.0</ele>
    <time>2026-06-24T06:04:20Z</time>
   </trkpt>
   <trkpt lat="-3.1755100" lon="37.3598790">
    <ele>2658.9</ele>
    <time>2026-06-24T06:04:21Z</time>
   </trkpt>
   <trkpt lat="-3.1755130" lon="37.3598810">
    <ele>2658.9</ele>
    <time>2026-06-24T06:04:22Z</time>
   </trkpt>
   <trkpt lat="-3.1755180" lon="37.3598830">
    <ele>2658.8</ele>
    <time>2026-06-24T06:04:23Z</time>
   </trkpt>
   <trkpt lat="-3.1755260" lon="37.3598810">
    <ele>2658.7</ele>
    <time>2026-06-24T06:04:24Z</time>
   </trkpt>
   <trkpt lat="-3.1755350" lon="37.3598820">
    <ele>2658.6</ele>
    <time>2026-06-24T06:04:25Z</time>
   </trkpt>
   <trkpt lat="-3.1755470" lon="37.3598770">
    <ele>2658.5</ele>
    <time>2026-06-24T06:04:26Z</time>
   </trkpt>
   <trkpt lat="-3.1755600" lon="37.3598760">
    <ele>2658.3</ele>
    <time>2026-06-24T06:04:27Z</time>
   </trkpt>
   <trkpt lat="-3.1755730" lon="37.3598780">
    <ele>2658.2</ele>
    <time>2026-06-24T06:04:28Z</time>
   </trkpt>
   <trkpt lat="-3.1755760" lon="37.3598810">
    <ele>2658.2</ele>
    <time>2026-06-24T06:04:29Z</time>
   </trkpt>
   <trkpt lat="-3.1755810" lon="37.3598800">
    <ele>2658.1</ele>
    <time>2026-06-24T06:04:30Z</time>
   </trkpt>
   <trkpt lat="-3.1755870" lon="37.3598780">
    <ele>2658.1</ele>
    <time>2026-06-24T06:04:31Z</time>
   </trkpt>
   <trkpt lat="-3.1755950" lon="37.3598740">
    <ele>2658.0</ele>
    <time>2026-06-24T06:04:32Z</time>
   </trkpt>
   <trkpt lat="-3.1755980" lon="37.3598700">
    <ele>2657.9</ele>
    <time>2026-06-24T06:04:33Z</time>
   </trkpt>
   <trkpt lat="-3.1755980" lon="37.3598700">
    <ele>2657.9</ele>
    <time>2026-06-24T06:04:34Z</time>
   </trkpt>
   <trkpt lat="-3.1755990" lon="37.3598670">
    <ele>2657.9</ele>
    <time>2026-06-24T06:04:35Z</time>
   </trkpt>
   <trkpt lat="-3.1756080" lon="37.3598670">
    <ele>2657.8</ele>
    <time>2026-06-24T06:04:36Z</time>
   </trkpt>
   <trkpt lat="-3.1756210" lon="37.3598570">
    <ele>2657.6</ele>
    <time>2026-06-24T06:04:37Z</time>
   </trkpt>
   <trkpt lat="-3.1756190" lon="37.3598500">
    <ele>2657.6</ele>
    <time>2026-06-24T06:04:38Z</time>
   </trkpt>
   <trkpt lat="-3.1756270" lon="37.3598470">
    <ele>2657.5</ele>
    <time>2026-06-24T06:04:39Z</time>
   </trkpt>
   <trkpt lat="-3.1756390" lon="37.3598430">
    <ele>2657.4</ele>
    <time>2026-06-24T06:04:40Z</time>
   </trkpt>
   <trkpt lat="-3.1756490" lon="37.3598340">
    <ele>2657.3</ele>
    <time>2026-06-24T06:04:41Z</time>
   </trkpt>
   <trkpt lat="-3.1756570" lon="37.3598250">
    <ele>2657.2</ele>
    <time>2026-06-24T06:04:42Z</time>
   </trkpt>
   <trkpt lat="-3.1756710" lon="37.3598220">
    <ele>2657.0</ele>
    <time>2026-06-24T06:04:43Z</time>
   </trkpt>
   <trkpt lat="-3.1756800" lon="37.3598160">
    <ele>2657.0</ele>
    <time>2026-06-24T06:04:44Z</time>
   </trkpt>
   <trkpt lat="-3.1756890" lon="37.3598100">
    <ele>2656.9</ele>
    <time>2026-06-24T06:04:45Z</time>
   </trkpt>
   <trkpt lat="-3.1756920" lon="37.3598040">
    <ele>2656.8</ele>
    <time>2026-06-24T06:04:46Z</time>
   </trkpt>
   <trkpt lat="-3.1756910" lon="37.3598020">
    <ele>2656.8</ele>
    <time>2026-06-24T06:04:47Z</time>
   </trkpt>
   <trkpt lat="-3.1756900" lon="37.3598000">
    <ele>2656.8</ele>
    <time>2026-06-24T06:04:48Z</time>
   </trkpt>
   <trkpt lat="-3.1756910" lon="37.3597930">
    <ele>2656.7</ele>
    <time>2026-06-24T06:04:49Z</time>
   </trkpt>
   <trkpt lat="-3.1756850" lon="37.3597870">
    <ele>2656.7</ele>
    <time>2026-06-24T06:04:50Z</time>
   </trkpt>
   <trkpt lat="-3.1756850" lon="37.3597870">
    <ele>2656.7</ele>
    <time>2026-06-24T06:04:51Z</time>
   </trkpt>
   <trkpt lat="-3.1756890" lon="37.3597870">
    <ele>2656.6</ele>
    <time>2026-06-24T06:04:52Z</time>
   </trkpt>
   <trkpt lat="-3.1756880" lon="37.3597840">
    <ele>2656.6</ele>
    <time>2026-06-24T06:04:53Z</time>
   </trkpt>
   <trkpt lat="-3.1756860" lon="37.3597830">
    <ele>2656.6</ele>
    <time>2026-06-24T06:04:54Z</time>
   </trkpt>
   <trkpt lat="-3.1756880" lon="37.3597810">
    <ele>2656.6</ele>
    <time>2026-06-24T06:04:55Z</time>
   </trkpt>
   <trkpt lat="-3.1756900" lon="37.3597790">
    <ele>2656.6</ele>
    <time>2026-06-24T06:04:56Z</time>
   </trkpt>
   <trkpt lat="-3.1757040" lon="37.3597730">
    <ele>2656.5</ele>
    <time>2026-06-24T06:04:57Z</time>
   </trkpt>
   <trkpt lat="-3.1757150" lon="37.3597720">
    <ele>2656.4</ele>
    <time>2026-06-24T06:04:58Z</time>
   </trkpt>
   <trkpt lat="-3.1757270" lon="37.3597680">
    <ele>2656.3</ele>
    <time>2026-06-24T06:04:59Z</time>
   </trkpt>
   <trkpt lat="-3.1757350" lon="37.3597650">
    <ele>2656.3</ele>
    <time>2026-06-24T06:05:00Z</time>
   </trkpt>
   <trkpt lat="-3.1757480" lon="37.3597580">
    <ele>2656.2</ele>
    <time>2026-06-24T06:05:01Z</time>
   </trkpt>
   <trkpt lat="-3.1757610" lon="37.3597500">
    <ele>2656.1</ele>
    <time>2026-06-24T06:05:02Z</time>
   </trkpt>
   <trkpt lat="-3.1757690" lon="37.3597400">
    <ele>2656.1</ele>
    <time>2026-06-24T06:05:03Z</time>
   </trkpt>
   <trkpt lat="-3.1757810" lon="37.3597360">
    <ele>2656.0</ele>
    <time>2026-06-24T06:05:04Z</time>
   </trkpt>
   <trkpt lat="-3.1757970" lon="37.3597250">
    <ele>2656.0</ele>
    <time>2026-06-24T06:05:05Z</time>
   </trkpt>
   <trkpt lat="-3.1758040" lon="37.3597140">
    <ele>2655.9</ele>
    <time>2026-06-24T06:05:06Z</time>
   </trkpt>
   <trkpt lat="-3.1758130" lon="37.3597070">
    <ele>2655.9</ele>
    <time>2026-06-24T06:05:07Z</time>
   </trkpt>
   <trkpt lat="-3.1758210" lon="37.3597080">
    <ele>2655.9</ele>
    <time>2026-06-24T06:05:08Z</time>
   </trkpt>
   <trkpt lat="-3.1758340" lon="37.3596930">
    <ele>2655.8</ele>
    <time>2026-06-24T06:05:09Z</time>
   </trkpt>
   <trkpt lat="-3.1758360" lon="37.3596820">
    <ele>2655.8</ele>
    <time>2026-06-24T06:05:10Z</time>
   </trkpt>
   <trkpt lat="-3.1758450" lon="37.3596740">
    <ele>2655.8</ele>
    <time>2026-06-24T06:05:11Z</time>
   </trkpt>
   <trkpt lat="-3.1758510" lon="37.3596680">
    <ele>2655.8</ele>
    <time>2026-06-24T06:05:12Z</time>
   </trkpt>
   <trkpt lat="-3.1758590" lon="37.3596590">
    <ele>2655.7</ele>
    <time>2026-06-24T06:05:13Z</time>
   </trkpt>
   <trkpt lat="-3.1758670" lon="37.3596520">
    <ele>2655.7</ele>
    <time>2026-06-24T06:05:14Z</time>
   </trkpt>
   <trkpt lat="-3.1758680" lon="37.3596450">
    <ele>2655.7</ele>
    <time>2026-06-24T06:05:15Z</time>
   </trkpt>
   <trkpt lat="-3.1758670" lon="37.3596460">
    <ele>2655.7</ele>
    <time>2026-06-24T06:05:16Z</time>
   </trkpt>
   <trkpt lat="-3.1758710" lon="37.3596330">
    <ele>2655.7</ele>
    <time>2026-06-24T06:05:17Z</time>
   </trkpt>
   <trkpt lat="-3.1758750" lon="37.3596280">
    <ele>2655.7</ele>
    <time>2026-06-24T06:05:19Z</time>
   </trkpt>
   <trkpt lat="-3.1758760" lon="37.3596210">
    <ele>2655.7</ele>
    <time>2026-06-24T06:05:20Z</time>
   </trkpt>
   <trkpt lat="-3.1758830" lon="37.3596110">
    <ele>2655.7</ele>
    <time>2026-06-24T06:05:21Z</time>
   </trkpt>
   <trkpt lat="-3.1758870" lon="37.3596040">
    <ele>2655.7</ele>
    <time>2026-06-24T06:05:22Z</time>
   </trkpt>
   <trkpt lat="-3.1758950" lon="37.3595920">
    <ele>2655.6</ele>
    <time>2026-06-24T06:05:23Z</time>
   </trkpt>
   <trkpt lat="-3.1759040" lon="37.3595830">
    <ele>2655.6</ele>
    <time>2026-06-24T06:05:24Z</time>
   </trkpt>
   <trkpt lat="-3.1759100" lon="37.3595780">
    <ele>2655.6</ele>
    <time>2026-06-24T06:05:25Z</time>
   </trkpt>
   <trkpt lat="-3.1759210" lon="37.3595700">
    <ele>2655.6</ele>
    <time>2026-06-24T06:05:26Z</time>
   </trkpt>
   <trkpt lat="-3.1759330" lon="37.3595620">
    <ele>2655.6</ele>
    <time>2026-06-24T06:05:27Z</time>
   </trkpt>
   <trkpt lat="-3.1759450" lon="37.3595510">
    <ele>2655.6</ele>
    <time>2026-06-24T06:05:28Z</time>
   </trkpt>
   <trkpt lat="-3.1759540" lon="37.3595410">
    <ele>2655.5</ele>
    <time>2026-06-24T06:05:29Z</time>
   </trkpt>
   <trkpt lat="-3.1759660" lon="37.3595350">
    <ele>2655.5</ele>
    <time>2026-06-24T06:05:30Z</time>
   </trkpt>
   <trkpt lat="-3.1759760" lon="37.3595330">
    <ele>2655.5</ele>
    <time>2026-06-24T06:05:31Z</time>
   </trkpt>
   <trkpt lat="-3.1759880" lon="37.3595290">
    <ele>2655.5</ele>
    <time>2026-06-24T06:05:32Z</time>
   </trkpt>
   <trkpt lat="-3.1760000" lon="37.3595270">
    <ele>2655.5</ele>
    <time>2026-06-24T06:05:33Z</time>
   </trkpt>
   <trkpt lat="-3.1760100" lon="37.3595220">
    <ele>2655.5</ele>
    <time>2026-06-24T06:05:34Z</time>
   </trkpt>
   <trkpt lat="-3.1760190" lon="37.3595170">
    <ele>2655.5</ele>
    <time>2026-06-24T06:05:35Z</time>
   </trkpt>
   <trkpt lat="-3.1760340" lon="37.3595140">
    <ele>2655.4</ele>
    <time>2026-06-24T06:05:36Z</time>
   </trkpt>
   <trkpt lat="-3.1760400" lon="37.3595040">
    <ele>2655.4</ele>
    <time>2026-06-24T06:05:37Z</time>
   </trkpt>
   <trkpt lat="-3.1760480" lon="37.3594950">
    <ele>2655.4</ele>
    <time>2026-06-24T06:05:38Z</time>
   </trkpt>
   <trkpt lat="-3.1760520" lon="37.3594890">
    <ele>2655.4</ele>
    <time>2026-06-24T06:05:39Z</time>
   </trkpt>
   <trkpt lat="-3.1760610" lon="37.3594800">
    <ele>2655.4</ele>
    <time>2026-06-24T06:05:40Z</time>
   </trkpt>
   <trkpt lat="-3.1760690" lon="37.3594730">
    <ele>2655.4</ele>
    <time>2026-06-24T06:05:41Z</time>
   </trkpt>
   <trkpt lat="-3.1760720" lon="37.3594650">
    <ele>2655.4</ele>
    <time>2026-06-24T06:05:42Z</time>
   </trkpt>
   <trkpt lat="-3.1760780" lon="37.3594570">
    <ele>2655.3</ele>
    <time>2026-06-24T06:05:43Z</time>
   </trkpt>
   <trkpt lat="-3.1760850" lon="37.3594470">
    <ele>2655.3</ele>
    <time>2026-06-24T06:05:44Z</time>
   </trkpt>
   <trkpt lat="-3.1760920" lon="37.3594420">
    <ele>2655.3</ele>
    <time>2026-06-24T06:05:45Z</time>
   </trkpt>
   <trkpt lat="-3.1761010" lon="37.3594340">
    <ele>2655.3</ele>
    <time>2026-06-24T06:05:46Z</time>
   </trkpt>
   <trkpt lat="-3.1761090" lon="37.3594260">
    <ele>2655.3</ele>
    <time>2026-06-24T06:05:47Z</time>
   </trkpt>
   <trkpt lat="-3.1761170" lon="37.3594200">
    <ele>2655.2</ele>
    <time>2026-06-24T06:05:48Z</time>
   </trkpt>
   <trkpt lat="-3.1761270" lon="37.3594110">
    <ele>2655.2</ele>
    <time>2026-06-24T06:05:49Z</time>
   </trkpt>
   <trkpt lat="-3.1761330" lon="37.3594020">
    <ele>2655.2</ele>
    <time>2026-06-24T06:05:50Z</time>
   </trkpt>
   <trkpt lat="-3.1761400" lon="37.3593920">
    <ele>2655.2</ele>
    <time>2026-06-24T06:05:51Z</time>
   </trkpt>
   <trkpt lat="-3.1761440" lon="37.3593820">
    <ele>2655.1</ele>
    <time>2026-06-24T06:05:52Z</time>
   </trkpt>
   <trkpt lat="-3.1761530" lon="37.3593720">
    <ele>2655.1</ele>
    <time>2026-06-24T06:05:53Z</time>
   </trkpt>
   <trkpt lat="-3.1761600" lon="37.3593700">
    <ele>2655.1</ele>
    <time>2026-06-24T06:05:54Z</time>
   </trkpt>
   <trkpt lat="-3.1761630" lon="37.3593610">
    <ele>2655.1</ele>
    <time>2026-06-24T06:05:55Z</time>
   </trkpt>
   <trkpt lat="-3.1761670" lon="37.3593510">
    <ele>2655.1</ele>
    <time>2026-06-24T06:05:56Z</time>
   </trkpt>
   <trkpt lat="-3.1761720" lon="37.3593420">
    <ele>2655.1</ele>
    <time>2026-06-24T06:05:57Z</time>
   </trkpt>
   <trkpt lat="-3.1761750" lon="37.3593350">
    <ele>2655.0</ele>
    <time>2026-06-24T06:05:58Z</time>
   </trkpt>
   <trkpt lat="-3.1761830" lon="37.3593200">
    <ele>2655.0</ele>
    <time>2026-06-24T06:05:59Z</time>
   </trkpt>
   <trkpt lat="-3.1761870" lon="37.3593120">
    <ele>2655.0</ele>
    <time>2026-06-24T06:06:00Z</time>
   </trkpt>
   <trkpt lat="-3.1761900" lon="37.3593080">
    <ele>2655.0</ele>
    <time>2026-06-24T06:06:01Z</time>
   </trkpt>
   <trkpt lat="-3.1761940" lon="37.3593040">
    <ele>2655.0</ele>
    <time>2026-06-24T06:06:02Z</time>
   </trkpt>
   <trkpt lat="-3.1762050" lon="37.3592990">
    <ele>2655.0</ele>
    <time>2026-06-24T06:06:03Z</time>
   </trkpt>
   <trkpt lat="-3.1762090" lon="37.3592990">
    <ele>2654.9</ele>
    <time>2026-06-24T06:06:04Z</time>
   </trkpt>
   <trkpt lat="-3.1762110" lon="37.3593040">
    <ele>2654.9</ele>
    <time>2026-06-24T06:06:05Z</time>
   </trkpt>
   <trkpt lat="-3.1762150" lon="37.3593090">
    <ele>2654.9</ele>
    <time>2026-06-24T06:06:06Z</time>
   </trkpt>
   <trkpt lat="-3.1762250" lon="37.3593090">
    <ele>2654.9</ele>
    <time>2026-06-24T06:06:07Z</time>
   </trkpt>
   <trkpt lat="-3.1762340" lon="37.3593090">
    <ele>2654.9</ele>
    <time>2026-06-24T06:06:08Z</time>
   </trkpt>
   <trkpt lat="-3.1762350" lon="37.3593160">
    <ele>2654.9</ele>
    <time>2026-06-24T06:06:09Z</time>
   </trkpt>
   <trkpt lat="-3.1762400" lon="37.3593070">
    <ele>2654.9</ele>
    <time>2026-06-24T06:06:10Z</time>
   </trkpt>
   <trkpt lat="-3.1762510" lon="37.3593060">
    <ele>2654.8</ele>
    <time>2026-06-24T06:06:11Z</time>
   </trkpt>
   <trkpt lat="-3.1762560" lon="37.3593050">
    <ele>2654.8</ele>
    <time>2026-06-24T06:06:12Z</time>
   </trkpt>
   <trkpt lat="-3.1762550" lon="37.3593080">
    <ele>2654.8</ele>
    <time>2026-06-24T06:06:13Z</time>
   </trkpt>
   <trkpt lat="-3.1762610" lon="37.3593110">
    <ele>2654.8</ele>
    <time>2026-06-24T06:06:14Z</time>
   </trkpt>
   <trkpt lat="-3.1762700" lon="37.3593140">
    <ele>2654.8</ele>
    <time>2026-06-24T06:06:15Z</time>
   </trkpt>
   <trkpt lat="-3.1762770" lon="37.3593160">
    <ele>2654.8</ele>
    <time>2026-06-24T06:06:16Z</time>
   </trkpt>
   <trkpt lat="-3.1762860" lon="37.3593210">
    <ele>2654.8</ele>
    <time>2026-06-24T06:06:17Z</time>
   </trkpt>
   <trkpt lat="-3.1762930" lon="37.3593250">
    <ele>2654.8</ele>
    <time>2026-06-24T06:06:18Z</time>
   </trkpt>
   <trkpt lat="-3.1763030" lon="37.3593220">
    <ele>2654.7</ele>
    <time>2026-06-24T06:06:19Z</time>
   </trkpt>
   <trkpt lat="-3.1763190" lon="37.3593220">
    <ele>2654.7</ele>
    <time>2026-06-24T06:06:20Z</time>
   </trkpt>
   <trkpt lat="-3.1763330" lon="37.3593200">
    <ele>2654.7</ele>
    <time>2026-06-24T06:06:21Z</time>
   </trkpt>
   <trkpt lat="-3.1763450" lon="37.3593160">
    <ele>2654.7</ele>
    <time>2026-06-24T06:06:22Z</time>
   </trkpt>
   <trkpt lat="-3.1763480" lon="37.3593180">
    <ele>2654.7</ele>
    <time>2026-06-24T06:06:23Z</time>
   </trkpt>
   <trkpt lat="-3.1763600" lon="37.3593180">
    <ele>2654.7</ele>
    <time>2026-06-24T06:06:24Z</time>
   </trkpt>
   <trkpt lat="-3.1763680" lon="37.3593150">
    <ele>2654.6</ele>
    <time>2026-06-24T06:06:25Z</time>
   </trkpt>
   <trkpt lat="-3.1763770" lon="37.3593160">
    <ele>2654.6</ele>
    <time>2026-06-24T06:06:26Z</time>
   </trkpt>
   <trkpt lat="-3.1763920" lon="37.3593080">
    <ele>2654.6</ele>
    <time>2026-06-24T06:06:27Z</time>
   </trkpt>
   <trkpt lat="-3.1764020" lon="37.3593060">
    <ele>2654.6</ele>
    <time>2026-06-24T06:06:28Z</time>
   </trkpt>
   <trkpt lat="-3.1764080" lon="37.3593060">
    <ele>2654.6</ele>
    <time>2026-06-24T06:06:29Z</time>
   </trkpt>
   <trkpt lat="-3.1764160" lon="37.3593080">
    <ele>2654.5</ele>
    <time>2026-06-24T06:06:30Z</time>
   </trkpt>
   <trkpt lat="-3.1764260" lon="37.3593090">
    <ele>2654.5</ele>
    <time>2026-06-24T06:06:31Z</time>
   </trkpt>
   <trkpt lat="-3.1764350" lon="37.3593140">
    <ele>2654.5</ele>
    <time>2026-06-24T06:06:32Z</time>
   </trkpt>
   <trkpt lat="-3.1764480" lon="37.3593160">
    <ele>2654.4</ele>
    <time>2026-06-24T06:06:33Z</time>
   </trkpt>
   <trkpt lat="-3.1764470" lon="37.3593090">
    <ele>2654.4</ele>
    <time>2026-06-24T06:06:34Z</time>
   </trkpt>
   <trkpt lat="-3.1764630" lon="37.3593040">
    <ele>2654.3</ele>
    <time>2026-06-24T06:06:35Z</time>
   </trkpt>
   <trkpt lat="-3.1764730" lon="37.3593010">
    <ele>2654.3</ele>
    <time>2026-06-24T06:06:36Z</time>
   </trkpt>
   <trkpt lat="-3.1764810" lon="37.3592990">
    <ele>2654.2</ele>
    <time>2026-06-24T06:06:37Z</time>
   </trkpt>
   <trkpt lat="-3.1764800" lon="37.3593020">
    <ele>2654.2</ele>
    <time>2026-06-24T06:06:38Z</time>
   </trkpt>
   <trkpt lat="-3.1764830" lon="37.3593040">
    <ele>2654.2</ele>
    <time>2026-06-24T06:06:39Z</time>
   </trkpt>
   <trkpt lat="-3.1764960" lon="37.3593050">
    <ele>2654.2</ele>
    <time>2026-06-24T06:06:40Z</time>
   </trkpt>
   <trkpt lat="-3.1764980" lon="37.3593090">
    <ele>2654.1</ele>
    <time>2026-06-24T06:06:41Z</time>
   </trkpt>
   <trkpt lat="-3.1765130" lon="37.3593130">
    <ele>2654.0</ele>
    <time>2026-06-24T06:06:42Z</time>
   </trkpt>
   <trkpt lat="-3.1765120" lon="37.3593190">
    <ele>2654.0</ele>
    <time>2026-06-24T06:06:43Z</time>
   </trkpt>
   <trkpt lat="-3.1765120" lon="37.3593230">
    <ele>2653.9</ele>
    <time>2026-06-24T06:06:44Z</time>
   </trkpt>
   <trkpt lat="-3.1765170" lon="37.3593300">
    <ele>2653.9</ele>
    <time>2026-06-24T06:06:45Z</time>
   </trkpt>
   <trkpt lat="-3.1765180" lon="37.3593350">
    <ele>2653.8</ele>
    <time>2026-06-24T06:06:46Z</time>
   </trkpt>
   <trkpt lat="-3.1765230" lon="37.3593390">
    <ele>2653.8</ele>
    <time>2026-06-24T06:06:47Z</time>
   </trkpt>
   <trkpt lat="-3.1765290" lon="37.3593480">
    <ele>2653.7</ele>
    <time>2026-06-24T06:06:48Z</time>
   </trkpt>
   <trkpt lat="-3.1765310" lon="37.3593540">
    <ele>2653.7</ele>
    <time>2026-06-24T06:06:49Z</time>
   </trkpt>
   <trkpt lat="-3.1765320" lon="37.3593540">
    <ele>2653.7</ele>
    <time>2026-06-24T06:06:50Z</time>
   </trkpt>
   <trkpt lat="-3.1765290" lon="37.3593540">
    <ele>2653.6</ele>
    <time>2026-06-24T06:06:51Z</time>
   </trkpt>
   <trkpt lat="-3.1765290" lon="37.3593560">
    <ele>2653.6</ele>
    <time>2026-06-24T06:06:52Z</time>
   </trkpt>
   <trkpt lat="-3.1765350" lon="37.3593630">
    <ele>2653.5</ele>
    <time>2026-06-24T06:06:53Z</time>
   </trkpt>
   <trkpt lat="-3.1765350" lon="37.3593700">
    <ele>2653.5</ele>
    <time>2026-06-24T06:06:54Z</time>
   </trkpt>
   <trkpt lat="-3.1765330" lon="37.3593710">
    <ele>2653.4</ele>
    <time>2026-06-24T06:06:55Z</time>
   </trkpt>
   <trkpt lat="-3.1765370" lon="37.3593720">
    <ele>2653.4</ele>
    <time>2026-06-24T06:06:56Z</time>
   </trkpt>
   <trkpt lat="-3.1765480" lon="37.3593780">
    <ele>2653.3</ele>
    <time>2026-06-24T06:06:57Z</time>
   </trkpt>
   <trkpt lat="-3.1765480" lon="37.3593820">
    <ele>2653.2</ele>
    <time>2026-06-24T06:06:58Z</time>
   </trkpt>
   <trkpt lat="-3.1765580" lon="37.3593830">
    <ele>2653.1</ele>
    <time>2026-06-24T06:06:59Z</time>
   </trkpt>
   <trkpt lat="-3.1765600" lon="37.3593830">
    <ele>2653.1</ele>
    <time>2026-06-24T06:07:00Z</time>
   </trkpt>
   <trkpt lat="-3.1765680" lon="37.3593830">
    <ele>2653.0</ele>
    <time>2026-06-24T06:07:01Z</time>
   </trkpt>
   <trkpt lat="-3.1765790" lon="37.3593930">
    <ele>2652.9</ele>
    <time>2026-06-24T06:07:02Z</time>
   </trkpt>
   <trkpt lat="-3.1765910" lon="37.3593930">
    <ele>2652.7</ele>
    <time>2026-06-24T06:07:03Z</time>
   </trkpt>
   <trkpt lat="-3.1765970" lon="37.3594000">
    <ele>2652.6</ele>
    <time>2026-06-24T06:07:04Z</time>
   </trkpt>
   <trkpt lat="-3.1766060" lon="37.3594000">
    <ele>2652.5</ele>
    <time>2026-06-24T06:07:05Z</time>
   </trkpt>
   <trkpt lat="-3.1766120" lon="37.3594030">
    <ele>2652.4</ele>
    <time>2026-06-24T06:07:06Z</time>
   </trkpt>
   <trkpt lat="-3.1766150" lon="37.3594050">
    <ele>2652.4</ele>
    <time>2026-06-24T06:07:07Z</time>
   </trkpt>
   <trkpt lat="-3.1766270" lon="37.3594120">
    <ele>2652.2</ele>
    <time>2026-06-24T06:07:08Z</time>
   </trkpt>
   <trkpt lat="-3.1766300" lon="37.3594120">
    <ele>2652.2</ele>
    <time>2026-06-24T06:07:09Z</time>
   </trkpt>
   <trkpt lat="-3.1766320" lon="37.3594180">
    <ele>2652.1</ele>
    <time>2026-06-24T06:07:10Z</time>
   </trkpt>
   <trkpt lat="-3.1766410" lon="37.3594200">
    <ele>2652.0</ele>
    <time>2026-06-24T06:07:11Z</time>
   </trkpt>
   <trkpt lat="-3.1766480" lon="37.3594170">
    <ele>2651.9</ele>
    <time>2026-06-24T06:07:12Z</time>
   </trkpt>
   <trkpt lat="-3.1766490" lon="37.3594140">
    <ele>2651.8</ele>
    <time>2026-06-24T06:07:13Z</time>
   </trkpt>
   <trkpt lat="-3.1766580" lon="37.3594190">
    <ele>2651.7</ele>
    <time>2026-06-24T06:07:14Z</time>
   </trkpt>
   <trkpt lat="-3.1766690" lon="37.3594220">
    <ele>2651.5</ele>
    <time>2026-06-24T06:07:15Z</time>
   </trkpt>
   <trkpt lat="-3.1766740" lon="37.3594250">
    <ele>2651.5</ele>
    <time>2026-06-24T06:07:16Z</time>
   </trkpt>
   <trkpt lat="-3.1766740" lon="37.3594280">
    <ele>2651.4</ele>
    <time>2026-06-24T06:07:17Z</time>
   </trkpt>
   <trkpt lat="-3.1766840" lon="37.3594290">
    <ele>2651.3</ele>
    <time>2026-06-24T06:07:18Z</time>
   </trkpt>
   <trkpt lat="-3.1766890" lon="37.3594290">
    <ele>2651.2</ele>
    <time>2026-06-24T06:07:19Z</time>
   </trkpt>
   <trkpt lat="-3.1766960" lon="37.3594310">
    <ele>2651.1</ele>
    <time>2026-06-24T06:07:20Z</time>
   </trkpt>
   <trkpt lat="-3.1767080" lon="37.3594330">
    <ele>2651.0</ele>
    <time>2026-06-24T06:07:21Z</time>
   </trkpt>
   <trkpt lat="-3.1767210" lon="37.3594350">
    <ele>2650.8</ele>
    <time>2026-06-24T06:07:22Z</time>
   </trkpt>
   <trkpt lat="-3.1767290" lon="37.3594420">
    <ele>2650.6</ele>
    <time>2026-06-24T06:07:23Z</time>
   </trkpt>
   <trkpt lat="-3.1767380" lon="37.3594380">
    <ele>2650.5</ele>
    <time>2026-06-24T06:07:25Z</time>
   </trkpt>
   <trkpt lat="-3.1767430" lon="37.3594360">
    <ele>2650.4</ele>
    <time>2026-06-24T06:07:26Z</time>
   </trkpt>
   <trkpt lat="-3.1767480" lon="37.3594300">
    <ele>2650.3</ele>
    <time>2026-06-24T06:07:27Z</time>
   </trkpt>
   <trkpt lat="-3.1767530" lon="37.3594280">
    <ele>2650.3</ele>
    <time>2026-06-24T06:07:28Z</time>
   </trkpt>
   <trkpt lat="-3.1767590" lon="37.3594290">
    <ele>2650.2</ele>
    <time>2026-06-24T06:07:29Z</time>
   </trkpt>
   <trkpt lat="-3.1767740" lon="37.3594290">
    <ele>2650.0</ele>
    <time>2026-06-24T06:07:30Z</time>
   </trkpt>
   <trkpt lat="-3.1767850" lon="37.3594270">
    <ele>2649.8</ele>
    <time>2026-06-24T06:07:31Z</time>
   </trkpt>
   <trkpt lat="-3.1767970" lon="37.3594320">
    <ele>2649.6</ele>
    <time>2026-06-24T06:07:32Z</time>
   </trkpt>
   <trkpt lat="-3.1768080" lon="37.3594330">
    <ele>2649.5</ele>
    <time>2026-06-24T06:07:33Z</time>
   </trkpt>
   <trkpt lat="-3.1768220" lon="37.3594380">
    <ele>2649.3</ele>
    <time>2026-06-24T06:07:34Z</time>
   </trkpt>
   <trkpt lat="-3.1768280" lon="37.3594450">
    <ele>2649.1</ele>
    <time>2026-06-24T06:07:35Z</time>
   </trkpt>
   <trkpt lat="-3.1768330" lon="37.3594510">
    <ele>2649.0</ele>
    <time>2026-06-24T06:07:36Z</time>
   </trkpt>
   <trkpt lat="-3.1768410" lon="37.3594500">
    <ele>2648.9</ele>
    <time>2026-06-24T06:07:37Z</time>
   </trkpt>
   <trkpt lat="-3.1768560" lon="37.3594490">
    <ele>2648.7</ele>
    <time>2026-06-24T06:07:38Z</time>
   </trkpt>
   <trkpt lat="-3.1768640" lon="37.3594470">
    <ele>2648.6</ele>
    <time>2026-06-24T06:07:39Z</time>
   </trkpt>
   <trkpt lat="-3.1768760" lon="37.3594470">
    <ele>2648.4</ele>
    <time>2026-06-24T06:07:40Z</time>
   </trkpt>
   <trkpt lat="-3.1768830" lon="37.3594500">
    <ele>2648.3</ele>
    <time>2026-06-24T06:07:41Z</time>
   </trkpt>
   <trkpt lat="-3.1768960" lon="37.3594520">
    <ele>2648.1</ele>
    <time>2026-06-24T06:07:42Z</time>
   </trkpt>
   <trkpt lat="-3.1769070" lon="37.3594540">
    <ele>2647.9</ele>
    <time>2026-06-24T06:07:43Z</time>
   </trkpt>
   <trkpt lat="-3.1769230" lon="37.3594540">
    <ele>2647.7</ele>
    <time>2026-06-24T06:07:44Z</time>
   </trkpt>
   <trkpt lat="-3.1769360" lon="37.3594510">
    <ele>2647.5</ele>
    <time>2026-06-24T06:07:45Z</time>
   </trkpt>
   <trkpt lat="-3.1769510" lon="37.3594450">
    <ele>2647.3</ele>
    <time>2026-06-24T06:07:46Z</time>
   </trkpt>
   <trkpt lat="-3.1769620" lon="37.3594420">
    <ele>2647.1</ele>
    <time>2026-06-24T06:07:47Z</time>
   </trkpt>
   <trkpt lat="-3.1769640" lon="37.3594430">
    <ele>2647.1</ele>
    <time>2026-06-24T06:07:48Z</time>
   </trkpt>
   <trkpt lat="-3.1769750" lon="37.3594400">
    <ele>2646.9</ele>
    <time>2026-06-24T06:07:49Z</time>
   </trkpt>
   <trkpt lat="-3.1769890" lon="37.3594370">
    <ele>2646.7</ele>
    <time>2026-06-24T06:07:50Z</time>
   </trkpt>
   <trkpt lat="-3.1770020" lon="37.3594300">
    <ele>2646.5</ele>
    <time>2026-06-24T06:07:51Z</time>
   </trkpt>
   <trkpt lat="-3.1770130" lon="37.3594270">
    <ele>2646.3</ele>
    <time>2026-06-24T06:07:52Z</time>
   </trkpt>
   <trkpt lat="-3.1770220" lon="37.3594240">
    <ele>2646.2</ele>
    <time>2026-06-24T06:07:53Z</time>
   </trkpt>
   <trkpt lat="-3.1770320" lon="37.3594190">
    <ele>2646.0</ele>
    <time>2026-06-24T06:07:54Z</time>
   </trkpt>
   <trkpt lat="-3.1770400" lon="37.3594170">
    <ele>2645.9</ele>
    <time>2026-06-24T06:07:55Z</time>
   </trkpt>
   <trkpt lat="-3.1770470" lon="37.3594180">
    <ele>2645.8</ele>
    <time>2026-06-24T06:07:56Z</time>
   </trkpt>
   <trkpt lat="-3.1770600" lon="37.3594140">
    <ele>2645.6</ele>
    <time>2026-06-24T06:07:57Z</time>
   </trkpt>
   <trkpt lat="-3.1770690" lon="37.3594120">
    <ele>2645.5</ele>
    <time>2026-06-24T06:07:58Z</time>
   </trkpt>
   <trkpt lat="-3.1770840" lon="37.3594070">
    <ele>2645.2</ele>
    <time>2026-06-24T06:07:59Z</time>
   </trkpt>
   <trkpt lat="-3.1770910" lon="37.3594060">
    <ele>2645.1</ele>
    <time>2026-06-24T06:08:00Z</time>
   </trkpt>
   <trkpt lat="-3.1771000" lon="37.3594040">
    <ele>2645.0</ele>
    <time>2026-06-24T06:08:01Z</time>
   </trkpt>
   <trkpt lat="-3.1771110" lon="37.3594020">
    <ele>2644.8</ele>
    <time>2026-06-24T06:08:02Z</time>
   </trkpt>
   <trkpt lat="-3.1771250" lon="37.3593980">
    <ele>2644.6</ele>
    <time>2026-06-24T06:08:03Z</time>
   </trkpt>
   <trkpt lat="-3.1771300" lon="37.3593970">
    <ele>2644.6</ele>
    <time>2026-06-24T06:08:04Z</time>
   </trkpt>
   <trkpt lat="-3.1771370" lon="37.3593960">
    <ele>2644.5</ele>
    <time>2026-06-24T06:08:05Z</time>
   </trkpt>
   <trkpt lat="-3.1771500" lon="37.3593920">
    <ele>2644.3</ele>
    <time>2026-06-24T06:08:06Z</time>
   </trkpt>
   <trkpt lat="-3.1771650" lon="37.3593820">
    <ele>2644.0</ele>
    <time>2026-06-24T06:08:07Z</time>
   </trkpt>
   <trkpt lat="-3.1771740" lon="37.3593830">
    <ele>2643.9</ele>
    <time>2026-06-24T06:08:08Z</time>
   </trkpt>
   <trkpt lat="-3.1771840" lon="37.3593830">
    <ele>2643.8</ele>
    <time>2026-06-24T06:08:09Z</time>
   </trkpt>
   <trkpt lat="-3.1771900" lon="37.3593850">
    <ele>2643.7</ele>
    <time>2026-06-24T06:08:10Z</time>
   </trkpt>
   <trkpt lat="-3.1772010" lon="37.3593800">
    <ele>2643.5</ele>
    <time>2026-06-24T06:08:11Z</time>
   </trkpt>
   <trkpt lat="-3.1772030" lon="37.3593830">
    <ele>2643.5</ele>
    <time>2026-06-24T06:08:12Z</time>
   </trkpt>
   <trkpt lat="-3.1772090" lon="37.3593860">
    <ele>2643.4</ele>
    <time>2026-06-24T06:08:13Z</time>
   </trkpt>
   <trkpt lat="-3.1772100" lon="37.3593850">
    <ele>2643.4</ele>
    <time>2026-06-24T06:08:14Z</time>
   </trkpt>
   <trkpt lat="-3.1772200" lon="37.3593840">
    <ele>2643.2</ele>
    <time>2026-06-24T06:08:15Z</time>
   </trkpt>
   <trkpt lat="-3.1772290" lon="37.3593890">
    <ele>2643.1</ele>
    <time>2026-06-24T06:08:16Z</time>
   </trkpt>
   <trkpt lat="-3.1772360" lon="37.3593890">
    <ele>2643.0</ele>
    <time>2026-06-24T06:08:17Z</time>
   </trkpt>
   <trkpt lat="-3.1772460" lon="37.3593870">
    <ele>2642.9</ele>
    <time>2026-06-24T06:08:18Z</time>
   </trkpt>
   <trkpt lat="-3.1772560" lon="37.3593880">
    <ele>2642.8</ele>
    <time>2026-06-24T06:08:19Z</time>
   </trkpt>
   <trkpt lat="-3.1772700" lon="37.3593870">
    <ele>2642.6</ele>
    <time>2026-06-24T06:08:20Z</time>
   </trkpt>
   <trkpt lat="-3.1772830" lon="37.3593820">
    <ele>2642.4</ele>
    <time>2026-06-24T06:08:21Z</time>
   </trkpt>
   <trkpt lat="-3.1772890" lon="37.3593790">
    <ele>2642.4</ele>
    <time>2026-06-24T06:08:22Z</time>
   </trkpt>
   <trkpt lat="-3.1772990" lon="37.3593780">
    <ele>2642.3</ele>
    <time>2026-06-24T06:08:23Z</time>
   </trkpt>
   <trkpt lat="-3.1773050" lon="37.3593740">
    <ele>2642.2</ele>
    <time>2026-06-24T06:08:24Z</time>
   </trkpt>
   <trkpt lat="-3.1773080" lon="37.3593660">
    <ele>2642.1</ele>
    <time>2026-06-24T06:08:25Z</time>
   </trkpt>
   <trkpt lat="-3.1773150" lon="37.3593580">
    <ele>2642.0</ele>
    <time>2026-06-24T06:08:26Z</time>
   </trkpt>
   <trkpt lat="-3.1773200" lon="37.3593530">
    <ele>2641.9</ele>
    <time>2026-06-24T06:08:27Z</time>
   </trkpt>
   <trkpt lat="-3.1773270" lon="37.3593420">
    <ele>2641.7</ele>
    <time>2026-06-24T06:08:28Z</time>
   </trkpt>
   <trkpt lat="-3.1773340" lon="37.3593300">
    <ele>2641.6</ele>
    <time>2026-06-24T06:08:29Z</time>
   </trkpt>
   <trkpt lat="-3.1773370" lon="37.3593210">
    <ele>2641.5</ele>
    <time>2026-06-24T06:08:30Z</time>
   </trkpt>
   <trkpt lat="-3.1773450" lon="37.3593110">
    <ele>2641.4</ele>
    <time>2026-06-24T06:08:31Z</time>
   </trkpt>
   <trkpt lat="-3.1773520" lon="37.3592990">
    <ele>2641.3</ele>
    <time>2026-06-24T06:08:32Z</time>
   </trkpt>
   <trkpt lat="-3.1773530" lon="37.3592960">
    <ele>2641.2</ele>
    <time>2026-06-24T06:08:33Z</time>
   </trkpt>
   <trkpt lat="-3.1773580" lon="37.3592950">
    <ele>2641.2</ele>
    <time>2026-06-24T06:08:34Z</time>
   </trkpt>
   <trkpt lat="-3.1773640" lon="37.3592950">
    <ele>2641.1</ele>
    <time>2026-06-24T06:08:35Z</time>
   </trkpt>
   <trkpt lat="-3.1773700" lon="37.3592940">
    <ele>2641.1</ele>
    <time>2026-06-24T06:08:36Z</time>
   </trkpt>
   <trkpt lat="-3.1773780" lon="37.3592890">
    <ele>2641.0</ele>
    <time>2026-06-24T06:08:37Z</time>
   </trkpt>
   <trkpt lat="-3.1773830" lon="37.3592910">
    <ele>2641.0</ele>
    <time>2026-06-24T06:08:38Z</time>
   </trkpt>
   <trkpt lat="-3.1773890" lon="37.3592890">
    <ele>2640.9</ele>
    <time>2026-06-24T06:08:39Z</time>
   </trkpt>
   <trkpt lat="-3.1774010" lon="37.3592890">
    <ele>2640.8</ele>
    <time>2026-06-24T06:08:40Z</time>
   </trkpt>
   <trkpt lat="-3.1774110" lon="37.3592880">
    <ele>2640.8</ele>
    <time>2026-06-24T06:08:41Z</time>
   </trkpt>
   <trkpt lat="-3.1774220" lon="37.3592870">
    <ele>2640.7</ele>
    <time>2026-06-24T06:08:42Z</time>
   </trkpt>
   <trkpt lat="-3.1774250" lon="37.3592930">
    <ele>2640.6</ele>
    <time>2026-06-24T06:08:43Z</time>
   </trkpt>
   <trkpt lat="-3.1774410" lon="37.3592990">
    <ele>2640.5</ele>
    <time>2026-06-24T06:08:44Z</time>
   </trkpt>
   <trkpt lat="-3.1774560" lon="37.3593030">
    <ele>2640.4</ele>
    <time>2026-06-24T06:08:45Z</time>
   </trkpt>
   <trkpt lat="-3.1774660" lon="37.3593030">
    <ele>2640.3</ele>
    <time>2026-06-24T06:08:46Z</time>
   </trkpt>
   <trkpt lat="-3.1774800" lon="37.3592950">
    <ele>2640.3</ele>
    <time>2026-06-24T06:08:47Z</time>
   </trkpt>
   <trkpt lat="-3.1774890" lon="37.3592920">
    <ele>2640.2</ele>
    <time>2026-06-24T06:08:48Z</time>
   </trkpt>
   <trkpt lat="-3.1775070" lon="37.3592880">
    <ele>2640.1</ele>
    <time>2026-06-24T06:08:49Z</time>
   </trkpt>
   <trkpt lat="-3.1775160" lon="37.3592830">
    <ele>2640.1</ele>
    <time>2026-06-24T06:08:50Z</time>
   </trkpt>
   <trkpt lat="-3.1775340" lon="37.3592770">
    <ele>2640.0</ele>
    <time>2026-06-24T06:08:51Z</time>
   </trkpt>
   <trkpt lat="-3.1775450" lon="37.3592710">
    <ele>2639.9</ele>
    <time>2026-06-24T06:08:52Z</time>
   </trkpt>
   <trkpt lat="-3.1775530" lon="37.3592630">
    <ele>2639.9</ele>
    <time>2026-06-24T06:08:53Z</time>
   </trkpt>
   <trkpt lat="-3.1775630" lon="37.3592590">
    <ele>2639.9</ele>
    <time>2026-06-24T06:08:54Z</time>
   </trkpt>
   <trkpt lat="-3.1775720" lon="37.3592600">
    <ele>2639.8</ele>
    <time>2026-06-24T06:08:55Z</time>
   </trkpt>
   <trkpt lat="-3.1775810" lon="37.3592580">
    <ele>2639.8</ele>
    <time>2026-06-24T06:08:56Z</time>
   </trkpt>
   <trkpt lat="-3.1775900" lon="37.3592540">
    <ele>2639.8</ele>
    <time>2026-06-24T06:08:57Z</time>
   </trkpt>
   <trkpt lat="-3.1775910" lon="37.3592580">
    <ele>2639.8</ele>
    <time>2026-06-24T06:08:58Z</time>
   </trkpt>
   <trkpt lat="-3.1775970" lon="37.3592570">
    <ele>2639.7</ele>
    <time>2026-06-24T06:08:59Z</time>
   </trkpt>
   <trkpt lat="-3.1776120" lon="37.3592520">
    <ele>2639.7</ele>
    <time>2026-06-24T06:09:00Z</time>
   </trkpt>
   <trkpt lat="-3.1776200" lon="37.3592530">
    <ele>2639.7</ele>
    <time>2026-06-24T06:09:01Z</time>
   </trkpt>
   <trkpt lat="-3.1776290" lon="37.3592530">
    <ele>2639.7</ele>
    <time>2026-06-24T06:09:02Z</time>
   </trkpt>
   <trkpt lat="-3.1776370" lon="37.3592540">
    <ele>2639.7</ele>
    <time>2026-06-24T06:09:03Z</time>
   </trkpt>
   <trkpt lat="-3.1776450" lon="37.3592520">
    <ele>2639.6</ele>
    <time>2026-06-24T06:09:04Z</time>
   </trkpt>
   <trkpt lat="-3.1776540" lon="37.3592540">
    <ele>2639.6</ele>
    <time>2026-06-24T06:09:05Z</time>
   </trkpt>
   <trkpt lat="-3.1776550" lon="37.3592540">
    <ele>2639.6</ele>
    <time>2026-06-24T06:09:06Z</time>
   </trkpt>
   <trkpt lat="-3.1776690" lon="37.3592480">
    <ele>2639.6</ele>
    <time>2026-06-24T06:09:07Z</time>
   </trkpt>
   <trkpt lat="-3.1776790" lon="37.3592400">
    <ele>2639.6</ele>
    <time>2026-06-24T06:09:08Z</time>
   </trkpt>
   <trkpt lat="-3.1776930" lon="37.3592310">
    <ele>2639.6</ele>
    <time>2026-06-24T06:09:09Z</time>
   </trkpt>
   <trkpt lat="-3.1777050" lon="37.3592290">
    <ele>2639.5</ele>
    <time>2026-06-24T06:09:10Z</time>
   </trkpt>
   <trkpt lat="-3.1777170" lon="37.3592260">
    <ele>2639.5</ele>
    <time>2026-06-24T06:09:11Z</time>
   </trkpt>
   <trkpt lat="-3.1777280" lon="37.3592210">
    <ele>2639.5</ele>
    <time>2026-06-24T06:09:12Z</time>
   </trkpt>
   <trkpt lat="-3.1777280" lon="37.3592140">
    <ele>2639.5</ele>
    <time>2026-06-24T06:09:13Z</time>
   </trkpt>
   <trkpt lat="-3.1777320" lon="37.3592100">
    <ele>2639.5</ele>
    <time>2026-06-24T06:09:14Z</time>
   </trkpt>
   <trkpt lat="-3.1777350" lon="37.3591990">
    <ele>2639.5</ele>
    <time>2026-06-24T06:09:15Z</time>
   </trkpt>
   <trkpt lat="-3.1777330" lon="37.3591920">
    <ele>2639.5</ele>
    <time>2026-06-24T06:09:16Z</time>
   </trkpt>
   <trkpt lat="-3.1777330" lon="37.3591890">
    <ele>2639.5</ele>
    <time>2026-06-24T06:09:17Z</time>
   </trkpt>
   <trkpt lat="-3.1777350" lon="37.3591850">
    <ele>2639.4</ele>
    <time>2026-06-24T06:09:18Z</time>
   </trkpt>
   <trkpt lat="-3.1777400" lon="37.3591810">
    <ele>2639.4</ele>
    <time>2026-06-24T06:09:19Z</time>
   </trkpt>
   <trkpt lat="-3.1777460" lon="37.3591780">
    <ele>2639.4</ele>
    <time>2026-06-24T06:09:20Z</time>
   </trkpt>
   <trkpt lat="-3.1777490" lon="37.3591740">
    <ele>2639.4</ele>
    <time>2026-06-24T06:09:21Z</time>
   </trkpt>
   <trkpt lat="-3.1777590" lon="37.3591770">
    <ele>2639.4</ele>
    <time>2026-06-24T06:09:22Z</time>
   </trkpt>
   <trkpt lat="-3.1777650" lon="37.3591750">
    <ele>2639.4</ele>
    <time>2026-06-24T06:09:23Z</time>
   </trkpt>
   <trkpt lat="-3.1777680" lon="37.3591740">
    <ele>2639.4</ele>
    <time>2026-06-24T06:09:24Z</time>
   </trkpt>
   <trkpt lat="-3.1777720" lon="37.3591700">
    <ele>2639.4</ele>
    <time>2026-06-24T06:09:25Z</time>
   </trkpt>
   <trkpt lat="-3.1777830" lon="37.3591650">
    <ele>2639.3</ele>
    <time>2026-06-24T06:09:26Z</time>
   </trkpt>
   <trkpt lat="-3.1777870" lon="37.3591600">
    <ele>2639.3</ele>
    <time>2026-06-24T06:09:27Z</time>
   </trkpt>
   <trkpt lat="-3.1777920" lon="37.3591560">
    <ele>2639.3</ele>
    <time>2026-06-24T06:09:28Z</time>
   </trkpt>
   <trkpt lat="-3.1777940" lon="37.3591540">
    <ele>2639.3</ele>
    <time>2026-06-24T06:09:29Z</time>
   </trkpt>
   <trkpt lat="-3.1777990" lon="37.3591490">
    <ele>2639.3</ele>
    <time>2026-06-24T06:09:31Z</time>
   </trkpt>
   <trkpt lat="-3.1778030" lon="37.3591380">
    <ele>2639.2</ele>
    <time>2026-06-24T06:09:32Z</time>
   </trkpt>
   <trkpt lat="-3.1778050" lon="37.3591310">
    <ele>2639.2</ele>
    <time>2026-06-24T06:09:33Z</time>
   </trkpt>
   <trkpt lat="-3.1778100" lon="37.3591210">
    <ele>2639.2</ele>
    <time>2026-06-24T06:09:34Z</time>
   </trkpt>
   <trkpt lat="-3.1778150" lon="37.3591150">
    <ele>2639.1</ele>
    <time>2026-06-24T06:09:35Z</time>
   </trkpt>
   <trkpt lat="-3.1778180" lon="37.3591060">
    <ele>2639.1</ele>
    <time>2026-06-24T06:09:36Z</time>
   </trkpt>
   <trkpt lat="-3.1778190" lon="37.3591050">
    <ele>2639.1</ele>
    <time>2026-06-24T06:09:37Z</time>
   </trkpt>
   <trkpt lat="-3.1778190" lon="37.3591030">
    <ele>2639.1</ele>
    <time>2026-06-24T06:09:38Z</time>
   </trkpt>
   <trkpt lat="-3.1778230" lon="37.3590970">
    <ele>2639.1</ele>
    <time>2026-06-24T06:09:39Z</time>
   </trkpt>
   <trkpt lat="-3.1778280" lon="37.3590940">
    <ele>2639.0</ele>
    <time>2026-06-24T06:09:40Z</time>
   </trkpt>
   <trkpt lat="-3.1778340" lon="37.3590880">
    <ele>2639.0</ele>
    <time>2026-06-24T06:09:41Z</time>
   </trkpt>
   <trkpt lat="-3.1778490" lon="37.3590750">
    <ele>2638.9</ele>
    <time>2026-06-24T06:09:42Z</time>
   </trkpt>
   <trkpt lat="-3.1778530" lon="37.3590700">
    <ele>2638.9</ele>
    <time>2026-06-24T06:09:43Z</time>
   </trkpt>
   <trkpt lat="-3.1778620" lon="37.3590680">
    <ele>2638.8</ele>
    <time>2026-06-24T06:09:44Z</time>
   </trkpt>
   <trkpt lat="-3.1778660" lon="37.3590680">
    <ele>2638.8</ele>
    <time>2026-06-24T06:09:45Z</time>
   </trkpt>
   <trkpt lat="-3.1778670" lon="37.3590820">
    <ele>2638.7</ele>
    <time>2026-06-24T06:09:46Z</time>
   </trkpt>
   <trkpt lat="-3.1778690" lon="37.3590880">
    <ele>2638.7</ele>
    <time>2026-06-24T06:09:47Z</time>
   </trkpt>
   <trkpt lat="-3.1778750" lon="37.3590890">
    <ele>2638.7</ele>
    <time>2026-06-24T06:09:48Z</time>
   </trkpt>
   <trkpt lat="-3.1778840" lon="37.3590880">
    <ele>2638.6</ele>
    <time>2026-06-24T06:09:49Z</time>
   </trkpt>
   <trkpt lat="-3.1778920" lon="37.3590890">
    <ele>2638.5</ele>
    <time>2026-06-24T06:09:50Z</time>
   </trkpt>
   <trkpt lat="-3.1779040" lon="37.3590840">
    <ele>2638.5</ele>
    <time>2026-06-24T06:09:51Z</time>
   </trkpt>
   <trkpt lat="-3.1779140" lon="37.3590810">
    <ele>2638.4</ele>
    <time>2026-06-24T06:09:52Z</time>
   </trkpt>
   <trkpt lat="-3.1779250" lon="37.3590800">
    <ele>2638.3</ele>
    <time>2026-06-24T06:09:53Z</time>
   </trkpt>
   <trkpt lat="-3.1779330" lon="37.3590780">
    <ele>2638.3</ele>
    <time>2026-06-24T06:09:54Z</time>
   </trkpt>
   <trkpt lat="-3.1779400" lon="37.3590780">
    <ele>2638.2</ele>
    <time>2026-06-24T06:09:55Z</time>
   </trkpt>
   <trkpt lat="-3.1779490" lon="37.3590730">
    <ele>2638.1</ele>
    <time>2026-06-24T06:09:56Z</time>
   </trkpt>
   <trkpt lat="-3.1779520" lon="37.3590660">
    <ele>2638.1</ele>
    <time>2026-06-24T06:09:57Z</time>
   </trkpt>
   <trkpt lat="-3.1779610" lon="37.3590610">
    <ele>2638.0</ele>
    <time>2026-06-24T06:09:58Z</time>
   </trkpt>
   <trkpt lat="-3.1779710" lon="37.3590580">
    <ele>2637.9</ele>
    <time>2026-06-24T06:09:59Z</time>
   </trkpt>
   <trkpt lat="-3.1779770" lon="37.3590560">
    <ele>2637.9</ele>
    <time>2026-06-24T06:10:00Z</time>
   </trkpt>
   <trkpt lat="-3.1779800" lon="37.3590550">
    <ele>2637.8</ele>
    <time>2026-06-24T06:10:01Z</time>
   </trkpt>
   <trkpt lat="-3.1779910" lon="37.3590520">
    <ele>2637.7</ele>
    <time>2026-06-24T06:10:02Z</time>
   </trkpt>
   <trkpt lat="-3.1780040" lon="37.3590460">
    <ele>2637.6</ele>
    <time>2026-06-24T06:10:03Z</time>
   </trkpt>
   <trkpt lat="-3.1780160" lon="37.3590420">
    <ele>2637.5</ele>
    <time>2026-06-24T06:10:04Z</time>
   </trkpt>
   <trkpt lat="-3.1780190" lon="37.3590420">
    <ele>2637.5</ele>
    <time>2026-06-24T06:10:05Z</time>
   </trkpt>
   <trkpt lat="-3.1780240" lon="37.3590420">
    <ele>2637.4</ele>
    <time>2026-06-24T06:10:06Z</time>
   </trkpt>
   <trkpt lat="-3.1780280" lon="37.3590420">
    <ele>2637.4</ele>
    <time>2026-06-24T06:10:07Z</time>
   </trkpt>
   <trkpt lat="-3.1780350" lon="37.3590250">
    <ele>2637.2</ele>
    <time>2026-06-24T06:10:08Z</time>
   </trkpt>
   <trkpt lat="-3.1780400" lon="37.3590200">
    <ele>2637.1</ele>
    <time>2026-06-24T06:10:09Z</time>
   </trkpt>
   <trkpt lat="-3.1780360" lon="37.3590160">
    <ele>2637.1</ele>
    <time>2026-06-24T06:10:10Z</time>
   </trkpt>
   <trkpt lat="-3.1780370" lon="37.3590130">
    <ele>2637.1</ele>
    <time>2026-06-24T06:10:11Z</time>
   </trkpt>
   <trkpt lat="-3.1780390" lon="37.3590070">
    <ele>2637.0</ele>
    <time>2026-06-24T06:10:12Z</time>
   </trkpt>
   <trkpt lat="-3.1780390" lon="37.3590040">
    <ele>2637.0</ele>
    <time>2026-06-24T06:10:13Z</time>
   </trkpt>
   <trkpt lat="-3.1780430" lon="37.3589940">
    <ele>2636.9</ele>
    <time>2026-06-24T06:10:14Z</time>
   </trkpt>
   <trkpt lat="-3.1780470" lon="37.3589850">
    <ele>2636.8</ele>
    <time>2026-06-24T06:10:15Z</time>
   </trkpt>
   <trkpt lat="-3.1780520" lon="37.3589740">
    <ele>2636.6</ele>
    <time>2026-06-24T06:10:16Z</time>
   </trkpt>
   <trkpt lat="-3.1780560" lon="37.3589630">
    <ele>2636.5</ele>
    <time>2026-06-24T06:10:17Z</time>
   </trkpt>
   <trkpt lat="-3.1780590" lon="37.3589600">
    <ele>2636.5</ele>
    <time>2026-06-24T06:10:18Z</time>
   </trkpt>
   <trkpt lat="-3.1780660" lon="37.3589510">
    <ele>2636.3</ele>
    <time>2026-06-24T06:10:19Z</time>
   </trkpt>
   <trkpt lat="-3.1780690" lon="37.3589430">
    <ele>2636.3</ele>
    <time>2026-06-24T06:10:20Z</time>
   </trkpt>
   <trkpt lat="-3.1780710" lon="37.3589430">
    <ele>2636.2</ele>
    <time>2026-06-24T06:10:21Z</time>
   </trkpt>
   <trkpt lat="-3.1780800" lon="37.3589310">
    <ele>2636.1</ele>
    <time>2026-06-24T06:10:22Z</time>
   </trkpt>
   <trkpt lat="-3.1780900" lon="37.3589190">
    <ele>2635.9</ele>
    <time>2026-06-24T06:10:23Z</time>
   </trkpt>
   <trkpt lat="-3.1780910" lon="37.3589240">
    <ele>2635.8</ele>
    <time>2026-06-24T06:10:24Z</time>
   </trkpt>
   <trkpt lat="-3.1780940" lon="37.3589240">
    <ele>2635.8</ele>
    <time>2026-06-24T06:10:25Z</time>
   </trkpt>
   <trkpt lat="-3.1780960" lon="37.3589240">
    <ele>2635.8</ele>
    <time>2026-06-24T06:10:26Z</time>
   </trkpt>
   <trkpt lat="-3.1781010" lon="37.3589190">
    <ele>2635.7</ele>
    <time>2026-06-24T06:10:27Z</time>
   </trkpt>
   <trkpt lat="-3.1781060" lon="37.3589180">
    <ele>2635.6</ele>
    <time>2026-06-24T06:10:28Z</time>
   </trkpt>
   <trkpt lat="-3.1781150" lon="37.3589130">
    <ele>2635.5</ele>
    <time>2026-06-24T06:10:29Z</time>
   </trkpt>
   <trkpt lat="-3.1781140" lon="37.3589190">
    <ele>2635.4</ele>
    <time>2026-06-24T06:10:30Z</time>
   </trkpt>
   <trkpt lat="-3.1781230" lon="37.3589150">
    <ele>2635.3</ele>
    <time>2026-06-24T06:10:31Z</time>
   </trkpt>
   <trkpt lat="-3.1781250" lon="37.3589180">
    <ele>2635.3</ele>
    <time>2026-06-24T06:10:32Z</time>
   </trkpt>
   <trkpt lat="-3.1781270" lon="37.3589190">
    <ele>2635.3</ele>
    <time>2026-06-24T06:10:33Z</time>
   </trkpt>
   <trkpt lat="-3.1781340" lon="37.3589140">
    <ele>2635.1</ele>
    <time>2026-06-24T06:10:34Z</time>
   </trkpt>
   <trkpt lat="-3.1781410" lon="37.3589090">
    <ele>2635.0</ele>
    <time>2026-06-24T06:10:35Z</time>
   </trkpt>
   <trkpt lat="-3.1781470" lon="37.3589040">
    <ele>2634.9</ele>
    <time>2026-06-24T06:10:36Z</time>
   </trkpt>
   <trkpt lat="-3.1781530" lon="37.3588970">
    <ele>2634.8</ele>
    <time>2026-06-24T06:10:37Z</time>
   </trkpt>
   <trkpt lat="-3.1781600" lon="37.3588920">
    <ele>2634.7</ele>
    <time>2026-06-24T06:10:38Z</time>
   </trkpt>
   <trkpt lat="-3.1781620" lon="37.3588820">
    <ele>2634.6</ele>
    <time>2026-06-24T06:10:39Z</time>
   </trkpt>
   <trkpt lat="-3.1781670" lon="37.3588760">
    <ele>2634.5</ele>
    <time>2026-06-24T06:10:40Z</time>
   </trkpt>
   <trkpt lat="-3.1781730" lon="37.3588680">
    <ele>2634.3</ele>
    <time>2026-06-24T06:10:41Z</time>
   </trkpt>
   <trkpt lat="-3.1781780" lon="37.3588610">
    <ele>2634.2</ele>
    <time>2026-06-24T06:10:42Z</time>
   </trkpt>
   <trkpt lat="-3.1781880" lon="37.3588530">
    <ele>2634.0</ele>
    <time>2026-06-24T06:10:43Z</time>
   </trkpt>
   <trkpt lat="-3.1781980" lon="37.3588460">
    <ele>2633.9</ele>
    <time>2026-06-24T06:10:44Z</time>
   </trkpt>
   <trkpt lat="-3.1782080" lon="37.3588360">
    <ele>2633.7</ele>
    <time>2026-06-24T06:10:45Z</time>
   </trkpt>
   <trkpt lat="-3.1782140" lon="37.3588310">
    <ele>2633.6</ele>
    <time>2026-06-24T06:10:46Z</time>
   </trkpt>
   <trkpt lat="-3.1782200" lon="37.3588240">
    <ele>2633.4</ele>
    <time>2026-06-24T06:10:47Z</time>
   </trkpt>
   <trkpt lat="-3.1782260" lon="37.3588180">
    <ele>2633.3</ele>
    <time>2026-06-24T06:10:48Z</time>
   </trkpt>
   <trkpt lat="-3.1782390" lon="37.3588090">
    <ele>2633.1</ele>
    <time>2026-06-24T06:10:49Z</time>
   </trkpt>
   <trkpt lat="-3.1782430" lon="37.3588080">
    <ele>2633.0</ele>
    <time>2026-06-24T06:10:50Z</time>
   </trkpt>
   <trkpt lat="-3.1782540" lon="37.3587950">
    <ele>2632.7</ele>
    <time>2026-06-24T06:10:51Z</time>
   </trkpt>
   <trkpt lat="-3.1782640" lon="37.3587840">
    <ele>2632.5</ele>
    <time>2026-06-24T06:10:52Z</time>
   </trkpt>
   <trkpt lat="-3.1782720" lon="37.3587770">
    <ele>2632.3</ele>
    <time>2026-06-24T06:10:53Z</time>
   </trkpt>
   <trkpt lat="-3.1782770" lon="37.3587680">
    <ele>2632.2</ele>
    <time>2026-06-24T06:10:54Z</time>
   </trkpt>
   <trkpt lat="-3.1782750" lon="37.3587710">
    <ele>2632.1</ele>
    <time>2026-06-24T06:10:55Z</time>
   </trkpt>
   <trkpt lat="-3.1782790" lon="37.3587770">
    <ele>2632.0</ele>
    <time>2026-06-24T06:10:56Z</time>
   </trkpt>
   <trkpt lat="-3.1782810" lon="37.3587680">
    <ele>2631.9</ele>
    <time>2026-06-24T06:10:57Z</time>
   </trkpt>
   <trkpt lat="-3.1782850" lon="37.3587550">
    <ele>2631.6</ele>
    <time>2026-06-24T06:10:58Z</time>
   </trkpt>
   <trkpt lat="-3.1782870" lon="37.3587480">
    <ele>2631.5</ele>
    <time>2026-06-24T06:10:59Z</time>
   </trkpt>
   <trkpt lat="-3.1782900" lon="37.3587420">
    <ele>2631.4</ele>
    <time>2026-06-24T06:11:00Z</time>
   </trkpt>
   <trkpt lat="-3.1782960" lon="37.3587360">
    <ele>2631.3</ele>
    <time>2026-06-24T06:11:01Z</time>
   </trkpt>
   <trkpt lat="-3.1783010" lon="37.3587350">
    <ele>2631.2</ele>
    <time>2026-06-24T06:11:02Z</time>
   </trkpt>
   <trkpt lat="-3.1783090" lon="37.3587280">
    <ele>2631.0</ele>
    <time>2026-06-24T06:11:03Z</time>
   </trkpt>
   <trkpt lat="-3.1783080" lon="37.3587270">
    <ele>2631.0</ele>
    <time>2026-06-24T06:11:04Z</time>
   </trkpt>
   <trkpt lat="-3.1783080" lon="37.3587290">
    <ele>2630.9</ele>
    <time>2026-06-24T06:11:05Z</time>
   </trkpt>
   <trkpt lat="-3.1783090" lon="37.3587300">
    <ele>2630.9</ele>
    <time>2026-06-24T06:11:06Z</time>
   </trkpt>
   <trkpt lat="-3.1783170" lon="37.3587290">
    <ele>2630.8</ele>
    <time>2026-06-24T06:11:07Z</time>
   </trkpt>
   <trkpt lat="-3.1783250" lon="37.3587280">
    <ele>2630.6</ele>
    <time>2026-06-24T06:11:08Z</time>
   </trkpt>
   <trkpt lat="-3.1783310" lon="37.3587190">
    <ele>2630.5</ele>
    <time>2026-06-24T06:11:09Z</time>
   </trkpt>
   <trkpt lat="-3.1783350" lon="37.3587190">
    <ele>2630.4</ele>
    <time>2026-06-24T06:11:10Z</time>
   </trkpt>
   <trkpt lat="-3.1783400" lon="37.3587190">
    <ele>2630.3</ele>
    <time>2026-06-24T06:11:11Z</time>
   </trkpt>
   <trkpt lat="-3.1783480" lon="37.3587190">
    <ele>2630.2</ele>
    <time>2026-06-24T06:11:12Z</time>
   </trkpt>
   <trkpt lat="-3.1783570" lon="37.3587150">
    <ele>2630.0</ele>
    <time>2026-06-24T06:11:13Z</time>
   </trkpt>
   <trkpt lat="-3.1783620" lon="37.3587160">
    <ele>2629.9</ele>
    <time>2026-06-24T06:11:14Z</time>
   </trkpt>
   <trkpt lat="-3.1783620" lon="37.3587160">
    <ele>2629.9</ele>
    <time>2026-06-24T06:11:15Z</time>
   </trkpt>
   <trkpt lat="-3.1783710" lon="37.3587120">
    <ele>2629.8</ele>
    <time>2026-06-24T06:11:16Z</time>
   </trkpt>
   <trkpt lat="-3.1783760" lon="37.3587030">
    <ele>2629.6</ele>
    <time>2026-06-24T06:11:17Z</time>
   </trkpt>
   <trkpt lat="-3.1783780" lon="37.3586990">
    <ele>2629.5</ele>
    <time>2026-06-24T06:11:18Z</time>
   </trkpt>
   <trkpt lat="-3.1783860" lon="37.3586910">
    <ele>2629.3</ele>
    <time>2026-06-24T06:11:19Z</time>
   </trkpt>
   <trkpt lat="-3.1783900" lon="37.3586880">
    <ele>2629.2</ele>
    <time>2026-06-24T06:11:20Z</time>
   </trkpt>
   <trkpt lat="-3.1783940" lon="37.3586810">
    <ele>2629.1</ele>
    <time>2026-06-24T06:11:21Z</time>
   </trkpt>
   <trkpt lat="-3.1783970" lon="37.3586830">
    <ele>2629.0</ele>
    <time>2026-06-24T06:11:22Z</time>
   </trkpt>
   <trkpt lat="-3.1784000" lon="37.3586820">
    <ele>2629.0</ele>
    <time>2026-06-24T06:11:23Z</time>
   </trkpt>
   <trkpt lat="-3.1784000" lon="37.3586820">
    <ele>2629.0</ele>
    <time>2026-06-24T06:11:24Z</time>
   </trkpt>
   <trkpt lat="-3.1784060" lon="37.3586770">
    <ele>2628.9</ele>
    <time>2026-06-24T06:11:25Z</time>
   </trkpt>
   <trkpt lat="-3.1784130" lon="37.3586700">
    <ele>2628.7</ele>
    <time>2026-06-24T06:11:26Z</time>
   </trkpt>
   <trkpt lat="-3.1784180" lon="37.3586700">
    <ele>2628.6</ele>
    <time>2026-06-24T06:11:27Z</time>
   </trkpt>
   <trkpt lat="-3.1784190" lon="37.3586670">
    <ele>2628.6</ele>
    <time>2026-06-24T06:11:28Z</time>
   </trkpt>
   <trkpt lat="-3.1784250" lon="37.3586650">
    <ele>2628.4</ele>
    <time>2026-06-24T06:11:29Z</time>
   </trkpt>
   <trkpt lat="-3.1784380" lon="37.3586520">
    <ele>2628.1</ele>
    <time>2026-06-24T06:11:30Z</time>
   </trkpt>
   <trkpt lat="-3.1784310" lon="37.3586480">
    <ele>2628.0</ele>
    <time>2026-06-24T06:11:31Z</time>
   </trkpt>
   <trkpt lat="-3.1784370" lon="37.3586450">
    <ele>2627.9</ele>
    <time>2026-06-24T06:11:32Z</time>
   </trkpt>
   <trkpt lat="-3.1784250" lon="37.3586460">
    <ele>2627.7</ele>
    <time>2026-06-24T06:11:33Z</time>
   </trkpt>
   <trkpt lat="-3.1784330" lon="37.3586410">
    <ele>2627.6</ele>
    <time>2026-06-24T06:11:34Z</time>
   </trkpt>
   <trkpt lat="-3.1784380" lon="37.3586360">
    <ele>2627.5</ele>
    <time>2026-06-24T06:11:35Z</time>
   </trkpt>
   <trkpt lat="-3.1784430" lon="37.3586390">
    <ele>2627.4</ele>
    <time>2026-06-24T06:11:37Z</time>
   </trkpt>
   <trkpt lat="-3.1784350" lon="37.3586210">
    <ele>2627.1</ele>
    <time>2026-06-24T06:11:38Z</time>
   </trkpt>
   <trkpt lat="-3.1784440" lon="37.3586260">
    <ele>2626.9</ele>
    <time>2026-06-24T06:11:39Z</time>
   </trkpt>
   <trkpt lat="-3.1784510" lon="37.3586240">
    <ele>2626.8</ele>
    <time>2026-06-24T06:11:40Z</time>
   </trkpt>
   <trkpt lat="-3.1784550" lon="37.3586250">
    <ele>2626.7</ele>
    <time>2026-06-24T06:11:41Z</time>
   </trkpt>
   <trkpt lat="-3.1784490" lon="37.3586250">
    <ele>2626.7</ele>
    <time>2026-06-24T06:11:42Z</time>
   </trkpt>
   <trkpt lat="-3.1784490" lon="37.3586230">
    <ele>2626.6</ele>
    <time>2026-06-24T06:11:43Z</time>
   </trkpt>
   <trkpt lat="-3.1784600" lon="37.3586230">
    <ele>2626.5</ele>
    <time>2026-06-24T06:11:44Z</time>
   </trkpt>
   <trkpt lat="-3.1784610" lon="37.3586170">
    <ele>2626.4</ele>
    <time>2026-06-24T06:11:45Z</time>
   </trkpt>
   <trkpt lat="-3.1784670" lon="37.3586160">
    <ele>2626.3</ele>
    <time>2026-06-24T06:11:46Z</time>
   </trkpt>
   <trkpt lat="-3.1784670" lon="37.3586080">
    <ele>2626.2</ele>
    <time>2026-06-24T06:11:47Z</time>
   </trkpt>
   <trkpt lat="-3.1784700" lon="37.3585960">
    <ele>2626.0</ele>
    <time>2026-06-24T06:11:48Z</time>
   </trkpt>
   <trkpt lat="-3.1784710" lon="37.3585910">
    <ele>2625.9</ele>
    <time>2026-06-24T06:11:49Z</time>
   </trkpt>
   <trkpt lat="-3.1784690" lon="37.3585800">
    <ele>2625.8</ele>
    <time>2026-06-24T06:11:50Z</time>
   </trkpt>
   <trkpt lat="-3.1784700" lon="37.3585750">
    <ele>2625.7</ele>
    <time>2026-06-24T06:11:51Z</time>
   </trkpt>
   <trkpt lat="-3.1784700" lon="37.3585720">
    <ele>2625.7</ele>
    <time>2026-06-24T06:11:52Z</time>
   </trkpt>
   <trkpt lat="-3.1784700" lon="37.3585710">
    <ele>2625.7</ele>
    <time>2026-06-24T06:11:53Z</time>
   </trkpt>
   <trkpt lat="-3.1784720" lon="37.3585620">
    <ele>2625.5</ele>
    <time>2026-06-24T06:11:54Z</time>
   </trkpt>
   <trkpt lat="-3.1784750" lon="37.3585540">
    <ele>2625.4</ele>
    <time>2026-06-24T06:11:55Z</time>
   </trkpt>
   <trkpt lat="-3.1784750" lon="37.3585440">
    <ele>2625.3</ele>
    <time>2026-06-24T06:11:56Z</time>
   </trkpt>
   <trkpt lat="-3.1784770" lon="37.3585370">
    <ele>2625.2</ele>
    <time>2026-06-24T06:11:57Z</time>
   </trkpt>
   <trkpt lat="-3.1784750" lon="37.3585370">
    <ele>2625.1</ele>
    <time>2026-06-24T06:11:58Z</time>
   </trkpt>
   <trkpt lat="-3.1784740" lon="37.3585300">
    <ele>2625.0</ele>
    <time>2026-06-24T06:11:59Z</time>
   </trkpt>
   <trkpt lat="-3.1784670" lon="37.3585220">
    <ele>2624.9</ele>
    <time>2026-06-24T06:12:00Z</time>
   </trkpt>
   <trkpt lat="-3.1784680" lon="37.3585120">
    <ele>2624.8</ele>
    <time>2026-06-24T06:12:01Z</time>
   </trkpt>
   <trkpt lat="-3.1784630" lon="37.3585120">
    <ele>2624.7</ele>
    <time>2026-06-24T06:12:02Z</time>
   </trkpt>
   <trkpt lat="-3.1784640" lon="37.3585010">
    <ele>2624.5</ele>
    <time>2026-06-24T06:12:03Z</time>
   </trkpt>
   <trkpt lat="-3.1784650" lon="37.3584930">
    <ele>2624.4</ele>
    <time>2026-06-24T06:12:04Z</time>
   </trkpt>
   <trkpt lat="-3.1784640" lon="37.3584900">
    <ele>2624.4</ele>
    <time>2026-06-24T06:12:05Z</time>
   </trkpt>
   <trkpt lat="-3.1784640" lon="37.3584910">
    <ele>2624.4</ele>
    <time>2026-06-24T06:12:06Z</time>
   </trkpt>
   <trkpt lat="-3.1784660" lon="37.3584800">
    <ele>2624.2</ele>
    <time>2026-06-24T06:12:07Z</time>
   </trkpt>
   <trkpt lat="-3.1784720" lon="37.3584700">
    <ele>2624.1</ele>
    <time>2026-06-24T06:12:08Z</time>
   </trkpt>
   <trkpt lat="-3.1784780" lon="37.3584620">
    <ele>2623.9</ele>
    <time>2026-06-24T06:12:09Z</time>
   </trkpt>
   <trkpt lat="-3.1784790" lon="37.3584510">
    <ele>2623.8</ele>
    <time>2026-06-24T06:12:10Z</time>
   </trkpt>
   <trkpt lat="-3.1784770" lon="37.3584570">
    <ele>2623.7</ele>
    <time>2026-06-24T06:12:11Z</time>
   </trkpt>
   <trkpt lat="-3.1784750" lon="37.3584530">
    <ele>2623.6</ele>
    <time>2026-06-24T06:12:12Z</time>
   </trkpt>
   <trkpt lat="-3.1784730" lon="37.3584510">
    <ele>2623.6</ele>
    <time>2026-06-24T06:12:13Z</time>
   </trkpt>
   <trkpt lat="-3.1784740" lon="37.3584440">
    <ele>2623.5</ele>
    <time>2026-06-24T06:12:14Z</time>
   </trkpt>
   <trkpt lat="-3.1784710" lon="37.3584370">
    <ele>2623.4</ele>
    <time>2026-06-24T06:12:15Z</time>
   </trkpt>
   <trkpt lat="-3.1784680" lon="37.3584230">
    <ele>2623.2</ele>
    <time>2026-06-24T06:12:16Z</time>
   </trkpt>
   <trkpt lat="-3.1784660" lon="37.3584170">
    <ele>2623.1</ele>
    <time>2026-06-24T06:12:17Z</time>
   </trkpt>
   <trkpt lat="-3.1784660" lon="37.3584100">
    <ele>2623.0</ele>
    <time>2026-06-24T06:12:18Z</time>
   </trkpt>
   <trkpt lat="-3.1784670" lon="37.3584050">
    <ele>2623.0</ele>
    <time>2026-06-24T06:12:19Z</time>
   </trkpt>
   <trkpt lat="-3.1784750" lon="37.3583970">
    <ele>2622.8</ele>
    <time>2026-06-24T06:12:20Z</time>
   </trkpt>
   <trkpt lat="-3.1784740" lon="37.3583910">
    <ele>2622.7</ele>
    <time>2026-06-24T06:12:21Z</time>
   </trkpt>
   <trkpt lat="-3.1784690" lon="37.3583950">
    <ele>2622.7</ele>
    <time>2026-06-24T06:12:22Z</time>
   </trkpt>
   <trkpt lat="-3.1784660" lon="37.3583910">
    <ele>2622.6</ele>
    <time>2026-06-24T06:12:23Z</time>
   </trkpt>
   <trkpt lat="-3.1784630" lon="37.3583840">
    <ele>2622.5</ele>
    <time>2026-06-24T06:12:24Z</time>
   </trkpt>
   <trkpt lat="-3.1784590" lon="37.3583820">
    <ele>2622.4</ele>
    <time>2026-06-24T06:12:25Z</time>
   </trkpt>
   <trkpt lat="-3.1784610" lon="37.3583760">
    <ele>2622.4</ele>
    <time>2026-06-24T06:12:26Z</time>
   </trkpt>
   <trkpt lat="-3.1784670" lon="37.3583660">
    <ele>2622.2</ele>
    <time>2026-06-24T06:12:27Z</time>
   </trkpt>
   <trkpt lat="-3.1784630" lon="37.3583630">
    <ele>2622.1</ele>
    <time>2026-06-24T06:12:28Z</time>
   </trkpt>
   <trkpt lat="-3.1784620" lon="37.3583620">
    <ele>2622.1</ele>
    <time>2026-06-24T06:12:29Z</time>
   </trkpt>
   <trkpt lat="-3.1784590" lon="37.3583650">
    <ele>2622.1</ele>
    <time>2026-06-24T06:12:30Z</time>
   </trkpt>
   <trkpt lat="-3.1784550" lon="37.3583670">
    <ele>2622.0</ele>
    <time>2026-06-24T06:12:31Z</time>
   </trkpt>
   <trkpt lat="-3.1784500" lon="37.3583670">
    <ele>2621.9</ele>
    <time>2026-06-24T06:12:32Z</time>
   </trkpt>
   <trkpt lat="-3.1784480" lon="37.3583550">
    <ele>2621.8</ele>
    <time>2026-06-24T06:12:33Z</time>
   </trkpt>
   <trkpt lat="-3.1784500" lon="37.3583550">
    <ele>2621.8</ele>
    <time>2026-06-24T06:12:34Z</time>
   </trkpt>
   <trkpt lat="-3.1784530" lon="37.3583460">
    <ele>2621.6</ele>
    <time>2026-06-24T06:12:35Z</time>
   </trkpt>
   <trkpt lat="-3.1784580" lon="37.3583390">
    <ele>2621.5</ele>
    <time>2026-06-24T06:12:36Z</time>
   </trkpt>
   <trkpt lat="-3.1784650" lon="37.3583240">
    <ele>2621.3</ele>
    <time>2026-06-24T06:12:37Z</time>
   </trkpt>
   <trkpt lat="-3.1784660" lon="37.3583210">
    <ele>2621.3</ele>
    <time>2026-06-24T06:12:38Z</time>
   </trkpt>
   <trkpt lat="-3.1784660" lon="37.3583180">
    <ele>2621.2</ele>
    <time>2026-06-24T06:12:39Z</time>
   </trkpt>
   <trkpt lat="-3.1784650" lon="37.3583120">
    <ele>2621.2</ele>
    <time>2026-06-24T06:12:40Z</time>
   </trkpt>
   <trkpt lat="-3.1784640" lon="37.3583080">
    <ele>2621.1</ele>
    <time>2026-06-24T06:12:41Z</time>
   </trkpt>
   <trkpt lat="-3.1784640" lon="37.3583050">
    <ele>2621.1</ele>
    <time>2026-06-24T06:12:42Z</time>
   </trkpt>
   <trkpt lat="-3.1784640" lon="37.3583040">
    <ele>2621.1</ele>
    <time>2026-06-24T06:12:43Z</time>
   </trkpt>
   <trkpt lat="-3.1784660" lon="37.3583050">
    <ele>2621.0</ele>
    <time>2026-06-24T06:12:44Z</time>
   </trkpt>
   <trkpt lat="-3.1784600" lon="37.3583060">
    <ele>2621.0</ele>
    <time>2026-06-24T06:12:45Z</time>
   </trkpt>
   <trkpt lat="-3.1784640" lon="37.3583010">
    <ele>2620.9</ele>
    <time>2026-06-24T06:12:46Z</time>
   </trkpt>
   <trkpt lat="-3.1784650" lon="37.3583010">
    <ele>2620.9</ele>
    <time>2026-06-24T06:12:47Z</time>
   </trkpt>
   <trkpt lat="-3.1784680" lon="37.3582910">
    <ele>2620.7</ele>
    <time>2026-06-24T06:12:48Z</time>
   </trkpt>
   <trkpt lat="-3.1784710" lon="37.3582870">
    <ele>2620.7</ele>
    <time>2026-06-24T06:12:49Z</time>
   </trkpt>
   <trkpt lat="-3.1784690" lon="37.3582780">
    <ele>2620.6</ele>
    <time>2026-06-24T06:12:50Z</time>
   </trkpt>
   <trkpt lat="-3.1784660" lon="37.3582730">
    <ele>2620.5</ele>
    <time>2026-06-24T06:12:51Z</time>
   </trkpt>
   <trkpt lat="-3.1784610" lon="37.3582600">
    <ele>2620.3</ele>
    <time>2026-06-24T06:12:52Z</time>
   </trkpt>
   <trkpt lat="-3.1784610" lon="37.3582520">
    <ele>2620.2</ele>
    <time>2026-06-24T06:12:53Z</time>
   </trkpt>
   <trkpt lat="-3.1784650" lon="37.3582440">
    <ele>2620.1</ele>
    <time>2026-06-24T06:12:54Z</time>
   </trkpt>
   <trkpt lat="-3.1784640" lon="37.3582480">
    <ele>2620.0</ele>
    <time>2026-06-24T06:12:55Z</time>
   </trkpt>
   <trkpt lat="-3.1784620" lon="37.3582510">
    <ele>2620.0</ele>
    <time>2026-06-24T06:12:56Z</time>
   </trkpt>
   <trkpt lat="-3.1784650" lon="37.3582480">
    <ele>2619.9</ele>
    <time>2026-06-24T06:12:57Z</time>
   </trkpt>
   <trkpt lat="-3.1784630" lon="37.3582390">
    <ele>2619.8</ele>
    <time>2026-06-24T06:12:58Z</time>
   </trkpt>
   <trkpt lat="-3.1784640" lon="37.3582340">
    <ele>2619.8</ele>
    <time>2026-06-24T06:12:59Z</time>
   </trkpt>
   <trkpt lat="-3.1784660" lon="37.3582250">
    <ele>2619.6</ele>
    <time>2026-06-24T06:13:00Z</time>
   </trkpt>
   <trkpt lat="-3.1784710" lon="37.3582210">
    <ele>2619.6</ele>
    <time>2026-06-24T06:13:01Z</time>
   </trkpt>
   <trkpt lat="-3.1784770" lon="37.3582210">
    <ele>2619.5</ele>
    <time>2026-06-24T06:13:02Z</time>
   </trkpt>
   <trkpt lat="-3.1784790" lon="37.3582220">
    <ele>2619.5</ele>
    <time>2026-06-24T06:13:03Z</time>
   </trkpt>
   <trkpt lat="-3.1784780" lon="37.3582220">
    <ele>2619.4</ele>
    <time>2026-06-24T06:13:04Z</time>
   </trkpt>
   <trkpt lat="-3.1784840" lon="37.3582160">
    <ele>2619.3</ele>
    <time>2026-06-24T06:13:05Z</time>
   </trkpt>
   <trkpt lat="-3.1784870" lon="37.3582130">
    <ele>2619.3</ele>
    <time>2026-06-24T06:13:06Z</time>
   </trkpt>
   <trkpt lat="-3.1784910" lon="37.3582120">
    <ele>2619.2</ele>
    <time>2026-06-24T06:13:07Z</time>
   </trkpt>
   <trkpt lat="-3.1784970" lon="37.3582100">
    <ele>2619.2</ele>
    <time>2026-06-24T06:13:08Z</time>
   </trkpt>
   <trkpt lat="-3.1785000" lon="37.3582210">
    <ele>2619.0</ele>
    <time>2026-06-24T06:13:09Z</time>
   </trkpt>
   <trkpt lat="-3.1785010" lon="37.3582130">
    <ele>2618.9</ele>
    <time>2026-06-24T06:13:10Z</time>
   </trkpt>
   <trkpt lat="-3.1785050" lon="37.3582120">
    <ele>2618.9</ele>
    <time>2026-06-24T06:13:11Z</time>
   </trkpt>
   <trkpt lat="-3.1785060" lon="37.3582110">
    <ele>2618.8</ele>
    <time>2026-06-24T06:13:12Z</time>
   </trkpt>
   <trkpt lat="-3.1785030" lon="37.3582120">
    <ele>2618.8</ele>
    <time>2026-06-24T06:13:13Z</time>
   </trkpt>
   <trkpt lat="-3.1785080" lon="37.3582070">
    <ele>2618.7</ele>
    <time>2026-06-24T06:13:14Z</time>
   </trkpt>
   <trkpt lat="-3.1785150" lon="37.3582030">
    <ele>2618.6</ele>
    <time>2026-06-24T06:13:15Z</time>
   </trkpt>
   <trkpt lat="-3.1785250" lon="37.3581980">
    <ele>2618.5</ele>
    <time>2026-06-24T06:13:16Z</time>
   </trkpt>
   <trkpt lat="-3.1785310" lon="37.3581940">
    <ele>2618.4</ele>
    <time>2026-06-24T06:13:17Z</time>
   </trkpt>
   <trkpt lat="-3.1785380" lon="37.3581940">
    <ele>2618.3</ele>
    <time>2026-06-24T06:13:18Z</time>
   </trkpt>
   <trkpt lat="-3.1785440" lon="37.3581890">
    <ele>2618.2</ele>
    <time>2026-06-24T06:13:19Z</time>
   </trkpt>
   <trkpt lat="-3.1785500" lon="37.3581840">
    <ele>2618.1</ele>
    <time>2026-06-24T06:13:20Z</time>
   </trkpt>
   <trkpt lat="-3.1785540" lon="37.3581800">
    <ele>2618.0</ele>
    <time>2026-06-24T06:13:21Z</time>
   </trkpt>
   <trkpt lat="-3.1785600" lon="37.3581790">
    <ele>2617.9</ele>
    <time>2026-06-24T06:13:22Z</time>
   </trkpt>
   <trkpt lat="-3.1785650" lon="37.3581780">
    <ele>2617.8</ele>
    <time>2026-06-24T06:13:23Z</time>
   </trkpt>
   <trkpt lat="-3.1785720" lon="37.3581710">
    <ele>2617.7</ele>
    <time>2026-06-24T06:13:24Z</time>
   </trkpt>
   <trkpt lat="-3.1785730" lon="37.3581670">
    <ele>2617.6</ele>
    <time>2026-06-24T06:13:25Z</time>
   </trkpt>
   <trkpt lat="-3.1785780" lon="37.3581650">
    <ele>2617.5</ele>
    <time>2026-06-24T06:13:26Z</time>
   </trkpt>
   <trkpt lat="-3.1785810" lon="37.3581620">
    <ele>2617.5</ele>
    <time>2026-06-24T06:13:27Z</time>
   </trkpt>
   <trkpt lat="-3.1785810" lon="37.3581630">
    <ele>2617.5</ele>
    <time>2026-06-24T06:13:28Z</time>
   </trkpt>
   <trkpt lat="-3.1785830" lon="37.3581640">
    <ele>2617.4</ele>
    <time>2026-06-24T06:13:29Z</time>
   </trkpt>
   <trkpt lat="-3.1785900" lon="37.3581640">
    <ele>2617.3</ele>
    <time>2026-06-24T06:13:30Z</time>
   </trkpt>
   <trkpt lat="-3.1785920" lon="37.3581680">
    <ele>2617.3</ele>
    <time>2026-06-24T06:13:31Z</time>
   </trkpt>
   <trkpt lat="-3.1785910" lon="37.3581710">
    <ele>2617.2</ele>
    <time>2026-06-24T06:13:32Z</time>
   </trkpt>
   <trkpt lat="-3.1785930" lon="37.3581690">
    <ele>2617.2</ele>
    <time>2026-06-24T06:13:33Z</time>
   </trkpt>
   <trkpt lat="-3.1786000" lon="37.3581690">
    <ele>2617.1</ele>
    <time>2026-06-24T06:13:34Z</time>
   </trkpt>
   <trkpt lat="-3.1786060" lon="37.3581660">
    <ele>2617.0</ele>
    <time>2026-06-24T06:13:35Z</time>
   </trkpt>
   <trkpt lat="-3.1786100" lon="37.3581650">
    <ele>2616.9</ele>
    <time>2026-06-24T06:13:36Z</time>
   </trkpt>
   <trkpt lat="-3.1786180" lon="37.3581590">
    <ele>2616.8</ele>
    <time>2026-06-24T06:13:37Z</time>
   </trkpt>
   <trkpt lat="-3.1786220" lon="37.3581550">
    <ele>2616.7</ele>
    <time>2026-06-24T06:13:38Z</time>
   </trkpt>
   <trkpt lat="-3.1786260" lon="37.3581570">
    <ele>2616.6</ele>
    <time>2026-06-24T06:13:39Z</time>
   </trkpt>
   <trkpt lat="-3.1786300" lon="37.3581540">
    <ele>2616.5</ele>
    <time>2026-06-24T06:13:40Z</time>
   </trkpt>
   <trkpt lat="-3.1786350" lon="37.3581500">
    <ele>2616.4</ele>
    <time>2026-06-24T06:13:41Z</time>
   </trkpt>
   <trkpt lat="-3.1786340" lon="37.3581470">
    <ele>2616.4</ele>
    <time>2026-06-24T06:13:43Z</time>
   </trkpt>
   <trkpt lat="-3.1786400" lon="37.3581410">
    <ele>2616.3</ele>
    <time>2026-06-24T06:13:44Z</time>
   </trkpt>
   <trkpt lat="-3.1786440" lon="37.3581350">
    <ele>2616.1</ele>
    <time>2026-06-24T06:13:45Z</time>
   </trkpt>
   <trkpt lat="-3.1786450" lon="37.3581350">
    <ele>2616.1</ele>
    <time>2026-06-24T06:13:46Z</time>
   </trkpt>
   <trkpt lat="-3.1786470" lon="37.3581330">
    <ele>2616.1</ele>
    <time>2026-06-24T06:13:47Z</time>
   </trkpt>
   <trkpt lat="-3.1786490" lon="37.3581330">
    <ele>2616.0</ele>
    <time>2026-06-24T06:13:48Z</time>
   </trkpt>
   <trkpt lat="-3.1786490" lon="37.3581330">
    <ele>2616.0</ele>
    <time>2026-06-24T06:13:49Z</time>
   </trkpt>
   <trkpt lat="-3.1786480" lon="37.3581330">
    <ele>2616.0</ele>
    <time>2026-06-24T06:13:50Z</time>
   </trkpt>
   <trkpt lat="-3.1786470" lon="37.3581330">
    <ele>2616.0</ele>
    <time>2026-06-24T06:13:51Z</time>
   </trkpt>
   <trkpt lat="-3.1786500" lon="37.3581310">
    <ele>2616.0</ele>
    <time>2026-06-24T06:13:52Z</time>
   </trkpt>
   <trkpt lat="-3.1786530" lon="37.3581320">
    <ele>2615.9</ele>
    <time>2026-06-24T06:13:53Z</time>
   </trkpt>
   <trkpt lat="-3.1786560" lon="37.3581280">
    <ele>2615.8</ele>
    <time>2026-06-24T06:13:54Z</time>
   </trkpt>
   <trkpt lat="-3.1786630" lon="37.3581210">
    <ele>2615.6</ele>
    <time>2026-06-24T06:13:55Z</time>
   </trkpt>
   <trkpt lat="-3.1786680" lon="37.3581180">
    <ele>2615.5</ele>
    <time>2026-06-24T06:13:56Z</time>
   </trkpt>
   <trkpt lat="-3.1786700" lon="37.3581150">
    <ele>2615.5</ele>
    <time>2026-06-24T06:13:57Z</time>
   </trkpt>
   <trkpt lat="-3.1786700" lon="37.3581140">
    <ele>2615.5</ele>
    <time>2026-06-24T06:13:58Z</time>
   </trkpt>
   <trkpt lat="-3.1786750" lon="37.3581110">
    <ele>2615.4</ele>
    <time>2026-06-24T06:13:59Z</time>
   </trkpt>
   <trkpt lat="-3.1786770" lon="37.3581100">
    <ele>2615.3</ele>
    <time>2026-06-24T06:14:00Z</time>
   </trkpt>
   <trkpt lat="-3.1786820" lon="37.3581030">
    <ele>2615.2</ele>
    <time>2026-06-24T06:14:01Z</time>
   </trkpt>
   <trkpt lat="-3.1786870" lon="37.3581000">
    <ele>2615.1</ele>
    <time>2026-06-24T06:14:02Z</time>
   </trkpt>
   <trkpt lat="-3.1786930" lon="37.3581000">
    <ele>2615.0</ele>
    <time>2026-06-24T06:14:03Z</time>
   </trkpt>
   <trkpt lat="-3.1787010" lon="37.3581040">
    <ele>2614.8</ele>
    <time>2026-06-24T06:14:04Z</time>
   </trkpt>
   <trkpt lat="-3.1787020" lon="37.3581020">
    <ele>2614.8</ele>
    <time>2026-06-24T06:14:05Z</time>
   </trkpt>
   <trkpt lat="-3.1787040" lon="37.3581010">
    <ele>2614.7</ele>
    <time>2026-06-24T06:14:06Z</time>
   </trkpt>
   <trkpt lat="-3.1787130" lon="37.3581010">
    <ele>2614.6</ele>
    <time>2026-06-24T06:14:07Z</time>
   </trkpt>
   <trkpt lat="-3.1787160" lon="37.3581010">
    <ele>2614.5</ele>
    <time>2026-06-24T06:14:08Z</time>
   </trkpt>
   <trkpt lat="-3.1787240" lon="37.3581030">
    <ele>2614.3</ele>
    <time>2026-06-24T06:14:09Z</time>
   </trkpt>
   <trkpt lat="-3.1787360" lon="37.3581030">
    <ele>2614.1</ele>
    <time>2026-06-24T06:14:10Z</time>
   </trkpt>
   <trkpt lat="-3.1787390" lon="37.3581010">
    <ele>2614.1</ele>
    <time>2026-06-24T06:14:11Z</time>
   </trkpt>
   <trkpt lat="-3.1787400" lon="37.3581000">
    <ele>2614.0</ele>
    <time>2026-06-24T06:14:12Z</time>
   </trkpt>
   <trkpt lat="-3.1787500" lon="37.3580990">
    <ele>2613.8</ele>
    <time>2026-06-24T06:14:13Z</time>
   </trkpt>
   <trkpt lat="-3.1787530" lon="37.3581000">
    <ele>2613.8</ele>
    <time>2026-06-24T06:14:14Z</time>
   </trkpt>
   <trkpt lat="-3.1787470" lon="37.3580990">
    <ele>2613.7</ele>
    <time>2026-06-24T06:14:15Z</time>
   </trkpt>
   <trkpt lat="-3.1787640" lon="37.3581020">
    <ele>2613.3</ele>
    <time>2026-06-24T06:14:16Z</time>
   </trkpt>
   <trkpt lat="-3.1787730" lon="37.3581050">
    <ele>2613.1</ele>
    <time>2026-06-24T06:14:17Z</time>
   </trkpt>
   <trkpt lat="-3.1787780" lon="37.3581020">
    <ele>2613.0</ele>
    <time>2026-06-24T06:14:18Z</time>
   </trkpt>
   <trkpt lat="-3.1787810" lon="37.3581030">
    <ele>2613.0</ele>
    <time>2026-06-24T06:14:19Z</time>
   </trkpt>
   <trkpt lat="-3.1787870" lon="37.3580980">
    <ele>2612.8</ele>
    <time>2026-06-24T06:14:20Z</time>
   </trkpt>
   <trkpt lat="-3.1787910" lon="37.3580970">
    <ele>2612.7</ele>
    <time>2026-06-24T06:14:21Z</time>
   </trkpt>
   <trkpt lat="-3.1788050" lon="37.3580920">
    <ele>2612.4</ele>
    <time>2026-06-24T06:14:22Z</time>
   </trkpt>
   <trkpt lat="-3.1788040" lon="37.3580860">
    <ele>2612.3</ele>
    <time>2026-06-24T06:14:23Z</time>
   </trkpt>
   <trkpt lat="-3.1788060" lon="37.3580800">
    <ele>2612.2</ele>
    <time>2026-06-24T06:14:24Z</time>
   </trkpt>
   <trkpt lat="-3.1788070" lon="37.3580790">
    <ele>2612.2</ele>
    <time>2026-06-24T06:14:25Z</time>
   </trkpt>
   <trkpt lat="-3.1788110" lon="37.3580770">
    <ele>2612.1</ele>
    <time>2026-06-24T06:14:26Z</time>
   </trkpt>
   <trkpt lat="-3.1788170" lon="37.3580720">
    <ele>2611.9</ele>
    <time>2026-06-24T06:14:27Z</time>
   </trkpt>
   <trkpt lat="-3.1788210" lon="37.3580610">
    <ele>2611.7</ele>
    <time>2026-06-24T06:14:28Z</time>
   </trkpt>
   <trkpt lat="-3.1788240" lon="37.3580590">
    <ele>2611.6</ele>
    <time>2026-06-24T06:14:29Z</time>
   </trkpt>
   <trkpt lat="-3.1788290" lon="37.3580560">
    <ele>2611.5</ele>
    <time>2026-06-24T06:14:30Z</time>
   </trkpt>
   <trkpt lat="-3.1788310" lon="37.3580550">
    <ele>2611.5</ele>
    <time>2026-06-24T06:14:31Z</time>
   </trkpt>
   <trkpt lat="-3.1788380" lon="37.3580560">
    <ele>2611.3</ele>
    <time>2026-06-24T06:14:32Z</time>
   </trkpt>
   <trkpt lat="-3.1788380" lon="37.3580610">
    <ele>2611.3</ele>
    <time>2026-06-24T06:14:33Z</time>
   </trkpt>
   <trkpt lat="-3.1788380" lon="37.3580610">
    <ele>2611.3</ele>
    <time>2026-06-24T06:14:34Z</time>
   </trkpt>
   <trkpt lat="-3.1788470" lon="37.3580610">
    <ele>2611.1</ele>
    <time>2026-06-24T06:14:35Z</time>
   </trkpt>
   <trkpt lat="-3.1788470" lon="37.3580600">
    <ele>2611.1</ele>
    <time>2026-06-24T06:14:36Z</time>
   </trkpt>
   <trkpt lat="-3.1788510" lon="37.3580600">
    <ele>2611.0</ele>
    <time>2026-06-24T06:14:37Z</time>
   </trkpt>
   <trkpt lat="-3.1788550" lon="37.3580560">
    <ele>2610.9</ele>
    <time>2026-06-24T06:14:38Z</time>
   </trkpt>
   <trkpt lat="-3.1788520" lon="37.3580420">
    <ele>2610.6</ele>
    <time>2026-06-24T06:14:39Z</time>
   </trkpt>
   <trkpt lat="-3.1788610" lon="37.3580360">
    <ele>2610.4</ele>
    <time>2026-06-24T06:14:40Z</time>
   </trkpt>
   <trkpt lat="-3.1788630" lon="37.3580320">
    <ele>2610.3</ele>
    <time>2026-06-24T06:14:41Z</time>
   </trkpt>
   <trkpt lat="-3.1788680" lon="37.3580240">
    <ele>2610.1</ele>
    <time>2026-06-24T06:14:42Z</time>
   </trkpt>
   <trkpt lat="-3.1788700" lon="37.3580230">
    <ele>2610.1</ele>
    <time>2026-06-24T06:14:43Z</time>
   </trkpt>
   <trkpt lat="-3.1788690" lon="37.3580150">
    <ele>2609.9</ele>
    <time>2026-06-24T06:14:44Z</time>
   </trkpt>
   <trkpt lat="-3.1788760" lon="37.3580040">
    <ele>2609.7</ele>
    <time>2026-06-24T06:14:45Z</time>
   </trkpt>
   <trkpt lat="-3.1788820" lon="37.3579960">
    <ele>2609.5</ele>
    <time>2026-06-24T06:14:46Z</time>
   </trkpt>
   <trkpt lat="-3.1788930" lon="37.3579850">
    <ele>2609.2</ele>
    <time>2026-06-24T06:14:47Z</time>
   </trkpt>
   <trkpt lat="-3.1788980" lon="37.3579800">
    <ele>2609.0</ele>
    <time>2026-06-24T06:14:48Z</time>
   </trkpt>
   <trkpt lat="-3.1789090" lon="37.3579790">
    <ele>2608.8</ele>
    <time>2026-06-24T06:14:49Z</time>
   </trkpt>
   <trkpt lat="-3.1789120" lon="37.3579740">
    <ele>2608.7</ele>
    <time>2026-06-24T06:14:50Z</time>
   </trkpt>
   <trkpt lat="-3.1789220" lon="37.3579760">
    <ele>2608.5</ele>
    <time>2026-06-24T06:14:51Z</time>
   </trkpt>
   <trkpt lat="-3.1789310" lon="37.3579790">
    <ele>2608.3</ele>
    <time>2026-06-24T06:14:52Z</time>
   </trkpt>
   <trkpt lat="-3.1789390" lon="37.3579770">
    <ele>2608.1</ele>
    <time>2026-06-24T06:14:53Z</time>
   </trkpt>
   <trkpt lat="-3.1789480" lon="37.3579740">
    <ele>2607.9</ele>
    <time>2026-06-24T06:14:54Z</time>
   </trkpt>
   <trkpt lat="-3.1789540" lon="37.3579700">
    <ele>2607.8</ele>
    <time>2026-06-24T06:14:55Z</time>
   </trkpt>
   <trkpt lat="-3.1789660" lon="37.3579690">
    <ele>2607.5</ele>
    <time>2026-06-24T06:14:56Z</time>
   </trkpt>
   <trkpt lat="-3.1789800" lon="37.3579660">
    <ele>2607.2</ele>
    <time>2026-06-24T06:14:57Z</time>
   </trkpt>
   <trkpt lat="-3.1789840" lon="37.3579650">
    <ele>2607.2</ele>
    <time>2026-06-24T06:14:58Z</time>
   </trkpt>
   <trkpt lat="-3.1789890" lon="37.3579650">
    <ele>2607.1</ele>
    <time>2026-06-24T06:14:59Z</time>
   </trkpt>
   <trkpt lat="-3.1790000" lon="37.3579680">
    <ele>2606.8</ele>
    <time>2026-06-24T06:15:00Z</time>
   </trkpt>
   <trkpt lat="-3.1790080" lon="37.3579670">
    <ele>2606.7</ele>
    <time>2026-06-24T06:15:01Z</time>
   </trkpt>
   <trkpt lat="-3.1790180" lon="37.3579690">
    <ele>2606.5</ele>
    <time>2026-06-24T06:15:02Z</time>
   </trkpt>
   <trkpt lat="-3.1790280" lon="37.3579650">
    <ele>2606.2</ele>
    <time>2026-06-24T06:15:03Z</time>
   </trkpt>
   <trkpt lat="-3.1790380" lon="37.3579640">
    <ele>2606.0</ele>
    <time>2026-06-24T06:15:04Z</time>
   </trkpt>
   <trkpt lat="-3.1790470" lon="37.3579640">
    <ele>2605.8</ele>
    <time>2026-06-24T06:15:05Z</time>
   </trkpt>
   <trkpt lat="-3.1790580" lon="37.3579620">
    <ele>2605.6</ele>
    <time>2026-06-24T06:15:06Z</time>
   </trkpt>
   <trkpt lat="-3.1790640" lon="37.3579620">
    <ele>2605.5</ele>
    <time>2026-06-24T06:15:07Z</time>
   </trkpt>
   <trkpt lat="-3.1790670" lon="37.3579600">
    <ele>2605.4</ele>
    <time>2026-06-24T06:15:08Z</time>
   </trkpt>
   <trkpt lat="-3.1790760" lon="37.3579560">
    <ele>2605.2</ele>
    <time>2026-06-24T06:15:09Z</time>
   </trkpt>
   <trkpt lat="-3.1790880" lon="37.3579500">
    <ele>2604.9</ele>
    <time>2026-06-24T06:15:10Z</time>
   </trkpt>
   <trkpt lat="-3.1791010" lon="37.3579480">
    <ele>2604.7</ele>
    <time>2026-06-24T06:15:11Z</time>
   </trkpt>
   <trkpt lat="-3.1791120" lon="37.3579450">
    <ele>2604.4</ele>
    <time>2026-06-24T06:15:12Z</time>
   </trkpt>
   <trkpt lat="-3.1791180" lon="37.3579450">
    <ele>2604.3</ele>
    <time>2026-06-24T06:15:13Z</time>
   </trkpt>
   <trkpt lat="-3.1791290" lon="37.3579440">
    <ele>2604.1</ele>
    <time>2026-06-24T06:15:14Z</time>
   </trkpt>
   <trkpt lat="-3.1791340" lon="37.3579370">
    <ele>2603.9</ele>
    <time>2026-06-24T06:15:15Z</time>
   </trkpt>
   <trkpt lat="-3.1791440" lon="37.3579300">
    <ele>2603.6</ele>
    <time>2026-06-24T06:15:16Z</time>
   </trkpt>
   <trkpt lat="-3.1791470" lon="37.3579290">
    <ele>2603.5</ele>
    <time>2026-06-24T06:15:17Z</time>
   </trkpt>
   <trkpt lat="-3.1791590" lon="37.3579300">
    <ele>2603.3</ele>
    <time>2026-06-24T06:15:18Z</time>
   </trkpt>
   <trkpt lat="-3.1791720" lon="37.3579200">
    <ele>2602.9</ele>
    <time>2026-06-24T06:15:19Z</time>
   </trkpt>
   <trkpt lat="-3.1791780" lon="37.3579170">
    <ele>2602.8</ele>
    <time>2026-06-24T06:15:20Z</time>
   </trkpt>
   <trkpt lat="-3.1791880" lon="37.3579120">
    <ele>2602.5</ele>
    <time>2026-06-24T06:15:21Z</time>
   </trkpt>
   <trkpt lat="-3.1791920" lon="37.3579150">
    <ele>2602.4</ele>
    <time>2026-06-24T06:15:22Z</time>
   </trkpt>
   <trkpt lat="-3.1791960" lon="37.3579220">
    <ele>2602.3</ele>
    <time>2026-06-24T06:15:23Z</time>
   </trkpt>
   <trkpt lat="-3.1792040" lon="37.3579200">
    <ele>2602.1</ele>
    <time>2026-06-24T06:15:24Z</time>
   </trkpt>
   <trkpt lat="-3.1792080" lon="37.3579180">
    <ele>2602.0</ele>
    <time>2026-06-24T06:15:25Z</time>
   </trkpt>
   <trkpt lat="-3.1792190" lon="37.3579170">
    <ele>2601.7</ele>
    <time>2026-06-24T06:15:26Z</time>
   </trkpt>
   <trkpt lat="-3.1792270" lon="37.3579160">
    <ele>2601.6</ele>
    <time>2026-06-24T06:15:27Z</time>
   </trkpt>
   <trkpt lat="-3.1792380" lon="37.3579100">
    <ele>2601.3</ele>
    <time>2026-06-24T06:15:28Z</time>
   </trkpt>
   <trkpt lat="-3.1792440" lon="37.3579080">
    <ele>2601.1</ele>
    <time>2026-06-24T06:15:29Z</time>
   </trkpt>
   <trkpt lat="-3.1792490" lon="37.3579080">
    <ele>2601.0</ele>
    <time>2026-06-24T06:15:30Z</time>
   </trkpt>
   <trkpt lat="-3.1792540" lon="37.3579080">
    <ele>2600.9</ele>
    <time>2026-06-24T06:15:31Z</time>
   </trkpt>
   <trkpt lat="-3.1792670" lon="37.3579080">
    <ele>2600.6</ele>
    <time>2026-06-24T06:15:32Z</time>
   </trkpt>
   <trkpt lat="-3.1792780" lon="37.3579040">
    <ele>2600.3</ele>
    <time>2026-06-24T06:15:33Z</time>
   </trkpt>
   <trkpt lat="-3.1792840" lon="37.3578990">
    <ele>2600.2</ele>
    <time>2026-06-24T06:15:34Z</time>
   </trkpt>
   <trkpt lat="-3.1792900" lon="37.3578920">
    <ele>2599.9</ele>
    <time>2026-06-24T06:15:35Z</time>
   </trkpt>
   <trkpt lat="-3.1792950" lon="37.3578940">
    <ele>2599.8</ele>
    <time>2026-06-24T06:15:36Z</time>
   </trkpt>
   <trkpt lat="-3.1793060" lon="37.3578960">
    <ele>2599.6</ele>
    <time>2026-06-24T06:15:37Z</time>
   </trkpt>
   <trkpt lat="-3.1793180" lon="37.3578890">
    <ele>2599.2</ele>
    <time>2026-06-24T06:15:38Z</time>
   </trkpt>
   <trkpt lat="-3.1793270" lon="37.3578880">
    <ele>2599.0</ele>
    <time>2026-06-24T06:15:39Z</time>
   </trkpt>
   <trkpt lat="-3.1793340" lon="37.3578910">
    <ele>2598.8</ele>
    <time>2026-06-24T06:15:40Z</time>
   </trkpt>
   <trkpt lat="-3.1793410" lon="37.3578930">
    <ele>2598.7</ele>
    <time>2026-06-24T06:15:41Z</time>
   </trkpt>
   <trkpt lat="-3.1793470" lon="37.3578960">
    <ele>2598.5</ele>
    <time>2026-06-24T06:15:42Z</time>
   </trkpt>
   <trkpt lat="-3.1793570" lon="37.3578950">
    <ele>2598.2</ele>
    <time>2026-06-24T06:15:43Z</time>
   </trkpt>
   <trkpt lat="-3.1793630" lon="37.3578940">
    <ele>2598.1</ele>
    <time>2026-06-24T06:15:44Z</time>
   </trkpt>
   <trkpt lat="-3.1793720" lon="37.3578970">
    <ele>2597.9</ele>
    <time>2026-06-24T06:15:45Z</time>
   </trkpt>
   <trkpt lat="-3.1793810" lon="37.3578990">
    <ele>2597.7</ele>
    <time>2026-06-24T06:15:46Z</time>
   </trkpt>
   <trkpt lat="-3.1793910" lon="37.3578970">
    <ele>2597.4</ele>
    <time>2026-06-24T06:15:47Z</time>
   </trkpt>
   <trkpt lat="-3.1793960" lon="37.3579010">
    <ele>2597.3</ele>
    <time>2026-06-24T06:15:49Z</time>
   </trkpt>
   <trkpt lat="-3.1794050" lon="37.3579060">
    <ele>2597.0</ele>
    <time>2026-06-24T06:15:50Z</time>
   </trkpt>
   <trkpt lat="-3.1794160" lon="37.3579070">
    <ele>2596.7</ele>
    <time>2026-06-24T06:15:51Z</time>
   </trkpt>
   <trkpt lat="-3.1794260" lon="37.3579070">
    <ele>2596.5</ele>
    <time>2026-06-24T06:15:52Z</time>
   </trkpt>
   <trkpt lat="-3.1794340" lon="37.3579140">
    <ele>2596.2</ele>
    <time>2026-06-24T06:15:53Z</time>
   </trkpt>
   <trkpt lat="-3.1794430" lon="37.3579130">
    <ele>2596.0</ele>
    <time>2026-06-24T06:15:54Z</time>
   </trkpt>
   <trkpt lat="-3.1794500" lon="37.3579150">
    <ele>2595.8</ele>
    <time>2026-06-24T06:15:55Z</time>
   </trkpt>
   <trkpt lat="-3.1794540" lon="37.3579150">
    <ele>2595.8</ele>
    <time>2026-06-24T06:15:56Z</time>
   </trkpt>
   <trkpt lat="-3.1794540" lon="37.3579240">
    <ele>2595.5</ele>
    <time>2026-06-24T06:15:57Z</time>
   </trkpt>
   <trkpt lat="-3.1794620" lon="37.3579250">
    <ele>2595.3</ele>
    <time>2026-06-24T06:15:58Z</time>
   </trkpt>
   <trkpt lat="-3.1794680" lon="37.3579300">
    <ele>2595.2</ele>
    <time>2026-06-24T06:15:59Z</time>
   </trkpt>
   <trkpt lat="-3.1794660" lon="37.3579300">
    <ele>2595.1</ele>
    <time>2026-06-24T06:16:00Z</time>
   </trkpt>
   <trkpt lat="-3.1794690" lon="37.3579320">
    <ele>2595.0</ele>
    <time>2026-06-24T06:16:01Z</time>
   </trkpt>
   <trkpt lat="-3.1794700" lon="37.3579330">
    <ele>2595.0</ele>
    <time>2026-06-24T06:16:02Z</time>
   </trkpt>
   <trkpt lat="-3.1794760" lon="37.3579320">
    <ele>2594.8</ele>
    <time>2026-06-24T06:16:03Z</time>
   </trkpt>
   <trkpt lat="-3.1794750" lon="37.3579320">
    <ele>2594.8</ele>
    <time>2026-06-24T06:16:04Z</time>
   </trkpt>
   <trkpt lat="-3.1794810" lon="37.3579340">
    <ele>2594.7</ele>
    <time>2026-06-24T06:16:05Z</time>
   </trkpt>
   <trkpt lat="-3.1794850" lon="37.3579360">
    <ele>2594.6</ele>
    <time>2026-06-24T06:16:06Z</time>
   </trkpt>
   <trkpt lat="-3.1794860" lon="37.3579390">
    <ele>2594.5</ele>
    <time>2026-06-24T06:16:07Z</time>
   </trkpt>
   <trkpt lat="-3.1794970" lon="37.3579390">
    <ele>2594.2</ele>
    <time>2026-06-24T06:16:08Z</time>
   </trkpt>
   <trkpt lat="-3.1794960" lon="37.3579420">
    <ele>2594.2</ele>
    <time>2026-06-24T06:16:09Z</time>
   </trkpt>
   <trkpt lat="-3.1794970" lon="37.3579420">
    <ele>2594.1</ele>
    <time>2026-06-24T06:16:10Z</time>
   </trkpt>
   <trkpt lat="-3.1795030" lon="37.3579430">
    <ele>2594.0</ele>
    <time>2026-06-24T06:16:11Z</time>
   </trkpt>
   <trkpt lat="-3.1795120" lon="37.3579430">
    <ele>2593.8</ele>
    <time>2026-06-24T06:16:12Z</time>
   </trkpt>
   <trkpt lat="-3.1795130" lon="37.3579460">
    <ele>2593.7</ele>
    <time>2026-06-24T06:16:13Z</time>
   </trkpt>
   <trkpt lat="-3.1795160" lon="37.3579420">
    <ele>2593.6</ele>
    <time>2026-06-24T06:16:14Z</time>
   </trkpt>
   <trkpt lat="-3.1795250" lon="37.3579470">
    <ele>2593.4</ele>
    <time>2026-06-24T06:16:15Z</time>
   </trkpt>
   <trkpt lat="-3.1795260" lon="37.3579480">
    <ele>2593.3</ele>
    <time>2026-06-24T06:16:16Z</time>
   </trkpt>
   <trkpt lat="-3.1795290" lon="37.3579520">
    <ele>2593.2</ele>
    <time>2026-06-24T06:16:17Z</time>
   </trkpt>
   <trkpt lat="-3.1795360" lon="37.3579570">
    <ele>2593.0</ele>
    <time>2026-06-24T06:16:18Z</time>
   </trkpt>
   <trkpt lat="-3.1795380" lon="37.3579610">
    <ele>2592.9</ele>
    <time>2026-06-24T06:16:19Z</time>
   </trkpt>
   <trkpt lat="-3.1795390" lon="37.3579590">
    <ele>2592.9</ele>
    <time>2026-06-24T06:16:20Z</time>
   </trkpt>
   <trkpt lat="-3.1795430" lon="37.3579650">
    <ele>2592.7</ele>
    <time>2026-06-24T06:16:21Z</time>
   </trkpt>
   <trkpt lat="-3.1795460" lon="37.3579690">
    <ele>2592.6</ele>
    <time>2026-06-24T06:16:22Z</time>
   </trkpt>
   <trkpt lat="-3.1795520" lon="37.3579700">
    <ele>2592.4</ele>
    <time>2026-06-24T06:16:23Z</time>
   </trkpt>
   <trkpt lat="-3.1795600" lon="37.3579700">
    <ele>2592.3</ele>
    <time>2026-06-24T06:16:24Z</time>
   </trkpt>
   <trkpt lat="-3.1795660" lon="37.3579680">
    <ele>2592.1</ele>
    <time>2026-06-24T06:16:25Z</time>
   </trkpt>
   <trkpt lat="-3.1795730" lon="37.3579670">
    <ele>2591.9</ele>
    <time>2026-06-24T06:16:26Z</time>
   </trkpt>
   <trkpt lat="-3.1795790" lon="37.3579730">
    <ele>2591.7</ele>
    <time>2026-06-24T06:16:27Z</time>
   </trkpt>
   <trkpt lat="-3.1795870" lon="37.3579670">
    <ele>2591.5</ele>
    <time>2026-06-24T06:16:28Z</time>
   </trkpt>
   <trkpt lat="-3.1795890" lon="37.3579690">
    <ele>2591.5</ele>
    <time>2026-06-24T06:16:29Z</time>
   </trkpt>
   <trkpt lat="-3.1795920" lon="37.3579730">
    <ele>2591.4</ele>
    <time>2026-06-24T06:16:30Z</time>
   </trkpt>
   <trkpt lat="-3.1796000" lon="37.3579740">
    <ele>2591.2</ele>
    <time>2026-06-24T06:16:31Z</time>
   </trkpt>
   <trkpt lat="-3.1796070" lon="37.3579760">
    <ele>2591.0</ele>
    <time>2026-06-24T06:16:32Z</time>
   </trkpt>
   <trkpt lat="-3.1796180" lon="37.3579780">
    <ele>2590.8</ele>
    <time>2026-06-24T06:16:33Z</time>
   </trkpt>
   <trkpt lat="-3.1796210" lon="37.3579820">
    <ele>2590.7</ele>
    <time>2026-06-24T06:16:34Z</time>
   </trkpt>
   <trkpt lat="-3.1796290" lon="37.3579860">
    <ele>2590.5</ele>
    <time>2026-06-24T06:16:35Z</time>
   </trkpt>
   <trkpt lat="-3.1796360" lon="37.3579850">
    <ele>2590.3</ele>
    <time>2026-06-24T06:16:36Z</time>
   </trkpt>
   <trkpt lat="-3.1796420" lon="37.3579890">
    <ele>2590.2</ele>
    <time>2026-06-24T06:16:37Z</time>
   </trkpt>
   <trkpt lat="-3.1796460" lon="37.3579920">
    <ele>2590.1</ele>
    <time>2026-06-24T06:16:38Z</time>
   </trkpt>
   <trkpt lat="-3.1796540" lon="37.3579930">
    <ele>2589.9</ele>
    <time>2026-06-24T06:16:39Z</time>
   </trkpt>
   <trkpt lat="-3.1796600" lon="37.3579960">
    <ele>2589.8</ele>
    <time>2026-06-24T06:16:40Z</time>
   </trkpt>
   <trkpt lat="-3.1796670" lon="37.3579970">
    <ele>2589.7</ele>
    <time>2026-06-24T06:16:41Z</time>
   </trkpt>
   <trkpt lat="-3.1796750" lon="37.3579960">
    <ele>2589.5</ele>
    <time>2026-06-24T06:16:42Z</time>
   </trkpt>
   <trkpt lat="-3.1796830" lon="37.3579910">
    <ele>2589.3</ele>
    <time>2026-06-24T06:16:43Z</time>
   </trkpt>
   <trkpt lat="-3.1796880" lon="37.3579860">
    <ele>2589.2</ele>
    <time>2026-06-24T06:16:44Z</time>
   </trkpt>
   <trkpt lat="-3.1797010" lon="37.3579800">
    <ele>2588.9</ele>
    <time>2026-06-24T06:16:45Z</time>
   </trkpt>
   <trkpt lat="-3.1797080" lon="37.3579800">
    <ele>2588.7</ele>
    <time>2026-06-24T06:16:46Z</time>
   </trkpt>
   <trkpt lat="-3.1797160" lon="37.3579770">
    <ele>2588.6</ele>
    <time>2026-06-24T06:16:47Z</time>
   </trkpt>
   <trkpt lat="-3.1797270" lon="37.3579720">
    <ele>2588.3</ele>
    <time>2026-06-24T06:16:48Z</time>
   </trkpt>
   <trkpt lat="-3.1797330" lon="37.3579650">
    <ele>2588.2</ele>
    <time>2026-06-24T06:16:49Z</time>
   </trkpt>
   <trkpt lat="-3.1797380" lon="37.3579580">
    <ele>2588.0</ele>
    <time>2026-06-24T06:16:50Z</time>
   </trkpt>
   <trkpt lat="-3.1797430" lon="37.3579510">
    <ele>2587.8</ele>
    <time>2026-06-24T06:16:51Z</time>
   </trkpt>
   <trkpt lat="-3.1797480" lon="37.3579470">
    <ele>2587.7</ele>
    <time>2026-06-24T06:16:52Z</time>
   </trkpt>
   <trkpt lat="-3.1797560" lon="37.3579430">
    <ele>2587.6</ele>
    <time>2026-06-24T06:16:53Z</time>
   </trkpt>
   <trkpt lat="-3.1797680" lon="37.3579380">
    <ele>2587.3</ele>
    <time>2026-06-24T06:16:54Z</time>
   </trkpt>
   <trkpt lat="-3.1797760" lon="37.3579290">
    <ele>2587.1</ele>
    <time>2026-06-24T06:16:55Z</time>
   </trkpt>
   <trkpt lat="-3.1797800" lon="37.3579240">
    <ele>2587.0</ele>
    <time>2026-06-24T06:16:56Z</time>
   </trkpt>
   <trkpt lat="-3.1797880" lon="37.3579200">
    <ele>2586.8</ele>
    <time>2026-06-24T06:16:57Z</time>
   </trkpt>
   <trkpt lat="-3.1797900" lon="37.3579190">
    <ele>2586.8</ele>
    <time>2026-06-24T06:16:58Z</time>
   </trkpt>
   <trkpt lat="-3.1797870" lon="37.3579190">
    <ele>2586.8</ele>
    <time>2026-06-24T06:16:59Z</time>
   </trkpt>
   <trkpt lat="-3.1797980" lon="37.3579130">
    <ele>2586.5</ele>
    <time>2026-06-24T06:17:00Z</time>
   </trkpt>
   <trkpt lat="-3.1798030" lon="37.3579100">
    <ele>2586.4</ele>
    <time>2026-06-24T06:17:01Z</time>
   </trkpt>
   <trkpt lat="-3.1798080" lon="37.3579170">
    <ele>2586.3</ele>
    <time>2026-06-24T06:17:02Z</time>
   </trkpt>
   <trkpt lat="-3.1798160" lon="37.3579140">
    <ele>2586.2</ele>
    <time>2026-06-24T06:17:03Z</time>
   </trkpt>
   <trkpt lat="-3.1798260" lon="37.3579100">
    <ele>2586.0</ele>
    <time>2026-06-24T06:17:04Z</time>
   </trkpt>
   <trkpt lat="-3.1798310" lon="37.3579150">
    <ele>2585.9</ele>
    <time>2026-06-24T06:17:05Z</time>
   </trkpt>
   <trkpt lat="-3.1798360" lon="37.3579150">
    <ele>2585.8</ele>
    <time>2026-06-24T06:17:06Z</time>
   </trkpt>
   <trkpt lat="-3.1798430" lon="37.3579120">
    <ele>2585.7</ele>
    <time>2026-06-24T06:17:07Z</time>
   </trkpt>
   <trkpt lat="-3.1798510" lon="37.3579120">
    <ele>2585.5</ele>
    <time>2026-06-24T06:17:08Z</time>
   </trkpt>
   <trkpt lat="-3.1798550" lon="37.3579160">
    <ele>2585.4</ele>
    <time>2026-06-24T06:17:09Z</time>
   </trkpt>
   <trkpt lat="-3.1798530" lon="37.3579170">
    <ele>2585.4</ele>
    <time>2026-06-24T06:17:10Z</time>
   </trkpt>
   <trkpt lat="-3.1798470" lon="37.3579200">
    <ele>2585.3</ele>
    <time>2026-06-24T06:17:11Z</time>
   </trkpt>
   <trkpt lat="-3.1798470" lon="37.3579200">
    <ele>2585.3</ele>
    <time>2026-06-24T06:17:12Z</time>
   </trkpt>
   <trkpt lat="-3.1798470" lon="37.3579200">
    <ele>2585.3</ele>
    <time>2026-06-24T06:17:13Z</time>
   </trkpt>
   <trkpt lat="-3.1798470" lon="37.3579200">
    <ele>2585.3</ele>
    <time>2026-06-24T06:17:14Z</time>
   </trkpt>
   <trkpt lat="-3.1798470" lon="37.3579200">
    <ele>2585.3</ele>
    <time>2026-06-24T06:17:15Z</time>
   </trkpt>
   <trkpt lat="-3.1798380" lon="37.3579200">
    <ele>2585.2</ele>
    <time>2026-06-24T06:17:16Z</time>
   </trkpt>
   <trkpt lat="-3.1798380" lon="37.3579240">
    <ele>2585.1</ele>
    <time>2026-06-24T06:17:17Z</time>
   </trkpt>
   <trkpt lat="-3.1798390" lon="37.3579260">
    <ele>2585.1</ele>
    <time>2026-06-24T06:17:18Z</time>
   </trkpt>
   <trkpt lat="-3.1798420" lon="37.3579250">
    <ele>2585.0</ele>
    <time>2026-06-24T06:17:19Z</time>
   </trkpt>
   <trkpt lat="-3.1798460" lon="37.3579260">
    <ele>2585.0</ele>
    <time>2026-06-24T06:17:20Z</time>
   </trkpt>
   <trkpt lat="-3.1798490" lon="37.3579280">
    <ele>2584.9</ele>
    <time>2026-06-24T06:17:21Z</time>
   </trkpt>
   <trkpt lat="-3.1798490" lon="37.3579280">
    <ele>2584.9</ele>
    <time>2026-06-24T06:17:22Z</time>
   </trkpt>
   <trkpt lat="-3.1798470" lon="37.3579370">
    <ele>2584.8</ele>
    <time>2026-06-24T06:17:23Z</time>
   </trkpt>
   <trkpt lat="-3.1798490" lon="37.3579380">
    <ele>2584.7</ele>
    <time>2026-06-24T06:17:24Z</time>
   </trkpt>
   <trkpt lat="-3.1798560" lon="37.3579390">
    <ele>2584.6</ele>
    <time>2026-06-24T06:17:25Z</time>
   </trkpt>
   <trkpt lat="-3.1798670" lon="37.3579400">
    <ele>2584.5</ele>
    <time>2026-06-24T06:17:26Z</time>
   </trkpt>
   <trkpt lat="-3.1798740" lon="37.3579460">
    <ele>2584.4</ele>
    <time>2026-06-24T06:17:27Z</time>
   </trkpt>
   <trkpt lat="-3.1798790" lon="37.3579430">
    <ele>2584.3</ele>
    <time>2026-06-24T06:17:28Z</time>
   </trkpt>
   <trkpt lat="-3.1798870" lon="37.3579420">
    <ele>2584.2</ele>
    <time>2026-06-24T06:17:29Z</time>
   </trkpt>
   <trkpt lat="-3.1798960" lon="37.3579410">
    <ele>2584.0</ele>
    <time>2026-06-24T06:17:30Z</time>
   </trkpt>
   <trkpt lat="-3.1798940" lon="37.3579440">
    <ele>2584.0</ele>
    <time>2026-06-24T06:17:31Z</time>
   </trkpt>
   <trkpt lat="-3.1799020" lon="37.3579450">
    <ele>2583.9</ele>
    <time>2026-06-24T06:17:32Z</time>
   </trkpt>
   <trkpt lat="-3.1799110" lon="37.3579460">
    <ele>2583.7</ele>
    <time>2026-06-24T06:17:33Z</time>
   </trkpt>
   <trkpt lat="-3.1799220" lon="37.3579470">
    <ele>2583.6</ele>
    <time>2026-06-24T06:17:34Z</time>
   </trkpt>
   <trkpt lat="-3.1799270" lon="37.3579470">
    <ele>2583.5</ele>
    <time>2026-06-24T06:17:35Z</time>
   </trkpt>
   <trkpt lat="-3.1799290" lon="37.3579500">
    <ele>2583.5</ele>
    <time>2026-06-24T06:17:36Z</time>
   </trkpt>
   <trkpt lat="-3.1799310" lon="37.3579550">
    <ele>2583.4</ele>
    <time>2026-06-24T06:17:37Z</time>
   </trkpt>
   <trkpt lat="-3.1799380" lon="37.3579580">
    <ele>2583.3</ele>
    <time>2026-06-24T06:17:38Z</time>
   </trkpt>
   <trkpt lat="-3.1799420" lon="37.3579560">
    <ele>2583.3</ele>
    <time>2026-06-24T06:17:39Z</time>
   </trkpt>
   <trkpt lat="-3.1799420" lon="37.3579570">
    <ele>2583.3</ele>
    <time>2026-06-24T06:17:40Z</time>
   </trkpt>
   <trkpt lat="-3.1799440" lon="37.3579570">
    <ele>2583.2</ele>
    <time>2026-06-24T06:17:41Z</time>
   </trkpt>
   <trkpt lat="-3.1799570" lon="37.3579560">
    <ele>2583.1</ele>
    <time>2026-06-24T06:17:42Z</time>
   </trkpt>
   <trkpt lat="-3.1799640" lon="37.3579530">
    <ele>2583.0</ele>
    <time>2026-06-24T06:17:43Z</time>
   </trkpt>
   <trkpt lat="-3.1799750" lon="37.3579540">
    <ele>2582.8</ele>
    <time>2026-06-24T06:17:44Z</time>
   </trkpt>
   <trkpt lat="-3.1799850" lon="37.3579550">
    <ele>2582.7</ele>
    <time>2026-06-24T06:17:45Z</time>
   </trkpt>
   <trkpt lat="-3.1799930" lon="37.3579580">
    <ele>2582.6</ele>
    <time>2026-06-24T06:17:46Z</time>
   </trkpt>
   <trkpt lat="-3.1800010" lon="37.3579610">
    <ele>2582.5</ele>
    <time>2026-06-24T06:17:47Z</time>
   </trkpt>
   <trkpt lat="-3.1800090" lon="37.3579620">
    <ele>2582.4</ele>
    <time>2026-06-24T06:17:48Z</time>
   </trkpt>
   <trkpt lat="-3.1800130" lon="37.3579670">
    <ele>2582.3</ele>
    <time>2026-06-24T06:17:49Z</time>
   </trkpt>
   <trkpt lat="-3.1800150" lon="37.3579700">
    <ele>2582.3</ele>
    <time>2026-06-24T06:17:50Z</time>
   </trkpt>
   <trkpt lat="-3.1800240" lon="37.3579730">
    <ele>2582.2</ele>
    <time>2026-06-24T06:17:51Z</time>
   </trkpt>
   <trkpt lat="-3.1800320" lon="37.3579730">
    <ele>2582.1</ele>
    <time>2026-06-24T06:17:52Z</time>
   </trkpt>
   <trkpt lat="-3.1800390" lon="37.3579690">
    <ele>2582.0</ele>
    <time>2026-06-24T06:17:53Z</time>
   </trkpt>
   <trkpt lat="-3.1800430" lon="37.3579710">
    <ele>2581.9</ele>
    <time>2026-06-24T06:17:55Z</time>
   </trkpt>
   <trkpt lat="-3.1800510" lon="37.3579680">
    <ele>2581.8</ele>
    <time>2026-06-24T06:17:56Z</time>
   </trkpt>
   <trkpt lat="-3.1800600" lon="37.3579660">
    <ele>2581.7</ele>
    <time>2026-06-24T06:17:57Z</time>
   </trkpt>
   <trkpt lat="-3.1800660" lon="37.3579650">
    <ele>2581.6</ele>
    <time>2026-06-24T06:17:58Z</time>
   </trkpt>
   <trkpt lat="-3.1800720" lon="37.3579640">
    <ele>2581.6</ele>
    <time>2026-06-24T06:17:59Z</time>
   </trkpt>
   <trkpt lat="-3.1800830" lon="37.3579590">
    <ele>2581.4</ele>
    <time>2026-06-24T06:18:00Z</time>
   </trkpt>
   <trkpt lat="-3.1800870" lon="37.3579530">
    <ele>2581.3</ele>
    <time>2026-06-24T06:18:01Z</time>
   </trkpt>
   <trkpt lat="-3.1801010" lon="37.3579490">
    <ele>2581.2</ele>
    <time>2026-06-24T06:18:02Z</time>
   </trkpt>
   <trkpt lat="-3.1801110" lon="37.3579500">
    <ele>2581.1</ele>
    <time>2026-06-24T06:18:03Z</time>
   </trkpt>
   <trkpt lat="-3.1801120" lon="37.3579500">
    <ele>2581.0</ele>
    <time>2026-06-24T06:18:04Z</time>
   </trkpt>
   <trkpt lat="-3.1801230" lon="37.3579500">
    <ele>2580.9</ele>
    <time>2026-06-24T06:18:05Z</time>
   </trkpt>
   <trkpt lat="-3.1801290" lon="37.3579450">
    <ele>2580.8</ele>
    <time>2026-06-24T06:18:06Z</time>
   </trkpt>
   <trkpt lat="-3.1801360" lon="37.3579370">
    <ele>2580.7</ele>
    <time>2026-06-24T06:18:07Z</time>
   </trkpt>
   <trkpt lat="-3.1801410" lon="37.3579340">
    <ele>2580.6</ele>
    <time>2026-06-24T06:18:08Z</time>
   </trkpt>
   <trkpt lat="-3.1801460" lon="37.3579340">
    <ele>2580.6</ele>
    <time>2026-06-24T06:18:09Z</time>
   </trkpt>
   <trkpt lat="-3.1801490" lon="37.3579330">
    <ele>2580.5</ele>
    <time>2026-06-24T06:18:10Z</time>
   </trkpt>
   <trkpt lat="-3.1801570" lon="37.3579320">
    <ele>2580.5</ele>
    <time>2026-06-24T06:18:11Z</time>
   </trkpt>
   <trkpt lat="-3.1801610" lon="37.3579270">
    <ele>2580.4</ele>
    <time>2026-06-24T06:18:12Z</time>
   </trkpt>
   <trkpt lat="-3.1801610" lon="37.3579300">
    <ele>2580.3</ele>
    <time>2026-06-24T06:18:13Z</time>
   </trkpt>
   <trkpt lat="-3.1801620" lon="37.3579310">
    <ele>2580.3</ele>
    <time>2026-06-24T06:18:14Z</time>
   </trkpt>
   <trkpt lat="-3.1801640" lon="37.3579290">
    <ele>2580.3</ele>
    <time>2026-06-24T06:18:15Z</time>
   </trkpt>
   <trkpt lat="-3.1801710" lon="37.3579280">
    <ele>2580.2</ele>
    <time>2026-06-24T06:18:16Z</time>
   </trkpt>
   <trkpt lat="-3.1801720" lon="37.3579270">
    <ele>2580.2</ele>
    <time>2026-06-24T06:18:17Z</time>
   </trkpt>
   <trkpt lat="-3.1801690" lon="37.3579240">
    <ele>2580.1</ele>
    <time>2026-06-24T06:18:18Z</time>
   </trkpt>
   <trkpt lat="-3.1801730" lon="37.3579310">
    <ele>2580.1</ele>
    <time>2026-06-24T06:18:19Z</time>
   </trkpt>
   <trkpt lat="-3.1801760" lon="37.3579270">
    <ele>2580.0</ele>
    <time>2026-06-24T06:18:20Z</time>
   </trkpt>
   <trkpt lat="-3.1801810" lon="37.3579270">
    <ele>2579.9</ele>
    <time>2026-06-24T06:18:21Z</time>
   </trkpt>
   <trkpt lat="-3.1801850" lon="37.3579240">
    <ele>2579.9</ele>
    <time>2026-06-24T06:18:22Z</time>
   </trkpt>
   <trkpt lat="-3.1801940" lon="37.3579190">
    <ele>2579.8</ele>
    <time>2026-06-24T06:18:23Z</time>
   </trkpt>
   <trkpt lat="-3.1801930" lon="37.3579160">
    <ele>2579.7</ele>
    <time>2026-06-24T06:18:24Z</time>
   </trkpt>
   <trkpt lat="-3.1801910" lon="37.3579150">
    <ele>2579.7</ele>
    <time>2026-06-24T06:18:25Z</time>
   </trkpt>
   <trkpt lat="-3.1801980" lon="37.3579140">
    <ele>2579.6</ele>
    <time>2026-06-24T06:18:26Z</time>
   </trkpt>
   <trkpt lat="-3.1802010" lon="37.3579170">
    <ele>2579.6</ele>
    <time>2026-06-24T06:18:27Z</time>
   </trkpt>
   <trkpt lat="-3.1802080" lon="37.3579210">
    <ele>2579.5</ele>
    <time>2026-06-24T06:18:28Z</time>
   </trkpt>
   <trkpt lat="-3.1802120" lon="37.3579260">
    <ele>2579.4</ele>
    <time>2026-06-24T06:18:29Z</time>
   </trkpt>
   <trkpt lat="-3.1802150" lon="37.3579270">
    <ele>2579.4</ele>
    <time>2026-06-24T06:18:30Z</time>
   </trkpt>
   <trkpt lat="-3.1802170" lon="37.3579220">
    <ele>2579.3</ele>
    <time>2026-06-24T06:18:31Z</time>
   </trkpt>
   <trkpt lat="-3.1802140" lon="37.3579270">
    <ele>2579.2</ele>
    <time>2026-06-24T06:18:32Z</time>
   </trkpt>
   <trkpt lat="-3.1802220" lon="37.3579220">
    <ele>2579.1</ele>
    <time>2026-06-24T06:18:33Z</time>
   </trkpt>
   <trkpt lat="-3.1802240" lon="37.3579130">
    <ele>2579.0</ele>
    <time>2026-06-24T06:18:34Z</time>
   </trkpt>
   <trkpt lat="-3.1802310" lon="37.3579120">
    <ele>2578.9</ele>
    <time>2026-06-24T06:18:35Z</time>
   </trkpt>
   <trkpt lat="-3.1802340" lon="37.3579100">
    <ele>2578.9</ele>
    <time>2026-06-24T06:18:36Z</time>
   </trkpt>
   <trkpt lat="-3.1802340" lon="37.3579090">
    <ele>2578.9</ele>
    <time>2026-06-24T06:18:37Z</time>
   </trkpt>
   <trkpt lat="-3.1802370" lon="37.3579050">
    <ele>2578.8</ele>
    <time>2026-06-24T06:18:38Z</time>
   </trkpt>
   <trkpt lat="-3.1802420" lon="37.3579010">
    <ele>2578.7</ele>
    <time>2026-06-24T06:18:39Z</time>
   </trkpt>
   <trkpt lat="-3.1802430" lon="37.3578970">
    <ele>2578.7</ele>
    <time>2026-06-24T06:18:40Z</time>
   </trkpt>
   <trkpt lat="-3.1802430" lon="37.3578950">
    <ele>2578.6</ele>
    <time>2026-06-24T06:18:41Z</time>
   </trkpt>
   <trkpt lat="-3.1802510" lon="37.3578910">
    <ele>2578.5</ele>
    <time>2026-06-24T06:18:42Z</time>
   </trkpt>
   <trkpt lat="-3.1802640" lon="37.3578950">
    <ele>2578.4</ele>
    <time>2026-06-24T06:18:43Z</time>
   </trkpt>
   <trkpt lat="-3.1802650" lon="37.3578950">
    <ele>2578.4</ele>
    <time>2026-06-24T06:18:44Z</time>
   </trkpt>
   <trkpt lat="-3.1802700" lon="37.3578980">
    <ele>2578.3</ele>
    <time>2026-06-24T06:18:45Z</time>
   </trkpt>
   <trkpt lat="-3.1802790" lon="37.3578940">
    <ele>2578.1</ele>
    <time>2026-06-24T06:18:46Z</time>
   </trkpt>
   <trkpt lat="-3.1802840" lon="37.3578930">
    <ele>2578.1</ele>
    <time>2026-06-24T06:18:47Z</time>
   </trkpt>
   <trkpt lat="-3.1802820" lon="37.3579000">
    <ele>2578.0</ele>
    <time>2026-06-24T06:18:48Z</time>
   </trkpt>
   <trkpt lat="-3.1802710" lon="37.3579060">
    <ele>2577.8</ele>
    <time>2026-06-24T06:18:49Z</time>
   </trkpt>
   <trkpt lat="-3.1802730" lon="37.3579040">
    <ele>2577.8</ele>
    <time>2026-06-24T06:18:50Z</time>
   </trkpt>
   <trkpt lat="-3.1802700" lon="37.3579070">
    <ele>2577.7</ele>
    <time>2026-06-24T06:18:51Z</time>
   </trkpt>
   <trkpt lat="-3.1802580" lon="37.3579070">
    <ele>2577.5</ele>
    <time>2026-06-24T06:18:52Z</time>
   </trkpt>
   <trkpt lat="-3.1802530" lon="37.3579080">
    <ele>2577.5</ele>
    <time>2026-06-24T06:18:53Z</time>
   </trkpt>
   <trkpt lat="-3.1802490" lon="37.3578990">
    <ele>2577.3</ele>
    <time>2026-06-24T06:18:54Z</time>
   </trkpt>
   <trkpt lat="-3.1802440" lon="37.3578980">
    <ele>2577.2</ele>
    <time>2026-06-24T06:18:55Z</time>
   </trkpt>
   <trkpt lat="-3.1802320" lon="37.3579040">
    <ele>2577.0</ele>
    <time>2026-06-24T06:18:56Z</time>
   </trkpt>
   <trkpt lat="-3.1802200" lon="37.3579070">
    <ele>2576.9</ele>
    <time>2026-06-24T06:18:57Z</time>
   </trkpt>
   <trkpt lat="-3.1802170" lon="37.3579140">
    <ele>2576.7</ele>
    <time>2026-06-24T06:18:58Z</time>
   </trkpt>
   <trkpt lat="-3.1802120" lon="37.3579130">
    <ele>2576.7</ele>
    <time>2026-06-24T06:18:59Z</time>
   </trkpt>
   <trkpt lat="-3.1802050" lon="37.3579220">
    <ele>2576.5</ele>
    <time>2026-06-24T06:19:00Z</time>
   </trkpt>
   <trkpt lat="-3.1802030" lon="37.3579290">
    <ele>2576.4</ele>
    <time>2026-06-24T06:19:01Z</time>
   </trkpt>
   <trkpt lat="-3.1801980" lon="37.3579410">
    <ele>2576.1</ele>
    <time>2026-06-24T06:19:02Z</time>
   </trkpt>
   <trkpt lat="-3.1802010" lon="37.3579460">
    <ele>2576.0</ele>
    <time>2026-06-24T06:19:03Z</time>
   </trkpt>
   <trkpt lat="-3.1802020" lon="37.3579520">
    <ele>2575.9</ele>
    <time>2026-06-24T06:19:04Z</time>
   </trkpt>
   <trkpt lat="-3.1802100" lon="37.3579500">
    <ele>2575.8</ele>
    <time>2026-06-24T06:19:05Z</time>
   </trkpt>
   <trkpt lat="-3.1802140" lon="37.3579490">
    <ele>2575.7</ele>
    <time>2026-06-24T06:19:06Z</time>
   </trkpt>
   <trkpt lat="-3.1802160" lon="37.3579360">
    <ele>2575.5</ele>
    <time>2026-06-24T06:19:07Z</time>
   </trkpt>
   <trkpt lat="-3.1802160" lon="37.3579340">
    <ele>2575.5</ele>
    <time>2026-06-24T06:19:08Z</time>
   </trkpt>
   <trkpt lat="-3.1802230" lon="37.3579320">
    <ele>2575.3</ele>
    <time>2026-06-24T06:19:09Z</time>
   </trkpt>
   <trkpt lat="-3.1802290" lon="37.3579230">
    <ele>2575.1</ele>
    <time>2026-06-24T06:19:10Z</time>
   </trkpt>
   <trkpt lat="-3.1802270" lon="37.3579230">
    <ele>2575.1</ele>
    <time>2026-06-24T06:19:11Z</time>
   </trkpt>
   <trkpt lat="-3.1802230" lon="37.3579240">
    <ele>2575.0</ele>
    <time>2026-06-24T06:19:12Z</time>
   </trkpt>
   <trkpt lat="-3.1802270" lon="37.3579210">
    <ele>2574.9</ele>
    <time>2026-06-24T06:19:13Z</time>
   </trkpt>
   <trkpt lat="-3.1802300" lon="37.3579260">
    <ele>2574.8</ele>
    <time>2026-06-24T06:19:14Z</time>
   </trkpt>
   <trkpt lat="-3.1802310" lon="37.3579300">
    <ele>2574.7</ele>
    <time>2026-06-24T06:19:15Z</time>
   </trkpt>
   <trkpt lat="-3.1802360" lon="37.3579300">
    <ele>2574.6</ele>
    <time>2026-06-24T06:19:16Z</time>
   </trkpt>
   <trkpt lat="-3.1802360" lon="37.3579310">
    <ele>2574.6</ele>
    <time>2026-06-24T06:19:17Z</time>
   </trkpt>
   <trkpt lat="-3.1802360" lon="37.3579310">
    <ele>2574.6</ele>
    <time>2026-06-24T06:19:18Z</time>
   </trkpt>
   <trkpt lat="-3.1802360" lon="37.3579310">
    <ele>2574.6</ele>
    <time>2026-06-24T06:19:19Z</time>
   </trkpt>
   <trkpt lat="-3.1802360" lon="37.3579310">
    <ele>2574.6</ele>
    <time>2026-06-24T06:19:20Z</time>
   </trkpt>
   <trkpt lat="-3.1802360" lon="37.3579310">
    <ele>2574.6</ele>
    <time>2026-06-24T06:19:21Z</time>
   </trkpt>
   <trkpt lat="-3.1802360" lon="37.3579310">
    <ele>2574.6</ele>
    <time>2026-06-24T06:19:22Z</time>
   </trkpt>
   <trkpt lat="-3.1802360" lon="37.3579310">
    <ele>2574.6</ele>
    <time>2026-06-24T06:19:23Z</time>
   </trkpt>
   <trkpt lat="-3.1802360" lon="37.3579310">
    <ele>2574.6</ele>
    <time>2026-06-24T06:19:24Z</time>
   </trkpt>
   <trkpt lat="-3.1802360" lon="37.3579310">
    <ele>2574.6</ele>
    <time>2026-06-24T06:19:25Z</time>
   </trkpt>
   <trkpt lat="-3.1802310" lon="37.3579220">
    <ele>2574.4</ele>
    <time>2026-06-24T06:19:26Z</time>
   </trkpt>
   <trkpt lat="-3.1802290" lon="37.3579180">
    <ele>2574.3</ele>
    <time>2026-06-24T06:19:27Z</time>
   </trkpt>
   <trkpt lat="-3.1802340" lon="37.3579010">
    <ele>2574.0</ele>
    <time>2026-06-24T06:19:28Z</time>
   </trkpt>
   <trkpt lat="-3.1802360" lon="37.3578990">
    <ele>2573.9</ele>
    <time>2026-06-24T06:19:29Z</time>
   </trkpt>
   <trkpt lat="-3.1802360" lon="37.3578990">
    <ele>2573.9</ele>
    <time>2026-06-24T06:19:30Z</time>
   </trkpt>
   <trkpt lat="-3.1802360" lon="37.3578990">
    <ele>2573.9</ele>
    <time>2026-06-24T06:19:31Z</time>
   </trkpt>
   <trkpt lat="-3.1802360" lon="37.3578990">
    <ele>2573.9</ele>
    <time>2026-06-24T06:19:32Z</time>
   </trkpt>
   <trkpt lat="-3.1802360" lon="37.3578990">
    <ele>2573.9</ele>
    <time>2026-06-24T06:19:33Z</time>
   </trkpt>
   <trkpt lat="-3.1802360" lon="37.3578990">
    <ele>2573.9</ele>
    <time>2026-06-24T06:19:34Z</time>
   </trkpt>
   <trkpt lat="-3.1802360" lon="37.3578990">
    <ele>2573.9</ele>
    <time>2026-06-24T06:19:35Z</time>
   </trkpt>
   <trkpt lat="-3.1802360" lon="37.3578990">
    <ele>2573.9</ele>
    <time>2026-06-24T06:19:36Z</time>
   </trkpt>
   <trkpt lat="-3.1802360" lon="37.3578990">
    <ele>2573.9</ele>
    <time>2026-06-24T06:19:37Z</time>
   </trkpt>
   <trkpt lat="-3.1802260" lon="37.3578660">
    <ele>2573.3</ele>
    <time>2026-06-24T06:19:38Z</time>
   </trkpt>
   <trkpt lat="-3.1802270" lon="37.3578650">
    <ele>2573.3</ele>
    <time>2026-06-24T06:19:39Z</time>
   </trkpt>
   <trkpt lat="-3.1802260" lon="37.3578700">
    <ele>2573.2</ele>
    <time>2026-06-24T06:19:40Z</time>
   </trkpt>
   <trkpt lat="-3.1802340" lon="37.3578910">
    <ele>2572.7</ele>
    <time>2026-06-24T06:19:41Z</time>
   </trkpt>
   <trkpt lat="-3.1802350" lon="37.3579010">
    <ele>2572.6</ele>
    <time>2026-06-24T06:19:42Z</time>
   </trkpt>
   <trkpt lat="-3.1802380" lon="37.3579090">
    <ele>2572.4</ele>
    <time>2026-06-24T06:19:43Z</time>
   </trkpt>
   <trkpt lat="-3.1802370" lon="37.3579170">
    <ele>2572.2</ele>
    <time>2026-06-24T06:19:44Z</time>
   </trkpt>
   <trkpt lat="-3.1802290" lon="37.3579260">
    <ele>2572.0</ele>
    <time>2026-06-24T06:19:45Z</time>
   </trkpt>
   <trkpt lat="-3.1802250" lon="37.3579310">
    <ele>2571.9</ele>
    <time>2026-06-24T06:19:46Z</time>
   </trkpt>
   <trkpt lat="-3.1802250" lon="37.3579330">
    <ele>2571.9</ele>
    <time>2026-06-24T06:19:47Z</time>
   </trkpt>
   <trkpt lat="-3.1802310" lon="37.3579350">
    <ele>2571.7</ele>
    <time>2026-06-24T06:19:48Z</time>
   </trkpt>
   <trkpt lat="-3.1802290" lon="37.3579350">
    <ele>2571.7</ele>
    <time>2026-06-24T06:19:49Z</time>
   </trkpt>
   <trkpt lat="-3.1802280" lon="37.3579360">
    <ele>2571.7</ele>
    <time>2026-06-24T06:19:50Z</time>
   </trkpt>
   <trkpt lat="-3.1802170" lon="37.3579220">
    <ele>2571.4</ele>
    <time>2026-06-24T06:19:51Z</time>
   </trkpt>
   <trkpt lat="-3.1802110" lon="37.3579170">
    <ele>2571.2</ele>
    <time>2026-06-24T06:19:52Z</time>
   </trkpt>
   <trkpt lat="-3.1802220" lon="37.3579260">
    <ele>2571.0</ele>
    <time>2026-06-24T06:19:53Z</time>
   </trkpt>
   <trkpt lat="-3.1802200" lon="37.3579400">
    <ele>2570.7</ele>
    <time>2026-06-24T06:19:54Z</time>
   </trkpt>
   <trkpt lat="-3.1802240" lon="37.3579510">
    <ele>2570.5</ele>
    <time>2026-06-24T06:19:55Z</time>
   </trkpt>
   <trkpt lat="-3.1802270" lon="37.3579460">
    <ele>2570.4</ele>
    <time>2026-06-24T06:19:56Z</time>
   </trkpt>
   <trkpt lat="-3.1802330" lon="37.3579480">
    <ele>2570.3</ele>
    <time>2026-06-24T06:19:57Z</time>
   </trkpt>
   <trkpt lat="-3.1802290" lon="37.3579400">
    <ele>2570.1</ele>
    <time>2026-06-24T06:19:58Z</time>
   </trkpt>
   <trkpt lat="-3.1802290" lon="37.3579360">
    <ele>2570.1</ele>
    <time>2026-06-24T06:19:59Z</time>
   </trkpt>
   <trkpt lat="-3.1802200" lon="37.3579300">
    <ele>2569.9</ele>
    <time>2026-06-24T06:20:01Z</time>
   </trkpt>
   <trkpt lat="-3.1802190" lon="37.3579240">
    <ele>2569.8</ele>
    <time>2026-06-24T06:20:02Z</time>
   </trkpt>
   <trkpt lat="-3.1802190" lon="37.3579210">
    <ele>2569.7</ele>
    <time>2026-06-24T06:20:03Z</time>
   </trkpt>
   <trkpt lat="-3.1802180" lon="37.3579110">
    <ele>2569.5</ele>
    <time>2026-06-24T06:20:04Z</time>
   </trkpt>
   <trkpt lat="-3.1802220" lon="37.3579050">
    <ele>2569.4</ele>
    <time>2026-06-24T06:20:05Z</time>
   </trkpt>
   <trkpt lat="-3.1802240" lon="37.3578990">
    <ele>2569.3</ele>
    <time>2026-06-24T06:20:06Z</time>
   </trkpt>
   <trkpt lat="-3.1802240" lon="37.3578990">
    <ele>2569.3</ele>
    <time>2026-06-24T06:20:07Z</time>
   </trkpt>
   <trkpt lat="-3.1802240" lon="37.3578990">
    <ele>2569.3</ele>
    <time>2026-06-24T06:20:08Z</time>
   </trkpt>
   <trkpt lat="-3.1802240" lon="37.3578990">
    <ele>2569.3</ele>
    <time>2026-06-24T06:20:09Z</time>
   </trkpt>
   <trkpt lat="-3.1802240" lon="37.3578990">
    <ele>2569.3</ele>
    <time>2026-06-24T06:20:10Z</time>
   </trkpt>
   <trkpt lat="-3.1802240" lon="37.3578990">
    <ele>2569.3</ele>
    <time>2026-06-24T06:20:11Z</time>
   </trkpt>
   <trkpt lat="-3.1802330" lon="37.3578940">
    <ele>2569.1</ele>
    <time>2026-06-24T06:20:12Z</time>
   </trkpt>
   <trkpt lat="-3.1802340" lon="37.3578960">
    <ele>2569.1</ele>
    <time>2026-06-24T06:20:13Z</time>
   </trkpt>
   <trkpt lat="-3.1802340" lon="37.3578970">
    <ele>2569.1</ele>
    <time>2026-06-24T06:20:14Z</time>
   </trkpt>
   <trkpt lat="-3.1802340" lon="37.3578970">
    <ele>2569.1</ele>
    <time>2026-06-24T06:20:15Z</time>
   </trkpt>
   <trkpt lat="-3.1802340" lon="37.3578970">
    <ele>2569.1</ele>
    <time>2026-06-24T06:20:16Z</time>
   </trkpt>
   <trkpt lat="-3.1802420" lon="37.3578950">
    <ele>2568.9</ele>
    <time>2026-06-24T06:20:17Z</time>
   </trkpt>
   <trkpt lat="-3.1802470" lon="37.3578950">
    <ele>2568.9</ele>
    <time>2026-06-24T06:20:18Z</time>
   </trkpt>
   <trkpt lat="-3.1802520" lon="37.3579000">
    <ele>2568.7</ele>
    <time>2026-06-24T06:20:19Z</time>
   </trkpt>
   <trkpt lat="-3.1802550" lon="37.3578950">
    <ele>2568.6</ele>
    <time>2026-06-24T06:20:20Z</time>
   </trkpt>
   <trkpt lat="-3.1802530" lon="37.3578880">
    <ele>2568.5</ele>
    <time>2026-06-24T06:20:21Z</time>
   </trkpt>
   <trkpt lat="-3.1802500" lon="37.3578820">
    <ele>2568.4</ele>
    <time>2026-06-24T06:20:22Z</time>
   </trkpt>
   <trkpt lat="-3.1802550" lon="37.3578790">
    <ele>2568.3</ele>
    <time>2026-06-24T06:20:23Z</time>
   </trkpt>
   <trkpt lat="-3.1802550" lon="37.3578800">
    <ele>2568.3</ele>
    <time>2026-06-24T06:20:24Z</time>
   </trkpt>
   <trkpt lat="-3.1802540" lon="37.3578750">
    <ele>2568.2</ele>
    <time>2026-06-24T06:20:25Z</time>
   </trkpt>
   <trkpt lat="-3.1802600" lon="37.3578720">
    <ele>2568.1</ele>
    <time>2026-06-24T06:20:26Z</time>
   </trkpt>
   <trkpt lat="-3.1802620" lon="37.3578740">
    <ele>2568.0</ele>
    <time>2026-06-24T06:20:27Z</time>
   </trkpt>
   <trkpt lat="-3.1802610" lon="37.3578780">
    <ele>2567.9</ele>
    <time>2026-06-24T06:20:28Z</time>
   </trkpt>
   <trkpt lat="-3.1802640" lon="37.3578770">
    <ele>2567.9</ele>
    <time>2026-06-24T06:20:29Z</time>
   </trkpt>
   <trkpt lat="-3.1802680" lon="37.3578740">
    <ele>2567.8</ele>
    <time>2026-06-24T06:20:30Z</time>
   </trkpt>
   <trkpt lat="-3.1802660" lon="37.3578790">
    <ele>2567.7</ele>
    <time>2026-06-24T06:20:31Z</time>
   </trkpt>
   <trkpt lat="-3.1802640" lon="37.3578780">
    <ele>2567.7</ele>
    <time>2026-06-24T06:20:32Z</time>
   </trkpt>
   <trkpt lat="-3.1802740" lon="37.3578750">
    <ele>2567.5</ele>
    <time>2026-06-24T06:20:33Z</time>
   </trkpt>
   <trkpt lat="-3.1802780" lon="37.3578760">
    <ele>2567.4</ele>
    <time>2026-06-24T06:20:34Z</time>
   </trkpt>
   <trkpt lat="-3.1802850" lon="37.3578740">
    <ele>2567.3</ele>
    <time>2026-06-24T06:20:35Z</time>
   </trkpt>
   <trkpt lat="-3.1802850" lon="37.3578760">
    <ele>2567.3</ele>
    <time>2026-06-24T06:20:36Z</time>
   </trkpt>
   <trkpt lat="-3.1802860" lon="37.3578750">
    <ele>2567.2</ele>
    <time>2026-06-24T06:20:37Z</time>
   </trkpt>
   <trkpt lat="-3.1802950" lon="37.3578720">
    <ele>2567.1</ele>
    <time>2026-06-24T06:20:38Z</time>
   </trkpt>
   <trkpt lat="-3.1802950" lon="37.3578740">
    <ele>2567.0</ele>
    <time>2026-06-24T06:20:39Z</time>
   </trkpt>
   <trkpt lat="-3.1803000" lon="37.3578810">
    <ele>2566.9</ele>
    <time>2026-06-24T06:20:40Z</time>
   </trkpt>
   <trkpt lat="-3.1803030" lon="37.3578890">
    <ele>2566.7</ele>
    <time>2026-06-24T06:20:41Z</time>
   </trkpt>
   <trkpt lat="-3.1803100" lon="37.3578860">
    <ele>2566.6</ele>
    <time>2026-06-24T06:20:42Z</time>
   </trkpt>
   <trkpt lat="-3.1803160" lon="37.3578910">
    <ele>2566.5</ele>
    <time>2026-06-24T06:20:43Z</time>
   </trkpt>
   <trkpt lat="-3.1803180" lon="37.3578930">
    <ele>2566.4</ele>
    <time>2026-06-24T06:20:44Z</time>
   </trkpt>
   <trkpt lat="-3.1803190" lon="37.3578940">
    <ele>2566.4</ele>
    <time>2026-06-24T06:20:45Z</time>
   </trkpt>
   <trkpt lat="-3.1803190" lon="37.3578940">
    <ele>2566.4</ele>
    <time>2026-06-24T06:20:46Z</time>
   </trkpt>
   <trkpt lat="-3.1803120" lon="37.3579020">
    <ele>2566.2</ele>
    <time>2026-06-24T06:20:47Z</time>
   </trkpt>
   <trkpt lat="-3.1803130" lon="37.3578960">
    <ele>2566.1</ele>
    <time>2026-06-24T06:20:48Z</time>
   </trkpt>
   <trkpt lat="-3.1803190" lon="37.3578930">
    <ele>2566.0</ele>
    <time>2026-06-24T06:20:49Z</time>
   </trkpt>
   <trkpt lat="-3.1803140" lon="37.3578900">
    <ele>2565.9</ele>
    <time>2026-06-24T06:20:50Z</time>
   </trkpt>
   <trkpt lat="-3.1803190" lon="37.3578910">
    <ele>2565.8</ele>
    <time>2026-06-24T06:20:51Z</time>
   </trkpt>
   <trkpt lat="-3.1803230" lon="37.3578940">
    <ele>2565.7</ele>
    <time>2026-06-24T06:20:52Z</time>
   </trkpt>
   <trkpt lat="-3.1803280" lon="37.3578960">
    <ele>2565.6</ele>
    <time>2026-06-24T06:20:53Z</time>
   </trkpt>
   <trkpt lat="-3.1803290" lon="37.3578920">
    <ele>2565.5</ele>
    <time>2026-06-24T06:20:54Z</time>
   </trkpt>
   <trkpt lat="-3.1803290" lon="37.3578880">
    <ele>2565.4</ele>
    <time>2026-06-24T06:20:55Z</time>
   </trkpt>
   <trkpt lat="-3.1803300" lon="37.3578890">
    <ele>2565.4</ele>
    <time>2026-06-24T06:20:56Z</time>
   </trkpt>
   <trkpt lat="-3.1803300" lon="37.3578890">
    <ele>2565.4</ele>
    <time>2026-06-24T06:20:57Z</time>
   </trkpt>
   <trkpt lat="-3.1803360" lon="37.3578850">
    <ele>2565.3</ele>
    <time>2026-06-24T06:20:58Z</time>
   </trkpt>
   <trkpt lat="-3.1803360" lon="37.3578850">
    <ele>2565.3</ele>
    <time>2026-06-24T06:20:59Z</time>
   </trkpt>
   <trkpt lat="-3.1803360" lon="37.3578850">
    <ele>2565.3</ele>
    <time>2026-06-24T06:21:00Z</time>
   </trkpt>
   <trkpt lat="-3.1803360" lon="37.3578850">
    <ele>2565.3</ele>
    <time>2026-06-24T06:21:01Z</time>
   </trkpt>
   <trkpt lat="-3.1803490" lon="37.3578820">
    <ele>2565.0</ele>
    <time>2026-06-24T06:21:02Z</time>
   </trkpt>
   <trkpt lat="-3.1803490" lon="37.3578820">
    <ele>2565.0</ele>
    <time>2026-06-24T06:21:03Z</time>
   </trkpt>
   <trkpt lat="-3.1803490" lon="37.3578820">
    <ele>2565.0</ele>
    <time>2026-06-24T06:21:04Z</time>
   </trkpt>
   <trkpt lat="-3.1803490" lon="37.3578850">
    <ele>2565.0</ele>
    <time>2026-06-24T06:21:05Z</time>
   </trkpt>
   <trkpt lat="-3.1803500" lon="37.3578830">
    <ele>2564.9</ele>
    <time>2026-06-24T06:21:06Z</time>
   </trkpt>
   <trkpt lat="-3.1803530" lon="37.3578840">
    <ele>2564.9</ele>
    <time>2026-06-24T06:21:07Z</time>
   </trkpt>
   <trkpt lat="-3.1803540" lon="37.3578830">
    <ele>2564.9</ele>
    <time>2026-06-24T06:21:08Z</time>
   </trkpt>
   <trkpt lat="-3.1803570" lon="37.3578820">
    <ele>2564.8</ele>
    <time>2026-06-24T06:21:09Z</time>
   </trkpt>
   <trkpt lat="-3.1803560" lon="37.3578830">
    <ele>2564.8</ele>
    <time>2026-06-24T06:21:10Z</time>
   </trkpt>
   <trkpt lat="-3.1803570" lon="37.3578810">
    <ele>2564.7</ele>
    <time>2026-06-24T06:21:11Z</time>
   </trkpt>
   <trkpt lat="-3.1803560" lon="37.3578820">
    <ele>2564.7</ele>
    <time>2026-06-24T06:21:12Z</time>
   </trkpt>
   <trkpt lat="-3.1803570" lon="37.3578790">
    <ele>2564.6</ele>
    <time>2026-06-24T06:21:13Z</time>
   </trkpt>
   <trkpt lat="-3.1803590" lon="37.3578770">
    <ele>2564.6</ele>
    <time>2026-06-24T06:21:14Z</time>
   </trkpt>
   <trkpt lat="-3.1803580" lon="37.3578770">
    <ele>2564.6</ele>
    <time>2026-06-24T06:21:15Z</time>
   </trkpt>
   <trkpt lat="-3.1803550" lon="37.3578740">
    <ele>2564.5</ele>
    <time>2026-06-24T06:21:16Z</time>
   </trkpt>
   <trkpt lat="-3.1803550" lon="37.3578740">
    <ele>2564.5</ele>
    <time>2026-06-24T06:21:17Z</time>
   </trkpt>
   <trkpt lat="-3.1803590" lon="37.3578670">
    <ele>2564.3</ele>
    <time>2026-06-24T06:21:18Z</time>
   </trkpt>
   <trkpt lat="-3.1803580" lon="37.3578680">
    <ele>2564.3</ele>
    <time>2026-06-24T06:21:19Z</time>
   </trkpt>
   <trkpt lat="-3.1803560" lon="37.3578640">
    <ele>2564.2</ele>
    <time>2026-06-24T06:21:20Z</time>
   </trkpt>
   <trkpt lat="-3.1803550" lon="37.3578640">
    <ele>2564.2</ele>
    <time>2026-06-24T06:21:21Z</time>
   </trkpt>
   <trkpt lat="-3.1803550" lon="37.3578640">
    <ele>2564.2</ele>
    <time>2026-06-24T06:21:22Z</time>
   </trkpt>
   <trkpt lat="-3.1803550" lon="37.3578620">
    <ele>2564.2</ele>
    <time>2026-06-24T06:21:23Z</time>
   </trkpt>
   <trkpt lat="-3.1803550" lon="37.3578620">
    <ele>2564.2</ele>
    <time>2026-06-24T06:21:24Z</time>
   </trkpt>
   <trkpt lat="-3.1803540" lon="37.3578630">
    <ele>2564.2</ele>
    <time>2026-06-24T06:21:25Z</time>
   </trkpt>
   <trkpt lat="-3.1803540" lon="37.3578620">
    <ele>2564.1</ele>
    <time>2026-06-24T06:21:26Z</time>
   </trkpt>
   <trkpt lat="-3.1803540" lon="37.3578620">
    <ele>2564.1</ele>
    <time>2026-06-24T06:21:27Z</time>
   </trkpt>
   <trkpt lat="-3.1803540" lon="37.3578620">
    <ele>2564.1</ele>
    <time>2026-06-24T06:21:28Z</time>
   </trkpt>
   <trkpt lat="-3.1803540" lon="37.3578620">
    <ele>2564.1</ele>
    <time>2026-06-24T06:21:29Z</time>
   </trkpt>
   <trkpt lat="-3.1803520" lon="37.3578570">
    <ele>2564.0</ele>
    <time>2026-06-24T06:21:30Z</time>
   </trkpt>
   <trkpt lat="-3.1803530" lon="37.3578590">
    <ele>2564.0</ele>
    <time>2026-06-24T06:21:31Z</time>
   </trkpt>
   <trkpt lat="-3.1803530" lon="37.3578590">
    <ele>2564.0</ele>
    <time>2026-06-24T06:21:32Z</time>
   </trkpt>
   <trkpt lat="-3.1803510" lon="37.3578600">
    <ele>2564.0</ele>
    <time>2026-06-24T06:21:33Z</time>
   </trkpt>
   <trkpt lat="-3.1803500" lon="37.3578600">
    <ele>2563.9</ele>
    <time>2026-06-24T06:21:34Z</time>
   </trkpt>
   <trkpt lat="-3.1803500" lon="37.3578600">
    <ele>2563.9</ele>
    <time>2026-06-24T06:21:35Z</time>
   </trkpt>
   <trkpt lat="-3.1803500" lon="37.3578600">
    <ele>2563.9</ele>
    <time>2026-06-24T06:21:36Z</time>
   </trkpt>
   <trkpt lat="-3.1803500" lon="37.3578600">
    <ele>2563.9</ele>
    <time>2026-06-24T06:21:37Z</time>
   </trkpt>
   <trkpt lat="-3.1803490" lon="37.3578620">
    <ele>2563.9</ele>
    <time>2026-06-24T06:21:38Z</time>
   </trkpt>
   <trkpt lat="-3.1803490" lon="37.3578620">
    <ele>2563.9</ele>
    <time>2026-06-24T06:21:39Z</time>
   </trkpt>
   <trkpt lat="-3.1803490" lon="37.3578620">
    <ele>2563.9</ele>
    <time>2026-06-24T06:21:40Z</time>
   </trkpt>
   <trkpt lat="-3.1803460" lon="37.3578610">
    <ele>2563.8</ele>
    <time>2026-06-24T06:21:41Z</time>
   </trkpt>
   <trkpt lat="-3.1803450" lon="37.3578610">
    <ele>2563.8</ele>
    <time>2026-06-24T06:21:42Z</time>
   </trkpt>
   <trkpt lat="-3.1803450" lon="37.3578610">
    <ele>2563.8</ele>
    <time>2026-06-24T06:21:43Z</time>
   </trkpt>
   <trkpt lat="-3.1803450" lon="37.3578610">
    <ele>2563.8</ele>
    <time>2026-06-24T06:21:44Z</time>
   </trkpt>
   <trkpt lat="-3.1803430" lon="37.3578720">
    <ele>2563.6</ele>
    <time>2026-06-24T06:21:45Z</time>
   </trkpt>
   <trkpt lat="-3.1803430" lon="37.3578730">
    <ele>2563.6</ele>
    <time>2026-06-24T06:21:46Z</time>
   </trkpt>
   <trkpt lat="-3.1803420" lon="37.3578760">
    <ele>2563.5</ele>
    <time>2026-06-24T06:21:47Z</time>
   </trkpt>
   <trkpt lat="-3.1803450" lon="37.3578780">
    <ele>2563.4</ele>
    <time>2026-06-24T06:21:48Z</time>
   </trkpt>
   <trkpt lat="-3.1803450" lon="37.3578780">
    <ele>2563.4</ele>
    <time>2026-06-24T06:21:49Z</time>
   </trkpt>
   <trkpt lat="-3.1803420" lon="37.3578790">
    <ele>2563.4</ele>
    <time>2026-06-24T06:21:50Z</time>
   </trkpt>
   <trkpt lat="-3.1803410" lon="37.3578800">
    <ele>2563.3</ele>
    <time>2026-06-24T06:21:51Z</time>
   </trkpt>
   <trkpt lat="-3.1803450" lon="37.3578820">
    <ele>2563.3</ele>
    <time>2026-06-24T06:21:52Z</time>
   </trkpt>
   <trkpt lat="-3.1803470" lon="37.3578780">
    <ele>2563.2</ele>
    <time>2026-06-24T06:21:53Z</time>
   </trkpt>
   <trkpt lat="-3.1803450" lon="37.3578780">
    <ele>2563.1</ele>
    <time>2026-06-24T06:21:54Z</time>
   </trkpt>
   <trkpt lat="-3.1803450" lon="37.3578780">
    <ele>2563.1</ele>
    <time>2026-06-24T06:21:55Z</time>
   </trkpt>
   <trkpt lat="-3.1803450" lon="37.3578780">
    <ele>2563.1</ele>
    <time>2026-06-24T06:21:56Z</time>
   </trkpt>
   <trkpt lat="-3.1803450" lon="37.3578780">
    <ele>2563.1</ele>
    <time>2026-06-24T06:21:57Z</time>
   </trkpt>
   <trkpt lat="-3.1803450" lon="37.3578780">
    <ele>2563.1</ele>
    <time>2026-06-24T06:21:58Z</time>
   </trkpt>
   <trkpt lat="-3.1803450" lon="37.3578780">
    <ele>2563.1</ele>
    <time>2026-06-24T06:21:59Z</time>
   </trkpt>
   <trkpt lat="-3.1803450" lon="37.3578780">
    <ele>2563.1</ele>
    <time>2026-06-24T06:22:00Z</time>
   </trkpt>
   <trkpt lat="-3.1803350" lon="37.3578860">
    <ele>2562.9</ele>
    <time>2026-06-24T06:22:01Z</time>
   </trkpt>
   <trkpt lat="-3.1803340" lon="37.3578870">
    <ele>2562.9</ele>
    <time>2026-06-24T06:22:02Z</time>
   </trkpt>
   <trkpt lat="-3.1803340" lon="37.3578870">
    <ele>2562.9</ele>
    <time>2026-06-24T06:22:03Z</time>
   </trkpt>
   <trkpt lat="-3.1803340" lon="37.3578870">
    <ele>2562.9</ele>
    <time>2026-06-24T06:22:04Z</time>
   </trkpt>
   <trkpt lat="-3.1803340" lon="37.3578870">
    <ele>2562.9</ele>
    <time>2026-06-24T06:22:05Z</time>
   </trkpt>
   <trkpt lat="-3.1803350" lon="37.3578900">
    <ele>2562.8</ele>
    <time>2026-06-24T06:22:07Z</time>
   </trkpt>
   <trkpt lat="-3.1803340" lon="37.3578870">
    <ele>2562.7</ele>
    <time>2026-06-24T06:22:08Z</time>
   </trkpt>
   <trkpt lat="-3.1803340" lon="37.3578850">
    <ele>2562.7</ele>
    <time>2026-06-24T06:22:09Z</time>
   </trkpt>
   <trkpt lat="-3.1803330" lon="37.3578840">
    <ele>2562.7</ele>
    <time>2026-06-24T06:22:10Z</time>
   </trkpt>
   <trkpt lat="-3.1803330" lon="37.3578840">
    <ele>2562.7</ele>
    <time>2026-06-24T06:22:11Z</time>
   </trkpt>
   <trkpt lat="-3.1803320" lon="37.3578840">
    <ele>2562.6</ele>
    <time>2026-06-24T06:22:12Z</time>
   </trkpt>
   <trkpt lat="-3.1803320" lon="37.3578810">
    <ele>2562.6</ele>
    <time>2026-06-24T06:22:13Z</time>
   </trkpt>
   <trkpt lat="-3.1803320" lon="37.3578810">
    <ele>2562.6</ele>
    <time>2026-06-24T06:22:14Z</time>
   </trkpt>
   <trkpt lat="-3.1803370" lon="37.3578770">
    <ele>2562.4</ele>
    <time>2026-06-24T06:22:15Z</time>
   </trkpt>
   <trkpt lat="-3.1803400" lon="37.3578750">
    <ele>2562.4</ele>
    <time>2026-06-24T06:22:16Z</time>
   </trkpt>
   <trkpt lat="-3.1803420" lon="37.3578760">
    <ele>2562.3</ele>
    <time>2026-06-24T06:22:17Z</time>
   </trkpt>
   <trkpt lat="-3.1803430" lon="37.3578780">
    <ele>2562.3</ele>
    <time>2026-06-24T06:22:18Z</time>
   </trkpt>
   <trkpt lat="-3.1803480" lon="37.3578760">
    <ele>2562.2</ele>
    <time>2026-06-24T06:22:19Z</time>
   </trkpt>
   <trkpt lat="-3.1803440" lon="37.3578780">
    <ele>2562.1</ele>
    <time>2026-06-24T06:22:20Z</time>
   </trkpt>
   <trkpt lat="-3.1803440" lon="37.3578780">
    <ele>2562.1</ele>
    <time>2026-06-24T06:22:21Z</time>
   </trkpt>
   <trkpt lat="-3.1803440" lon="37.3578780">
    <ele>2562.1</ele>
    <time>2026-06-24T06:22:22Z</time>
   </trkpt>
   <trkpt lat="-3.1803440" lon="37.3578780">
    <ele>2562.1</ele>
    <time>2026-06-24T06:22:23Z</time>
   </trkpt>
   <trkpt lat="-3.1803440" lon="37.3578780">
    <ele>2562.1</ele>
    <time>2026-06-24T06:22:24Z</time>
   </trkpt>
   <trkpt lat="-3.1803440" lon="37.3578780">
    <ele>2562.1</ele>
    <time>2026-06-24T06:22:25Z</time>
   </trkpt>
   <trkpt lat="-3.1803440" lon="37.3578780">
    <ele>2562.1</ele>
    <time>2026-06-24T06:22:26Z</time>
   </trkpt>
   <trkpt lat="-3.1803280" lon="37.3578900">
    <ele>2561.7</ele>
    <time>2026-06-24T06:22:27Z</time>
   </trkpt>
   <trkpt lat="-3.1803260" lon="37.3578910">
    <ele>2561.6</ele>
    <time>2026-06-24T06:22:28Z</time>
   </trkpt>
   <trkpt lat="-3.1803260" lon="37.3578910">
    <ele>2561.6</ele>
    <time>2026-06-24T06:22:29Z</time>
   </trkpt>
   <trkpt lat="-3.1803280" lon="37.3578950">
    <ele>2561.5</ele>
    <time>2026-06-24T06:22:30Z</time>
   </trkpt>
   <trkpt lat="-3.1803280" lon="37.3578950">
    <ele>2561.5</ele>
    <time>2026-06-24T06:22:31Z</time>
   </trkpt>
   <trkpt lat="-3.1803230" lon="37.3578970">
    <ele>2561.4</ele>
    <time>2026-06-24T06:22:32Z</time>
   </trkpt>
   <trkpt lat="-3.1803220" lon="37.3578980">
    <ele>2561.4</ele>
    <time>2026-06-24T06:22:33Z</time>
   </trkpt>
   <trkpt lat="-3.1803220" lon="37.3578980">
    <ele>2561.4</ele>
    <time>2026-06-24T06:22:34Z</time>
   </trkpt>
   <trkpt lat="-3.1803220" lon="37.3578980">
    <ele>2561.4</ele>
    <time>2026-06-24T06:22:35Z</time>
   </trkpt>
   <trkpt lat="-3.1803220" lon="37.3578980">
    <ele>2561.4</ele>
    <time>2026-06-24T06:22:36Z</time>
   </trkpt>
   <trkpt lat="-3.1803220" lon="37.3578980">
    <ele>2561.4</ele>
    <time>2026-06-24T06:22:37Z</time>
   </trkpt>
   <trkpt lat="-3.1803230" lon="37.3578960">
    <ele>2561.3</ele>
    <time>2026-06-24T06:22:38Z</time>
   </trkpt>
   <trkpt lat="-3.1803190" lon="37.3578970">
    <ele>2561.2</ele>
    <time>2026-06-24T06:22:39Z</time>
   </trkpt>
   <trkpt lat="-3.1803180" lon="37.3578970">
    <ele>2561.2</ele>
    <time>2026-06-24T06:22:40Z</time>
   </trkpt>
   <trkpt lat="-3.1803160" lon="37.3578950">
    <ele>2561.2</ele>
    <time>2026-06-24T06:22:41Z</time>
   </trkpt>
   <trkpt lat="-3.1803140" lon="37.3578960">
    <ele>2561.1</ele>
    <time>2026-06-24T06:22:42Z</time>
   </trkpt>
   <trkpt lat="-3.1803130" lon="37.3578940">
    <ele>2561.1</ele>
    <time>2026-06-24T06:22:43Z</time>
   </trkpt>
   <trkpt lat="-3.1803130" lon="37.3578940">
    <ele>2561.1</ele>
    <time>2026-06-24T06:22:44Z</time>
   </trkpt>
   <trkpt lat="-3.1803130" lon="37.3578940">
    <ele>2561.1</ele>
    <time>2026-06-24T06:22:45Z</time>
   </trkpt>
   <trkpt lat="-3.1803130" lon="37.3578940">
    <ele>2561.1</ele>
    <time>2026-06-24T06:22:46Z</time>
   </trkpt>
   <trkpt lat="-3.1803090" lon="37.3578920">
    <ele>2561.0</ele>
    <time>2026-06-24T06:22:47Z</time>
   </trkpt>
   <trkpt lat="-3.1803090" lon="37.3578920">
    <ele>2561.0</ele>
    <time>2026-06-24T06:22:48Z</time>
   </trkpt>
   <trkpt lat="-3.1803090" lon="37.3578920">
    <ele>2561.0</ele>
    <time>2026-06-24T06:22:49Z</time>
   </trkpt>
   <trkpt lat="-3.1803090" lon="37.3578920">
    <ele>2561.0</ele>
    <time>2026-06-24T06:22:50Z</time>
   </trkpt>
   <trkpt lat="-3.1803090" lon="37.3578920">
    <ele>2561.0</ele>
    <time>2026-06-24T06:22:51Z</time>
   </trkpt>
   <trkpt lat="-3.1803090" lon="37.3578920">
    <ele>2561.0</ele>
    <time>2026-06-24T06:22:52Z</time>
   </trkpt>
   <trkpt lat="-3.1803090" lon="37.3578920">
    <ele>2561.0</ele>
    <time>2026-06-24T06:22:53Z</time>
   </trkpt>
   <trkpt lat="-3.1803020" lon="37.3578990">
    <ele>2560.7</ele>
    <time>2026-06-24T06:22:54Z</time>
   </trkpt>
   <trkpt lat="-3.1803020" lon="37.3578990">
    <ele>2560.7</ele>
    <time>2026-06-24T06:22:55Z</time>
   </trkpt>
   <trkpt lat="-3.1803000" lon="37.3579010">
    <ele>2560.7</ele>
    <time>2026-06-24T06:22:56Z</time>
   </trkpt>
   <trkpt lat="-3.1803000" lon="37.3579020">
    <ele>2560.7</ele>
    <time>2026-06-24T06:22:57Z</time>
   </trkpt>
   <trkpt lat="-3.1802990" lon="37.3579030">
    <ele>2560.6</ele>
    <time>2026-06-24T06:22:58Z</time>
   </trkpt>
   <trkpt lat="-3.1802990" lon="37.3579030">
    <ele>2560.6</ele>
    <time>2026-06-24T06:22:59Z</time>
   </trkpt>
   <trkpt lat="-3.1802990" lon="37.3579030">
    <ele>2560.6</ele>
    <time>2026-06-24T06:23:00Z</time>
   </trkpt>
   <trkpt lat="-3.1803010" lon="37.3578980">
    <ele>2560.5</ele>
    <time>2026-06-24T06:23:01Z</time>
   </trkpt>
   <trkpt lat="-3.1803000" lon="37.3578980">
    <ele>2560.5</ele>
    <time>2026-06-24T06:23:02Z</time>
   </trkpt>
   <trkpt lat="-3.1803000" lon="37.3578980">
    <ele>2560.5</ele>
    <time>2026-06-24T06:23:03Z</time>
   </trkpt>
   <trkpt lat="-3.1803000" lon="37.3578980">
    <ele>2560.5</ele>
    <time>2026-06-24T06:23:04Z</time>
   </trkpt>
   <trkpt lat="-3.1803000" lon="37.3578980">
    <ele>2560.5</ele>
    <time>2026-06-24T06:23:05Z</time>
   </trkpt>
   <trkpt lat="-3.1803000" lon="37.3578980">
    <ele>2560.5</ele>
    <time>2026-06-24T06:23:06Z</time>
   </trkpt>
   <trkpt lat="-3.1803000" lon="37.3578980">
    <ele>2560.5</ele>
    <time>2026-06-24T06:23:07Z</time>
   </trkpt>
   <trkpt lat="-3.1803000" lon="37.3578980">
    <ele>2560.5</ele>
    <time>2026-06-24T06:23:08Z</time>
   </trkpt>
   <trkpt lat="-3.1803000" lon="37.3578980">
    <ele>2560.5</ele>
    <time>2026-06-24T06:23:09Z</time>
   </trkpt>
   <trkpt lat="-3.1803000" lon="37.3578980">
    <ele>2560.5</ele>
    <time>2026-06-24T06:23:10Z</time>
   </trkpt>
   <trkpt lat="-3.1803000" lon="37.3578980">
    <ele>2560.5</ele>
    <time>2026-06-24T06:23:11Z</time>
   </trkpt>
   <trkpt lat="-3.1803000" lon="37.3578980">
    <ele>2560.5</ele>
    <time>2026-06-24T06:23:12Z</time>
   </trkpt>
   <trkpt lat="-3.1803000" lon="37.3578980">
    <ele>2560.5</ele>
    <time>2026-06-24T06:23:13Z</time>
   </trkpt>
   <trkpt lat="-3.1803000" lon="37.3578980">
    <ele>2560.5</ele>
    <time>2026-06-24T06:23:14Z</time>
   </trkpt>
   <trkpt lat="-3.1803000" lon="37.3578980">
    <ele>2560.5</ele>
    <time>2026-06-24T06:23:15Z</time>
   </trkpt>
   <trkpt lat="-3.1803000" lon="37.3578980">
    <ele>2560.5</ele>
    <time>2026-06-24T06:23:16Z</time>
   </trkpt>
   <trkpt lat="-3.1803000" lon="37.3578980">
    <ele>2560.5</ele>
    <time>2026-06-24T06:23:17Z</time>
   </trkpt>
   <trkpt lat="-3.1803000" lon="37.3578980">
    <ele>2560.5</ele>
    <time>2026-06-24T06:23:18Z</time>
   </trkpt>
   <trkpt lat="-3.1803000" lon="37.3578980">
    <ele>2560.5</ele>
    <time>2026-06-24T06:23:19Z</time>
   </trkpt>
   <trkpt lat="-3.1803000" lon="37.3578980">
    <ele>2560.5</ele>
    <time>2026-06-24T06:23:20Z</time>
   </trkpt>
   <trkpt lat="-3.1803000" lon="37.3578980">
    <ele>2560.5</ele>
    <time>2026-06-24T06:23:21Z</time>
   </trkpt>
   <trkpt lat="-3.1803000" lon="37.3578980">
    <ele>2560.5</ele>
    <time>2026-06-24T06:23:22Z</time>
   </trkpt>
   <trkpt lat="-3.1803000" lon="37.3578980">
    <ele>2560.5</ele>
    <time>2026-06-24T06:23:23Z</time>
   </trkpt>
   <trkpt lat="-3.1803000" lon="37.3578980">
    <ele>2560.5</ele>
    <time>2026-06-24T06:23:24Z</time>
   </trkpt>
   <trkpt lat="-3.1803000" lon="37.3578980">
    <ele>2560.5</ele>
    <time>2026-06-24T06:23:25Z</time>
   </trkpt>
   <trkpt lat="-3.1803000" lon="37.3578980">
    <ele>2560.5</ele>
    <time>2026-06-24T06:23:26Z</time>
   </trkpt>
   <trkpt lat="-3.1803000" lon="37.3578980">
    <ele>2560.5</ele>
    <time>2026-06-24T06:23:27Z</time>
   </trkpt>
   <trkpt lat="-3.1803000" lon="37.3578980">
    <ele>2560.5</ele>
    <time>2026-06-24T06:23:28Z</time>
   </trkpt>
   <trkpt lat="-3.1803000" lon="37.3578980">
    <ele>2560.5</ele>
    <time>2026-06-24T06:23:29Z</time>
   </trkpt>
   <trkpt lat="-3.1803000" lon="37.3578980">
    <ele>2560.5</ele>
    <time>2026-06-24T06:23:30Z</time>
   </trkpt>
   <trkpt lat="-3.1803000" lon="37.3578980">
    <ele>2560.5</ele>
    <time>2026-06-24T06:23:31Z</time>
   </trkpt>
   <trkpt lat="-3.1803000" lon="37.3578980">
    <ele>2560.5</ele>
    <time>2026-06-24T06:23:32Z</time>
   </trkpt>
   <trkpt lat="-3.1803000" lon="37.3578980">
    <ele>2560.5</ele>
    <time>2026-06-24T06:23:33Z</time>
   </trkpt>
   <trkpt lat="-3.1803000" lon="37.3578980">
    <ele>2560.5</ele>
    <time>2026-06-24T06:23:34Z</time>
   </trkpt>
   <trkpt lat="-3.1803000" lon="37.3578980">
    <ele>2560.5</ele>
    <time>2026-06-24T06:23:35Z</time>
   </trkpt>
   <trkpt lat="-3.1803000" lon="37.3578980">
    <ele>2560.5</ele>
    <time>2026-06-24T06:23:36Z</time>
   </trkpt>
   <trkpt lat="-3.1803000" lon="37.3578980">
    <ele>2560.5</ele>
    <time>2026-06-24T06:23:37Z</time>
   </trkpt>
   <trkpt lat="-3.1803000" lon="37.3578980">
    <ele>2560.5</ele>
    <time>2026-06-24T06:23:38Z</time>
   </trkpt>
   <trkpt lat="-3.1802990" lon="37.3579120">
    <ele>2560.2</ele>
    <time>2026-06-24T06:23:39Z</time>
   </trkpt>
   <trkpt lat="-3.1802980" lon="37.3579120">
    <ele>2560.2</ele>
    <time>2026-06-24T06:23:40Z</time>
   </trkpt>
   <trkpt lat="-3.1802980" lon="37.3579120">
    <ele>2560.2</ele>
    <time>2026-06-24T06:23:41Z</time>
   </trkpt>
   <trkpt lat="-3.1802980" lon="37.3579120">
    <ele>2560.2</ele>
    <time>2026-06-24T06:23:42Z</time>
   </trkpt>
   <trkpt lat="-3.1802980" lon="37.3579120">
    <ele>2560.2</ele>
    <time>2026-06-24T06:23:43Z</time>
   </trkpt>
   <trkpt lat="-3.1802980" lon="37.3579120">
    <ele>2560.2</ele>
    <time>2026-06-24T06:23:44Z</time>
   </trkpt>
   <trkpt lat="-3.1802980" lon="37.3579120">
    <ele>2560.2</ele>
    <time>2026-06-24T06:23:45Z</time>
   </trkpt>
   <trkpt lat="-3.1802980" lon="37.3579120">
    <ele>2560.2</ele>
    <time>2026-06-24T06:23:46Z</time>
   </trkpt>
   <trkpt lat="-3.1803010" lon="37.3579110">
    <ele>2560.1</ele>
    <time>2026-06-24T06:23:47Z</time>
   </trkpt>
   <trkpt lat="-3.1803010" lon="37.3579090">
    <ele>2560.0</ele>
    <time>2026-06-24T06:23:48Z</time>
   </trkpt>
   <trkpt lat="-3.1802990" lon="37.3579070">
    <ele>2560.0</ele>
    <time>2026-06-24T06:23:49Z</time>
   </trkpt>
   <trkpt lat="-3.1803020" lon="37.3579090">
    <ele>2559.9</ele>
    <time>2026-06-24T06:23:50Z</time>
   </trkpt>
   <trkpt lat="-3.1803040" lon="37.3579070">
    <ele>2559.8</ele>
    <time>2026-06-24T06:23:51Z</time>
   </trkpt>
   <trkpt lat="-3.1803040" lon="37.3579070">
    <ele>2559.8</ele>
    <time>2026-06-24T06:23:52Z</time>
   </trkpt>
   <trkpt lat="-3.1803090" lon="37.3579050">
    <ele>2559.7</ele>
    <time>2026-06-24T06:23:53Z</time>
   </trkpt>
   <trkpt lat="-3.1803100" lon="37.3579050">
    <ele>2559.7</ele>
    <time>2026-06-24T06:23:54Z</time>
   </trkpt>
   <trkpt lat="-3.1803110" lon="37.3579090">
    <ele>2559.6</ele>
    <time>2026-06-24T06:23:55Z</time>
   </trkpt>
   <trkpt lat="-3.1803110" lon="37.3579070">
    <ele>2559.6</ele>
    <time>2026-06-24T06:23:56Z</time>
   </trkpt>
   <trkpt lat="-3.1803120" lon="37.3579070">
    <ele>2559.5</ele>
    <time>2026-06-24T06:23:57Z</time>
   </trkpt>
   <trkpt lat="-3.1803210" lon="37.3579030">
    <ele>2559.3</ele>
    <time>2026-06-24T06:23:58Z</time>
   </trkpt>
   <trkpt lat="-3.1803170" lon="37.3579080">
    <ele>2559.2</ele>
    <time>2026-06-24T06:23:59Z</time>
   </trkpt>
   <trkpt lat="-3.1803160" lon="37.3579090">
    <ele>2559.1</ele>
    <time>2026-06-24T06:24:00Z</time>
   </trkpt>
   <trkpt lat="-3.1803170" lon="37.3579160">
    <ele>2559.0</ele>
    <time>2026-06-24T06:24:01Z</time>
   </trkpt>
   <trkpt lat="-3.1803170" lon="37.3579150">
    <ele>2558.9</ele>
    <time>2026-06-24T06:24:02Z</time>
   </trkpt>
   <trkpt lat="-3.1803170" lon="37.3579130">
    <ele>2558.9</ele>
    <time>2026-06-24T06:24:03Z</time>
   </trkpt>
   <trkpt lat="-3.1803170" lon="37.3579130">
    <ele>2558.9</ele>
    <time>2026-06-24T06:24:04Z</time>
   </trkpt>
   <trkpt lat="-3.1803170" lon="37.3579130">
    <ele>2558.9</ele>
    <time>2026-06-24T06:24:05Z</time>
   </trkpt>
   <trkpt lat="-3.1803140" lon="37.3579190">
    <ele>2558.7</ele>
    <time>2026-06-24T06:24:06Z</time>
   </trkpt>
   <trkpt lat="-3.1803140" lon="37.3579190">
    <ele>2558.7</ele>
    <time>2026-06-24T06:24:07Z</time>
   </trkpt>
   <trkpt lat="-3.1803140" lon="37.3579180">
    <ele>2558.7</ele>
    <time>2026-06-24T06:24:08Z</time>
   </trkpt>
   <trkpt lat="-3.1803150" lon="37.3579150">
    <ele>2558.6</ele>
    <time>2026-06-24T06:24:09Z</time>
   </trkpt>
   <trkpt lat="-3.1803130" lon="37.3579150">
    <ele>2558.6</ele>
    <time>2026-06-24T06:24:10Z</time>
   </trkpt>
   <trkpt lat="-3.1803110" lon="37.3579120">
    <ele>2558.5</ele>
    <time>2026-06-24T06:24:11Z</time>
   </trkpt>
   <trkpt lat="-3.1803110" lon="37.3579120">
    <ele>2558.5</ele>
    <time>2026-06-24T06:24:13Z</time>
   </trkpt>
   <trkpt lat="-3.1803090" lon="37.3579090">
    <ele>2558.4</ele>
    <time>2026-06-24T06:24:14Z</time>
   </trkpt>
   <trkpt lat="-3.1803090" lon="37.3579080">
    <ele>2558.4</ele>
    <time>2026-06-24T06:24:15Z</time>
   </trkpt>
   <trkpt lat="-3.1803080" lon="37.3579070">
    <ele>2558.4</ele>
    <time>2026-06-24T06:24:16Z</time>
   </trkpt>
   <trkpt lat="-3.1803080" lon="37.3579060">
    <ele>2558.3</ele>
    <time>2026-06-24T06:24:17Z</time>
   </trkpt>
   <trkpt lat="-3.1803080" lon="37.3579050">
    <ele>2558.3</ele>
    <time>2026-06-24T06:24:18Z</time>
   </trkpt>
   <trkpt lat="-3.1803080" lon="37.3579050">
    <ele>2558.3</ele>
    <time>2026-06-24T06:24:19Z</time>
   </trkpt>
   <trkpt lat="-3.1803080" lon="37.3579050">
    <ele>2558.3</ele>
    <time>2026-06-24T06:24:20Z</time>
   </trkpt>
   <trkpt lat="-3.1803080" lon="37.3579030">
    <ele>2558.3</ele>
    <time>2026-06-24T06:24:21Z</time>
   </trkpt>
   <trkpt lat="-3.1803080" lon="37.3579040">
    <ele>2558.2</ele>
    <time>2026-06-24T06:24:22Z</time>
   </trkpt>
   <trkpt lat="-3.1803080" lon="37.3579040">
    <ele>2558.2</ele>
    <time>2026-06-24T06:24:23Z</time>
   </trkpt>
   <trkpt lat="-3.1803080" lon="37.3579040">
    <ele>2558.2</ele>
    <time>2026-06-24T06:24:24Z</time>
   </trkpt>
   <trkpt lat="-3.1803080" lon="37.3579030">
    <ele>2558.2</ele>
    <time>2026-06-24T06:24:25Z</time>
   </trkpt>
   <trkpt lat="-3.1803080" lon="37.3579030">
    <ele>2558.2</ele>
    <time>2026-06-24T06:24:26Z</time>
   </trkpt>
   <trkpt lat="-3.1803080" lon="37.3579040">
    <ele>2558.2</ele>
    <time>2026-06-24T06:24:27Z</time>
   </trkpt>
   <trkpt lat="-3.1803080" lon="37.3579040">
    <ele>2558.2</ele>
    <time>2026-06-24T06:24:28Z</time>
   </trkpt>
   <trkpt lat="-3.1803070" lon="37.3579050">
    <ele>2558.2</ele>
    <time>2026-06-24T06:24:29Z</time>
   </trkpt>
   <trkpt lat="-3.1803070" lon="37.3579050">
    <ele>2558.2</ele>
    <time>2026-06-24T06:24:30Z</time>
   </trkpt>
   <trkpt lat="-3.1803080" lon="37.3579030">
    <ele>2558.1</ele>
    <time>2026-06-24T06:24:31Z</time>
   </trkpt>
   <trkpt lat="-3.1803080" lon="37.3579020">
    <ele>2558.1</ele>
    <time>2026-06-24T06:24:32Z</time>
   </trkpt>
   <trkpt lat="-3.1803090" lon="37.3579020">
    <ele>2558.1</ele>
    <time>2026-06-24T06:24:33Z</time>
   </trkpt>
   <trkpt lat="-3.1803080" lon="37.3579020">
    <ele>2558.0</ele>
    <time>2026-06-24T06:24:34Z</time>
   </trkpt>
   <trkpt lat="-3.1803080" lon="37.3579020">
    <ele>2558.0</ele>
    <time>2026-06-24T06:24:35Z</time>
   </trkpt>
   <trkpt lat="-3.1803070" lon="37.3579010">
    <ele>2558.0</ele>
    <time>2026-06-24T06:24:36Z</time>
   </trkpt>
   <trkpt lat="-3.1803070" lon="37.3578990">
    <ele>2558.0</ele>
    <time>2026-06-24T06:24:37Z</time>
   </trkpt>
   <trkpt lat="-3.1803070" lon="37.3579010">
    <ele>2557.9</ele>
    <time>2026-06-24T06:24:38Z</time>
   </trkpt>
   <trkpt lat="-3.1803080" lon="37.3579010">
    <ele>2557.9</ele>
    <time>2026-06-24T06:24:39Z</time>
   </trkpt>
   <trkpt lat="-3.1803130" lon="37.3578980">
    <ele>2557.7</ele>
    <time>2026-06-24T06:24:40Z</time>
   </trkpt>
   <trkpt lat="-3.1803140" lon="37.3579040">
    <ele>2557.6</ele>
    <time>2026-06-24T06:24:41Z</time>
   </trkpt>
   <trkpt lat="-3.1803130" lon="37.3579020">
    <ele>2557.5</ele>
    <time>2026-06-24T06:24:42Z</time>
   </trkpt>
   <trkpt lat="-3.1803120" lon="37.3579000">
    <ele>2557.5</ele>
    <time>2026-06-24T06:24:43Z</time>
   </trkpt>
   <trkpt lat="-3.1803140" lon="37.3578980">
    <ele>2557.4</ele>
    <time>2026-06-24T06:24:44Z</time>
   </trkpt>
   <trkpt lat="-3.1803140" lon="37.3578940">
    <ele>2557.3</ele>
    <time>2026-06-24T06:24:45Z</time>
   </trkpt>
   <trkpt lat="-3.1803140" lon="37.3578950">
    <ele>2557.3</ele>
    <time>2026-06-24T06:24:46Z</time>
   </trkpt>
   <trkpt lat="-3.1803160" lon="37.3578930">
    <ele>2557.2</ele>
    <time>2026-06-24T06:24:47Z</time>
   </trkpt>
   <trkpt lat="-3.1803170" lon="37.3578920">
    <ele>2557.2</ele>
    <time>2026-06-24T06:24:48Z</time>
   </trkpt>
   <trkpt lat="-3.1803190" lon="37.3578920">
    <ele>2557.1</ele>
    <time>2026-06-24T06:24:49Z</time>
   </trkpt>
   <trkpt lat="-3.1803200" lon="37.3578900">
    <ele>2557.1</ele>
    <time>2026-06-24T06:24:50Z</time>
   </trkpt>
   <trkpt lat="-3.1803220" lon="37.3578900">
    <ele>2557.0</ele>
    <time>2026-06-24T06:24:51Z</time>
   </trkpt>
   <trkpt lat="-3.1803210" lon="37.3578910">
    <ele>2557.0</ele>
    <time>2026-06-24T06:24:52Z</time>
   </trkpt>
   <trkpt lat="-3.1803110" lon="37.3579110">
    <ele>2556.4</ele>
    <time>2026-06-24T06:24:53Z</time>
   </trkpt>
   <trkpt lat="-3.1803130" lon="37.3579070">
    <ele>2556.3</ele>
    <time>2026-06-24T06:24:54Z</time>
   </trkpt>
   <trkpt lat="-3.1803080" lon="37.3579010">
    <ele>2556.1</ele>
    <time>2026-06-24T06:24:55Z</time>
   </trkpt>
   <trkpt lat="-3.1803090" lon="37.3579010">
    <ele>2556.1</ele>
    <time>2026-06-24T06:24:56Z</time>
   </trkpt>
   <trkpt lat="-3.1803100" lon="37.3578980">
    <ele>2556.0</ele>
    <time>2026-06-24T06:24:57Z</time>
   </trkpt>
   <trkpt lat="-3.1803150" lon="37.3578970">
    <ele>2555.9</ele>
    <time>2026-06-24T06:24:58Z</time>
   </trkpt>
   <trkpt lat="-3.1803200" lon="37.3578980">
    <ele>2555.8</ele>
    <time>2026-06-24T06:24:59Z</time>
   </trkpt>
   <trkpt lat="-3.1803200" lon="37.3578960">
    <ele>2555.7</ele>
    <time>2026-06-24T06:25:00Z</time>
   </trkpt>
   <trkpt lat="-3.1803230" lon="37.3578940">
    <ele>2555.6</ele>
    <time>2026-06-24T06:25:01Z</time>
   </trkpt>
   <trkpt lat="-3.1803240" lon="37.3578920">
    <ele>2555.6</ele>
    <time>2026-06-24T06:25:02Z</time>
   </trkpt>
   <trkpt lat="-3.1803300" lon="37.3578870">
    <ele>2555.4</ele>
    <time>2026-06-24T06:25:03Z</time>
   </trkpt>
   <trkpt lat="-3.1803290" lon="37.3578830">
    <ele>2555.3</ele>
    <time>2026-06-24T06:25:04Z</time>
   </trkpt>
   <trkpt lat="-3.1803330" lon="37.3578830">
    <ele>2555.2</ele>
    <time>2026-06-24T06:25:05Z</time>
   </trkpt>
   <trkpt lat="-3.1803350" lon="37.3578830">
    <ele>2555.1</ele>
    <time>2026-06-24T06:25:06Z</time>
   </trkpt>
   <trkpt lat="-3.1803350" lon="37.3578830">
    <ele>2555.1</ele>
    <time>2026-06-24T06:25:07Z</time>
   </trkpt>
   <trkpt lat="-3.1803400" lon="37.3578840">
    <ele>2555.0</ele>
    <time>2026-06-24T06:25:08Z</time>
   </trkpt>
   <trkpt lat="-3.1803430" lon="37.3578840">
    <ele>2554.9</ele>
    <time>2026-06-24T06:25:09Z</time>
   </trkpt>
   <trkpt lat="-3.1803450" lon="37.3578850">
    <ele>2554.8</ele>
    <time>2026-06-24T06:25:10Z</time>
   </trkpt>
   <trkpt lat="-3.1803470" lon="37.3578850">
    <ele>2554.8</ele>
    <time>2026-06-24T06:25:11Z</time>
   </trkpt>
   <trkpt lat="-3.1803480" lon="37.3578840">
    <ele>2554.7</ele>
    <time>2026-06-24T06:25:12Z</time>
   </trkpt>
   <trkpt lat="-3.1803490" lon="37.3578830">
    <ele>2554.7</ele>
    <time>2026-06-24T06:25:13Z</time>
   </trkpt>
   <trkpt lat="-3.1803530" lon="37.3578770">
    <ele>2554.5</ele>
    <time>2026-06-24T06:25:14Z</time>
   </trkpt>
   <trkpt lat="-3.1803540" lon="37.3578760">
    <ele>2554.5</ele>
    <time>2026-06-24T06:25:15Z</time>
   </trkpt>
   <trkpt lat="-3.1803500" lon="37.3578820">
    <ele>2554.3</ele>
    <time>2026-06-24T06:25:16Z</time>
   </trkpt>
   <trkpt lat="-3.1803470" lon="37.3578840">
    <ele>2554.2</ele>
    <time>2026-06-24T06:25:17Z</time>
   </trkpt>
   <trkpt lat="-3.1803450" lon="37.3578860">
    <ele>2554.1</ele>
    <time>2026-06-24T06:25:18Z</time>
   </trkpt>
   <trkpt lat="-3.1803420" lon="37.3578870">
    <ele>2554.0</ele>
    <time>2026-06-24T06:25:19Z</time>
   </trkpt>
   <trkpt lat="-3.1803390" lon="37.3578880">
    <ele>2553.9</ele>
    <time>2026-06-24T06:25:20Z</time>
   </trkpt>
   <trkpt lat="-3.1803350" lon="37.3578890">
    <ele>2553.8</ele>
    <time>2026-06-24T06:25:21Z</time>
   </trkpt>
   <trkpt lat="-3.1803290" lon="37.3578930">
    <ele>2553.6</ele>
    <time>2026-06-24T06:25:22Z</time>
   </trkpt>
   <trkpt lat="-3.1803290" lon="37.3578930">
    <ele>2553.6</ele>
    <time>2026-06-24T06:25:23Z</time>
   </trkpt>
   <trkpt lat="-3.1803220" lon="37.3578970">
    <ele>2553.4</ele>
    <time>2026-06-24T06:25:24Z</time>
   </trkpt>
   <trkpt lat="-3.1803230" lon="37.3578990">
    <ele>2553.3</ele>
    <time>2026-06-24T06:25:25Z</time>
   </trkpt>
   <trkpt lat="-3.1803200" lon="37.3579000">
    <ele>2553.3</ele>
    <time>2026-06-24T06:25:26Z</time>
   </trkpt>
   <trkpt lat="-3.1803180" lon="37.3579030">
    <ele>2553.2</ele>
    <time>2026-06-24T06:25:27Z</time>
   </trkpt>
   <trkpt lat="-3.1803130" lon="37.3579040">
    <ele>2553.0</ele>
    <time>2026-06-24T06:25:28Z</time>
   </trkpt>
   <trkpt lat="-3.1803150" lon="37.3579000">
    <ele>2552.9</ele>
    <time>2026-06-24T06:25:29Z</time>
   </trkpt>
   <trkpt lat="-3.1803140" lon="37.3578980">
    <ele>2552.8</ele>
    <time>2026-06-24T06:25:30Z</time>
   </trkpt>
   <trkpt lat="-3.1803140" lon="37.3578980">
    <ele>2552.8</ele>
    <time>2026-06-24T06:25:31Z</time>
   </trkpt>
   <trkpt lat="-3.1803130" lon="37.3578930">
    <ele>2552.7</ele>
    <time>2026-06-24T06:25:32Z</time>
   </trkpt>
   <trkpt lat="-3.1803120" lon="37.3578900">
    <ele>2552.6</ele>
    <time>2026-06-24T06:25:33Z</time>
   </trkpt>
   <trkpt lat="-3.1803140" lon="37.3578940">
    <ele>2552.5</ele>
    <time>2026-06-24T06:25:34Z</time>
   </trkpt>
   <trkpt lat="-3.1803150" lon="37.3578940">
    <ele>2552.4</ele>
    <time>2026-06-24T06:25:35Z</time>
   </trkpt>
   <trkpt lat="-3.1803150" lon="37.3578930">
    <ele>2552.4</ele>
    <time>2026-06-24T06:25:36Z</time>
   </trkpt>
   <trkpt lat="-3.1803140" lon="37.3578970">
    <ele>2552.3</ele>
    <time>2026-06-24T06:25:37Z</time>
   </trkpt>
   <trkpt lat="-3.1803170" lon="37.3578770">
    <ele>2551.7</ele>
    <time>2026-06-24T06:25:38Z</time>
   </trkpt>
   <trkpt lat="-3.1803210" lon="37.3578830">
    <ele>2551.5</ele>
    <time>2026-06-24T06:25:39Z</time>
   </trkpt>
   <trkpt lat="-3.1803170" lon="37.3578850">
    <ele>2551.4</ele>
    <time>2026-06-24T06:25:40Z</time>
   </trkpt>
   <trkpt lat="-3.1803170" lon="37.3578870">
    <ele>2551.4</ele>
    <time>2026-06-24T06:25:41Z</time>
   </trkpt>
   <trkpt lat="-3.1803190" lon="37.3578800">
    <ele>2551.2</ele>
    <time>2026-06-24T06:25:42Z</time>
   </trkpt>
   <trkpt lat="-3.1803230" lon="37.3578780">
    <ele>2551.0</ele>
    <time>2026-06-24T06:25:43Z</time>
   </trkpt>
   <trkpt lat="-3.1803230" lon="37.3578710">
    <ele>2550.8</ele>
    <time>2026-06-24T06:25:44Z</time>
   </trkpt>
   <trkpt lat="-3.1803200" lon="37.3578750">
    <ele>2550.7</ele>
    <time>2026-06-24T06:25:45Z</time>
   </trkpt>
   <trkpt lat="-3.1803180" lon="37.3578700">
    <ele>2550.6</ele>
    <time>2026-06-24T06:25:46Z</time>
   </trkpt>
   <trkpt lat="-3.1803170" lon="37.3578720">
    <ele>2550.5</ele>
    <time>2026-06-24T06:25:47Z</time>
   </trkpt>
   <trkpt lat="-3.1803200" lon="37.3578690">
    <ele>2550.4</ele>
    <time>2026-06-24T06:25:48Z</time>
   </trkpt>
   <trkpt lat="-3.1803230" lon="37.3578680">
    <ele>2550.3</ele>
    <time>2026-06-24T06:25:49Z</time>
   </trkpt>
   <trkpt lat="-3.1803220" lon="37.3578690">
    <ele>2550.2</ele>
    <time>2026-06-24T06:25:50Z</time>
   </trkpt>
   <trkpt lat="-3.1803240" lon="37.3578670">
    <ele>2550.2</ele>
    <time>2026-06-24T06:25:51Z</time>
   </trkpt>
   <trkpt lat="-3.1803230" lon="37.3578650">
    <ele>2550.1</ele>
    <time>2026-06-24T06:25:52Z</time>
   </trkpt>
   <trkpt lat="-3.1803230" lon="37.3578650">
    <ele>2550.1</ele>
    <time>2026-06-24T06:25:53Z</time>
   </trkpt>
   <trkpt lat="-3.1803230" lon="37.3578650">
    <ele>2550.1</ele>
    <time>2026-06-24T06:25:54Z</time>
   </trkpt>
   <trkpt lat="-3.1803210" lon="37.3578670">
    <ele>2550.0</ele>
    <time>2026-06-24T06:25:55Z</time>
   </trkpt>
   <trkpt lat="-3.1803210" lon="37.3578680">
    <ele>2550.0</ele>
    <time>2026-06-24T06:25:56Z</time>
   </trkpt>
   <trkpt lat="-3.1803220" lon="37.3578640">
    <ele>2549.9</ele>
    <time>2026-06-24T06:25:57Z</time>
   </trkpt>
   <trkpt lat="-3.1803240" lon="37.3578600">
    <ele>2549.8</ele>
    <time>2026-06-24T06:25:58Z</time>
   </trkpt>
   <trkpt lat="-3.1803280" lon="37.3578610">
    <ele>2549.6</ele>
    <time>2026-06-24T06:25:59Z</time>
   </trkpt>
   <trkpt lat="-3.1803330" lon="37.3578630">
    <ele>2549.5</ele>
    <time>2026-06-24T06:26:00Z</time>
   </trkpt>
   <trkpt lat="-3.1803340" lon="37.3578640">
    <ele>2549.5</ele>
    <time>2026-06-24T06:26:01Z</time>
   </trkpt>
   <trkpt lat="-3.1803400" lon="37.3578670">
    <ele>2549.3</ele>
    <time>2026-06-24T06:26:02Z</time>
   </trkpt>
   <trkpt lat="-3.1803440" lon="37.3578670">
    <ele>2549.2</ele>
    <time>2026-06-24T06:26:03Z</time>
   </trkpt>
   <trkpt lat="-3.1803450" lon="37.3578670">
    <ele>2549.1</ele>
    <time>2026-06-24T06:26:04Z</time>
   </trkpt>
   <trkpt lat="-3.1803450" lon="37.3578730">
    <ele>2549.0</ele>
    <time>2026-06-24T06:26:05Z</time>
   </trkpt>
   <trkpt lat="-3.1803450" lon="37.3578740">
    <ele>2548.9</ele>
    <time>2026-06-24T06:26:06Z</time>
   </trkpt>
   <trkpt lat="-3.1803480" lon="37.3578760">
    <ele>2548.8</ele>
    <time>2026-06-24T06:26:07Z</time>
   </trkpt>
   <trkpt lat="-3.1803480" lon="37.3578770">
    <ele>2548.8</ele>
    <time>2026-06-24T06:26:08Z</time>
   </trkpt>
   <trkpt lat="-3.1803480" lon="37.3578770">
    <ele>2548.8</ele>
    <time>2026-06-24T06:26:09Z</time>
   </trkpt>
   <trkpt lat="-3.1803480" lon="37.3578770">
    <ele>2548.8</ele>
    <time>2026-06-24T06:26:10Z</time>
   </trkpt>
   <trkpt lat="-3.1803480" lon="37.3578770">
    <ele>2548.8</ele>
    <time>2026-06-24T06:26:11Z</time>
   </trkpt>
   <trkpt lat="-3.1803510" lon="37.3578680">
    <ele>2548.5</ele>
    <time>2026-06-24T06:26:12Z</time>
   </trkpt>
   <trkpt lat="-3.1803510" lon="37.3578710">
    <ele>2548.5</ele>
    <time>2026-06-24T06:26:13Z</time>
   </trkpt>
   <trkpt lat="-3.1803500" lon="37.3578720">
    <ele>2548.4</ele>
    <time>2026-06-24T06:26:14Z</time>
   </trkpt>
   <trkpt lat="-3.1803490" lon="37.3578720">
    <ele>2548.4</ele>
    <time>2026-06-24T06:26:15Z</time>
   </trkpt>
   <trkpt lat="-3.1803480" lon="37.3578720">
    <ele>2548.4</ele>
    <time>2026-06-24T06:26:16Z</time>
   </trkpt>
   <trkpt lat="-3.1803450" lon="37.3578700">
    <ele>2548.3</ele>
    <time>2026-06-24T06:26:17Z</time>
   </trkpt>
   <trkpt lat="-3.1803450" lon="37.3578700">
    <ele>2548.3</ele>
    <time>2026-06-24T06:26:18Z</time>
   </trkpt>
   <trkpt lat="-3.1803450" lon="37.3578700">
    <ele>2548.3</ele>
    <time>2026-06-24T06:26:19Z</time>
   </trkpt>
   <trkpt lat="-3.1803450" lon="37.3578700">
    <ele>2548.3</ele>
    <time>2026-06-24T06:26:20Z</time>
   </trkpt>
   <trkpt lat="-3.1803450" lon="37.3578700">
    <ele>2548.3</ele>
    <time>2026-06-24T06:26:21Z</time>
   </trkpt>
   <trkpt lat="-3.1803450" lon="37.3578700">
    <ele>2548.3</ele>
    <time>2026-06-24T06:26:22Z</time>
   </trkpt>
   <trkpt lat="-3.1803450" lon="37.3578700">
    <ele>2548.3</ele>
    <time>2026-06-24T06:26:23Z</time>
   </trkpt>
   <trkpt lat="-3.1803360" lon="37.3578720">
    <ele>2548.0</ele>
    <time>2026-06-24T06:26:24Z</time>
   </trkpt>
   <trkpt lat="-3.1803330" lon="37.3578690">
    <ele>2547.9</ele>
    <time>2026-06-24T06:26:26Z</time>
   </trkpt>
   <trkpt lat="-3.1803330" lon="37.3578670">
    <ele>2547.8</ele>
    <time>2026-06-24T06:26:27Z</time>
   </trkpt>
   <trkpt lat="-3.1803330" lon="37.3578680">
    <ele>2547.8</ele>
    <time>2026-06-24T06:26:29Z</time>
   </trkpt>
   <trkpt lat="-3.1803330" lon="37.3578680">
    <ele>2547.8</ele>
    <time>2026-06-24T06:26:31Z</time>
   </trkpt>
   <trkpt lat="-3.1803290" lon="37.3578700">
    <ele>2547.7</ele>
    <time>2026-06-24T06:26:32Z</time>
   </trkpt>
   <trkpt lat="-3.1803290" lon="37.3578710">
    <ele>2547.7</ele>
    <time>2026-06-24T06:26:33Z</time>
   </trkpt>
   <trkpt lat="-3.1803260" lon="37.3578710">
    <ele>2547.6</ele>
    <time>2026-06-24T06:26:34Z</time>
   </trkpt>
   <trkpt lat="-3.1803260" lon="37.3578730">
    <ele>2547.5</ele>
    <time>2026-06-24T06:26:35Z</time>
   </trkpt>
   <trkpt lat="-3.1803260" lon="37.3578730">
    <ele>2547.5</ele>
    <time>2026-06-24T06:26:36Z</time>
   </trkpt>
   <trkpt lat="-3.1803230" lon="37.3578730">
    <ele>2547.4</ele>
    <time>2026-06-24T06:26:37Z</time>
   </trkpt>
   <trkpt lat="-3.1803230" lon="37.3578730">
    <ele>2547.4</ele>
    <time>2026-06-24T06:26:38Z</time>
   </trkpt>
   <trkpt lat="-3.1803150" lon="37.3578630">
    <ele>2547.1</ele>
    <time>2026-06-24T06:26:39Z</time>
   </trkpt>
   <trkpt lat="-3.1803170" lon="37.3578660">
    <ele>2547.0</ele>
    <time>2026-06-24T06:26:40Z</time>
   </trkpt>
   <trkpt lat="-3.1803180" lon="37.3578680">
    <ele>2546.9</ele>
    <time>2026-06-24T06:26:41Z</time>
   </trkpt>
   <trkpt lat="-3.1803200" lon="37.3578680">
    <ele>2546.9</ele>
    <time>2026-06-24T06:26:42Z</time>
   </trkpt>
   <trkpt lat="-3.1803200" lon="37.3578680">
    <ele>2546.9</ele>
    <time>2026-06-24T06:26:43Z</time>
   </trkpt>
   <trkpt lat="-3.1803230" lon="37.3578670">
    <ele>2546.8</ele>
    <time>2026-06-24T06:26:44Z</time>
   </trkpt>
   <trkpt lat="-3.1803230" lon="37.3578680">
    <ele>2546.7</ele>
    <time>2026-06-24T06:26:45Z</time>
   </trkpt>
   <trkpt lat="-3.1803240" lon="37.3578680">
    <ele>2546.7</ele>
    <time>2026-06-24T06:26:46Z</time>
   </trkpt>
   <trkpt lat="-3.1803280" lon="37.3578650">
    <ele>2546.6</ele>
    <time>2026-06-24T06:26:47Z</time>
   </trkpt>
   <trkpt lat="-3.1803280" lon="37.3578660">
    <ele>2546.5</ele>
    <time>2026-06-24T06:26:48Z</time>
   </trkpt>
   <trkpt lat="-3.1803260" lon="37.3578660">
    <ele>2546.5</ele>
    <time>2026-06-24T06:26:49Z</time>
   </trkpt>
   <trkpt lat="-3.1803250" lon="37.3578680">
    <ele>2546.4</ele>
    <time>2026-06-24T06:26:50Z</time>
   </trkpt>
   <trkpt lat="-3.1803240" lon="37.3578690">
    <ele>2546.4</ele>
    <time>2026-06-24T06:26:51Z</time>
   </trkpt>
   <trkpt lat="-3.1803240" lon="37.3578690">
    <ele>2546.4</ele>
    <time>2026-06-24T06:26:52Z</time>
   </trkpt>
   <trkpt lat="-3.1803230" lon="37.3578700">
    <ele>2546.4</ele>
    <time>2026-06-24T06:26:53Z</time>
   </trkpt>
   <trkpt lat="-3.1803240" lon="37.3578690">
    <ele>2546.3</ele>
    <time>2026-06-24T06:26:54Z</time>
   </trkpt>
   <trkpt lat="-3.1803230" lon="37.3578630">
    <ele>2546.1</ele>
    <time>2026-06-24T06:26:55Z</time>
   </trkpt>
   <trkpt lat="-3.1803240" lon="37.3578630">
    <ele>2546.1</ele>
    <time>2026-06-24T06:26:56Z</time>
   </trkpt>
   <trkpt lat="-3.1803240" lon="37.3578700">
    <ele>2545.9</ele>
    <time>2026-06-24T06:26:57Z</time>
   </trkpt>
   <trkpt lat="-3.1803240" lon="37.3578730">
    <ele>2545.9</ele>
    <time>2026-06-24T06:26:58Z</time>
   </trkpt>
   <trkpt lat="-3.1803240" lon="37.3578730">
    <ele>2545.9</ele>
    <time>2026-06-24T06:26:59Z</time>
   </trkpt>
   <trkpt lat="-3.1803230" lon="37.3578780">
    <ele>2545.7</ele>
    <time>2026-06-24T06:27:00Z</time>
   </trkpt>
   <trkpt lat="-3.1803220" lon="37.3578810">
    <ele>2545.6</ele>
    <time>2026-06-24T06:27:01Z</time>
   </trkpt>
   <trkpt lat="-3.1803210" lon="37.3578820">
    <ele>2545.6</ele>
    <time>2026-06-24T06:27:02Z</time>
   </trkpt>
   <trkpt lat="-3.1803220" lon="37.3578830">
    <ele>2545.6</ele>
    <time>2026-06-24T06:27:03Z</time>
   </trkpt>
   <trkpt lat="-3.1803220" lon="37.3578830">
    <ele>2545.6</ele>
    <time>2026-06-24T06:27:04Z</time>
   </trkpt>
   <trkpt lat="-3.1803220" lon="37.3578830">
    <ele>2545.6</ele>
    <time>2026-06-24T06:27:05Z</time>
   </trkpt>
   <trkpt lat="-3.1803220" lon="37.3578840">
    <ele>2545.5</ele>
    <time>2026-06-24T06:27:06Z</time>
   </trkpt>
   <trkpt lat="-3.1803180" lon="37.3578850">
    <ele>2545.4</ele>
    <time>2026-06-24T06:27:07Z</time>
   </trkpt>
   <trkpt lat="-3.1803180" lon="37.3578860">
    <ele>2545.4</ele>
    <time>2026-06-24T06:27:08Z</time>
   </trkpt>
   <trkpt lat="-3.1803210" lon="37.3578850">
    <ele>2545.3</ele>
    <time>2026-06-24T06:27:09Z</time>
   </trkpt>
   <trkpt lat="-3.1803210" lon="37.3578850">
    <ele>2545.3</ele>
    <time>2026-06-24T06:27:10Z</time>
   </trkpt>
   <trkpt lat="-3.1803210" lon="37.3578870">
    <ele>2545.3</ele>
    <time>2026-06-24T06:27:11Z</time>
   </trkpt>
   <trkpt lat="-3.1803210" lon="37.3578870">
    <ele>2545.3</ele>
    <time>2026-06-24T06:27:12Z</time>
   </trkpt>
   <trkpt lat="-3.1803210" lon="37.3578870">
    <ele>2545.3</ele>
    <time>2026-06-24T06:27:13Z</time>
   </trkpt>
   <trkpt lat="-3.1803240" lon="37.3578880">
    <ele>2545.2</ele>
    <time>2026-06-24T06:27:14Z</time>
   </trkpt>
   <trkpt lat="-3.1803240" lon="37.3578880">
    <ele>2545.2</ele>
    <time>2026-06-24T06:27:15Z</time>
   </trkpt>
   <trkpt lat="-3.1803240" lon="37.3578880">
    <ele>2545.2</ele>
    <time>2026-06-24T06:27:16Z</time>
   </trkpt>
   <trkpt lat="-3.1803280" lon="37.3578900">
    <ele>2545.0</ele>
    <time>2026-06-24T06:27:17Z</time>
   </trkpt>
   <trkpt lat="-3.1803300" lon="37.3578910">
    <ele>2545.0</ele>
    <time>2026-06-24T06:27:18Z</time>
   </trkpt>
   <trkpt lat="-3.1803300" lon="37.3578910">
    <ele>2545.0</ele>
    <time>2026-06-24T06:27:19Z</time>
   </trkpt>
   <trkpt lat="-3.1803300" lon="37.3578910">
    <ele>2545.0</ele>
    <time>2026-06-24T06:27:20Z</time>
   </trkpt>
   <trkpt lat="-3.1803320" lon="37.3578930">
    <ele>2544.9</ele>
    <time>2026-06-24T06:27:21Z</time>
   </trkpt>
   <trkpt lat="-3.1803320" lon="37.3578930">
    <ele>2544.9</ele>
    <time>2026-06-24T06:27:22Z</time>
   </trkpt>
   <trkpt lat="-3.1803320" lon="37.3578930">
    <ele>2544.9</ele>
    <time>2026-06-24T06:27:23Z</time>
   </trkpt>
   <trkpt lat="-3.1803340" lon="37.3578990">
    <ele>2544.7</ele>
    <time>2026-06-24T06:27:24Z</time>
   </trkpt>
   <trkpt lat="-3.1803350" lon="37.3579000">
    <ele>2544.7</ele>
    <time>2026-06-24T06:27:25Z</time>
   </trkpt>
   <trkpt lat="-3.1803360" lon="37.3579010">
    <ele>2544.7</ele>
    <time>2026-06-24T06:27:26Z</time>
   </trkpt>
   <trkpt lat="-3.1803360" lon="37.3579010">
    <ele>2544.7</ele>
    <time>2026-06-24T06:27:27Z</time>
   </trkpt>
   <trkpt lat="-3.1803360" lon="37.3579010">
    <ele>2544.7</ele>
    <time>2026-06-24T06:27:28Z</time>
   </trkpt>
   <trkpt lat="-3.1803360" lon="37.3579030">
    <ele>2544.6</ele>
    <time>2026-06-24T06:27:29Z</time>
   </trkpt>
   <trkpt lat="-3.1803360" lon="37.3579050">
    <ele>2544.6</ele>
    <time>2026-06-24T06:27:30Z</time>
   </trkpt>
   <trkpt lat="-3.1803360" lon="37.3579050">
    <ele>2544.6</ele>
    <time>2026-06-24T06:27:31Z</time>
   </trkpt>
   <trkpt lat="-3.1803360" lon="37.3579050">
    <ele>2544.6</ele>
    <time>2026-06-24T06:27:32Z</time>
   </trkpt>
   <trkpt lat="-3.1803360" lon="37.3579050">
    <ele>2544.6</ele>
    <time>2026-06-24T06:27:33Z</time>
   </trkpt>
   <trkpt lat="-3.1803340" lon="37.3579060">
    <ele>2544.5</ele>
    <time>2026-06-24T06:27:34Z</time>
   </trkpt>
   <trkpt lat="-3.1803340" lon="37.3579060">
    <ele>2544.5</ele>
    <time>2026-06-24T06:27:35Z</time>
   </trkpt>
   <trkpt lat="-3.1803330" lon="37.3579070">
    <ele>2544.5</ele>
    <time>2026-06-24T06:27:36Z</time>
   </trkpt>
   <trkpt lat="-3.1803330" lon="37.3579070">
    <ele>2544.5</ele>
    <time>2026-06-24T06:27:37Z</time>
   </trkpt>
   <trkpt lat="-3.1803320" lon="37.3579070">
    <ele>2544.4</ele>
    <time>2026-06-24T06:27:38Z</time>
   </trkpt>
   <trkpt lat="-3.1803320" lon="37.3579080">
    <ele>2544.4</ele>
    <time>2026-06-24T06:27:39Z</time>
   </trkpt>
   <trkpt lat="-3.1803330" lon="37.3579090">
    <ele>2544.4</ele>
    <time>2026-06-24T06:27:40Z</time>
   </trkpt>
   <trkpt lat="-3.1803330" lon="37.3579090">
    <ele>2544.4</ele>
    <time>2026-06-24T06:27:41Z</time>
   </trkpt>
   <trkpt lat="-3.1803330" lon="37.3579090">
    <ele>2544.4</ele>
    <time>2026-06-24T06:27:42Z</time>
   </trkpt>
   <trkpt lat="-3.1803330" lon="37.3579090">
    <ele>2544.4</ele>
    <time>2026-06-24T06:27:43Z</time>
   </trkpt>
   <trkpt lat="-3.1803330" lon="37.3579090">
    <ele>2544.4</ele>
    <time>2026-06-24T06:27:44Z</time>
   </trkpt>
   <trkpt lat="-3.1803350" lon="37.3579070">
    <ele>2544.3</ele>
    <time>2026-06-24T06:27:45Z</time>
   </trkpt>
   <trkpt lat="-3.1803350" lon="37.3579070">
    <ele>2544.3</ele>
    <time>2026-06-24T06:27:46Z</time>
   </trkpt>
   <trkpt lat="-3.1803350" lon="37.3579070">
    <ele>2544.3</ele>
    <time>2026-06-24T06:27:47Z</time>
   </trkpt>
   <trkpt lat="-3.1803350" lon="37.3579080">
    <ele>2544.3</ele>
    <time>2026-06-24T06:27:48Z</time>
   </trkpt>
   <trkpt lat="-3.1803350" lon="37.3579080">
    <ele>2544.3</ele>
    <time>2026-06-24T06:27:49Z</time>
   </trkpt>
   <trkpt lat="-3.1803350" lon="37.3579080">
    <ele>2544.3</ele>
    <time>2026-06-24T06:27:50Z</time>
   </trkpt>
   <trkpt lat="-3.1803350" lon="37.3579080">
    <ele>2544.3</ele>
    <time>2026-06-24T06:27:51Z</time>
   </trkpt>
   <trkpt lat="-3.1803350" lon="37.3579080">
    <ele>2544.3</ele>
    <time>2026-06-24T06:27:52Z</time>
   </trkpt>
   <trkpt lat="-3.1803350" lon="37.3579080">
    <ele>2544.3</ele>
    <time>2026-06-24T06:27:53Z</time>
   </trkpt>
   <trkpt lat="-3.1803350" lon="37.3579080">
    <ele>2544.3</ele>
    <time>2026-06-24T06:27:54Z</time>
   </trkpt>
   <trkpt lat="-3.1803350" lon="37.3579050">
    <ele>2544.2</ele>
    <time>2026-06-24T06:27:55Z</time>
   </trkpt>
   <trkpt lat="-3.1803350" lon="37.3579050">
    <ele>2544.2</ele>
    <time>2026-06-24T06:27:56Z</time>
   </trkpt>
   <trkpt lat="-3.1803350" lon="37.3579050">
    <ele>2544.2</ele>
    <time>2026-06-24T06:27:57Z</time>
   </trkpt>
   <trkpt lat="-3.1803350" lon="37.3579050">
    <ele>2544.2</ele>
    <time>2026-06-24T06:27:58Z</time>
   </trkpt>
   <trkpt lat="-3.1803350" lon="37.3579050">
    <ele>2544.2</ele>
    <time>2026-06-24T06:27:59Z</time>
   </trkpt>
   <trkpt lat="-3.1803290" lon="37.3579030">
    <ele>2544.0</ele>
    <time>2026-06-24T06:28:00Z</time>
   </trkpt>
   <trkpt lat="-3.1803290" lon="37.3579040">
    <ele>2544.0</ele>
    <time>2026-06-24T06:28:01Z</time>
   </trkpt>
   <trkpt lat="-3.1803250" lon="37.3579030">
    <ele>2543.9</ele>
    <time>2026-06-24T06:28:02Z</time>
   </trkpt>
   <trkpt lat="-3.1803250" lon="37.3579040">
    <ele>2543.9</ele>
    <time>2026-06-24T06:28:03Z</time>
   </trkpt>
   <trkpt lat="-3.1803230" lon="37.3579050">
    <ele>2543.8</ele>
    <time>2026-06-24T06:28:04Z</time>
   </trkpt>
   <trkpt lat="-3.1803230" lon="37.3579050">
    <ele>2543.8</ele>
    <time>2026-06-24T06:28:05Z</time>
   </trkpt>
   <trkpt lat="-3.1803230" lon="37.3579050">
    <ele>2543.8</ele>
    <time>2026-06-24T06:28:06Z</time>
   </trkpt>
   <trkpt lat="-3.1803240" lon="37.3579060">
    <ele>2543.8</ele>
    <time>2026-06-24T06:28:07Z</time>
   </trkpt>
   <trkpt lat="-3.1803200" lon="37.3579040">
    <ele>2543.6</ele>
    <time>2026-06-24T06:28:08Z</time>
   </trkpt>
   <trkpt lat="-3.1803200" lon="37.3579030">
    <ele>2543.6</ele>
    <time>2026-06-24T06:28:09Z</time>
   </trkpt>
   <trkpt lat="-3.1803200" lon="37.3579040">
    <ele>2543.6</ele>
    <time>2026-06-24T06:28:10Z</time>
   </trkpt>
   <trkpt lat="-3.1803200" lon="37.3579040">
    <ele>2543.6</ele>
    <time>2026-06-24T06:28:11Z</time>
   </trkpt>
   <trkpt lat="-3.1803240" lon="37.3578960">
    <ele>2543.3</ele>
    <time>2026-06-24T06:28:12Z</time>
   </trkpt>
   <trkpt lat="-3.1803240" lon="37.3578960">
    <ele>2543.3</ele>
    <time>2026-06-24T06:28:13Z</time>
   </trkpt>
   <trkpt lat="-3.1803300" lon="37.3578910">
    <ele>2543.1</ele>
    <time>2026-06-24T06:28:14Z</time>
   </trkpt>
   <trkpt lat="-3.1803320" lon="37.3578870">
    <ele>2543.0</ele>
    <time>2026-06-24T06:28:15Z</time>
   </trkpt>
   <trkpt lat="-3.1803320" lon="37.3578870">
    <ele>2543.0</ele>
    <time>2026-06-24T06:28:16Z</time>
   </trkpt>
   <trkpt lat="-3.1803340" lon="37.3578850">
    <ele>2542.9</ele>
    <time>2026-06-24T06:28:17Z</time>
   </trkpt>
   <trkpt lat="-3.1803380" lon="37.3578860">
    <ele>2542.8</ele>
    <time>2026-06-24T06:28:18Z</time>
   </trkpt>
   <trkpt lat="-3.1803380" lon="37.3578870">
    <ele>2542.8</ele>
    <time>2026-06-24T06:28:19Z</time>
   </trkpt>
   <trkpt lat="-3.1803420" lon="37.3578860">
    <ele>2542.7</ele>
    <time>2026-06-24T06:28:20Z</time>
   </trkpt>
   <trkpt lat="-3.1803440" lon="37.3578840">
    <ele>2542.6</ele>
    <time>2026-06-24T06:28:21Z</time>
   </trkpt>
   <trkpt lat="-3.1803490" lon="37.3578820">
    <ele>2542.5</ele>
    <time>2026-06-24T06:28:22Z</time>
   </trkpt>
   <trkpt lat="-3.1803530" lon="37.3578790">
    <ele>2542.3</ele>
    <time>2026-06-24T06:28:24Z</time>
   </trkpt>
   <trkpt lat="-3.1803540" lon="37.3578790">
    <ele>2542.3</ele>
    <time>2026-06-24T06:28:25Z</time>
   </trkpt>
   <trkpt lat="-3.1803550" lon="37.3578720">
    <ele>2542.1</ele>
    <time>2026-06-24T06:28:26Z</time>
   </trkpt>
   <trkpt lat="-3.1803580" lon="37.3578710">
    <ele>2542.0</ele>
    <time>2026-06-24T06:28:27Z</time>
   </trkpt>
   <trkpt lat="-3.1803590" lon="37.3578680">
    <ele>2541.9</ele>
    <time>2026-06-24T06:28:28Z</time>
   </trkpt>
   <trkpt lat="-3.1803590" lon="37.3578650">
    <ele>2541.9</ele>
    <time>2026-06-24T06:28:29Z</time>
   </trkpt>
   <trkpt lat="-3.1803590" lon="37.3578610">
    <ele>2541.8</ele>
    <time>2026-06-24T06:28:30Z</time>
   </trkpt>
   <trkpt lat="-3.1803580" lon="37.3578620">
    <ele>2541.7</ele>
    <time>2026-06-24T06:28:31Z</time>
   </trkpt>
   <trkpt lat="-3.1803610" lon="37.3578520">
    <ele>2541.4</ele>
    <time>2026-06-24T06:28:32Z</time>
   </trkpt>
   <trkpt lat="-3.1803670" lon="37.3578530">
    <ele>2541.3</ele>
    <time>2026-06-24T06:28:33Z</time>
   </trkpt>
   <trkpt lat="-3.1803740" lon="37.3578570">
    <ele>2541.1</ele>
    <time>2026-06-24T06:28:34Z</time>
   </trkpt>
   <trkpt lat="-3.1803800" lon="37.3578610">
    <ele>2540.9</ele>
    <time>2026-06-24T06:28:35Z</time>
   </trkpt>
   <trkpt lat="-3.1803810" lon="37.3578620">
    <ele>2540.8</ele>
    <time>2026-06-24T06:28:36Z</time>
   </trkpt>
   <trkpt lat="-3.1803790" lon="37.3578670">
    <ele>2540.7</ele>
    <time>2026-06-24T06:28:37Z</time>
   </trkpt>
   <trkpt lat="-3.1803820" lon="37.3578740">
    <ele>2540.5</ele>
    <time>2026-06-24T06:28:38Z</time>
   </trkpt>
   <trkpt lat="-3.1803790" lon="37.3578800">
    <ele>2540.3</ele>
    <time>2026-06-24T06:28:39Z</time>
   </trkpt>
   <trkpt lat="-3.1803790" lon="37.3578800">
    <ele>2540.3</ele>
    <time>2026-06-24T06:28:40Z</time>
   </trkpt>
   <trkpt lat="-3.1803820" lon="37.3578790">
    <ele>2540.2</ele>
    <time>2026-06-24T06:28:41Z</time>
   </trkpt>
   <trkpt lat="-3.1803870" lon="37.3578790">
    <ele>2540.1</ele>
    <time>2026-06-24T06:28:42Z</time>
   </trkpt>
   <trkpt lat="-3.1803940" lon="37.3578780">
    <ele>2539.9</ele>
    <time>2026-06-24T06:28:43Z</time>
   </trkpt>
   <trkpt lat="-3.1804210" lon="37.3578790">
    <ele>2539.2</ele>
    <time>2026-06-24T06:28:44Z</time>
   </trkpt>
   <trkpt lat="-3.1804220" lon="37.3578800">
    <ele>2539.1</ele>
    <time>2026-06-24T06:28:45Z</time>
   </trkpt>
   <trkpt lat="-3.1804210" lon="37.3578810">
    <ele>2539.1</ele>
    <time>2026-06-24T06:28:46Z</time>
   </trkpt>
   <trkpt lat="-3.1804240" lon="37.3578810">
    <ele>2539.0</ele>
    <time>2026-06-24T06:28:47Z</time>
   </trkpt>
   <trkpt lat="-3.1804320" lon="37.3578830">
    <ele>2538.8</ele>
    <time>2026-06-24T06:28:48Z</time>
   </trkpt>
   <trkpt lat="-3.1804330" lon="37.3578850">
    <ele>2538.8</ele>
    <time>2026-06-24T06:28:49Z</time>
   </trkpt>
   <trkpt lat="-3.1804360" lon="37.3578850">
    <ele>2538.7</ele>
    <time>2026-06-24T06:28:50Z</time>
   </trkpt>
   <trkpt lat="-3.1804410" lon="37.3578840">
    <ele>2538.6</ele>
    <time>2026-06-24T06:28:51Z</time>
   </trkpt>
   <trkpt lat="-3.1804560" lon="37.3578870">
    <ele>2538.2</ele>
    <time>2026-06-24T06:28:52Z</time>
   </trkpt>
   <trkpt lat="-3.1804580" lon="37.3578880">
    <ele>2538.1</ele>
    <time>2026-06-24T06:28:53Z</time>
   </trkpt>
   <trkpt lat="-3.1804570" lon="37.3578920">
    <ele>2538.0</ele>
    <time>2026-06-24T06:28:54Z</time>
   </trkpt>
   <trkpt lat="-3.1804600" lon="37.3578910">
    <ele>2537.9</ele>
    <time>2026-06-24T06:28:55Z</time>
   </trkpt>
   <trkpt lat="-3.1804610" lon="37.3578860">
    <ele>2537.8</ele>
    <time>2026-06-24T06:28:56Z</time>
   </trkpt>
   <trkpt lat="-3.1804700" lon="37.3578920">
    <ele>2537.6</ele>
    <time>2026-06-24T06:28:57Z</time>
   </trkpt>
   <trkpt lat="-3.1804670" lon="37.3578980">
    <ele>2537.4</ele>
    <time>2026-06-24T06:28:58Z</time>
   </trkpt>
   <trkpt lat="-3.1804690" lon="37.3578980">
    <ele>2537.3</ele>
    <time>2026-06-24T06:28:59Z</time>
   </trkpt>
   <trkpt lat="-3.1804660" lon="37.3578980">
    <ele>2537.3</ele>
    <time>2026-06-24T06:29:00Z</time>
   </trkpt>
   <trkpt lat="-3.1804710" lon="37.3578970">
    <ele>2537.2</ele>
    <time>2026-06-24T06:29:01Z</time>
   </trkpt>
   <trkpt lat="-3.1804770" lon="37.3578930">
    <ele>2537.0</ele>
    <time>2026-06-24T06:29:02Z</time>
   </trkpt>
   <trkpt lat="-3.1804730" lon="37.3578930">
    <ele>2536.9</ele>
    <time>2026-06-24T06:29:03Z</time>
   </trkpt>
   <trkpt lat="-3.1804740" lon="37.3578890">
    <ele>2536.8</ele>
    <time>2026-06-24T06:29:04Z</time>
   </trkpt>
   <trkpt lat="-3.1804760" lon="37.3578870">
    <ele>2536.7</ele>
    <time>2026-06-24T06:29:05Z</time>
   </trkpt>
   <trkpt lat="-3.1804810" lon="37.3578820">
    <ele>2536.6</ele>
    <time>2026-06-24T06:29:06Z</time>
   </trkpt>
   <trkpt lat="-3.1804810" lon="37.3578880">
    <ele>2536.4</ele>
    <time>2026-06-24T06:29:07Z</time>
   </trkpt>
   <trkpt lat="-3.1804830" lon="37.3578890">
    <ele>2536.4</ele>
    <time>2026-06-24T06:29:08Z</time>
   </trkpt>
   <trkpt lat="-3.1804890" lon="37.3578940">
    <ele>2536.2</ele>
    <time>2026-06-24T06:29:09Z</time>
   </trkpt>
   <trkpt lat="-3.1804990" lon="37.3578980">
    <ele>2536.0</ele>
    <time>2026-06-24T06:29:10Z</time>
   </trkpt>
   <trkpt lat="-3.1805060" lon="37.3579050">
    <ele>2535.8</ele>
    <time>2026-06-24T06:29:11Z</time>
   </trkpt>
   <trkpt lat="-3.1805140" lon="37.3579090">
    <ele>2535.6</ele>
    <time>2026-06-24T06:29:12Z</time>
   </trkpt>
   <trkpt lat="-3.1805190" lon="37.3579100">
    <ele>2535.5</ele>
    <time>2026-06-24T06:29:13Z</time>
   </trkpt>
   <trkpt lat="-3.1805270" lon="37.3579110">
    <ele>2535.3</ele>
    <time>2026-06-24T06:29:14Z</time>
   </trkpt>
   <trkpt lat="-3.1805290" lon="37.3579110">
    <ele>2535.2</ele>
    <time>2026-06-24T06:29:15Z</time>
   </trkpt>
   <trkpt lat="-3.1805320" lon="37.3579130">
    <ele>2535.2</ele>
    <time>2026-06-24T06:29:16Z</time>
   </trkpt>
   <trkpt lat="-3.1805340" lon="37.3579110">
    <ele>2535.1</ele>
    <time>2026-06-24T06:29:17Z</time>
   </trkpt>
   <trkpt lat="-3.1805370" lon="37.3579090">
    <ele>2535.0</ele>
    <time>2026-06-24T06:29:18Z</time>
   </trkpt>
   <trkpt lat="-3.1805420" lon="37.3579120">
    <ele>2534.9</ele>
    <time>2026-06-24T06:29:19Z</time>
   </trkpt>
   <trkpt lat="-3.1805460" lon="37.3579130">
    <ele>2534.8</ele>
    <time>2026-06-24T06:29:20Z</time>
   </trkpt>
   <trkpt lat="-3.1805510" lon="37.3579170">
    <ele>2534.7</ele>
    <time>2026-06-24T06:29:21Z</time>
   </trkpt>
   <trkpt lat="-3.1805530" lon="37.3579180">
    <ele>2534.7</ele>
    <time>2026-06-24T06:29:22Z</time>
   </trkpt>
   <trkpt lat="-3.1805580" lon="37.3579210">
    <ele>2534.5</ele>
    <time>2026-06-24T06:29:23Z</time>
   </trkpt>
   <trkpt lat="-3.1805640" lon="37.3579270">
    <ele>2534.4</ele>
    <time>2026-06-24T06:29:24Z</time>
   </trkpt>
   <trkpt lat="-3.1805650" lon="37.3579310">
    <ele>2534.3</ele>
    <time>2026-06-24T06:29:25Z</time>
   </trkpt>
   <trkpt lat="-3.1805640" lon="37.3579350">
    <ele>2534.2</ele>
    <time>2026-06-24T06:29:26Z</time>
   </trkpt>
   <trkpt lat="-3.1805600" lon="37.3579360">
    <ele>2534.1</ele>
    <time>2026-06-24T06:29:27Z</time>
   </trkpt>
   <trkpt lat="-3.1805630" lon="37.3579390">
    <ele>2534.1</ele>
    <time>2026-06-24T06:29:28Z</time>
   </trkpt>
   <trkpt lat="-3.1805670" lon="37.3579420">
    <ele>2534.0</ele>
    <time>2026-06-24T06:29:29Z</time>
   </trkpt>
   <trkpt lat="-3.1805690" lon="37.3579480">
    <ele>2533.8</ele>
    <time>2026-06-24T06:29:30Z</time>
   </trkpt>
   <trkpt lat="-3.1805760" lon="37.3579560">
    <ele>2533.7</ele>
    <time>2026-06-24T06:29:31Z</time>
   </trkpt>
   <trkpt lat="-3.1805720" lon="37.3579580">
    <ele>2533.6</ele>
    <time>2026-06-24T06:29:32Z</time>
   </trkpt>
   <trkpt lat="-3.1805780" lon="37.3579600">
    <ele>2533.5</ele>
    <time>2026-06-24T06:29:33Z</time>
   </trkpt>
   <trkpt lat="-3.1805840" lon="37.3579620">
    <ele>2533.4</ele>
    <time>2026-06-24T06:29:34Z</time>
   </trkpt>
   <trkpt lat="-3.1805900" lon="37.3579640">
    <ele>2533.3</ele>
    <time>2026-06-24T06:29:35Z</time>
   </trkpt>
   <trkpt lat="-3.1805930" lon="37.3579650">
    <ele>2533.2</ele>
    <time>2026-06-24T06:29:36Z</time>
   </trkpt>
   <trkpt lat="-3.1805990" lon="37.3579680">
    <ele>2533.1</ele>
    <time>2026-06-24T06:29:37Z</time>
   </trkpt>
   <trkpt lat="-3.1806050" lon="37.3579700">
    <ele>2533.0</ele>
    <time>2026-06-24T06:29:38Z</time>
   </trkpt>
   <trkpt lat="-3.1806050" lon="37.3579710">
    <ele>2533.0</ele>
    <time>2026-06-24T06:29:39Z</time>
   </trkpt>
   <trkpt lat="-3.1806110" lon="37.3579780">
    <ele>2532.8</ele>
    <time>2026-06-24T06:29:40Z</time>
   </trkpt>
   <trkpt lat="-3.1806200" lon="37.3579840">
    <ele>2532.7</ele>
    <time>2026-06-24T06:29:41Z</time>
   </trkpt>
   <trkpt lat="-3.1806230" lon="37.3579890">
    <ele>2532.6</ele>
    <time>2026-06-24T06:29:42Z</time>
   </trkpt>
   <trkpt lat="-3.1806240" lon="37.3579920">
    <ele>2532.6</ele>
    <time>2026-06-24T06:29:43Z</time>
   </trkpt>
   <trkpt lat="-3.1806240" lon="37.3579890">
    <ele>2532.5</ele>
    <time>2026-06-24T06:29:44Z</time>
   </trkpt>
   <trkpt lat="-3.1806290" lon="37.3579920">
    <ele>2532.4</ele>
    <time>2026-06-24T06:29:45Z</time>
   </trkpt>
   <trkpt lat="-3.1806270" lon="37.3579970">
    <ele>2532.4</ele>
    <time>2026-06-24T06:29:46Z</time>
   </trkpt>
   <trkpt lat="-3.1806280" lon="37.3580000">
    <ele>2532.3</ele>
    <time>2026-06-24T06:29:47Z</time>
   </trkpt>
   <trkpt lat="-3.1806370" lon="37.3580070">
    <ele>2532.2</ele>
    <time>2026-06-24T06:29:48Z</time>
   </trkpt>
   <trkpt lat="-3.1806410" lon="37.3580100">
    <ele>2532.1</ele>
    <time>2026-06-24T06:29:49Z</time>
   </trkpt>
   <trkpt lat="-3.1806460" lon="37.3580130">
    <ele>2532.0</ele>
    <time>2026-06-24T06:29:50Z</time>
   </trkpt>
   <trkpt lat="-3.1806470" lon="37.3580150">
    <ele>2532.0</ele>
    <time>2026-06-24T06:29:51Z</time>
   </trkpt>
   <trkpt lat="-3.1806500" lon="37.3580150">
    <ele>2531.9</ele>
    <time>2026-06-24T06:29:52Z</time>
   </trkpt>
   <trkpt lat="-3.1806540" lon="37.3580160">
    <ele>2531.9</ele>
    <time>2026-06-24T06:29:53Z</time>
   </trkpt>
   <trkpt lat="-3.1806570" lon="37.3580230">
    <ele>2531.8</ele>
    <time>2026-06-24T06:29:54Z</time>
   </trkpt>
   <trkpt lat="-3.1806540" lon="37.3580040">
    <ele>2531.6</ele>
    <time>2026-06-24T06:29:55Z</time>
   </trkpt>
   <trkpt lat="-3.1806510" lon="37.3580150">
    <ele>2531.4</ele>
    <time>2026-06-24T06:29:56Z</time>
   </trkpt>
   <trkpt lat="-3.1806500" lon="37.3580220">
    <ele>2531.3</ele>
    <time>2026-06-24T06:29:57Z</time>
   </trkpt>
   <trkpt lat="-3.1806570" lon="37.3580240">
    <ele>2531.3</ele>
    <time>2026-06-24T06:29:58Z</time>
   </trkpt>
   <trkpt lat="-3.1806640" lon="37.3580280">
    <ele>2531.2</ele>
    <time>2026-06-24T06:29:59Z</time>
   </trkpt>
   <trkpt lat="-3.1806680" lon="37.3580380">
    <ele>2531.0</ele>
    <time>2026-06-24T06:30:00Z</time>
   </trkpt>
   <trkpt lat="-3.1806740" lon="37.3580420">
    <ele>2531.0</ele>
    <time>2026-06-24T06:30:01Z</time>
   </trkpt>
   <trkpt lat="-3.1806950" lon="37.3580560">
    <ele>2530.7</ele>
    <time>2026-06-24T06:30:02Z</time>
   </trkpt>
   <trkpt lat="-3.1806970" lon="37.3580570">
    <ele>2530.6</ele>
    <time>2026-06-24T06:30:03Z</time>
   </trkpt>
   <trkpt lat="-3.1807020" lon="37.3580590">
    <ele>2530.6</ele>
    <time>2026-06-24T06:30:04Z</time>
   </trkpt>
   <trkpt lat="-3.1807100" lon="37.3580640">
    <ele>2530.5</ele>
    <time>2026-06-24T06:30:05Z</time>
   </trkpt>
   <trkpt lat="-3.1807180" lon="37.3580690">
    <ele>2530.3</ele>
    <time>2026-06-24T06:30:06Z</time>
   </trkpt>
   <trkpt lat="-3.1807260" lon="37.3580770">
    <ele>2530.2</ele>
    <time>2026-06-24T06:30:07Z</time>
   </trkpt>
   <trkpt lat="-3.1807350" lon="37.3580850">
    <ele>2530.1</ele>
    <time>2026-06-24T06:30:08Z</time>
   </trkpt>
   <trkpt lat="-3.1807390" lon="37.3580950">
    <ele>2529.9</ele>
    <time>2026-06-24T06:30:09Z</time>
   </trkpt>
   <trkpt lat="-3.1807430" lon="37.3581080">
    <ele>2529.8</ele>
    <time>2026-06-24T06:30:10Z</time>
   </trkpt>
   <trkpt lat="-3.1807480" lon="37.3581130">
    <ele>2529.7</ele>
    <time>2026-06-24T06:30:11Z</time>
   </trkpt>
   <trkpt lat="-3.1807540" lon="37.3581170">
    <ele>2529.6</ele>
    <time>2026-06-24T06:30:12Z</time>
   </trkpt>
   <trkpt lat="-3.1807590" lon="37.3581150">
    <ele>2529.6</ele>
    <time>2026-06-24T06:30:13Z</time>
   </trkpt>
   <trkpt lat="-3.1807640" lon="37.3581190">
    <ele>2529.5</ele>
    <time>2026-06-24T06:30:14Z</time>
   </trkpt>
   <trkpt lat="-3.1807710" lon="37.3581250">
    <ele>2529.4</ele>
    <time>2026-06-24T06:30:15Z</time>
   </trkpt>
   <trkpt lat="-3.1807770" lon="37.3581290">
    <ele>2529.3</ele>
    <time>2026-06-24T06:30:16Z</time>
   </trkpt>
   <trkpt lat="-3.1807850" lon="37.3581300">
    <ele>2529.2</ele>
    <time>2026-06-24T06:30:17Z</time>
   </trkpt>
   <trkpt lat="-3.1807900" lon="37.3581310">
    <ele>2529.1</ele>
    <time>2026-06-24T06:30:18Z</time>
   </trkpt>
   <trkpt lat="-3.1807890" lon="37.3581350">
    <ele>2529.0</ele>
    <time>2026-06-24T06:30:19Z</time>
   </trkpt>
   <trkpt lat="-3.1807940" lon="37.3581380">
    <ele>2529.0</ele>
    <time>2026-06-24T06:30:20Z</time>
   </trkpt>
   <trkpt lat="-3.1807990" lon="37.3581400">
    <ele>2528.9</ele>
    <time>2026-06-24T06:30:21Z</time>
   </trkpt>
   <trkpt lat="-3.1808020" lon="37.3581400">
    <ele>2528.9</ele>
    <time>2026-06-24T06:30:22Z</time>
   </trkpt>
   <trkpt lat="-3.1807990" lon="37.3581360">
    <ele>2528.8</ele>
    <time>2026-06-24T06:30:23Z</time>
   </trkpt>
   <trkpt lat="-3.1808020" lon="37.3581330">
    <ele>2528.8</ele>
    <time>2026-06-24T06:30:24Z</time>
   </trkpt>
   <trkpt lat="-3.1808020" lon="37.3581340">
    <ele>2528.7</ele>
    <time>2026-06-24T06:30:25Z</time>
   </trkpt>
   <trkpt lat="-3.1808020" lon="37.3581340">
    <ele>2528.7</ele>
    <time>2026-06-24T06:30:26Z</time>
   </trkpt>
   <trkpt lat="-3.1808120" lon="37.3581310">
    <ele>2528.6</ele>
    <time>2026-06-24T06:30:27Z</time>
   </trkpt>
   <trkpt lat="-3.1808120" lon="37.3581300">
    <ele>2528.6</ele>
    <time>2026-06-24T06:30:28Z</time>
   </trkpt>
   <trkpt lat="-3.1808130" lon="37.3581210">
    <ele>2528.5</ele>
    <time>2026-06-24T06:30:30Z</time>
   </trkpt>
   <trkpt lat="-3.1808190" lon="37.3581220">
    <ele>2528.4</ele>
    <time>2026-06-24T06:30:31Z</time>
   </trkpt>
   <trkpt lat="-3.1808240" lon="37.3581280">
    <ele>2528.3</ele>
    <time>2026-06-24T06:30:32Z</time>
   </trkpt>
   <trkpt lat="-3.1808270" lon="37.3581350">
    <ele>2528.2</ele>
    <time>2026-06-24T06:30:33Z</time>
   </trkpt>
   <trkpt lat="-3.1808360" lon="37.3581370">
    <ele>2528.1</ele>
    <time>2026-06-24T06:30:34Z</time>
   </trkpt>
   <trkpt lat="-3.1808400" lon="37.3581440">
    <ele>2528.0</ele>
    <time>2026-06-24T06:30:35Z</time>
   </trkpt>
   <trkpt lat="-3.1808440" lon="37.3581480">
    <ele>2527.9</ele>
    <time>2026-06-24T06:30:36Z</time>
   </trkpt>
   <trkpt lat="-3.1808510" lon="37.3581520">
    <ele>2527.8</ele>
    <time>2026-06-24T06:30:37Z</time>
   </trkpt>
   <trkpt lat="-3.1808540" lon="37.3581550">
    <ele>2527.7</ele>
    <time>2026-06-24T06:30:38Z</time>
   </trkpt>
   <trkpt lat="-3.1808580" lon="37.3581540">
    <ele>2527.6</ele>
    <time>2026-06-24T06:30:39Z</time>
   </trkpt>
   <trkpt lat="-3.1808630" lon="37.3581520">
    <ele>2527.6</ele>
    <time>2026-06-24T06:30:40Z</time>
   </trkpt>
   <trkpt lat="-3.1808720" lon="37.3581540">
    <ele>2527.4</ele>
    <time>2026-06-24T06:30:41Z</time>
   </trkpt>
   <trkpt lat="-3.1808760" lon="37.3581560">
    <ele>2527.4</ele>
    <time>2026-06-24T06:30:42Z</time>
   </trkpt>
   <trkpt lat="-3.1808830" lon="37.3581570">
    <ele>2527.3</ele>
    <time>2026-06-24T06:30:43Z</time>
   </trkpt>
   <trkpt lat="-3.1808950" lon="37.3581600">
    <ele>2527.1</ele>
    <time>2026-06-24T06:30:44Z</time>
   </trkpt>
   <trkpt lat="-3.1809030" lon="37.3581600">
    <ele>2527.0</ele>
    <time>2026-06-24T06:30:45Z</time>
   </trkpt>
   <trkpt lat="-3.1809090" lon="37.3581650">
    <ele>2526.8</ele>
    <time>2026-06-24T06:30:46Z</time>
   </trkpt>
   <trkpt lat="-3.1809260" lon="37.3581670">
    <ele>2526.6</ele>
    <time>2026-06-24T06:30:47Z</time>
   </trkpt>
   <trkpt lat="-3.1809260" lon="37.3581670">
    <ele>2526.6</ele>
    <time>2026-06-24T06:30:48Z</time>
   </trkpt>
   <trkpt lat="-3.1809310" lon="37.3581690">
    <ele>2526.5</ele>
    <time>2026-06-24T06:30:49Z</time>
   </trkpt>
   <trkpt lat="-3.1809350" lon="37.3581710">
    <ele>2526.4</ele>
    <time>2026-06-24T06:30:50Z</time>
   </trkpt>
   <trkpt lat="-3.1809450" lon="37.3581720">
    <ele>2526.3</ele>
    <time>2026-06-24T06:30:51Z</time>
   </trkpt>
   <trkpt lat="-3.1809540" lon="37.3581730">
    <ele>2526.1</ele>
    <time>2026-06-24T06:30:52Z</time>
   </trkpt>
   <trkpt lat="-3.1809550" lon="37.3581700">
    <ele>2526.1</ele>
    <time>2026-06-24T06:30:53Z</time>
   </trkpt>
   <trkpt lat="-3.1809590" lon="37.3581690">
    <ele>2526.0</ele>
    <time>2026-06-24T06:30:54Z</time>
   </trkpt>
   <trkpt lat="-3.1809580" lon="37.3581740">
    <ele>2525.9</ele>
    <time>2026-06-24T06:30:55Z</time>
   </trkpt>
   <trkpt lat="-3.1809690" lon="37.3581720">
    <ele>2525.7</ele>
    <time>2026-06-24T06:30:56Z</time>
   </trkpt>
   <trkpt lat="-3.1809780" lon="37.3581720">
    <ele>2525.6</ele>
    <time>2026-06-24T06:30:57Z</time>
   </trkpt>
   <trkpt lat="-3.1809870" lon="37.3581720">
    <ele>2525.4</ele>
    <time>2026-06-24T06:30:58Z</time>
   </trkpt>
   <trkpt lat="-3.1809920" lon="37.3581760">
    <ele>2525.3</ele>
    <time>2026-06-24T06:30:59Z</time>
   </trkpt>
   <trkpt lat="-3.1810090" lon="37.3581790">
    <ele>2525.0</ele>
    <time>2026-06-24T06:31:00Z</time>
   </trkpt>
   <trkpt lat="-3.1810180" lon="37.3581850">
    <ele>2524.8</ele>
    <time>2026-06-24T06:31:01Z</time>
   </trkpt>
   <trkpt lat="-3.1810230" lon="37.3581910">
    <ele>2524.6</ele>
    <time>2026-06-24T06:31:02Z</time>
   </trkpt>
   <trkpt lat="-3.1810270" lon="37.3581980">
    <ele>2524.5</ele>
    <time>2026-06-24T06:31:03Z</time>
   </trkpt>
   <trkpt lat="-3.1810290" lon="37.3581930">
    <ele>2524.4</ele>
    <time>2026-06-24T06:31:04Z</time>
   </trkpt>
   <trkpt lat="-3.1810340" lon="37.3581900">
    <ele>2524.2</ele>
    <time>2026-06-24T06:31:05Z</time>
   </trkpt>
   <trkpt lat="-3.1810400" lon="37.3581890">
    <ele>2524.1</ele>
    <time>2026-06-24T06:31:06Z</time>
   </trkpt>
   <trkpt lat="-3.1810480" lon="37.3581940">
    <ele>2523.9</ele>
    <time>2026-06-24T06:31:07Z</time>
   </trkpt>
   <trkpt lat="-3.1810530" lon="37.3581890">
    <ele>2523.8</ele>
    <time>2026-06-24T06:31:08Z</time>
   </trkpt>
   <trkpt lat="-3.1810570" lon="37.3581920">
    <ele>2523.7</ele>
    <time>2026-06-24T06:31:09Z</time>
   </trkpt>
   <trkpt lat="-3.1810640" lon="37.3581920">
    <ele>2523.5</ele>
    <time>2026-06-24T06:31:10Z</time>
   </trkpt>
   <trkpt lat="-3.1810670" lon="37.3581950">
    <ele>2523.5</ele>
    <time>2026-06-24T06:31:11Z</time>
   </trkpt>
   <trkpt lat="-3.1810650" lon="37.3581970">
    <ele>2523.4</ele>
    <time>2026-06-24T06:31:12Z</time>
   </trkpt>
   <trkpt lat="-3.1810660" lon="37.3581970">
    <ele>2523.4</ele>
    <time>2026-06-24T06:31:13Z</time>
   </trkpt>
   <trkpt lat="-3.1810690" lon="37.3581980">
    <ele>2523.3</ele>
    <time>2026-06-24T06:31:14Z</time>
   </trkpt>
   <trkpt lat="-3.1810730" lon="37.3582000">
    <ele>2523.2</ele>
    <time>2026-06-24T06:31:15Z</time>
   </trkpt>
   <trkpt lat="-3.1810790" lon="37.3582020">
    <ele>2523.1</ele>
    <time>2026-06-24T06:31:16Z</time>
   </trkpt>
   <trkpt lat="-3.1810810" lon="37.3582040">
    <ele>2523.0</ele>
    <time>2026-06-24T06:31:17Z</time>
   </trkpt>
   <trkpt lat="-3.1810830" lon="37.3582040">
    <ele>2523.0</ele>
    <time>2026-06-24T06:31:18Z</time>
   </trkpt>
   <trkpt lat="-3.1810900" lon="37.3582030">
    <ele>2522.9</ele>
    <time>2026-06-24T06:31:19Z</time>
   </trkpt>
   <trkpt lat="-3.1810900" lon="37.3582030">
    <ele>2522.9</ele>
    <time>2026-06-24T06:31:20Z</time>
   </trkpt>
   <trkpt lat="-3.1810920" lon="37.3582000">
    <ele>2522.8</ele>
    <time>2026-06-24T06:31:21Z</time>
   </trkpt>
   <trkpt lat="-3.1810920" lon="37.3582020">
    <ele>2522.7</ele>
    <time>2026-06-24T06:31:22Z</time>
   </trkpt>
   <trkpt lat="-3.1810910" lon="37.3582020">
    <ele>2522.7</ele>
    <time>2026-06-24T06:31:23Z</time>
   </trkpt>
   <trkpt lat="-3.1810920" lon="37.3582050">
    <ele>2522.7</ele>
    <time>2026-06-24T06:31:24Z</time>
   </trkpt>
   <trkpt lat="-3.1810960" lon="37.3582020">
    <ele>2522.5</ele>
    <time>2026-06-24T06:31:25Z</time>
   </trkpt>
   <trkpt lat="-3.1810960" lon="37.3581990">
    <ele>2522.5</ele>
    <time>2026-06-24T06:31:26Z</time>
   </trkpt>
   <trkpt lat="-3.1811020" lon="37.3581990">
    <ele>2522.4</ele>
    <time>2026-06-24T06:31:27Z</time>
   </trkpt>
   <trkpt lat="-3.1811100" lon="37.3582040">
    <ele>2522.2</ele>
    <time>2026-06-24T06:31:28Z</time>
   </trkpt>
   <trkpt lat="-3.1811170" lon="37.3582050">
    <ele>2522.0</ele>
    <time>2026-06-24T06:31:29Z</time>
   </trkpt>
   <trkpt lat="-3.1811160" lon="37.3582060">
    <ele>2522.0</ele>
    <time>2026-06-24T06:31:30Z</time>
   </trkpt>
   <trkpt lat="-3.1811240" lon="37.3582050">
    <ele>2521.8</ele>
    <time>2026-06-24T06:31:31Z</time>
   </trkpt>
   <trkpt lat="-3.1811200" lon="37.3582070">
    <ele>2521.7</ele>
    <time>2026-06-24T06:31:32Z</time>
   </trkpt>
   <trkpt lat="-3.1811290" lon="37.3582100">
    <ele>2521.5</ele>
    <time>2026-06-24T06:31:33Z</time>
   </trkpt>
   <trkpt lat="-3.1811350" lon="37.3582100">
    <ele>2521.4</ele>
    <time>2026-06-24T06:31:34Z</time>
   </trkpt>
   <trkpt lat="-3.1811430" lon="37.3582100">
    <ele>2521.3</ele>
    <time>2026-06-24T06:31:35Z</time>
   </trkpt>
   <trkpt lat="-3.1811420" lon="37.3582100">
    <ele>2521.2</ele>
    <time>2026-06-24T06:31:36Z</time>
   </trkpt>
   <trkpt lat="-3.1811450" lon="37.3582080">
    <ele>2521.2</ele>
    <time>2026-06-24T06:31:37Z</time>
   </trkpt>
   <trkpt lat="-3.1811480" lon="37.3582070">
    <ele>2521.1</ele>
    <time>2026-06-24T06:31:38Z</time>
   </trkpt>
   <trkpt lat="-3.1811530" lon="37.3582100">
    <ele>2521.0</ele>
    <time>2026-06-24T06:31:39Z</time>
   </trkpt>
   <trkpt lat="-3.1811590" lon="37.3582060">
    <ele>2520.8</ele>
    <time>2026-06-24T06:31:40Z</time>
   </trkpt>
   <trkpt lat="-3.1811590" lon="37.3582070">
    <ele>2520.8</ele>
    <time>2026-06-24T06:31:41Z</time>
   </trkpt>
   <trkpt lat="-3.1811590" lon="37.3582090">
    <ele>2520.8</ele>
    <time>2026-06-24T06:31:42Z</time>
   </trkpt>
   <trkpt lat="-3.1811660" lon="37.3582070">
    <ele>2520.6</ele>
    <time>2026-06-24T06:31:43Z</time>
   </trkpt>
   <trkpt lat="-3.1811750" lon="37.3582030">
    <ele>2520.4</ele>
    <time>2026-06-24T06:31:44Z</time>
   </trkpt>
   <trkpt lat="-3.1811860" lon="37.3582040">
    <ele>2520.2</ele>
    <time>2026-06-24T06:31:45Z</time>
   </trkpt>
   <trkpt lat="-3.1811920" lon="37.3581950">
    <ele>2520.0</ele>
    <time>2026-06-24T06:31:46Z</time>
   </trkpt>
   <trkpt lat="-3.1812000" lon="37.3581930">
    <ele>2519.8</ele>
    <time>2026-06-24T06:31:47Z</time>
   </trkpt>
   <trkpt lat="-3.1812060" lon="37.3581880">
    <ele>2519.6</ele>
    <time>2026-06-24T06:31:48Z</time>
   </trkpt>
   <trkpt lat="-3.1812130" lon="37.3581830">
    <ele>2519.5</ele>
    <time>2026-06-24T06:31:49Z</time>
   </trkpt>
   <trkpt lat="-3.1812220" lon="37.3581820">
    <ele>2519.3</ele>
    <time>2026-06-24T06:31:50Z</time>
   </trkpt>
   <trkpt lat="-3.1812210" lon="37.3581780">
    <ele>2519.2</ele>
    <time>2026-06-24T06:31:51Z</time>
   </trkpt>
   <trkpt lat="-3.1812260" lon="37.3581750">
    <ele>2519.1</ele>
    <time>2026-06-24T06:31:52Z</time>
   </trkpt>
   <trkpt lat="-3.1812360" lon="37.3581690">
    <ele>2518.8</ele>
    <time>2026-06-24T06:31:53Z</time>
   </trkpt>
   <trkpt lat="-3.1812390" lon="37.3581640">
    <ele>2518.7</ele>
    <time>2026-06-24T06:31:54Z</time>
   </trkpt>
   <trkpt lat="-3.1812430" lon="37.3581640">
    <ele>2518.6</ele>
    <time>2026-06-24T06:31:55Z</time>
   </trkpt>
   <trkpt lat="-3.1812440" lon="37.3581640">
    <ele>2518.6</ele>
    <time>2026-06-24T06:31:56Z</time>
   </trkpt>
   <trkpt lat="-3.1812500" lon="37.3581660">
    <ele>2518.5</ele>
    <time>2026-06-24T06:31:57Z</time>
   </trkpt>
   <trkpt lat="-3.1812570" lon="37.3581650">
    <ele>2518.3</ele>
    <time>2026-06-24T06:31:58Z</time>
   </trkpt>
   <trkpt lat="-3.1812620" lon="37.3581610">
    <ele>2518.2</ele>
    <time>2026-06-24T06:31:59Z</time>
   </trkpt>
   <trkpt lat="-3.1812650" lon="37.3581600">
    <ele>2518.1</ele>
    <time>2026-06-24T06:32:00Z</time>
   </trkpt>
   <trkpt lat="-3.1812660" lon="37.3581600">
    <ele>2518.1</ele>
    <time>2026-06-24T06:32:01Z</time>
   </trkpt>
   <trkpt lat="-3.1812710" lon="37.3581660">
    <ele>2518.0</ele>
    <time>2026-06-24T06:32:02Z</time>
   </trkpt>
   <trkpt lat="-3.1812820" lon="37.3581620">
    <ele>2517.7</ele>
    <time>2026-06-24T06:32:03Z</time>
   </trkpt>
   <trkpt lat="-3.1812880" lon="37.3581590">
    <ele>2517.6</ele>
    <time>2026-06-24T06:32:04Z</time>
   </trkpt>
   <trkpt lat="-3.1812940" lon="37.3581630">
    <ele>2517.5</ele>
    <time>2026-06-24T06:32:05Z</time>
   </trkpt>
   <trkpt lat="-3.1812940" lon="37.3581720">
    <ele>2517.3</ele>
    <time>2026-06-24T06:32:06Z</time>
   </trkpt>
   <trkpt lat="-3.1812990" lon="37.3581770">
    <ele>2517.1</ele>
    <time>2026-06-24T06:32:07Z</time>
   </trkpt>
   <trkpt lat="-3.1813000" lon="37.3581810">
    <ele>2517.1</ele>
    <time>2026-06-24T06:32:08Z</time>
   </trkpt>
   <trkpt lat="-3.1813050" lon="37.3581730">
    <ele>2516.9</ele>
    <time>2026-06-24T06:32:09Z</time>
   </trkpt>
   <trkpt lat="-3.1813110" lon="37.3581700">
    <ele>2516.7</ele>
    <time>2026-06-24T06:32:10Z</time>
   </trkpt>
   <trkpt lat="-3.1813110" lon="37.3581730">
    <ele>2516.7</ele>
    <time>2026-06-24T06:32:11Z</time>
   </trkpt>
   <trkpt lat="-3.1813190" lon="37.3581670">
    <ele>2516.5</ele>
    <time>2026-06-24T06:32:12Z</time>
   </trkpt>
   <trkpt lat="-3.1813230" lon="37.3581700">
    <ele>2516.4</ele>
    <time>2026-06-24T06:32:13Z</time>
   </trkpt>
   <trkpt lat="-3.1813250" lon="37.3581700">
    <ele>2516.3</ele>
    <time>2026-06-24T06:32:14Z</time>
   </trkpt>
   <trkpt lat="-3.1813290" lon="37.3581670">
    <ele>2516.2</ele>
    <time>2026-06-24T06:32:15Z</time>
   </trkpt>
   <trkpt lat="-3.1813340" lon="37.3581600">
    <ele>2516.1</ele>
    <time>2026-06-24T06:32:16Z</time>
   </trkpt>
   <trkpt lat="-3.1813390" lon="37.3581560">
    <ele>2515.9</ele>
    <time>2026-06-24T06:32:17Z</time>
   </trkpt>
   <trkpt lat="-3.1813480" lon="37.3581510">
    <ele>2515.8</ele>
    <time>2026-06-24T06:32:18Z</time>
   </trkpt>
   <trkpt lat="-3.1813480" lon="37.3581490">
    <ele>2515.7</ele>
    <time>2026-06-24T06:32:19Z</time>
   </trkpt>
   <trkpt lat="-3.1813510" lon="37.3581380">
    <ele>2515.6</ele>
    <time>2026-06-24T06:32:20Z</time>
   </trkpt>
   <trkpt lat="-3.1813580" lon="37.3581320">
    <ele>2515.4</ele>
    <time>2026-06-24T06:32:21Z</time>
   </trkpt>
   <trkpt lat="-3.1813620" lon="37.3581260">
    <ele>2515.3</ele>
    <time>2026-06-24T06:32:22Z</time>
   </trkpt>
   <trkpt lat="-3.1813650" lon="37.3581310">
    <ele>2515.2</ele>
    <time>2026-06-24T06:32:23Z</time>
   </trkpt>
   <trkpt lat="-3.1813740" lon="37.3581320">
    <ele>2515.1</ele>
    <time>2026-06-24T06:32:24Z</time>
   </trkpt>
   <trkpt lat="-3.1813780" lon="37.3581250">
    <ele>2515.0</ele>
    <time>2026-06-24T06:32:25Z</time>
   </trkpt>
   <trkpt lat="-3.1813850" lon="37.3581160">
    <ele>2514.8</ele>
    <time>2026-06-24T06:32:26Z</time>
   </trkpt>
   <trkpt lat="-3.1813890" lon="37.3581130">
    <ele>2514.7</ele>
    <time>2026-06-24T06:32:27Z</time>
   </trkpt>
   <trkpt lat="-3.1813990" lon="37.3581150">
    <ele>2514.5</ele>
    <time>2026-06-24T06:32:28Z</time>
   </trkpt>
   <trkpt lat="-3.1814090" lon="37.3581170">
    <ele>2514.4</ele>
    <time>2026-06-24T06:32:29Z</time>
   </trkpt>
   <trkpt lat="-3.1814160" lon="37.3581150">
    <ele>2514.3</ele>
    <time>2026-06-24T06:32:30Z</time>
   </trkpt>
   <trkpt lat="-3.1814240" lon="37.3581100">
    <ele>2514.1</ele>
    <time>2026-06-24T06:32:31Z</time>
   </trkpt>
   <trkpt lat="-3.1814310" lon="37.3581020">
    <ele>2514.0</ele>
    <time>2026-06-24T06:32:32Z</time>
   </trkpt>
   <trkpt lat="-3.1814400" lon="37.3580950">
    <ele>2513.8</ele>
    <time>2026-06-24T06:32:33Z</time>
   </trkpt>
   <trkpt lat="-3.1814460" lon="37.3580930">
    <ele>2513.7</ele>
    <time>2026-06-24T06:32:34Z</time>
   </trkpt>
   <trkpt lat="-3.1814570" lon="37.3580860">
    <ele>2513.5</ele>
    <time>2026-06-24T06:32:36Z</time>
   </trkpt>
   <trkpt lat="-3.1814680" lon="37.3580780">
    <ele>2513.3</ele>
    <time>2026-06-24T06:32:37Z</time>
   </trkpt>
   <trkpt lat="-3.1814770" lon="37.3580680">
    <ele>2513.1</ele>
    <time>2026-06-24T06:32:38Z</time>
   </trkpt>
   <trkpt lat="-3.1814830" lon="37.3580650">
    <ele>2513.0</ele>
    <time>2026-06-24T06:32:39Z</time>
   </trkpt>
   <trkpt lat="-3.1814890" lon="37.3580610">
    <ele>2512.9</ele>
    <time>2026-06-24T06:32:40Z</time>
   </trkpt>
   <trkpt lat="-3.1814980" lon="37.3580570">
    <ele>2512.7</ele>
    <time>2026-06-24T06:32:41Z</time>
   </trkpt>
   <trkpt lat="-3.1815050" lon="37.3580500">
    <ele>2512.6</ele>
    <time>2026-06-24T06:32:42Z</time>
   </trkpt>
   <trkpt lat="-3.1815110" lon="37.3580470">
    <ele>2512.5</ele>
    <time>2026-06-24T06:32:43Z</time>
   </trkpt>
   <trkpt lat="-3.1815160" lon="37.3580470">
    <ele>2512.4</ele>
    <time>2026-06-24T06:32:44Z</time>
   </trkpt>
   <trkpt lat="-3.1815190" lon="37.3580490">
    <ele>2512.3</ele>
    <time>2026-06-24T06:32:45Z</time>
   </trkpt>
   <trkpt lat="-3.1815210" lon="37.3580460">
    <ele>2512.3</ele>
    <time>2026-06-24T06:32:46Z</time>
   </trkpt>
   <trkpt lat="-3.1815230" lon="37.3580480">
    <ele>2512.2</ele>
    <time>2026-06-24T06:32:47Z</time>
   </trkpt>
   <trkpt lat="-3.1815240" lon="37.3580520">
    <ele>2512.2</ele>
    <time>2026-06-24T06:32:48Z</time>
   </trkpt>
   <trkpt lat="-3.1815290" lon="37.3580500">
    <ele>2512.1</ele>
    <time>2026-06-24T06:32:49Z</time>
   </trkpt>
   <trkpt lat="-3.1815300" lon="37.3580530">
    <ele>2512.0</ele>
    <time>2026-06-24T06:32:50Z</time>
   </trkpt>
   <trkpt lat="-3.1815320" lon="37.3580490">
    <ele>2511.9</ele>
    <time>2026-06-24T06:32:51Z</time>
   </trkpt>
   <trkpt lat="-3.1815330" lon="37.3580410">
    <ele>2511.8</ele>
    <time>2026-06-24T06:32:52Z</time>
   </trkpt>
   <trkpt lat="-3.1815410" lon="37.3580410">
    <ele>2511.7</ele>
    <time>2026-06-24T06:32:53Z</time>
   </trkpt>
   <trkpt lat="-3.1815470" lon="37.3580430">
    <ele>2511.6</ele>
    <time>2026-06-24T06:32:54Z</time>
   </trkpt>
   <trkpt lat="-3.1815530" lon="37.3580420">
    <ele>2511.5</ele>
    <time>2026-06-24T06:32:55Z</time>
   </trkpt>
   <trkpt lat="-3.1815590" lon="37.3580360">
    <ele>2511.3</ele>
    <time>2026-06-24T06:32:56Z</time>
   </trkpt>
   <trkpt lat="-3.1815630" lon="37.3580330">
    <ele>2511.2</ele>
    <time>2026-06-24T06:32:57Z</time>
   </trkpt>
   <trkpt lat="-3.1815650" lon="37.3580330">
    <ele>2511.2</ele>
    <time>2026-06-24T06:32:58Z</time>
   </trkpt>
   <trkpt lat="-3.1815690" lon="37.3580340">
    <ele>2511.1</ele>
    <time>2026-06-24T06:32:59Z</time>
   </trkpt>
   <trkpt lat="-3.1815730" lon="37.3580330">
    <ele>2511.1</ele>
    <time>2026-06-24T06:33:00Z</time>
   </trkpt>
   <trkpt lat="-3.1815810" lon="37.3580290">
    <ele>2510.9</ele>
    <time>2026-06-24T06:33:01Z</time>
   </trkpt>
   <trkpt lat="-3.1815840" lon="37.3580250">
    <ele>2510.8</ele>
    <time>2026-06-24T06:33:02Z</time>
   </trkpt>
   <trkpt lat="-3.1815900" lon="37.3580250">
    <ele>2510.7</ele>
    <time>2026-06-24T06:33:03Z</time>
   </trkpt>
   <trkpt lat="-3.1815960" lon="37.3580250">
    <ele>2510.6</ele>
    <time>2026-06-24T06:33:04Z</time>
   </trkpt>
   <trkpt lat="-3.1816020" lon="37.3580200">
    <ele>2510.4</ele>
    <time>2026-06-24T06:33:05Z</time>
   </trkpt>
   <trkpt lat="-3.1816010" lon="37.3580170">
    <ele>2510.4</ele>
    <time>2026-06-24T06:33:06Z</time>
   </trkpt>
   <trkpt lat="-3.1816070" lon="37.3580210">
    <ele>2510.2</ele>
    <time>2026-06-24T06:33:07Z</time>
   </trkpt>
   <trkpt lat="-3.1816150" lon="37.3580210">
    <ele>2510.1</ele>
    <time>2026-06-24T06:33:08Z</time>
   </trkpt>
   <trkpt lat="-3.1816210" lon="37.3580180">
    <ele>2509.9</ele>
    <time>2026-06-24T06:33:09Z</time>
   </trkpt>
   <trkpt lat="-3.1816210" lon="37.3580150">
    <ele>2509.9</ele>
    <time>2026-06-24T06:33:10Z</time>
   </trkpt>
   <trkpt lat="-3.1816260" lon="37.3580120">
    <ele>2509.7</ele>
    <time>2026-06-24T06:33:11Z</time>
   </trkpt>
   <trkpt lat="-3.1816250" lon="37.3580130">
    <ele>2509.7</ele>
    <time>2026-06-24T06:33:12Z</time>
   </trkpt>
   <trkpt lat="-3.1816280" lon="37.3580160">
    <ele>2509.6</ele>
    <time>2026-06-24T06:33:13Z</time>
   </trkpt>
   <trkpt lat="-3.1816340" lon="37.3580090">
    <ele>2509.4</ele>
    <time>2026-06-24T06:33:14Z</time>
   </trkpt>
   <trkpt lat="-3.1816390" lon="37.3580070">
    <ele>2509.3</ele>
    <time>2026-06-24T06:33:15Z</time>
   </trkpt>
   <trkpt lat="-3.1816410" lon="37.3580040">
    <ele>2509.2</ele>
    <time>2026-06-24T06:33:16Z</time>
   </trkpt>
   <trkpt lat="-3.1816450" lon="37.3580030">
    <ele>2509.2</ele>
    <time>2026-06-24T06:33:17Z</time>
   </trkpt>
   <trkpt lat="-3.1816490" lon="37.3580030">
    <ele>2509.1</ele>
    <time>2026-06-24T06:33:18Z</time>
   </trkpt>
   <trkpt lat="-3.1816580" lon="37.3580020">
    <ele>2508.9</ele>
    <time>2026-06-24T06:33:19Z</time>
   </trkpt>
   <trkpt lat="-3.1816610" lon="37.3579890">
    <ele>2508.6</ele>
    <time>2026-06-24T06:33:20Z</time>
   </trkpt>
   <trkpt lat="-3.1816670" lon="37.3579890">
    <ele>2508.4</ele>
    <time>2026-06-24T06:33:21Z</time>
   </trkpt>
   <trkpt lat="-3.1816740" lon="37.3579840">
    <ele>2508.2</ele>
    <time>2026-06-24T06:33:22Z</time>
   </trkpt>
   <trkpt lat="-3.1816780" lon="37.3579790">
    <ele>2508.1</ele>
    <time>2026-06-24T06:33:23Z</time>
   </trkpt>
   <trkpt lat="-3.1816800" lon="37.3579770">
    <ele>2508.0</ele>
    <time>2026-06-24T06:33:24Z</time>
   </trkpt>
   <trkpt lat="-3.1816840" lon="37.3579760">
    <ele>2507.9</ele>
    <time>2026-06-24T06:33:25Z</time>
   </trkpt>
   <trkpt lat="-3.1816880" lon="37.3579730">
    <ele>2507.8</ele>
    <time>2026-06-24T06:33:26Z</time>
   </trkpt>
   <trkpt lat="-3.1816900" lon="37.3579740">
    <ele>2507.8</ele>
    <time>2026-06-24T06:33:27Z</time>
   </trkpt>
   <trkpt lat="-3.1816960" lon="37.3579710">
    <ele>2507.6</ele>
    <time>2026-06-24T06:33:28Z</time>
   </trkpt>
   <trkpt lat="-3.1816910" lon="37.3579720">
    <ele>2507.5</ele>
    <time>2026-06-24T06:33:29Z</time>
   </trkpt>
   <trkpt lat="-3.1816980" lon="37.3579650">
    <ele>2507.3</ele>
    <time>2026-06-24T06:33:30Z</time>
   </trkpt>
   <trkpt lat="-3.1817010" lon="37.3579600">
    <ele>2507.1</ele>
    <time>2026-06-24T06:33:31Z</time>
   </trkpt>
   <trkpt lat="-3.1817050" lon="37.3579550">
    <ele>2507.0</ele>
    <time>2026-06-24T06:33:32Z</time>
   </trkpt>
   <trkpt lat="-3.1817120" lon="37.3579530">
    <ele>2506.8</ele>
    <time>2026-06-24T06:33:33Z</time>
   </trkpt>
   <trkpt lat="-3.1817180" lon="37.3579490">
    <ele>2506.6</ele>
    <time>2026-06-24T06:33:34Z</time>
   </trkpt>
   <trkpt lat="-3.1817200" lon="37.3579460">
    <ele>2506.5</ele>
    <time>2026-06-24T06:33:35Z</time>
   </trkpt>
   <trkpt lat="-3.1817230" lon="37.3579510">
    <ele>2506.4</ele>
    <time>2026-06-24T06:33:36Z</time>
   </trkpt>
   <trkpt lat="-3.1817260" lon="37.3579520">
    <ele>2506.3</ele>
    <time>2026-06-24T06:33:37Z</time>
   </trkpt>
   <trkpt lat="-3.1817310" lon="37.3579470">
    <ele>2506.1</ele>
    <time>2026-06-24T06:33:38Z</time>
   </trkpt>
   <trkpt lat="-3.1817350" lon="37.3579480">
    <ele>2506.0</ele>
    <time>2026-06-24T06:33:39Z</time>
   </trkpt>
   <trkpt lat="-3.1817390" lon="37.3579440">
    <ele>2505.9</ele>
    <time>2026-06-24T06:33:40Z</time>
   </trkpt>
   <trkpt lat="-3.1817450" lon="37.3579390">
    <ele>2505.7</ele>
    <time>2026-06-24T06:33:41Z</time>
   </trkpt>
   <trkpt lat="-3.1817520" lon="37.3579260">
    <ele>2505.3</ele>
    <time>2026-06-24T06:33:42Z</time>
   </trkpt>
   <trkpt lat="-3.1817580" lon="37.3579230">
    <ele>2505.2</ele>
    <time>2026-06-24T06:33:43Z</time>
   </trkpt>
   <trkpt lat="-3.1817650" lon="37.3579210">
    <ele>2505.0</ele>
    <time>2026-06-24T06:33:44Z</time>
   </trkpt>
   <trkpt lat="-3.1817680" lon="37.3579230">
    <ele>2504.9</ele>
    <time>2026-06-24T06:33:45Z</time>
   </trkpt>
   <trkpt lat="-3.1817710" lon="37.3579250">
    <ele>2504.8</ele>
    <time>2026-06-24T06:33:46Z</time>
   </trkpt>
   <trkpt lat="-3.1817760" lon="37.3579260">
    <ele>2504.7</ele>
    <time>2026-06-24T06:33:47Z</time>
   </trkpt>
   <trkpt lat="-3.1817760" lon="37.3579260">
    <ele>2504.7</ele>
    <time>2026-06-24T06:33:48Z</time>
   </trkpt>
   <trkpt lat="-3.1817820" lon="37.3579210">
    <ele>2504.5</ele>
    <time>2026-06-24T06:33:49Z</time>
   </trkpt>
   <trkpt lat="-3.1817930" lon="37.3579110">
    <ele>2504.1</ele>
    <time>2026-06-24T06:33:50Z</time>
   </trkpt>
   <trkpt lat="-3.1817950" lon="37.3579120">
    <ele>2504.1</ele>
    <time>2026-06-24T06:33:51Z</time>
   </trkpt>
   <trkpt lat="-3.1817920" lon="37.3579090">
    <ele>2504.0</ele>
    <time>2026-06-24T06:33:52Z</time>
   </trkpt>
   <trkpt lat="-3.1817980" lon="37.3579000">
    <ele>2503.7</ele>
    <time>2026-06-24T06:33:53Z</time>
   </trkpt>
   <trkpt lat="-3.1818120" lon="37.3578920">
    <ele>2503.3</ele>
    <time>2026-06-24T06:33:54Z</time>
   </trkpt>
   <trkpt lat="-3.1818170" lon="37.3578860">
    <ele>2503.1</ele>
    <time>2026-06-24T06:33:55Z</time>
   </trkpt>
   <trkpt lat="-3.1818110" lon="37.3578950">
    <ele>2502.8</ele>
    <time>2026-06-24T06:33:56Z</time>
   </trkpt>
   <trkpt lat="-3.1818120" lon="37.3578960">
    <ele>2502.8</ele>
    <time>2026-06-24T06:33:57Z</time>
   </trkpt>
   <trkpt lat="-3.1818140" lon="37.3578950">
    <ele>2502.7</ele>
    <time>2026-06-24T06:33:58Z</time>
   </trkpt>
   <trkpt lat="-3.1818150" lon="37.3578910">
    <ele>2502.6</ele>
    <time>2026-06-24T06:33:59Z</time>
   </trkpt>
   <trkpt lat="-3.1818130" lon="37.3578910">
    <ele>2502.6</ele>
    <time>2026-06-24T06:34:00Z</time>
   </trkpt>
   <trkpt lat="-3.1818110" lon="37.3578940">
    <ele>2502.5</ele>
    <time>2026-06-24T06:34:01Z</time>
   </trkpt>
   <trkpt lat="-3.1818120" lon="37.3578920">
    <ele>2502.5</ele>
    <time>2026-06-24T06:34:02Z</time>
   </trkpt>
   <trkpt lat="-3.1818160" lon="37.3578880">
    <ele>2502.3</ele>
    <time>2026-06-24T06:34:03Z</time>
   </trkpt>
   <trkpt lat="-3.1818170" lon="37.3578850">
    <ele>2502.2</ele>
    <time>2026-06-24T06:34:04Z</time>
   </trkpt>
   <trkpt lat="-3.1818160" lon="37.3578890">
    <ele>2502.1</ele>
    <time>2026-06-24T06:34:05Z</time>
   </trkpt>
   <trkpt lat="-3.1818200" lon="37.3578850">
    <ele>2502.0</ele>
    <time>2026-06-24T06:34:06Z</time>
   </trkpt>
   <trkpt lat="-3.1818200" lon="37.3578780">
    <ele>2501.8</ele>
    <time>2026-06-24T06:34:07Z</time>
   </trkpt>
   <trkpt lat="-3.1818290" lon="37.3578800">
    <ele>2501.6</ele>
    <time>2026-06-24T06:34:08Z</time>
   </trkpt>
   <trkpt lat="-3.1818420" lon="37.3578760">
    <ele>2501.2</ele>
    <time>2026-06-24T06:34:09Z</time>
   </trkpt>
   <trkpt lat="-3.1818500" lon="37.3578740">
    <ele>2501.0</ele>
    <time>2026-06-24T06:34:10Z</time>
   </trkpt>
   <trkpt lat="-3.1818520" lon="37.3578700">
    <ele>2500.9</ele>
    <time>2026-06-24T06:34:11Z</time>
   </trkpt>
   <trkpt lat="-3.1818610" lon="37.3578640">
    <ele>2500.6</ele>
    <time>2026-06-24T06:34:12Z</time>
   </trkpt>
   <trkpt lat="-3.1818690" lon="37.3578580">
    <ele>2500.4</ele>
    <time>2026-06-24T06:34:13Z</time>
   </trkpt>
   <trkpt lat="-3.1818730" lon="37.3578550">
    <ele>2500.2</ele>
    <time>2026-06-24T06:34:14Z</time>
   </trkpt>
   <trkpt lat="-3.1818860" lon="37.3578550">
    <ele>2499.9</ele>
    <time>2026-06-24T06:34:15Z</time>
   </trkpt>
   <trkpt lat="-3.1818870" lon="37.3578480">
    <ele>2499.7</ele>
    <time>2026-06-24T06:34:16Z</time>
   </trkpt>
   <trkpt lat="-3.1818950" lon="37.3578420">
    <ele>2499.4</ele>
    <time>2026-06-24T06:34:17Z</time>
   </trkpt>
   <trkpt lat="-3.1818970" lon="37.3578340">
    <ele>2499.2</ele>
    <time>2026-06-24T06:34:18Z</time>
   </trkpt>
   <trkpt lat="-3.1819020" lon="37.3578330">
    <ele>2499.1</ele>
    <time>2026-06-24T06:34:19Z</time>
   </trkpt>
   <trkpt lat="-3.1819030" lon="37.3578360">
    <ele>2499.0</ele>
    <time>2026-06-24T06:34:20Z</time>
   </trkpt>
   <trkpt lat="-3.1819050" lon="37.3578400">
    <ele>2498.9</ele>
    <time>2026-06-24T06:34:21Z</time>
   </trkpt>
   <trkpt lat="-3.1819080" lon="37.3578420">
    <ele>2498.8</ele>
    <time>2026-06-24T06:34:22Z</time>
   </trkpt>
   <trkpt lat="-3.1819050" lon="37.3578280">
    <ele>2498.4</ele>
    <time>2026-06-24T06:34:23Z</time>
   </trkpt>
   <trkpt lat="-3.1819120" lon="37.3578300">
    <ele>2498.2</ele>
    <time>2026-06-24T06:34:24Z</time>
   </trkpt>
   <trkpt lat="-3.1819070" lon="37.3578450">
    <ele>2497.8</ele>
    <time>2026-06-24T06:34:25Z</time>
   </trkpt>
   <trkpt lat="-3.1819050" lon="37.3578470">
    <ele>2497.7</ele>
    <time>2026-06-24T06:34:26Z</time>
   </trkpt>
   <trkpt lat="-3.1819060" lon="37.3578490">
    <ele>2497.7</ele>
    <time>2026-06-24T06:34:27Z</time>
   </trkpt>
   <trkpt lat="-3.1819060" lon="37.3578490">
    <ele>2497.7</ele>
    <time>2026-06-24T06:34:28Z</time>
   </trkpt>
   <trkpt lat="-3.1819060" lon="37.3578490">
    <ele>2497.7</ele>
    <time>2026-06-24T06:34:29Z</time>
   </trkpt>
   <trkpt lat="-3.1819060" lon="37.3578490">
    <ele>2497.7</ele>
    <time>2026-06-24T06:34:30Z</time>
   </trkpt>
   <trkpt lat="-3.1819060" lon="37.3578490">
    <ele>2497.7</ele>
    <time>2026-06-24T06:34:31Z</time>
   </trkpt>
   <trkpt lat="-3.1819040" lon="37.3578590">
    <ele>2497.4</ele>
    <time>2026-06-24T06:34:32Z</time>
   </trkpt>
   <trkpt lat="-3.1819050" lon="37.3578610">
    <ele>2497.3</ele>
    <time>2026-06-24T06:34:33Z</time>
   </trkpt>
   <trkpt lat="-3.1819120" lon="37.3578590">
    <ele>2497.1</ele>
    <time>2026-06-24T06:34:34Z</time>
   </trkpt>
   <trkpt lat="-3.1819130" lon="37.3578590">
    <ele>2497.1</ele>
    <time>2026-06-24T06:34:35Z</time>
   </trkpt>
   <trkpt lat="-3.1819120" lon="37.3578590">
    <ele>2497.1</ele>
    <time>2026-06-24T06:34:36Z</time>
   </trkpt>
   <trkpt lat="-3.1819130" lon="37.3578570">
    <ele>2497.0</ele>
    <time>2026-06-24T06:34:37Z</time>
   </trkpt>
   <trkpt lat="-3.1819080" lon="37.3578580">
    <ele>2496.9</ele>
    <time>2026-06-24T06:34:38Z</time>
   </trkpt>
   <trkpt lat="-3.1819070" lon="37.3578620">
    <ele>2496.7</ele>
    <time>2026-06-24T06:34:39Z</time>
   </trkpt>
   <trkpt lat="-3.1819130" lon="37.3578540">
    <ele>2496.5</ele>
    <time>2026-06-24T06:34:40Z</time>
   </trkpt>
   <trkpt lat="-3.1819140" lon="37.3578530">
    <ele>2496.4</ele>
    <time>2026-06-24T06:34:42Z</time>
   </trkpt>
   <trkpt lat="-3.1819140" lon="37.3578540">
    <ele>2496.4</ele>
    <time>2026-06-24T06:34:43Z</time>
   </trkpt>
   <trkpt lat="-3.1819200" lon="37.3578480">
    <ele>2496.2</ele>
    <time>2026-06-24T06:34:44Z</time>
   </trkpt>
   <trkpt lat="-3.1819200" lon="37.3578480">
    <ele>2496.2</ele>
    <time>2026-06-24T06:34:45Z</time>
   </trkpt>
   <trkpt lat="-3.1819230" lon="37.3578440">
    <ele>2496.0</ele>
    <time>2026-06-24T06:34:46Z</time>
   </trkpt>
   <trkpt lat="-3.1819230" lon="37.3578430">
    <ele>2496.0</ele>
    <time>2026-06-24T06:34:47Z</time>
   </trkpt>
   <trkpt lat="-3.1819230" lon="37.3578440">
    <ele>2496.0</ele>
    <time>2026-06-24T06:34:48Z</time>
   </trkpt>
   <trkpt lat="-3.1819250" lon="37.3578430">
    <ele>2495.9</ele>
    <time>2026-06-24T06:34:49Z</time>
   </trkpt>
   <trkpt lat="-3.1819300" lon="37.3578390">
    <ele>2495.7</ele>
    <time>2026-06-24T06:34:50Z</time>
   </trkpt>
   <trkpt lat="-3.1819340" lon="37.3578370">
    <ele>2495.6</ele>
    <time>2026-06-24T06:34:51Z</time>
   </trkpt>
   <trkpt lat="-3.1819390" lon="37.3578340">
    <ele>2495.4</ele>
    <time>2026-06-24T06:34:52Z</time>
   </trkpt>
   <trkpt lat="-3.1819410" lon="37.3578320">
    <ele>2495.4</ele>
    <time>2026-06-24T06:34:53Z</time>
   </trkpt>
   <trkpt lat="-3.1819430" lon="37.3578300">
    <ele>2495.3</ele>
    <time>2026-06-24T06:34:54Z</time>
   </trkpt>
   <trkpt lat="-3.1819450" lon="37.3578270">
    <ele>2495.2</ele>
    <time>2026-06-24T06:34:55Z</time>
   </trkpt>
   <trkpt lat="-3.1819450" lon="37.3578290">
    <ele>2495.1</ele>
    <time>2026-06-24T06:34:56Z</time>
   </trkpt>
   <trkpt lat="-3.1819490" lon="37.3578220">
    <ele>2494.9</ele>
    <time>2026-06-24T06:34:57Z</time>
   </trkpt>
   <trkpt lat="-3.1819450" lon="37.3578170">
    <ele>2494.7</ele>
    <time>2026-06-24T06:34:58Z</time>
   </trkpt>
   <trkpt lat="-3.1819460" lon="37.3578140">
    <ele>2494.6</ele>
    <time>2026-06-24T06:34:59Z</time>
   </trkpt>
   <trkpt lat="-3.1819560" lon="37.3578190">
    <ele>2494.3</ele>
    <time>2026-06-24T06:35:00Z</time>
   </trkpt>
   <trkpt lat="-3.1819540" lon="37.3578260">
    <ele>2494.1</ele>
    <time>2026-06-24T06:35:01Z</time>
   </trkpt>
   <trkpt lat="-3.1819510" lon="37.3578210">
    <ele>2493.9</ele>
    <time>2026-06-24T06:35:02Z</time>
   </trkpt>
   <trkpt lat="-3.1819570" lon="37.3578170">
    <ele>2493.7</ele>
    <time>2026-06-24T06:35:03Z</time>
   </trkpt>
   <trkpt lat="-3.1819580" lon="37.3578240">
    <ele>2493.5</ele>
    <time>2026-06-24T06:35:04Z</time>
   </trkpt>
   <trkpt lat="-3.1819590" lon="37.3578260">
    <ele>2493.5</ele>
    <time>2026-06-24T06:35:05Z</time>
   </trkpt>
   <trkpt lat="-3.1819610" lon="37.3578200">
    <ele>2493.3</ele>
    <time>2026-06-24T06:35:06Z</time>
   </trkpt>
   <trkpt lat="-3.1819650" lon="37.3578080">
    <ele>2492.9</ele>
    <time>2026-06-24T06:35:07Z</time>
   </trkpt>
   <trkpt lat="-3.1819680" lon="37.3578020">
    <ele>2492.7</ele>
    <time>2026-06-24T06:35:08Z</time>
   </trkpt>
   <trkpt lat="-3.1819690" lon="37.3578060">
    <ele>2492.6</ele>
    <time>2026-06-24T06:35:09Z</time>
   </trkpt>
   <trkpt lat="-3.1819740" lon="37.3578050">
    <ele>2492.4</ele>
    <time>2026-06-24T06:35:10Z</time>
   </trkpt>
   <trkpt lat="-3.1819760" lon="37.3578050">
    <ele>2492.4</ele>
    <time>2026-06-24T06:35:11Z</time>
   </trkpt>
   <trkpt lat="-3.1819760" lon="37.3578080">
    <ele>2492.3</ele>
    <time>2026-06-24T06:35:12Z</time>
   </trkpt>
   <trkpt lat="-3.1819840" lon="37.3578020">
    <ele>2492.0</ele>
    <time>2026-06-24T06:35:13Z</time>
   </trkpt>
   <trkpt lat="-3.1819890" lon="37.3578010">
    <ele>2491.9</ele>
    <time>2026-06-24T06:35:14Z</time>
   </trkpt>
   <trkpt lat="-3.1819900" lon="37.3577990">
    <ele>2491.8</ele>
    <time>2026-06-24T06:35:15Z</time>
   </trkpt>
   <trkpt lat="-3.1819940" lon="37.3577950">
    <ele>2491.6</ele>
    <time>2026-06-24T06:35:16Z</time>
   </trkpt>
   <trkpt lat="-3.1819980" lon="37.3577920">
    <ele>2491.5</ele>
    <time>2026-06-24T06:35:17Z</time>
   </trkpt>
   <trkpt lat="-3.1820060" lon="37.3577910">
    <ele>2491.3</ele>
    <time>2026-06-24T06:35:18Z</time>
   </trkpt>
   <trkpt lat="-3.1820110" lon="37.3577840">
    <ele>2491.0</ele>
    <time>2026-06-24T06:35:19Z</time>
   </trkpt>
   <trkpt lat="-3.1820190" lon="37.3577840">
    <ele>2490.8</ele>
    <time>2026-06-24T06:35:20Z</time>
   </trkpt>
   <trkpt lat="-3.1820240" lon="37.3577800">
    <ele>2490.6</ele>
    <time>2026-06-24T06:35:21Z</time>
   </trkpt>
   <trkpt lat="-3.1820250" lon="37.3577760">
    <ele>2490.5</ele>
    <time>2026-06-24T06:35:22Z</time>
   </trkpt>
   <trkpt lat="-3.1820210" lon="37.3577780">
    <ele>2490.4</ele>
    <time>2026-06-24T06:35:23Z</time>
   </trkpt>
   <trkpt lat="-3.1820220" lon="37.3577730">
    <ele>2490.2</ele>
    <time>2026-06-24T06:35:24Z</time>
   </trkpt>
   <trkpt lat="-3.1820270" lon="37.3577650">
    <ele>2489.9</ele>
    <time>2026-06-24T06:35:25Z</time>
   </trkpt>
   <trkpt lat="-3.1820300" lon="37.3577560">
    <ele>2489.7</ele>
    <time>2026-06-24T06:35:26Z</time>
   </trkpt>
   <trkpt lat="-3.1820390" lon="37.3577480">
    <ele>2489.3</ele>
    <time>2026-06-24T06:35:27Z</time>
   </trkpt>
   <trkpt lat="-3.1820470" lon="37.3577400">
    <ele>2489.0</ele>
    <time>2026-06-24T06:35:28Z</time>
   </trkpt>
   <trkpt lat="-3.1820480" lon="37.3577450">
    <ele>2488.8</ele>
    <time>2026-06-24T06:35:29Z</time>
   </trkpt>
   <trkpt lat="-3.1820510" lon="37.3577440">
    <ele>2488.8</ele>
    <time>2026-06-24T06:35:30Z</time>
   </trkpt>
   <trkpt lat="-3.1820570" lon="37.3577360">
    <ele>2488.5</ele>
    <time>2026-06-24T06:35:31Z</time>
   </trkpt>
   <trkpt lat="-3.1820600" lon="37.3577340">
    <ele>2488.4</ele>
    <time>2026-06-24T06:35:32Z</time>
   </trkpt>
   <trkpt lat="-3.1820610" lon="37.3577350">
    <ele>2488.3</ele>
    <time>2026-06-24T06:35:33Z</time>
   </trkpt>
   <trkpt lat="-3.1820640" lon="37.3577270">
    <ele>2488.1</ele>
    <time>2026-06-24T06:35:34Z</time>
   </trkpt>
   <trkpt lat="-3.1820640" lon="37.3577220">
    <ele>2487.9</ele>
    <time>2026-06-24T06:35:35Z</time>
   </trkpt>
   <trkpt lat="-3.1820630" lon="37.3577210">
    <ele>2487.9</ele>
    <time>2026-06-24T06:35:36Z</time>
   </trkpt>
   <trkpt lat="-3.1820650" lon="37.3577160">
    <ele>2487.7</ele>
    <time>2026-06-24T06:35:37Z</time>
   </trkpt>
   <trkpt lat="-3.1820680" lon="37.3577150">
    <ele>2487.6</ele>
    <time>2026-06-24T06:35:38Z</time>
   </trkpt>
   <trkpt lat="-3.1820680" lon="37.3577150">
    <ele>2487.6</ele>
    <time>2026-06-24T06:35:39Z</time>
   </trkpt>
   <trkpt lat="-3.1820680" lon="37.3577190">
    <ele>2487.5</ele>
    <time>2026-06-24T06:35:40Z</time>
   </trkpt>
   <trkpt lat="-3.1820690" lon="37.3577200">
    <ele>2487.5</ele>
    <time>2026-06-24T06:35:41Z</time>
   </trkpt>
   <trkpt lat="-3.1820700" lon="37.3577240">
    <ele>2487.4</ele>
    <time>2026-06-24T06:35:42Z</time>
   </trkpt>
   <trkpt lat="-3.1820730" lon="37.3577270">
    <ele>2487.2</ele>
    <time>2026-06-24T06:35:43Z</time>
   </trkpt>
   <trkpt lat="-3.1820740" lon="37.3577270">
    <ele>2487.2</ele>
    <time>2026-06-24T06:35:44Z</time>
   </trkpt>
   <trkpt lat="-3.1820770" lon="37.3577300">
    <ele>2487.1</ele>
    <time>2026-06-24T06:35:45Z</time>
   </trkpt>
   <trkpt lat="-3.1820780" lon="37.3577310">
    <ele>2487.1</ele>
    <time>2026-06-24T06:35:46Z</time>
   </trkpt>
   <trkpt lat="-3.1820810" lon="37.3577290">
    <ele>2486.9</ele>
    <time>2026-06-24T06:35:47Z</time>
   </trkpt>
   <trkpt lat="-3.1820850" lon="37.3577200">
    <ele>2486.7</ele>
    <time>2026-06-24T06:35:48Z</time>
   </trkpt>
   <trkpt lat="-3.1820840" lon="37.3577240">
    <ele>2486.5</ele>
    <time>2026-06-24T06:35:49Z</time>
   </trkpt>
   <trkpt lat="-3.1820830" lon="37.3577230">
    <ele>2486.5</ele>
    <time>2026-06-24T06:35:50Z</time>
   </trkpt>
   <trkpt lat="-3.1820860" lon="37.3577190">
    <ele>2486.4</ele>
    <time>2026-06-24T06:35:51Z</time>
   </trkpt>
   <trkpt lat="-3.1820820" lon="37.3577140">
    <ele>2486.2</ele>
    <time>2026-06-24T06:35:52Z</time>
   </trkpt>
   <trkpt lat="-3.1820860" lon="37.3577100">
    <ele>2486.0</ele>
    <time>2026-06-24T06:35:53Z</time>
   </trkpt>
   <trkpt lat="-3.1820900" lon="37.3577060">
    <ele>2485.9</ele>
    <time>2026-06-24T06:35:54Z</time>
   </trkpt>
   <trkpt lat="-3.1820890" lon="37.3577070">
    <ele>2485.8</ele>
    <time>2026-06-24T06:35:55Z</time>
   </trkpt>
   <trkpt lat="-3.1820880" lon="37.3577090">
    <ele>2485.8</ele>
    <time>2026-06-24T06:35:56Z</time>
   </trkpt>
   <trkpt lat="-3.1820940" lon="37.3577030">
    <ele>2485.6</ele>
    <time>2026-06-24T06:35:57Z</time>
   </trkpt>
   <trkpt lat="-3.1821010" lon="37.3577020">
    <ele>2485.4</ele>
    <time>2026-06-24T06:35:58Z</time>
   </trkpt>
   <trkpt lat="-3.1821090" lon="37.3576990">
    <ele>2485.1</ele>
    <time>2026-06-24T06:35:59Z</time>
   </trkpt>
   <trkpt lat="-3.1821180" lon="37.3576950">
    <ele>2484.9</ele>
    <time>2026-06-24T06:36:00Z</time>
   </trkpt>
   <trkpt lat="-3.1821260" lon="37.3576890">
    <ele>2484.6</ele>
    <time>2026-06-24T06:36:01Z</time>
   </trkpt>
   <trkpt lat="-3.1821260" lon="37.3576880">
    <ele>2484.6</ele>
    <time>2026-06-24T06:36:02Z</time>
   </trkpt>
   <trkpt lat="-3.1821270" lon="37.3576910">
    <ele>2484.5</ele>
    <time>2026-06-24T06:36:03Z</time>
   </trkpt>
   <trkpt lat="-3.1821270" lon="37.3576920">
    <ele>2484.5</ele>
    <time>2026-06-24T06:36:04Z</time>
   </trkpt>
   <trkpt lat="-3.1821230" lon="37.3576890">
    <ele>2484.3</ele>
    <time>2026-06-24T06:36:05Z</time>
   </trkpt>
   <trkpt lat="-3.1821300" lon="37.3576850">
    <ele>2484.1</ele>
    <time>2026-06-24T06:36:06Z</time>
   </trkpt>
   <trkpt lat="-3.1821330" lon="37.3576780">
    <ele>2483.9</ele>
    <time>2026-06-24T06:36:07Z</time>
   </trkpt>
   <trkpt lat="-3.1821370" lon="37.3576790">
    <ele>2483.8</ele>
    <time>2026-06-24T06:36:08Z</time>
   </trkpt>
   <trkpt lat="-3.1821370" lon="37.3576790">
    <ele>2483.8</ele>
    <time>2026-06-24T06:36:09Z</time>
   </trkpt>
   <trkpt lat="-3.1821400" lon="37.3576840">
    <ele>2483.7</ele>
    <time>2026-06-24T06:36:10Z</time>
   </trkpt>
   <trkpt lat="-3.1821370" lon="37.3576850">
    <ele>2483.6</ele>
    <time>2026-06-24T06:36:11Z</time>
   </trkpt>
   <trkpt lat="-3.1821380" lon="37.3576850">
    <ele>2483.6</ele>
    <time>2026-06-24T06:36:12Z</time>
   </trkpt>
   <trkpt lat="-3.1821380" lon="37.3576850">
    <ele>2483.6</ele>
    <time>2026-06-24T06:36:13Z</time>
   </trkpt>
   <trkpt lat="-3.1821380" lon="37.3576880">
    <ele>2483.5</ele>
    <time>2026-06-24T06:36:14Z</time>
   </trkpt>
   <trkpt lat="-3.1821370" lon="37.3576890">
    <ele>2483.4</ele>
    <time>2026-06-24T06:36:15Z</time>
   </trkpt>
   <trkpt lat="-3.1821360" lon="37.3576910">
    <ele>2483.4</ele>
    <time>2026-06-24T06:36:16Z</time>
   </trkpt>
   <trkpt lat="-3.1821370" lon="37.3576900">
    <ele>2483.3</ele>
    <time>2026-06-24T06:36:17Z</time>
   </trkpt>
   <trkpt lat="-3.1821400" lon="37.3576860">
    <ele>2483.2</ele>
    <time>2026-06-24T06:36:18Z</time>
   </trkpt>
   <trkpt lat="-3.1821420" lon="37.3576830">
    <ele>2483.1</ele>
    <time>2026-06-24T06:36:19Z</time>
   </trkpt>
   <trkpt lat="-3.1821420" lon="37.3576820">
    <ele>2483.1</ele>
    <time>2026-06-24T06:36:20Z</time>
   </trkpt>
   <trkpt lat="-3.1821510" lon="37.3576790">
    <ele>2482.8</ele>
    <time>2026-06-24T06:36:21Z</time>
   </trkpt>
   <trkpt lat="-3.1821550" lon="37.3576790">
    <ele>2482.7</ele>
    <time>2026-06-24T06:36:22Z</time>
   </trkpt>
   <trkpt lat="-3.1821640" lon="37.3576750">
    <ele>2482.5</ele>
    <time>2026-06-24T06:36:23Z</time>
   </trkpt>
   <trkpt lat="-3.1821690" lon="37.3576710">
    <ele>2482.3</ele>
    <time>2026-06-24T06:36:24Z</time>
   </trkpt>
   <trkpt lat="-3.1821350" lon="37.3576940">
    <ele>2481.3</ele>
    <time>2026-06-24T06:36:25Z</time>
   </trkpt>
   <trkpt lat="-3.1821690" lon="37.3576600">
    <ele>2480.1</ele>
    <time>2026-06-24T06:36:26Z</time>
   </trkpt>
   <trkpt lat="-3.1821670" lon="37.3576620">
    <ele>2480.0</ele>
    <time>2026-06-24T06:36:27Z</time>
   </trkpt>
   <trkpt lat="-3.1821680" lon="37.3576630">
    <ele>2480.0</ele>
    <time>2026-06-24T06:36:28Z</time>
   </trkpt>
   <trkpt lat="-3.1821750" lon="37.3576620">
    <ele>2479.8</ele>
    <time>2026-06-24T06:36:29Z</time>
   </trkpt>
   <trkpt lat="-3.1821790" lon="37.3576620">
    <ele>2479.7</ele>
    <time>2026-06-24T06:36:30Z</time>
   </trkpt>
   <trkpt lat="-3.1821840" lon="37.3576590">
    <ele>2479.6</ele>
    <time>2026-06-24T06:36:31Z</time>
   </trkpt>
   <trkpt lat="-3.1821870" lon="37.3576610">
    <ele>2479.5</ele>
    <time>2026-06-24T06:36:32Z</time>
   </trkpt>
   <trkpt lat="-3.1821900" lon="37.3576610">
    <ele>2479.4</ele>
    <time>2026-06-24T06:36:33Z</time>
   </trkpt>
   <trkpt lat="-3.1821990" lon="37.3576600">
    <ele>2479.2</ele>
    <time>2026-06-24T06:36:34Z</time>
   </trkpt>
   <trkpt lat="-3.1822010" lon="37.3576560">
    <ele>2479.1</ele>
    <time>2026-06-24T06:36:35Z</time>
   </trkpt>
   <trkpt lat="-3.1822030" lon="37.3576550">
    <ele>2479.0</ele>
    <time>2026-06-24T06:36:36Z</time>
   </trkpt>
   <trkpt lat="-3.1822140" lon="37.3576550">
    <ele>2478.8</ele>
    <time>2026-06-24T06:36:37Z</time>
   </trkpt>
   <trkpt lat="-3.1822200" lon="37.3576550">
    <ele>2478.6</ele>
    <time>2026-06-24T06:36:38Z</time>
   </trkpt>
   <trkpt lat="-3.1822200" lon="37.3576560">
    <ele>2478.6</ele>
    <time>2026-06-24T06:36:39Z</time>
   </trkpt>
   <trkpt lat="-3.1822190" lon="37.3576560">
    <ele>2478.6</ele>
    <time>2026-06-24T06:36:40Z</time>
   </trkpt>
   <trkpt lat="-3.1822190" lon="37.3576610">
    <ele>2478.5</ele>
    <time>2026-06-24T06:36:41Z</time>
   </trkpt>
   <trkpt lat="-3.1822150" lon="37.3576620">
    <ele>2478.4</ele>
    <time>2026-06-24T06:36:42Z</time>
   </trkpt>
   <trkpt lat="-3.1822140" lon="37.3576620">
    <ele>2478.3</ele>
    <time>2026-06-24T06:36:43Z</time>
   </trkpt>
   <trkpt lat="-3.1822140" lon="37.3576620">
    <ele>2478.3</ele>
    <time>2026-06-24T06:36:44Z</time>
   </trkpt>
   <trkpt lat="-3.1822150" lon="37.3576690">
    <ele>2478.2</ele>
    <time>2026-06-24T06:36:45Z</time>
   </trkpt>
   <trkpt lat="-3.1822140" lon="37.3576700">
    <ele>2478.1</ele>
    <time>2026-06-24T06:36:46Z</time>
   </trkpt>
   <trkpt lat="-3.1822100" lon="37.3576710">
    <ele>2478.0</ele>
    <time>2026-06-24T06:36:48Z</time>
   </trkpt>
   <trkpt lat="-3.1822130" lon="37.3576710">
    <ele>2478.0</ele>
    <time>2026-06-24T06:36:49Z</time>
   </trkpt>
   <trkpt lat="-3.1822140" lon="37.3576720">
    <ele>2477.9</ele>
    <time>2026-06-24T06:36:50Z</time>
   </trkpt>
   <trkpt lat="-3.1822110" lon="37.3576700">
    <ele>2477.9</ele>
    <time>2026-06-24T06:36:51Z</time>
   </trkpt>
   <trkpt lat="-3.1822100" lon="37.3576700">
    <ele>2477.8</ele>
    <time>2026-06-24T06:36:52Z</time>
   </trkpt>
   <trkpt lat="-3.1822110" lon="37.3576680">
    <ele>2477.8</ele>
    <time>2026-06-24T06:36:53Z</time>
   </trkpt>
   <trkpt lat="-3.1822130" lon="37.3576680">
    <ele>2477.7</ele>
    <time>2026-06-24T06:36:54Z</time>
   </trkpt>
   <trkpt lat="-3.1822140" lon="37.3576690">
    <ele>2477.7</ele>
    <time>2026-06-24T06:36:55Z</time>
   </trkpt>
   <trkpt lat="-3.1822140" lon="37.3576690">
    <ele>2477.7</ele>
    <time>2026-06-24T06:36:56Z</time>
   </trkpt>
   <trkpt lat="-3.1822180" lon="37.3576690">
    <ele>2477.6</ele>
    <time>2026-06-24T06:36:57Z</time>
   </trkpt>
   <trkpt lat="-3.1822200" lon="37.3576670">
    <ele>2477.5</ele>
    <time>2026-06-24T06:36:58Z</time>
   </trkpt>
   <trkpt lat="-3.1822220" lon="37.3576660">
    <ele>2477.5</ele>
    <time>2026-06-24T06:36:59Z</time>
   </trkpt>
   <trkpt lat="-3.1822220" lon="37.3576660">
    <ele>2477.5</ele>
    <time>2026-06-24T06:37:00Z</time>
   </trkpt>
   <trkpt lat="-3.1822220" lon="37.3576660">
    <ele>2477.5</ele>
    <time>2026-06-24T06:37:01Z</time>
   </trkpt>
   <trkpt lat="-3.1822260" lon="37.3576680">
    <ele>2477.4</ele>
    <time>2026-06-24T06:37:02Z</time>
   </trkpt>
   <trkpt lat="-3.1822260" lon="37.3576680">
    <ele>2477.4</ele>
    <time>2026-06-24T06:37:03Z</time>
   </trkpt>
   <trkpt lat="-3.1822290" lon="37.3576670">
    <ele>2477.3</ele>
    <time>2026-06-24T06:37:04Z</time>
   </trkpt>
   <trkpt lat="-3.1822310" lon="37.3576620">
    <ele>2477.2</ele>
    <time>2026-06-24T06:37:05Z</time>
   </trkpt>
   <trkpt lat="-3.1822300" lon="37.3576620">
    <ele>2477.2</ele>
    <time>2026-06-24T06:37:06Z</time>
   </trkpt>
   <trkpt lat="-3.1822350" lon="37.3576620">
    <ele>2477.1</ele>
    <time>2026-06-24T06:37:07Z</time>
   </trkpt>
   <trkpt lat="-3.1822340" lon="37.3576610">
    <ele>2477.0</ele>
    <time>2026-06-24T06:37:08Z</time>
   </trkpt>
   <trkpt lat="-3.1822330" lon="37.3576620">
    <ele>2477.0</ele>
    <time>2026-06-24T06:37:09Z</time>
   </trkpt>
   <trkpt lat="-3.1822310" lon="37.3576630">
    <ele>2476.9</ele>
    <time>2026-06-24T06:37:10Z</time>
   </trkpt>
   <trkpt lat="-3.1822300" lon="37.3576650">
    <ele>2476.9</ele>
    <time>2026-06-24T06:37:11Z</time>
   </trkpt>
   <trkpt lat="-3.1822290" lon="37.3576660">
    <ele>2476.8</ele>
    <time>2026-06-24T06:37:12Z</time>
   </trkpt>
   <trkpt lat="-3.1822320" lon="37.3576650">
    <ele>2476.8</ele>
    <time>2026-06-24T06:37:13Z</time>
   </trkpt>
   <trkpt lat="-3.1822380" lon="37.3576640">
    <ele>2476.6</ele>
    <time>2026-06-24T06:37:14Z</time>
   </trkpt>
   <trkpt lat="-3.1822380" lon="37.3576620">
    <ele>2476.6</ele>
    <time>2026-06-24T06:37:15Z</time>
   </trkpt>
   <trkpt lat="-3.1822410" lon="37.3576630">
    <ele>2476.5</ele>
    <time>2026-06-24T06:37:16Z</time>
   </trkpt>
   <trkpt lat="-3.1822410" lon="37.3576630">
    <ele>2476.5</ele>
    <time>2026-06-24T06:37:17Z</time>
   </trkpt>
   <trkpt lat="-3.1822420" lon="37.3576620">
    <ele>2476.5</ele>
    <time>2026-06-24T06:37:18Z</time>
   </trkpt>
   <trkpt lat="-3.1822440" lon="37.3576620">
    <ele>2476.4</ele>
    <time>2026-06-24T06:37:19Z</time>
   </trkpt>
   <trkpt lat="-3.1822470" lon="37.3576620">
    <ele>2476.4</ele>
    <time>2026-06-24T06:37:20Z</time>
   </trkpt>
   <trkpt lat="-3.1822490" lon="37.3576610">
    <ele>2476.3</ele>
    <time>2026-06-24T06:37:21Z</time>
   </trkpt>
   <trkpt lat="-3.1822520" lon="37.3576600">
    <ele>2476.2</ele>
    <time>2026-06-24T06:37:22Z</time>
   </trkpt>
   <trkpt lat="-3.1822540" lon="37.3576590">
    <ele>2476.2</ele>
    <time>2026-06-24T06:37:23Z</time>
   </trkpt>
   <trkpt lat="-3.1822580" lon="37.3576570">
    <ele>2476.1</ele>
    <time>2026-06-24T06:37:24Z</time>
   </trkpt>
   <trkpt lat="-3.1822590" lon="37.3576550">
    <ele>2476.0</ele>
    <time>2026-06-24T06:37:25Z</time>
   </trkpt>
   <trkpt lat="-3.1822650" lon="37.3576520">
    <ele>2475.9</ele>
    <time>2026-06-24T06:37:26Z</time>
   </trkpt>
   <trkpt lat="-3.1822660" lon="37.3576530">
    <ele>2475.9</ele>
    <time>2026-06-24T06:37:27Z</time>
   </trkpt>
   <trkpt lat="-3.1822650" lon="37.3576520">
    <ele>2475.8</ele>
    <time>2026-06-24T06:37:28Z</time>
   </trkpt>
   <trkpt lat="-3.1822700" lon="37.3576490">
    <ele>2475.7</ele>
    <time>2026-06-24T06:37:29Z</time>
   </trkpt>
   <trkpt lat="-3.1822700" lon="37.3576480">
    <ele>2475.7</ele>
    <time>2026-06-24T06:37:30Z</time>
   </trkpt>
   <trkpt lat="-3.1822690" lon="37.3576490">
    <ele>2475.6</ele>
    <time>2026-06-24T06:37:31Z</time>
   </trkpt>
   <trkpt lat="-3.1822820" lon="37.3576510">
    <ele>2475.4</ele>
    <time>2026-06-24T06:37:32Z</time>
   </trkpt>
   <trkpt lat="-3.1822860" lon="37.3576440">
    <ele>2475.2</ele>
    <time>2026-06-24T06:37:33Z</time>
   </trkpt>
   <trkpt lat="-3.1822880" lon="37.3576440">
    <ele>2475.1</ele>
    <time>2026-06-24T06:37:34Z</time>
   </trkpt>
   <trkpt lat="-3.1822940" lon="37.3576490">
    <ele>2475.0</ele>
    <time>2026-06-24T06:37:35Z</time>
   </trkpt>
   <trkpt lat="-3.1822940" lon="37.3576460">
    <ele>2474.9</ele>
    <time>2026-06-24T06:37:36Z</time>
   </trkpt>
   <trkpt lat="-3.1822980" lon="37.3576470">
    <ele>2474.8</ele>
    <time>2026-06-24T06:37:37Z</time>
   </trkpt>
   <trkpt lat="-3.1823010" lon="37.3576490">
    <ele>2474.7</ele>
    <time>2026-06-24T06:37:38Z</time>
   </trkpt>
   <trkpt lat="-3.1823030" lon="37.3576470">
    <ele>2474.7</ele>
    <time>2026-06-24T06:37:39Z</time>
   </trkpt>
   <trkpt lat="-3.1823060" lon="37.3576370">
    <ele>2474.5</ele>
    <time>2026-06-24T06:37:40Z</time>
   </trkpt>
   <trkpt lat="-3.1823090" lon="37.3576320">
    <ele>2474.3</ele>
    <time>2026-06-24T06:37:41Z</time>
   </trkpt>
   <trkpt lat="-3.1823120" lon="37.3576350">
    <ele>2474.2</ele>
    <time>2026-06-24T06:37:42Z</time>
   </trkpt>
   <trkpt lat="-3.1823170" lon="37.3576330">
    <ele>2474.1</ele>
    <time>2026-06-24T06:37:43Z</time>
   </trkpt>
   <trkpt lat="-3.1823170" lon="37.3576290">
    <ele>2474.0</ele>
    <time>2026-06-24T06:37:44Z</time>
   </trkpt>
   <trkpt lat="-3.1823210" lon="37.3576250">
    <ele>2473.9</ele>
    <time>2026-06-24T06:37:45Z</time>
   </trkpt>
   <trkpt lat="-3.1823290" lon="37.3576230">
    <ele>2473.8</ele>
    <time>2026-06-24T06:37:46Z</time>
   </trkpt>
   <trkpt lat="-3.1823340" lon="37.3576260">
    <ele>2473.6</ele>
    <time>2026-06-24T06:37:47Z</time>
   </trkpt>
   <trkpt lat="-3.1823400" lon="37.3576240">
    <ele>2473.5</ele>
    <time>2026-06-24T06:37:48Z</time>
   </trkpt>
   <trkpt lat="-3.1823400" lon="37.3576250">
    <ele>2473.5</ele>
    <time>2026-06-24T06:37:49Z</time>
   </trkpt>
   <trkpt lat="-3.1823390" lon="37.3576240">
    <ele>2473.4</ele>
    <time>2026-06-24T06:37:50Z</time>
   </trkpt>
   <trkpt lat="-3.1823490" lon="37.3576260">
    <ele>2473.2</ele>
    <time>2026-06-24T06:37:51Z</time>
   </trkpt>
   <trkpt lat="-3.1823500" lon="37.3576240">
    <ele>2473.2</ele>
    <time>2026-06-24T06:37:52Z</time>
   </trkpt>
   <trkpt lat="-3.1823500" lon="37.3576240">
    <ele>2473.2</ele>
    <time>2026-06-24T06:37:53Z</time>
   </trkpt>
   <trkpt lat="-3.1823550" lon="37.3576190">
    <ele>2473.0</ele>
    <time>2026-06-24T06:37:54Z</time>
   </trkpt>
   <trkpt lat="-3.1823540" lon="37.3576190">
    <ele>2473.0</ele>
    <time>2026-06-24T06:37:55Z</time>
   </trkpt>
   <trkpt lat="-3.1823590" lon="37.3576080">
    <ele>2472.8</ele>
    <time>2026-06-24T06:37:56Z</time>
   </trkpt>
   <trkpt lat="-3.1823680" lon="37.3576020">
    <ele>2472.5</ele>
    <time>2026-06-24T06:37:57Z</time>
   </trkpt>
   <trkpt lat="-3.1823790" lon="37.3575950">
    <ele>2472.3</ele>
    <time>2026-06-24T06:37:58Z</time>
   </trkpt>
   <trkpt lat="-3.1823830" lon="37.3575870">
    <ele>2472.1</ele>
    <time>2026-06-24T06:37:59Z</time>
   </trkpt>
   <trkpt lat="-3.1823860" lon="37.3575820">
    <ele>2471.9</ele>
    <time>2026-06-24T06:38:00Z</time>
   </trkpt>
   <trkpt lat="-3.1823950" lon="37.3575750">
    <ele>2471.7</ele>
    <time>2026-06-24T06:38:01Z</time>
   </trkpt>
   <trkpt lat="-3.1824040" lon="37.3575700">
    <ele>2471.5</ele>
    <time>2026-06-24T06:38:02Z</time>
   </trkpt>
   <trkpt lat="-3.1824090" lon="37.3575680">
    <ele>2471.4</ele>
    <time>2026-06-24T06:38:03Z</time>
   </trkpt>
   <trkpt lat="-3.1824230" lon="37.3575680">
    <ele>2471.1</ele>
    <time>2026-06-24T06:38:04Z</time>
   </trkpt>
   <trkpt lat="-3.1824290" lon="37.3575610">
    <ele>2470.9</ele>
    <time>2026-06-24T06:38:05Z</time>
   </trkpt>
   <trkpt lat="-3.1824370" lon="37.3575550">
    <ele>2470.7</ele>
    <time>2026-06-24T06:38:06Z</time>
   </trkpt>
   <trkpt lat="-3.1824340" lon="37.3575570">
    <ele>2470.6</ele>
    <time>2026-06-24T06:38:07Z</time>
   </trkpt>
   <trkpt lat="-3.1824400" lon="37.3575560">
    <ele>2470.4</ele>
    <time>2026-06-24T06:38:08Z</time>
   </trkpt>
   <trkpt lat="-3.1824430" lon="37.3575570">
    <ele>2470.4</ele>
    <time>2026-06-24T06:38:09Z</time>
   </trkpt>
   <trkpt lat="-3.1824470" lon="37.3575560">
    <ele>2470.3</ele>
    <time>2026-06-24T06:38:10Z</time>
   </trkpt>
   <trkpt lat="-3.1824510" lon="37.3575560">
    <ele>2470.2</ele>
    <time>2026-06-24T06:38:11Z</time>
   </trkpt>
   <trkpt lat="-3.1824550" lon="37.3575540">
    <ele>2470.1</ele>
    <time>2026-06-24T06:38:12Z</time>
   </trkpt>
   <trkpt lat="-3.1824550" lon="37.3575530">
    <ele>2470.1</ele>
    <time>2026-06-24T06:38:13Z</time>
   </trkpt>
   <trkpt lat="-3.1824600" lon="37.3575600">
    <ele>2469.9</ele>
    <time>2026-06-24T06:38:14Z</time>
   </trkpt>
   <trkpt lat="-3.1824710" lon="37.3575600">
    <ele>2469.6</ele>
    <time>2026-06-24T06:38:15Z</time>
   </trkpt>
   <trkpt lat="-3.1824760" lon="37.3575580">
    <ele>2469.5</ele>
    <time>2026-06-24T06:38:16Z</time>
   </trkpt>
   <trkpt lat="-3.1824810" lon="37.3575530">
    <ele>2469.3</ele>
    <time>2026-06-24T06:38:17Z</time>
   </trkpt>
   <trkpt lat="-3.1824860" lon="37.3575510">
    <ele>2469.2</ele>
    <time>2026-06-24T06:38:18Z</time>
   </trkpt>
   <trkpt lat="-3.1824950" lon="37.3575440">
    <ele>2468.9</ele>
    <time>2026-06-24T06:38:19Z</time>
   </trkpt>
   <trkpt lat="-3.1824970" lon="37.3575430">
    <ele>2468.9</ele>
    <time>2026-06-24T06:38:20Z</time>
   </trkpt>
   <trkpt lat="-3.1825030" lon="37.3575400">
    <ele>2468.7</ele>
    <time>2026-06-24T06:38:21Z</time>
   </trkpt>
   <trkpt lat="-3.1825110" lon="37.3575310">
    <ele>2468.4</ele>
    <time>2026-06-24T06:38:22Z</time>
   </trkpt>
   <trkpt lat="-3.1825200" lon="37.3575200">
    <ele>2468.1</ele>
    <time>2026-06-24T06:38:23Z</time>
   </trkpt>
   <trkpt lat="-3.1825210" lon="37.3575160">
    <ele>2468.0</ele>
    <time>2026-06-24T06:38:24Z</time>
   </trkpt>
   <trkpt lat="-3.1825210" lon="37.3575120">
    <ele>2467.9</ele>
    <time>2026-06-24T06:38:25Z</time>
   </trkpt>
   <trkpt lat="-3.1825320" lon="37.3575030">
    <ele>2467.5</ele>
    <time>2026-06-24T06:38:26Z</time>
   </trkpt>
   <trkpt lat="-3.1825370" lon="37.3575000">
    <ele>2467.4</ele>
    <time>2026-06-24T06:38:27Z</time>
   </trkpt>
   <trkpt lat="-3.1825380" lon="37.3574990">
    <ele>2467.3</ele>
    <time>2026-06-24T06:38:28Z</time>
   </trkpt>
   <trkpt lat="-3.1825440" lon="37.3574930">
    <ele>2467.1</ele>
    <time>2026-06-24T06:38:29Z</time>
   </trkpt>
   <trkpt lat="-3.1825540" lon="37.3574880">
    <ele>2466.8</ele>
    <time>2026-06-24T06:38:30Z</time>
   </trkpt>
   <trkpt lat="-3.1825600" lon="37.3574850">
    <ele>2466.7</ele>
    <time>2026-06-24T06:38:31Z</time>
   </trkpt>
   <trkpt lat="-3.1825610" lon="37.3574830">
    <ele>2466.6</ele>
    <time>2026-06-24T06:38:32Z</time>
   </trkpt>
   <trkpt lat="-3.1825640" lon="37.3574800">
    <ele>2466.5</ele>
    <time>2026-06-24T06:38:33Z</time>
   </trkpt>
   <trkpt lat="-3.1825630" lon="37.3574750">
    <ele>2466.4</ele>
    <time>2026-06-24T06:38:34Z</time>
   </trkpt>
   <trkpt lat="-3.1825650" lon="37.3574720">
    <ele>2466.3</ele>
    <time>2026-06-24T06:38:35Z</time>
   </trkpt>
   <trkpt lat="-3.1825680" lon="37.3574660">
    <ele>2466.1</ele>
    <time>2026-06-24T06:38:36Z</time>
   </trkpt>
   <trkpt lat="-3.1825700" lon="37.3574600">
    <ele>2466.0</ele>
    <time>2026-06-24T06:38:37Z</time>
   </trkpt>
   <trkpt lat="-3.1825660" lon="37.3574540">
    <ele>2465.8</ele>
    <time>2026-06-24T06:38:38Z</time>
   </trkpt>
   <trkpt lat="-3.1825670" lon="37.3574430">
    <ele>2465.5</ele>
    <time>2026-06-24T06:38:39Z</time>
   </trkpt>
   <trkpt lat="-3.1825670" lon="37.3574480">
    <ele>2465.4</ele>
    <time>2026-06-24T06:38:40Z</time>
   </trkpt>
   <trkpt lat="-3.1825690" lon="37.3574470">
    <ele>2465.3</ele>
    <time>2026-06-24T06:38:41Z</time>
   </trkpt>
   <trkpt lat="-3.1825720" lon="37.3574440">
    <ele>2465.2</ele>
    <time>2026-06-24T06:38:42Z</time>
   </trkpt>
   <trkpt lat="-3.1825790" lon="37.3574410">
    <ele>2465.0</ele>
    <time>2026-06-24T06:38:43Z</time>
   </trkpt>
   <trkpt lat="-3.1825850" lon="37.3574390">
    <ele>2464.8</ele>
    <time>2026-06-24T06:38:44Z</time>
   </trkpt>
   <trkpt lat="-3.1825850" lon="37.3574390">
    <ele>2464.8</ele>
    <time>2026-06-24T06:38:45Z</time>
   </trkpt>
   <trkpt lat="-3.1825850" lon="37.3574390">
    <ele>2464.8</ele>
    <time>2026-06-24T06:38:46Z</time>
   </trkpt>
   <trkpt lat="-3.1825930" lon="37.3574360">
    <ele>2464.6</ele>
    <time>2026-06-24T06:38:47Z</time>
   </trkpt>
   <trkpt lat="-3.1825930" lon="37.3574360">
    <ele>2464.6</ele>
    <time>2026-06-24T06:38:48Z</time>
   </trkpt>
   <trkpt lat="-3.1825900" lon="37.3574330">
    <ele>2464.5</ele>
    <time>2026-06-24T06:38:49Z</time>
   </trkpt>
   <trkpt lat="-3.1825900" lon="37.3574330">
    <ele>2464.5</ele>
    <time>2026-06-24T06:38:50Z</time>
   </trkpt>
   <trkpt lat="-3.1825900" lon="37.3574330">
    <ele>2464.5</ele>
    <time>2026-06-24T06:38:51Z</time>
   </trkpt>
   <trkpt lat="-3.1825900" lon="37.3574330">
    <ele>2464.5</ele>
    <time>2026-06-24T06:38:52Z</time>
   </trkpt>
   <trkpt lat="-3.1825820" lon="37.3574290">
    <ele>2464.3</ele>
    <time>2026-06-24T06:38:54Z</time>
   </trkpt>
   <trkpt lat="-3.1825830" lon="37.3574240">
    <ele>2464.1</ele>
    <time>2026-06-24T06:38:55Z</time>
   </trkpt>
   <trkpt lat="-3.1825820" lon="37.3574290">
    <ele>2464.0</ele>
    <time>2026-06-24T06:38:56Z</time>
   </trkpt>
   <trkpt lat="-3.1825900" lon="37.3574300">
    <ele>2463.8</ele>
    <time>2026-06-24T06:38:58Z</time>
   </trkpt>
   <trkpt lat="-3.1825930" lon="37.3574260">
    <ele>2463.7</ele>
    <time>2026-06-24T06:38:59Z</time>
   </trkpt>
   <trkpt lat="-3.1825980" lon="37.3574260">
    <ele>2463.5</ele>
    <time>2026-06-24T06:39:00Z</time>
   </trkpt>
   <trkpt lat="-3.1826020" lon="37.3574190">
    <ele>2463.3</ele>
    <time>2026-06-24T06:39:01Z</time>
   </trkpt>
   <trkpt lat="-3.1826030" lon="37.3574090">
    <ele>2463.1</ele>
    <time>2026-06-24T06:39:02Z</time>
   </trkpt>
   <trkpt lat="-3.1826050" lon="37.3574030">
    <ele>2462.9</ele>
    <time>2026-06-24T06:39:03Z</time>
   </trkpt>
   <trkpt lat="-3.1826070" lon="37.3573990">
    <ele>2462.8</ele>
    <time>2026-06-24T06:39:04Z</time>
   </trkpt>
   <trkpt lat="-3.1826070" lon="37.3573920">
    <ele>2462.6</ele>
    <time>2026-06-24T06:39:05Z</time>
   </trkpt>
   <trkpt lat="-3.1826080" lon="37.3573900">
    <ele>2462.6</ele>
    <time>2026-06-24T06:39:06Z</time>
   </trkpt>
   <trkpt lat="-3.1826080" lon="37.3573890">
    <ele>2462.5</ele>
    <time>2026-06-24T06:39:07Z</time>
   </trkpt>
   <trkpt lat="-3.1826100" lon="37.3573820">
    <ele>2462.3</ele>
    <time>2026-06-24T06:39:08Z</time>
   </trkpt>
   <trkpt lat="-3.1826140" lon="37.3573750">
    <ele>2462.1</ele>
    <time>2026-06-24T06:39:09Z</time>
   </trkpt>
   <trkpt lat="-3.1826140" lon="37.3573750">
    <ele>2462.1</ele>
    <time>2026-06-24T06:39:10Z</time>
   </trkpt>
   <trkpt lat="-3.1826140" lon="37.3573630">
    <ele>2461.8</ele>
    <time>2026-06-24T06:39:11Z</time>
   </trkpt>
   <trkpt lat="-3.1826140" lon="37.3573640">
    <ele>2461.8</ele>
    <time>2026-06-24T06:39:12Z</time>
   </trkpt>
   <trkpt lat="-3.1826180" lon="37.3573630">
    <ele>2461.7</ele>
    <time>2026-06-24T06:39:13Z</time>
   </trkpt>
   <trkpt lat="-3.1826240" lon="37.3573580">
    <ele>2461.5</ele>
    <time>2026-06-24T06:39:14Z</time>
   </trkpt>
   <trkpt lat="-3.1826220" lon="37.3573530">
    <ele>2461.4</ele>
    <time>2026-06-24T06:39:15Z</time>
   </trkpt>
   <trkpt lat="-3.1826190" lon="37.3573560">
    <ele>2461.2</ele>
    <time>2026-06-24T06:39:16Z</time>
   </trkpt>
   <trkpt lat="-3.1826190" lon="37.3573430">
    <ele>2460.9</ele>
    <time>2026-06-24T06:39:17Z</time>
   </trkpt>
   <trkpt lat="-3.1826220" lon="37.3573430">
    <ele>2460.8</ele>
    <time>2026-06-24T06:39:18Z</time>
   </trkpt>
   <trkpt lat="-3.1826240" lon="37.3573440">
    <ele>2460.8</ele>
    <time>2026-06-24T06:39:19Z</time>
   </trkpt>
   <trkpt lat="-3.1826250" lon="37.3573460">
    <ele>2460.7</ele>
    <time>2026-06-24T06:39:20Z</time>
   </trkpt>
   <trkpt lat="-3.1826260" lon="37.3573450">
    <ele>2460.7</ele>
    <time>2026-06-24T06:39:21Z</time>
   </trkpt>
   <trkpt lat="-3.1826230" lon="37.3573460">
    <ele>2460.6</ele>
    <time>2026-06-24T06:39:22Z</time>
   </trkpt>
   <trkpt lat="-3.1826230" lon="37.3573450">
    <ele>2460.6</ele>
    <time>2026-06-24T06:39:23Z</time>
   </trkpt>
   <trkpt lat="-3.1826260" lon="37.3573440">
    <ele>2460.5</ele>
    <time>2026-06-24T06:39:24Z</time>
   </trkpt>
   <trkpt lat="-3.1826260" lon="37.3573420">
    <ele>2460.4</ele>
    <time>2026-06-24T06:39:25Z</time>
   </trkpt>
   <trkpt lat="-3.1826270" lon="37.3573400">
    <ele>2460.4</ele>
    <time>2026-06-24T06:39:26Z</time>
   </trkpt>
   <trkpt lat="-3.1826320" lon="37.3573390">
    <ele>2460.2</ele>
    <time>2026-06-24T06:39:27Z</time>
   </trkpt>
   <trkpt lat="-3.1826340" lon="37.3573370">
    <ele>2460.2</ele>
    <time>2026-06-24T06:39:28Z</time>
   </trkpt>
   <trkpt lat="-3.1826310" lon="37.3573350">
    <ele>2460.1</ele>
    <time>2026-06-24T06:39:29Z</time>
   </trkpt>
   <trkpt lat="-3.1826330" lon="37.3573350">
    <ele>2460.0</ele>
    <time>2026-06-24T06:39:30Z</time>
   </trkpt>
   <trkpt lat="-3.1826380" lon="37.3573350">
    <ele>2459.9</ele>
    <time>2026-06-24T06:39:31Z</time>
   </trkpt>
   <trkpt lat="-3.1826370" lon="37.3573350">
    <ele>2459.9</ele>
    <time>2026-06-24T06:39:32Z</time>
   </trkpt>
   <trkpt lat="-3.1826420" lon="37.3573300">
    <ele>2459.7</ele>
    <time>2026-06-24T06:39:33Z</time>
   </trkpt>
   <trkpt lat="-3.1826530" lon="37.3573240">
    <ele>2459.4</ele>
    <time>2026-06-24T06:39:34Z</time>
   </trkpt>
   <trkpt lat="-3.1826570" lon="37.3573230">
    <ele>2459.3</ele>
    <time>2026-06-24T06:39:35Z</time>
   </trkpt>
   <trkpt lat="-3.1826660" lon="37.3573210">
    <ele>2459.0</ele>
    <time>2026-06-24T06:39:36Z</time>
   </trkpt>
   <trkpt lat="-3.1826710" lon="37.3573150">
    <ele>2458.8</ele>
    <time>2026-06-24T06:39:37Z</time>
   </trkpt>
   <trkpt lat="-3.1826730" lon="37.3573110">
    <ele>2458.7</ele>
    <time>2026-06-24T06:39:38Z</time>
   </trkpt>
   <trkpt lat="-3.1826740" lon="37.3573160">
    <ele>2458.6</ele>
    <time>2026-06-24T06:39:39Z</time>
   </trkpt>
   <trkpt lat="-3.1826780" lon="37.3573130">
    <ele>2458.4</ele>
    <time>2026-06-24T06:39:40Z</time>
   </trkpt>
   <trkpt lat="-3.1826800" lon="37.3573110">
    <ele>2458.3</ele>
    <time>2026-06-24T06:39:41Z</time>
   </trkpt>
   <trkpt lat="-3.1826830" lon="37.3573090">
    <ele>2458.2</ele>
    <time>2026-06-24T06:39:42Z</time>
   </trkpt>
   <trkpt lat="-3.1826830" lon="37.3573090">
    <ele>2458.2</ele>
    <time>2026-06-24T06:39:43Z</time>
   </trkpt>
   <trkpt lat="-3.1826840" lon="37.3573030">
    <ele>2458.1</ele>
    <time>2026-06-24T06:39:44Z</time>
   </trkpt>
   <trkpt lat="-3.1826840" lon="37.3573060">
    <ele>2458.0</ele>
    <time>2026-06-24T06:39:45Z</time>
   </trkpt>
   <trkpt lat="-3.1826870" lon="37.3572980">
    <ele>2457.8</ele>
    <time>2026-06-24T06:39:46Z</time>
   </trkpt>
   <trkpt lat="-3.1826850" lon="37.3572910">
    <ele>2457.6</ele>
    <time>2026-06-24T06:39:47Z</time>
   </trkpt>
   <trkpt lat="-3.1826870" lon="37.3572880">
    <ele>2457.5</ele>
    <time>2026-06-24T06:39:48Z</time>
   </trkpt>
   <trkpt lat="-3.1826900" lon="37.3572810">
    <ele>2457.3</ele>
    <time>2026-06-24T06:39:49Z</time>
   </trkpt>
   <trkpt lat="-3.1826910" lon="37.3572840">
    <ele>2457.2</ele>
    <time>2026-06-24T06:39:50Z</time>
   </trkpt>
   <trkpt lat="-3.1826950" lon="37.3572840">
    <ele>2457.1</ele>
    <time>2026-06-24T06:39:51Z</time>
   </trkpt>
   <trkpt lat="-3.1827020" lon="37.3572860">
    <ele>2456.9</ele>
    <time>2026-06-24T06:39:52Z</time>
   </trkpt>
   <trkpt lat="-3.1827030" lon="37.3572830">
    <ele>2456.8</ele>
    <time>2026-06-24T06:39:53Z</time>
   </trkpt>
   <trkpt lat="-3.1827040" lon="37.3572830">
    <ele>2456.8</ele>
    <time>2026-06-24T06:39:54Z</time>
   </trkpt>
   <trkpt lat="-3.1827040" lon="37.3572830">
    <ele>2456.8</ele>
    <time>2026-06-24T06:39:55Z</time>
   </trkpt>
   <trkpt lat="-3.1827050" lon="37.3572780">
    <ele>2456.7</ele>
    <time>2026-06-24T06:39:56Z</time>
   </trkpt>
   <trkpt lat="-3.1827080" lon="37.3572870">
    <ele>2456.4</ele>
    <time>2026-06-24T06:39:57Z</time>
   </trkpt>
   <trkpt lat="-3.1827150" lon="37.3572850">
    <ele>2456.2</ele>
    <time>2026-06-24T06:39:58Z</time>
   </trkpt>
   <trkpt lat="-3.1827200" lon="37.3572860">
    <ele>2456.1</ele>
    <time>2026-06-24T06:39:59Z</time>
   </trkpt>
   <trkpt lat="-3.1827230" lon="37.3572840">
    <ele>2456.0</ele>
    <time>2026-06-24T06:40:00Z</time>
   </trkpt>
   <trkpt lat="-3.1827280" lon="37.3572790">
    <ele>2455.8</ele>
    <time>2026-06-24T06:40:01Z</time>
   </trkpt>
   <trkpt lat="-3.1827340" lon="37.3572790">
    <ele>2455.6</ele>
    <time>2026-06-24T06:40:02Z</time>
   </trkpt>
   <trkpt lat="-3.1827390" lon="37.3572770">
    <ele>2455.5</ele>
    <time>2026-06-24T06:40:03Z</time>
   </trkpt>
   <trkpt lat="-3.1827420" lon="37.3572740">
    <ele>2455.4</ele>
    <time>2026-06-24T06:40:04Z</time>
   </trkpt>
   <trkpt lat="-3.1827460" lon="37.3572710">
    <ele>2455.2</ele>
    <time>2026-06-24T06:40:05Z</time>
   </trkpt>
   <trkpt lat="-3.1827460" lon="37.3572690">
    <ele>2455.2</ele>
    <time>2026-06-24T06:40:06Z</time>
   </trkpt>
   <trkpt lat="-3.1827490" lon="37.3572640">
    <ele>2455.0</ele>
    <time>2026-06-24T06:40:07Z</time>
   </trkpt>
   <trkpt lat="-3.1827570" lon="37.3572600">
    <ele>2454.8</ele>
    <time>2026-06-24T06:40:08Z</time>
   </trkpt>
   <trkpt lat="-3.1827630" lon="37.3572560">
    <ele>2454.6</ele>
    <time>2026-06-24T06:40:09Z</time>
   </trkpt>
   <trkpt lat="-3.1827690" lon="37.3572540">
    <ele>2454.4</ele>
    <time>2026-06-24T06:40:10Z</time>
   </trkpt>
   <trkpt lat="-3.1827790" lon="37.3572510">
    <ele>2454.1</ele>
    <time>2026-06-24T06:40:11Z</time>
   </trkpt>
   <trkpt lat="-3.1827820" lon="37.3572570">
    <ele>2454.0</ele>
    <time>2026-06-24T06:40:12Z</time>
   </trkpt>
   <trkpt lat="-3.1827860" lon="37.3572520">
    <ele>2453.8</ele>
    <time>2026-06-24T06:40:13Z</time>
   </trkpt>
   <trkpt lat="-3.1827900" lon="37.3572500">
    <ele>2453.7</ele>
    <time>2026-06-24T06:40:14Z</time>
   </trkpt>
   <trkpt lat="-3.1827900" lon="37.3572480">
    <ele>2453.6</ele>
    <time>2026-06-24T06:40:15Z</time>
   </trkpt>
   <trkpt lat="-3.1827980" lon="37.3572440">
    <ele>2453.4</ele>
    <time>2026-06-24T06:40:16Z</time>
   </trkpt>
   <trkpt lat="-3.1828110" lon="37.3572320">
    <ele>2452.9</ele>
    <time>2026-06-24T06:40:17Z</time>
   </trkpt>
   <trkpt lat="-3.1828090" lon="37.3572390">
    <ele>2452.7</ele>
    <time>2026-06-24T06:40:18Z</time>
   </trkpt>
   <trkpt lat="-3.1828090" lon="37.3572420">
    <ele>2452.6</ele>
    <time>2026-06-24T06:40:19Z</time>
   </trkpt>
   <trkpt lat="-3.1828160" lon="37.3572370">
    <ele>2452.4</ele>
    <time>2026-06-24T06:40:20Z</time>
   </trkpt>
   <trkpt lat="-3.1828220" lon="37.3572390">
    <ele>2452.2</ele>
    <time>2026-06-24T06:40:21Z</time>
   </trkpt>
   <trkpt lat="-3.1828260" lon="37.3572370">
    <ele>2452.1</ele>
    <time>2026-06-24T06:40:22Z</time>
   </trkpt>
   <trkpt lat="-3.1828330" lon="37.3572310">
    <ele>2451.9</ele>
    <time>2026-06-24T06:40:23Z</time>
   </trkpt>
   <trkpt lat="-3.1828410" lon="37.3572270">
    <ele>2451.6</ele>
    <time>2026-06-24T06:40:24Z</time>
   </trkpt>
   <trkpt lat="-3.1828420" lon="37.3572240">
    <ele>2451.5</ele>
    <time>2026-06-24T06:40:25Z</time>
   </trkpt>
   <trkpt lat="-3.1828440" lon="37.3572210">
    <ele>2451.4</ele>
    <time>2026-06-24T06:40:26Z</time>
   </trkpt>
   <trkpt lat="-3.1828470" lon="37.3572250">
    <ele>2451.3</ele>
    <time>2026-06-24T06:40:27Z</time>
   </trkpt>
   <trkpt lat="-3.1828520" lon="37.3572210">
    <ele>2451.1</ele>
    <time>2026-06-24T06:40:28Z</time>
   </trkpt>
   <trkpt lat="-3.1828540" lon="37.3572170">
    <ele>2451.0</ele>
    <time>2026-06-24T06:40:29Z</time>
   </trkpt>
   <trkpt lat="-3.1828570" lon="37.3572180">
    <ele>2450.9</ele>
    <time>2026-06-24T06:40:30Z</time>
   </trkpt>
   <trkpt lat="-3.1828600" lon="37.3572140">
    <ele>2450.8</ele>
    <time>2026-06-24T06:40:31Z</time>
   </trkpt>
   <trkpt lat="-3.1828640" lon="37.3572110">
    <ele>2450.7</ele>
    <time>2026-06-24T06:40:32Z</time>
   </trkpt>
   <trkpt lat="-3.1828670" lon="37.3572040">
    <ele>2450.5</ele>
    <time>2026-06-24T06:40:33Z</time>
   </trkpt>
   <trkpt lat="-3.1828670" lon="37.3572050">
    <ele>2450.4</ele>
    <time>2026-06-24T06:40:34Z</time>
   </trkpt>
   <trkpt lat="-3.1828700" lon="37.3572040">
    <ele>2450.4</ele>
    <time>2026-06-24T06:40:35Z</time>
   </trkpt>
   <trkpt lat="-3.1828770" lon="37.3572000">
    <ele>2450.1</ele>
    <time>2026-06-24T06:40:36Z</time>
   </trkpt>
   <trkpt lat="-3.1828820" lon="37.3572030">
    <ele>2450.0</ele>
    <time>2026-06-24T06:40:37Z</time>
   </trkpt>
   <trkpt lat="-3.1828860" lon="37.3572020">
    <ele>2449.9</ele>
    <time>2026-06-24T06:40:38Z</time>
   </trkpt>
   <trkpt lat="-3.1828890" lon="37.3572010">
    <ele>2449.8</ele>
    <time>2026-06-24T06:40:39Z</time>
   </trkpt>
   <trkpt lat="-3.1828940" lon="37.3572030">
    <ele>2449.7</ele>
    <time>2026-06-24T06:40:40Z</time>
   </trkpt>
   <trkpt lat="-3.1828890" lon="37.3572050">
    <ele>2449.5</ele>
    <time>2026-06-24T06:40:41Z</time>
   </trkpt>
   <trkpt lat="-3.1828850" lon="37.3572030">
    <ele>2449.4</ele>
    <time>2026-06-24T06:40:42Z</time>
   </trkpt>
   <trkpt lat="-3.1828930" lon="37.3571920">
    <ele>2449.0</ele>
    <time>2026-06-24T06:40:43Z</time>
   </trkpt>
   <trkpt lat="-3.1828970" lon="37.3571930">
    <ele>2448.9</ele>
    <time>2026-06-24T06:40:44Z</time>
   </trkpt>
   <trkpt lat="-3.1828990" lon="37.3571940">
    <ele>2448.9</ele>
    <time>2026-06-24T06:40:45Z</time>
   </trkpt>
   <trkpt lat="-3.1829000" lon="37.3571930">
    <ele>2448.8</ele>
    <time>2026-06-24T06:40:46Z</time>
   </trkpt>
   <trkpt lat="-3.1829030" lon="37.3571920">
    <ele>2448.7</ele>
    <time>2026-06-24T06:40:47Z</time>
   </trkpt>
   <trkpt lat="-3.1829070" lon="37.3571890">
    <ele>2448.6</ele>
    <time>2026-06-24T06:40:48Z</time>
   </trkpt>
   <trkpt lat="-3.1829180" lon="37.3571820">
    <ele>2448.2</ele>
    <time>2026-06-24T06:40:49Z</time>
   </trkpt>
   <trkpt lat="-3.1829270" lon="37.3571750">
    <ele>2447.9</ele>
    <time>2026-06-24T06:40:50Z</time>
   </trkpt>
   <trkpt lat="-3.1829360" lon="37.3571670">
    <ele>2447.6</ele>
    <time>2026-06-24T06:40:51Z</time>
   </trkpt>
   <trkpt lat="-3.1829440" lon="37.3571620">
    <ele>2447.4</ele>
    <time>2026-06-24T06:40:52Z</time>
   </trkpt>
   <trkpt lat="-3.1829490" lon="37.3571580">
    <ele>2447.2</ele>
    <time>2026-06-24T06:40:53Z</time>
   </trkpt>
   <trkpt lat="-3.1829520" lon="37.3571580">
    <ele>2447.1</ele>
    <time>2026-06-24T06:40:54Z</time>
   </trkpt>
   <trkpt lat="-3.1829510" lon="37.3571570">
    <ele>2447.1</ele>
    <time>2026-06-24T06:40:55Z</time>
   </trkpt>
   <trkpt lat="-3.1829590" lon="37.3571540">
    <ele>2446.9</ele>
    <time>2026-06-24T06:40:56Z</time>
   </trkpt>
   <trkpt lat="-3.1829640" lon="37.3571540">
    <ele>2446.7</ele>
    <time>2026-06-24T06:40:57Z</time>
   </trkpt>
   <trkpt lat="-3.1829690" lon="37.3571560">
    <ele>2446.6</ele>
    <time>2026-06-24T06:40:58Z</time>
   </trkpt>
   <trkpt lat="-3.1829730" lon="37.3571570">
    <ele>2446.5</ele>
    <time>2026-06-24T06:40:59Z</time>
   </trkpt>
   <trkpt lat="-3.1829790" lon="37.3571570">
    <ele>2446.3</ele>
    <time>2026-06-24T06:41:00Z</time>
   </trkpt>
   <trkpt lat="-3.1829840" lon="37.3571590">
    <ele>2446.2</ele>
    <time>2026-06-24T06:41:01Z</time>
   </trkpt>
   <trkpt lat="-3.1829890" lon="37.3571600">
    <ele>2446.0</ele>
    <time>2026-06-24T06:41:02Z</time>
   </trkpt>
   <trkpt lat="-3.1829920" lon="37.3571610">
    <ele>2445.9</ele>
    <time>2026-06-24T06:41:03Z</time>
   </trkpt>
   <trkpt lat="-3.1829960" lon="37.3571600">
    <ele>2445.8</ele>
    <time>2026-06-24T06:41:04Z</time>
   </trkpt>
   <trkpt lat="-3.1829970" lon="37.3571570">
    <ele>2445.7</ele>
    <time>2026-06-24T06:41:05Z</time>
   </trkpt>
   <trkpt lat="-3.1830020" lon="37.3571580">
    <ele>2445.6</ele>
    <time>2026-06-24T06:41:06Z</time>
   </trkpt>
   <trkpt lat="-3.1830070" lon="37.3571580">
    <ele>2445.5</ele>
    <time>2026-06-24T06:41:07Z</time>
   </trkpt>
   <trkpt lat="-3.1830130" lon="37.3571540">
    <ele>2445.3</ele>
    <time>2026-06-24T06:41:08Z</time>
   </trkpt>
   <trkpt lat="-3.1830180" lon="37.3571530">
    <ele>2445.1</ele>
    <time>2026-06-24T06:41:09Z</time>
   </trkpt>
   <trkpt lat="-3.1830240" lon="37.3571500">
    <ele>2445.0</ele>
    <time>2026-06-24T06:41:10Z</time>
   </trkpt>
   <trkpt lat="-3.1830280" lon="37.3571460">
    <ele>2444.8</ele>
    <time>2026-06-24T06:41:11Z</time>
   </trkpt>
   <trkpt lat="-3.1830320" lon="37.3571420">
    <ele>2444.7</ele>
    <time>2026-06-24T06:41:12Z</time>
   </trkpt>
   <trkpt lat="-3.1830340" lon="37.3571360">
    <ele>2444.5</ele>
    <time>2026-06-24T06:41:13Z</time>
   </trkpt>
   <trkpt lat="-3.1830390" lon="37.3571280">
    <ele>2444.3</ele>
    <time>2026-06-24T06:41:14Z</time>
   </trkpt>
   <trkpt lat="-3.1830490" lon="37.3571200">
    <ele>2443.9</ele>
    <time>2026-06-24T06:41:15Z</time>
   </trkpt>
   <trkpt lat="-3.1830540" lon="37.3571210">
    <ele>2443.8</ele>
    <time>2026-06-24T06:41:16Z</time>
   </trkpt>
   <trkpt lat="-3.1830540" lon="37.3571180">
    <ele>2443.7</ele>
    <time>2026-06-24T06:41:17Z</time>
   </trkpt>
   <trkpt lat="-3.1830590" lon="37.3571110">
    <ele>2443.5</ele>
    <time>2026-06-24T06:41:18Z</time>
   </trkpt>
   <trkpt lat="-3.1830650" lon="37.3571100">
    <ele>2443.4</ele>
    <time>2026-06-24T06:41:19Z</time>
   </trkpt>
   <trkpt lat="-3.1830720" lon="37.3571040">
    <ele>2443.1</ele>
    <time>2026-06-24T06:41:20Z</time>
   </trkpt>
   <trkpt lat="-3.1830780" lon="37.3571000">
    <ele>2442.9</ele>
    <time>2026-06-24T06:41:21Z</time>
   </trkpt>
   <trkpt lat="-3.1830750" lon="37.3571000">
    <ele>2442.9</ele>
    <time>2026-06-24T06:41:22Z</time>
   </trkpt>
   <trkpt lat="-3.1830730" lon="37.3571030">
    <ele>2442.8</ele>
    <time>2026-06-24T06:41:23Z</time>
   </trkpt>
   <trkpt lat="-3.1830710" lon="37.3571050">
    <ele>2442.7</ele>
    <time>2026-06-24T06:41:24Z</time>
   </trkpt>
   <trkpt lat="-3.1830770" lon="37.3571040">
    <ele>2442.6</ele>
    <time>2026-06-24T06:41:25Z</time>
   </trkpt>
   <trkpt lat="-3.1830830" lon="37.3571060">
    <ele>2442.4</ele>
    <time>2026-06-24T06:41:26Z</time>
   </trkpt>
   <trkpt lat="-3.1830850" lon="37.3571100">
    <ele>2442.3</ele>
    <time>2026-06-24T06:41:27Z</time>
   </trkpt>
   <trkpt lat="-3.1830840" lon="37.3571120">
    <ele>2442.3</ele>
    <time>2026-06-24T06:41:28Z</time>
   </trkpt>
   <trkpt lat="-3.1830910" lon="37.3571120">
    <ele>2442.1</ele>
    <time>2026-06-24T06:41:29Z</time>
   </trkpt>
   <trkpt lat="-3.1830860" lon="37.3571130">
    <ele>2442.0</ele>
    <time>2026-06-24T06:41:30Z</time>
   </trkpt>
   <trkpt lat="-3.1830970" lon="37.3571150">
    <ele>2441.7</ele>
    <time>2026-06-24T06:41:31Z</time>
   </trkpt>
   <trkpt lat="-3.1831040" lon="37.3571160">
    <ele>2441.5</ele>
    <time>2026-06-24T06:41:32Z</time>
   </trkpt>
   <trkpt lat="-3.1831090" lon="37.3571150">
    <ele>2441.4</ele>
    <time>2026-06-24T06:41:33Z</time>
   </trkpt>
   <trkpt lat="-3.1831180" lon="37.3571130">
    <ele>2441.2</ele>
    <time>2026-06-24T06:41:34Z</time>
   </trkpt>
   <trkpt lat="-3.1831250" lon="37.3571220">
    <ele>2441.0</ele>
    <time>2026-06-24T06:41:35Z</time>
   </trkpt>
   <trkpt lat="-3.1831240" lon="37.3571220">
    <ele>2441.0</ele>
    <time>2026-06-24T06:41:36Z</time>
   </trkpt>
   <trkpt lat="-3.1831270" lon="37.3571180">
    <ele>2440.9</ele>
    <time>2026-06-24T06:41:37Z</time>
   </trkpt>
   <trkpt lat="-3.1831280" lon="37.3571180">
    <ele>2440.8</ele>
    <time>2026-06-24T06:41:38Z</time>
   </trkpt>
   <trkpt lat="-3.1831330" lon="37.3571180">
    <ele>2440.7</ele>
    <time>2026-06-24T06:41:39Z</time>
   </trkpt>
   <trkpt lat="-3.1831380" lon="37.3571180">
    <ele>2440.6</ele>
    <time>2026-06-24T06:41:40Z</time>
   </trkpt>
   <trkpt lat="-3.1831480" lon="37.3571160">
    <ele>2440.4</ele>
    <time>2026-06-24T06:41:41Z</time>
   </trkpt>
   <trkpt lat="-3.1831530" lon="37.3571160">
    <ele>2440.3</ele>
    <time>2026-06-24T06:41:42Z</time>
   </trkpt>
   <trkpt lat="-3.1831590" lon="37.3571180">
    <ele>2440.2</ele>
    <time>2026-06-24T06:41:43Z</time>
   </trkpt>
   <trkpt lat="-3.1831650" lon="37.3571210">
    <ele>2440.0</ele>
    <time>2026-06-24T06:41:44Z</time>
   </trkpt>
   <trkpt lat="-3.1831690" lon="37.3571260">
    <ele>2439.9</ele>
    <time>2026-06-24T06:41:45Z</time>
   </trkpt>
   <trkpt lat="-3.1831700" lon="37.3571250">
    <ele>2439.9</ele>
    <time>2026-06-24T06:41:46Z</time>
   </trkpt>
   <trkpt lat="-3.1831720" lon="37.3571270">
    <ele>2439.8</ele>
    <time>2026-06-24T06:41:47Z</time>
   </trkpt>
   <trkpt lat="-3.1831770" lon="37.3571260">
    <ele>2439.7</ele>
    <time>2026-06-24T06:41:48Z</time>
   </trkpt>
   <trkpt lat="-3.1831840" lon="37.3571250">
    <ele>2439.6</ele>
    <time>2026-06-24T06:41:49Z</time>
   </trkpt>
   <trkpt lat="-3.1831850" lon="37.3571270">
    <ele>2439.5</ele>
    <time>2026-06-24T06:41:50Z</time>
   </trkpt>
   <trkpt lat="-3.1831870" lon="37.3571250">
    <ele>2439.5</ele>
    <time>2026-06-24T06:41:51Z</time>
   </trkpt>
   <trkpt lat="-3.1831910" lon="37.3571200">
    <ele>2439.4</ele>
    <time>2026-06-24T06:41:52Z</time>
   </trkpt>
   <trkpt lat="-3.1831910" lon="37.3571170">
    <ele>2439.3</ele>
    <time>2026-06-24T06:41:53Z</time>
   </trkpt>
   <trkpt lat="-3.1831960" lon="37.3571130">
    <ele>2439.2</ele>
    <time>2026-06-24T06:41:54Z</time>
   </trkpt>
   <trkpt lat="-3.1832060" lon="37.3571160">
    <ele>2439.0</ele>
    <time>2026-06-24T06:41:55Z</time>
   </trkpt>
   <trkpt lat="-3.1832130" lon="37.3571160">
    <ele>2438.9</ele>
    <time>2026-06-24T06:41:56Z</time>
   </trkpt>
   <trkpt lat="-3.1832130" lon="37.3571220">
    <ele>2438.7</ele>
    <time>2026-06-24T06:41:57Z</time>
   </trkpt>
   <trkpt lat="-3.1832110" lon="37.3571250">
    <ele>2438.7</ele>
    <time>2026-06-24T06:41:58Z</time>
   </trkpt>
   <trkpt lat="-3.1832140" lon="37.3571240">
    <ele>2438.6</ele>
    <time>2026-06-24T06:41:59Z</time>
   </trkpt>
   <trkpt lat="-3.1832220" lon="37.3571230">
    <ele>2438.5</ele>
    <time>2026-06-24T06:42:00Z</time>
   </trkpt>
   <trkpt lat="-3.1832260" lon="37.3571240">
    <ele>2438.4</ele>
    <time>2026-06-24T06:42:01Z</time>
   </trkpt>
   <trkpt lat="-3.1832340" lon="37.3571250">
    <ele>2438.3</ele>
    <time>2026-06-24T06:42:02Z</time>
   </trkpt>
   <trkpt lat="-3.1832380" lon="37.3571300">
    <ele>2438.2</ele>
    <time>2026-06-24T06:42:03Z</time>
   </trkpt>
   <trkpt lat="-3.1832410" lon="37.3571310">
    <ele>2438.1</ele>
    <time>2026-06-24T06:42:04Z</time>
   </trkpt>
   <trkpt lat="-3.1832430" lon="37.3571280">
    <ele>2438.0</ele>
    <time>2026-06-24T06:42:05Z</time>
   </trkpt>
   <trkpt lat="-3.1832470" lon="37.3571300">
    <ele>2438.0</ele>
    <time>2026-06-24T06:42:06Z</time>
   </trkpt>
   <trkpt lat="-3.1832590" lon="37.3571320">
    <ele>2437.7</ele>
    <time>2026-06-24T06:42:07Z</time>
   </trkpt>
   <trkpt lat="-3.1832720" lon="37.3571270">
    <ele>2437.5</ele>
    <time>2026-06-24T06:42:08Z</time>
   </trkpt>
   <trkpt lat="-3.1832750" lon="37.3571310">
    <ele>2437.4</ele>
    <time>2026-06-24T06:42:09Z</time>
   </trkpt>
   <trkpt lat="-3.1832730" lon="37.3571350">
    <ele>2437.3</ele>
    <time>2026-06-24T06:42:10Z</time>
   </trkpt>
   <trkpt lat="-3.1832730" lon="37.3571380">
    <ele>2437.3</ele>
    <time>2026-06-24T06:42:11Z</time>
   </trkpt>
   <trkpt lat="-3.1832750" lon="37.3571360">
    <ele>2437.2</ele>
    <time>2026-06-24T06:42:12Z</time>
   </trkpt>
   <trkpt lat="-3.1832770" lon="37.3571360">
    <ele>2437.2</ele>
    <time>2026-06-24T06:42:13Z</time>
   </trkpt>
   <trkpt lat="-3.1832810" lon="37.3571340">
    <ele>2437.1</ele>
    <time>2026-06-24T06:42:14Z</time>
   </trkpt>
   <trkpt lat="-3.1832820" lon="37.3571340">
    <ele>2437.1</ele>
    <time>2026-06-24T06:42:15Z</time>
   </trkpt>
   <trkpt lat="-3.1832890" lon="37.3571340">
    <ele>2437.0</ele>
    <time>2026-06-24T06:42:16Z</time>
   </trkpt>
   <trkpt lat="-3.1832970" lon="37.3571320">
    <ele>2436.8</ele>
    <time>2026-06-24T06:42:17Z</time>
   </trkpt>
   <trkpt lat="-3.1833060" lon="37.3571360">
    <ele>2436.7</ele>
    <time>2026-06-24T06:42:18Z</time>
   </trkpt>
   <trkpt lat="-3.1833070" lon="37.3571350">
    <ele>2436.7</ele>
    <time>2026-06-24T06:42:19Z</time>
   </trkpt>
   <trkpt lat="-3.1833190" lon="37.3571290">
    <ele>2436.4</ele>
    <time>2026-06-24T06:42:20Z</time>
   </trkpt>
   <trkpt lat="-3.1833170" lon="37.3571340">
    <ele>2436.4</ele>
    <time>2026-06-24T06:42:21Z</time>
   </trkpt>
   <trkpt lat="-3.1833200" lon="37.3571330">
    <ele>2436.3</ele>
    <time>2026-06-24T06:42:22Z</time>
   </trkpt>
   <trkpt lat="-3.1833260" lon="37.3571330">
    <ele>2436.2</ele>
    <time>2026-06-24T06:42:23Z</time>
   </trkpt>
   <trkpt lat="-3.1833320" lon="37.3571270">
    <ele>2436.1</ele>
    <time>2026-06-24T06:42:24Z</time>
   </trkpt>
   <trkpt lat="-3.1833350" lon="37.3571290">
    <ele>2436.0</ele>
    <time>2026-06-24T06:42:25Z</time>
   </trkpt>
   <trkpt lat="-3.1833380" lon="37.3571310">
    <ele>2436.0</ele>
    <time>2026-06-24T06:42:26Z</time>
   </trkpt>
   <trkpt lat="-3.1833440" lon="37.3571280">
    <ele>2435.8</ele>
    <time>2026-06-24T06:42:27Z</time>
   </trkpt>
   <trkpt lat="-3.1833460" lon="37.3571300">
    <ele>2435.8</ele>
    <time>2026-06-24T06:42:28Z</time>
   </trkpt>
   <trkpt lat="-3.1833490" lon="37.3571280">
    <ele>2435.7</ele>
    <time>2026-06-24T06:42:29Z</time>
   </trkpt>
   <trkpt lat="-3.1833540" lon="37.3571260">
    <ele>2435.7</ele>
    <time>2026-06-24T06:42:30Z</time>
   </trkpt>
   <trkpt lat="-3.1833570" lon="37.3571260">
    <ele>2435.6</ele>
    <time>2026-06-24T06:42:31Z</time>
   </trkpt>
   <trkpt lat="-3.1833580" lon="37.3571330">
    <ele>2435.5</ele>
    <time>2026-06-24T06:42:32Z</time>
   </trkpt>
   <trkpt lat="-3.1833640" lon="37.3571290">
    <ele>2435.4</ele>
    <time>2026-06-24T06:42:33Z</time>
   </trkpt>
   <trkpt lat="-3.1833740" lon="37.3571270">
    <ele>2435.2</ele>
    <time>2026-06-24T06:42:34Z</time>
   </trkpt>
   <trkpt lat="-3.1833830" lon="37.3571240">
    <ele>2435.1</ele>
    <time>2026-06-24T06:42:35Z</time>
   </trkpt>
   <trkpt lat="-3.1833910" lon="37.3571210">
    <ele>2434.9</ele>
    <time>2026-06-24T06:42:36Z</time>
   </trkpt>
   <trkpt lat="-3.1833950" lon="37.3571250">
    <ele>2434.8</ele>
    <time>2026-06-24T06:42:37Z</time>
   </trkpt>
   <trkpt lat="-3.1834010" lon="37.3571200">
    <ele>2434.7</ele>
    <time>2026-06-24T06:42:38Z</time>
   </trkpt>
   <trkpt lat="-3.1834100" lon="37.3571170">
    <ele>2434.6</ele>
    <time>2026-06-24T06:42:39Z</time>
   </trkpt>
   <trkpt lat="-3.1834100" lon="37.3571190">
    <ele>2434.6</ele>
    <time>2026-06-24T06:42:40Z</time>
   </trkpt>
   <trkpt lat="-3.1834070" lon="37.3571210">
    <ele>2434.5</ele>
    <time>2026-06-24T06:42:41Z</time>
   </trkpt>
   <trkpt lat="-3.1834200" lon="37.3571230">
    <ele>2434.3</ele>
    <time>2026-06-24T06:42:42Z</time>
   </trkpt>
   <trkpt lat="-3.1834220" lon="37.3571230">
    <ele>2434.3</ele>
    <time>2026-06-24T06:42:43Z</time>
   </trkpt>
   <trkpt lat="-3.1834330" lon="37.3571280">
    <ele>2434.1</ele>
    <time>2026-06-24T06:42:44Z</time>
   </trkpt>
   <trkpt lat="-3.1834430" lon="37.3571300">
    <ele>2434.0</ele>
    <time>2026-06-24T06:42:45Z</time>
   </trkpt>
   <trkpt lat="-3.1834470" lon="37.3571360">
    <ele>2433.8</ele>
    <time>2026-06-24T06:42:46Z</time>
   </trkpt>
   <trkpt lat="-3.1834500" lon="37.3571390">
    <ele>2433.8</ele>
    <time>2026-06-24T06:42:47Z</time>
   </trkpt>
   <trkpt lat="-3.1834580" lon="37.3571450">
    <ele>2433.6</ele>
    <time>2026-06-24T06:42:48Z</time>
   </trkpt>
   <trkpt lat="-3.1834680" lon="37.3571460">
    <ele>2433.5</ele>
    <time>2026-06-24T06:42:49Z</time>
   </trkpt>
   <trkpt lat="-3.1834770" lon="37.3571510">
    <ele>2433.4</ele>
    <time>2026-06-24T06:42:50Z</time>
   </trkpt>
   <trkpt lat="-3.1834860" lon="37.3571490">
    <ele>2433.2</ele>
    <time>2026-06-24T06:42:51Z</time>
   </trkpt>
   <trkpt lat="-3.1834900" lon="37.3571460">
    <ele>2433.1</ele>
    <time>2026-06-24T06:42:52Z</time>
   </trkpt>
   <trkpt lat="-3.1835010" lon="37.3571450">
    <ele>2433.0</ele>
    <time>2026-06-24T06:42:53Z</time>
   </trkpt>
   <trkpt lat="-3.1835040" lon="37.3571480">
    <ele>2432.9</ele>
    <time>2026-06-24T06:42:54Z</time>
   </trkpt>
   <trkpt lat="-3.1835070" lon="37.3571470">
    <ele>2432.9</ele>
    <time>2026-06-24T06:42:55Z</time>
   </trkpt>
   <trkpt lat="-3.1835100" lon="37.3571420">
    <ele>2432.8</ele>
    <time>2026-06-24T06:42:56Z</time>
   </trkpt>
   <trkpt lat="-3.1835200" lon="37.3571400">
    <ele>2432.7</ele>
    <time>2026-06-24T06:42:57Z</time>
   </trkpt>
   <trkpt lat="-3.1835250" lon="37.3571340">
    <ele>2432.5</ele>
    <time>2026-06-24T06:42:58Z</time>
   </trkpt>
   <trkpt lat="-3.1835320" lon="37.3571390">
    <ele>2432.4</ele>
    <time>2026-06-24T06:42:59Z</time>
   </trkpt>
   <trkpt lat="-3.1835390" lon="37.3571440">
    <ele>2432.3</ele>
    <time>2026-06-24T06:43:00Z</time>
   </trkpt>
   <trkpt lat="-3.1835470" lon="37.3571410">
    <ele>2432.2</ele>
    <time>2026-06-24T06:43:01Z</time>
   </trkpt>
   <trkpt lat="-3.1835550" lon="37.3571390">
    <ele>2432.1</ele>
    <time>2026-06-24T06:43:02Z</time>
   </trkpt>
   <trkpt lat="-3.1835630" lon="37.3571400">
    <ele>2432.0</ele>
    <time>2026-06-24T06:43:03Z</time>
   </trkpt>
   <trkpt lat="-3.1835660" lon="37.3571360">
    <ele>2431.9</ele>
    <time>2026-06-24T06:43:04Z</time>
   </trkpt>
   <trkpt lat="-3.1835660" lon="37.3571340">
    <ele>2431.9</ele>
    <time>2026-06-24T06:43:05Z</time>
   </trkpt>
   <trkpt lat="-3.1835760" lon="37.3571280">
    <ele>2431.7</ele>
    <time>2026-06-24T06:43:06Z</time>
   </trkpt>
   <trkpt lat="-3.1835830" lon="37.3571220">
    <ele>2431.6</ele>
    <time>2026-06-24T06:43:07Z</time>
   </trkpt>
   <trkpt lat="-3.1835740" lon="37.3571240">
    <ele>2431.5</ele>
    <time>2026-06-24T06:43:08Z</time>
   </trkpt>
   <trkpt lat="-3.1835800" lon="37.3571330">
    <ele>2431.3</ele>
    <time>2026-06-24T06:43:09Z</time>
   </trkpt>
   <trkpt lat="-3.1835830" lon="37.3571330">
    <ele>2431.3</ele>
    <time>2026-06-24T06:43:10Z</time>
   </trkpt>
   <trkpt lat="-3.1835800" lon="37.3571300">
    <ele>2431.2</ele>
    <time>2026-06-24T06:43:11Z</time>
   </trkpt>
   <trkpt lat="-3.1835810" lon="37.3571320">
    <ele>2431.2</ele>
    <time>2026-06-24T06:43:12Z</time>
   </trkpt>
   <trkpt lat="-3.1835860" lon="37.3571290">
    <ele>2431.1</ele>
    <time>2026-06-24T06:43:13Z</time>
   </trkpt>
   <trkpt lat="-3.1835920" lon="37.3571310">
    <ele>2431.0</ele>
    <time>2026-06-24T06:43:14Z</time>
   </trkpt>
   <trkpt lat="-3.1836050" lon="37.3571190">
    <ele>2430.8</ele>
    <time>2026-06-24T06:43:15Z</time>
   </trkpt>
   <trkpt lat="-3.1836090" lon="37.3571230">
    <ele>2430.7</ele>
    <time>2026-06-24T06:43:16Z</time>
   </trkpt>
   <trkpt lat="-3.1836180" lon="37.3571250">
    <ele>2430.6</ele>
    <time>2026-06-24T06:43:17Z</time>
   </trkpt>
   <trkpt lat="-3.1836270" lon="37.3571140">
    <ele>2430.4</ele>
    <time>2026-06-24T06:43:18Z</time>
   </trkpt>
   <trkpt lat="-3.1836360" lon="37.3571070">
    <ele>2430.3</ele>
    <time>2026-06-24T06:43:19Z</time>
   </trkpt>
   <trkpt lat="-3.1836400" lon="37.3571040">
    <ele>2430.2</ele>
    <time>2026-06-24T06:43:20Z</time>
   </trkpt>
   <trkpt lat="-3.1836500" lon="37.3571160">
    <ele>2430.0</ele>
    <time>2026-06-24T06:43:21Z</time>
   </trkpt>
   <trkpt lat="-3.1836560" lon="37.3571080">
    <ele>2429.9</ele>
    <time>2026-06-24T06:43:22Z</time>
   </trkpt>
   <trkpt lat="-3.1836680" lon="37.3570980">
    <ele>2429.7</ele>
    <time>2026-06-24T06:43:23Z</time>
   </trkpt>
   <trkpt lat="-3.1836740" lon="37.3570970">
    <ele>2429.6</ele>
    <time>2026-06-24T06:43:24Z</time>
   </trkpt>
   <trkpt lat="-3.1836760" lon="37.3571000">
    <ele>2429.6</ele>
    <time>2026-06-24T06:43:25Z</time>
   </trkpt>
   <trkpt lat="-3.1836780" lon="37.3571010">
    <ele>2429.5</ele>
    <time>2026-06-24T06:43:26Z</time>
   </trkpt>
   <trkpt lat="-3.1836830" lon="37.3570970">
    <ele>2429.5</ele>
    <time>2026-06-24T06:43:27Z</time>
   </trkpt>
   <trkpt lat="-3.1836950" lon="37.3570960">
    <ele>2429.3</ele>
    <time>2026-06-24T06:43:28Z</time>
   </trkpt>
   <trkpt lat="-3.1836970" lon="37.3570930">
    <ele>2429.3</ele>
    <time>2026-06-24T06:43:29Z</time>
   </trkpt>
   <trkpt lat="-3.1837020" lon="37.3570890">
    <ele>2429.2</ele>
    <time>2026-06-24T06:43:30Z</time>
   </trkpt>
   <trkpt lat="-3.1837060" lon="37.3570910">
    <ele>2429.1</ele>
    <time>2026-06-24T06:43:31Z</time>
   </trkpt>
   <trkpt lat="-3.1837060" lon="37.3570910">
    <ele>2429.1</ele>
    <time>2026-06-24T06:43:32Z</time>
   </trkpt>
   <trkpt lat="-3.1837100" lon="37.3570860">
    <ele>2429.1</ele>
    <time>2026-06-24T06:43:33Z</time>
   </trkpt>
   <trkpt lat="-3.1837180" lon="37.3570830">
    <ele>2429.0</ele>
    <time>2026-06-24T06:43:34Z</time>
   </trkpt>
   <trkpt lat="-3.1837280" lon="37.3570750">
    <ele>2428.8</ele>
    <time>2026-06-24T06:43:35Z</time>
   </trkpt>
   <trkpt lat="-3.1837360" lon="37.3570650">
    <ele>2428.6</ele>
    <time>2026-06-24T06:43:36Z</time>
   </trkpt>
   <trkpt lat="-3.1837400" lon="37.3570610">
    <ele>2428.6</ele>
    <time>2026-06-24T06:43:37Z</time>
   </trkpt>
   <trkpt lat="-3.1837420" lon="37.3570620">
    <ele>2428.6</ele>
    <time>2026-06-24T06:43:38Z</time>
   </trkpt>
   <trkpt lat="-3.1837490" lon="37.3570560">
    <ele>2428.4</ele>
    <time>2026-06-24T06:43:39Z</time>
   </trkpt>
   <trkpt lat="-3.1837590" lon="37.3570480">
    <ele>2428.3</ele>
    <time>2026-06-24T06:43:40Z</time>
   </trkpt>
   <trkpt lat="-3.1837550" lon="37.3570380">
    <ele>2428.2</ele>
    <time>2026-06-24T06:43:41Z</time>
   </trkpt>
   <trkpt lat="-3.1837550" lon="37.3570310">
    <ele>2428.1</ele>
    <time>2026-06-24T06:43:42Z</time>
   </trkpt>
   <trkpt lat="-3.1837590" lon="37.3570290">
    <ele>2428.0</ele>
    <time>2026-06-24T06:43:43Z</time>
   </trkpt>
   <trkpt lat="-3.1837590" lon="37.3570260">
    <ele>2428.0</ele>
    <time>2026-06-24T06:43:44Z</time>
   </trkpt>
   <trkpt lat="-3.1837660" lon="37.3570210">
    <ele>2427.9</ele>
    <time>2026-06-24T06:43:45Z</time>
   </trkpt>
   <trkpt lat="-3.1837670" lon="37.3570210">
    <ele>2427.9</ele>
    <time>2026-06-24T06:43:46Z</time>
   </trkpt>
   <trkpt lat="-3.1837690" lon="37.3570220">
    <ele>2427.9</ele>
    <time>2026-06-24T06:43:47Z</time>
   </trkpt>
   <trkpt lat="-3.1837740" lon="37.3570220">
    <ele>2427.8</ele>
    <time>2026-06-24T06:43:48Z</time>
   </trkpt>
   <trkpt lat="-3.1837750" lon="37.3570230">
    <ele>2427.8</ele>
    <time>2026-06-24T06:43:49Z</time>
   </trkpt>
   <trkpt lat="-3.1837750" lon="37.3570220">
    <ele>2427.8</ele>
    <time>2026-06-24T06:43:50Z</time>
   </trkpt>
   <trkpt lat="-3.1837780" lon="37.3570160">
    <ele>2427.7</ele>
    <time>2026-06-24T06:43:51Z</time>
   </trkpt>
   <trkpt lat="-3.1837770" lon="37.3570170">
    <ele>2427.7</ele>
    <time>2026-06-24T06:43:52Z</time>
   </trkpt>
   <trkpt lat="-3.1837830" lon="37.3570160">
    <ele>2427.6</ele>
    <time>2026-06-24T06:43:53Z</time>
   </trkpt>
   <trkpt lat="-3.1837850" lon="37.3570170">
    <ele>2427.6</ele>
    <time>2026-06-24T06:43:54Z</time>
   </trkpt>
   <trkpt lat="-3.1837850" lon="37.3570210">
    <ele>2427.6</ele>
    <time>2026-06-24T06:43:55Z</time>
   </trkpt>
   <trkpt lat="-3.1837860" lon="37.3570220">
    <ele>2427.5</ele>
    <time>2026-06-24T06:43:56Z</time>
   </trkpt>
   <trkpt lat="-3.1837860" lon="37.3570220">
    <ele>2427.5</ele>
    <time>2026-06-24T06:43:57Z</time>
   </trkpt>
   <trkpt lat="-3.1837880" lon="37.3570180">
    <ele>2427.5</ele>
    <time>2026-06-24T06:43:58Z</time>
   </trkpt>
   <trkpt lat="-3.1837940" lon="37.3570170">
    <ele>2427.4</ele>
    <time>2026-06-24T06:43:59Z</time>
   </trkpt>
   <trkpt lat="-3.1837980" lon="37.3570140">
    <ele>2427.4</ele>
    <time>2026-06-24T06:44:00Z</time>
   </trkpt>
   <trkpt lat="-3.1838080" lon="37.3570080">
    <ele>2427.2</ele>
    <time>2026-06-24T06:44:01Z</time>
   </trkpt>
   <trkpt lat="-3.1838110" lon="37.3570010">
    <ele>2427.1</ele>
    <time>2026-06-24T06:44:02Z</time>
   </trkpt>
   <trkpt lat="-3.1838160" lon="37.3569960">
    <ele>2427.1</ele>
    <time>2026-06-24T06:44:03Z</time>
   </trkpt>
   <trkpt lat="-3.1838180" lon="37.3569940">
    <ele>2427.0</ele>
    <time>2026-06-24T06:44:04Z</time>
   </trkpt>
   <trkpt lat="-3.1838170" lon="37.3569910">
    <ele>2427.0</ele>
    <time>2026-06-24T06:44:05Z</time>
   </trkpt>
   <trkpt lat="-3.1838140" lon="37.3569850">
    <ele>2426.9</ele>
    <time>2026-06-24T06:44:06Z</time>
   </trkpt>
   <trkpt lat="-3.1838210" lon="37.3569810">
    <ele>2426.8</ele>
    <time>2026-06-24T06:44:07Z</time>
   </trkpt>
   <trkpt lat="-3.1838190" lon="37.3569820">
    <ele>2426.8</ele>
    <time>2026-06-24T06:44:08Z</time>
   </trkpt>
   <trkpt lat="-3.1838160" lon="37.3569860">
    <ele>2426.8</ele>
    <time>2026-06-24T06:44:09Z</time>
   </trkpt>
   <trkpt lat="-3.1838170" lon="37.3569860">
    <ele>2426.7</ele>
    <time>2026-06-24T06:44:10Z</time>
   </trkpt>
   <trkpt lat="-3.1838180" lon="37.3569880">
    <ele>2426.7</ele>
    <time>2026-06-24T06:44:11Z</time>
   </trkpt>
   <trkpt lat="-3.1838220" lon="37.3569860">
    <ele>2426.7</ele>
    <time>2026-06-24T06:44:12Z</time>
   </trkpt>
   <trkpt lat="-3.1838270" lon="37.3569840">
    <ele>2426.6</ele>
    <time>2026-06-24T06:44:13Z</time>
   </trkpt>
   <trkpt lat="-3.1838310" lon="37.3569830">
    <ele>2426.6</ele>
    <time>2026-06-24T06:44:14Z</time>
   </trkpt>
   <trkpt lat="-3.1838410" lon="37.3569760">
    <ele>2426.4</ele>
    <time>2026-06-24T06:44:15Z</time>
   </trkpt>
   <trkpt lat="-3.1838470" lon="37.3569730">
    <ele>2426.4</ele>
    <time>2026-06-24T06:44:16Z</time>
   </trkpt>
   <trkpt lat="-3.1838490" lon="37.3569710">
    <ele>2426.3</ele>
    <time>2026-06-24T06:44:17Z</time>
   </trkpt>
   <trkpt lat="-3.1838530" lon="37.3569700">
    <ele>2426.3</ele>
    <time>2026-06-24T06:44:18Z</time>
   </trkpt>
   <trkpt lat="-3.1838520" lon="37.3569700">
    <ele>2426.3</ele>
    <time>2026-06-24T06:44:19Z</time>
   </trkpt>
   <trkpt lat="-3.1838530" lon="37.3569670">
    <ele>2426.2</ele>
    <time>2026-06-24T06:44:20Z</time>
   </trkpt>
   <trkpt lat="-3.1838550" lon="37.3569640">
    <ele>2426.2</ele>
    <time>2026-06-24T06:44:21Z</time>
   </trkpt>
   <trkpt lat="-3.1838590" lon="37.3569610">
    <ele>2426.1</ele>
    <time>2026-06-24T06:44:22Z</time>
   </trkpt>
   <trkpt lat="-3.1838670" lon="37.3569560">
    <ele>2426.0</ele>
    <time>2026-06-24T06:44:23Z</time>
   </trkpt>
   <trkpt lat="-3.1838700" lon="37.3569570">
    <ele>2426.0</ele>
    <time>2026-06-24T06:44:24Z</time>
   </trkpt>
   <trkpt lat="-3.1838810" lon="37.3569460">
    <ele>2425.8</ele>
    <time>2026-06-24T06:44:25Z</time>
   </trkpt>
   <trkpt lat="-3.1838890" lon="37.3569380">
    <ele>2425.7</ele>
    <time>2026-06-24T06:44:26Z</time>
   </trkpt>
   <trkpt lat="-3.1838930" lon="37.3569350">
    <ele>2425.6</ele>
    <time>2026-06-24T06:44:27Z</time>
   </trkpt>
   <trkpt lat="-3.1838990" lon="37.3569320">
    <ele>2425.6</ele>
    <time>2026-06-24T06:44:28Z</time>
   </trkpt>
   <trkpt lat="-3.1839050" lon="37.3569290">
    <ele>2425.5</ele>
    <time>2026-06-24T06:44:29Z</time>
   </trkpt>
   <trkpt lat="-3.1839110" lon="37.3569210">
    <ele>2425.4</ele>
    <time>2026-06-24T06:44:30Z</time>
   </trkpt>
   <trkpt lat="-3.1839160" lon="37.3569160">
    <ele>2425.3</ele>
    <time>2026-06-24T06:44:31Z</time>
   </trkpt>
   <trkpt lat="-3.1839240" lon="37.3569120">
    <ele>2425.2</ele>
    <time>2026-06-24T06:44:32Z</time>
   </trkpt>
   <trkpt lat="-3.1839300" lon="37.3569080">
    <ele>2425.1</ele>
    <time>2026-06-24T06:44:33Z</time>
   </trkpt>
   <trkpt lat="-3.1839370" lon="37.3569040">
    <ele>2425.0</ele>
    <time>2026-06-24T06:44:34Z</time>
   </trkpt>
   <trkpt lat="-3.1839450" lon="37.3568940">
    <ele>2424.9</ele>
    <time>2026-06-24T06:44:35Z</time>
   </trkpt>
   <trkpt lat="-3.1839580" lon="37.3568840">
    <ele>2424.7</ele>
    <time>2026-06-24T06:44:36Z</time>
   </trkpt>
   <trkpt lat="-3.1839590" lon="37.3568800">
    <ele>2424.7</ele>
    <time>2026-06-24T06:44:37Z</time>
   </trkpt>
   <trkpt lat="-3.1839660" lon="37.3568690">
    <ele>2424.5</ele>
    <time>2026-06-24T06:44:38Z</time>
   </trkpt>
   <trkpt lat="-3.1839710" lon="37.3568620">
    <ele>2424.4</ele>
    <time>2026-06-24T06:44:39Z</time>
   </trkpt>
   <trkpt lat="-3.1839740" lon="37.3568560">
    <ele>2424.3</ele>
    <time>2026-06-24T06:44:40Z</time>
   </trkpt>
   <trkpt lat="-3.1839810" lon="37.3568480">
    <ele>2424.2</ele>
    <time>2026-06-24T06:44:41Z</time>
   </trkpt>
   <trkpt lat="-3.1839860" lon="37.3568360">
    <ele>2424.1</ele>
    <time>2026-06-24T06:44:42Z</time>
   </trkpt>
   <trkpt lat="-3.1839930" lon="37.3568290">
    <ele>2424.0</ele>
    <time>2026-06-24T06:44:43Z</time>
   </trkpt>
   <trkpt lat="-3.1839970" lon="37.3568210">
    <ele>2423.9</ele>
    <time>2026-06-24T06:44:44Z</time>
   </trkpt>
   <trkpt lat="-3.1839990" lon="37.3568140">
    <ele>2423.8</ele>
    <time>2026-06-24T06:44:45Z</time>
   </trkpt>
   <trkpt lat="-3.1840020" lon="37.3568090">
    <ele>2423.7</ele>
    <time>2026-06-24T06:44:46Z</time>
   </trkpt>
   <trkpt lat="-3.1840060" lon="37.3568030">
    <ele>2423.6</ele>
    <time>2026-06-24T06:44:47Z</time>
   </trkpt>
   <trkpt lat="-3.1840130" lon="37.3567980">
    <ele>2423.5</ele>
    <time>2026-06-24T06:44:48Z</time>
   </trkpt>
   <trkpt lat="-3.1840180" lon="37.3567900">
    <ele>2423.4</ele>
    <time>2026-06-24T06:44:49Z</time>
   </trkpt>
   <trkpt lat="-3.1840270" lon="37.3567870">
    <ele>2423.3</ele>
    <time>2026-06-24T06:44:50Z</time>
   </trkpt>
   <trkpt lat="-3.1840390" lon="37.3567810">
    <ele>2423.2</ele>
    <time>2026-06-24T06:44:51Z</time>
   </trkpt>
   <trkpt lat="-3.1840430" lon="37.3567820">
    <ele>2423.1</ele>
    <time>2026-06-24T06:44:52Z</time>
   </trkpt>
   <trkpt lat="-3.1840470" lon="37.3567770">
    <ele>2423.0</ele>
    <time>2026-06-24T06:44:53Z</time>
   </trkpt>
   <trkpt lat="-3.1840520" lon="37.3567790">
    <ele>2423.0</ele>
    <time>2026-06-24T06:44:54Z</time>
   </trkpt>
   <trkpt lat="-3.1840580" lon="37.3567750">
    <ele>2422.9</ele>
    <time>2026-06-24T06:44:55Z</time>
   </trkpt>
   <trkpt lat="-3.1840630" lon="37.3567760">
    <ele>2422.8</ele>
    <time>2026-06-24T06:44:56Z</time>
   </trkpt>
   <trkpt lat="-3.1840640" lon="37.3567730">
    <ele>2422.8</ele>
    <time>2026-06-24T06:44:57Z</time>
   </trkpt>
   <trkpt lat="-3.1840640" lon="37.3567660">
    <ele>2422.7</ele>
    <time>2026-06-24T06:44:58Z</time>
   </trkpt>
   <trkpt lat="-3.1840640" lon="37.3567600">
    <ele>2422.6</ele>
    <time>2026-06-24T06:44:59Z</time>
   </trkpt>
   <trkpt lat="-3.1840670" lon="37.3567540">
    <ele>2422.5</ele>
    <time>2026-06-24T06:45:00Z</time>
   </trkpt>
   <trkpt lat="-3.1840750" lon="37.3567520">
    <ele>2422.4</ele>
    <time>2026-06-24T06:45:01Z</time>
   </trkpt>
   <trkpt lat="-3.1840890" lon="37.3567540">
    <ele>2422.2</ele>
    <time>2026-06-24T06:45:02Z</time>
   </trkpt>
   <trkpt lat="-3.1840890" lon="37.3567540">
    <ele>2422.2</ele>
    <time>2026-06-24T06:45:03Z</time>
   </trkpt>
   <trkpt lat="-3.1840920" lon="37.3567410">
    <ele>2422.0</ele>
    <time>2026-06-24T06:45:04Z</time>
   </trkpt>
   <trkpt lat="-3.1840980" lon="37.3567260">
    <ele>2421.8</ele>
    <time>2026-06-24T06:45:05Z</time>
   </trkpt>
   <trkpt lat="-3.1840990" lon="37.3567170">
    <ele>2421.6</ele>
    <time>2026-06-24T06:45:06Z</time>
   </trkpt>
   <trkpt lat="-3.1841030" lon="37.3567110">
    <ele>2421.5</ele>
    <time>2026-06-24T06:45:07Z</time>
   </trkpt>
   <trkpt lat="-3.1841050" lon="37.3567080">
    <ele>2421.5</ele>
    <time>2026-06-24T06:45:08Z</time>
   </trkpt>
   <trkpt lat="-3.1841090" lon="37.3567020">
    <ele>2421.3</ele>
    <time>2026-06-24T06:45:09Z</time>
   </trkpt>
   <trkpt lat="-3.1841090" lon="37.3566950">
    <ele>2421.2</ele>
    <time>2026-06-24T06:45:10Z</time>
   </trkpt>
   <trkpt lat="-3.1841110" lon="37.3566880">
    <ele>2421.1</ele>
    <time>2026-06-24T06:45:11Z</time>
   </trkpt>
   <trkpt lat="-3.1841130" lon="37.3566800">
    <ele>2421.0</ele>
    <time>2026-06-24T06:45:12Z</time>
   </trkpt>
   <trkpt lat="-3.1841180" lon="37.3566710">
    <ele>2420.8</ele>
    <time>2026-06-24T06:45:13Z</time>
   </trkpt>
   <trkpt lat="-3.1841180" lon="37.3566660">
    <ele>2420.7</ele>
    <time>2026-06-24T06:45:14Z</time>
   </trkpt>
   <trkpt lat="-3.1841240" lon="37.3566600">
    <ele>2420.6</ele>
    <time>2026-06-24T06:45:15Z</time>
   </trkpt>
   <trkpt lat="-3.1841340" lon="37.3566480">
    <ele>2420.3</ele>
    <time>2026-06-24T06:45:16Z</time>
   </trkpt>
   <trkpt lat="-3.1841450" lon="37.3566330">
    <ele>2419.9</ele>
    <time>2026-06-24T06:45:17Z</time>
   </trkpt>
   <trkpt lat="-3.1841520" lon="37.3566210">
    <ele>2419.7</ele>
    <time>2026-06-24T06:45:18Z</time>
   </trkpt>
   <trkpt lat="-3.1841560" lon="37.3566120">
    <ele>2419.5</ele>
    <time>2026-06-24T06:45:19Z</time>
   </trkpt>
   <trkpt lat="-3.1841610" lon="37.3565980">
    <ele>2419.2</ele>
    <time>2026-06-24T06:45:20Z</time>
   </trkpt>
   <trkpt lat="-3.1841660" lon="37.3565940">
    <ele>2419.0</ele>
    <time>2026-06-24T06:45:21Z</time>
   </trkpt>
   <trkpt lat="-3.1841730" lon="37.3565890">
    <ele>2418.9</ele>
    <time>2026-06-24T06:45:22Z</time>
   </trkpt>
   <trkpt lat="-3.1841800" lon="37.3565830">
    <ele>2418.7</ele>
    <time>2026-06-24T06:45:23Z</time>
   </trkpt>
   <trkpt lat="-3.1841820" lon="37.3565850">
    <ele>2418.6</ele>
    <time>2026-06-24T06:45:24Z</time>
   </trkpt>
   <trkpt lat="-3.1841870" lon="37.3565740">
    <ele>2418.4</ele>
    <time>2026-06-24T06:45:25Z</time>
   </trkpt>
   <trkpt lat="-3.1841920" lon="37.3565660">
    <ele>2418.2</ele>
    <time>2026-06-24T06:45:26Z</time>
   </trkpt>
   <trkpt lat="-3.1841960" lon="37.3565600">
    <ele>2418.0</ele>
    <time>2026-06-24T06:45:27Z</time>
   </trkpt>
   <trkpt lat="-3.1842030" lon="37.3565470">
    <ele>2417.7</ele>
    <time>2026-06-24T06:45:28Z</time>
   </trkpt>
   <trkpt lat="-3.1842080" lon="37.3565410">
    <ele>2417.5</ele>
    <time>2026-06-24T06:45:29Z</time>
   </trkpt>
   <trkpt lat="-3.1842150" lon="37.3565390">
    <ele>2417.3</ele>
    <time>2026-06-24T06:45:30Z</time>
   </trkpt>
   <trkpt lat="-3.1842220" lon="37.3565350">
    <ele>2417.1</ele>
    <time>2026-06-24T06:45:31Z</time>
   </trkpt>
   <trkpt lat="-3.1842280" lon="37.3565280">
    <ele>2416.9</ele>
    <time>2026-06-24T06:45:32Z</time>
   </trkpt>
   <trkpt lat="-3.1842340" lon="37.3565260">
    <ele>2416.8</ele>
    <time>2026-06-24T06:45:33Z</time>
   </trkpt>
   <trkpt lat="-3.1842400" lon="37.3565230">
    <ele>2416.6</ele>
    <time>2026-06-24T06:45:34Z</time>
   </trkpt>
   <trkpt lat="-3.1842420" lon="37.3565210">
    <ele>2416.5</ele>
    <time>2026-06-24T06:45:35Z</time>
   </trkpt>
   <trkpt lat="-3.1842440" lon="37.3565210">
    <ele>2416.5</ele>
    <time>2026-06-24T06:45:36Z</time>
   </trkpt>
   <trkpt lat="-3.1842510" lon="37.3565160">
    <ele>2416.3</ele>
    <time>2026-06-24T06:45:37Z</time>
   </trkpt>
   <trkpt lat="-3.1842590" lon="37.3565110">
    <ele>2416.1</ele>
    <time>2026-06-24T06:45:38Z</time>
   </trkpt>
   <trkpt lat="-3.1842590" lon="37.3565130">
    <ele>2416.0</ele>
    <time>2026-06-24T06:45:39Z</time>
   </trkpt>
   <trkpt lat="-3.1842610" lon="37.3565110">
    <ele>2416.0</ele>
    <time>2026-06-24T06:45:40Z</time>
   </trkpt>
   <trkpt lat="-3.1842640" lon="37.3565080">
    <ele>2415.9</ele>
    <time>2026-06-24T06:45:41Z</time>
   </trkpt>
   <trkpt lat="-3.1842670" lon="37.3565040">
    <ele>2415.8</ele>
    <time>2026-06-24T06:45:42Z</time>
   </trkpt>
   <trkpt lat="-3.1842740" lon="37.3564970">
    <ele>2415.5</ele>
    <time>2026-06-24T06:45:43Z</time>
   </trkpt>
   <trkpt lat="-3.1842760" lon="37.3564940">
    <ele>2415.4</ele>
    <time>2026-06-24T06:45:44Z</time>
   </trkpt>
   <trkpt lat="-3.1842790" lon="37.3564910">
    <ele>2415.4</ele>
    <time>2026-06-24T06:45:45Z</time>
   </trkpt>
   <trkpt lat="-3.1842820" lon="37.3564920">
    <ele>2415.3</ele>
    <time>2026-06-24T06:45:46Z</time>
   </trkpt>
   <trkpt lat="-3.1842860" lon="37.3564900">
    <ele>2415.2</ele>
    <time>2026-06-24T06:45:47Z</time>
   </trkpt>
   <trkpt lat="-3.1842900" lon="37.3564930">
    <ele>2415.1</ele>
    <time>2026-06-24T06:45:48Z</time>
   </trkpt>
   <trkpt lat="-3.1842960" lon="37.3564960">
    <ele>2414.9</ele>
    <time>2026-06-24T06:45:49Z</time>
   </trkpt>
   <trkpt lat="-3.1843010" lon="37.3564900">
    <ele>2414.7</ele>
    <time>2026-06-24T06:45:50Z</time>
   </trkpt>
   <trkpt lat="-3.1843070" lon="37.3564910">
    <ele>2414.6</ele>
    <time>2026-06-24T06:45:51Z</time>
   </trkpt>
   <trkpt lat="-3.1843100" lon="37.3564910">
    <ele>2414.5</ele>
    <time>2026-06-24T06:45:52Z</time>
   </trkpt>
   <trkpt lat="-3.1843120" lon="37.3564910">
    <ele>2414.5</ele>
    <time>2026-06-24T06:45:53Z</time>
   </trkpt>
   <trkpt lat="-3.1843170" lon="37.3564930">
    <ele>2414.3</ele>
    <time>2026-06-24T06:45:54Z</time>
   </trkpt>
   <trkpt lat="-3.1843190" lon="37.3564940">
    <ele>2414.3</ele>
    <time>2026-06-24T06:45:55Z</time>
   </trkpt>
   <trkpt lat="-3.1843210" lon="37.3564980">
    <ele>2414.2</ele>
    <time>2026-06-24T06:45:56Z</time>
   </trkpt>
   <trkpt lat="-3.1843250" lon="37.3564990">
    <ele>2414.1</ele>
    <time>2026-06-24T06:45:57Z</time>
   </trkpt>
   <trkpt lat="-3.1843330" lon="37.3564960">
    <ele>2413.9</ele>
    <time>2026-06-24T06:45:58Z</time>
   </trkpt>
   <trkpt lat="-3.1843390" lon="37.3564950">
    <ele>2413.8</ele>
    <time>2026-06-24T06:45:59Z</time>
   </trkpt>
   <trkpt lat="-3.1843430" lon="37.3564910">
    <ele>2413.6</ele>
    <time>2026-06-24T06:46:00Z</time>
   </trkpt>
   <trkpt lat="-3.1843460" lon="37.3564870">
    <ele>2413.5</ele>
    <time>2026-06-24T06:46:01Z</time>
   </trkpt>
   <trkpt lat="-3.1843540" lon="37.3564800">
    <ele>2413.3</ele>
    <time>2026-06-24T06:46:02Z</time>
   </trkpt>
   <trkpt lat="-3.1843600" lon="37.3564800">
    <ele>2413.1</ele>
    <time>2026-06-24T06:46:03Z</time>
   </trkpt>
   <trkpt lat="-3.1843630" lon="37.3564770">
    <ele>2413.0</ele>
    <time>2026-06-24T06:46:04Z</time>
   </trkpt>
   <trkpt lat="-3.1843710" lon="37.3564740">
    <ele>2412.8</ele>
    <time>2026-06-24T06:46:05Z</time>
   </trkpt>
   <trkpt lat="-3.1843680" lon="37.3564740">
    <ele>2412.8</ele>
    <time>2026-06-24T06:46:06Z</time>
   </trkpt>
   <trkpt lat="-3.1843740" lon="37.3564770">
    <ele>2412.6</ele>
    <time>2026-06-24T06:46:07Z</time>
   </trkpt>
   <trkpt lat="-3.1843860" lon="37.3564780">
    <ele>2412.4</ele>
    <time>2026-06-24T06:46:08Z</time>
   </trkpt>
   <trkpt lat="-3.1843890" lon="37.3564790">
    <ele>2412.3</ele>
    <time>2026-06-24T06:46:09Z</time>
   </trkpt>
   <trkpt lat="-3.1843960" lon="37.3564780">
    <ele>2412.1</ele>
    <time>2026-06-24T06:46:10Z</time>
   </trkpt>
   <trkpt lat="-3.1844060" lon="37.3564750">
    <ele>2411.9</ele>
    <time>2026-06-24T06:46:11Z</time>
   </trkpt>
   <trkpt lat="-3.1844110" lon="37.3564770">
    <ele>2411.8</ele>
    <time>2026-06-24T06:46:12Z</time>
   </trkpt>
   <trkpt lat="-3.1844170" lon="37.3564780">
    <ele>2411.6</ele>
    <time>2026-06-24T06:46:13Z</time>
   </trkpt>
   <trkpt lat="-3.1844190" lon="37.3564750">
    <ele>2411.6</ele>
    <time>2026-06-24T06:46:14Z</time>
   </trkpt>
   <trkpt lat="-3.1844240" lon="37.3564730">
    <ele>2411.4</ele>
    <time>2026-06-24T06:46:15Z</time>
   </trkpt>
   <trkpt lat="-3.1844270" lon="37.3564700">
    <ele>2411.3</ele>
    <time>2026-06-24T06:46:16Z</time>
   </trkpt>
   <trkpt lat="-3.1844330" lon="37.3564710">
    <ele>2411.2</ele>
    <time>2026-06-24T06:46:17Z</time>
   </trkpt>
   <trkpt lat="-3.1844360" lon="37.3564670">
    <ele>2411.1</ele>
    <time>2026-06-24T06:46:18Z</time>
   </trkpt>
   <trkpt lat="-3.1844390" lon="37.3564600">
    <ele>2410.9</ele>
    <time>2026-06-24T06:46:19Z</time>
   </trkpt>
   <trkpt lat="-3.1844460" lon="37.3564560">
    <ele>2410.8</ele>
    <time>2026-06-24T06:46:20Z</time>
   </trkpt>
   <trkpt lat="-3.1844460" lon="37.3564460">
    <ele>2410.6</ele>
    <time>2026-06-24T06:46:21Z</time>
   </trkpt>
   <trkpt lat="-3.1844510" lon="37.3564440">
    <ele>2410.5</ele>
    <time>2026-06-24T06:46:22Z</time>
   </trkpt>
   <trkpt lat="-3.1844530" lon="37.3564370">
    <ele>2410.3</ele>
    <time>2026-06-24T06:46:23Z</time>
   </trkpt>
   <trkpt lat="-3.1844600" lon="37.3564330">
    <ele>2410.1</ele>
    <time>2026-06-24T06:46:24Z</time>
   </trkpt>
   <trkpt lat="-3.1844640" lon="37.3564280">
    <ele>2410.0</ele>
    <time>2026-06-24T06:46:25Z</time>
   </trkpt>
   <trkpt lat="-3.1844650" lon="37.3564290">
    <ele>2410.0</ele>
    <time>2026-06-24T06:46:26Z</time>
   </trkpt>
   <trkpt lat="-3.1844690" lon="37.3564230">
    <ele>2409.8</ele>
    <time>2026-06-24T06:46:27Z</time>
   </trkpt>
   <trkpt lat="-3.1844760" lon="37.3564180">
    <ele>2409.7</ele>
    <time>2026-06-24T06:46:28Z</time>
   </trkpt>
   <trkpt lat="-3.1844840" lon="37.3564100">
    <ele>2409.4</ele>
    <time>2026-06-24T06:46:29Z</time>
   </trkpt>
   <trkpt lat="-3.1844910" lon="37.3564120">
    <ele>2409.3</ele>
    <time>2026-06-24T06:46:30Z</time>
   </trkpt>
   <trkpt lat="-3.1844960" lon="37.3564120">
    <ele>2409.2</ele>
    <time>2026-06-24T06:46:31Z</time>
   </trkpt>
   <trkpt lat="-3.1845030" lon="37.3564120">
    <ele>2409.0</ele>
    <time>2026-06-24T06:46:32Z</time>
   </trkpt>
   <trkpt lat="-3.1845130" lon="37.3564100">
    <ele>2408.8</ele>
    <time>2026-06-24T06:46:33Z</time>
   </trkpt>
   <trkpt lat="-3.1845150" lon="37.3564080">
    <ele>2408.8</ele>
    <time>2026-06-24T06:46:34Z</time>
   </trkpt>
   <trkpt lat="-3.1845210" lon="37.3563990">
    <ele>2408.6</ele>
    <time>2026-06-24T06:46:35Z</time>
   </trkpt>
   <trkpt lat="-3.1845200" lon="37.3564060">
    <ele>2408.5</ele>
    <time>2026-06-24T06:46:36Z</time>
   </trkpt>
   <trkpt lat="-3.1845280" lon="37.3564040">
    <ele>2408.3</ele>
    <time>2026-06-24T06:46:37Z</time>
   </trkpt>
   <trkpt lat="-3.1845420" lon="37.3563960">
    <ele>2408.0</ele>
    <time>2026-06-24T06:46:38Z</time>
   </trkpt>
   <trkpt lat="-3.1845510" lon="37.3563970">
    <ele>2407.8</ele>
    <time>2026-06-24T06:46:39Z</time>
   </trkpt>
   <trkpt lat="-3.1845560" lon="37.3563960">
    <ele>2407.7</ele>
    <time>2026-06-24T06:46:40Z</time>
   </trkpt>
   <trkpt lat="-3.1845610" lon="37.3563980">
    <ele>2407.6</ele>
    <time>2026-06-24T06:46:41Z</time>
   </trkpt>
   <trkpt lat="-3.1845670" lon="37.3563990">
    <ele>2407.5</ele>
    <time>2026-06-24T06:46:42Z</time>
   </trkpt>
   <trkpt lat="-3.1845710" lon="37.3564000">
    <ele>2407.5</ele>
    <time>2026-06-24T06:46:43Z</time>
   </trkpt>
   <trkpt lat="-3.1845780" lon="37.3564040">
    <ele>2407.3</ele>
    <time>2026-06-24T06:46:44Z</time>
   </trkpt>
   <trkpt lat="-3.1845850" lon="37.3564040">
    <ele>2407.2</ele>
    <time>2026-06-24T06:46:45Z</time>
   </trkpt>
   <trkpt lat="-3.1845930" lon="37.3564060">
    <ele>2407.1</ele>
    <time>2026-06-24T06:46:46Z</time>
   </trkpt>
   <trkpt lat="-3.1846020" lon="37.3564120">
    <ele>2406.9</ele>
    <time>2026-06-24T06:46:47Z</time>
   </trkpt>
   <trkpt lat="-3.1846060" lon="37.3564150">
    <ele>2406.8</ele>
    <time>2026-06-24T06:46:48Z</time>
   </trkpt>
   <trkpt lat="-3.1846130" lon="37.3564150">
    <ele>2406.7</ele>
    <time>2026-06-24T06:46:49Z</time>
   </trkpt>
   <trkpt lat="-3.1846190" lon="37.3564140">
    <ele>2406.6</ele>
    <time>2026-06-24T06:46:50Z</time>
   </trkpt>
   <trkpt lat="-3.1846240" lon="37.3564100">
    <ele>2406.5</ele>
    <time>2026-06-24T06:46:51Z</time>
   </trkpt>
   <trkpt lat="-3.1846320" lon="37.3564090">
    <ele>2406.4</ele>
    <time>2026-06-24T06:46:52Z</time>
   </trkpt>
   <trkpt lat="-3.1846350" lon="37.3564040">
    <ele>2406.3</ele>
    <time>2026-06-24T06:46:53Z</time>
   </trkpt>
   <trkpt lat="-3.1846380" lon="37.3563990">
    <ele>2406.2</ele>
    <time>2026-06-24T06:46:54Z</time>
   </trkpt>
   <trkpt lat="-3.1846400" lon="37.3563950">
    <ele>2406.1</ele>
    <time>2026-06-24T06:46:55Z</time>
   </trkpt>
   <trkpt lat="-3.1846450" lon="37.3563890">
    <ele>2406.0</ele>
    <time>2026-06-24T06:46:56Z</time>
   </trkpt>
   <trkpt lat="-3.1846450" lon="37.3563830">
    <ele>2405.9</ele>
    <time>2026-06-24T06:46:57Z</time>
   </trkpt>
   <trkpt lat="-3.1846450" lon="37.3563830">
    <ele>2405.9</ele>
    <time>2026-06-24T06:46:58Z</time>
   </trkpt>
   <trkpt lat="-3.1846450" lon="37.3563830">
    <ele>2405.9</ele>
    <time>2026-06-24T06:46:59Z</time>
   </trkpt>
   <trkpt lat="-3.1846450" lon="37.3563830">
    <ele>2405.9</ele>
    <time>2026-06-24T06:47:00Z</time>
   </trkpt>
   <trkpt lat="-3.1846360" lon="37.3563790">
    <ele>2405.7</ele>
    <time>2026-06-24T06:47:01Z</time>
   </trkpt>
   <trkpt lat="-3.1846400" lon="37.3563810">
    <ele>2405.7</ele>
    <time>2026-06-24T06:47:02Z</time>
   </trkpt>
   <trkpt lat="-3.1846450" lon="37.3563800">
    <ele>2405.6</ele>
    <time>2026-06-24T06:47:03Z</time>
   </trkpt>
   <trkpt lat="-3.1846480" lon="37.3563720">
    <ele>2405.5</ele>
    <time>2026-06-24T06:47:04Z</time>
   </trkpt>
   <trkpt lat="-3.1846600" lon="37.3563640">
    <ele>2405.3</ele>
    <time>2026-06-24T06:47:05Z</time>
   </trkpt>
   <trkpt lat="-3.1846640" lon="37.3563550">
    <ele>2405.1</ele>
    <time>2026-06-24T06:47:06Z</time>
   </trkpt>
   <trkpt lat="-3.1846740" lon="37.3563510">
    <ele>2405.0</ele>
    <time>2026-06-24T06:47:07Z</time>
   </trkpt>
   <trkpt lat="-3.1846750" lon="37.3563560">
    <ele>2404.9</ele>
    <time>2026-06-24T06:47:08Z</time>
   </trkpt>
   <trkpt lat="-3.1846880" lon="37.3563580">
    <ele>2404.7</ele>
    <time>2026-06-24T06:47:09Z</time>
   </trkpt>
   <trkpt lat="-3.1846900" lon="37.3563540">
    <ele>2404.7</ele>
    <time>2026-06-24T06:47:10Z</time>
   </trkpt>
   <trkpt lat="-3.1846880" lon="37.3563530">
    <ele>2404.7</ele>
    <time>2026-06-24T06:47:11Z</time>
   </trkpt>
   <trkpt lat="-3.1846870" lon="37.3563460">
    <ele>2404.6</ele>
    <time>2026-06-24T06:47:12Z</time>
   </trkpt>
   <trkpt lat="-3.1846900" lon="37.3563450">
    <ele>2404.5</ele>
    <time>2026-06-24T06:47:13Z</time>
   </trkpt>
   <trkpt lat="-3.1846930" lon="37.3563480">
    <ele>2404.5</ele>
    <time>2026-06-24T06:47:14Z</time>
   </trkpt>
   <trkpt lat="-3.1847010" lon="37.3563430">
    <ele>2404.3</ele>
    <time>2026-06-24T06:47:15Z</time>
   </trkpt>
   <trkpt lat="-3.1847120" lon="37.3563350">
    <ele>2404.1</ele>
    <time>2026-06-24T06:47:16Z</time>
   </trkpt>
   <trkpt lat="-3.1847220" lon="37.3563300">
    <ele>2404.0</ele>
    <time>2026-06-24T06:47:17Z</time>
   </trkpt>
   <trkpt lat="-3.1847310" lon="37.3563250">
    <ele>2403.8</ele>
    <time>2026-06-24T06:47:18Z</time>
   </trkpt>
   <trkpt lat="-3.1847290" lon="37.3563150">
    <ele>2403.7</ele>
    <time>2026-06-24T06:47:19Z</time>
   </trkpt>
   <trkpt lat="-3.1847390" lon="37.3563040">
    <ele>2403.5</ele>
    <time>2026-06-24T06:47:20Z</time>
   </trkpt>
   <trkpt lat="-3.1847480" lon="37.3562940">
    <ele>2403.3</ele>
    <time>2026-06-24T06:47:21Z</time>
   </trkpt>
   <trkpt lat="-3.1847590" lon="37.3562810">
    <ele>2403.0</ele>
    <time>2026-06-24T06:47:22Z</time>
   </trkpt>
   <trkpt lat="-3.1847620" lon="37.3562720">
    <ele>2402.9</ele>
    <time>2026-06-24T06:47:23Z</time>
   </trkpt>
   <trkpt lat="-3.1847610" lon="37.3562650">
    <ele>2402.8</ele>
    <time>2026-06-24T06:47:24Z</time>
   </trkpt>
   <trkpt lat="-3.1847680" lon="37.3562560">
    <ele>2402.6</ele>
    <time>2026-06-24T06:47:25Z</time>
   </trkpt>
   <trkpt lat="-3.1847830" lon="37.3562450">
    <ele>2402.4</ele>
    <time>2026-06-24T06:47:26Z</time>
   </trkpt>
   <trkpt lat="-3.1847920" lon="37.3562410">
    <ele>2402.2</ele>
    <time>2026-06-24T06:47:27Z</time>
   </trkpt>
   <trkpt lat="-3.1847950" lon="37.3562370">
    <ele>2402.1</ele>
    <time>2026-06-24T06:47:28Z</time>
   </trkpt>
   <trkpt lat="-3.1847990" lon="37.3562260">
    <ele>2402.0</ele>
    <time>2026-06-24T06:47:29Z</time>
   </trkpt>
   <trkpt lat="-3.1848010" lon="37.3562190">
    <ele>2401.8</ele>
    <time>2026-06-24T06:47:30Z</time>
   </trkpt>
   <trkpt lat="-3.1848100" lon="37.3561950">
    <ele>2401.4</ele>
    <time>2026-06-24T06:47:31Z</time>
   </trkpt>
   <trkpt lat="-3.1848140" lon="37.3561910">
    <ele>2401.4</ele>
    <time>2026-06-24T06:47:32Z</time>
   </trkpt>
   <trkpt lat="-3.1848170" lon="37.3561840">
    <ele>2401.2</ele>
    <time>2026-06-24T06:47:33Z</time>
   </trkpt>
   <trkpt lat="-3.1848200" lon="37.3561770">
    <ele>2401.1</ele>
    <time>2026-06-24T06:47:34Z</time>
   </trkpt>
   <trkpt lat="-3.1848210" lon="37.3561680">
    <ele>2401.0</ele>
    <time>2026-06-24T06:47:35Z</time>
   </trkpt>
   <trkpt lat="-3.1848230" lon="37.3561640">
    <ele>2400.9</ele>
    <time>2026-06-24T06:47:36Z</time>
   </trkpt>
   <trkpt lat="-3.1848240" lon="37.3561600">
    <ele>2400.8</ele>
    <time>2026-06-24T06:47:37Z</time>
   </trkpt>
   <trkpt lat="-3.1848340" lon="37.3561520">
    <ele>2400.7</ele>
    <time>2026-06-24T06:47:38Z</time>
   </trkpt>
   <trkpt lat="-3.1848330" lon="37.3561490">
    <ele>2400.6</ele>
    <time>2026-06-24T06:47:39Z</time>
   </trkpt>
   <trkpt lat="-3.1848340" lon="37.3561430">
    <ele>2400.5</ele>
    <time>2026-06-24T06:47:40Z</time>
   </trkpt>
   <trkpt lat="-3.1848370" lon="37.3561310">
    <ele>2400.3</ele>
    <time>2026-06-24T06:47:41Z</time>
   </trkpt>
   <trkpt lat="-3.1848380" lon="37.3561320">
    <ele>2400.3</ele>
    <time>2026-06-24T06:47:42Z</time>
   </trkpt>
   <trkpt lat="-3.1848430" lon="37.3561270">
    <ele>2400.2</ele>
    <time>2026-06-24T06:47:43Z</time>
   </trkpt>
   <trkpt lat="-3.1848550" lon="37.3561190">
    <ele>2400.0</ele>
    <time>2026-06-24T06:47:44Z</time>
   </trkpt>
   <trkpt lat="-3.1848580" lon="37.3561170">
    <ele>2399.9</ele>
    <time>2026-06-24T06:47:45Z</time>
   </trkpt>
   <trkpt lat="-3.1848620" lon="37.3561150">
    <ele>2399.8</ele>
    <time>2026-06-24T06:47:46Z</time>
   </trkpt>
   <trkpt lat="-3.1848660" lon="37.3561130">
    <ele>2399.8</ele>
    <time>2026-06-24T06:47:47Z</time>
   </trkpt>
   <trkpt lat="-3.1848730" lon="37.3561060">
    <ele>2399.6</ele>
    <time>2026-06-24T06:47:48Z</time>
   </trkpt>
   <trkpt lat="-3.1848770" lon="37.3560990">
    <ele>2399.5</ele>
    <time>2026-06-24T06:47:49Z</time>
   </trkpt>
   <trkpt lat="-3.1848810" lon="37.3560930">
    <ele>2399.4</ele>
    <time>2026-06-24T06:47:50Z</time>
   </trkpt>
   <trkpt lat="-3.1848840" lon="37.3560840">
    <ele>2399.2</ele>
    <time>2026-06-24T06:47:51Z</time>
   </trkpt>
   <trkpt lat="-3.1848910" lon="37.3560750">
    <ele>2399.1</ele>
    <time>2026-06-24T06:47:52Z</time>
   </trkpt>
   <trkpt lat="-3.1848970" lon="37.3560700">
    <ele>2398.9</ele>
    <time>2026-06-24T06:47:53Z</time>
   </trkpt>
   <trkpt lat="-3.1849020" lon="37.3560600">
    <ele>2398.8</ele>
    <time>2026-06-24T06:47:54Z</time>
   </trkpt>
   <trkpt lat="-3.1849110" lon="37.3560520">
    <ele>2398.6</ele>
    <time>2026-06-24T06:47:55Z</time>
   </trkpt>
   <trkpt lat="-3.1849180" lon="37.3560440">
    <ele>2398.4</ele>
    <time>2026-06-24T06:47:56Z</time>
   </trkpt>
   <trkpt lat="-3.1849180" lon="37.3560420">
    <ele>2398.4</ele>
    <time>2026-06-24T06:47:57Z</time>
   </trkpt>
   <trkpt lat="-3.1849160" lon="37.3560360">
    <ele>2398.3</ele>
    <time>2026-06-24T06:47:58Z</time>
   </trkpt>
   <trkpt lat="-3.1849230" lon="37.3560360">
    <ele>2398.2</ele>
    <time>2026-06-24T06:47:59Z</time>
   </trkpt>
   <trkpt lat="-3.1849290" lon="37.3560320">
    <ele>2398.1</ele>
    <time>2026-06-24T06:48:00Z</time>
   </trkpt>
   <trkpt lat="-3.1849350" lon="37.3560280">
    <ele>2398.0</ele>
    <time>2026-06-24T06:48:01Z</time>
   </trkpt>
   <trkpt lat="-3.1849390" lon="37.3560260">
    <ele>2397.9</ele>
    <time>2026-06-24T06:48:02Z</time>
   </trkpt>
   <trkpt lat="-3.1849410" lon="37.3560250">
    <ele>2397.8</ele>
    <time>2026-06-24T06:48:03Z</time>
   </trkpt>
   <trkpt lat="-3.1849450" lon="37.3560250">
    <ele>2397.8</ele>
    <time>2026-06-24T06:48:04Z</time>
   </trkpt>
   <trkpt lat="-3.1849540" lon="37.3560240">
    <ele>2397.6</ele>
    <time>2026-06-24T06:48:05Z</time>
   </trkpt>
   <trkpt lat="-3.1849610" lon="37.3560190">
    <ele>2397.5</ele>
    <time>2026-06-24T06:48:06Z</time>
   </trkpt>
   <trkpt lat="-3.1849630" lon="37.3560210">
    <ele>2397.5</ele>
    <time>2026-06-24T06:48:07Z</time>
   </trkpt>
   <trkpt lat="-3.1849700" lon="37.3560170">
    <ele>2397.3</ele>
    <time>2026-06-24T06:48:08Z</time>
   </trkpt>
   <trkpt lat="-3.1849750" lon="37.3560110">
    <ele>2397.2</ele>
    <time>2026-06-24T06:48:09Z</time>
   </trkpt>
   <trkpt lat="-3.1849780" lon="37.3560150">
    <ele>2397.1</ele>
    <time>2026-06-24T06:48:10Z</time>
   </trkpt>
   <trkpt lat="-3.1849830" lon="37.3560070">
    <ele>2397.0</ele>
    <time>2026-06-24T06:48:11Z</time>
   </trkpt>
   <trkpt lat="-3.1849820" lon="37.3560040">
    <ele>2397.0</ele>
    <time>2026-06-24T06:48:12Z</time>
   </trkpt>
   <trkpt lat="-3.1849830" lon="37.3559990">
    <ele>2396.9</ele>
    <time>2026-06-24T06:48:13Z</time>
   </trkpt>
   <trkpt lat="-3.1849830" lon="37.3559940">
    <ele>2396.8</ele>
    <time>2026-06-24T06:48:14Z</time>
   </trkpt>
   <trkpt lat="-3.1849910" lon="37.3559770">
    <ele>2396.5</ele>
    <time>2026-06-24T06:48:15Z</time>
   </trkpt>
   <trkpt lat="-3.1849930" lon="37.3559730">
    <ele>2396.5</ele>
    <time>2026-06-24T06:48:16Z</time>
   </trkpt>
   <trkpt lat="-3.1849950" lon="37.3559690">
    <ele>2396.5</ele>
    <time>2026-06-24T06:48:17Z</time>
   </trkpt>
   <trkpt lat="-3.1850020" lon="37.3559630">
    <ele>2396.3</ele>
    <time>2026-06-24T06:48:18Z</time>
   </trkpt>
   <trkpt lat="-3.1850060" lon="37.3559560">
    <ele>2396.2</ele>
    <time>2026-06-24T06:48:19Z</time>
   </trkpt>
   <trkpt lat="-3.1850090" lon="37.3559510">
    <ele>2396.2</ele>
    <time>2026-06-24T06:48:20Z</time>
   </trkpt>
   <trkpt lat="-3.1850060" lon="37.3559500">
    <ele>2396.1</ele>
    <time>2026-06-24T06:48:21Z</time>
   </trkpt>
   <trkpt lat="-3.1850030" lon="37.3559400">
    <ele>2395.9</ele>
    <time>2026-06-24T06:48:22Z</time>
   </trkpt>
   <trkpt lat="-3.1850040" lon="37.3559400">
    <ele>2396.0</ele>
    <time>2026-06-24T06:48:23Z</time>
   </trkpt>
   <trkpt lat="-3.1850090" lon="37.3559340">
    <ele>2395.9</ele>
    <time>2026-06-24T06:48:24Z</time>
   </trkpt>
   <trkpt lat="-3.1850170" lon="37.3559270">
    <ele>2395.7</ele>
    <time>2026-06-24T06:48:25Z</time>
   </trkpt>
   <trkpt lat="-3.1850210" lon="37.3559210">
    <ele>2395.5</ele>
    <time>2026-06-24T06:48:26Z</time>
   </trkpt>
   <trkpt lat="-3.1850160" lon="37.3559220">
    <ele>2395.6</ele>
    <time>2026-06-24T06:48:27Z</time>
   </trkpt>
   <trkpt lat="-3.1850170" lon="37.3559180">
    <ele>2395.5</ele>
    <time>2026-06-24T06:48:28Z</time>
   </trkpt>
   <trkpt lat="-3.1850190" lon="37.3559110">
    <ele>2395.3</ele>
    <time>2026-06-24T06:48:29Z</time>
   </trkpt>
   <trkpt lat="-3.1850270" lon="37.3559050">
    <ele>2395.2</ele>
    <time>2026-06-24T06:48:30Z</time>
   </trkpt>
   <trkpt lat="-3.1850390" lon="37.3559080">
    <ele>2395.0</ele>
    <time>2026-06-24T06:48:31Z</time>
   </trkpt>
   <trkpt lat="-3.1850470" lon="37.3559070">
    <ele>2394.9</ele>
    <time>2026-06-24T06:48:32Z</time>
   </trkpt>
   <trkpt lat="-3.1850560" lon="37.3559040">
    <ele>2394.7</ele>
    <time>2026-06-24T06:48:33Z</time>
   </trkpt>
   <trkpt lat="-3.1850610" lon="37.3559010">
    <ele>2394.7</ele>
    <time>2026-06-24T06:48:34Z</time>
   </trkpt>
   <trkpt lat="-3.1850690" lon="37.3558980">
    <ele>2394.6</ele>
    <time>2026-06-24T06:48:35Z</time>
   </trkpt>
   <trkpt lat="-3.1850650" lon="37.3558990">
    <ele>2394.5</ele>
    <time>2026-06-24T06:48:36Z</time>
   </trkpt>
   <trkpt lat="-3.1850720" lon="37.3558960">
    <ele>2394.4</ele>
    <time>2026-06-24T06:48:37Z</time>
   </trkpt>
   <trkpt lat="-3.1850680" lon="37.3558890">
    <ele>2394.3</ele>
    <time>2026-06-24T06:48:38Z</time>
   </trkpt>
   <trkpt lat="-3.1850680" lon="37.3558880">
    <ele>2394.3</ele>
    <time>2026-06-24T06:48:39Z</time>
   </trkpt>
   <trkpt lat="-3.1850730" lon="37.3558900">
    <ele>2394.2</ele>
    <time>2026-06-24T06:48:40Z</time>
   </trkpt>
   <trkpt lat="-3.1850830" lon="37.3558880">
    <ele>2394.0</ele>
    <time>2026-06-24T06:48:41Z</time>
   </trkpt>
   <trkpt lat="-3.1850880" lon="37.3558830">
    <ele>2393.9</ele>
    <time>2026-06-24T06:48:42Z</time>
   </trkpt>
   <trkpt lat="-3.1850910" lon="37.3558770">
    <ele>2393.9</ele>
    <time>2026-06-24T06:48:43Z</time>
   </trkpt>
   <trkpt lat="-3.1850880" lon="37.3558740">
    <ele>2393.8</ele>
    <time>2026-06-24T06:48:44Z</time>
   </trkpt>
   <trkpt lat="-3.1850860" lon="37.3558780">
    <ele>2393.7</ele>
    <time>2026-06-24T06:48:45Z</time>
   </trkpt>
   <trkpt lat="-3.1850920" lon="37.3558720">
    <ele>2393.6</ele>
    <time>2026-06-24T06:48:46Z</time>
   </trkpt>
   <trkpt lat="-3.1850890" lon="37.3558730">
    <ele>2393.6</ele>
    <time>2026-06-24T06:48:47Z</time>
   </trkpt>
   <trkpt lat="-3.1850800" lon="37.3558740">
    <ele>2393.4</ele>
    <time>2026-06-24T06:48:48Z</time>
   </trkpt>
   <trkpt lat="-3.1850800" lon="37.3558750">
    <ele>2393.4</ele>
    <time>2026-06-24T06:48:49Z</time>
   </trkpt>
   <trkpt lat="-3.1850810" lon="37.3558650">
    <ele>2393.3</ele>
    <time>2026-06-24T06:48:50Z</time>
   </trkpt>
   <trkpt lat="-3.1850850" lon="37.3558590">
    <ele>2393.2</ele>
    <time>2026-06-24T06:48:51Z</time>
   </trkpt>
   <trkpt lat="-3.1850880" lon="37.3558600">
    <ele>2393.1</ele>
    <time>2026-06-24T06:48:52Z</time>
   </trkpt>
   <trkpt lat="-3.1850940" lon="37.3558590">
    <ele>2393.1</ele>
    <time>2026-06-24T06:48:53Z</time>
   </trkpt>
   <trkpt lat="-3.1850970" lon="37.3558580">
    <ele>2393.0</ele>
    <time>2026-06-24T06:48:54Z</time>
   </trkpt>
   <trkpt lat="-3.1851010" lon="37.3558520">
    <ele>2392.9</ele>
    <time>2026-06-24T06:48:55Z</time>
   </trkpt>
   <trkpt lat="-3.1851020" lon="37.3558610">
    <ele>2392.7</ele>
    <time>2026-06-24T06:48:56Z</time>
   </trkpt>
   <trkpt lat="-3.1851130" lon="37.3558540">
    <ele>2392.6</ele>
    <time>2026-06-24T06:48:57Z</time>
   </trkpt>
   <trkpt lat="-3.1851130" lon="37.3558610">
    <ele>2392.5</ele>
    <time>2026-06-24T06:48:58Z</time>
   </trkpt>
   <trkpt lat="-3.1851150" lon="37.3558570">
    <ele>2392.4</ele>
    <time>2026-06-24T06:48:59Z</time>
   </trkpt>
   <trkpt lat="-3.1851220" lon="37.3558530">
    <ele>2392.3</ele>
    <time>2026-06-24T06:49:00Z</time>
   </trkpt>
   <trkpt lat="-3.1851330" lon="37.3558450">
    <ele>2392.1</ele>
    <time>2026-06-24T06:49:01Z</time>
   </trkpt>
   <trkpt lat="-3.1851410" lon="37.3558330">
    <ele>2391.9</ele>
    <time>2026-06-24T06:49:02Z</time>
   </trkpt>
   <trkpt lat="-3.1851460" lon="37.3558190">
    <ele>2391.6</ele>
    <time>2026-06-24T06:49:03Z</time>
   </trkpt>
   <trkpt lat="-3.1851450" lon="37.3558150">
    <ele>2391.6</ele>
    <time>2026-06-24T06:49:04Z</time>
   </trkpt>
   <trkpt lat="-3.1851470" lon="37.3558130">
    <ele>2391.6</ele>
    <time>2026-06-24T06:49:05Z</time>
   </trkpt>
   <trkpt lat="-3.1851500" lon="37.3558140">
    <ele>2391.5</ele>
    <time>2026-06-24T06:49:06Z</time>
   </trkpt>
   <trkpt lat="-3.1851610" lon="37.3558110">
    <ele>2391.4</ele>
    <time>2026-06-24T06:49:07Z</time>
   </trkpt>
   <trkpt lat="-3.1851710" lon="37.3558040">
    <ele>2391.2</ele>
    <time>2026-06-24T06:49:08Z</time>
   </trkpt>
   <trkpt lat="-3.1851680" lon="37.3558010">
    <ele>2391.1</ele>
    <time>2026-06-24T06:49:09Z</time>
   </trkpt>
   <trkpt lat="-3.1851620" lon="37.3558030">
    <ele>2391.0</ele>
    <time>2026-06-24T06:49:10Z</time>
   </trkpt>
   <trkpt lat="-3.1851560" lon="37.3557960">
    <ele>2390.9</ele>
    <time>2026-06-24T06:49:11Z</time>
   </trkpt>
   <trkpt lat="-3.1851540" lon="37.3557730">
    <ele>2390.6</ele>
    <time>2026-06-24T06:49:12Z</time>
   </trkpt>
   <trkpt lat="-3.1851570" lon="37.3557640">
    <ele>2390.5</ele>
    <time>2026-06-24T06:49:13Z</time>
   </trkpt>
   <trkpt lat="-3.1851560" lon="37.3557670">
    <ele>2390.4</ele>
    <time>2026-06-24T06:49:14Z</time>
   </trkpt>
   <trkpt lat="-3.1851560" lon="37.3557670">
    <ele>2390.5</ele>
    <time>2026-06-24T06:49:15Z</time>
   </trkpt>
   <trkpt lat="-3.1851690" lon="37.3557620">
    <ele>2390.2</ele>
    <time>2026-06-24T06:49:16Z</time>
   </trkpt>
   <trkpt lat="-3.1851760" lon="37.3557620">
    <ele>2390.2</ele>
    <time>2026-06-24T06:49:17Z</time>
   </trkpt>
   <trkpt lat="-3.1851900" lon="37.3557680">
    <ele>2390.0</ele>
    <time>2026-06-24T06:49:18Z</time>
   </trkpt>
   <trkpt lat="-3.1851960" lon="37.3557670">
    <ele>2389.9</ele>
    <time>2026-06-24T06:49:19Z</time>
   </trkpt>
   <trkpt lat="-3.1852080" lon="37.3557640">
    <ele>2389.7</ele>
    <time>2026-06-24T06:49:20Z</time>
   </trkpt>
   <trkpt lat="-3.1852160" lon="37.3557680">
    <ele>2389.6</ele>
    <time>2026-06-24T06:49:21Z</time>
   </trkpt>
   <trkpt lat="-3.1852240" lon="37.3557630">
    <ele>2389.5</ele>
    <time>2026-06-24T06:49:22Z</time>
   </trkpt>
   <trkpt lat="-3.1852280" lon="37.3557600">
    <ele>2389.5</ele>
    <time>2026-06-24T06:49:23Z</time>
   </trkpt>
   <trkpt lat="-3.1852160" lon="37.3557710">
    <ele>2389.2</ele>
    <time>2026-06-24T06:49:24Z</time>
   </trkpt>
   <trkpt lat="-3.1852080" lon="37.3557720">
    <ele>2389.1</ele>
    <time>2026-06-24T06:49:25Z</time>
   </trkpt>
   <trkpt lat="-3.1852080" lon="37.3557760">
    <ele>2389.1</ele>
    <time>2026-06-24T06:49:26Z</time>
   </trkpt>
   <trkpt lat="-3.1852080" lon="37.3557780">
    <ele>2389.1</ele>
    <time>2026-06-24T06:49:27Z</time>
   </trkpt>
   <trkpt lat="-3.1852060" lon="37.3557780">
    <ele>2389.1</ele>
    <time>2026-06-24T06:49:28Z</time>
   </trkpt>
   <trkpt lat="-3.1852090" lon="37.3557760">
    <ele>2389.1</ele>
    <time>2026-06-24T06:49:29Z</time>
   </trkpt>
   <trkpt lat="-3.1852150" lon="37.3557750">
    <ele>2389.0</ele>
    <time>2026-06-24T06:49:30Z</time>
   </trkpt>
   <trkpt lat="-3.1852270" lon="37.3557680">
    <ele>2388.8</ele>
    <time>2026-06-24T06:49:31Z</time>
   </trkpt>
   <trkpt lat="-3.1852420" lon="37.3557640">
    <ele>2388.6</ele>
    <time>2026-06-24T06:49:32Z</time>
   </trkpt>
   <trkpt lat="-3.1852440" lon="37.3557720">
    <ele>2388.6</ele>
    <time>2026-06-24T06:49:33Z</time>
   </trkpt>
   <trkpt lat="-3.1852540" lon="37.3557650">
    <ele>2388.4</ele>
    <time>2026-06-24T06:49:34Z</time>
   </trkpt>
   <trkpt lat="-3.1852580" lon="37.3557620">
    <ele>2388.3</ele>
    <time>2026-06-24T06:49:35Z</time>
   </trkpt>
   <trkpt lat="-3.1852670" lon="37.3557570">
    <ele>2388.2</ele>
    <time>2026-06-24T06:49:36Z</time>
   </trkpt>
   <trkpt lat="-3.1852740" lon="37.3557510">
    <ele>2388.1</ele>
    <time>2026-06-24T06:49:37Z</time>
   </trkpt>
   <trkpt lat="-3.1852820" lon="37.3557450">
    <ele>2387.9</ele>
    <time>2026-06-24T06:49:38Z</time>
   </trkpt>
   <trkpt lat="-3.1852900" lon="37.3557400">
    <ele>2387.9</ele>
    <time>2026-06-24T06:49:39Z</time>
   </trkpt>
   <trkpt lat="-3.1853000" lon="37.3557410">
    <ele>2387.8</ele>
    <time>2026-06-24T06:49:40Z</time>
   </trkpt>
   <trkpt lat="-3.1853070" lon="37.3557420">
    <ele>2387.7</ele>
    <time>2026-06-24T06:49:41Z</time>
   </trkpt>
   <trkpt lat="-3.1853100" lon="37.3557420">
    <ele>2387.7</ele>
    <time>2026-06-24T06:49:42Z</time>
   </trkpt>
   <trkpt lat="-3.1853140" lon="37.3557420">
    <ele>2387.6</ele>
    <time>2026-06-24T06:49:43Z</time>
   </trkpt>
   <trkpt lat="-3.1853170" lon="37.3557430">
    <ele>2387.6</ele>
    <time>2026-06-24T06:49:44Z</time>
   </trkpt>
   <trkpt lat="-3.1853130" lon="37.3557500">
    <ele>2387.5</ele>
    <time>2026-06-24T06:49:45Z</time>
   </trkpt>
   <trkpt lat="-3.1853240" lon="37.3557470">
    <ele>2387.4</ele>
    <time>2026-06-24T06:49:46Z</time>
   </trkpt>
   <trkpt lat="-3.1853300" lon="37.3557440">
    <ele>2387.3</ele>
    <time>2026-06-24T06:49:47Z</time>
   </trkpt>
   <trkpt lat="-3.1853300" lon="37.3557460">
    <ele>2387.3</ele>
    <time>2026-06-24T06:49:48Z</time>
   </trkpt>
   <trkpt lat="-3.1853320" lon="37.3557480">
    <ele>2387.3</ele>
    <time>2026-06-24T06:49:49Z</time>
   </trkpt>
   <trkpt lat="-3.1853400" lon="37.3557400">
    <ele>2387.1</ele>
    <time>2026-06-24T06:49:50Z</time>
   </trkpt>
   <trkpt lat="-3.1853480" lon="37.3557380">
    <ele>2387.0</ele>
    <time>2026-06-24T06:49:51Z</time>
   </trkpt>
   <trkpt lat="-3.1853510" lon="37.3557450">
    <ele>2386.9</ele>
    <time>2026-06-24T06:49:52Z</time>
   </trkpt>
   <trkpt lat="-3.1853660" lon="37.3557410">
    <ele>2386.7</ele>
    <time>2026-06-24T06:49:53Z</time>
   </trkpt>
   <trkpt lat="-3.1853710" lon="37.3557360">
    <ele>2386.7</ele>
    <time>2026-06-24T06:49:54Z</time>
   </trkpt>
   <trkpt lat="-3.1853850" lon="37.3557350">
    <ele>2386.5</ele>
    <time>2026-06-24T06:49:55Z</time>
   </trkpt>
   <trkpt lat="-3.1853890" lon="37.3557360">
    <ele>2386.4</ele>
    <time>2026-06-24T06:49:56Z</time>
   </trkpt>
   <trkpt lat="-3.1853980" lon="37.3557340">
    <ele>2386.3</ele>
    <time>2026-06-24T06:49:57Z</time>
   </trkpt>
   <trkpt lat="-3.1853980" lon="37.3557330">
    <ele>2386.3</ele>
    <time>2026-06-24T06:49:58Z</time>
   </trkpt>
   <trkpt lat="-3.1854040" lon="37.3557340">
    <ele>2386.3</ele>
    <time>2026-06-24T06:49:59Z</time>
   </trkpt>
   <trkpt lat="-3.1854150" lon="37.3557330">
    <ele>2386.1</ele>
    <time>2026-06-24T06:50:00Z</time>
   </trkpt>
   <trkpt lat="-3.1854270" lon="37.3557350">
    <ele>2386.0</ele>
    <time>2026-06-24T06:50:01Z</time>
   </trkpt>
   <trkpt lat="-3.1854490" lon="37.3557300">
    <ele>2385.7</ele>
    <time>2026-06-24T06:50:02Z</time>
   </trkpt>
   <trkpt lat="-3.1854580" lon="37.3557260">
    <ele>2385.6</ele>
    <time>2026-06-24T06:50:03Z</time>
   </trkpt>
   <trkpt lat="-3.1854710" lon="37.3557240">
    <ele>2385.4</ele>
    <time>2026-06-24T06:50:04Z</time>
   </trkpt>
   <trkpt lat="-3.1854790" lon="37.3557220">
    <ele>2385.3</ele>
    <time>2026-06-24T06:50:05Z</time>
   </trkpt>
   <trkpt lat="-3.1854860" lon="37.3557210">
    <ele>2385.3</ele>
    <time>2026-06-24T06:50:06Z</time>
   </trkpt>
   <trkpt lat="-3.1855010" lon="37.3557200">
    <ele>2385.1</ele>
    <time>2026-06-24T06:50:07Z</time>
   </trkpt>
   <trkpt lat="-3.1855050" lon="37.3557210">
    <ele>2385.1</ele>
    <time>2026-06-24T06:50:08Z</time>
   </trkpt>
   <trkpt lat="-3.1855180" lon="37.3557150">
    <ele>2384.9</ele>
    <time>2026-06-24T06:50:09Z</time>
   </trkpt>
   <trkpt lat="-3.1855270" lon="37.3557070">
    <ele>2384.8</ele>
    <time>2026-06-24T06:50:10Z</time>
   </trkpt>
   <trkpt lat="-3.1855320" lon="37.3556880">
    <ele>2384.6</ele>
    <time>2026-06-24T06:50:11Z</time>
   </trkpt>
   <trkpt lat="-3.1855370" lon="37.3556770">
    <ele>2384.4</ele>
    <time>2026-06-24T06:50:12Z</time>
   </trkpt>
   <trkpt lat="-3.1855410" lon="37.3556660">
    <ele>2384.3</ele>
    <time>2026-06-24T06:50:13Z</time>
   </trkpt>
   <trkpt lat="-3.1855430" lon="37.3556600">
    <ele>2384.3</ele>
    <time>2026-06-24T06:50:14Z</time>
   </trkpt>
   <trkpt lat="-3.1855460" lon="37.3556600">
    <ele>2384.2</ele>
    <time>2026-06-24T06:50:15Z</time>
   </trkpt>
   <trkpt lat="-3.1855520" lon="37.3556580">
    <ele>2384.2</ele>
    <time>2026-06-24T06:50:16Z</time>
   </trkpt>
   <trkpt lat="-3.1855570" lon="37.3556560">
    <ele>2384.1</ele>
    <time>2026-06-24T06:50:17Z</time>
   </trkpt>
   <trkpt lat="-3.1855640" lon="37.3556540">
    <ele>2384.1</ele>
    <time>2026-06-24T06:50:18Z</time>
   </trkpt>
   <trkpt lat="-3.1855700" lon="37.3556520">
    <ele>2384.0</ele>
    <time>2026-06-24T06:50:19Z</time>
   </trkpt>
   <trkpt lat="-3.1855740" lon="37.3556470">
    <ele>2383.9</ele>
    <time>2026-06-24T06:50:20Z</time>
   </trkpt>
   <trkpt lat="-3.1855860" lon="37.3556430">
    <ele>2383.8</ele>
    <time>2026-06-24T06:50:21Z</time>
   </trkpt>
   <trkpt lat="-3.1855950" lon="37.3556410">
    <ele>2383.7</ele>
    <time>2026-06-24T06:50:22Z</time>
   </trkpt>
   <trkpt lat="-3.1856050" lon="37.3556330">
    <ele>2383.6</ele>
    <time>2026-06-24T06:50:23Z</time>
   </trkpt>
   <trkpt lat="-3.1856220" lon="37.3556210">
    <ele>2383.5</ele>
    <time>2026-06-24T06:50:24Z</time>
   </trkpt>
   <trkpt lat="-3.1856370" lon="37.3556050">
    <ele>2383.3</ele>
    <time>2026-06-24T06:50:25Z</time>
   </trkpt>
   <trkpt lat="-3.1856450" lon="37.3555980">
    <ele>2383.2</ele>
    <time>2026-06-24T06:50:26Z</time>
   </trkpt>
   <trkpt lat="-3.1856480" lon="37.3555970">
    <ele>2383.1</ele>
    <time>2026-06-24T06:50:27Z</time>
   </trkpt>
   <trkpt lat="-3.1856570" lon="37.3555860">
    <ele>2383.0</ele>
    <time>2026-06-24T06:50:28Z</time>
   </trkpt>
   <trkpt lat="-3.1856610" lon="37.3555830">
    <ele>2383.0</ele>
    <time>2026-06-24T06:50:29Z</time>
   </trkpt>
   <trkpt lat="-3.1856580" lon="37.3555710">
    <ele>2382.9</ele>
    <time>2026-06-24T06:50:30Z</time>
   </trkpt>
   <trkpt lat="-3.1856670" lon="37.3555680">
    <ele>2382.8</ele>
    <time>2026-06-24T06:50:31Z</time>
   </trkpt>
   <trkpt lat="-3.1856750" lon="37.3555690">
    <ele>2382.7</ele>
    <time>2026-06-24T06:50:32Z</time>
   </trkpt>
   <trkpt lat="-3.1856870" lon="37.3555680">
    <ele>2382.6</ele>
    <time>2026-06-24T06:50:33Z</time>
   </trkpt>
   <trkpt lat="-3.1856980" lon="37.3555730">
    <ele>2382.5</ele>
    <time>2026-06-24T06:50:34Z</time>
   </trkpt>
   <trkpt lat="-3.1857020" lon="37.3555770">
    <ele>2382.5</ele>
    <time>2026-06-24T06:50:35Z</time>
   </trkpt>
   <trkpt lat="-3.1857090" lon="37.3555810">
    <ele>2382.4</ele>
    <time>2026-06-24T06:50:36Z</time>
   </trkpt>
   <trkpt lat="-3.1857170" lon="37.3555790">
    <ele>2382.3</ele>
    <time>2026-06-24T06:50:37Z</time>
   </trkpt>
   <trkpt lat="-3.1857230" lon="37.3555760">
    <ele>2382.2</ele>
    <time>2026-06-24T06:50:38Z</time>
   </trkpt>
   <trkpt lat="-3.1857280" lon="37.3555710">
    <ele>2382.2</ele>
    <time>2026-06-24T06:50:39Z</time>
   </trkpt>
   <trkpt lat="-3.1857380" lon="37.3555640">
    <ele>2382.0</ele>
    <time>2026-06-24T06:50:40Z</time>
   </trkpt>
   <trkpt lat="-3.1857370" lon="37.3555610">
    <ele>2382.0</ele>
    <time>2026-06-24T06:50:41Z</time>
   </trkpt>
   <trkpt lat="-3.1857470" lon="37.3555590">
    <ele>2381.9</ele>
    <time>2026-06-24T06:50:42Z</time>
   </trkpt>
   <trkpt lat="-3.1857580" lon="37.3555540">
    <ele>2381.8</ele>
    <time>2026-06-24T06:50:43Z</time>
   </trkpt>
   <trkpt lat="-3.1857600" lon="37.3555460">
    <ele>2381.7</ele>
    <time>2026-06-24T06:50:44Z</time>
   </trkpt>
   <trkpt lat="-3.1857690" lon="37.3555460">
    <ele>2381.6</ele>
    <time>2026-06-24T06:50:45Z</time>
   </trkpt>
   <trkpt lat="-3.1857750" lon="37.3555400">
    <ele>2381.5</ele>
    <time>2026-06-24T06:50:46Z</time>
   </trkpt>
   <trkpt lat="-3.1857830" lon="37.3555340">
    <ele>2381.4</ele>
    <time>2026-06-24T06:50:47Z</time>
   </trkpt>
   <trkpt lat="-3.1857830" lon="37.3555300">
    <ele>2381.3</ele>
    <time>2026-06-24T06:50:48Z</time>
   </trkpt>
   <trkpt lat="-3.1857890" lon="37.3555240">
    <ele>2381.2</ele>
    <time>2026-06-24T06:50:49Z</time>
   </trkpt>
   <trkpt lat="-3.1857900" lon="37.3555190">
    <ele>2381.1</ele>
    <time>2026-06-24T06:50:50Z</time>
   </trkpt>
   <trkpt lat="-3.1858010" lon="37.3555100">
    <ele>2381.0</ele>
    <time>2026-06-24T06:50:51Z</time>
   </trkpt>
   <trkpt lat="-3.1858110" lon="37.3555050">
    <ele>2380.8</ele>
    <time>2026-06-24T06:50:52Z</time>
   </trkpt>
   <trkpt lat="-3.1858150" lon="37.3555040">
    <ele>2380.8</ele>
    <time>2026-06-24T06:50:53Z</time>
   </trkpt>
   <trkpt lat="-3.1858190" lon="37.3555060">
    <ele>2380.7</ele>
    <time>2026-06-24T06:50:54Z</time>
   </trkpt>
   <trkpt lat="-3.1858230" lon="37.3555040">
    <ele>2380.6</ele>
    <time>2026-06-24T06:50:55Z</time>
   </trkpt>
   <trkpt lat="-3.1858330" lon="37.3555000">
    <ele>2380.5</ele>
    <time>2026-06-24T06:50:56Z</time>
   </trkpt>
   <trkpt lat="-3.1858370" lon="37.3555020">
    <ele>2380.4</ele>
    <time>2026-06-24T06:50:57Z</time>
   </trkpt>
   <trkpt lat="-3.1858390" lon="37.3555040">
    <ele>2380.4</ele>
    <time>2026-06-24T06:50:58Z</time>
   </trkpt>
   <trkpt lat="-3.1858410" lon="37.3555040">
    <ele>2380.3</ele>
    <time>2026-06-24T06:50:59Z</time>
   </trkpt>
   <trkpt lat="-3.1858440" lon="37.3555010">
    <ele>2380.3</ele>
    <time>2026-06-24T06:51:00Z</time>
   </trkpt>
   <trkpt lat="-3.1858490" lon="37.3554960">
    <ele>2380.2</ele>
    <time>2026-06-24T06:51:01Z</time>
   </trkpt>
   <trkpt lat="-3.1858590" lon="37.3554980">
    <ele>2380.0</ele>
    <time>2026-06-24T06:51:02Z</time>
   </trkpt>
   <trkpt lat="-3.1858660" lon="37.3554980">
    <ele>2379.9</ele>
    <time>2026-06-24T06:51:03Z</time>
   </trkpt>
   <trkpt lat="-3.1858690" lon="37.3554910">
    <ele>2379.8</ele>
    <time>2026-06-24T06:51:04Z</time>
   </trkpt>
   <trkpt lat="-3.1858690" lon="37.3554820">
    <ele>2379.7</ele>
    <time>2026-06-24T06:51:05Z</time>
   </trkpt>
   <trkpt lat="-3.1858740" lon="37.3554770">
    <ele>2379.5</ele>
    <time>2026-06-24T06:51:06Z</time>
   </trkpt>
   <trkpt lat="-3.1858770" lon="37.3554760">
    <ele>2379.5</ele>
    <time>2026-06-24T06:51:07Z</time>
   </trkpt>
   <trkpt lat="-3.1858860" lon="37.3554740">
    <ele>2379.4</ele>
    <time>2026-06-24T06:51:08Z</time>
   </trkpt>
   <trkpt lat="-3.1858910" lon="37.3554770">
    <ele>2379.3</ele>
    <time>2026-06-24T06:51:09Z</time>
   </trkpt>
   <trkpt lat="-3.1858930" lon="37.3554790">
    <ele>2379.2</ele>
    <time>2026-06-24T06:51:10Z</time>
   </trkpt>
   <trkpt lat="-3.1858960" lon="37.3554780">
    <ele>2379.2</ele>
    <time>2026-06-24T06:51:11Z</time>
   </trkpt>
   <trkpt lat="-3.1859010" lon="37.3554810">
    <ele>2379.1</ele>
    <time>2026-06-24T06:51:12Z</time>
   </trkpt>
   <trkpt lat="-3.1859100" lon="37.3554880">
    <ele>2378.9</ele>
    <time>2026-06-24T06:51:13Z</time>
   </trkpt>
   <trkpt lat="-3.1859130" lon="37.3554870">
    <ele>2378.8</ele>
    <time>2026-06-24T06:51:14Z</time>
   </trkpt>
   <trkpt lat="-3.1859150" lon="37.3554890">
    <ele>2378.8</ele>
    <time>2026-06-24T06:51:15Z</time>
   </trkpt>
   <trkpt lat="-3.1859190" lon="37.3554870">
    <ele>2378.7</ele>
    <time>2026-06-24T06:51:16Z</time>
   </trkpt>
   <trkpt lat="-3.1859260" lon="37.3554830">
    <ele>2378.6</ele>
    <time>2026-06-24T06:51:17Z</time>
   </trkpt>
   <trkpt lat="-3.1859270" lon="37.3554800">
    <ele>2378.5</ele>
    <time>2026-06-24T06:51:18Z</time>
   </trkpt>
   <trkpt lat="-3.1859370" lon="37.3554800">
    <ele>2378.4</ele>
    <time>2026-06-24T06:51:19Z</time>
   </trkpt>
   <trkpt lat="-3.1859450" lon="37.3554820">
    <ele>2378.3</ele>
    <time>2026-06-24T06:51:20Z</time>
   </trkpt>
   <trkpt lat="-3.1859470" lon="37.3554820">
    <ele>2378.2</ele>
    <time>2026-06-24T06:51:21Z</time>
   </trkpt>
   <trkpt lat="-3.1859590" lon="37.3554840">
    <ele>2378.0</ele>
    <time>2026-06-24T06:51:22Z</time>
   </trkpt>
   <trkpt lat="-3.1859660" lon="37.3554910">
    <ele>2377.9</ele>
    <time>2026-06-24T06:51:23Z</time>
   </trkpt>
   <trkpt lat="-3.1859740" lon="37.3554940">
    <ele>2377.7</ele>
    <time>2026-06-24T06:51:24Z</time>
   </trkpt>
   <trkpt lat="-3.1859770" lon="37.3554980">
    <ele>2377.7</ele>
    <time>2026-06-24T06:51:25Z</time>
   </trkpt>
   <trkpt lat="-3.1859810" lon="37.3554960">
    <ele>2377.6</ele>
    <time>2026-06-24T06:51:26Z</time>
   </trkpt>
   <trkpt lat="-3.1859820" lon="37.3554940">
    <ele>2377.6</ele>
    <time>2026-06-24T06:51:27Z</time>
   </trkpt>
   <trkpt lat="-3.1859880" lon="37.3554980">
    <ele>2377.4</ele>
    <time>2026-06-24T06:51:28Z</time>
   </trkpt>
   <trkpt lat="-3.1860020" lon="37.3554910">
    <ele>2377.2</ele>
    <time>2026-06-24T06:51:29Z</time>
   </trkpt>
   <trkpt lat="-3.1860060" lon="37.3554980">
    <ele>2377.1</ele>
    <time>2026-06-24T06:51:30Z</time>
   </trkpt>
   <trkpt lat="-3.1860110" lon="37.3555010">
    <ele>2377.0</ele>
    <time>2026-06-24T06:51:31Z</time>
   </trkpt>
   <trkpt lat="-3.1860150" lon="37.3554970">
    <ele>2376.9</ele>
    <time>2026-06-24T06:51:32Z</time>
   </trkpt>
   <trkpt lat="-3.1860200" lon="37.3554960">
    <ele>2376.8</ele>
    <time>2026-06-24T06:51:33Z</time>
   </trkpt>
   <trkpt lat="-3.1860240" lon="37.3554960">
    <ele>2376.7</ele>
    <time>2026-06-24T06:51:34Z</time>
   </trkpt>
   <trkpt lat="-3.1860320" lon="37.3554930">
    <ele>2376.6</ele>
    <time>2026-06-24T06:51:35Z</time>
   </trkpt>
   <trkpt lat="-3.1860390" lon="37.3554900">
    <ele>2376.5</ele>
    <time>2026-06-24T06:51:36Z</time>
   </trkpt>
   <trkpt lat="-3.1860430" lon="37.3554850">
    <ele>2376.4</ele>
    <time>2026-06-24T06:51:37Z</time>
   </trkpt>
   <trkpt lat="-3.1860500" lon="37.3554810">
    <ele>2376.3</ele>
    <time>2026-06-24T06:51:38Z</time>
   </trkpt>
   <trkpt lat="-3.1860610" lon="37.3554670">
    <ele>2376.0</ele>
    <time>2026-06-24T06:51:39Z</time>
   </trkpt>
   <trkpt lat="-3.1860640" lon="37.3554690">
    <ele>2375.9</ele>
    <time>2026-06-24T06:51:40Z</time>
   </trkpt>
   <trkpt lat="-3.1860730" lon="37.3554610">
    <ele>2375.7</ele>
    <time>2026-06-24T06:51:41Z</time>
   </trkpt>
   <trkpt lat="-3.1860820" lon="37.3554610">
    <ele>2375.6</ele>
    <time>2026-06-24T06:51:42Z</time>
   </trkpt>
   <trkpt lat="-3.1860840" lon="37.3554630">
    <ele>2375.5</ele>
    <time>2026-06-24T06:51:43Z</time>
   </trkpt>
   <trkpt lat="-3.1860860" lon="37.3554590">
    <ele>2375.4</ele>
    <time>2026-06-24T06:51:44Z</time>
   </trkpt>
   <trkpt lat="-3.1860940" lon="37.3554570">
    <ele>2375.3</ele>
    <time>2026-06-24T06:51:45Z</time>
   </trkpt>
   <trkpt lat="-3.1860980" lon="37.3554490">
    <ele>2375.2</ele>
    <time>2026-06-24T06:51:46Z</time>
   </trkpt>
   <trkpt lat="-3.1861040" lon="37.3554510">
    <ele>2375.1</ele>
    <time>2026-06-24T06:51:47Z</time>
   </trkpt>
   <trkpt lat="-3.1861040" lon="37.3554530">
    <ele>2375.0</ele>
    <time>2026-06-24T06:51:48Z</time>
   </trkpt>
   <trkpt lat="-3.1861020" lon="37.3554540">
    <ele>2375.0</ele>
    <time>2026-06-24T06:51:49Z</time>
   </trkpt>
   <trkpt lat="-3.1861080" lon="37.3554530">
    <ele>2374.9</ele>
    <time>2026-06-24T06:51:50Z</time>
   </trkpt>
   <trkpt lat="-3.1861220" lon="37.3554550">
    <ele>2374.7</ele>
    <time>2026-06-24T06:51:51Z</time>
   </trkpt>
   <trkpt lat="-3.1861400" lon="37.3554530">
    <ele>2374.4</ele>
    <time>2026-06-24T06:51:52Z</time>
   </trkpt>
   <trkpt lat="-3.1861470" lon="37.3554500">
    <ele>2374.2</ele>
    <time>2026-06-24T06:51:53Z</time>
   </trkpt>
   <trkpt lat="-3.1861600" lon="37.3554520">
    <ele>2374.0</ele>
    <time>2026-06-24T06:51:54Z</time>
   </trkpt>
   <trkpt lat="-3.1861680" lon="37.3554520">
    <ele>2373.9</ele>
    <time>2026-06-24T06:51:55Z</time>
   </trkpt>
   <trkpt lat="-3.1861820" lon="37.3554550">
    <ele>2373.6</ele>
    <time>2026-06-24T06:51:56Z</time>
   </trkpt>
   <trkpt lat="-3.1861870" lon="37.3554540">
    <ele>2373.5</ele>
    <time>2026-06-24T06:51:57Z</time>
   </trkpt>
   <trkpt lat="-3.1861890" lon="37.3554520">
    <ele>2373.5</ele>
    <time>2026-06-24T06:51:58Z</time>
   </trkpt>
   <trkpt lat="-3.1861890" lon="37.3554510">
    <ele>2373.5</ele>
    <time>2026-06-24T06:51:59Z</time>
   </trkpt>
   <trkpt lat="-3.1861980" lon="37.3554460">
    <ele>2373.3</ele>
    <time>2026-06-24T06:52:00Z</time>
   </trkpt>
   <trkpt lat="-3.1862060" lon="37.3554430">
    <ele>2373.1</ele>
    <time>2026-06-24T06:52:01Z</time>
   </trkpt>
   <trkpt lat="-3.1862100" lon="37.3554410">
    <ele>2373.0</ele>
    <time>2026-06-24T06:52:02Z</time>
   </trkpt>
   <trkpt lat="-3.1862150" lon="37.3554410">
    <ele>2372.9</ele>
    <time>2026-06-24T06:52:03Z</time>
   </trkpt>
   <trkpt lat="-3.1862240" lon="37.3554490">
    <ele>2372.7</ele>
    <time>2026-06-24T06:52:04Z</time>
   </trkpt>
   <trkpt lat="-3.1862310" lon="37.3554460">
    <ele>2372.6</ele>
    <time>2026-06-24T06:52:05Z</time>
   </trkpt>
   <trkpt lat="-3.1862380" lon="37.3554480">
    <ele>2372.4</ele>
    <time>2026-06-24T06:52:06Z</time>
   </trkpt>
   <trkpt lat="-3.1862400" lon="37.3554460">
    <ele>2372.4</ele>
    <time>2026-06-24T06:52:07Z</time>
   </trkpt>
   <trkpt lat="-3.1862480" lon="37.3554530">
    <ele>2372.2</ele>
    <time>2026-06-24T06:52:08Z</time>
   </trkpt>
   <trkpt lat="-3.1862470" lon="37.3554480">
    <ele>2372.1</ele>
    <time>2026-06-24T06:52:09Z</time>
   </trkpt>
   <trkpt lat="-3.1862500" lon="37.3554510">
    <ele>2372.0</ele>
    <time>2026-06-24T06:52:10Z</time>
   </trkpt>
   <trkpt lat="-3.1862560" lon="37.3554570">
    <ele>2371.8</ele>
    <time>2026-06-24T06:52:11Z</time>
   </trkpt>
   <trkpt lat="-3.1862610" lon="37.3554570">
    <ele>2371.7</ele>
    <time>2026-06-24T06:52:12Z</time>
   </trkpt>
   <trkpt lat="-3.1862670" lon="37.3554600">
    <ele>2371.6</ele>
    <time>2026-06-24T06:52:13Z</time>
   </trkpt>
   <trkpt lat="-3.1862760" lon="37.3554660">
    <ele>2371.4</ele>
    <time>2026-06-24T06:52:14Z</time>
   </trkpt>
   <trkpt lat="-3.1862840" lon="37.3554680">
    <ele>2371.2</ele>
    <time>2026-06-24T06:52:15Z</time>
   </trkpt>
   <trkpt lat="-3.1862940" lon="37.3554740">
    <ele>2371.0</ele>
    <time>2026-06-24T06:52:16Z</time>
   </trkpt>
   <trkpt lat="-3.1862970" lon="37.3554770">
    <ele>2370.9</ele>
    <time>2026-06-24T06:52:17Z</time>
   </trkpt>
   <trkpt lat="-3.1862990" lon="37.3554800">
    <ele>2370.8</ele>
    <time>2026-06-24T06:52:18Z</time>
   </trkpt>
   <trkpt lat="-3.1863100" lon="37.3554800">
    <ele>2370.6</ele>
    <time>2026-06-24T06:52:19Z</time>
   </trkpt>
   <trkpt lat="-3.1863090" lon="37.3554800">
    <ele>2370.5</ele>
    <time>2026-06-24T06:52:20Z</time>
   </trkpt>
   <trkpt lat="-3.1863150" lon="37.3554930">
    <ele>2370.2</ele>
    <time>2026-06-24T06:52:21Z</time>
   </trkpt>
   <trkpt lat="-3.1863270" lon="37.3555030">
    <ele>2369.9</ele>
    <time>2026-06-24T06:52:22Z</time>
   </trkpt>
   <trkpt lat="-3.1863380" lon="37.3555060">
    <ele>2369.6</ele>
    <time>2026-06-24T06:52:23Z</time>
   </trkpt>
   <trkpt lat="-3.1863460" lon="37.3555220">
    <ele>2369.3</ele>
    <time>2026-06-24T06:52:24Z</time>
   </trkpt>
   <trkpt lat="-3.1863530" lon="37.3555280">
    <ele>2369.1</ele>
    <time>2026-06-24T06:52:25Z</time>
   </trkpt>
   <trkpt lat="-3.1863620" lon="37.3555340">
    <ele>2368.8</ele>
    <time>2026-06-24T06:52:26Z</time>
   </trkpt>
   <trkpt lat="-3.1863670" lon="37.3555340">
    <ele>2368.7</ele>
    <time>2026-06-24T06:52:27Z</time>
   </trkpt>
   <trkpt lat="-3.1863760" lon="37.3555370">
    <ele>2368.5</ele>
    <time>2026-06-24T06:52:28Z</time>
   </trkpt>
   <trkpt lat="-3.1863830" lon="37.3555370">
    <ele>2368.3</ele>
    <time>2026-06-24T06:52:29Z</time>
   </trkpt>
   <trkpt lat="-3.1863830" lon="37.3555370">
    <ele>2368.3</ele>
    <time>2026-06-24T06:52:30Z</time>
   </trkpt>
   <trkpt lat="-3.1863880" lon="37.3555400">
    <ele>2368.2</ele>
    <time>2026-06-24T06:52:31Z</time>
   </trkpt>
   <trkpt lat="-3.1863920" lon="37.3555390">
    <ele>2368.1</ele>
    <time>2026-06-24T06:52:32Z</time>
   </trkpt>
   <trkpt lat="-3.1863960" lon="37.3555410">
    <ele>2368.0</ele>
    <time>2026-06-24T06:52:33Z</time>
   </trkpt>
   <trkpt lat="-3.1864020" lon="37.3555400">
    <ele>2367.9</ele>
    <time>2026-06-24T06:52:34Z</time>
   </trkpt>
   <trkpt lat="-3.1864020" lon="37.3555360">
    <ele>2367.8</ele>
    <time>2026-06-24T06:52:35Z</time>
   </trkpt>
   <trkpt lat="-3.1864050" lon="37.3555390">
    <ele>2367.7</ele>
    <time>2026-06-24T06:52:36Z</time>
   </trkpt>
   <trkpt lat="-3.1864170" lon="37.3555450">
    <ele>2367.4</ele>
    <time>2026-06-24T06:52:37Z</time>
   </trkpt>
   <trkpt lat="-3.1864170" lon="37.3555500">
    <ele>2367.3</ele>
    <time>2026-06-24T06:52:38Z</time>
   </trkpt>
   <trkpt lat="-3.1864180" lon="37.3555480">
    <ele>2367.2</ele>
    <time>2026-06-24T06:52:39Z</time>
   </trkpt>
   <trkpt lat="-3.1864250" lon="37.3555470">
    <ele>2367.1</ele>
    <time>2026-06-24T06:52:40Z</time>
   </trkpt>
   <trkpt lat="-3.1864210" lon="37.3555470">
    <ele>2367.0</ele>
    <time>2026-06-24T06:52:41Z</time>
   </trkpt>
   <trkpt lat="-3.1864280" lon="37.3555460">
    <ele>2366.8</ele>
    <time>2026-06-24T06:52:42Z</time>
   </trkpt>
   <trkpt lat="-3.1864410" lon="37.3555530">
    <ele>2366.5</ele>
    <time>2026-06-24T06:52:43Z</time>
   </trkpt>
   <trkpt lat="-3.1864450" lon="37.3555500">
    <ele>2366.4</ele>
    <time>2026-06-24T06:52:44Z</time>
   </trkpt>
   <trkpt lat="-3.1864500" lon="37.3555490">
    <ele>2366.2</ele>
    <time>2026-06-24T06:52:45Z</time>
   </trkpt>
   <trkpt lat="-3.1864610" lon="37.3555530">
    <ele>2366.0</ele>
    <time>2026-06-24T06:52:46Z</time>
   </trkpt>
   <trkpt lat="-3.1864630" lon="37.3555490">
    <ele>2365.8</ele>
    <time>2026-06-24T06:52:47Z</time>
   </trkpt>
   <trkpt lat="-3.1864710" lon="37.3555450">
    <ele>2365.6</ele>
    <time>2026-06-24T06:52:48Z</time>
   </trkpt>
   <trkpt lat="-3.1864810" lon="37.3555440">
    <ele>2365.4</ele>
    <time>2026-06-24T06:52:49Z</time>
   </trkpt>
   <trkpt lat="-3.1864900" lon="37.3555500">
    <ele>2365.1</ele>
    <time>2026-06-24T06:52:50Z</time>
   </trkpt>
   <trkpt lat="-3.1864940" lon="37.3555540">
    <ele>2365.0</ele>
    <time>2026-06-24T06:52:51Z</time>
   </trkpt>
   <trkpt lat="-3.1864980" lon="37.3555560">
    <ele>2364.9</ele>
    <time>2026-06-24T06:52:52Z</time>
   </trkpt>
   <trkpt lat="-3.1865040" lon="37.3555570">
    <ele>2364.7</ele>
    <time>2026-06-24T06:52:53Z</time>
   </trkpt>
   <trkpt lat="-3.1865130" lon="37.3555540">
    <ele>2364.5</ele>
    <time>2026-06-24T06:52:54Z</time>
   </trkpt>
   <trkpt lat="-3.1865220" lon="37.3555550">
    <ele>2364.2</ele>
    <time>2026-06-24T06:52:55Z</time>
   </trkpt>
   <trkpt lat="-3.1865310" lon="37.3555520">
    <ele>2364.0</ele>
    <time>2026-06-24T06:52:56Z</time>
   </trkpt>
   <trkpt lat="-3.1865340" lon="37.3555490">
    <ele>2363.9</ele>
    <time>2026-06-24T06:52:57Z</time>
   </trkpt>
   <trkpt lat="-3.1865350" lon="37.3555510">
    <ele>2363.8</ele>
    <time>2026-06-24T06:52:58Z</time>
   </trkpt>
   <trkpt lat="-3.1865420" lon="37.3555560">
    <ele>2363.6</ele>
    <time>2026-06-24T06:52:59Z</time>
   </trkpt>
   <trkpt lat="-3.1865480" lon="37.3555610">
    <ele>2363.4</ele>
    <time>2026-06-24T06:53:00Z</time>
   </trkpt>
   <trkpt lat="-3.1865530" lon="37.3555640">
    <ele>2363.3</ele>
    <time>2026-06-24T06:53:01Z</time>
   </trkpt>
   <trkpt lat="-3.1865530" lon="37.3555640">
    <ele>2363.3</ele>
    <time>2026-06-24T06:53:02Z</time>
   </trkpt>
   <trkpt lat="-3.1865560" lon="37.3555640">
    <ele>2363.2</ele>
    <time>2026-06-24T06:53:03Z</time>
   </trkpt>
   <trkpt lat="-3.1865620" lon="37.3555620">
    <ele>2363.0</ele>
    <time>2026-06-24T06:53:04Z</time>
   </trkpt>
   <trkpt lat="-3.1865660" lon="37.3555640">
    <ele>2362.9</ele>
    <time>2026-06-24T06:53:05Z</time>
   </trkpt>
   <trkpt lat="-3.1865700" lon="37.3555650">
    <ele>2362.8</ele>
    <time>2026-06-24T06:53:06Z</time>
   </trkpt>
   <trkpt lat="-3.1865740" lon="37.3555670">
    <ele>2362.7</ele>
    <time>2026-06-24T06:53:07Z</time>
   </trkpt>
   <trkpt lat="-3.1865790" lon="37.3555700">
    <ele>2362.5</ele>
    <time>2026-06-24T06:53:08Z</time>
   </trkpt>
   <trkpt lat="-3.1865780" lon="37.3555770">
    <ele>2362.3</ele>
    <time>2026-06-24T06:53:09Z</time>
   </trkpt>
   <trkpt lat="-3.1865820" lon="37.3555780">
    <ele>2362.2</ele>
    <time>2026-06-24T06:53:10Z</time>
   </trkpt>
   <trkpt lat="-3.1865900" lon="37.3555790">
    <ele>2362.0</ele>
    <time>2026-06-24T06:53:11Z</time>
   </trkpt>
   <trkpt lat="-3.1865960" lon="37.3555790">
    <ele>2361.8</ele>
    <time>2026-06-24T06:53:12Z</time>
   </trkpt>
   <trkpt lat="-3.1866000" lon="37.3555790">
    <ele>2361.7</ele>
    <time>2026-06-24T06:53:13Z</time>
   </trkpt>
   <trkpt lat="-3.1866070" lon="37.3555800">
    <ele>2361.5</ele>
    <time>2026-06-24T06:53:14Z</time>
   </trkpt>
   <trkpt lat="-3.1866060" lon="37.3555740">
    <ele>2361.3</ele>
    <time>2026-06-24T06:53:15Z</time>
   </trkpt>
   <trkpt lat="-3.1866120" lon="37.3555750">
    <ele>2361.2</ele>
    <time>2026-06-24T06:53:16Z</time>
   </trkpt>
   <trkpt lat="-3.1866210" lon="37.3555740">
    <ele>2360.9</ele>
    <time>2026-06-24T06:53:17Z</time>
   </trkpt>
   <trkpt lat="-3.1866200" lon="37.3555720">
    <ele>2360.8</ele>
    <time>2026-06-24T06:53:18Z</time>
   </trkpt>
   <trkpt lat="-3.1866210" lon="37.3555730">
    <ele>2360.8</ele>
    <time>2026-06-24T06:53:19Z</time>
   </trkpt>
   <trkpt lat="-3.1866300" lon="37.3555740">
    <ele>2360.5</ele>
    <time>2026-06-24T06:53:20Z</time>
   </trkpt>
   <trkpt lat="-3.1866350" lon="37.3555740">
    <ele>2360.4</ele>
    <time>2026-06-24T06:53:21Z</time>
   </trkpt>
   <trkpt lat="-3.1866380" lon="37.3555720">
    <ele>2360.3</ele>
    <time>2026-06-24T06:53:22Z</time>
   </trkpt>
   <trkpt lat="-3.1866400" lon="37.3555660">
    <ele>2360.1</ele>
    <time>2026-06-24T06:53:23Z</time>
   </trkpt>
   <trkpt lat="-3.1866440" lon="37.3555640">
    <ele>2360.0</ele>
    <time>2026-06-24T06:53:24Z</time>
   </trkpt>
   <trkpt lat="-3.1866440" lon="37.3555590">
    <ele>2359.8</ele>
    <time>2026-06-24T06:53:25Z</time>
   </trkpt>
   <trkpt lat="-3.1866470" lon="37.3555490">
    <ele>2359.5</ele>
    <time>2026-06-24T06:53:26Z</time>
   </trkpt>
   <trkpt lat="-3.1866490" lon="37.3555460">
    <ele>2359.4</ele>
    <time>2026-06-24T06:53:27Z</time>
   </trkpt>
   <trkpt lat="-3.1866560" lon="37.3555370">
    <ele>2359.1</ele>
    <time>2026-06-24T06:53:28Z</time>
   </trkpt>
   <trkpt lat="-3.1866610" lon="37.3555290">
    <ele>2358.8</ele>
    <time>2026-06-24T06:53:29Z</time>
   </trkpt>
   <trkpt lat="-3.1866590" lon="37.3555280">
    <ele>2358.7</ele>
    <time>2026-06-24T06:53:30Z</time>
   </trkpt>
   <trkpt lat="-3.1866780" lon="37.3555100">
    <ele>2357.9</ele>
    <time>2026-06-24T06:53:31Z</time>
   </trkpt>
   <trkpt lat="-3.1866820" lon="37.3555020">
    <ele>2357.6</ele>
    <time>2026-06-24T06:53:32Z</time>
   </trkpt>
   <trkpt lat="-3.1866800" lon="37.3554990">
    <ele>2357.5</ele>
    <time>2026-06-24T06:53:33Z</time>
   </trkpt>
   <trkpt lat="-3.1866860" lon="37.3554970">
    <ele>2357.3</ele>
    <time>2026-06-24T06:53:34Z</time>
   </trkpt>
   <trkpt lat="-3.1866950" lon="37.3554930">
    <ele>2357.0</ele>
    <time>2026-06-24T06:53:35Z</time>
   </trkpt>
   <trkpt lat="-3.1866930" lon="37.3554890">
    <ele>2356.8</ele>
    <time>2026-06-24T06:53:36Z</time>
   </trkpt>
   <trkpt lat="-3.1866950" lon="37.3554880">
    <ele>2356.8</ele>
    <time>2026-06-24T06:53:37Z</time>
   </trkpt>
   <trkpt lat="-3.1866990" lon="37.3554880">
    <ele>2356.6</ele>
    <time>2026-06-24T06:53:38Z</time>
   </trkpt>
   <trkpt lat="-3.1866990" lon="37.3554880">
    <ele>2356.6</ele>
    <time>2026-06-24T06:53:39Z</time>
   </trkpt>
   <trkpt lat="-3.1866980" lon="37.3554880">
    <ele>2356.6</ele>
    <time>2026-06-24T06:53:40Z</time>
   </trkpt>
   <trkpt lat="-3.1867090" lon="37.3554840">
    <ele>2356.2</ele>
    <time>2026-06-24T06:53:41Z</time>
   </trkpt>
   <trkpt lat="-3.1867100" lon="37.3554850">
    <ele>2356.2</ele>
    <time>2026-06-24T06:53:42Z</time>
   </trkpt>
   <trkpt lat="-3.1867050" lon="37.3554840">
    <ele>2356.0</ele>
    <time>2026-06-24T06:53:43Z</time>
   </trkpt>
   <trkpt lat="-3.1867070" lon="37.3554800">
    <ele>2355.9</ele>
    <time>2026-06-24T06:53:44Z</time>
   </trkpt>
   <trkpt lat="-3.1867060" lon="37.3554770">
    <ele>2355.8</ele>
    <time>2026-06-24T06:53:45Z</time>
   </trkpt>
   <trkpt lat="-3.1867030" lon="37.3554800">
    <ele>2355.7</ele>
    <time>2026-06-24T06:53:46Z</time>
   </trkpt>
   <trkpt lat="-3.1867020" lon="37.3554780">
    <ele>2355.6</ele>
    <time>2026-06-24T06:53:47Z</time>
   </trkpt>
   <trkpt lat="-3.1867040" lon="37.3554780">
    <ele>2355.5</ele>
    <time>2026-06-24T06:53:48Z</time>
   </trkpt>
   <trkpt lat="-3.1867010" lon="37.3554770">
    <ele>2355.4</ele>
    <time>2026-06-24T06:53:49Z</time>
   </trkpt>
   <trkpt lat="-3.1867030" lon="37.3554750">
    <ele>2355.3</ele>
    <time>2026-06-24T06:53:50Z</time>
   </trkpt>
   <trkpt lat="-3.1867090" lon="37.3554730">
    <ele>2355.1</ele>
    <time>2026-06-24T06:53:51Z</time>
   </trkpt>
   <trkpt lat="-3.1867080" lon="37.3554720">
    <ele>2355.1</ele>
    <time>2026-06-24T06:53:52Z</time>
   </trkpt>
   <trkpt lat="-3.1867050" lon="37.3554710">
    <ele>2355.0</ele>
    <time>2026-06-24T06:53:53Z</time>
   </trkpt>
   <trkpt lat="-3.1867060" lon="37.3554740">
    <ele>2354.9</ele>
    <time>2026-06-24T06:53:54Z</time>
   </trkpt>
   <trkpt lat="-3.1867140" lon="37.3554710">
    <ele>2354.6</ele>
    <time>2026-06-24T06:53:55Z</time>
   </trkpt>
   <trkpt lat="-3.1867150" lon="37.3554690">
    <ele>2354.5</ele>
    <time>2026-06-24T06:53:56Z</time>
   </trkpt>
   <trkpt lat="-3.1867170" lon="37.3554690">
    <ele>2354.5</ele>
    <time>2026-06-24T06:53:57Z</time>
   </trkpt>
   <trkpt lat="-3.1867210" lon="37.3554680">
    <ele>2354.4</ele>
    <time>2026-06-24T06:53:58Z</time>
   </trkpt>
   <trkpt lat="-3.1867300" lon="37.3554690">
    <ele>2354.1</ele>
    <time>2026-06-24T06:53:59Z</time>
   </trkpt>
   <trkpt lat="-3.1867310" lon="37.3554690">
    <ele>2354.0</ele>
    <time>2026-06-24T06:54:00Z</time>
   </trkpt>
   <trkpt lat="-3.1867360" lon="37.3554720">
    <ele>2353.9</ele>
    <time>2026-06-24T06:54:01Z</time>
   </trkpt>
   <trkpt lat="-3.1867400" lon="37.3554740">
    <ele>2353.7</ele>
    <time>2026-06-24T06:54:02Z</time>
   </trkpt>
   <trkpt lat="-3.1867420" lon="37.3554720">
    <ele>2353.6</ele>
    <time>2026-06-24T06:54:03Z</time>
   </trkpt>
   <trkpt lat="-3.1867460" lon="37.3554700">
    <ele>2353.5</ele>
    <time>2026-06-24T06:54:04Z</time>
   </trkpt>
   <trkpt lat="-3.1867460" lon="37.3554670">
    <ele>2353.4</ele>
    <time>2026-06-24T06:54:05Z</time>
   </trkpt>
   <trkpt lat="-3.1867470" lon="37.3554730">
    <ele>2353.2</ele>
    <time>2026-06-24T06:54:06Z</time>
   </trkpt>
   <trkpt lat="-3.1867550" lon="37.3554690">
    <ele>2352.9</ele>
    <time>2026-06-24T06:54:07Z</time>
   </trkpt>
   <trkpt lat="-3.1867550" lon="37.3554720">
    <ele>2352.8</ele>
    <time>2026-06-24T06:54:08Z</time>
   </trkpt>
   <trkpt lat="-3.1867590" lon="37.3554700">
    <ele>2352.7</ele>
    <time>2026-06-24T06:54:09Z</time>
   </trkpt>
   <trkpt lat="-3.1867580" lon="37.3554720">
    <ele>2352.6</ele>
    <time>2026-06-24T06:54:10Z</time>
   </trkpt>
   <trkpt lat="-3.1867620" lon="37.3554660">
    <ele>2352.4</ele>
    <time>2026-06-24T06:54:11Z</time>
   </trkpt>
   <trkpt lat="-3.1867720" lon="37.3554650">
    <ele>2352.1</ele>
    <time>2026-06-24T06:54:12Z</time>
   </trkpt>
   <trkpt lat="-3.1867750" lon="37.3554650">
    <ele>2352.1</ele>
    <time>2026-06-24T06:54:13Z</time>
   </trkpt>
   <trkpt lat="-3.1867730" lon="37.3554650">
    <ele>2352.0</ele>
    <time>2026-06-24T06:54:14Z</time>
   </trkpt>
   <trkpt lat="-3.1867760" lon="37.3554670">
    <ele>2351.9</ele>
    <time>2026-06-24T06:54:15Z</time>
   </trkpt>
   <trkpt lat="-3.1867840" lon="37.3554680">
    <ele>2351.6</ele>
    <time>2026-06-24T06:54:16Z</time>
   </trkpt>
   <trkpt lat="-3.1867860" lon="37.3554680">
    <ele>2351.6</ele>
    <time>2026-06-24T06:54:17Z</time>
   </trkpt>
   <trkpt lat="-3.1867880" lon="37.3554640">
    <ele>2351.5</ele>
    <time>2026-06-24T06:54:18Z</time>
   </trkpt>
   <trkpt lat="-3.1867910" lon="37.3554640">
    <ele>2351.4</ele>
    <time>2026-06-24T06:54:19Z</time>
   </trkpt>
   <trkpt lat="-3.1867940" lon="37.3554650">
    <ele>2351.3</ele>
    <time>2026-06-24T06:54:20Z</time>
   </trkpt>
   <trkpt lat="-3.1868020" lon="37.3554670">
    <ele>2351.1</ele>
    <time>2026-06-24T06:54:21Z</time>
   </trkpt>
   <trkpt lat="-3.1868030" lon="37.3554660">
    <ele>2351.0</ele>
    <time>2026-06-24T06:54:22Z</time>
   </trkpt>
   <trkpt lat="-3.1868050" lon="37.3554670">
    <ele>2351.0</ele>
    <time>2026-06-24T06:54:23Z</time>
   </trkpt>
   <trkpt lat="-3.1868080" lon="37.3554700">
    <ele>2350.9</ele>
    <time>2026-06-24T06:54:24Z</time>
   </trkpt>
   <trkpt lat="-3.1868180" lon="37.3554740">
    <ele>2350.6</ele>
    <time>2026-06-24T06:54:25Z</time>
   </trkpt>
   <trkpt lat="-3.1868250" lon="37.3554800">
    <ele>2350.3</ele>
    <time>2026-06-24T06:54:26Z</time>
   </trkpt>
   <trkpt lat="-3.1868400" lon="37.3554880">
    <ele>2349.9</ele>
    <time>2026-06-24T06:54:27Z</time>
   </trkpt>
   <trkpt lat="-3.1868460" lon="37.3554890">
    <ele>2349.7</ele>
    <time>2026-06-24T06:54:28Z</time>
   </trkpt>
   <trkpt lat="-3.1868510" lon="37.3554860">
    <ele>2349.6</ele>
    <time>2026-06-24T06:54:29Z</time>
   </trkpt>
   <trkpt lat="-3.1868430" lon="37.3554770">
    <ele>2349.3</ele>
    <time>2026-06-24T06:54:30Z</time>
   </trkpt>
   <trkpt lat="-3.1868500" lon="37.3554730">
    <ele>2349.1</ele>
    <time>2026-06-24T06:54:31Z</time>
   </trkpt>
   <trkpt lat="-3.1868530" lon="37.3554650">
    <ele>2348.9</ele>
    <time>2026-06-24T06:54:32Z</time>
   </trkpt>
   <trkpt lat="-3.1868560" lon="37.3554540">
    <ele>2348.6</ele>
    <time>2026-06-24T06:54:33Z</time>
   </trkpt>
   <trkpt lat="-3.1868550" lon="37.3554530">
    <ele>2348.6</ele>
    <time>2026-06-24T06:54:34Z</time>
   </trkpt>
   <trkpt lat="-3.1868550" lon="37.3554510">
    <ele>2348.6</ele>
    <time>2026-06-24T06:54:35Z</time>
   </trkpt>
   <trkpt lat="-3.1868600" lon="37.3554490">
    <ele>2348.4</ele>
    <time>2026-06-24T06:54:36Z</time>
   </trkpt>
   <trkpt lat="-3.1868680" lon="37.3554400">
    <ele>2348.2</ele>
    <time>2026-06-24T06:54:37Z</time>
   </trkpt>
   <trkpt lat="-3.1868760" lon="37.3554370">
    <ele>2348.0</ele>
    <time>2026-06-24T06:54:38Z</time>
   </trkpt>
   <trkpt lat="-3.1868770" lon="37.3554350">
    <ele>2348.0</ele>
    <time>2026-06-24T06:54:39Z</time>
   </trkpt>
   <trkpt lat="-3.1868830" lon="37.3554330">
    <ele>2347.8</ele>
    <time>2026-06-24T06:54:40Z</time>
   </trkpt>
   <trkpt lat="-3.1868920" lon="37.3554310">
    <ele>2347.6</ele>
    <time>2026-06-24T06:54:41Z</time>
   </trkpt>
   <trkpt lat="-3.1868980" lon="37.3554310">
    <ele>2347.5</ele>
    <time>2026-06-24T06:54:42Z</time>
   </trkpt>
   <trkpt lat="-3.1869050" lon="37.3554330">
    <ele>2347.4</ele>
    <time>2026-06-24T06:54:43Z</time>
   </trkpt>
   <trkpt lat="-3.1869090" lon="37.3554350">
    <ele>2347.3</ele>
    <time>2026-06-24T06:54:44Z</time>
   </trkpt>
   <trkpt lat="-3.1869120" lon="37.3554370">
    <ele>2347.2</ele>
    <time>2026-06-24T06:54:45Z</time>
   </trkpt>
   <trkpt lat="-3.1869180" lon="37.3554370">
    <ele>2347.1</ele>
    <time>2026-06-24T06:54:46Z</time>
   </trkpt>
   <trkpt lat="-3.1869180" lon="37.3554400">
    <ele>2347.0</ele>
    <time>2026-06-24T06:54:47Z</time>
   </trkpt>
   <trkpt lat="-3.1869200" lon="37.3554390">
    <ele>2347.0</ele>
    <time>2026-06-24T06:54:48Z</time>
   </trkpt>
   <trkpt lat="-3.1869200" lon="37.3554410">
    <ele>2347.0</ele>
    <time>2026-06-24T06:54:49Z</time>
   </trkpt>
   <trkpt lat="-3.1869280" lon="37.3554500">
    <ele>2346.7</ele>
    <time>2026-06-24T06:54:50Z</time>
   </trkpt>
   <trkpt lat="-3.1869370" lon="37.3554470">
    <ele>2346.6</ele>
    <time>2026-06-24T06:54:51Z</time>
   </trkpt>
   <trkpt lat="-3.1869450" lon="37.3554470">
    <ele>2346.4</ele>
    <time>2026-06-24T06:54:52Z</time>
   </trkpt>
   <trkpt lat="-3.1869520" lon="37.3554480">
    <ele>2346.3</ele>
    <time>2026-06-24T06:54:53Z</time>
   </trkpt>
   <trkpt lat="-3.1869560" lon="37.3554520">
    <ele>2346.2</ele>
    <time>2026-06-24T06:54:54Z</time>
   </trkpt>
   <trkpt lat="-3.1869650" lon="37.3554520">
    <ele>2346.1</ele>
    <time>2026-06-24T06:54:55Z</time>
   </trkpt>
   <trkpt lat="-3.1869690" lon="37.3554540">
    <ele>2346.0</ele>
    <time>2026-06-24T06:54:56Z</time>
   </trkpt>
   <trkpt lat="-3.1869730" lon="37.3554540">
    <ele>2345.9</ele>
    <time>2026-06-24T06:54:57Z</time>
   </trkpt>
   <trkpt lat="-3.1869840" lon="37.3554580">
    <ele>2345.7</ele>
    <time>2026-06-24T06:54:58Z</time>
   </trkpt>
   <trkpt lat="-3.1869950" lon="37.3554600">
    <ele>2345.5</ele>
    <time>2026-06-24T06:54:59Z</time>
   </trkpt>
   <trkpt lat="-3.1870070" lon="37.3554580">
    <ele>2345.4</ele>
    <time>2026-06-24T06:55:00Z</time>
   </trkpt>
   <trkpt lat="-3.1870100" lon="37.3554730">
    <ele>2345.1</ele>
    <time>2026-06-24T06:55:01Z</time>
   </trkpt>
   <trkpt lat="-3.1870180" lon="37.3554720">
    <ele>2345.0</ele>
    <time>2026-06-24T06:55:02Z</time>
   </trkpt>
   <trkpt lat="-3.1870300" lon="37.3554680">
    <ele>2344.9</ele>
    <time>2026-06-24T06:55:03Z</time>
   </trkpt>
   <trkpt lat="-3.1870340" lon="37.3554690">
    <ele>2344.8</ele>
    <time>2026-06-24T06:55:04Z</time>
   </trkpt>
   <trkpt lat="-3.1870380" lon="37.3554690">
    <ele>2344.7</ele>
    <time>2026-06-24T06:55:05Z</time>
   </trkpt>
   <trkpt lat="-3.1870440" lon="37.3554640">
    <ele>2344.6</ele>
    <time>2026-06-24T06:55:06Z</time>
   </trkpt>
   <trkpt lat="-3.1870500" lon="37.3554620">
    <ele>2344.5</ele>
    <time>2026-06-24T06:55:07Z</time>
   </trkpt>
   <trkpt lat="-3.1870510" lon="37.3554640">
    <ele>2344.5</ele>
    <time>2026-06-24T06:55:08Z</time>
   </trkpt>
   <trkpt lat="-3.1870550" lon="37.3554660">
    <ele>2344.5</ele>
    <time>2026-06-24T06:55:09Z</time>
   </trkpt>
   <trkpt lat="-3.1870650" lon="37.3554610">
    <ele>2344.3</ele>
    <time>2026-06-24T06:55:10Z</time>
   </trkpt>
   <trkpt lat="-3.1870790" lon="37.3554630">
    <ele>2344.1</ele>
    <time>2026-06-24T06:55:11Z</time>
   </trkpt>
   <trkpt lat="-3.1870960" lon="37.3554580">
    <ele>2343.9</ele>
    <time>2026-06-24T06:55:12Z</time>
   </trkpt>
   <trkpt lat="-3.1871040" lon="37.3554590">
    <ele>2343.8</ele>
    <time>2026-06-24T06:55:13Z</time>
   </trkpt>
   <trkpt lat="-3.1871160" lon="37.3554570">
    <ele>2343.6</ele>
    <time>2026-06-24T06:55:14Z</time>
   </trkpt>
   <trkpt lat="-3.1871250" lon="37.3554560">
    <ele>2343.5</ele>
    <time>2026-06-24T06:55:15Z</time>
   </trkpt>
   <trkpt lat="-3.1871320" lon="37.3554640">
    <ele>2343.4</ele>
    <time>2026-06-24T06:55:16Z</time>
   </trkpt>
   <trkpt lat="-3.1871390" lon="37.3554680">
    <ele>2343.2</ele>
    <time>2026-06-24T06:55:17Z</time>
   </trkpt>
   <trkpt lat="-3.1871420" lon="37.3554730">
    <ele>2343.2</ele>
    <time>2026-06-24T06:55:18Z</time>
   </trkpt>
   <trkpt lat="-3.1871510" lon="37.3554800">
    <ele>2343.0</ele>
    <time>2026-06-24T06:55:19Z</time>
   </trkpt>
   <trkpt lat="-3.1871580" lon="37.3554840">
    <ele>2342.9</ele>
    <time>2026-06-24T06:55:20Z</time>
   </trkpt>
   <trkpt lat="-3.1871620" lon="37.3554870">
    <ele>2342.8</ele>
    <time>2026-06-24T06:55:21Z</time>
   </trkpt>
   <trkpt lat="-3.1871670" lon="37.3554920">
    <ele>2342.7</ele>
    <time>2026-06-24T06:55:22Z</time>
   </trkpt>
   <trkpt lat="-3.1871750" lon="37.3555030">
    <ele>2342.5</ele>
    <time>2026-06-24T06:55:23Z</time>
   </trkpt>
   <trkpt lat="-3.1871770" lon="37.3555040">
    <ele>2342.5</ele>
    <time>2026-06-24T06:55:24Z</time>
   </trkpt>
   <trkpt lat="-3.1871810" lon="37.3555040">
    <ele>2342.4</ele>
    <time>2026-06-24T06:55:25Z</time>
   </trkpt>
   <trkpt lat="-3.1871920" lon="37.3555090">
    <ele>2342.2</ele>
    <time>2026-06-24T06:55:26Z</time>
   </trkpt>
   <trkpt lat="-3.1872060" lon="37.3555140">
    <ele>2342.0</ele>
    <time>2026-06-24T06:55:27Z</time>
   </trkpt>
   <trkpt lat="-3.1872190" lon="37.3555140">
    <ele>2341.8</ele>
    <time>2026-06-24T06:55:28Z</time>
   </trkpt>
   <trkpt lat="-3.1872230" lon="37.3555120">
    <ele>2341.7</ele>
    <time>2026-06-24T06:55:29Z</time>
   </trkpt>
   <trkpt lat="-3.1872260" lon="37.3555120">
    <ele>2341.7</ele>
    <time>2026-06-24T06:55:30Z</time>
   </trkpt>
   <trkpt lat="-3.1872320" lon="37.3555140">
    <ele>2341.6</ele>
    <time>2026-06-24T06:55:31Z</time>
   </trkpt>
   <trkpt lat="-3.1872330" lon="37.3555070">
    <ele>2341.5</ele>
    <time>2026-06-24T06:55:32Z</time>
   </trkpt>
   <trkpt lat="-3.1872280" lon="37.3555080">
    <ele>2341.4</ele>
    <time>2026-06-24T06:55:33Z</time>
   </trkpt>
   <trkpt lat="-3.1872350" lon="37.3555110">
    <ele>2341.2</ele>
    <time>2026-06-24T06:55:34Z</time>
   </trkpt>
   <trkpt lat="-3.1872430" lon="37.3555160">
    <ele>2341.1</ele>
    <time>2026-06-24T06:55:35Z</time>
   </trkpt>
   <trkpt lat="-3.1872460" lon="37.3555110">
    <ele>2341.0</ele>
    <time>2026-06-24T06:55:36Z</time>
   </trkpt>
   <trkpt lat="-3.1872480" lon="37.3555120">
    <ele>2340.9</ele>
    <time>2026-06-24T06:55:37Z</time>
   </trkpt>
   <trkpt lat="-3.1872490" lon="37.3555120">
    <ele>2340.9</ele>
    <time>2026-06-24T06:55:38Z</time>
   </trkpt>
   <trkpt lat="-3.1872500" lon="37.3555090">
    <ele>2340.9</ele>
    <time>2026-06-24T06:55:39Z</time>
   </trkpt>
   <trkpt lat="-3.1872500" lon="37.3555120">
    <ele>2340.8</ele>
    <time>2026-06-24T06:55:40Z</time>
   </trkpt>
   <trkpt lat="-3.1872610" lon="37.3555050">
    <ele>2340.6</ele>
    <time>2026-06-24T06:55:41Z</time>
   </trkpt>
   <trkpt lat="-3.1872650" lon="37.3554980">
    <ele>2340.4</ele>
    <time>2026-06-24T06:55:42Z</time>
   </trkpt>
   <trkpt lat="-3.1872730" lon="37.3554940">
    <ele>2340.3</ele>
    <time>2026-06-24T06:55:43Z</time>
   </trkpt>
   <trkpt lat="-3.1872750" lon="37.3554930">
    <ele>2340.2</ele>
    <time>2026-06-24T06:55:44Z</time>
   </trkpt>
   <trkpt lat="-3.1872830" lon="37.3554850">
    <ele>2340.0</ele>
    <time>2026-06-24T06:55:45Z</time>
   </trkpt>
   <trkpt lat="-3.1872890" lon="37.3554820">
    <ele>2339.9</ele>
    <time>2026-06-24T06:55:46Z</time>
   </trkpt>
   <trkpt lat="-3.1872980" lon="37.3554790">
    <ele>2339.7</ele>
    <time>2026-06-24T06:55:47Z</time>
   </trkpt>
   <trkpt lat="-3.1872960" lon="37.3554760">
    <ele>2339.7</ele>
    <time>2026-06-24T06:55:48Z</time>
   </trkpt>
   <trkpt lat="-3.1873010" lon="37.3554690">
    <ele>2339.5</ele>
    <time>2026-06-24T06:55:49Z</time>
   </trkpt>
   <trkpt lat="-3.1873080" lon="37.3554660">
    <ele>2339.4</ele>
    <time>2026-06-24T06:55:50Z</time>
   </trkpt>
   <trkpt lat="-3.1873090" lon="37.3554620">
    <ele>2339.3</ele>
    <time>2026-06-24T06:55:51Z</time>
   </trkpt>
   <trkpt lat="-3.1873140" lon="37.3554590">
    <ele>2339.2</ele>
    <time>2026-06-24T06:55:52Z</time>
   </trkpt>
   <trkpt lat="-3.1873180" lon="37.3554610">
    <ele>2339.1</ele>
    <time>2026-06-24T06:55:53Z</time>
   </trkpt>
   <trkpt lat="-3.1873210" lon="37.3554600">
    <ele>2339.0</ele>
    <time>2026-06-24T06:55:54Z</time>
   </trkpt>
   <trkpt lat="-3.1873280" lon="37.3554580">
    <ele>2338.9</ele>
    <time>2026-06-24T06:55:55Z</time>
   </trkpt>
   <trkpt lat="-3.1873370" lon="37.3554540">
    <ele>2338.7</ele>
    <time>2026-06-24T06:55:56Z</time>
   </trkpt>
   <trkpt lat="-3.1873430" lon="37.3554490">
    <ele>2338.6</ele>
    <time>2026-06-24T06:55:57Z</time>
   </trkpt>
   <trkpt lat="-3.1873470" lon="37.3554470">
    <ele>2338.5</ele>
    <time>2026-06-24T06:55:58Z</time>
   </trkpt>
   <trkpt lat="-3.1873500" lon="37.3554440">
    <ele>2338.4</ele>
    <time>2026-06-24T06:55:59Z</time>
   </trkpt>
   <trkpt lat="-3.1873550" lon="37.3554450">
    <ele>2338.3</ele>
    <time>2026-06-24T06:56:00Z</time>
   </trkpt>
   <trkpt lat="-3.1873600" lon="37.3554470">
    <ele>2338.2</ele>
    <time>2026-06-24T06:56:01Z</time>
   </trkpt>
   <trkpt lat="-3.1873670" lon="37.3554420">
    <ele>2338.1</ele>
    <time>2026-06-24T06:56:02Z</time>
   </trkpt>
   <trkpt lat="-3.1873720" lon="37.3554410">
    <ele>2338.0</ele>
    <time>2026-06-24T06:56:03Z</time>
   </trkpt>
   <trkpt lat="-3.1873750" lon="37.3554400">
    <ele>2337.9</ele>
    <time>2026-06-24T06:56:04Z</time>
   </trkpt>
   <trkpt lat="-3.1873830" lon="37.3554340">
    <ele>2337.7</ele>
    <time>2026-06-24T06:56:05Z</time>
   </trkpt>
   <trkpt lat="-3.1873890" lon="37.3554270">
    <ele>2337.5</ele>
    <time>2026-06-24T06:56:06Z</time>
   </trkpt>
   <trkpt lat="-3.1873920" lon="37.3554270">
    <ele>2337.5</ele>
    <time>2026-06-24T06:56:07Z</time>
   </trkpt>
   <trkpt lat="-3.1873990" lon="37.3554250">
    <ele>2337.4</ele>
    <time>2026-06-24T06:56:08Z</time>
   </trkpt>
   <trkpt lat="-3.1873990" lon="37.3554300">
    <ele>2337.3</ele>
    <time>2026-06-24T06:56:09Z</time>
   </trkpt>
   <trkpt lat="-3.1874070" lon="37.3554280">
    <ele>2337.1</ele>
    <time>2026-06-24T06:56:10Z</time>
   </trkpt>
   <trkpt lat="-3.1874130" lon="37.3554280">
    <ele>2336.9</ele>
    <time>2026-06-24T06:56:11Z</time>
   </trkpt>
   <trkpt lat="-3.1874200" lon="37.3554230">
    <ele>2336.7</ele>
    <time>2026-06-24T06:56:12Z</time>
   </trkpt>
   <trkpt lat="-3.1874320" lon="37.3554170">
    <ele>2336.4</ele>
    <time>2026-06-24T06:56:13Z</time>
   </trkpt>
   <trkpt lat="-3.1874390" lon="37.3554180">
    <ele>2336.3</ele>
    <time>2026-06-24T06:56:14Z</time>
   </trkpt>
   <trkpt lat="-3.1874480" lon="37.3554180">
    <ele>2336.1</ele>
    <time>2026-06-24T06:56:15Z</time>
   </trkpt>
   <trkpt lat="-3.1874580" lon="37.3554150">
    <ele>2335.8</ele>
    <time>2026-06-24T06:56:16Z</time>
   </trkpt>
   <trkpt lat="-3.1874690" lon="37.3554090">
    <ele>2335.5</ele>
    <time>2026-06-24T06:56:17Z</time>
   </trkpt>
   <trkpt lat="-3.1874880" lon="37.3554110">
    <ele>2335.1</ele>
    <time>2026-06-24T06:56:18Z</time>
   </trkpt>
   <trkpt lat="-3.1874900" lon="37.3554150">
    <ele>2335.0</ele>
    <time>2026-06-24T06:56:19Z</time>
   </trkpt>
   <trkpt lat="-3.1874900" lon="37.3554270">
    <ele>2334.7</ele>
    <time>2026-06-24T06:56:20Z</time>
   </trkpt>
   <trkpt lat="-3.1874890" lon="37.3554310">
    <ele>2334.6</ele>
    <time>2026-06-24T06:56:21Z</time>
   </trkpt>
   <trkpt lat="-3.1874930" lon="37.3554400">
    <ele>2334.4</ele>
    <time>2026-06-24T06:56:22Z</time>
   </trkpt>
   <trkpt lat="-3.1874940" lon="37.3554430">
    <ele>2334.3</ele>
    <time>2026-06-24T06:56:23Z</time>
   </trkpt>
   <trkpt lat="-3.1874990" lon="37.3554440">
    <ele>2334.2</ele>
    <time>2026-06-24T06:56:24Z</time>
   </trkpt>
   <trkpt lat="-3.1874970" lon="37.3554400">
    <ele>2334.1</ele>
    <time>2026-06-24T06:56:25Z</time>
   </trkpt>
   <trkpt lat="-3.1875000" lon="37.3554410">
    <ele>2334.0</ele>
    <time>2026-06-24T06:56:26Z</time>
   </trkpt>
   <trkpt lat="-3.1875030" lon="37.3554410">
    <ele>2333.9</ele>
    <time>2026-06-24T06:56:27Z</time>
   </trkpt>
   <trkpt lat="-3.1875000" lon="37.3554440">
    <ele>2333.8</ele>
    <time>2026-06-24T06:56:28Z</time>
   </trkpt>
   <trkpt lat="-3.1874990" lon="37.3554470">
    <ele>2333.8</ele>
    <time>2026-06-24T06:56:29Z</time>
   </trkpt>
   <trkpt lat="-3.1875060" lon="37.3554450">
    <ele>2333.6</ele>
    <time>2026-06-24T06:56:30Z</time>
   </trkpt>
   <trkpt lat="-3.1875070" lon="37.3554440">
    <ele>2333.6</ele>
    <time>2026-06-24T06:56:31Z</time>
   </trkpt>
   <trkpt lat="-3.1875130" lon="37.3554430">
    <ele>2333.4</ele>
    <time>2026-06-24T06:56:32Z</time>
   </trkpt>
   <trkpt lat="-3.1875190" lon="37.3554430">
    <ele>2333.3</ele>
    <time>2026-06-24T06:56:33Z</time>
   </trkpt>
   <trkpt lat="-3.1875250" lon="37.3554410">
    <ele>2333.1</ele>
    <time>2026-06-24T06:56:34Z</time>
   </trkpt>
   <trkpt lat="-3.1875280" lon="37.3554420">
    <ele>2333.1</ele>
    <time>2026-06-24T06:56:35Z</time>
   </trkpt>
   <trkpt lat="-3.1875260" lon="37.3554380">
    <ele>2333.0</ele>
    <time>2026-06-24T06:56:36Z</time>
   </trkpt>
   <trkpt lat="-3.1875300" lon="37.3554380">
    <ele>2332.9</ele>
    <time>2026-06-24T06:56:37Z</time>
   </trkpt>
   <trkpt lat="-3.1875400" lon="37.3554400">
    <ele>2332.6</ele>
    <time>2026-06-24T06:56:38Z</time>
   </trkpt>
   <trkpt lat="-3.1875470" lon="37.3554410">
    <ele>2332.5</ele>
    <time>2026-06-24T06:56:39Z</time>
   </trkpt>
   <trkpt lat="-3.1875520" lon="37.3554360">
    <ele>2332.3</ele>
    <time>2026-06-24T06:56:40Z</time>
   </trkpt>
   <trkpt lat="-3.1875630" lon="37.3554380">
    <ele>2332.0</ele>
    <time>2026-06-24T06:56:41Z</time>
   </trkpt>
   <trkpt lat="-3.1875730" lon="37.3554390">
    <ele>2331.8</ele>
    <time>2026-06-24T06:56:42Z</time>
   </trkpt>
   <trkpt lat="-3.1875790" lon="37.3554380">
    <ele>2331.7</ele>
    <time>2026-06-24T06:56:43Z</time>
   </trkpt>
   <trkpt lat="-3.1875860" lon="37.3554390">
    <ele>2331.5</ele>
    <time>2026-06-24T06:56:44Z</time>
   </trkpt>
   <trkpt lat="-3.1875960" lon="37.3554420">
    <ele>2331.3</ele>
    <time>2026-06-24T06:56:45Z</time>
   </trkpt>
   <trkpt lat="-3.1876000" lon="37.3554430">
    <ele>2331.2</ele>
    <time>2026-06-24T06:56:46Z</time>
   </trkpt>
   <trkpt lat="-3.1876010" lon="37.3554470">
    <ele>2331.1</ele>
    <time>2026-06-24T06:56:47Z</time>
   </trkpt>
   <trkpt lat="-3.1876000" lon="37.3554460">
    <ele>2331.1</ele>
    <time>2026-06-24T06:56:48Z</time>
   </trkpt>
   <trkpt lat="-3.1876060" lon="37.3554410">
    <ele>2330.9</ele>
    <time>2026-06-24T06:56:49Z</time>
   </trkpt>
   <trkpt lat="-3.1876060" lon="37.3554420">
    <ele>2330.9</ele>
    <time>2026-06-24T06:56:50Z</time>
   </trkpt>
   <trkpt lat="-3.1876090" lon="37.3554410">
    <ele>2330.8</ele>
    <time>2026-06-24T06:56:51Z</time>
   </trkpt>
   <trkpt lat="-3.1876110" lon="37.3554470">
    <ele>2330.7</ele>
    <time>2026-06-24T06:56:52Z</time>
   </trkpt>
   <trkpt lat="-3.1876180" lon="37.3554530">
    <ele>2330.5</ele>
    <time>2026-06-24T06:56:53Z</time>
   </trkpt>
   <trkpt lat="-3.1876210" lon="37.3554530">
    <ele>2330.4</ele>
    <time>2026-06-24T06:56:54Z</time>
   </trkpt>
   <trkpt lat="-3.1876230" lon="37.3554570">
    <ele>2330.3</ele>
    <time>2026-06-24T06:56:55Z</time>
   </trkpt>
   <trkpt lat="-3.1876240" lon="37.3554570">
    <ele>2330.3</ele>
    <time>2026-06-24T06:56:56Z</time>
   </trkpt>
   <trkpt lat="-3.1876250" lon="37.3554570">
    <ele>2330.3</ele>
    <time>2026-06-24T06:56:57Z</time>
   </trkpt>
   <trkpt lat="-3.1876230" lon="37.3554590">
    <ele>2330.2</ele>
    <time>2026-06-24T06:56:58Z</time>
   </trkpt>
   <trkpt lat="-3.1876310" lon="37.3554630">
    <ele>2330.1</ele>
    <time>2026-06-24T06:56:59Z</time>
   </trkpt>
   <trkpt lat="-3.1876280" lon="37.3554680">
    <ele>2329.9</ele>
    <time>2026-06-24T06:57:00Z</time>
   </trkpt>
   <trkpt lat="-3.1876260" lon="37.3554720">
    <ele>2329.8</ele>
    <time>2026-06-24T06:57:01Z</time>
   </trkpt>
   <trkpt lat="-3.1876300" lon="37.3554670">
    <ele>2329.7</ele>
    <time>2026-06-24T06:57:02Z</time>
   </trkpt>
   <trkpt lat="-3.1876380" lon="37.3554660">
    <ele>2329.5</ele>
    <time>2026-06-24T06:57:03Z</time>
   </trkpt>
   <trkpt lat="-3.1876390" lon="37.3554630">
    <ele>2329.5</ele>
    <time>2026-06-24T06:57:04Z</time>
   </trkpt>
   <trkpt lat="-3.1876460" lon="37.3554650">
    <ele>2329.3</ele>
    <time>2026-06-24T06:57:05Z</time>
   </trkpt>
   <trkpt lat="-3.1876590" lon="37.3554600">
    <ele>2329.1</ele>
    <time>2026-06-24T06:57:06Z</time>
   </trkpt>
   <trkpt lat="-3.1876770" lon="37.3554580">
    <ele>2328.7</ele>
    <time>2026-06-24T06:57:07Z</time>
   </trkpt>
   <trkpt lat="-3.1876870" lon="37.3554520">
    <ele>2328.5</ele>
    <time>2026-06-24T06:57:08Z</time>
   </trkpt>
   <trkpt lat="-3.1876990" lon="37.3554470">
    <ele>2328.3</ele>
    <time>2026-06-24T06:57:09Z</time>
   </trkpt>
   <trkpt lat="-3.1877070" lon="37.3554390">
    <ele>2328.1</ele>
    <time>2026-06-24T06:57:10Z</time>
   </trkpt>
   <trkpt lat="-3.1877110" lon="37.3554420">
    <ele>2328.0</ele>
    <time>2026-06-24T06:57:11Z</time>
   </trkpt>
   <trkpt lat="-3.1877180" lon="37.3554410">
    <ele>2327.8</ele>
    <time>2026-06-24T06:57:12Z</time>
   </trkpt>
   <trkpt lat="-3.1877300" lon="37.3554430">
    <ele>2327.6</ele>
    <time>2026-06-24T06:57:13Z</time>
   </trkpt>
   <trkpt lat="-3.1877290" lon="37.3554410">
    <ele>2327.6</ele>
    <time>2026-06-24T06:57:14Z</time>
   </trkpt>
   <trkpt lat="-3.1877410" lon="37.3554280">
    <ele>2327.3</ele>
    <time>2026-06-24T06:57:15Z</time>
   </trkpt>
   <trkpt lat="-3.1877490" lon="37.3554190">
    <ele>2327.1</ele>
    <time>2026-06-24T06:57:16Z</time>
   </trkpt>
   <trkpt lat="-3.1877530" lon="37.3554190">
    <ele>2327.1</ele>
    <time>2026-06-24T06:57:17Z</time>
   </trkpt>
   <trkpt lat="-3.1877600" lon="37.3554140">
    <ele>2327.0</ele>
    <time>2026-06-24T06:57:18Z</time>
   </trkpt>
   <trkpt lat="-3.1877690" lon="37.3554120">
    <ele>2326.8</ele>
    <time>2026-06-24T06:57:19Z</time>
   </trkpt>
   <trkpt lat="-3.1877720" lon="37.3554110">
    <ele>2326.8</ele>
    <time>2026-06-24T06:57:20Z</time>
   </trkpt>
   <trkpt lat="-3.1877720" lon="37.3554100">
    <ele>2326.8</ele>
    <time>2026-06-24T06:57:21Z</time>
   </trkpt>
   <trkpt lat="-3.1877760" lon="37.3554070">
    <ele>2326.7</ele>
    <time>2026-06-24T06:57:22Z</time>
   </trkpt>
   <trkpt lat="-3.1877820" lon="37.3554010">
    <ele>2326.6</ele>
    <time>2026-06-24T06:57:23Z</time>
   </trkpt>
   <trkpt lat="-3.1877860" lon="37.3553900">
    <ele>2326.5</ele>
    <time>2026-06-24T06:57:24Z</time>
   </trkpt>
   <trkpt lat="-3.1877920" lon="37.3553860">
    <ele>2326.4</ele>
    <time>2026-06-24T06:57:25Z</time>
   </trkpt>
   <trkpt lat="-3.1877900" lon="37.3553960">
    <ele>2326.2</ele>
    <time>2026-06-24T06:57:26Z</time>
   </trkpt>
   <trkpt lat="-3.1877900" lon="37.3553930">
    <ele>2326.2</ele>
    <time>2026-06-24T06:57:27Z</time>
   </trkpt>
   <trkpt lat="-3.1877930" lon="37.3553870">
    <ele>2326.1</ele>
    <time>2026-06-24T06:57:28Z</time>
   </trkpt>
   <trkpt lat="-3.1878020" lon="37.3553780">
    <ele>2325.9</ele>
    <time>2026-06-24T06:57:29Z</time>
   </trkpt>
   <trkpt lat="-3.1878140" lon="37.3553770">
    <ele>2325.8</ele>
    <time>2026-06-24T06:57:30Z</time>
   </trkpt>
   <trkpt lat="-3.1878140" lon="37.3553670">
    <ele>2325.6</ele>
    <time>2026-06-24T06:57:31Z</time>
   </trkpt>
   <trkpt lat="-3.1878260" lon="37.3553640">
    <ele>2325.4</ele>
    <time>2026-06-24T06:57:32Z</time>
   </trkpt>
   <trkpt lat="-3.1878290" lon="37.3553590">
    <ele>2325.3</ele>
    <time>2026-06-24T06:57:33Z</time>
   </trkpt>
   <trkpt lat="-3.1878390" lon="37.3553600">
    <ele>2325.2</ele>
    <time>2026-06-24T06:57:34Z</time>
   </trkpt>
   <trkpt lat="-3.1878440" lon="37.3553570">
    <ele>2325.1</ele>
    <time>2026-06-24T06:57:35Z</time>
   </trkpt>
   <trkpt lat="-3.1878460" lon="37.3553510">
    <ele>2325.0</ele>
    <time>2026-06-24T06:57:36Z</time>
   </trkpt>
   <trkpt lat="-3.1878530" lon="37.3553470">
    <ele>2324.9</ele>
    <time>2026-06-24T06:57:37Z</time>
   </trkpt>
   <trkpt lat="-3.1878630" lon="37.3553420">
    <ele>2324.7</ele>
    <time>2026-06-24T06:57:38Z</time>
   </trkpt>
   <trkpt lat="-3.1878680" lon="37.3553330">
    <ele>2324.5</ele>
    <time>2026-06-24T06:57:39Z</time>
   </trkpt>
   <trkpt lat="-3.1878760" lon="37.3553300">
    <ele>2324.4</ele>
    <time>2026-06-24T06:57:40Z</time>
   </trkpt>
   <trkpt lat="-3.1878800" lon="37.3553260">
    <ele>2324.3</ele>
    <time>2026-06-24T06:57:41Z</time>
   </trkpt>
   <trkpt lat="-3.1878890" lon="37.3553220">
    <ele>2324.2</ele>
    <time>2026-06-24T06:57:42Z</time>
   </trkpt>
   <trkpt lat="-3.1878920" lon="37.3553180">
    <ele>2324.1</ele>
    <time>2026-06-24T06:57:43Z</time>
   </trkpt>
   <trkpt lat="-3.1878920" lon="37.3553120">
    <ele>2324.0</ele>
    <time>2026-06-24T06:57:44Z</time>
   </trkpt>
   <trkpt lat="-3.1878940" lon="37.3553080">
    <ele>2323.9</ele>
    <time>2026-06-24T06:57:45Z</time>
   </trkpt>
   <trkpt lat="-3.1879020" lon="37.3552970">
    <ele>2323.6</ele>
    <time>2026-06-24T06:57:46Z</time>
   </trkpt>
   <trkpt lat="-3.1879070" lon="37.3552880">
    <ele>2323.5</ele>
    <time>2026-06-24T06:57:47Z</time>
   </trkpt>
   <trkpt lat="-3.1879100" lon="37.3552830">
    <ele>2323.4</ele>
    <time>2026-06-24T06:57:48Z</time>
   </trkpt>
   <trkpt lat="-3.1879100" lon="37.3552830">
    <ele>2323.4</ele>
    <time>2026-06-24T06:57:49Z</time>
   </trkpt>
   <trkpt lat="-3.1879140" lon="37.3552860">
    <ele>2323.3</ele>
    <time>2026-06-24T06:57:50Z</time>
   </trkpt>
   <trkpt lat="-3.1879200" lon="37.3552840">
    <ele>2323.2</ele>
    <time>2026-06-24T06:57:51Z</time>
   </trkpt>
   <trkpt lat="-3.1879230" lon="37.3552800">
    <ele>2323.1</ele>
    <time>2026-06-24T06:57:52Z</time>
   </trkpt>
   <trkpt lat="-3.1879210" lon="37.3552660">
    <ele>2322.8</ele>
    <time>2026-06-24T06:57:53Z</time>
   </trkpt>
   <trkpt lat="-3.1879250" lon="37.3552650">
    <ele>2322.8</ele>
    <time>2026-06-24T06:57:54Z</time>
   </trkpt>
   <trkpt lat="-3.1879250" lon="37.3552690">
    <ele>2322.7</ele>
    <time>2026-06-24T06:57:55Z</time>
   </trkpt>
   <trkpt lat="-3.1879290" lon="37.3552670">
    <ele>2322.6</ele>
    <time>2026-06-24T06:57:56Z</time>
   </trkpt>
   <trkpt lat="-3.1879290" lon="37.3552710">
    <ele>2322.5</ele>
    <time>2026-06-24T06:57:57Z</time>
   </trkpt>
   <trkpt lat="-3.1879300" lon="37.3552740">
    <ele>2322.5</ele>
    <time>2026-06-24T06:57:58Z</time>
   </trkpt>
   <trkpt lat="-3.1879310" lon="37.3552760">
    <ele>2322.4</ele>
    <time>2026-06-24T06:57:59Z</time>
   </trkpt>
   <trkpt lat="-3.1879320" lon="37.3552780">
    <ele>2322.4</ele>
    <time>2026-06-24T06:58:00Z</time>
   </trkpt>
   <trkpt lat="-3.1879310" lon="37.3552760">
    <ele>2322.4</ele>
    <time>2026-06-24T06:58:01Z</time>
   </trkpt>
   <trkpt lat="-3.1879370" lon="37.3552700">
    <ele>2322.2</ele>
    <time>2026-06-24T06:58:02Z</time>
   </trkpt>
   <trkpt lat="-3.1879410" lon="37.3552690">
    <ele>2322.1</ele>
    <time>2026-06-24T06:58:03Z</time>
   </trkpt>
   <trkpt lat="-3.1879500" lon="37.3552650">
    <ele>2322.0</ele>
    <time>2026-06-24T06:58:04Z</time>
   </trkpt>
   <trkpt lat="-3.1879550" lon="37.3552620">
    <ele>2321.8</ele>
    <time>2026-06-24T06:58:05Z</time>
   </trkpt>
   <trkpt lat="-3.1879570" lon="37.3552620">
    <ele>2321.8</ele>
    <time>2026-06-24T06:58:06Z</time>
   </trkpt>
   <trkpt lat="-3.1879620" lon="37.3552620">
    <ele>2321.7</ele>
    <time>2026-06-24T06:58:07Z</time>
   </trkpt>
   <trkpt lat="-3.1879680" lon="37.3552590">
    <ele>2321.6</ele>
    <time>2026-06-24T06:58:08Z</time>
   </trkpt>
   <trkpt lat="-3.1879780" lon="37.3552580">
    <ele>2321.4</ele>
    <time>2026-06-24T06:58:09Z</time>
   </trkpt>
   <trkpt lat="-3.1879860" lon="37.3552450">
    <ele>2321.1</ele>
    <time>2026-06-24T06:58:10Z</time>
   </trkpt>
   <trkpt lat="-3.1879940" lon="37.3552420">
    <ele>2321.0</ele>
    <time>2026-06-24T06:58:11Z</time>
   </trkpt>
   <trkpt lat="-3.1880060" lon="37.3552350">
    <ele>2320.7</ele>
    <time>2026-06-24T06:58:12Z</time>
   </trkpt>
   <trkpt lat="-3.1880120" lon="37.3552330">
    <ele>2320.6</ele>
    <time>2026-06-24T06:58:13Z</time>
   </trkpt>
   <trkpt lat="-3.1880170" lon="37.3552300">
    <ele>2320.5</ele>
    <time>2026-06-24T06:58:14Z</time>
   </trkpt>
   <trkpt lat="-3.1880210" lon="37.3552310">
    <ele>2320.4</ele>
    <time>2026-06-24T06:58:15Z</time>
   </trkpt>
   <trkpt lat="-3.1880280" lon="37.3552300">
    <ele>2320.3</ele>
    <time>2026-06-24T06:58:16Z</time>
   </trkpt>
   <trkpt lat="-3.1880370" lon="37.3552260">
    <ele>2320.1</ele>
    <time>2026-06-24T06:58:17Z</time>
   </trkpt>
   <trkpt lat="-3.1880400" lon="37.3552340">
    <ele>2319.9</ele>
    <time>2026-06-24T06:58:18Z</time>
   </trkpt>
   <trkpt lat="-3.1880400" lon="37.3552370">
    <ele>2319.9</ele>
    <time>2026-06-24T06:58:19Z</time>
   </trkpt>
   <trkpt lat="-3.1880430" lon="37.3552410">
    <ele>2319.8</ele>
    <time>2026-06-24T06:58:20Z</time>
   </trkpt>
   <trkpt lat="-3.1880470" lon="37.3552380">
    <ele>2319.7</ele>
    <time>2026-06-24T06:58:21Z</time>
   </trkpt>
   <trkpt lat="-3.1880490" lon="37.3552370">
    <ele>2319.6</ele>
    <time>2026-06-24T06:58:22Z</time>
   </trkpt>
   <trkpt lat="-3.1880510" lon="37.3552290">
    <ele>2319.5</ele>
    <time>2026-06-24T06:58:23Z</time>
   </trkpt>
   <trkpt lat="-3.1880510" lon="37.3552270">
    <ele>2319.4</ele>
    <time>2026-06-24T06:58:24Z</time>
   </trkpt>
   <trkpt lat="-3.1880530" lon="37.3552220">
    <ele>2319.3</ele>
    <time>2026-06-24T06:58:25Z</time>
   </trkpt>
   <trkpt lat="-3.1880530" lon="37.3552200">
    <ele>2319.3</ele>
    <time>2026-06-24T06:58:26Z</time>
   </trkpt>
   <trkpt lat="-3.1880580" lon="37.3552150">
    <ele>2319.1</ele>
    <time>2026-06-24T06:58:27Z</time>
   </trkpt>
   <trkpt lat="-3.1880570" lon="37.3552120">
    <ele>2319.1</ele>
    <time>2026-06-24T06:58:28Z</time>
   </trkpt>
   <trkpt lat="-3.1880550" lon="37.3552090">
    <ele>2319.0</ele>
    <time>2026-06-24T06:58:29Z</time>
   </trkpt>
   <trkpt lat="-3.1880580" lon="37.3552040">
    <ele>2318.9</ele>
    <time>2026-06-24T06:58:30Z</time>
   </trkpt>
   <trkpt lat="-3.1880600" lon="37.3551990">
    <ele>2318.8</ele>
    <time>2026-06-24T06:58:31Z</time>
   </trkpt>
   <trkpt lat="-3.1880620" lon="37.3551940">
    <ele>2318.7</ele>
    <time>2026-06-24T06:58:32Z</time>
   </trkpt>
   <trkpt lat="-3.1880660" lon="37.3551940">
    <ele>2318.6</ele>
    <time>2026-06-24T06:58:33Z</time>
   </trkpt>
   <trkpt lat="-3.1880680" lon="37.3551850">
    <ele>2318.4</ele>
    <time>2026-06-24T06:58:34Z</time>
   </trkpt>
   <trkpt lat="-3.1880690" lon="37.3551790">
    <ele>2318.3</ele>
    <time>2026-06-24T06:58:35Z</time>
   </trkpt>
   <trkpt lat="-3.1880770" lon="37.3551780">
    <ele>2318.1</ele>
    <time>2026-06-24T06:58:36Z</time>
   </trkpt>
   <trkpt lat="-3.1880820" lon="37.3551780">
    <ele>2318.0</ele>
    <time>2026-06-24T06:58:37Z</time>
   </trkpt>
   <trkpt lat="-3.1880850" lon="37.3551730">
    <ele>2317.9</ele>
    <time>2026-06-24T06:58:38Z</time>
   </trkpt>
   <trkpt lat="-3.1880930" lon="37.3551720">
    <ele>2317.7</ele>
    <time>2026-06-24T06:58:39Z</time>
   </trkpt>
   <trkpt lat="-3.1880960" lon="37.3551670">
    <ele>2317.6</ele>
    <time>2026-06-24T06:58:40Z</time>
   </trkpt>
   <trkpt lat="-3.1881010" lon="37.3551590">
    <ele>2317.3</ele>
    <time>2026-06-24T06:58:41Z</time>
   </trkpt>
   <trkpt lat="-3.1881040" lon="37.3551570">
    <ele>2317.3</ele>
    <time>2026-06-24T06:58:42Z</time>
   </trkpt>
   <trkpt lat="-3.1881060" lon="37.3551570">
    <ele>2317.2</ele>
    <time>2026-06-24T06:58:43Z</time>
   </trkpt>
   <trkpt lat="-3.1881140" lon="37.3551490">
    <ele>2317.0</ele>
    <time>2026-06-24T06:58:44Z</time>
   </trkpt>
   <trkpt lat="-3.1881170" lon="37.3551440">
    <ele>2316.8</ele>
    <time>2026-06-24T06:58:45Z</time>
   </trkpt>
   <trkpt lat="-3.1881190" lon="37.3551410">
    <ele>2316.7</ele>
    <time>2026-06-24T06:58:46Z</time>
   </trkpt>
   <trkpt lat="-3.1881210" lon="37.3551360">
    <ele>2316.6</ele>
    <time>2026-06-24T06:58:47Z</time>
   </trkpt>
   <trkpt lat="-3.1881280" lon="37.3551300">
    <ele>2316.4</ele>
    <time>2026-06-24T06:58:48Z</time>
   </trkpt>
   <trkpt lat="-3.1881390" lon="37.3551180">
    <ele>2316.0</ele>
    <time>2026-06-24T06:58:49Z</time>
   </trkpt>
   <trkpt lat="-3.1881500" lon="37.3551030">
    <ele>2315.6</ele>
    <time>2026-06-24T06:58:50Z</time>
   </trkpt>
   <trkpt lat="-3.1881580" lon="37.3550910">
    <ele>2315.2</ele>
    <time>2026-06-24T06:58:51Z</time>
   </trkpt>
   <trkpt lat="-3.1881580" lon="37.3550860">
    <ele>2315.1</ele>
    <time>2026-06-24T06:58:52Z</time>
   </trkpt>
   <trkpt lat="-3.1881570" lon="37.3550860">
    <ele>2315.1</ele>
    <time>2026-06-24T06:58:53Z</time>
   </trkpt>
   <trkpt lat="-3.1881560" lon="37.3550870">
    <ele>2315.0</ele>
    <time>2026-06-24T06:58:54Z</time>
   </trkpt>
   <trkpt lat="-3.1881580" lon="37.3550870">
    <ele>2315.0</ele>
    <time>2026-06-24T06:58:55Z</time>
   </trkpt>
   <trkpt lat="-3.1881620" lon="37.3550800">
    <ele>2314.8</ele>
    <time>2026-06-24T06:58:56Z</time>
   </trkpt>
   <trkpt lat="-3.1881590" lon="37.3550850">
    <ele>2314.6</ele>
    <time>2026-06-24T06:58:57Z</time>
   </trkpt>
   <trkpt lat="-3.1881620" lon="37.3550800">
    <ele>2314.5</ele>
    <time>2026-06-24T06:58:58Z</time>
   </trkpt>
   <trkpt lat="-3.1881660" lon="37.3550800">
    <ele>2314.4</ele>
    <time>2026-06-24T06:58:59Z</time>
   </trkpt>
   <trkpt lat="-3.1881660" lon="37.3550800">
    <ele>2314.4</ele>
    <time>2026-06-24T06:59:00Z</time>
   </trkpt>
   <trkpt lat="-3.1881700" lon="37.3550780">
    <ele>2314.3</ele>
    <time>2026-06-24T06:59:01Z</time>
   </trkpt>
   <trkpt lat="-3.1881720" lon="37.3550740">
    <ele>2314.2</ele>
    <time>2026-06-24T06:59:02Z</time>
   </trkpt>
   <trkpt lat="-3.1881750" lon="37.3550720">
    <ele>2314.1</ele>
    <time>2026-06-24T06:59:03Z</time>
   </trkpt>
   <trkpt lat="-3.1881800" lon="37.3550670">
    <ele>2313.9</ele>
    <time>2026-06-24T06:59:04Z</time>
   </trkpt>
   <trkpt lat="-3.1881850" lon="37.3550610">
    <ele>2313.7</ele>
    <time>2026-06-24T06:59:05Z</time>
   </trkpt>
   <trkpt lat="-3.1882010" lon="37.3550450">
    <ele>2313.2</ele>
    <time>2026-06-24T06:59:06Z</time>
   </trkpt>
   <trkpt lat="-3.1882000" lon="37.3550380">
    <ele>2313.0</ele>
    <time>2026-06-24T06:59:07Z</time>
   </trkpt>
   <trkpt lat="-3.1881980" lon="37.3550380">
    <ele>2313.0</ele>
    <time>2026-06-24T06:59:08Z</time>
   </trkpt>
   <trkpt lat="-3.1881930" lon="37.3550400">
    <ele>2312.8</ele>
    <time>2026-06-24T06:59:09Z</time>
   </trkpt>
   <trkpt lat="-3.1881970" lon="37.3550390">
    <ele>2312.7</ele>
    <time>2026-06-24T06:59:10Z</time>
   </trkpt>
   <trkpt lat="-3.1881990" lon="37.3550400">
    <ele>2312.7</ele>
    <time>2026-06-24T06:59:11Z</time>
   </trkpt>
   <trkpt lat="-3.1882020" lon="37.3550320">
    <ele>2312.5</ele>
    <time>2026-06-24T06:59:12Z</time>
   </trkpt>
   <trkpt lat="-3.1881990" lon="37.3550320">
    <ele>2312.4</ele>
    <time>2026-06-24T06:59:13Z</time>
   </trkpt>
   <trkpt lat="-3.1882030" lon="37.3550260">
    <ele>2312.2</ele>
    <time>2026-06-24T06:59:14Z</time>
   </trkpt>
   <trkpt lat="-3.1882000" lon="37.3550220">
    <ele>2312.1</ele>
    <time>2026-06-24T06:59:15Z</time>
   </trkpt>
   <trkpt lat="-3.1882040" lon="37.3550170">
    <ele>2311.9</ele>
    <time>2026-06-24T06:59:16Z</time>
   </trkpt>
   <trkpt lat="-3.1882100" lon="37.3550120">
    <ele>2311.8</ele>
    <time>2026-06-24T06:59:17Z</time>
   </trkpt>
   <trkpt lat="-3.1882140" lon="37.3550150">
    <ele>2311.6</ele>
    <time>2026-06-24T06:59:18Z</time>
   </trkpt>
   <trkpt lat="-3.1882160" lon="37.3550070">
    <ele>2311.4</ele>
    <time>2026-06-24T06:59:19Z</time>
   </trkpt>
   <trkpt lat="-3.1882190" lon="37.3550070">
    <ele>2311.4</ele>
    <time>2026-06-24T06:59:20Z</time>
   </trkpt>
   <trkpt lat="-3.1882260" lon="37.3550080">
    <ele>2311.2</ele>
    <time>2026-06-24T06:59:21Z</time>
   </trkpt>
   <trkpt lat="-3.1882290" lon="37.3550140">
    <ele>2311.0</ele>
    <time>2026-06-24T06:59:22Z</time>
   </trkpt>
   <trkpt lat="-3.1882300" lon="37.3550190">
    <ele>2310.9</ele>
    <time>2026-06-24T06:59:23Z</time>
   </trkpt>
   <trkpt lat="-3.1882370" lon="37.3550180">
    <ele>2310.8</ele>
    <time>2026-06-24T06:59:24Z</time>
   </trkpt>
   <trkpt lat="-3.1882470" lon="37.3550290">
    <ele>2310.4</ele>
    <time>2026-06-24T06:59:25Z</time>
   </trkpt>
   <trkpt lat="-3.1882470" lon="37.3550270">
    <ele>2310.4</ele>
    <time>2026-06-24T06:59:26Z</time>
   </trkpt>
   <trkpt lat="-3.1882470" lon="37.3550220">
    <ele>2310.3</ele>
    <time>2026-06-24T06:59:27Z</time>
   </trkpt>
   <trkpt lat="-3.1882470" lon="37.3550120">
    <ele>2310.0</ele>
    <time>2026-06-24T06:59:28Z</time>
   </trkpt>
   <trkpt lat="-3.1882510" lon="37.3550150">
    <ele>2309.9</ele>
    <time>2026-06-24T06:59:29Z</time>
   </trkpt>
   <trkpt lat="-3.1882610" lon="37.3550110">
    <ele>2309.7</ele>
    <time>2026-06-24T06:59:30Z</time>
   </trkpt>
   <trkpt lat="-3.1882700" lon="37.3550070">
    <ele>2309.5</ele>
    <time>2026-06-24T06:59:31Z</time>
   </trkpt>
   <trkpt lat="-3.1882760" lon="37.3550020">
    <ele>2309.3</ele>
    <time>2026-06-24T06:59:32Z</time>
   </trkpt>
   <trkpt lat="-3.1882860" lon="37.3550020">
    <ele>2309.1</ele>
    <time>2026-06-24T06:59:33Z</time>
   </trkpt>
   <trkpt lat="-3.1882910" lon="37.3549990">
    <ele>2309.0</ele>
    <time>2026-06-24T06:59:34Z</time>
   </trkpt>
   <trkpt lat="-3.1882990" lon="37.3549930">
    <ele>2308.8</ele>
    <time>2026-06-24T06:59:35Z</time>
   </trkpt>
   <trkpt lat="-3.1883020" lon="37.3549820">
    <ele>2308.5</ele>
    <time>2026-06-24T06:59:36Z</time>
   </trkpt>
   <trkpt lat="-3.1883030" lon="37.3549810">
    <ele>2308.5</ele>
    <time>2026-06-24T06:59:37Z</time>
   </trkpt>
   <trkpt lat="-3.1883040" lon="37.3549760">
    <ele>2308.4</ele>
    <time>2026-06-24T06:59:38Z</time>
   </trkpt>
   <trkpt lat="-3.1883120" lon="37.3549680">
    <ele>2308.1</ele>
    <time>2026-06-24T06:59:39Z</time>
   </trkpt>
   <trkpt lat="-3.1883160" lon="37.3549560">
    <ele>2307.9</ele>
    <time>2026-06-24T06:59:40Z</time>
   </trkpt>
   <trkpt lat="-3.1883120" lon="37.3549670">
    <ele>2307.7</ele>
    <time>2026-06-24T06:59:41Z</time>
   </trkpt>
   <trkpt lat="-3.1883180" lon="37.3549520">
    <ele>2307.3</ele>
    <time>2026-06-24T06:59:42Z</time>
   </trkpt>
   <trkpt lat="-3.1883180" lon="37.3549500">
    <ele>2307.3</ele>
    <time>2026-06-24T06:59:43Z</time>
   </trkpt>
   <trkpt lat="-3.1883190" lon="37.3549490">
    <ele>2307.3</ele>
    <time>2026-06-24T06:59:44Z</time>
   </trkpt>
   <trkpt lat="-3.1883220" lon="37.3549390">
    <ele>2307.1</ele>
    <time>2026-06-24T06:59:45Z</time>
   </trkpt>
   <trkpt lat="-3.1883210" lon="37.3549350">
    <ele>2307.0</ele>
    <time>2026-06-24T06:59:46Z</time>
   </trkpt>
   <trkpt lat="-3.1883270" lon="37.3549270">
    <ele>2306.8</ele>
    <time>2026-06-24T06:59:47Z</time>
   </trkpt>
   <trkpt lat="-3.1883320" lon="37.3549290">
    <ele>2306.7</ele>
    <time>2026-06-24T06:59:48Z</time>
   </trkpt>
   <trkpt lat="-3.1883370" lon="37.3549250">
    <ele>2306.6</ele>
    <time>2026-06-24T06:59:49Z</time>
   </trkpt>
   <trkpt lat="-3.1883350" lon="37.3549300">
    <ele>2306.5</ele>
    <time>2026-06-24T06:59:50Z</time>
   </trkpt>
   <trkpt lat="-3.1883420" lon="37.3549240">
    <ele>2306.3</ele>
    <time>2026-06-24T06:59:51Z</time>
   </trkpt>
   <trkpt lat="-3.1883450" lon="37.3549180">
    <ele>2306.2</ele>
    <time>2026-06-24T06:59:52Z</time>
   </trkpt>
   <trkpt lat="-3.1883410" lon="37.3549140">
    <ele>2306.1</ele>
    <time>2026-06-24T06:59:53Z</time>
   </trkpt>
   <trkpt lat="-3.1883360" lon="37.3549110">
    <ele>2306.0</ele>
    <time>2026-06-24T06:59:54Z</time>
   </trkpt>
   <trkpt lat="-3.1883350" lon="37.3549110">
    <ele>2306.0</ele>
    <time>2026-06-24T06:59:55Z</time>
   </trkpt>
   <trkpt lat="-3.1883350" lon="37.3549110">
    <ele>2306.0</ele>
    <time>2026-06-24T06:59:56Z</time>
   </trkpt>
   <trkpt lat="-3.1883350" lon="37.3549110">
    <ele>2306.0</ele>
    <time>2026-06-24T06:59:57Z</time>
   </trkpt>
   <trkpt lat="-3.1883390" lon="37.3549000">
    <ele>2305.8</ele>
    <time>2026-06-24T06:59:58Z</time>
   </trkpt>
   <trkpt lat="-3.1883350" lon="37.3549170">
    <ele>2305.5</ele>
    <time>2026-06-24T06:59:59Z</time>
   </trkpt>
   <trkpt lat="-3.1883370" lon="37.3549110">
    <ele>2305.3</ele>
    <time>2026-06-24T07:00:00Z</time>
   </trkpt>
   <trkpt lat="-3.1883370" lon="37.3549120">
    <ele>2305.3</ele>
    <time>2026-06-24T07:00:01Z</time>
   </trkpt>
   <trkpt lat="-3.1883400" lon="37.3549100">
    <ele>2305.3</ele>
    <time>2026-06-24T07:00:02Z</time>
   </trkpt>
   <trkpt lat="-3.1883400" lon="37.3549090">
    <ele>2305.2</ele>
    <time>2026-06-24T07:00:03Z</time>
   </trkpt>
   <trkpt lat="-3.1883400" lon="37.3549060">
    <ele>2305.2</ele>
    <time>2026-06-24T07:00:04Z</time>
   </trkpt>
   <trkpt lat="-3.1883400" lon="37.3549060">
    <ele>2305.2</ele>
    <time>2026-06-24T07:00:05Z</time>
   </trkpt>
   <trkpt lat="-3.1883390" lon="37.3549040">
    <ele>2305.2</ele>
    <time>2026-06-24T07:00:06Z</time>
   </trkpt>
   <trkpt lat="-3.1883390" lon="37.3549040">
    <ele>2305.2</ele>
    <time>2026-06-24T07:00:07Z</time>
   </trkpt>
   <trkpt lat="-3.1883390" lon="37.3549060">
    <ele>2305.1</ele>
    <time>2026-06-24T07:00:08Z</time>
   </trkpt>
   <trkpt lat="-3.1883390" lon="37.3549060">
    <ele>2305.1</ele>
    <time>2026-06-24T07:00:09Z</time>
   </trkpt>
   <trkpt lat="-3.1883370" lon="37.3549020">
    <ele>2305.0</ele>
    <time>2026-06-24T07:00:10Z</time>
   </trkpt>
   <trkpt lat="-3.1883370" lon="37.3549020">
    <ele>2305.0</ele>
    <time>2026-06-24T07:00:11Z</time>
   </trkpt>
   <trkpt lat="-3.1883380" lon="37.3549020">
    <ele>2305.0</ele>
    <time>2026-06-24T07:00:12Z</time>
   </trkpt>
   <trkpt lat="-3.1883440" lon="37.3549000">
    <ele>2304.9</ele>
    <time>2026-06-24T07:00:13Z</time>
   </trkpt>
   <trkpt lat="-3.1883440" lon="37.3549010">
    <ele>2304.9</ele>
    <time>2026-06-24T07:00:14Z</time>
   </trkpt>
   <trkpt lat="-3.1883440" lon="37.3549010">
    <ele>2304.9</ele>
    <time>2026-06-24T07:00:15Z</time>
   </trkpt>
   <trkpt lat="-3.1883360" lon="37.3549100">
    <ele>2304.7</ele>
    <time>2026-06-24T07:00:16Z</time>
   </trkpt>
   <trkpt lat="-3.1883360" lon="37.3549100">
    <ele>2304.7</ele>
    <time>2026-06-24T07:00:17Z</time>
   </trkpt>
   <trkpt lat="-3.1883260" lon="37.3549110">
    <ele>2304.5</ele>
    <time>2026-06-24T07:00:18Z</time>
   </trkpt>
   <trkpt lat="-3.1883280" lon="37.3549090">
    <ele>2304.5</ele>
    <time>2026-06-24T07:00:19Z</time>
   </trkpt>
   <trkpt lat="-3.1883310" lon="37.3549010">
    <ele>2304.3</ele>
    <time>2026-06-24T07:00:20Z</time>
   </trkpt>
   <trkpt lat="-3.1883340" lon="37.3548930">
    <ele>2304.2</ele>
    <time>2026-06-24T07:00:21Z</time>
   </trkpt>
   <trkpt lat="-3.1883360" lon="37.3548840">
    <ele>2304.0</ele>
    <time>2026-06-24T07:00:22Z</time>
   </trkpt>
   <trkpt lat="-3.1883360" lon="37.3548820">
    <ele>2304.0</ele>
    <time>2026-06-24T07:00:23Z</time>
   </trkpt>
   <trkpt lat="-3.1883400" lon="37.3548770">
    <ele>2303.9</ele>
    <time>2026-06-24T07:00:24Z</time>
   </trkpt>
   <trkpt lat="-3.1883400" lon="37.3548770">
    <ele>2303.9</ele>
    <time>2026-06-24T07:00:25Z</time>
   </trkpt>
   <trkpt lat="-3.1883330" lon="37.3548790">
    <ele>2303.8</ele>
    <time>2026-06-24T07:00:26Z</time>
   </trkpt>
   <trkpt lat="-3.1883410" lon="37.3548720">
    <ele>2303.6</ele>
    <time>2026-06-24T07:00:27Z</time>
   </trkpt>
   <trkpt lat="-3.1883460" lon="37.3548590">
    <ele>2303.4</ele>
    <time>2026-06-24T07:00:28Z</time>
   </trkpt>
   <trkpt lat="-3.1883440" lon="37.3548600">
    <ele>2303.3</ele>
    <time>2026-06-24T07:00:29Z</time>
   </trkpt>
   <trkpt lat="-3.1883410" lon="37.3548650">
    <ele>2303.2</ele>
    <time>2026-06-24T07:00:30Z</time>
   </trkpt>
   <trkpt lat="-3.1883460" lon="37.3548630">
    <ele>2303.2</ele>
    <time>2026-06-24T07:00:31Z</time>
   </trkpt>
   <trkpt lat="-3.1883490" lon="37.3548530">
    <ele>2303.0</ele>
    <time>2026-06-24T07:00:32Z</time>
   </trkpt>
   <trkpt lat="-3.1883500" lon="37.3548470">
    <ele>2302.9</ele>
    <time>2026-06-24T07:00:33Z</time>
   </trkpt>
   <trkpt lat="-3.1883620" lon="37.3548430">
    <ele>2302.7</ele>
    <time>2026-06-24T07:00:34Z</time>
   </trkpt>
   <trkpt lat="-3.1883640" lon="37.3548360">
    <ele>2302.6</ele>
    <time>2026-06-24T07:00:35Z</time>
   </trkpt>
   <trkpt lat="-3.1883660" lon="37.3548250">
    <ele>2302.4</ele>
    <time>2026-06-24T07:00:36Z</time>
   </trkpt>
   <trkpt lat="-3.1883670" lon="37.3548150">
    <ele>2302.3</ele>
    <time>2026-06-24T07:00:37Z</time>
   </trkpt>
   <trkpt lat="-3.1883700" lon="37.3548090">
    <ele>2302.2</ele>
    <time>2026-06-24T07:00:38Z</time>
   </trkpt>
   <trkpt lat="-3.1883670" lon="37.3548110">
    <ele>2302.1</ele>
    <time>2026-06-24T07:00:39Z</time>
   </trkpt>
   <trkpt lat="-3.1883670" lon="37.3548100">
    <ele>2302.1</ele>
    <time>2026-06-24T07:00:40Z</time>
   </trkpt>
   <trkpt lat="-3.1883690" lon="37.3548060">
    <ele>2302.0</ele>
    <time>2026-06-24T07:00:41Z</time>
   </trkpt>
   <trkpt lat="-3.1883690" lon="37.3548010">
    <ele>2301.9</ele>
    <time>2026-06-24T07:00:42Z</time>
   </trkpt>
   <trkpt lat="-3.1883700" lon="37.3548020">
    <ele>2301.9</ele>
    <time>2026-06-24T07:00:43Z</time>
   </trkpt>
   <trkpt lat="-3.1883720" lon="37.3548010">
    <ele>2301.9</ele>
    <time>2026-06-24T07:00:44Z</time>
   </trkpt>
   <trkpt lat="-3.1883760" lon="37.3547970">
    <ele>2301.8</ele>
    <time>2026-06-24T07:00:45Z</time>
   </trkpt>
   <trkpt lat="-3.1883790" lon="37.3547910">
    <ele>2301.7</ele>
    <time>2026-06-24T07:00:46Z</time>
   </trkpt>
   <trkpt lat="-3.1883830" lon="37.3547880">
    <ele>2301.6</ele>
    <time>2026-06-24T07:00:47Z</time>
   </trkpt>
   <trkpt lat="-3.1883870" lon="37.3547860">
    <ele>2301.5</ele>
    <time>2026-06-24T07:00:48Z</time>
   </trkpt>
   <trkpt lat="-3.1883920" lon="37.3547820">
    <ele>2301.4</ele>
    <time>2026-06-24T07:00:49Z</time>
   </trkpt>
   <trkpt lat="-3.1883940" lon="37.3547790">
    <ele>2301.4</ele>
    <time>2026-06-24T07:00:50Z</time>
   </trkpt>
   <trkpt lat="-3.1883980" lon="37.3547720">
    <ele>2301.3</ele>
    <time>2026-06-24T07:00:51Z</time>
   </trkpt>
   <trkpt lat="-3.1883980" lon="37.3547740">
    <ele>2301.2</ele>
    <time>2026-06-24T07:00:52Z</time>
   </trkpt>
   <trkpt lat="-3.1884000" lon="37.3547710">
    <ele>2301.2</ele>
    <time>2026-06-24T07:00:53Z</time>
   </trkpt>
   <trkpt lat="-3.1884010" lon="37.3547710">
    <ele>2301.2</ele>
    <time>2026-06-24T07:00:54Z</time>
   </trkpt>
   <trkpt lat="-3.1884020" lon="37.3547690">
    <ele>2301.2</ele>
    <time>2026-06-24T07:00:55Z</time>
   </trkpt>
   <trkpt lat="-3.1884020" lon="37.3547690">
    <ele>2301.2</ele>
    <time>2026-06-24T07:00:56Z</time>
   </trkpt>
   <trkpt lat="-3.1884070" lon="37.3547690">
    <ele>2301.1</ele>
    <time>2026-06-24T07:00:57Z</time>
   </trkpt>
   <trkpt lat="-3.1884140" lon="37.3547590">
    <ele>2300.9</ele>
    <time>2026-06-24T07:00:58Z</time>
   </trkpt>
   <trkpt lat="-3.1884150" lon="37.3547570">
    <ele>2300.9</ele>
    <time>2026-06-24T07:00:59Z</time>
   </trkpt>
   <trkpt lat="-3.1884140" lon="37.3547440">
    <ele>2300.7</ele>
    <time>2026-06-24T07:01:00Z</time>
   </trkpt>
   <trkpt lat="-3.1884140" lon="37.3547420">
    <ele>2300.7</ele>
    <time>2026-06-24T07:01:01Z</time>
   </trkpt>
   <trkpt lat="-3.1884180" lon="37.3547340">
    <ele>2300.6</ele>
    <time>2026-06-24T07:01:02Z</time>
   </trkpt>
   <trkpt lat="-3.1884190" lon="37.3547240">
    <ele>2300.4</ele>
    <time>2026-06-24T07:01:03Z</time>
   </trkpt>
   <trkpt lat="-3.1884140" lon="37.3547300">
    <ele>2300.3</ele>
    <time>2026-06-24T07:01:04Z</time>
   </trkpt>
   <trkpt lat="-3.1884190" lon="37.3547240">
    <ele>2300.2</ele>
    <time>2026-06-24T07:01:05Z</time>
   </trkpt>
   <trkpt lat="-3.1884290" lon="37.3547190">
    <ele>2300.1</ele>
    <time>2026-06-24T07:01:06Z</time>
   </trkpt>
   <trkpt lat="-3.1884360" lon="37.3547090">
    <ele>2299.9</ele>
    <time>2026-06-24T07:01:07Z</time>
   </trkpt>
   <trkpt lat="-3.1884450" lon="37.3547020">
    <ele>2299.8</ele>
    <time>2026-06-24T07:01:08Z</time>
   </trkpt>
   <trkpt lat="-3.1884580" lon="37.3546970">
    <ele>2299.6</ele>
    <time>2026-06-24T07:01:09Z</time>
   </trkpt>
   <trkpt lat="-3.1884680" lon="37.3546990">
    <ele>2299.5</ele>
    <time>2026-06-24T07:01:10Z</time>
   </trkpt>
   <trkpt lat="-3.1884760" lon="37.3546980">
    <ele>2299.4</ele>
    <time>2026-06-24T07:01:11Z</time>
   </trkpt>
   <trkpt lat="-3.1884790" lon="37.3546960">
    <ele>2299.4</ele>
    <time>2026-06-24T07:01:12Z</time>
   </trkpt>
   <trkpt lat="-3.1884780" lon="37.3546940">
    <ele>2299.4</ele>
    <time>2026-06-24T07:01:13Z</time>
   </trkpt>
   <trkpt lat="-3.1884860" lon="37.3546840">
    <ele>2299.2</ele>
    <time>2026-06-24T07:01:14Z</time>
   </trkpt>
   <trkpt lat="-3.1884950" lon="37.3546740">
    <ele>2299.1</ele>
    <time>2026-06-24T07:01:15Z</time>
   </trkpt>
   <trkpt lat="-3.1885010" lon="37.3546700">
    <ele>2299.0</ele>
    <time>2026-06-24T07:01:16Z</time>
   </trkpt>
   <trkpt lat="-3.1885040" lon="37.3546650">
    <ele>2298.9</ele>
    <time>2026-06-24T07:01:17Z</time>
   </trkpt>
   <trkpt lat="-3.1885130" lon="37.3546590">
    <ele>2298.8</ele>
    <time>2026-06-24T07:01:18Z</time>
   </trkpt>
   <trkpt lat="-3.1885210" lon="37.3546520">
    <ele>2298.7</ele>
    <time>2026-06-24T07:01:19Z</time>
   </trkpt>
   <trkpt lat="-3.1885210" lon="37.3546480">
    <ele>2298.7</ele>
    <time>2026-06-24T07:01:20Z</time>
   </trkpt>
   <trkpt lat="-3.1885320" lon="37.3546430">
    <ele>2298.5</ele>
    <time>2026-06-24T07:01:21Z</time>
   </trkpt>
   <trkpt lat="-3.1885400" lon="37.3546420">
    <ele>2298.4</ele>
    <time>2026-06-24T07:01:22Z</time>
   </trkpt>
   <trkpt lat="-3.1885520" lon="37.3546400">
    <ele>2298.3</ele>
    <time>2026-06-24T07:01:23Z</time>
   </trkpt>
   <trkpt lat="-3.1885660" lon="37.3546360">
    <ele>2298.2</ele>
    <time>2026-06-24T07:01:24Z</time>
   </trkpt>
   <trkpt lat="-3.1885770" lon="37.3546320">
    <ele>2298.0</ele>
    <time>2026-06-24T07:01:25Z</time>
   </trkpt>
   <trkpt lat="-3.1885790" lon="37.3546290">
    <ele>2298.0</ele>
    <time>2026-06-24T07:01:26Z</time>
   </trkpt>
   <trkpt lat="-3.1885940" lon="37.3546160">
    <ele>2297.8</ele>
    <time>2026-06-24T07:01:27Z</time>
   </trkpt>
   <trkpt lat="-3.1886050" lon="37.3546080">
    <ele>2297.7</ele>
    <time>2026-06-24T07:01:28Z</time>
   </trkpt>
   <trkpt lat="-3.1886210" lon="37.3546050">
    <ele>2297.5</ele>
    <time>2026-06-24T07:01:29Z</time>
   </trkpt>
   <trkpt lat="-3.1886300" lon="37.3546100">
    <ele>2297.4</ele>
    <time>2026-06-24T07:01:30Z</time>
   </trkpt>
   <trkpt lat="-3.1886330" lon="37.3546140">
    <ele>2297.3</ele>
    <time>2026-06-24T07:01:31Z</time>
   </trkpt>
   <trkpt lat="-3.1886430" lon="37.3546160">
    <ele>2297.2</ele>
    <time>2026-06-24T07:01:32Z</time>
   </trkpt>
   <trkpt lat="-3.1886480" lon="37.3546160">
    <ele>2297.2</ele>
    <time>2026-06-24T07:01:33Z</time>
   </trkpt>
   <trkpt lat="-3.1886550" lon="37.3546100">
    <ele>2297.1</ele>
    <time>2026-06-24T07:01:34Z</time>
   </trkpt>
   <trkpt lat="-3.1886580" lon="37.3546120">
    <ele>2297.0</ele>
    <time>2026-06-24T07:01:35Z</time>
   </trkpt>
   <trkpt lat="-3.1886660" lon="37.3546140">
    <ele>2296.9</ele>
    <time>2026-06-24T07:01:36Z</time>
   </trkpt>
   <trkpt lat="-3.1886740" lon="37.3546140">
    <ele>2296.9</ele>
    <time>2026-06-24T07:01:37Z</time>
   </trkpt>
   <trkpt lat="-3.1886770" lon="37.3546110">
    <ele>2296.8</ele>
    <time>2026-06-24T07:01:38Z</time>
   </trkpt>
   <trkpt lat="-3.1886880" lon="37.3546050">
    <ele>2296.7</ele>
    <time>2026-06-24T07:01:39Z</time>
   </trkpt>
   <trkpt lat="-3.1887000" lon="37.3546040">
    <ele>2296.6</ele>
    <time>2026-06-24T07:01:40Z</time>
   </trkpt>
   <trkpt lat="-3.1887040" lon="37.3546000">
    <ele>2296.5</ele>
    <time>2026-06-24T07:01:41Z</time>
   </trkpt>
   <trkpt lat="-3.1887110" lon="37.3545890">
    <ele>2296.4</ele>
    <time>2026-06-24T07:01:42Z</time>
   </trkpt>
   <trkpt lat="-3.1887140" lon="37.3545850">
    <ele>2296.3</ele>
    <time>2026-06-24T07:01:43Z</time>
   </trkpt>
   <trkpt lat="-3.1887220" lon="37.3545820">
    <ele>2296.2</ele>
    <time>2026-06-24T07:01:44Z</time>
   </trkpt>
   <trkpt lat="-3.1887280" lon="37.3545730">
    <ele>2296.1</ele>
    <time>2026-06-24T07:01:45Z</time>
   </trkpt>
   <trkpt lat="-3.1887310" lon="37.3545670">
    <ele>2296.0</ele>
    <time>2026-06-24T07:01:46Z</time>
   </trkpt>
   <trkpt lat="-3.1887390" lon="37.3545600">
    <ele>2295.9</ele>
    <time>2026-06-24T07:01:47Z</time>
   </trkpt>
   <trkpt lat="-3.1887450" lon="37.3545530">
    <ele>2295.8</ele>
    <time>2026-06-24T07:01:48Z</time>
   </trkpt>
   <trkpt lat="-3.1887500" lon="37.3545470">
    <ele>2295.7</ele>
    <time>2026-06-24T07:01:49Z</time>
   </trkpt>
   <trkpt lat="-3.1887520" lon="37.3545420">
    <ele>2295.6</ele>
    <time>2026-06-24T07:01:50Z</time>
   </trkpt>
   <trkpt lat="-3.1887580" lon="37.3545330">
    <ele>2295.5</ele>
    <time>2026-06-24T07:01:51Z</time>
   </trkpt>
   <trkpt lat="-3.1887690" lon="37.3545240">
    <ele>2295.3</ele>
    <time>2026-06-24T07:01:52Z</time>
   </trkpt>
   <trkpt lat="-3.1887790" lon="37.3545070">
    <ele>2295.1</ele>
    <time>2026-06-24T07:01:53Z</time>
   </trkpt>
   <trkpt lat="-3.1887820" lon="37.3545020">
    <ele>2295.0</ele>
    <time>2026-06-24T07:01:54Z</time>
   </trkpt>
   <trkpt lat="-3.1887810" lon="37.3545030">
    <ele>2295.0</ele>
    <time>2026-06-24T07:01:55Z</time>
   </trkpt>
   <trkpt lat="-3.1887850" lon="37.3544950">
    <ele>2294.9</ele>
    <time>2026-06-24T07:01:56Z</time>
   </trkpt>
   <trkpt lat="-3.1887920" lon="37.3544880">
    <ele>2294.7</ele>
    <time>2026-06-24T07:01:57Z</time>
   </trkpt>
   <trkpt lat="-3.1888000" lon="37.3544770">
    <ele>2294.5</ele>
    <time>2026-06-24T07:01:58Z</time>
   </trkpt>
   <trkpt lat="-3.1888050" lon="37.3544740">
    <ele>2294.5</ele>
    <time>2026-06-24T07:01:59Z</time>
   </trkpt>
   <trkpt lat="-3.1888180" lon="37.3544660">
    <ele>2294.2</ele>
    <time>2026-06-24T07:02:00Z</time>
   </trkpt>
   <trkpt lat="-3.1888230" lon="37.3544610">
    <ele>2294.1</ele>
    <time>2026-06-24T07:02:01Z</time>
   </trkpt>
   <trkpt lat="-3.1888250" lon="37.3544580">
    <ele>2294.1</ele>
    <time>2026-06-24T07:02:02Z</time>
   </trkpt>
   <trkpt lat="-3.1888290" lon="37.3544580">
    <ele>2294.0</ele>
    <time>2026-06-24T07:02:03Z</time>
   </trkpt>
   <trkpt lat="-3.1888360" lon="37.3544510">
    <ele>2293.9</ele>
    <time>2026-06-24T07:02:04Z</time>
   </trkpt>
   <trkpt lat="-3.1888410" lon="37.3544450">
    <ele>2293.8</ele>
    <time>2026-06-24T07:02:05Z</time>
   </trkpt>
   <trkpt lat="-3.1888420" lon="37.3544460">
    <ele>2293.7</ele>
    <time>2026-06-24T07:02:06Z</time>
   </trkpt>
   <trkpt lat="-3.1888490" lon="37.3544470">
    <ele>2293.6</ele>
    <time>2026-06-24T07:02:07Z</time>
   </trkpt>
   <trkpt lat="-3.1888550" lon="37.3544460">
    <ele>2293.5</ele>
    <time>2026-06-24T07:02:08Z</time>
   </trkpt>
   <trkpt lat="-3.1888680" lon="37.3544420">
    <ele>2293.3</ele>
    <time>2026-06-24T07:02:09Z</time>
   </trkpt>
   <trkpt lat="-3.1888690" lon="37.3544410">
    <ele>2293.3</ele>
    <time>2026-06-24T07:02:10Z</time>
   </trkpt>
   <trkpt lat="-3.1888720" lon="37.3544400">
    <ele>2293.3</ele>
    <time>2026-06-24T07:02:11Z</time>
   </trkpt>
   <trkpt lat="-3.1888760" lon="37.3544370">
    <ele>2293.2</ele>
    <time>2026-06-24T07:02:12Z</time>
   </trkpt>
   <trkpt lat="-3.1888750" lon="37.3544330">
    <ele>2293.1</ele>
    <time>2026-06-24T07:02:13Z</time>
   </trkpt>
   <trkpt lat="-3.1888780" lon="37.3544320">
    <ele>2293.1</ele>
    <time>2026-06-24T07:02:14Z</time>
   </trkpt>
   <trkpt lat="-3.1888830" lon="37.3544290">
    <ele>2293.0</ele>
    <time>2026-06-24T07:02:15Z</time>
   </trkpt>
   <trkpt lat="-3.1888870" lon="37.3544250">
    <ele>2292.9</ele>
    <time>2026-06-24T07:02:16Z</time>
   </trkpt>
   <trkpt lat="-3.1888920" lon="37.3544240">
    <ele>2292.8</ele>
    <time>2026-06-24T07:02:17Z</time>
   </trkpt>
   <trkpt lat="-3.1889010" lon="37.3544270">
    <ele>2292.6</ele>
    <time>2026-06-24T07:02:18Z</time>
   </trkpt>
   <trkpt lat="-3.1889020" lon="37.3544270">
    <ele>2292.6</ele>
    <time>2026-06-24T07:02:19Z</time>
   </trkpt>
   <trkpt lat="-3.1889100" lon="37.3544280">
    <ele>2292.5</ele>
    <time>2026-06-24T07:02:20Z</time>
   </trkpt>
   <trkpt lat="-3.1889190" lon="37.3544290">
    <ele>2292.3</ele>
    <time>2026-06-24T07:02:21Z</time>
   </trkpt>
   <trkpt lat="-3.1889250" lon="37.3544240">
    <ele>2292.2</ele>
    <time>2026-06-24T07:02:22Z</time>
   </trkpt>
   <trkpt lat="-3.1889340" lon="37.3544300">
    <ele>2292.0</ele>
    <time>2026-06-24T07:02:23Z</time>
   </trkpt>
   <trkpt lat="-3.1889370" lon="37.3544320">
    <ele>2291.9</ele>
    <time>2026-06-24T07:02:24Z</time>
   </trkpt>
   <trkpt lat="-3.1889400" lon="37.3544300">
    <ele>2291.9</ele>
    <time>2026-06-24T07:02:25Z</time>
   </trkpt>
   <trkpt lat="-3.1889440" lon="37.3544290">
    <ele>2291.8</ele>
    <time>2026-06-24T07:02:26Z</time>
   </trkpt>
   <trkpt lat="-3.1889470" lon="37.3544270">
    <ele>2291.8</ele>
    <time>2026-06-24T07:02:27Z</time>
   </trkpt>
   <trkpt lat="-3.1889550" lon="37.3544210">
    <ele>2291.6</ele>
    <time>2026-06-24T07:02:28Z</time>
   </trkpt>
   <trkpt lat="-3.1889540" lon="37.3544210">
    <ele>2291.6</ele>
    <time>2026-06-24T07:02:29Z</time>
   </trkpt>
   <trkpt lat="-3.1889560" lon="37.3544150">
    <ele>2291.5</ele>
    <time>2026-06-24T07:02:30Z</time>
   </trkpt>
   <trkpt lat="-3.1889660" lon="37.3544110">
    <ele>2291.3</ele>
    <time>2026-06-24T07:02:31Z</time>
   </trkpt>
   <trkpt lat="-3.1889750" lon="37.3544190">
    <ele>2291.1</ele>
    <time>2026-06-24T07:02:32Z</time>
   </trkpt>
   <trkpt lat="-3.1889810" lon="37.3544180">
    <ele>2291.0</ele>
    <time>2026-06-24T07:02:33Z</time>
   </trkpt>
   <trkpt lat="-3.1889810" lon="37.3544140">
    <ele>2290.9</ele>
    <time>2026-06-24T07:02:34Z</time>
   </trkpt>
   <trkpt lat="-3.1889790" lon="37.3544120">
    <ele>2290.9</ele>
    <time>2026-06-24T07:02:35Z</time>
   </trkpt>
   <trkpt lat="-3.1889850" lon="37.3544090">
    <ele>2290.8</ele>
    <time>2026-06-24T07:02:36Z</time>
   </trkpt>
   <trkpt lat="-3.1889900" lon="37.3544050">
    <ele>2290.7</ele>
    <time>2026-06-24T07:02:37Z</time>
   </trkpt>
   <trkpt lat="-3.1889920" lon="37.3544030">
    <ele>2290.6</ele>
    <time>2026-06-24T07:02:38Z</time>
   </trkpt>
   <trkpt lat="-3.1889930" lon="37.3544000">
    <ele>2290.6</ele>
    <time>2026-06-24T07:02:39Z</time>
   </trkpt>
   <trkpt lat="-3.1889980" lon="37.3543970">
    <ele>2290.5</ele>
    <time>2026-06-24T07:02:40Z</time>
   </trkpt>
   <trkpt lat="-3.1890050" lon="37.3543920">
    <ele>2290.3</ele>
    <time>2026-06-24T07:02:41Z</time>
   </trkpt>
   <trkpt lat="-3.1890110" lon="37.3543840">
    <ele>2290.1</ele>
    <time>2026-06-24T07:02:42Z</time>
   </trkpt>
   <trkpt lat="-3.1890190" lon="37.3543820">
    <ele>2290.0</ele>
    <time>2026-06-24T07:02:43Z</time>
   </trkpt>
   <trkpt lat="-3.1890210" lon="37.3543800">
    <ele>2290.0</ele>
    <time>2026-06-24T07:02:44Z</time>
   </trkpt>
   <trkpt lat="-3.1890240" lon="37.3543790">
    <ele>2289.9</ele>
    <time>2026-06-24T07:02:45Z</time>
   </trkpt>
   <trkpt lat="-3.1890270" lon="37.3543780">
    <ele>2289.9</ele>
    <time>2026-06-24T07:02:46Z</time>
   </trkpt>
   <trkpt lat="-3.1890310" lon="37.3543750">
    <ele>2289.8</ele>
    <time>2026-06-24T07:02:47Z</time>
   </trkpt>
   <trkpt lat="-3.1890340" lon="37.3543710">
    <ele>2289.7</ele>
    <time>2026-06-24T07:02:48Z</time>
   </trkpt>
   <trkpt lat="-3.1890370" lon="37.3543710">
    <ele>2289.6</ele>
    <time>2026-06-24T07:02:49Z</time>
   </trkpt>
   <trkpt lat="-3.1890390" lon="37.3543670">
    <ele>2289.6</ele>
    <time>2026-06-24T07:02:50Z</time>
   </trkpt>
   <trkpt lat="-3.1890400" lon="37.3543670">
    <ele>2289.6</ele>
    <time>2026-06-24T07:02:51Z</time>
   </trkpt>
   <trkpt lat="-3.1890490" lon="37.3543620">
    <ele>2289.4</ele>
    <time>2026-06-24T07:02:52Z</time>
   </trkpt>
   <trkpt lat="-3.1890520" lon="37.3543560">
    <ele>2289.3</ele>
    <time>2026-06-24T07:02:53Z</time>
   </trkpt>
   <trkpt lat="-3.1890580" lon="37.3543550">
    <ele>2289.2</ele>
    <time>2026-06-24T07:02:54Z</time>
   </trkpt>
   <trkpt lat="-3.1890590" lon="37.3543560">
    <ele>2289.2</ele>
    <time>2026-06-24T07:02:55Z</time>
   </trkpt>
   <trkpt lat="-3.1890650" lon="37.3543580">
    <ele>2289.1</ele>
    <time>2026-06-24T07:02:56Z</time>
   </trkpt>
   <trkpt lat="-3.1890670" lon="37.3543560">
    <ele>2289.0</ele>
    <time>2026-06-24T07:02:57Z</time>
   </trkpt>
   <trkpt lat="-3.1890710" lon="37.3543530">
    <ele>2288.9</ele>
    <time>2026-06-24T07:02:58Z</time>
   </trkpt>
   <trkpt lat="-3.1890780" lon="37.3543540">
    <ele>2288.8</ele>
    <time>2026-06-24T07:02:59Z</time>
   </trkpt>
   <trkpt lat="-3.1890850" lon="37.3543570">
    <ele>2288.7</ele>
    <time>2026-06-24T07:03:00Z</time>
   </trkpt>
   <trkpt lat="-3.1890960" lon="37.3543620">
    <ele>2288.5</ele>
    <time>2026-06-24T07:03:01Z</time>
   </trkpt>
   <trkpt lat="-3.1890970" lon="37.3543650">
    <ele>2288.4</ele>
    <time>2026-06-24T07:03:02Z</time>
   </trkpt>
   <trkpt lat="-3.1890990" lon="37.3543680">
    <ele>2288.4</ele>
    <time>2026-06-24T07:03:03Z</time>
   </trkpt>
   <trkpt lat="-3.1891040" lon="37.3543680">
    <ele>2288.3</ele>
    <time>2026-06-24T07:03:04Z</time>
   </trkpt>
   <trkpt lat="-3.1891100" lon="37.3543690">
    <ele>2288.2</ele>
    <time>2026-06-24T07:03:05Z</time>
   </trkpt>
   <trkpt lat="-3.1891200" lon="37.3543600">
    <ele>2288.0</ele>
    <time>2026-06-24T07:03:06Z</time>
   </trkpt>
   <trkpt lat="-3.1891350" lon="37.3543500">
    <ele>2287.7</ele>
    <time>2026-06-24T07:03:07Z</time>
   </trkpt>
   <trkpt lat="-3.1891430" lon="37.3543550">
    <ele>2287.5</ele>
    <time>2026-06-24T07:03:08Z</time>
   </trkpt>
   <trkpt lat="-3.1891440" lon="37.3543580">
    <ele>2287.5</ele>
    <time>2026-06-24T07:03:09Z</time>
   </trkpt>
   <trkpt lat="-3.1891510" lon="37.3543620">
    <ele>2287.4</ele>
    <time>2026-06-24T07:03:10Z</time>
   </trkpt>
   <trkpt lat="-3.1891580" lon="37.3543690">
    <ele>2287.2</ele>
    <time>2026-06-24T07:03:11Z</time>
   </trkpt>
   <trkpt lat="-3.1891620" lon="37.3543780">
    <ele>2287.0</ele>
    <time>2026-06-24T07:03:12Z</time>
   </trkpt>
   <trkpt lat="-3.1891690" lon="37.3543830">
    <ele>2286.9</ele>
    <time>2026-06-24T07:03:13Z</time>
   </trkpt>
   <trkpt lat="-3.1891770" lon="37.3543920">
    <ele>2286.7</ele>
    <time>2026-06-24T07:03:14Z</time>
   </trkpt>
   <trkpt lat="-3.1891840" lon="37.3543910">
    <ele>2286.6</ele>
    <time>2026-06-24T07:03:15Z</time>
   </trkpt>
   <trkpt lat="-3.1891900" lon="37.3543920">
    <ele>2286.5</ele>
    <time>2026-06-24T07:03:16Z</time>
   </trkpt>
   <trkpt lat="-3.1891900" lon="37.3543940">
    <ele>2286.5</ele>
    <time>2026-06-24T07:03:17Z</time>
   </trkpt>
   <trkpt lat="-3.1891970" lon="37.3544020">
    <ele>2286.3</ele>
    <time>2026-06-24T07:03:18Z</time>
   </trkpt>
   <trkpt lat="-3.1892040" lon="37.3544080">
    <ele>2286.1</ele>
    <time>2026-06-24T07:03:19Z</time>
   </trkpt>
   <trkpt lat="-3.1892110" lon="37.3544030">
    <ele>2286.0</ele>
    <time>2026-06-24T07:03:20Z</time>
   </trkpt>
   <trkpt lat="-3.1892140" lon="37.3544080">
    <ele>2285.9</ele>
    <time>2026-06-24T07:03:21Z</time>
   </trkpt>
   <trkpt lat="-3.1892190" lon="37.3544150">
    <ele>2285.8</ele>
    <time>2026-06-24T07:03:22Z</time>
   </trkpt>
   <trkpt lat="-3.1892200" lon="37.3544190">
    <ele>2285.7</ele>
    <time>2026-06-24T07:03:23Z</time>
   </trkpt>
   <trkpt lat="-3.1892260" lon="37.3544250">
    <ele>2285.6</ele>
    <time>2026-06-24T07:03:24Z</time>
   </trkpt>
   <trkpt lat="-3.1892290" lon="37.3544230">
    <ele>2285.5</ele>
    <time>2026-06-24T07:03:25Z</time>
   </trkpt>
   <trkpt lat="-3.1892370" lon="37.3544240">
    <ele>2285.4</ele>
    <time>2026-06-24T07:03:26Z</time>
   </trkpt>
   <trkpt lat="-3.1892400" lon="37.3544300">
    <ele>2285.3</ele>
    <time>2026-06-24T07:03:27Z</time>
   </trkpt>
   <trkpt lat="-3.1892460" lon="37.3544370">
    <ele>2285.1</ele>
    <time>2026-06-24T07:03:28Z</time>
   </trkpt>
   <trkpt lat="-3.1892510" lon="37.3544350">
    <ele>2285.0</ele>
    <time>2026-06-24T07:03:29Z</time>
   </trkpt>
   <trkpt lat="-3.1892510" lon="37.3544350">
    <ele>2285.0</ele>
    <time>2026-06-24T07:03:30Z</time>
   </trkpt>
   <trkpt lat="-3.1892600" lon="37.3544370">
    <ele>2284.9</ele>
    <time>2026-06-24T07:03:31Z</time>
   </trkpt>
   <trkpt lat="-3.1892690" lon="37.3544330">
    <ele>2284.7</ele>
    <time>2026-06-24T07:03:32Z</time>
   </trkpt>
   <trkpt lat="-3.1892760" lon="37.3544320">
    <ele>2284.6</ele>
    <time>2026-06-24T07:03:33Z</time>
   </trkpt>
   <trkpt lat="-3.1892860" lon="37.3544250">
    <ele>2284.4</ele>
    <time>2026-06-24T07:03:34Z</time>
   </trkpt>
   <trkpt lat="-3.1892940" lon="37.3544250">
    <ele>2284.3</ele>
    <time>2026-06-24T07:03:35Z</time>
   </trkpt>
   <trkpt lat="-3.1893090" lon="37.3544250">
    <ele>2284.1</ele>
    <time>2026-06-24T07:03:36Z</time>
   </trkpt>
   <trkpt lat="-3.1893080" lon="37.3544310">
    <ele>2284.0</ele>
    <time>2026-06-24T07:03:37Z</time>
   </trkpt>
   <trkpt lat="-3.1893110" lon="37.3544340">
    <ele>2283.9</ele>
    <time>2026-06-24T07:03:38Z</time>
   </trkpt>
   <trkpt lat="-3.1893110" lon="37.3544350">
    <ele>2283.9</ele>
    <time>2026-06-24T07:03:39Z</time>
   </trkpt>
   <trkpt lat="-3.1893250" lon="37.3544360">
    <ele>2283.6</ele>
    <time>2026-06-24T07:03:40Z</time>
   </trkpt>
   <trkpt lat="-3.1893240" lon="37.3544370">
    <ele>2283.6</ele>
    <time>2026-06-24T07:03:41Z</time>
   </trkpt>
   <trkpt lat="-3.1893230" lon="37.3544370">
    <ele>2283.6</ele>
    <time>2026-06-24T07:03:42Z</time>
   </trkpt>
   <trkpt lat="-3.1893230" lon="37.3544370">
    <ele>2283.6</ele>
    <time>2026-06-24T07:03:43Z</time>
   </trkpt>
   <trkpt lat="-3.1893230" lon="37.3544370">
    <ele>2283.6</ele>
    <time>2026-06-24T07:03:44Z</time>
   </trkpt>
   <trkpt lat="-3.1893180" lon="37.3544310">
    <ele>2283.5</ele>
    <time>2026-06-24T07:03:45Z</time>
   </trkpt>
   <trkpt lat="-3.1893150" lon="37.3544310">
    <ele>2283.4</ele>
    <time>2026-06-24T07:03:46Z</time>
   </trkpt>
   <trkpt lat="-3.1893180" lon="37.3544320">
    <ele>2283.4</ele>
    <time>2026-06-24T07:03:47Z</time>
   </trkpt>
   <trkpt lat="-3.1893210" lon="37.3544380">
    <ele>2283.3</ele>
    <time>2026-06-24T07:03:48Z</time>
   </trkpt>
   <trkpt lat="-3.1893240" lon="37.3544370">
    <ele>2283.2</ele>
    <time>2026-06-24T07:03:49Z</time>
   </trkpt>
   <trkpt lat="-3.1893280" lon="37.3544400">
    <ele>2283.1</ele>
    <time>2026-06-24T07:03:50Z</time>
   </trkpt>
   <trkpt lat="-3.1893370" lon="37.3544430">
    <ele>2283.0</ele>
    <time>2026-06-24T07:03:51Z</time>
   </trkpt>
   <trkpt lat="-3.1893470" lon="37.3544500">
    <ele>2282.8</ele>
    <time>2026-06-24T07:03:52Z</time>
   </trkpt>
   <trkpt lat="-3.1893560" lon="37.3544440">
    <ele>2282.6</ele>
    <time>2026-06-24T07:03:53Z</time>
   </trkpt>
   <trkpt lat="-3.1893640" lon="37.3544410">
    <ele>2282.4</ele>
    <time>2026-06-24T07:03:54Z</time>
   </trkpt>
   <trkpt lat="-3.1893690" lon="37.3544390">
    <ele>2282.3</ele>
    <time>2026-06-24T07:03:55Z</time>
   </trkpt>
   <trkpt lat="-3.1893770" lon="37.3544350">
    <ele>2282.2</ele>
    <time>2026-06-24T07:03:56Z</time>
   </trkpt>
   <trkpt lat="-3.1893790" lon="37.3544350">
    <ele>2282.2</ele>
    <time>2026-06-24T07:03:57Z</time>
   </trkpt>
   <trkpt lat="-3.1893890" lon="37.3544350">
    <ele>2282.0</ele>
    <time>2026-06-24T07:03:58Z</time>
   </trkpt>
   <trkpt lat="-3.1893950" lon="37.3544380">
    <ele>2281.9</ele>
    <time>2026-06-24T07:03:59Z</time>
   </trkpt>
   <trkpt lat="-3.1894030" lon="37.3544390">
    <ele>2281.8</ele>
    <time>2026-06-24T07:04:00Z</time>
   </trkpt>
   <trkpt lat="-3.1894150" lon="37.3544400">
    <ele>2281.6</ele>
    <time>2026-06-24T07:04:01Z</time>
   </trkpt>
   <trkpt lat="-3.1894200" lon="37.3544400">
    <ele>2281.5</ele>
    <time>2026-06-24T07:04:02Z</time>
   </trkpt>
   <trkpt lat="-3.1894240" lon="37.3544350">
    <ele>2281.4</ele>
    <time>2026-06-24T07:04:03Z</time>
   </trkpt>
   <trkpt lat="-3.1894250" lon="37.3544290">
    <ele>2281.3</ele>
    <time>2026-06-24T07:04:04Z</time>
   </trkpt>
   <trkpt lat="-3.1894280" lon="37.3544250">
    <ele>2281.2</ele>
    <time>2026-06-24T07:04:05Z</time>
   </trkpt>
   <trkpt lat="-3.1894380" lon="37.3544260">
    <ele>2281.0</ele>
    <time>2026-06-24T07:04:06Z</time>
   </trkpt>
   <trkpt lat="-3.1894430" lon="37.3544230">
    <ele>2280.9</ele>
    <time>2026-06-24T07:04:07Z</time>
   </trkpt>
   <trkpt lat="-3.1894400" lon="37.3544240">
    <ele>2280.9</ele>
    <time>2026-06-24T07:04:08Z</time>
   </trkpt>
   <trkpt lat="-3.1894480" lon="37.3544220">
    <ele>2280.7</ele>
    <time>2026-06-24T07:04:09Z</time>
   </trkpt>
   <trkpt lat="-3.1894560" lon="37.3544220">
    <ele>2280.6</ele>
    <time>2026-06-24T07:04:10Z</time>
   </trkpt>
   <trkpt lat="-3.1894620" lon="37.3544160">
    <ele>2280.5</ele>
    <time>2026-06-24T07:04:11Z</time>
   </trkpt>
   <trkpt lat="-3.1894660" lon="37.3544140">
    <ele>2280.4</ele>
    <time>2026-06-24T07:04:12Z</time>
   </trkpt>
   <trkpt lat="-3.1894730" lon="37.3544150">
    <ele>2280.3</ele>
    <time>2026-06-24T07:04:13Z</time>
   </trkpt>
   <trkpt lat="-3.1894780" lon="37.3544100">
    <ele>2280.2</ele>
    <time>2026-06-24T07:04:14Z</time>
   </trkpt>
   <trkpt lat="-3.1894860" lon="37.3544130">
    <ele>2280.0</ele>
    <time>2026-06-24T07:04:15Z</time>
   </trkpt>
   <trkpt lat="-3.1894910" lon="37.3544130">
    <ele>2280.0</ele>
    <time>2026-06-24T07:04:16Z</time>
   </trkpt>
   <trkpt lat="-3.1894960" lon="37.3544150">
    <ele>2279.9</ele>
    <time>2026-06-24T07:04:17Z</time>
   </trkpt>
   <trkpt lat="-3.1895030" lon="37.3544170">
    <ele>2279.8</ele>
    <time>2026-06-24T07:04:18Z</time>
   </trkpt>
   <trkpt lat="-3.1895120" lon="37.3544180">
    <ele>2279.6</ele>
    <time>2026-06-24T07:04:19Z</time>
   </trkpt>
   <trkpt lat="-3.1895130" lon="37.3544160">
    <ele>2279.6</ele>
    <time>2026-06-24T07:04:20Z</time>
   </trkpt>
   <trkpt lat="-3.1895180" lon="37.3544140">
    <ele>2279.5</ele>
    <time>2026-06-24T07:04:21Z</time>
   </trkpt>
   <trkpt lat="-3.1895230" lon="37.3544180">
    <ele>2279.4</ele>
    <time>2026-06-24T07:04:22Z</time>
   </trkpt>
   <trkpt lat="-3.1895320" lon="37.3544160">
    <ele>2279.3</ele>
    <time>2026-06-24T07:04:23Z</time>
   </trkpt>
   <trkpt lat="-3.1895320" lon="37.3544180">
    <ele>2279.2</ele>
    <time>2026-06-24T07:04:24Z</time>
   </trkpt>
   <trkpt lat="-3.1895400" lon="37.3544200">
    <ele>2279.1</ele>
    <time>2026-06-24T07:04:25Z</time>
   </trkpt>
   <trkpt lat="-3.1895480" lon="37.3544260">
    <ele>2279.0</ele>
    <time>2026-06-24T07:04:26Z</time>
   </trkpt>
   <trkpt lat="-3.1895410" lon="37.3544320">
    <ele>2278.9</ele>
    <time>2026-06-24T07:04:27Z</time>
   </trkpt>
   <trkpt lat="-3.1895480" lon="37.3544370">
    <ele>2278.7</ele>
    <time>2026-06-24T07:04:28Z</time>
   </trkpt>
   <trkpt lat="-3.1895530" lon="37.3544440">
    <ele>2278.6</ele>
    <time>2026-06-24T07:04:29Z</time>
   </trkpt>
   <trkpt lat="-3.1895640" lon="37.3544490">
    <ele>2278.5</ele>
    <time>2026-06-24T07:04:30Z</time>
   </trkpt>
   <trkpt lat="-3.1895670" lon="37.3544500">
    <ele>2278.4</ele>
    <time>2026-06-24T07:04:31Z</time>
   </trkpt>
   <trkpt lat="-3.1895750" lon="37.3544470">
    <ele>2278.3</ele>
    <time>2026-06-24T07:04:32Z</time>
   </trkpt>
   <trkpt lat="-3.1895770" lon="37.3544430">
    <ele>2278.3</ele>
    <time>2026-06-24T07:04:33Z</time>
   </trkpt>
   <trkpt lat="-3.1895810" lon="37.3544470">
    <ele>2278.2</ele>
    <time>2026-06-24T07:04:34Z</time>
   </trkpt>
   <trkpt lat="-3.1895830" lon="37.3544410">
    <ele>2278.1</ele>
    <time>2026-06-24T07:04:35Z</time>
   </trkpt>
   <trkpt lat="-3.1895920" lon="37.3544410">
    <ele>2278.0</ele>
    <time>2026-06-24T07:04:36Z</time>
   </trkpt>
   <trkpt lat="-3.1895970" lon="37.3544410">
    <ele>2277.9</ele>
    <time>2026-06-24T07:04:37Z</time>
   </trkpt>
   <trkpt lat="-3.1896040" lon="37.3544380">
    <ele>2277.9</ele>
    <time>2026-06-24T07:04:38Z</time>
   </trkpt>
   <trkpt lat="-3.1896080" lon="37.3544380">
    <ele>2277.8</ele>
    <time>2026-06-24T07:04:39Z</time>
   </trkpt>
   <trkpt lat="-3.1896090" lon="37.3544360">
    <ele>2277.8</ele>
    <time>2026-06-24T07:04:40Z</time>
   </trkpt>
   <trkpt lat="-3.1896160" lon="37.3544420">
    <ele>2277.7</ele>
    <time>2026-06-24T07:04:41Z</time>
   </trkpt>
   <trkpt lat="-3.1896220" lon="37.3544370">
    <ele>2277.6</ele>
    <time>2026-06-24T07:04:42Z</time>
   </trkpt>
   <trkpt lat="-3.1896320" lon="37.3544350">
    <ele>2277.5</ele>
    <time>2026-06-24T07:04:43Z</time>
   </trkpt>
   <trkpt lat="-3.1896360" lon="37.3544320">
    <ele>2277.4</ele>
    <time>2026-06-24T07:04:44Z</time>
   </trkpt>
   <trkpt lat="-3.1896440" lon="37.3544310">
    <ele>2277.3</ele>
    <time>2026-06-24T07:04:45Z</time>
   </trkpt>
   <trkpt lat="-3.1896430" lon="37.3544320">
    <ele>2277.3</ele>
    <time>2026-06-24T07:04:46Z</time>
   </trkpt>
   <trkpt lat="-3.1896610" lon="37.3544260">
    <ele>2277.1</ele>
    <time>2026-06-24T07:04:47Z</time>
   </trkpt>
   <trkpt lat="-3.1896740" lon="37.3544240">
    <ele>2277.0</ele>
    <time>2026-06-24T07:04:48Z</time>
   </trkpt>
   <trkpt lat="-3.1896820" lon="37.3544180">
    <ele>2276.9</ele>
    <time>2026-06-24T07:04:49Z</time>
   </trkpt>
   <trkpt lat="-3.1896900" lon="37.3544150">
    <ele>2276.8</ele>
    <time>2026-06-24T07:04:50Z</time>
   </trkpt>
   <trkpt lat="-3.1896990" lon="37.3544140">
    <ele>2276.7</ele>
    <time>2026-06-24T07:04:51Z</time>
   </trkpt>
   <trkpt lat="-3.1897070" lon="37.3544100">
    <ele>2276.6</ele>
    <time>2026-06-24T07:04:52Z</time>
   </trkpt>
   <trkpt lat="-3.1897140" lon="37.3544100">
    <ele>2276.6</ele>
    <time>2026-06-24T07:04:53Z</time>
   </trkpt>
   <trkpt lat="-3.1897220" lon="37.3544070">
    <ele>2276.5</ele>
    <time>2026-06-24T07:04:54Z</time>
   </trkpt>
   <trkpt lat="-3.1897290" lon="37.3544060">
    <ele>2276.4</ele>
    <time>2026-06-24T07:04:55Z</time>
   </trkpt>
   <trkpt lat="-3.1897370" lon="37.3544030">
    <ele>2276.3</ele>
    <time>2026-06-24T07:04:56Z</time>
   </trkpt>
   <trkpt lat="-3.1897430" lon="37.3544010">
    <ele>2276.3</ele>
    <time>2026-06-24T07:04:57Z</time>
   </trkpt>
   <trkpt lat="-3.1897530" lon="37.3543970">
    <ele>2276.2</ele>
    <time>2026-06-24T07:04:58Z</time>
   </trkpt>
   <trkpt lat="-3.1897650" lon="37.3543950">
    <ele>2276.0</ele>
    <time>2026-06-24T07:04:59Z</time>
   </trkpt>
   <trkpt lat="-3.1897800" lon="37.3543900">
    <ele>2275.9</ele>
    <time>2026-06-24T07:05:00Z</time>
   </trkpt>
   <trkpt lat="-3.1897980" lon="37.3543820">
    <ele>2275.7</ele>
    <time>2026-06-24T07:05:01Z</time>
   </trkpt>
   <trkpt lat="-3.1898290" lon="37.3543710">
    <ele>2275.4</ele>
    <time>2026-06-24T07:05:02Z</time>
   </trkpt>
   <trkpt lat="-3.1898410" lon="37.3543590">
    <ele>2275.2</ele>
    <time>2026-06-24T07:05:03Z</time>
   </trkpt>
   <trkpt lat="-3.1898430" lon="37.3543500">
    <ele>2275.1</ele>
    <time>2026-06-24T07:05:04Z</time>
   </trkpt>
   <trkpt lat="-3.1898350" lon="37.3543420">
    <ele>2275.0</ele>
    <time>2026-06-24T07:05:05Z</time>
   </trkpt>
   <trkpt lat="-3.1898400" lon="37.3543380">
    <ele>2274.9</ele>
    <time>2026-06-24T07:05:06Z</time>
   </trkpt>
   <trkpt lat="-3.1898390" lon="37.3543230">
    <ele>2274.7</ele>
    <time>2026-06-24T07:05:07Z</time>
   </trkpt>
   <trkpt lat="-3.1898470" lon="37.3543110">
    <ele>2274.5</ele>
    <time>2026-06-24T07:05:08Z</time>
   </trkpt>
   <trkpt lat="-3.1898500" lon="37.3543080">
    <ele>2274.5</ele>
    <time>2026-06-24T07:05:09Z</time>
   </trkpt>
   <trkpt lat="-3.1898520" lon="37.3543050">
    <ele>2274.5</ele>
    <time>2026-06-24T07:05:10Z</time>
   </trkpt>
   <trkpt lat="-3.1898580" lon="37.3542980">
    <ele>2274.3</ele>
    <time>2026-06-24T07:05:11Z</time>
   </trkpt>
   <trkpt lat="-3.1898650" lon="37.3542980">
    <ele>2274.3</ele>
    <time>2026-06-24T07:05:12Z</time>
   </trkpt>
   <trkpt lat="-3.1898670" lon="37.3542940">
    <ele>2274.2</ele>
    <time>2026-06-24T07:05:13Z</time>
   </trkpt>
   <trkpt lat="-3.1898710" lon="37.3542940">
    <ele>2274.2</ele>
    <time>2026-06-24T07:05:14Z</time>
   </trkpt>
   <trkpt lat="-3.1898740" lon="37.3542900">
    <ele>2274.1</ele>
    <time>2026-06-24T07:05:15Z</time>
   </trkpt>
   <trkpt lat="-3.1898740" lon="37.3542780">
    <ele>2273.9</ele>
    <time>2026-06-24T07:05:16Z</time>
   </trkpt>
   <trkpt lat="-3.1898780" lon="37.3542790">
    <ele>2273.9</ele>
    <time>2026-06-24T07:05:17Z</time>
   </trkpt>
   <trkpt lat="-3.1898800" lon="37.3542770">
    <ele>2273.9</ele>
    <time>2026-06-24T07:05:18Z</time>
   </trkpt>
   <trkpt lat="-3.1898810" lon="37.3542700">
    <ele>2273.8</ele>
    <time>2026-06-24T07:05:19Z</time>
   </trkpt>
   <trkpt lat="-3.1898910" lon="37.3542610">
    <ele>2273.6</ele>
    <time>2026-06-24T07:05:20Z</time>
   </trkpt>
   <trkpt lat="-3.1899020" lon="37.3542570">
    <ele>2273.5</ele>
    <time>2026-06-24T07:05:21Z</time>
   </trkpt>
   <trkpt lat="-3.1899160" lon="37.3542510">
    <ele>2273.3</ele>
    <time>2026-06-24T07:05:22Z</time>
   </trkpt>
   <trkpt lat="-3.1899250" lon="37.3542450">
    <ele>2273.2</ele>
    <time>2026-06-24T07:05:23Z</time>
   </trkpt>
   <trkpt lat="-3.1899310" lon="37.3542400">
    <ele>2273.1</ele>
    <time>2026-06-24T07:05:24Z</time>
   </trkpt>
   <trkpt lat="-3.1899330" lon="37.3542320">
    <ele>2273.0</ele>
    <time>2026-06-24T07:05:25Z</time>
   </trkpt>
   <trkpt lat="-3.1899350" lon="37.3542240">
    <ele>2272.9</ele>
    <time>2026-06-24T07:05:26Z</time>
   </trkpt>
   <trkpt lat="-3.1899420" lon="37.3542170">
    <ele>2272.7</ele>
    <time>2026-06-24T07:05:27Z</time>
   </trkpt>
   <trkpt lat="-3.1899500" lon="37.3542110">
    <ele>2272.6</ele>
    <time>2026-06-24T07:05:28Z</time>
   </trkpt>
   <trkpt lat="-3.1899620" lon="37.3542120">
    <ele>2272.4</ele>
    <time>2026-06-24T07:05:29Z</time>
   </trkpt>
   <trkpt lat="-3.1899700" lon="37.3542120">
    <ele>2272.3</ele>
    <time>2026-06-24T07:05:30Z</time>
   </trkpt>
   <trkpt lat="-3.1899750" lon="37.3542050">
    <ele>2272.2</ele>
    <time>2026-06-24T07:05:31Z</time>
   </trkpt>
   <trkpt lat="-3.1899850" lon="37.3541980">
    <ele>2272.0</ele>
    <time>2026-06-24T07:05:32Z</time>
   </trkpt>
   <trkpt lat="-3.1899880" lon="37.3541920">
    <ele>2271.9</ele>
    <time>2026-06-24T07:05:33Z</time>
   </trkpt>
   <trkpt lat="-3.1899930" lon="37.3541900">
    <ele>2271.9</ele>
    <time>2026-06-24T07:05:34Z</time>
   </trkpt>
   <trkpt lat="-3.1899990" lon="37.3541830">
    <ele>2271.8</ele>
    <time>2026-06-24T07:05:35Z</time>
   </trkpt>
   <trkpt lat="-3.1900090" lon="37.3541790">
    <ele>2271.6</ele>
    <time>2026-06-24T07:05:36Z</time>
   </trkpt>
   <trkpt lat="-3.1900130" lon="37.3541790">
    <ele>2271.6</ele>
    <time>2026-06-24T07:05:37Z</time>
   </trkpt>
   <trkpt lat="-3.1900200" lon="37.3541780">
    <ele>2271.5</ele>
    <time>2026-06-24T07:05:38Z</time>
   </trkpt>
   <trkpt lat="-3.1900270" lon="37.3541760">
    <ele>2271.4</ele>
    <time>2026-06-24T07:05:39Z</time>
   </trkpt>
   <trkpt lat="-3.1900360" lon="37.3541740">
    <ele>2271.2</ele>
    <time>2026-06-24T07:05:40Z</time>
   </trkpt>
   <trkpt lat="-3.1900320" lon="37.3541770">
    <ele>2271.2</ele>
    <time>2026-06-24T07:05:41Z</time>
   </trkpt>
   <trkpt lat="-3.1900340" lon="37.3541780">
    <ele>2271.1</ele>
    <time>2026-06-24T07:05:42Z</time>
   </trkpt>
   <trkpt lat="-3.1900360" lon="37.3541720">
    <ele>2271.0</ele>
    <time>2026-06-24T07:05:43Z</time>
   </trkpt>
   <trkpt lat="-3.1900430" lon="37.3541680">
    <ele>2270.9</ele>
    <time>2026-06-24T07:05:44Z</time>
   </trkpt>
   <trkpt lat="-3.1900420" lon="37.3541630">
    <ele>2270.8</ele>
    <time>2026-06-24T07:05:45Z</time>
   </trkpt>
   <trkpt lat="-3.1900460" lon="37.3541590">
    <ele>2270.8</ele>
    <time>2026-06-24T07:05:46Z</time>
   </trkpt>
   <trkpt lat="-3.1900570" lon="37.3541610">
    <ele>2270.6</ele>
    <time>2026-06-24T07:05:47Z</time>
   </trkpt>
   <trkpt lat="-3.1900600" lon="37.3541510">
    <ele>2270.4</ele>
    <time>2026-06-24T07:05:48Z</time>
   </trkpt>
   <trkpt lat="-3.1900640" lon="37.3541510">
    <ele>2270.4</ele>
    <time>2026-06-24T07:05:49Z</time>
   </trkpt>
   <trkpt lat="-3.1900740" lon="37.3541480">
    <ele>2270.2</ele>
    <time>2026-06-24T07:05:50Z</time>
   </trkpt>
   <trkpt lat="-3.1900820" lon="37.3541430">
    <ele>2270.1</ele>
    <time>2026-06-24T07:05:51Z</time>
   </trkpt>
   <trkpt lat="-3.1900890" lon="37.3541380">
    <ele>2269.9</ele>
    <time>2026-06-24T07:05:52Z</time>
   </trkpt>
   <trkpt lat="-3.1900980" lon="37.3541370">
    <ele>2269.8</ele>
    <time>2026-06-24T07:05:53Z</time>
   </trkpt>
   <trkpt lat="-3.1901010" lon="37.3541390">
    <ele>2269.7</ele>
    <time>2026-06-24T07:05:54Z</time>
   </trkpt>
   <trkpt lat="-3.1901020" lon="37.3541400">
    <ele>2269.7</ele>
    <time>2026-06-24T07:05:55Z</time>
   </trkpt>
   <trkpt lat="-3.1900980" lon="37.3541400">
    <ele>2269.7</ele>
    <time>2026-06-24T07:05:56Z</time>
   </trkpt>
   <trkpt lat="-3.1901070" lon="37.3541380">
    <ele>2269.5</ele>
    <time>2026-06-24T07:05:57Z</time>
   </trkpt>
   <trkpt lat="-3.1901020" lon="37.3541320">
    <ele>2269.4</ele>
    <time>2026-06-24T07:05:58Z</time>
   </trkpt>
   <trkpt lat="-3.1901060" lon="37.3541190">
    <ele>2269.2</ele>
    <time>2026-06-24T07:05:59Z</time>
   </trkpt>
   <trkpt lat="-3.1901110" lon="37.3541130">
    <ele>2269.1</ele>
    <time>2026-06-24T07:06:00Z</time>
   </trkpt>
   <trkpt lat="-3.1901130" lon="37.3541170">
    <ele>2269.0</ele>
    <time>2026-06-24T07:06:01Z</time>
   </trkpt>
   <trkpt lat="-3.1901160" lon="37.3541150">
    <ele>2268.9</ele>
    <time>2026-06-24T07:06:02Z</time>
   </trkpt>
   <trkpt lat="-3.1901220" lon="37.3541130">
    <ele>2268.9</ele>
    <time>2026-06-24T07:06:03Z</time>
   </trkpt>
   <trkpt lat="-3.1901250" lon="37.3541110">
    <ele>2268.8</ele>
    <time>2026-06-24T07:06:04Z</time>
   </trkpt>
   <trkpt lat="-3.1901300" lon="37.3541090">
    <ele>2268.7</ele>
    <time>2026-06-24T07:06:05Z</time>
   </trkpt>
   <trkpt lat="-3.1901380" lon="37.3541080">
    <ele>2268.6</ele>
    <time>2026-06-24T07:06:06Z</time>
   </trkpt>
   <trkpt lat="-3.1901410" lon="37.3541000">
    <ele>2268.5</ele>
    <time>2026-06-24T07:06:07Z</time>
   </trkpt>
   <trkpt lat="-3.1901460" lon="37.3540970">
    <ele>2268.4</ele>
    <time>2026-06-24T07:06:08Z</time>
   </trkpt>
   <trkpt lat="-3.1901560" lon="37.3540950">
    <ele>2268.2</ele>
    <time>2026-06-24T07:06:09Z</time>
   </trkpt>
   <trkpt lat="-3.1901600" lon="37.3540910">
    <ele>2268.1</ele>
    <time>2026-06-24T07:06:10Z</time>
   </trkpt>
   <trkpt lat="-3.1901610" lon="37.3540870">
    <ele>2268.1</ele>
    <time>2026-06-24T07:06:11Z</time>
   </trkpt>
   <trkpt lat="-3.1901660" lon="37.3540890">
    <ele>2268.0</ele>
    <time>2026-06-24T07:06:12Z</time>
   </trkpt>
   <trkpt lat="-3.1901780" lon="37.3540890">
    <ele>2267.8</ele>
    <time>2026-06-24T07:06:13Z</time>
   </trkpt>
   <trkpt lat="-3.1901870" lon="37.3540870">
    <ele>2267.7</ele>
    <time>2026-06-24T07:06:14Z</time>
   </trkpt>
   <trkpt lat="-3.1901860" lon="37.3540830">
    <ele>2267.6</ele>
    <time>2026-06-24T07:06:15Z</time>
   </trkpt>
   <trkpt lat="-3.1901890" lon="37.3540820">
    <ele>2267.5</ele>
    <time>2026-06-24T07:06:16Z</time>
   </trkpt>
   <trkpt lat="-3.1901910" lon="37.3540800">
    <ele>2267.5</ele>
    <time>2026-06-24T07:06:17Z</time>
   </trkpt>
   <trkpt lat="-3.1901970" lon="37.3540800">
    <ele>2267.4</ele>
    <time>2026-06-24T07:06:18Z</time>
   </trkpt>
   <trkpt lat="-3.1901950" lon="37.3540770">
    <ele>2267.3</ele>
    <time>2026-06-24T07:06:19Z</time>
   </trkpt>
   <trkpt lat="-3.1902010" lon="37.3540740">
    <ele>2267.2</ele>
    <time>2026-06-24T07:06:20Z</time>
   </trkpt>
   <trkpt lat="-3.1902050" lon="37.3540730">
    <ele>2267.2</ele>
    <time>2026-06-24T07:06:21Z</time>
   </trkpt>
   <trkpt lat="-3.1902100" lon="37.3540790">
    <ele>2267.1</ele>
    <time>2026-06-24T07:06:22Z</time>
   </trkpt>
   <trkpt lat="-3.1902190" lon="37.3540760">
    <ele>2266.9</ele>
    <time>2026-06-24T07:06:23Z</time>
   </trkpt>
   <trkpt lat="-3.1902210" lon="37.3540750">
    <ele>2266.9</ele>
    <time>2026-06-24T07:06:24Z</time>
   </trkpt>
   <trkpt lat="-3.1902260" lon="37.3540710">
    <ele>2266.8</ele>
    <time>2026-06-24T07:06:25Z</time>
   </trkpt>
   <trkpt lat="-3.1902340" lon="37.3540730">
    <ele>2266.7</ele>
    <time>2026-06-24T07:06:26Z</time>
   </trkpt>
   <trkpt lat="-3.1902430" lon="37.3540740">
    <ele>2266.6</ele>
    <time>2026-06-24T07:06:27Z</time>
   </trkpt>
   <trkpt lat="-3.1902480" lon="37.3540730">
    <ele>2266.5</ele>
    <time>2026-06-24T07:06:28Z</time>
   </trkpt>
   <trkpt lat="-3.1902540" lon="37.3540690">
    <ele>2266.4</ele>
    <time>2026-06-24T07:06:29Z</time>
   </trkpt>
   <trkpt lat="-3.1902590" lon="37.3540690">
    <ele>2266.3</ele>
    <time>2026-06-24T07:06:30Z</time>
   </trkpt>
   <trkpt lat="-3.1902590" lon="37.3540640">
    <ele>2266.3</ele>
    <time>2026-06-24T07:06:31Z</time>
   </trkpt>
   <trkpt lat="-3.1902670" lon="37.3540610">
    <ele>2266.1</ele>
    <time>2026-06-24T07:06:32Z</time>
   </trkpt>
   <trkpt lat="-3.1902750" lon="37.3540600">
    <ele>2266.0</ele>
    <time>2026-06-24T07:06:33Z</time>
   </trkpt>
   <trkpt lat="-3.1902690" lon="37.3540610">
    <ele>2266.0</ele>
    <time>2026-06-24T07:06:34Z</time>
   </trkpt>
   <trkpt lat="-3.1902800" lon="37.3540660">
    <ele>2265.8</ele>
    <time>2026-06-24T07:06:35Z</time>
   </trkpt>
   <trkpt lat="-3.1902820" lon="37.3540650">
    <ele>2265.8</ele>
    <time>2026-06-24T07:06:36Z</time>
   </trkpt>
   <trkpt lat="-3.1902900" lon="37.3540620">
    <ele>2265.7</ele>
    <time>2026-06-24T07:06:37Z</time>
   </trkpt>
   <trkpt lat="-3.1902890" lon="37.3540590">
    <ele>2265.6</ele>
    <time>2026-06-24T07:06:38Z</time>
   </trkpt>
   <trkpt lat="-3.1903000" lon="37.3540590">
    <ele>2265.5</ele>
    <time>2026-06-24T07:06:39Z</time>
   </trkpt>
   <trkpt lat="-3.1903060" lon="37.3540510">
    <ele>2265.4</ele>
    <time>2026-06-24T07:06:40Z</time>
   </trkpt>
   <trkpt lat="-3.1903170" lon="37.3540490">
    <ele>2265.3</ele>
    <time>2026-06-24T07:06:41Z</time>
   </trkpt>
   <trkpt lat="-3.1903220" lon="37.3540510">
    <ele>2265.2</ele>
    <time>2026-06-24T07:06:42Z</time>
   </trkpt>
   <trkpt lat="-3.1903250" lon="37.3540570">
    <ele>2265.1</ele>
    <time>2026-06-24T07:06:43Z</time>
   </trkpt>
   <trkpt lat="-3.1903360" lon="37.3540640">
    <ele>2265.0</ele>
    <time>2026-06-24T07:06:44Z</time>
   </trkpt>
   <trkpt lat="-3.1903470" lon="37.3540680">
    <ele>2264.9</ele>
    <time>2026-06-24T07:06:45Z</time>
   </trkpt>
   <trkpt lat="-3.1903560" lon="37.3540650">
    <ele>2264.8</ele>
    <time>2026-06-24T07:06:46Z</time>
   </trkpt>
   <trkpt lat="-3.1903630" lon="37.3540610">
    <ele>2264.7</ele>
    <time>2026-06-24T07:06:47Z</time>
   </trkpt>
   <trkpt lat="-3.1903670" lon="37.3540510">
    <ele>2264.6</ele>
    <time>2026-06-24T07:06:48Z</time>
   </trkpt>
   <trkpt lat="-3.1903740" lon="37.3540480">
    <ele>2264.5</ele>
    <time>2026-06-24T07:06:49Z</time>
   </trkpt>
   <trkpt lat="-3.1903790" lon="37.3540330">
    <ele>2264.3</ele>
    <time>2026-06-24T07:06:50Z</time>
   </trkpt>
   <trkpt lat="-3.1903830" lon="37.3540210">
    <ele>2264.2</ele>
    <time>2026-06-24T07:06:51Z</time>
   </trkpt>
   <trkpt lat="-3.1903860" lon="37.3540160">
    <ele>2264.1</ele>
    <time>2026-06-24T07:06:52Z</time>
   </trkpt>
   <trkpt lat="-3.1904010" lon="37.3540050">
    <ele>2263.9</ele>
    <time>2026-06-24T07:06:53Z</time>
   </trkpt>
   <trkpt lat="-3.1904120" lon="37.3539940">
    <ele>2263.8</ele>
    <time>2026-06-24T07:06:54Z</time>
   </trkpt>
   <trkpt lat="-3.1904300" lon="37.3539810">
    <ele>2263.6</ele>
    <time>2026-06-24T07:06:55Z</time>
   </trkpt>
   <trkpt lat="-3.1904380" lon="37.3539790">
    <ele>2263.5</ele>
    <time>2026-06-24T07:06:56Z</time>
   </trkpt>
   <trkpt lat="-3.1904480" lon="37.3539730">
    <ele>2263.4</ele>
    <time>2026-06-24T07:06:57Z</time>
   </trkpt>
   <trkpt lat="-3.1904560" lon="37.3539670">
    <ele>2263.3</ele>
    <time>2026-06-24T07:06:58Z</time>
   </trkpt>
   <trkpt lat="-3.1904600" lon="37.3539600">
    <ele>2263.2</ele>
    <time>2026-06-24T07:06:59Z</time>
   </trkpt>
   <trkpt lat="-3.1904630" lon="37.3539610">
    <ele>2263.2</ele>
    <time>2026-06-24T07:07:00Z</time>
   </trkpt>
   <trkpt lat="-3.1904660" lon="37.3539510">
    <ele>2263.1</ele>
    <time>2026-06-24T07:07:01Z</time>
   </trkpt>
   <trkpt lat="-3.1904760" lon="37.3539380">
    <ele>2262.9</ele>
    <time>2026-06-24T07:07:02Z</time>
   </trkpt>
   <trkpt lat="-3.1904870" lon="37.3539200">
    <ele>2262.7</ele>
    <time>2026-06-24T07:07:03Z</time>
   </trkpt>
   <trkpt lat="-3.1904980" lon="37.3539100">
    <ele>2262.6</ele>
    <time>2026-06-24T07:07:04Z</time>
   </trkpt>
   <trkpt lat="-3.1905040" lon="37.3539030">
    <ele>2262.5</ele>
    <time>2026-06-24T07:07:05Z</time>
   </trkpt>
   <trkpt lat="-3.1905110" lon="37.3538990">
    <ele>2262.4</ele>
    <time>2026-06-24T07:07:06Z</time>
   </trkpt>
   <trkpt lat="-3.1905220" lon="37.3538940">
    <ele>2262.3</ele>
    <time>2026-06-24T07:07:07Z</time>
   </trkpt>
   <trkpt lat="-3.1905190" lon="37.3538910">
    <ele>2262.2</ele>
    <time>2026-06-24T07:07:08Z</time>
   </trkpt>
   <trkpt lat="-3.1905210" lon="37.3538890">
    <ele>2262.2</ele>
    <time>2026-06-24T07:07:09Z</time>
   </trkpt>
   <trkpt lat="-3.1905310" lon="37.3538810">
    <ele>2262.1</ele>
    <time>2026-06-24T07:07:10Z</time>
   </trkpt>
   <trkpt lat="-3.1905360" lon="37.3538780">
    <ele>2262.0</ele>
    <time>2026-06-24T07:07:11Z</time>
   </trkpt>
   <trkpt lat="-3.1905470" lon="37.3538710">
    <ele>2261.9</ele>
    <time>2026-06-24T07:07:12Z</time>
   </trkpt>
   <trkpt lat="-3.1905440" lon="37.3538700">
    <ele>2261.9</ele>
    <time>2026-06-24T07:07:13Z</time>
   </trkpt>
   <trkpt lat="-3.1905470" lon="37.3538660">
    <ele>2261.8</ele>
    <time>2026-06-24T07:07:14Z</time>
   </trkpt>
   <trkpt lat="-3.1905480" lon="37.3538630">
    <ele>2261.8</ele>
    <time>2026-06-24T07:07:15Z</time>
   </trkpt>
   <trkpt lat="-3.1905570" lon="37.3538590">
    <ele>2261.7</ele>
    <time>2026-06-24T07:07:16Z</time>
   </trkpt>
   <trkpt lat="-3.1905650" lon="37.3538530">
    <ele>2261.6</ele>
    <time>2026-06-24T07:07:17Z</time>
   </trkpt>
   <trkpt lat="-3.1905680" lon="37.3538500">
    <ele>2261.5</ele>
    <time>2026-06-24T07:07:18Z</time>
   </trkpt>
   <trkpt lat="-3.1905720" lon="37.3538390">
    <ele>2261.4</ele>
    <time>2026-06-24T07:07:19Z</time>
   </trkpt>
   <trkpt lat="-3.1905750" lon="37.3538340">
    <ele>2261.4</ele>
    <time>2026-06-24T07:07:20Z</time>
   </trkpt>
   <trkpt lat="-3.1905780" lon="37.3538330">
    <ele>2261.3</ele>
    <time>2026-06-24T07:07:21Z</time>
   </trkpt>
   <trkpt lat="-3.1905860" lon="37.3538300">
    <ele>2261.2</ele>
    <time>2026-06-24T07:07:22Z</time>
   </trkpt>
   <trkpt lat="-3.1905930" lon="37.3538190">
    <ele>2261.1</ele>
    <time>2026-06-24T07:07:23Z</time>
   </trkpt>
   <trkpt lat="-3.1905960" lon="37.3538090">
    <ele>2261.0</ele>
    <time>2026-06-24T07:07:24Z</time>
   </trkpt>
   <trkpt lat="-3.1906010" lon="37.3537990">
    <ele>2260.9</ele>
    <time>2026-06-24T07:07:25Z</time>
   </trkpt>
   <trkpt lat="-3.1906050" lon="37.3537910">
    <ele>2260.8</ele>
    <time>2026-06-24T07:07:26Z</time>
   </trkpt>
   <trkpt lat="-3.1906120" lon="37.3537820">
    <ele>2260.7</ele>
    <time>2026-06-24T07:07:27Z</time>
   </trkpt>
   <trkpt lat="-3.1906160" lon="37.3537780">
    <ele>2260.6</ele>
    <time>2026-06-24T07:07:28Z</time>
   </trkpt>
   <trkpt lat="-3.1906210" lon="37.3537770">
    <ele>2260.6</ele>
    <time>2026-06-24T07:07:29Z</time>
   </trkpt>
   <trkpt lat="-3.1906240" lon="37.3537770">
    <ele>2260.5</ele>
    <time>2026-06-24T07:07:30Z</time>
   </trkpt>
   <trkpt lat="-3.1906300" lon="37.3537780">
    <ele>2260.5</ele>
    <time>2026-06-24T07:07:31Z</time>
   </trkpt>
   <trkpt lat="-3.1906480" lon="37.3537630">
    <ele>2260.2</ele>
    <time>2026-06-24T07:07:32Z</time>
   </trkpt>
   <trkpt lat="-3.1906520" lon="37.3537660">
    <ele>2260.2</ele>
    <time>2026-06-24T07:07:33Z</time>
   </trkpt>
   <trkpt lat="-3.1906520" lon="37.3537650">
    <ele>2260.2</ele>
    <time>2026-06-24T07:07:34Z</time>
   </trkpt>
   <trkpt lat="-3.1906520" lon="37.3537650">
    <ele>2260.2</ele>
    <time>2026-06-24T07:07:35Z</time>
   </trkpt>
   <trkpt lat="-3.1906570" lon="37.3537580">
    <ele>2260.1</ele>
    <time>2026-06-24T07:07:36Z</time>
   </trkpt>
   <trkpt lat="-3.1906630" lon="37.3537520">
    <ele>2260.0</ele>
    <time>2026-06-24T07:07:37Z</time>
   </trkpt>
   <trkpt lat="-3.1906740" lon="37.3537420">
    <ele>2259.9</ele>
    <time>2026-06-24T07:07:38Z</time>
   </trkpt>
   <trkpt lat="-3.1906820" lon="37.3537370">
    <ele>2259.8</ele>
    <time>2026-06-24T07:07:39Z</time>
   </trkpt>
   <trkpt lat="-3.1906980" lon="37.3537300">
    <ele>2259.6</ele>
    <time>2026-06-24T07:07:40Z</time>
   </trkpt>
   <trkpt lat="-3.1907040" lon="37.3537190">
    <ele>2259.4</ele>
    <time>2026-06-24T07:07:41Z</time>
   </trkpt>
   <trkpt lat="-3.1907090" lon="37.3537150">
    <ele>2259.4</ele>
    <time>2026-06-24T07:07:42Z</time>
   </trkpt>
   <trkpt lat="-3.1907150" lon="37.3537150">
    <ele>2259.3</ele>
    <time>2026-06-24T07:07:43Z</time>
   </trkpt>
   <trkpt lat="-3.1907210" lon="37.3537240">
    <ele>2259.2</ele>
    <time>2026-06-24T07:07:44Z</time>
   </trkpt>
   <trkpt lat="-3.1907320" lon="37.3537200">
    <ele>2259.1</ele>
    <time>2026-06-24T07:07:45Z</time>
   </trkpt>
   <trkpt lat="-3.1907480" lon="37.3537110">
    <ele>2258.9</ele>
    <time>2026-06-24T07:07:46Z</time>
   </trkpt>
   <trkpt lat="-3.1907660" lon="37.3537030">
    <ele>2258.7</ele>
    <time>2026-06-24T07:07:47Z</time>
   </trkpt>
   <trkpt lat="-3.1907710" lon="37.3536980">
    <ele>2258.6</ele>
    <time>2026-06-24T07:07:48Z</time>
   </trkpt>
   <trkpt lat="-3.1907760" lon="37.3536980">
    <ele>2258.5</ele>
    <time>2026-06-24T07:07:49Z</time>
   </trkpt>
   <trkpt lat="-3.1907850" lon="37.3536990">
    <ele>2258.4</ele>
    <time>2026-06-24T07:07:50Z</time>
   </trkpt>
   <trkpt lat="-3.1907970" lon="37.3537020">
    <ele>2258.3</ele>
    <time>2026-06-24T07:07:51Z</time>
   </trkpt>
   <trkpt lat="-3.1908160" lon="37.3536910">
    <ele>2258.1</ele>
    <time>2026-06-24T07:07:52Z</time>
   </trkpt>
   <trkpt lat="-3.1908240" lon="37.3536810">
    <ele>2257.9</ele>
    <time>2026-06-24T07:07:53Z</time>
   </trkpt>
   <trkpt lat="-3.1908250" lon="37.3536610">
    <ele>2257.7</ele>
    <time>2026-06-24T07:07:54Z</time>
   </trkpt>
   <trkpt lat="-3.1908330" lon="37.3536440">
    <ele>2257.5</ele>
    <time>2026-06-24T07:07:55Z</time>
   </trkpt>
   <trkpt lat="-3.1908420" lon="37.3536310">
    <ele>2257.3</ele>
    <time>2026-06-24T07:07:56Z</time>
   </trkpt>
   <trkpt lat="-3.1908510" lon="37.3536190">
    <ele>2257.1</ele>
    <time>2026-06-24T07:07:57Z</time>
   </trkpt>
   <trkpt lat="-3.1908510" lon="37.3536110">
    <ele>2257.0</ele>
    <time>2026-06-24T07:07:58Z</time>
   </trkpt>
   <trkpt lat="-3.1908520" lon="37.3536090">
    <ele>2257.0</ele>
    <time>2026-06-24T07:07:59Z</time>
   </trkpt>
   <trkpt lat="-3.1908490" lon="37.3536000">
    <ele>2256.9</ele>
    <time>2026-06-24T07:08:00Z</time>
   </trkpt>
   <trkpt lat="-3.1908490" lon="37.3535930">
    <ele>2256.8</ele>
    <time>2026-06-24T07:08:01Z</time>
   </trkpt>
   <trkpt lat="-3.1908530" lon="37.3535830">
    <ele>2256.7</ele>
    <time>2026-06-24T07:08:02Z</time>
   </trkpt>
   <trkpt lat="-3.1908580" lon="37.3535740">
    <ele>2256.6</ele>
    <time>2026-06-24T07:08:03Z</time>
   </trkpt>
   <trkpt lat="-3.1908680" lon="37.3535700">
    <ele>2256.5</ele>
    <time>2026-06-24T07:08:04Z</time>
   </trkpt>
   <trkpt lat="-3.1908760" lon="37.3535690">
    <ele>2256.4</ele>
    <time>2026-06-24T07:08:05Z</time>
   </trkpt>
   <trkpt lat="-3.1908830" lon="37.3535680">
    <ele>2256.3</ele>
    <time>2026-06-24T07:08:06Z</time>
   </trkpt>
   <trkpt lat="-3.1908800" lon="37.3535730">
    <ele>2256.2</ele>
    <time>2026-06-24T07:08:07Z</time>
   </trkpt>
   <trkpt lat="-3.1908830" lon="37.3535610">
    <ele>2256.1</ele>
    <time>2026-06-24T07:08:08Z</time>
   </trkpt>
   <trkpt lat="-3.1908860" lon="37.3535550">
    <ele>2256.0</ele>
    <time>2026-06-24T07:08:09Z</time>
   </trkpt>
   <trkpt lat="-3.1908930" lon="37.3535470">
    <ele>2255.9</ele>
    <time>2026-06-24T07:08:10Z</time>
   </trkpt>
   <trkpt lat="-3.1908970" lon="37.3535410">
    <ele>2255.8</ele>
    <time>2026-06-24T07:08:11Z</time>
   </trkpt>
   <trkpt lat="-3.1908950" lon="37.3535330">
    <ele>2255.7</ele>
    <time>2026-06-24T07:08:12Z</time>
   </trkpt>
   <trkpt lat="-3.1908940" lon="37.3535310">
    <ele>2255.6</ele>
    <time>2026-06-24T07:08:13Z</time>
   </trkpt>
   <trkpt lat="-3.1909050" lon="37.3535310">
    <ele>2255.5</ele>
    <time>2026-06-24T07:08:14Z</time>
   </trkpt>
   <trkpt lat="-3.1909100" lon="37.3535310">
    <ele>2255.5</ele>
    <time>2026-06-24T07:08:15Z</time>
   </trkpt>
   <trkpt lat="-3.1909170" lon="37.3535270">
    <ele>2255.4</ele>
    <time>2026-06-24T07:08:16Z</time>
   </trkpt>
   <trkpt lat="-3.1909240" lon="37.3535200">
    <ele>2255.2</ele>
    <time>2026-06-24T07:08:17Z</time>
   </trkpt>
   <trkpt lat="-3.1909380" lon="37.3535150">
    <ele>2255.0</ele>
    <time>2026-06-24T07:08:18Z</time>
   </trkpt>
   <trkpt lat="-3.1909460" lon="37.3535110">
    <ele>2254.9</ele>
    <time>2026-06-24T07:08:19Z</time>
   </trkpt>
   <trkpt lat="-3.1909520" lon="37.3535130">
    <ele>2254.8</ele>
    <time>2026-06-24T07:08:20Z</time>
   </trkpt>
   <trkpt lat="-3.1909630" lon="37.3535140">
    <ele>2254.7</ele>
    <time>2026-06-24T07:08:21Z</time>
   </trkpt>
   <trkpt lat="-3.1909740" lon="37.3535110">
    <ele>2254.6</ele>
    <time>2026-06-24T07:08:22Z</time>
   </trkpt>
   <trkpt lat="-3.1909850" lon="37.3535130">
    <ele>2254.4</ele>
    <time>2026-06-24T07:08:23Z</time>
   </trkpt>
   <trkpt lat="-3.1909920" lon="37.3535090">
    <ele>2254.3</ele>
    <time>2026-06-24T07:08:24Z</time>
   </trkpt>
   <trkpt lat="-3.1909940" lon="37.3535100">
    <ele>2254.3</ele>
    <time>2026-06-24T07:08:25Z</time>
   </trkpt>
   <trkpt lat="-3.1910000" lon="37.3535120">
    <ele>2254.2</ele>
    <time>2026-06-24T07:08:26Z</time>
   </trkpt>
   <trkpt lat="-3.1910060" lon="37.3535150">
    <ele>2254.1</ele>
    <time>2026-06-24T07:08:27Z</time>
   </trkpt>
   <trkpt lat="-3.1910180" lon="37.3535140">
    <ele>2253.9</ele>
    <time>2026-06-24T07:08:28Z</time>
   </trkpt>
   <trkpt lat="-3.1910310" lon="37.3535220">
    <ele>2253.7</ele>
    <time>2026-06-24T07:08:29Z</time>
   </trkpt>
   <trkpt lat="-3.1910340" lon="37.3535310">
    <ele>2253.5</ele>
    <time>2026-06-24T07:08:30Z</time>
   </trkpt>
   <trkpt lat="-3.1910450" lon="37.3535290">
    <ele>2253.4</ele>
    <time>2026-06-24T07:08:31Z</time>
   </trkpt>
   <trkpt lat="-3.1910520" lon="37.3535270">
    <ele>2253.2</ele>
    <time>2026-06-24T07:08:32Z</time>
   </trkpt>
   <trkpt lat="-3.1910700" lon="37.3535230">
    <ele>2253.0</ele>
    <time>2026-06-24T07:08:33Z</time>
   </trkpt>
   <trkpt lat="-3.1910830" lon="37.3535190">
    <ele>2252.7</ele>
    <time>2026-06-24T07:08:34Z</time>
   </trkpt>
   <trkpt lat="-3.1910890" lon="37.3535160">
    <ele>2252.6</ele>
    <time>2026-06-24T07:08:35Z</time>
   </trkpt>
   <trkpt lat="-3.1910890" lon="37.3535160">
    <ele>2252.6</ele>
    <time>2026-06-24T07:08:36Z</time>
   </trkpt>
   <trkpt lat="-3.1911060" lon="37.3535080">
    <ele>2252.3</ele>
    <time>2026-06-24T07:08:37Z</time>
   </trkpt>
   <trkpt lat="-3.1911110" lon="37.3535100">
    <ele>2252.2</ele>
    <time>2026-06-24T07:08:38Z</time>
   </trkpt>
   <trkpt lat="-3.1911180" lon="37.3535060">
    <ele>2252.0</ele>
    <time>2026-06-24T07:08:39Z</time>
   </trkpt>
   <trkpt lat="-3.1911260" lon="37.3535080">
    <ele>2251.9</ele>
    <time>2026-06-24T07:08:40Z</time>
   </trkpt>
   <trkpt lat="-3.1911400" lon="37.3535100">
    <ele>2251.6</ele>
    <time>2026-06-24T07:08:41Z</time>
   </trkpt>
   <trkpt lat="-3.1911470" lon="37.3535130">
    <ele>2251.5</ele>
    <time>2026-06-24T07:08:42Z</time>
   </trkpt>
   <trkpt lat="-3.1911530" lon="37.3535160">
    <ele>2251.3</ele>
    <time>2026-06-24T07:08:43Z</time>
   </trkpt>
   <trkpt lat="-3.1911590" lon="37.3535210">
    <ele>2251.2</ele>
    <time>2026-06-24T07:08:44Z</time>
   </trkpt>
   <trkpt lat="-3.1911630" lon="37.3535280">
    <ele>2251.0</ele>
    <time>2026-06-24T07:08:45Z</time>
   </trkpt>
   <trkpt lat="-3.1911600" lon="37.3535350">
    <ele>2250.9</ele>
    <time>2026-06-24T07:08:46Z</time>
   </trkpt>
   <trkpt lat="-3.1911600" lon="37.3535450">
    <ele>2250.7</ele>
    <time>2026-06-24T07:08:47Z</time>
   </trkpt>
   <trkpt lat="-3.1911610" lon="37.3535490">
    <ele>2250.6</ele>
    <time>2026-06-24T07:08:48Z</time>
   </trkpt>
   <trkpt lat="-3.1911620" lon="37.3535510">
    <ele>2250.5</ele>
    <time>2026-06-24T07:08:49Z</time>
   </trkpt>
   <trkpt lat="-3.1911620" lon="37.3535540">
    <ele>2250.5</ele>
    <time>2026-06-24T07:08:50Z</time>
   </trkpt>
   <trkpt lat="-3.1911660" lon="37.3535510">
    <ele>2250.3</ele>
    <time>2026-06-24T07:08:51Z</time>
   </trkpt>
   <trkpt lat="-3.1911710" lon="37.3535600">
    <ele>2250.1</ele>
    <time>2026-06-24T07:08:52Z</time>
   </trkpt>
   <trkpt lat="-3.1911720" lon="37.3535600">
    <ele>2250.1</ele>
    <time>2026-06-24T07:08:53Z</time>
   </trkpt>
   <trkpt lat="-3.1911700" lon="37.3535630">
    <ele>2250.0</ele>
    <time>2026-06-24T07:08:54Z</time>
   </trkpt>
   <trkpt lat="-3.1911800" lon="37.3535610">
    <ele>2249.8</ele>
    <time>2026-06-24T07:08:55Z</time>
   </trkpt>
   <trkpt lat="-3.1911960" lon="37.3535670">
    <ele>2249.4</ele>
    <time>2026-06-24T07:08:56Z</time>
   </trkpt>
   <trkpt lat="-3.1912000" lon="37.3535740">
    <ele>2249.2</ele>
    <time>2026-06-24T07:08:57Z</time>
   </trkpt>
   <trkpt lat="-3.1912080" lon="37.3535730">
    <ele>2249.1</ele>
    <time>2026-06-24T07:08:58Z</time>
   </trkpt>
   <trkpt lat="-3.1912110" lon="37.3535740">
    <ele>2249.0</ele>
    <time>2026-06-24T07:08:59Z</time>
   </trkpt>
   <trkpt lat="-3.1912150" lon="37.3535710">
    <ele>2248.9</ele>
    <time>2026-06-24T07:09:00Z</time>
   </trkpt>
   <trkpt lat="-3.1912170" lon="37.3535710">
    <ele>2248.8</ele>
    <time>2026-06-24T07:09:01Z</time>
   </trkpt>
   <trkpt lat="-3.1912220" lon="37.3535670">
    <ele>2248.7</ele>
    <time>2026-06-24T07:09:02Z</time>
   </trkpt>
   <trkpt lat="-3.1912210" lon="37.3535630">
    <ele>2248.6</ele>
    <time>2026-06-24T07:09:03Z</time>
   </trkpt>
   <trkpt lat="-3.1912250" lon="37.3535530">
    <ele>2248.3</ele>
    <time>2026-06-24T07:09:04Z</time>
   </trkpt>
   <trkpt lat="-3.1912280" lon="37.3535500">
    <ele>2248.2</ele>
    <time>2026-06-24T07:09:05Z</time>
   </trkpt>
   <trkpt lat="-3.1912270" lon="37.3535470">
    <ele>2248.2</ele>
    <time>2026-06-24T07:09:06Z</time>
   </trkpt>
   <trkpt lat="-3.1912310" lon="37.3535420">
    <ele>2248.0</ele>
    <time>2026-06-24T07:09:07Z</time>
   </trkpt>
   <trkpt lat="-3.1912350" lon="37.3535410">
    <ele>2247.9</ele>
    <time>2026-06-24T07:09:08Z</time>
   </trkpt>
   <trkpt lat="-3.1912460" lon="37.3535380">
    <ele>2247.7</ele>
    <time>2026-06-24T07:09:09Z</time>
   </trkpt>
   <trkpt lat="-3.1912490" lon="37.3535390">
    <ele>2247.6</ele>
    <time>2026-06-24T07:09:10Z</time>
   </trkpt>
   <trkpt lat="-3.1912510" lon="37.3535410">
    <ele>2247.5</ele>
    <time>2026-06-24T07:09:11Z</time>
   </trkpt>
   <trkpt lat="-3.1912590" lon="37.3535470">
    <ele>2247.3</ele>
    <time>2026-06-24T07:09:12Z</time>
   </trkpt>
   <trkpt lat="-3.1912630" lon="37.3535540">
    <ele>2247.1</ele>
    <time>2026-06-24T07:09:13Z</time>
   </trkpt>
   <trkpt lat="-3.1912700" lon="37.3535590">
    <ele>2246.9</ele>
    <time>2026-06-24T07:09:14Z</time>
   </trkpt>
   <trkpt lat="-3.1912780" lon="37.3535580">
    <ele>2246.8</ele>
    <time>2026-06-24T07:09:15Z</time>
   </trkpt>
   <trkpt lat="-3.1912790" lon="37.3535590">
    <ele>2246.7</ele>
    <time>2026-06-24T07:09:16Z</time>
   </trkpt>
   <trkpt lat="-3.1912760" lon="37.3535640">
    <ele>2246.6</ele>
    <time>2026-06-24T07:09:17Z</time>
   </trkpt>
   <trkpt lat="-3.1912750" lon="37.3535640">
    <ele>2246.6</ele>
    <time>2026-06-24T07:09:18Z</time>
   </trkpt>
   <trkpt lat="-3.1912750" lon="37.3535640">
    <ele>2246.6</ele>
    <time>2026-06-24T07:09:19Z</time>
   </trkpt>
   <trkpt lat="-3.1912750" lon="37.3535640">
    <ele>2246.6</ele>
    <time>2026-06-24T07:09:20Z</time>
   </trkpt>
   <trkpt lat="-3.1912840" lon="37.3535640">
    <ele>2246.4</ele>
    <time>2026-06-24T07:09:21Z</time>
   </trkpt>
   <trkpt lat="-3.1912910" lon="37.3535670">
    <ele>2246.2</ele>
    <time>2026-06-24T07:09:22Z</time>
   </trkpt>
   <trkpt lat="-3.1912870" lon="37.3535650">
    <ele>2246.1</ele>
    <time>2026-06-24T07:09:23Z</time>
   </trkpt>
   <trkpt lat="-3.1912990" lon="37.3535680">
    <ele>2245.8</ele>
    <time>2026-06-24T07:09:24Z</time>
   </trkpt>
   <trkpt lat="-3.1913080" lon="37.3535700">
    <ele>2245.6</ele>
    <time>2026-06-24T07:09:25Z</time>
   </trkpt>
   <trkpt lat="-3.1913120" lon="37.3535710">
    <ele>2245.5</ele>
    <time>2026-06-24T07:09:26Z</time>
   </trkpt>
   <trkpt lat="-3.1913130" lon="37.3535750">
    <ele>2245.4</ele>
    <time>2026-06-24T07:09:27Z</time>
   </trkpt>
   <trkpt lat="-3.1913170" lon="37.3535780">
    <ele>2245.3</ele>
    <time>2026-06-24T07:09:28Z</time>
   </trkpt>
   <trkpt lat="-3.1913220" lon="37.3535740">
    <ele>2245.2</ele>
    <time>2026-06-24T07:09:29Z</time>
   </trkpt>
   <trkpt lat="-3.1913250" lon="37.3535700">
    <ele>2245.1</ele>
    <time>2026-06-24T07:09:30Z</time>
   </trkpt>
   <trkpt lat="-3.1913340" lon="37.3535680">
    <ele>2244.9</ele>
    <time>2026-06-24T07:09:31Z</time>
   </trkpt>
   <trkpt lat="-3.1913370" lon="37.3535680">
    <ele>2244.8</ele>
    <time>2026-06-24T07:09:32Z</time>
   </trkpt>
   <trkpt lat="-3.1913410" lon="37.3535630">
    <ele>2244.7</ele>
    <time>2026-06-24T07:09:33Z</time>
   </trkpt>
   <trkpt lat="-3.1913460" lon="37.3535550">
    <ele>2244.5</ele>
    <time>2026-06-24T07:09:34Z</time>
   </trkpt>
   <trkpt lat="-3.1913530" lon="37.3535470">
    <ele>2244.3</ele>
    <time>2026-06-24T07:09:35Z</time>
   </trkpt>
   <trkpt lat="-3.1913640" lon="37.3535440">
    <ele>2244.0</ele>
    <time>2026-06-24T07:09:36Z</time>
   </trkpt>
   <trkpt lat="-3.1913690" lon="37.3535360">
    <ele>2243.9</ele>
    <time>2026-06-24T07:09:37Z</time>
   </trkpt>
   <trkpt lat="-3.1913750" lon="37.3535320">
    <ele>2243.7</ele>
    <time>2026-06-24T07:09:38Z</time>
   </trkpt>
   <trkpt lat="-3.1913780" lon="37.3535300">
    <ele>2243.6</ele>
    <time>2026-06-24T07:09:39Z</time>
   </trkpt>
   <trkpt lat="-3.1913860" lon="37.3535260">
    <ele>2243.5</ele>
    <time>2026-06-24T07:09:40Z</time>
   </trkpt>
   <trkpt lat="-3.1913900" lon="37.3535260">
    <ele>2243.4</ele>
    <time>2026-06-24T07:09:41Z</time>
   </trkpt>
   <trkpt lat="-3.1913920" lon="37.3535260">
    <ele>2243.4</ele>
    <time>2026-06-24T07:09:42Z</time>
   </trkpt>
   <trkpt lat="-3.1913950" lon="37.3535290">
    <ele>2243.3</ele>
    <time>2026-06-24T07:09:43Z</time>
   </trkpt>
   <trkpt lat="-3.1913920" lon="37.3535360">
    <ele>2243.1</ele>
    <time>2026-06-24T07:09:44Z</time>
   </trkpt>
   <trkpt lat="-3.1914030" lon="37.3535340">
    <ele>2242.9</ele>
    <time>2026-06-24T07:09:45Z</time>
   </trkpt>
   <trkpt lat="-3.1914060" lon="37.3535300">
    <ele>2242.9</ele>
    <time>2026-06-24T07:09:46Z</time>
   </trkpt>
   <trkpt lat="-3.1914100" lon="37.3535320">
    <ele>2242.8</ele>
    <time>2026-06-24T07:09:47Z</time>
   </trkpt>
   <trkpt lat="-3.1914110" lon="37.3535390">
    <ele>2242.6</ele>
    <time>2026-06-24T07:09:48Z</time>
   </trkpt>
   <trkpt lat="-3.1914100" lon="37.3535420">
    <ele>2242.6</ele>
    <time>2026-06-24T07:09:49Z</time>
   </trkpt>
   <trkpt lat="-3.1914230" lon="37.3535470">
    <ele>2242.3</ele>
    <time>2026-06-24T07:09:50Z</time>
   </trkpt>
   <trkpt lat="-3.1914240" lon="37.3535480">
    <ele>2242.3</ele>
    <time>2026-06-24T07:09:51Z</time>
   </trkpt>
   <trkpt lat="-3.1914300" lon="37.3535490">
    <ele>2242.2</ele>
    <time>2026-06-24T07:09:52Z</time>
   </trkpt>
   <trkpt lat="-3.1914390" lon="37.3535550">
    <ele>2242.0</ele>
    <time>2026-06-24T07:09:53Z</time>
   </trkpt>
   <trkpt lat="-3.1914430" lon="37.3535560">
    <ele>2242.0</ele>
    <time>2026-06-24T07:09:54Z</time>
   </trkpt>
   <trkpt lat="-3.1914480" lon="37.3535570">
    <ele>2241.9</ele>
    <time>2026-06-24T07:09:55Z</time>
   </trkpt>
   <trkpt lat="-3.1914560" lon="37.3535580">
    <ele>2241.8</ele>
    <time>2026-06-24T07:09:56Z</time>
   </trkpt>
   <trkpt lat="-3.1914620" lon="37.3535570">
    <ele>2241.7</ele>
    <time>2026-06-24T07:09:57Z</time>
   </trkpt>
   <trkpt lat="-3.1914680" lon="37.3535520">
    <ele>2241.5</ele>
    <time>2026-06-24T07:09:58Z</time>
   </trkpt>
   <trkpt lat="-3.1914710" lon="37.3535530">
    <ele>2241.5</ele>
    <time>2026-06-24T07:09:59Z</time>
   </trkpt>
   <trkpt lat="-3.1914800" lon="37.3535550">
    <ele>2241.4</ele>
    <time>2026-06-24T07:10:00Z</time>
   </trkpt>
   <trkpt lat="-3.1914790" lon="37.3535540">
    <ele>2241.3</ele>
    <time>2026-06-24T07:10:01Z</time>
   </trkpt>
   <trkpt lat="-3.1914820" lon="37.3535510">
    <ele>2241.3</ele>
    <time>2026-06-24T07:10:02Z</time>
   </trkpt>
   <trkpt lat="-3.1914850" lon="37.3535480">
    <ele>2241.2</ele>
    <time>2026-06-24T07:10:03Z</time>
   </trkpt>
   <trkpt lat="-3.1914910" lon="37.3535420">
    <ele>2241.1</ele>
    <time>2026-06-24T07:10:04Z</time>
   </trkpt>
   <trkpt lat="-3.1914980" lon="37.3535400">
    <ele>2241.0</ele>
    <time>2026-06-24T07:10:05Z</time>
   </trkpt>
   <trkpt lat="-3.1914990" lon="37.3535250">
    <ele>2240.8</ele>
    <time>2026-06-24T07:10:06Z</time>
   </trkpt>
   <trkpt lat="-3.1915090" lon="37.3535240">
    <ele>2240.6</ele>
    <time>2026-06-24T07:10:07Z</time>
   </trkpt>
   <trkpt lat="-3.1915130" lon="37.3535240">
    <ele>2240.6</ele>
    <time>2026-06-24T07:10:08Z</time>
   </trkpt>
   <trkpt lat="-3.1915190" lon="37.3535240">
    <ele>2240.5</ele>
    <time>2026-06-24T07:10:09Z</time>
   </trkpt>
   <trkpt lat="-3.1915240" lon="37.3535250">
    <ele>2240.5</ele>
    <time>2026-06-24T07:10:10Z</time>
   </trkpt>
   <trkpt lat="-3.1915380" lon="37.3535230">
    <ele>2240.3</ele>
    <time>2026-06-24T07:10:11Z</time>
   </trkpt>
   <trkpt lat="-3.1915500" lon="37.3535290">
    <ele>2240.1</ele>
    <time>2026-06-24T07:10:12Z</time>
   </trkpt>
   <trkpt lat="-3.1915600" lon="37.3535180">
    <ele>2239.9</ele>
    <time>2026-06-24T07:10:13Z</time>
   </trkpt>
   <trkpt lat="-3.1915720" lon="37.3535210">
    <ele>2239.8</ele>
    <time>2026-06-24T07:10:14Z</time>
   </trkpt>
   <trkpt lat="-3.1915850" lon="37.3535230">
    <ele>2239.7</ele>
    <time>2026-06-24T07:10:15Z</time>
   </trkpt>
   <trkpt lat="-3.1915950" lon="37.3535250">
    <ele>2239.5</ele>
    <time>2026-06-24T07:10:16Z</time>
   </trkpt>
   <trkpt lat="-3.1915970" lon="37.3535210">
    <ele>2239.5</ele>
    <time>2026-06-24T07:10:17Z</time>
   </trkpt>
   <trkpt lat="-3.1916080" lon="37.3535230">
    <ele>2239.4</ele>
    <time>2026-06-24T07:10:18Z</time>
   </trkpt>
   <trkpt lat="-3.1916150" lon="37.3535280">
    <ele>2239.3</ele>
    <time>2026-06-24T07:10:19Z</time>
   </trkpt>
   <trkpt lat="-3.1916250" lon="37.3535330">
    <ele>2239.2</ele>
    <time>2026-06-24T07:10:20Z</time>
   </trkpt>
   <trkpt lat="-3.1916330" lon="37.3535340">
    <ele>2239.1</ele>
    <time>2026-06-24T07:10:21Z</time>
   </trkpt>
   <trkpt lat="-3.1916410" lon="37.3535430">
    <ele>2239.0</ele>
    <time>2026-06-24T07:10:22Z</time>
   </trkpt>
   <trkpt lat="-3.1916490" lon="37.3535480">
    <ele>2238.9</ele>
    <time>2026-06-24T07:10:23Z</time>
   </trkpt>
   <trkpt lat="-3.1916600" lon="37.3535560">
    <ele>2238.8</ele>
    <time>2026-06-24T07:10:24Z</time>
   </trkpt>
   <trkpt lat="-3.1916710" lon="37.3535620">
    <ele>2238.7</ele>
    <time>2026-06-24T07:10:25Z</time>
   </trkpt>
   <trkpt lat="-3.1916780" lon="37.3535670">
    <ele>2238.6</ele>
    <time>2026-06-24T07:10:26Z</time>
   </trkpt>
   <trkpt lat="-3.1916860" lon="37.3535780">
    <ele>2238.5</ele>
    <time>2026-06-24T07:10:27Z</time>
   </trkpt>
   <trkpt lat="-3.1917000" lon="37.3535860">
    <ele>2238.3</ele>
    <time>2026-06-24T07:10:28Z</time>
   </trkpt>
   <trkpt lat="-3.1917080" lon="37.3535850">
    <ele>2238.2</ele>
    <time>2026-06-24T07:10:29Z</time>
   </trkpt>
   <trkpt lat="-3.1917160" lon="37.3535860">
    <ele>2238.2</ele>
    <time>2026-06-24T07:10:30Z</time>
   </trkpt>
   <trkpt lat="-3.1917240" lon="37.3535890">
    <ele>2238.1</ele>
    <time>2026-06-24T07:10:31Z</time>
   </trkpt>
   <trkpt lat="-3.1917340" lon="37.3535850">
    <ele>2238.0</ele>
    <time>2026-06-24T07:10:32Z</time>
   </trkpt>
   <trkpt lat="-3.1917450" lon="37.3535830">
    <ele>2237.9</ele>
    <time>2026-06-24T07:10:33Z</time>
   </trkpt>
   <trkpt lat="-3.1917590" lon="37.3535770">
    <ele>2237.7</ele>
    <time>2026-06-24T07:10:34Z</time>
   </trkpt>
   <trkpt lat="-3.1917760" lon="37.3535760">
    <ele>2237.6</ele>
    <time>2026-06-24T07:10:35Z</time>
   </trkpt>
   <trkpt lat="-3.1917920" lon="37.3535740">
    <ele>2237.4</ele>
    <time>2026-06-24T07:10:36Z</time>
   </trkpt>
   <trkpt lat="-3.1918060" lon="37.3535700">
    <ele>2237.2</ele>
    <time>2026-06-24T07:10:37Z</time>
   </trkpt>
   <trkpt lat="-3.1918130" lon="37.3535680">
    <ele>2237.2</ele>
    <time>2026-06-24T07:10:38Z</time>
   </trkpt>
   <trkpt lat="-3.1918280" lon="37.3535670">
    <ele>2237.0</ele>
    <time>2026-06-24T07:10:39Z</time>
   </trkpt>
   <trkpt lat="-3.1918390" lon="37.3535610">
    <ele>2236.8</ele>
    <time>2026-06-24T07:10:40Z</time>
   </trkpt>
   <trkpt lat="-3.1918480" lon="37.3535570">
    <ele>2236.7</ele>
    <time>2026-06-24T07:10:41Z</time>
   </trkpt>
   <trkpt lat="-3.1918610" lon="37.3535600">
    <ele>2236.5</ele>
    <time>2026-06-24T07:10:42Z</time>
   </trkpt>
   <trkpt lat="-3.1918620" lon="37.3535650">
    <ele>2236.5</ele>
    <time>2026-06-24T07:10:43Z</time>
   </trkpt>
   <trkpt lat="-3.1918620" lon="37.3535660">
    <ele>2236.5</ele>
    <time>2026-06-24T07:10:44Z</time>
   </trkpt>
   <trkpt lat="-3.1918720" lon="37.3535680">
    <ele>2236.3</ele>
    <time>2026-06-24T07:10:45Z</time>
   </trkpt>
   <trkpt lat="-3.1918820" lon="37.3535740">
    <ele>2236.1</ele>
    <time>2026-06-24T07:10:46Z</time>
   </trkpt>
   <trkpt lat="-3.1918930" lon="37.3535800">
    <ele>2236.0</ele>
    <time>2026-06-24T07:10:47Z</time>
   </trkpt>
   <trkpt lat="-3.1918910" lon="37.3535720">
    <ele>2235.8</ele>
    <time>2026-06-24T07:10:48Z</time>
   </trkpt>
   <trkpt lat="-3.1919020" lon="37.3535660">
    <ele>2235.6</ele>
    <time>2026-06-24T07:10:49Z</time>
   </trkpt>
   <trkpt lat="-3.1919060" lon="37.3535590">
    <ele>2235.5</ele>
    <time>2026-06-24T07:10:50Z</time>
   </trkpt>
   <trkpt lat="-3.1919090" lon="37.3535510">
    <ele>2235.4</ele>
    <time>2026-06-24T07:10:51Z</time>
   </trkpt>
   <trkpt lat="-3.1919110" lon="37.3535460">
    <ele>2235.3</ele>
    <time>2026-06-24T07:10:52Z</time>
   </trkpt>
   <trkpt lat="-3.1919120" lon="37.3535430">
    <ele>2235.2</ele>
    <time>2026-06-24T07:10:53Z</time>
   </trkpt>
   <trkpt lat="-3.1919180" lon="37.3535400">
    <ele>2235.1</ele>
    <time>2026-06-24T07:10:54Z</time>
   </trkpt>
   <trkpt lat="-3.1919210" lon="37.3535410">
    <ele>2235.0</ele>
    <time>2026-06-24T07:10:55Z</time>
   </trkpt>
   <trkpt lat="-3.1919320" lon="37.3535380">
    <ele>2234.8</ele>
    <time>2026-06-24T07:10:56Z</time>
   </trkpt>
   <trkpt lat="-3.1919330" lon="37.3535350">
    <ele>2234.7</ele>
    <time>2026-06-24T07:10:57Z</time>
   </trkpt>
   <trkpt lat="-3.1919500" lon="37.3535220">
    <ele>2234.3</ele>
    <time>2026-06-24T07:10:58Z</time>
   </trkpt>
   <trkpt lat="-3.1919490" lon="37.3535260">
    <ele>2234.2</ele>
    <time>2026-06-24T07:10:59Z</time>
   </trkpt>
   <trkpt lat="-3.1919510" lon="37.3535260">
    <ele>2234.2</ele>
    <time>2026-06-24T07:11:00Z</time>
   </trkpt>
   <trkpt lat="-3.1919540" lon="37.3535240">
    <ele>2234.1</ele>
    <time>2026-06-24T07:11:01Z</time>
   </trkpt>
   <trkpt lat="-3.1919560" lon="37.3535260">
    <ele>2234.1</ele>
    <time>2026-06-24T07:11:02Z</time>
   </trkpt>
   <trkpt lat="-3.1919600" lon="37.3535280">
    <ele>2234.0</ele>
    <time>2026-06-24T07:11:03Z</time>
   </trkpt>
   <trkpt lat="-3.1919610" lon="37.3535350">
    <ele>2233.8</ele>
    <time>2026-06-24T07:11:04Z</time>
   </trkpt>
   <trkpt lat="-3.1919650" lon="37.3535360">
    <ele>2233.7</ele>
    <time>2026-06-24T07:11:05Z</time>
   </trkpt>
   <trkpt lat="-3.1919710" lon="37.3535350">
    <ele>2233.6</ele>
    <time>2026-06-24T07:11:06Z</time>
   </trkpt>
   <trkpt lat="-3.1919760" lon="37.3535330">
    <ele>2233.5</ele>
    <time>2026-06-24T07:11:07Z</time>
   </trkpt>
   <trkpt lat="-3.1919830" lon="37.3535330">
    <ele>2233.4</ele>
    <time>2026-06-24T07:11:08Z</time>
   </trkpt>
   <trkpt lat="-3.1919930" lon="37.3535340">
    <ele>2233.1</ele>
    <time>2026-06-24T07:11:09Z</time>
   </trkpt>
   <trkpt lat="-3.1920000" lon="37.3535310">
    <ele>2233.0</ele>
    <time>2026-06-24T07:11:10Z</time>
   </trkpt>
   <trkpt lat="-3.1920150" lon="37.3535220">
    <ele>2232.6</ele>
    <time>2026-06-24T07:11:11Z</time>
   </trkpt>
   <trkpt lat="-3.1920160" lon="37.3535260">
    <ele>2232.5</ele>
    <time>2026-06-24T07:11:12Z</time>
   </trkpt>
   <trkpt lat="-3.1920220" lon="37.3535240">
    <ele>2232.3</ele>
    <time>2026-06-24T07:11:13Z</time>
   </trkpt>
   <trkpt lat="-3.1920290" lon="37.3535290">
    <ele>2232.1</ele>
    <time>2026-06-24T07:11:14Z</time>
   </trkpt>
   <trkpt lat="-3.1920340" lon="37.3535320">
    <ele>2232.0</ele>
    <time>2026-06-24T07:11:15Z</time>
   </trkpt>
   <trkpt lat="-3.1920400" lon="37.3535390">
    <ele>2231.8</ele>
    <time>2026-06-24T07:11:16Z</time>
   </trkpt>
   <trkpt lat="-3.1920490" lon="37.3535400">
    <ele>2231.6</ele>
    <time>2026-06-24T07:11:17Z</time>
   </trkpt>
   <trkpt lat="-3.1920510" lon="37.3535330">
    <ele>2231.4</ele>
    <time>2026-06-24T07:11:18Z</time>
   </trkpt>
   <trkpt lat="-3.1920560" lon="37.3535300">
    <ele>2231.3</ele>
    <time>2026-06-24T07:11:19Z</time>
   </trkpt>
   <trkpt lat="-3.1920600" lon="37.3535330">
    <ele>2231.2</ele>
    <time>2026-06-24T07:11:20Z</time>
   </trkpt>
   <trkpt lat="-3.1920670" lon="37.3535250">
    <ele>2230.9</ele>
    <time>2026-06-24T07:11:21Z</time>
   </trkpt>
   <trkpt lat="-3.1920660" lon="37.3535340">
    <ele>2230.7</ele>
    <time>2026-06-24T07:11:22Z</time>
   </trkpt>
   <trkpt lat="-3.1920660" lon="37.3535320">
    <ele>2230.7</ele>
    <time>2026-06-24T07:11:23Z</time>
   </trkpt>
   <trkpt lat="-3.1920690" lon="37.3535380">
    <ele>2230.5</ele>
    <time>2026-06-24T07:11:24Z</time>
   </trkpt>
   <trkpt lat="-3.1920780" lon="37.3535330">
    <ele>2230.3</ele>
    <time>2026-06-24T07:11:25Z</time>
   </trkpt>
   <trkpt lat="-3.1920860" lon="37.3535390">
    <ele>2230.0</ele>
    <time>2026-06-24T07:11:26Z</time>
   </trkpt>
   <trkpt lat="-3.1920900" lon="37.3535470">
    <ele>2229.8</ele>
    <time>2026-06-24T07:11:27Z</time>
   </trkpt>
   <trkpt lat="-3.1920940" lon="37.3535540">
    <ele>2229.6</ele>
    <time>2026-06-24T07:11:28Z</time>
   </trkpt>
   <trkpt lat="-3.1920970" lon="37.3535620">
    <ele>2229.4</ele>
    <time>2026-06-24T07:11:29Z</time>
   </trkpt>
   <trkpt lat="-3.1920980" lon="37.3535540">
    <ele>2229.2</ele>
    <time>2026-06-24T07:11:30Z</time>
   </trkpt>
   <trkpt lat="-3.1921000" lon="37.3535550">
    <ele>2229.2</ele>
    <time>2026-06-24T07:11:31Z</time>
   </trkpt>
   <trkpt lat="-3.1921090" lon="37.3535550">
    <ele>2229.0</ele>
    <time>2026-06-24T07:11:32Z</time>
   </trkpt>
   <trkpt lat="-3.1921120" lon="37.3535550">
    <ele>2228.9</ele>
    <time>2026-06-24T07:11:33Z</time>
   </trkpt>
   <trkpt lat="-3.1921160" lon="37.3535590">
    <ele>2228.8</ele>
    <time>2026-06-24T07:11:34Z</time>
   </trkpt>
   <trkpt lat="-3.1921200" lon="37.3535610">
    <ele>2228.7</ele>
    <time>2026-06-24T07:11:35Z</time>
   </trkpt>
   <trkpt lat="-3.1921260" lon="37.3535640">
    <ele>2228.5</ele>
    <time>2026-06-24T07:11:36Z</time>
   </trkpt>
   <trkpt lat="-3.1921250" lon="37.3535660">
    <ele>2228.5</ele>
    <time>2026-06-24T07:11:37Z</time>
   </trkpt>
   <trkpt lat="-3.1921310" lon="37.3535710">
    <ele>2228.3</ele>
    <time>2026-06-24T07:11:38Z</time>
   </trkpt>
   <trkpt lat="-3.1921370" lon="37.3535750">
    <ele>2228.1</ele>
    <time>2026-06-24T07:11:39Z</time>
   </trkpt>
   <trkpt lat="-3.1921430" lon="37.3535780">
    <ele>2227.9</ele>
    <time>2026-06-24T07:11:40Z</time>
   </trkpt>
   <trkpt lat="-3.1921490" lon="37.3535850">
    <ele>2227.7</ele>
    <time>2026-06-24T07:11:41Z</time>
   </trkpt>
   <trkpt lat="-3.1921550" lon="37.3535970">
    <ele>2227.4</ele>
    <time>2026-06-24T07:11:42Z</time>
   </trkpt>
   <trkpt lat="-3.1921570" lon="37.3535950">
    <ele>2227.4</ele>
    <time>2026-06-24T07:11:43Z</time>
   </trkpt>
   <trkpt lat="-3.1921540" lon="37.3535820">
    <ele>2227.1</ele>
    <time>2026-06-24T07:11:44Z</time>
   </trkpt>
   <trkpt lat="-3.1921530" lon="37.3535800">
    <ele>2227.0</ele>
    <time>2026-06-24T07:11:45Z</time>
   </trkpt>
   <trkpt lat="-3.1921610" lon="37.3535830">
    <ele>2226.8</ele>
    <time>2026-06-24T07:11:46Z</time>
   </trkpt>
   <trkpt lat="-3.1921660" lon="37.3535830">
    <ele>2226.7</ele>
    <time>2026-06-24T07:11:47Z</time>
   </trkpt>
   <trkpt lat="-3.1921720" lon="37.3535850">
    <ele>2226.6</ele>
    <time>2026-06-24T07:11:48Z</time>
   </trkpt>
   <trkpt lat="-3.1921730" lon="37.3535880">
    <ele>2226.5</ele>
    <time>2026-06-24T07:11:49Z</time>
   </trkpt>
   <trkpt lat="-3.1921890" lon="37.3535920">
    <ele>2226.2</ele>
    <time>2026-06-24T07:11:50Z</time>
   </trkpt>
   <trkpt lat="-3.1921960" lon="37.3535980">
    <ele>2226.0</ele>
    <time>2026-06-24T07:11:51Z</time>
   </trkpt>
   <trkpt lat="-3.1922020" lon="37.3536010">
    <ele>2225.8</ele>
    <time>2026-06-24T07:11:52Z</time>
   </trkpt>
   <trkpt lat="-3.1922090" lon="37.3536050">
    <ele>2225.7</ele>
    <time>2026-06-24T07:11:53Z</time>
   </trkpt>
   <trkpt lat="-3.1922080" lon="37.3536040">
    <ele>2225.6</ele>
    <time>2026-06-24T07:11:54Z</time>
   </trkpt>
   <trkpt lat="-3.1922090" lon="37.3536010">
    <ele>2225.6</ele>
    <time>2026-06-24T07:11:55Z</time>
   </trkpt>
   <trkpt lat="-3.1922040" lon="37.3536020">
    <ele>2225.5</ele>
    <time>2026-06-24T07:11:56Z</time>
   </trkpt>
   <trkpt lat="-3.1922040" lon="37.3536020">
    <ele>2225.5</ele>
    <time>2026-06-24T07:11:57Z</time>
   </trkpt>
   <trkpt lat="-3.1922040" lon="37.3536020">
    <ele>2225.5</ele>
    <time>2026-06-24T07:11:58Z</time>
   </trkpt>
   <trkpt lat="-3.1922040" lon="37.3536020">
    <ele>2225.5</ele>
    <time>2026-06-24T07:11:59Z</time>
   </trkpt>
   <trkpt lat="-3.1922040" lon="37.3536020">
    <ele>2225.5</ele>
    <time>2026-06-24T07:12:00Z</time>
   </trkpt>
   <trkpt lat="-3.1922040" lon="37.3536020">
    <ele>2225.5</ele>
    <time>2026-06-24T07:12:01Z</time>
   </trkpt>
   <trkpt lat="-3.1922040" lon="37.3536020">
    <ele>2225.5</ele>
    <time>2026-06-24T07:12:02Z</time>
   </trkpt>
   <trkpt lat="-3.1922040" lon="37.3536020">
    <ele>2225.5</ele>
    <time>2026-06-24T07:12:03Z</time>
   </trkpt>
   <trkpt lat="-3.1922100" lon="37.3536070">
    <ele>2225.3</ele>
    <time>2026-06-24T07:12:04Z</time>
   </trkpt>
   <trkpt lat="-3.1922170" lon="37.3536020">
    <ele>2225.1</ele>
    <time>2026-06-24T07:12:05Z</time>
   </trkpt>
   <trkpt lat="-3.1922170" lon="37.3535970">
    <ele>2225.0</ele>
    <time>2026-06-24T07:12:06Z</time>
   </trkpt>
   <trkpt lat="-3.1922160" lon="37.3535960">
    <ele>2225.0</ele>
    <time>2026-06-24T07:12:07Z</time>
   </trkpt>
   <trkpt lat="-3.1922190" lon="37.3535920">
    <ele>2224.9</ele>
    <time>2026-06-24T07:12:08Z</time>
   </trkpt>
   <trkpt lat="-3.1922230" lon="37.3535930">
    <ele>2224.8</ele>
    <time>2026-06-24T07:12:09Z</time>
   </trkpt>
   <trkpt lat="-3.1922300" lon="37.3535880">
    <ele>2224.6</ele>
    <time>2026-06-24T07:12:10Z</time>
   </trkpt>
   <trkpt lat="-3.1922340" lon="37.3535900">
    <ele>2224.5</ele>
    <time>2026-06-24T07:12:11Z</time>
   </trkpt>
   <trkpt lat="-3.1922300" lon="37.3535910">
    <ele>2224.4</ele>
    <time>2026-06-24T07:12:12Z</time>
   </trkpt>
   <trkpt lat="-3.1922340" lon="37.3535900">
    <ele>2224.4</ele>
    <time>2026-06-24T07:12:13Z</time>
   </trkpt>
   <trkpt lat="-3.1922380" lon="37.3535900">
    <ele>2224.3</ele>
    <time>2026-06-24T07:12:14Z</time>
   </trkpt>
   <trkpt lat="-3.1922510" lon="37.3535830">
    <ele>2224.0</ele>
    <time>2026-06-24T07:12:15Z</time>
   </trkpt>
   <trkpt lat="-3.1922510" lon="37.3535830">
    <ele>2224.0</ele>
    <time>2026-06-24T07:12:16Z</time>
   </trkpt>
   <trkpt lat="-3.1922510" lon="37.3535830">
    <ele>2224.0</ele>
    <time>2026-06-24T07:12:17Z</time>
   </trkpt>
   <trkpt lat="-3.1922660" lon="37.3535810">
    <ele>2223.7</ele>
    <time>2026-06-24T07:12:18Z</time>
   </trkpt>
   <trkpt lat="-3.1922780" lon="37.3535810">
    <ele>2223.4</ele>
    <time>2026-06-24T07:12:19Z</time>
   </trkpt>
   <trkpt lat="-3.1922800" lon="37.3535840">
    <ele>2223.3</ele>
    <time>2026-06-24T07:12:20Z</time>
   </trkpt>
   <trkpt lat="-3.1922780" lon="37.3535890">
    <ele>2223.2</ele>
    <time>2026-06-24T07:12:21Z</time>
   </trkpt>
   <trkpt lat="-3.1922770" lon="37.3535900">
    <ele>2223.2</ele>
    <time>2026-06-24T07:12:22Z</time>
   </trkpt>
   <trkpt lat="-3.1922870" lon="37.3535950">
    <ele>2223.0</ele>
    <time>2026-06-24T07:12:23Z</time>
   </trkpt>
   <trkpt lat="-3.1922930" lon="37.3535960">
    <ele>2222.9</ele>
    <time>2026-06-24T07:12:24Z</time>
   </trkpt>
   <trkpt lat="-3.1922920" lon="37.3536010">
    <ele>2222.8</ele>
    <time>2026-06-24T07:12:25Z</time>
   </trkpt>
   <trkpt lat="-3.1922930" lon="37.3536060">
    <ele>2222.7</ele>
    <time>2026-06-24T07:12:26Z</time>
   </trkpt>
   <trkpt lat="-3.1922930" lon="37.3536060">
    <ele>2222.7</ele>
    <time>2026-06-24T07:12:27Z</time>
   </trkpt>
   <trkpt lat="-3.1922930" lon="37.3536060">
    <ele>2222.7</ele>
    <time>2026-06-24T07:12:28Z</time>
   </trkpt>
   <trkpt lat="-3.1922930" lon="37.3536060">
    <ele>2222.7</ele>
    <time>2026-06-24T07:12:29Z</time>
   </trkpt>
   <trkpt lat="-3.1923090" lon="37.3536110">
    <ele>2222.3</ele>
    <time>2026-06-24T07:12:30Z</time>
   </trkpt>
   <trkpt lat="-3.1923170" lon="37.3536130">
    <ele>2222.2</ele>
    <time>2026-06-24T07:12:31Z</time>
   </trkpt>
   <trkpt lat="-3.1923220" lon="37.3536080">
    <ele>2222.0</ele>
    <time>2026-06-24T07:12:32Z</time>
   </trkpt>
   <trkpt lat="-3.1923270" lon="37.3536050">
    <ele>2221.9</ele>
    <time>2026-06-24T07:12:33Z</time>
   </trkpt>
   <trkpt lat="-3.1923300" lon="37.3536010">
    <ele>2221.8</ele>
    <time>2026-06-24T07:12:34Z</time>
   </trkpt>
   <trkpt lat="-3.1923310" lon="37.3536000">
    <ele>2221.8</ele>
    <time>2026-06-24T07:12:35Z</time>
   </trkpt>
   <trkpt lat="-3.1923420" lon="37.3536000">
    <ele>2221.6</ele>
    <time>2026-06-24T07:12:36Z</time>
   </trkpt>
   <trkpt lat="-3.1923450" lon="37.3536020">
    <ele>2221.5</ele>
    <time>2026-06-24T07:12:37Z</time>
   </trkpt>
   <trkpt lat="-3.1923440" lon="37.3536050">
    <ele>2221.5</ele>
    <time>2026-06-24T07:12:38Z</time>
   </trkpt>
   <trkpt lat="-3.1923470" lon="37.3536080">
    <ele>2221.4</ele>
    <time>2026-06-24T07:12:39Z</time>
   </trkpt>
   <trkpt lat="-3.1923440" lon="37.3536160">
    <ele>2221.2</ele>
    <time>2026-06-24T07:12:40Z</time>
   </trkpt>
   <trkpt lat="-3.1923420" lon="37.3536260">
    <ele>2221.0</ele>
    <time>2026-06-24T07:12:41Z</time>
   </trkpt>
   <trkpt lat="-3.1923380" lon="37.3536300">
    <ele>2220.9</ele>
    <time>2026-06-24T07:12:42Z</time>
   </trkpt>
   <trkpt lat="-3.1923350" lon="37.3536410">
    <ele>2220.7</ele>
    <time>2026-06-24T07:12:43Z</time>
   </trkpt>
   <trkpt lat="-3.1923350" lon="37.3536460">
    <ele>2220.6</ele>
    <time>2026-06-24T07:12:44Z</time>
   </trkpt>
   <trkpt lat="-3.1923400" lon="37.3536480">
    <ele>2220.5</ele>
    <time>2026-06-24T07:12:45Z</time>
   </trkpt>
   <trkpt lat="-3.1923510" lon="37.3536560">
    <ele>2220.3</ele>
    <time>2026-06-24T07:12:46Z</time>
   </trkpt>
   <trkpt lat="-3.1923560" lon="37.3536510">
    <ele>2220.1</ele>
    <time>2026-06-24T07:12:47Z</time>
   </trkpt>
   <trkpt lat="-3.1923640" lon="37.3536500">
    <ele>2220.0</ele>
    <time>2026-06-24T07:12:48Z</time>
   </trkpt>
   <trkpt lat="-3.1923710" lon="37.3536490">
    <ele>2219.8</ele>
    <time>2026-06-24T07:12:49Z</time>
   </trkpt>
   <trkpt lat="-3.1923770" lon="37.3536490">
    <ele>2219.7</ele>
    <time>2026-06-24T07:12:50Z</time>
   </trkpt>
   <trkpt lat="-3.1923840" lon="37.3536490">
    <ele>2219.6</ele>
    <time>2026-06-24T07:12:51Z</time>
   </trkpt>
   <trkpt lat="-3.1923930" lon="37.3536490">
    <ele>2219.4</ele>
    <time>2026-06-24T07:12:52Z</time>
   </trkpt>
   <trkpt lat="-3.1924070" lon="37.3536540">
    <ele>2219.2</ele>
    <time>2026-06-24T07:12:53Z</time>
   </trkpt>
   <trkpt lat="-3.1924140" lon="37.3536580">
    <ele>2219.0</ele>
    <time>2026-06-24T07:12:54Z</time>
   </trkpt>
   <trkpt lat="-3.1924170" lon="37.3536610">
    <ele>2218.9</ele>
    <time>2026-06-24T07:12:55Z</time>
   </trkpt>
   <trkpt lat="-3.1924190" lon="37.3536640">
    <ele>2218.9</ele>
    <time>2026-06-24T07:12:56Z</time>
   </trkpt>
   <trkpt lat="-3.1924250" lon="37.3536670">
    <ele>2218.8</ele>
    <time>2026-06-24T07:12:57Z</time>
   </trkpt>
   <trkpt lat="-3.1924270" lon="37.3536670">
    <ele>2218.7</ele>
    <time>2026-06-24T07:12:58Z</time>
   </trkpt>
   <trkpt lat="-3.1924240" lon="37.3536630">
    <ele>2218.6</ele>
    <time>2026-06-24T07:12:59Z</time>
   </trkpt>
   <trkpt lat="-3.1924250" lon="37.3536610">
    <ele>2218.6</ele>
    <time>2026-06-24T07:13:00Z</time>
   </trkpt>
   <trkpt lat="-3.1924300" lon="37.3536640">
    <ele>2218.5</ele>
    <time>2026-06-24T07:13:01Z</time>
   </trkpt>
   <trkpt lat="-3.1924240" lon="37.3536540">
    <ele>2218.3</ele>
    <time>2026-06-24T07:13:02Z</time>
   </trkpt>
   <trkpt lat="-3.1924260" lon="37.3536520">
    <ele>2218.3</ele>
    <time>2026-06-24T07:13:03Z</time>
   </trkpt>
   <trkpt lat="-3.1924300" lon="37.3536570">
    <ele>2218.2</ele>
    <time>2026-06-24T07:13:04Z</time>
   </trkpt>
   <trkpt lat="-3.1924350" lon="37.3536580">
    <ele>2218.1</ele>
    <time>2026-06-24T07:13:05Z</time>
   </trkpt>
   <trkpt lat="-3.1924410" lon="37.3536600">
    <ele>2218.0</ele>
    <time>2026-06-24T07:13:06Z</time>
   </trkpt>
   <trkpt lat="-3.1924580" lon="37.3536560">
    <ele>2217.7</ele>
    <time>2026-06-24T07:13:07Z</time>
   </trkpt>
   <trkpt lat="-3.1924640" lon="37.3536510">
    <ele>2217.5</ele>
    <time>2026-06-24T07:13:08Z</time>
   </trkpt>
   <trkpt lat="-3.1924740" lon="37.3536520">
    <ele>2217.4</ele>
    <time>2026-06-24T07:13:09Z</time>
   </trkpt>
   <trkpt lat="-3.1924780" lon="37.3536520">
    <ele>2217.3</ele>
    <time>2026-06-24T07:13:10Z</time>
   </trkpt>
   <trkpt lat="-3.1924850" lon="37.3536520">
    <ele>2217.2</ele>
    <time>2026-06-24T07:13:11Z</time>
   </trkpt>
   <trkpt lat="-3.1924970" lon="37.3536580">
    <ele>2216.9</ele>
    <time>2026-06-24T07:13:12Z</time>
   </trkpt>
   <trkpt lat="-3.1925010" lon="37.3536510">
    <ele>2216.8</ele>
    <time>2026-06-24T07:13:13Z</time>
   </trkpt>
   <trkpt lat="-3.1925050" lon="37.3536520">
    <ele>2216.7</ele>
    <time>2026-06-24T07:13:14Z</time>
   </trkpt>
   <trkpt lat="-3.1925120" lon="37.3536480">
    <ele>2216.6</ele>
    <time>2026-06-24T07:13:15Z</time>
   </trkpt>
   <trkpt lat="-3.1925120" lon="37.3536450">
    <ele>2216.6</ele>
    <time>2026-06-24T07:13:16Z</time>
   </trkpt>
   <trkpt lat="-3.1925280" lon="37.3536340">
    <ele>2216.3</ele>
    <time>2026-06-24T07:13:17Z</time>
   </trkpt>
   <trkpt lat="-3.1925360" lon="37.3536280">
    <ele>2216.1</ele>
    <time>2026-06-24T07:13:18Z</time>
   </trkpt>
   <trkpt lat="-3.1925440" lon="37.3536260">
    <ele>2216.0</ele>
    <time>2026-06-24T07:13:19Z</time>
   </trkpt>
   <trkpt lat="-3.1925490" lon="37.3536240">
    <ele>2215.9</ele>
    <time>2026-06-24T07:13:20Z</time>
   </trkpt>
   <trkpt lat="-3.1925460" lon="37.3536270">
    <ele>2215.8</ele>
    <time>2026-06-24T07:13:21Z</time>
   </trkpt>
   <trkpt lat="-3.1925470" lon="37.3536310">
    <ele>2215.8</ele>
    <time>2026-06-24T07:13:22Z</time>
   </trkpt>
   <trkpt lat="-3.1925460" lon="37.3536400">
    <ele>2215.6</ele>
    <time>2026-06-24T07:13:23Z</time>
   </trkpt>
   <trkpt lat="-3.1925460" lon="37.3536410">
    <ele>2215.6</ele>
    <time>2026-06-24T07:13:24Z</time>
   </trkpt>
   <trkpt lat="-3.1925510" lon="37.3536460">
    <ele>2215.5</ele>
    <time>2026-06-24T07:13:25Z</time>
   </trkpt>
   <trkpt lat="-3.1925610" lon="37.3536440">
    <ele>2215.3</ele>
    <time>2026-06-24T07:13:26Z</time>
   </trkpt>
   <trkpt lat="-3.1925750" lon="37.3536450">
    <ele>2215.1</ele>
    <time>2026-06-24T07:13:27Z</time>
   </trkpt>
   <trkpt lat="-3.1925820" lon="37.3536440">
    <ele>2215.0</ele>
    <time>2026-06-24T07:13:28Z</time>
   </trkpt>
   <trkpt lat="-3.1925850" lon="37.3536420">
    <ele>2214.9</ele>
    <time>2026-06-24T07:13:29Z</time>
   </trkpt>
   <trkpt lat="-3.1925880" lon="37.3536360">
    <ele>2214.8</ele>
    <time>2026-06-24T07:13:30Z</time>
   </trkpt>
   <trkpt lat="-3.1925930" lon="37.3536400">
    <ele>2214.8</ele>
    <time>2026-06-24T07:13:31Z</time>
   </trkpt>
   <trkpt lat="-3.1925990" lon="37.3536410">
    <ele>2214.7</ele>
    <time>2026-06-24T07:13:32Z</time>
   </trkpt>
   <trkpt lat="-3.1926050" lon="37.3536400">
    <ele>2214.6</ele>
    <time>2026-06-24T07:13:33Z</time>
   </trkpt>
   <trkpt lat="-3.1926140" lon="37.3536380">
    <ele>2214.4</ele>
    <time>2026-06-24T07:13:34Z</time>
   </trkpt>
   <trkpt lat="-3.1926270" lon="37.3536430">
    <ele>2214.3</ele>
    <time>2026-06-24T07:13:35Z</time>
   </trkpt>
   <trkpt lat="-3.1926360" lon="37.3536420">
    <ele>2214.1</ele>
    <time>2026-06-24T07:13:36Z</time>
   </trkpt>
   <trkpt lat="-3.1926480" lon="37.3536420">
    <ele>2214.0</ele>
    <time>2026-06-24T07:13:37Z</time>
   </trkpt>
   <trkpt lat="-3.1926550" lon="37.3536430">
    <ele>2213.9</ele>
    <time>2026-06-24T07:13:38Z</time>
   </trkpt>
   <trkpt lat="-3.1926600" lon="37.3536400">
    <ele>2213.8</ele>
    <time>2026-06-24T07:13:39Z</time>
   </trkpt>
   <trkpt lat="-3.1926670" lon="37.3536380">
    <ele>2213.7</ele>
    <time>2026-06-24T07:13:40Z</time>
   </trkpt>
   <trkpt lat="-3.1926730" lon="37.3536390">
    <ele>2213.6</ele>
    <time>2026-06-24T07:13:41Z</time>
   </trkpt>
   <trkpt lat="-3.1926820" lon="37.3536370">
    <ele>2213.5</ele>
    <time>2026-06-24T07:13:42Z</time>
   </trkpt>
   <trkpt lat="-3.1926890" lon="37.3536340">
    <ele>2213.4</ele>
    <time>2026-06-24T07:13:43Z</time>
   </trkpt>
   <trkpt lat="-3.1926940" lon="37.3536290">
    <ele>2213.3</ele>
    <time>2026-06-24T07:13:44Z</time>
   </trkpt>
   <trkpt lat="-3.1926990" lon="37.3536270">
    <ele>2213.2</ele>
    <time>2026-06-24T07:13:45Z</time>
   </trkpt>
   <trkpt lat="-3.1927070" lon="37.3536230">
    <ele>2213.1</ele>
    <time>2026-06-24T07:13:46Z</time>
   </trkpt>
   <trkpt lat="-3.1927140" lon="37.3536190">
    <ele>2213.0</ele>
    <time>2026-06-24T07:13:47Z</time>
   </trkpt>
   <trkpt lat="-3.1927150" lon="37.3536150">
    <ele>2213.0</ele>
    <time>2026-06-24T07:13:48Z</time>
   </trkpt>
   <trkpt lat="-3.1927210" lon="37.3536120">
    <ele>2212.9</ele>
    <time>2026-06-24T07:13:49Z</time>
   </trkpt>
   <trkpt lat="-3.1927290" lon="37.3536140">
    <ele>2212.8</ele>
    <time>2026-06-24T07:13:50Z</time>
   </trkpt>
   <trkpt lat="-3.1927320" lon="37.3536130">
    <ele>2212.7</ele>
    <time>2026-06-24T07:13:51Z</time>
   </trkpt>
   <trkpt lat="-3.1927370" lon="37.3536150">
    <ele>2212.7</ele>
    <time>2026-06-24T07:13:52Z</time>
   </trkpt>
   <trkpt lat="-3.1927470" lon="37.3536080">
    <ele>2212.5</ele>
    <time>2026-06-24T07:13:53Z</time>
   </trkpt>
   <trkpt lat="-3.1927550" lon="37.3536070">
    <ele>2212.4</ele>
    <time>2026-06-24T07:13:54Z</time>
   </trkpt>
   <trkpt lat="-3.1927620" lon="37.3536050">
    <ele>2212.3</ele>
    <time>2026-06-24T07:13:55Z</time>
   </trkpt>
   <trkpt lat="-3.1927730" lon="37.3536020">
    <ele>2212.2</ele>
    <time>2026-06-24T07:13:56Z</time>
   </trkpt>
   <trkpt lat="-3.1927830" lon="37.3536000">
    <ele>2212.0</ele>
    <time>2026-06-24T07:13:57Z</time>
   </trkpt>
   <trkpt lat="-3.1927920" lon="37.3535990">
    <ele>2211.9</ele>
    <time>2026-06-24T07:13:58Z</time>
   </trkpt>
   <trkpt lat="-3.1927960" lon="37.3535970">
    <ele>2211.9</ele>
    <time>2026-06-24T07:13:59Z</time>
   </trkpt>
   <trkpt lat="-3.1928080" lon="37.3535990">
    <ele>2211.7</ele>
    <time>2026-06-24T07:14:00Z</time>
   </trkpt>
   <trkpt lat="-3.1928150" lon="37.3535960">
    <ele>2211.6</ele>
    <time>2026-06-24T07:14:01Z</time>
   </trkpt>
   <trkpt lat="-3.1928210" lon="37.3535900">
    <ele>2211.5</ele>
    <time>2026-06-24T07:14:02Z</time>
   </trkpt>
   <trkpt lat="-3.1928310" lon="37.3535870">
    <ele>2211.4</ele>
    <time>2026-06-24T07:14:03Z</time>
   </trkpt>
   <trkpt lat="-3.1928390" lon="37.3535840">
    <ele>2211.2</ele>
    <time>2026-06-24T07:14:04Z</time>
   </trkpt>
   <trkpt lat="-3.1928490" lon="37.3535870">
    <ele>2211.1</ele>
    <time>2026-06-24T07:14:05Z</time>
   </trkpt>
   <trkpt lat="-3.1928640" lon="37.3535920">
    <ele>2210.9</ele>
    <time>2026-06-24T07:14:06Z</time>
   </trkpt>
   <trkpt lat="-3.1928690" lon="37.3535930">
    <ele>2210.8</ele>
    <time>2026-06-24T07:14:07Z</time>
   </trkpt>
   <trkpt lat="-3.1928800" lon="37.3535870">
    <ele>2210.6</ele>
    <time>2026-06-24T07:14:08Z</time>
   </trkpt>
   <trkpt lat="-3.1928800" lon="37.3535830">
    <ele>2210.6</ele>
    <time>2026-06-24T07:14:09Z</time>
   </trkpt>
   <trkpt lat="-3.1928870" lon="37.3535820">
    <ele>2210.5</ele>
    <time>2026-06-24T07:14:10Z</time>
   </trkpt>
   <trkpt lat="-3.1929020" lon="37.3535810">
    <ele>2210.3</ele>
    <time>2026-06-24T07:14:11Z</time>
   </trkpt>
   <trkpt lat="-3.1929100" lon="37.3535790">
    <ele>2210.2</ele>
    <time>2026-06-24T07:14:12Z</time>
   </trkpt>
   <trkpt lat="-3.1929180" lon="37.3535760">
    <ele>2210.1</ele>
    <time>2026-06-24T07:14:13Z</time>
   </trkpt>
   <trkpt lat="-3.1929230" lon="37.3535780">
    <ele>2210.0</ele>
    <time>2026-06-24T07:14:14Z</time>
   </trkpt>
   <trkpt lat="-3.1929280" lon="37.3535820">
    <ele>2209.9</ele>
    <time>2026-06-24T07:14:15Z</time>
   </trkpt>
   <trkpt lat="-3.1929340" lon="37.3535880">
    <ele>2209.8</ele>
    <time>2026-06-24T07:14:16Z</time>
   </trkpt>
   <trkpt lat="-3.1929370" lon="37.3535910">
    <ele>2209.7</ele>
    <time>2026-06-24T07:14:17Z</time>
   </trkpt>
   <trkpt lat="-3.1929330" lon="37.3535880">
    <ele>2209.7</ele>
    <time>2026-06-24T07:14:18Z</time>
   </trkpt>
   <trkpt lat="-3.1929330" lon="37.3535950">
    <ele>2209.6</ele>
    <time>2026-06-24T07:14:19Z</time>
   </trkpt>
   <trkpt lat="-3.1929370" lon="37.3535950">
    <ele>2209.5</ele>
    <time>2026-06-24T07:14:20Z</time>
   </trkpt>
   <trkpt lat="-3.1929380" lon="37.3535960">
    <ele>2209.5</ele>
    <time>2026-06-24T07:14:21Z</time>
   </trkpt>
   <trkpt lat="-3.1929430" lon="37.3535990">
    <ele>2209.4</ele>
    <time>2026-06-24T07:14:22Z</time>
   </trkpt>
   <trkpt lat="-3.1929410" lon="37.3535940">
    <ele>2209.3</ele>
    <time>2026-06-24T07:14:23Z</time>
   </trkpt>
   <trkpt lat="-3.1929460" lon="37.3535930">
    <ele>2209.3</ele>
    <time>2026-06-24T07:14:24Z</time>
   </trkpt>
   <trkpt lat="-3.1929510" lon="37.3535960">
    <ele>2209.2</ele>
    <time>2026-06-24T07:14:25Z</time>
   </trkpt>
   <trkpt lat="-3.1929600" lon="37.3536020">
    <ele>2209.0</ele>
    <time>2026-06-24T07:14:26Z</time>
   </trkpt>
   <trkpt lat="-3.1929670" lon="37.3536090">
    <ele>2208.9</ele>
    <time>2026-06-24T07:14:27Z</time>
   </trkpt>
   <trkpt lat="-3.1929830" lon="37.3536150">
    <ele>2208.7</ele>
    <time>2026-06-24T07:14:28Z</time>
   </trkpt>
   <trkpt lat="-3.1929910" lon="37.3536210">
    <ele>2208.6</ele>
    <time>2026-06-24T07:14:29Z</time>
   </trkpt>
   <trkpt lat="-3.1929930" lon="37.3536230">
    <ele>2208.5</ele>
    <time>2026-06-24T07:14:30Z</time>
   </trkpt>
   <trkpt lat="-3.1929960" lon="37.3536220">
    <ele>2208.5</ele>
    <time>2026-06-24T07:14:31Z</time>
   </trkpt>
   <trkpt lat="-3.1929980" lon="37.3536220">
    <ele>2208.5</ele>
    <time>2026-06-24T07:14:32Z</time>
   </trkpt>
   <trkpt lat="-3.1930050" lon="37.3536230">
    <ele>2208.4</ele>
    <time>2026-06-24T07:14:33Z</time>
   </trkpt>
   <trkpt lat="-3.1930170" lon="37.3536280">
    <ele>2208.2</ele>
    <time>2026-06-24T07:14:34Z</time>
   </trkpt>
   <trkpt lat="-3.1930240" lon="37.3536260">
    <ele>2208.1</ele>
    <time>2026-06-24T07:14:35Z</time>
   </trkpt>
   <trkpt lat="-3.1930330" lon="37.3536240">
    <ele>2208.0</ele>
    <time>2026-06-24T07:14:36Z</time>
   </trkpt>
   <trkpt lat="-3.1930450" lon="37.3536230">
    <ele>2207.8</ele>
    <time>2026-06-24T07:14:37Z</time>
   </trkpt>
   <trkpt lat="-3.1930510" lon="37.3536260">
    <ele>2207.8</ele>
    <time>2026-06-24T07:14:38Z</time>
   </trkpt>
   <trkpt lat="-3.1930610" lon="37.3536280">
    <ele>2207.6</ele>
    <time>2026-06-24T07:14:39Z</time>
   </trkpt>
   <trkpt lat="-3.1930670" lon="37.3536190">
    <ele>2207.5</ele>
    <time>2026-06-24T07:14:40Z</time>
   </trkpt>
   <trkpt lat="-3.1930800" lon="37.3536170">
    <ele>2207.3</ele>
    <time>2026-06-24T07:14:41Z</time>
   </trkpt>
   <trkpt lat="-3.1930900" lon="37.3536120">
    <ele>2207.2</ele>
    <time>2026-06-24T07:14:42Z</time>
   </trkpt>
   <trkpt lat="-3.1931000" lon="37.3536120">
    <ele>2207.1</ele>
    <time>2026-06-24T07:14:43Z</time>
   </trkpt>
   <trkpt lat="-3.1931120" lon="37.3536110">
    <ele>2207.0</ele>
    <time>2026-06-24T07:14:44Z</time>
   </trkpt>
   <trkpt lat="-3.1931190" lon="37.3536100">
    <ele>2206.9</ele>
    <time>2026-06-24T07:14:45Z</time>
   </trkpt>
   <trkpt lat="-3.1931320" lon="37.3536090">
    <ele>2206.7</ele>
    <time>2026-06-24T07:14:46Z</time>
   </trkpt>
   <trkpt lat="-3.1931440" lon="37.3536080">
    <ele>2206.6</ele>
    <time>2026-06-24T07:14:47Z</time>
   </trkpt>
   <trkpt lat="-3.1931570" lon="37.3536010">
    <ele>2206.4</ele>
    <time>2026-06-24T07:14:48Z</time>
   </trkpt>
   <trkpt lat="-3.1931670" lon="37.3535950">
    <ele>2206.3</ele>
    <time>2026-06-24T07:14:49Z</time>
   </trkpt>
   <trkpt lat="-3.1931740" lon="37.3535980">
    <ele>2206.2</ele>
    <time>2026-06-24T07:14:50Z</time>
   </trkpt>
   <trkpt lat="-3.1931770" lon="37.3536090">
    <ele>2206.1</ele>
    <time>2026-06-24T07:14:51Z</time>
   </trkpt>
   <trkpt lat="-3.1931840" lon="37.3536140">
    <ele>2206.0</ele>
    <time>2026-06-24T07:14:52Z</time>
   </trkpt>
   <trkpt lat="-3.1931950" lon="37.3536150">
    <ele>2205.9</ele>
    <time>2026-06-24T07:14:53Z</time>
   </trkpt>
   <trkpt lat="-3.1932010" lon="37.3536150">
    <ele>2205.8</ele>
    <time>2026-06-24T07:14:54Z</time>
   </trkpt>
   <trkpt lat="-3.1932010" lon="37.3536200">
    <ele>2205.7</ele>
    <time>2026-06-24T07:14:55Z</time>
   </trkpt>
   <trkpt lat="-3.1931990" lon="37.3536270">
    <ele>2205.7</ele>
    <time>2026-06-24T07:14:56Z</time>
   </trkpt>
   <trkpt lat="-3.1932040" lon="37.3536250">
    <ele>2205.6</ele>
    <time>2026-06-24T07:14:57Z</time>
   </trkpt>
   <trkpt lat="-3.1932030" lon="37.3536280">
    <ele>2205.6</ele>
    <time>2026-06-24T07:14:58Z</time>
   </trkpt>
   <trkpt lat="-3.1932050" lon="37.3536340">
    <ele>2205.5</ele>
    <time>2026-06-24T07:14:59Z</time>
   </trkpt>
   <trkpt lat="-3.1932120" lon="37.3536320">
    <ele>2205.4</ele>
    <time>2026-06-24T07:15:00Z</time>
   </trkpt>
   <trkpt lat="-3.1932210" lon="37.3536300">
    <ele>2205.3</ele>
    <time>2026-06-24T07:15:01Z</time>
   </trkpt>
   <trkpt lat="-3.1932250" lon="37.3536280">
    <ele>2205.3</ele>
    <time>2026-06-24T07:15:02Z</time>
   </trkpt>
   <trkpt lat="-3.1932320" lon="37.3536270">
    <ele>2205.2</ele>
    <time>2026-06-24T07:15:03Z</time>
   </trkpt>
   <trkpt lat="-3.1932450" lon="37.3536290">
    <ele>2205.0</ele>
    <time>2026-06-24T07:15:04Z</time>
   </trkpt>
   <trkpt lat="-3.1932430" lon="37.3536320">
    <ele>2205.0</ele>
    <time>2026-06-24T07:15:05Z</time>
   </trkpt>
   <trkpt lat="-3.1932520" lon="37.3536340">
    <ele>2204.9</ele>
    <time>2026-06-24T07:15:06Z</time>
   </trkpt>
   <trkpt lat="-3.1932570" lon="37.3536220">
    <ele>2204.8</ele>
    <time>2026-06-24T07:15:07Z</time>
   </trkpt>
   <trkpt lat="-3.1932700" lon="37.3536190">
    <ele>2204.6</ele>
    <time>2026-06-24T07:15:08Z</time>
   </trkpt>
   <trkpt lat="-3.1932800" lon="37.3536130">
    <ele>2204.5</ele>
    <time>2026-06-24T07:15:09Z</time>
   </trkpt>
   <trkpt lat="-3.1932920" lon="37.3536160">
    <ele>2204.3</ele>
    <time>2026-06-24T07:15:10Z</time>
   </trkpt>
   <trkpt lat="-3.1933020" lon="37.3536140">
    <ele>2204.2</ele>
    <time>2026-06-24T07:15:11Z</time>
   </trkpt>
   <trkpt lat="-3.1933090" lon="37.3536060">
    <ele>2204.1</ele>
    <time>2026-06-24T07:15:12Z</time>
   </trkpt>
   <trkpt lat="-3.1933160" lon="37.3536010">
    <ele>2204.0</ele>
    <time>2026-06-24T07:15:13Z</time>
   </trkpt>
   <trkpt lat="-3.1933250" lon="37.3536000">
    <ele>2203.9</ele>
    <time>2026-06-24T07:15:14Z</time>
   </trkpt>
   <trkpt lat="-3.1933360" lon="37.3536050">
    <ele>2203.8</ele>
    <time>2026-06-24T07:15:15Z</time>
   </trkpt>
   <trkpt lat="-3.1933440" lon="37.3536080">
    <ele>2203.7</ele>
    <time>2026-06-24T07:15:16Z</time>
   </trkpt>
   <trkpt lat="-3.1933520" lon="37.3536100">
    <ele>2203.6</ele>
    <time>2026-06-24T07:15:17Z</time>
   </trkpt>
   <trkpt lat="-3.1933640" lon="37.3536180">
    <ele>2203.4</ele>
    <time>2026-06-24T07:15:18Z</time>
   </trkpt>
   <trkpt lat="-3.1933660" lon="37.3536190">
    <ele>2203.4</ele>
    <time>2026-06-24T07:15:19Z</time>
   </trkpt>
   <trkpt lat="-3.1933780" lon="37.3536250">
    <ele>2203.3</ele>
    <time>2026-06-24T07:15:20Z</time>
   </trkpt>
   <trkpt lat="-3.1933880" lon="37.3536260">
    <ele>2203.2</ele>
    <time>2026-06-24T07:15:21Z</time>
   </trkpt>
   <trkpt lat="-3.1933960" lon="37.3536270">
    <ele>2203.1</ele>
    <time>2026-06-24T07:15:22Z</time>
   </trkpt>
   <trkpt lat="-3.1934040" lon="37.3536250">
    <ele>2203.0</ele>
    <time>2026-06-24T07:15:23Z</time>
   </trkpt>
   <trkpt lat="-3.1934120" lon="37.3536290">
    <ele>2202.9</ele>
    <time>2026-06-24T07:15:24Z</time>
   </trkpt>
   <trkpt lat="-3.1934130" lon="37.3536290">
    <ele>2202.9</ele>
    <time>2026-06-24T07:15:25Z</time>
   </trkpt>
   <trkpt lat="-3.1934210" lon="37.3536280">
    <ele>2202.8</ele>
    <time>2026-06-24T07:15:26Z</time>
   </trkpt>
   <trkpt lat="-3.1934330" lon="37.3536380">
    <ele>2202.6</ele>
    <time>2026-06-24T07:15:27Z</time>
   </trkpt>
   <trkpt lat="-3.1934390" lon="37.3536430">
    <ele>2202.5</ele>
    <time>2026-06-24T07:15:28Z</time>
   </trkpt>
   <trkpt lat="-3.1934350" lon="37.3536410">
    <ele>2202.5</ele>
    <time>2026-06-24T07:15:29Z</time>
   </trkpt>
   <trkpt lat="-3.1934420" lon="37.3536460">
    <ele>2202.4</ele>
    <time>2026-06-24T07:15:30Z</time>
   </trkpt>
   <trkpt lat="-3.1934580" lon="37.3536490">
    <ele>2202.3</ele>
    <time>2026-06-24T07:15:31Z</time>
   </trkpt>
   <trkpt lat="-3.1934620" lon="37.3536510">
    <ele>2202.2</ele>
    <time>2026-06-24T07:15:32Z</time>
   </trkpt>
   <trkpt lat="-3.1934700" lon="37.3536570">
    <ele>2202.1</ele>
    <time>2026-06-24T07:15:33Z</time>
   </trkpt>
   <trkpt lat="-3.1934720" lon="37.3536590">
    <ele>2202.1</ele>
    <time>2026-06-24T07:15:34Z</time>
   </trkpt>
   <trkpt lat="-3.1934760" lon="37.3536680">
    <ele>2202.0</ele>
    <time>2026-06-24T07:15:35Z</time>
   </trkpt>
   <trkpt lat="-3.1934830" lon="37.3536740">
    <ele>2201.9</ele>
    <time>2026-06-24T07:15:36Z</time>
   </trkpt>
   <trkpt lat="-3.1934870" lon="37.3536780">
    <ele>2201.8</ele>
    <time>2026-06-24T07:15:37Z</time>
   </trkpt>
   <trkpt lat="-3.1934910" lon="37.3536790">
    <ele>2201.8</ele>
    <time>2026-06-24T07:15:38Z</time>
   </trkpt>
   <trkpt lat="-3.1935020" lon="37.3536890">
    <ele>2201.6</ele>
    <time>2026-06-24T07:15:39Z</time>
   </trkpt>
   <trkpt lat="-3.1935070" lon="37.3536930">
    <ele>2201.6</ele>
    <time>2026-06-24T07:15:40Z</time>
   </trkpt>
   <trkpt lat="-3.1935090" lon="37.3536950">
    <ele>2201.5</ele>
    <time>2026-06-24T07:15:41Z</time>
   </trkpt>
   <trkpt lat="-3.1935080" lon="37.3536940">
    <ele>2201.5</ele>
    <time>2026-06-24T07:15:42Z</time>
   </trkpt>
   <trkpt lat="-3.1935080" lon="37.3536920">
    <ele>2201.5</ele>
    <time>2026-06-24T07:15:43Z</time>
   </trkpt>
   <trkpt lat="-3.1935130" lon="37.3536940">
    <ele>2201.5</ele>
    <time>2026-06-24T07:15:44Z</time>
   </trkpt>
   <trkpt lat="-3.1935290" lon="37.3537000">
    <ele>2201.3</ele>
    <time>2026-06-24T07:15:45Z</time>
   </trkpt>
   <trkpt lat="-3.1935390" lon="37.3537050">
    <ele>2201.2</ele>
    <time>2026-06-24T07:15:46Z</time>
   </trkpt>
   <trkpt lat="-3.1935480" lon="37.3537020">
    <ele>2201.1</ele>
    <time>2026-06-24T07:15:47Z</time>
   </trkpt>
   <trkpt lat="-3.1935600" lon="37.3537000">
    <ele>2200.9</ele>
    <time>2026-06-24T07:15:48Z</time>
   </trkpt>
   <trkpt lat="-3.1935770" lon="37.3536980">
    <ele>2200.8</ele>
    <time>2026-06-24T07:15:49Z</time>
   </trkpt>
   <trkpt lat="-3.1935890" lon="37.3537030">
    <ele>2200.6</ele>
    <time>2026-06-24T07:15:50Z</time>
   </trkpt>
   <trkpt lat="-3.1935960" lon="37.3537140">
    <ele>2200.5</ele>
    <time>2026-06-24T07:15:51Z</time>
   </trkpt>
   <trkpt lat="-3.1936060" lon="37.3537230">
    <ele>2200.3</ele>
    <time>2026-06-24T07:15:52Z</time>
   </trkpt>
   <trkpt lat="-3.1936170" lon="37.3537280">
    <ele>2200.2</ele>
    <time>2026-06-24T07:15:53Z</time>
   </trkpt>
   <trkpt lat="-3.1936270" lon="37.3537300">
    <ele>2200.1</ele>
    <time>2026-06-24T07:15:54Z</time>
   </trkpt>
   <trkpt lat="-3.1936330" lon="37.3537320">
    <ele>2200.0</ele>
    <time>2026-06-24T07:15:55Z</time>
   </trkpt>
   <trkpt lat="-3.1936420" lon="37.3537350">
    <ele>2199.9</ele>
    <time>2026-06-24T07:15:56Z</time>
   </trkpt>
   <trkpt lat="-3.1936490" lon="37.3537390">
    <ele>2199.8</ele>
    <time>2026-06-24T07:15:57Z</time>
   </trkpt>
   <trkpt lat="-3.1936580" lon="37.3537400">
    <ele>2199.7</ele>
    <time>2026-06-24T07:15:58Z</time>
   </trkpt>
   <trkpt lat="-3.1936660" lon="37.3537400">
    <ele>2199.6</ele>
    <time>2026-06-24T07:15:59Z</time>
   </trkpt>
   <trkpt lat="-3.1936710" lon="37.3537380">
    <ele>2199.6</ele>
    <time>2026-06-24T07:16:00Z</time>
   </trkpt>
   <trkpt lat="-3.1936830" lon="37.3537420">
    <ele>2199.4</ele>
    <time>2026-06-24T07:16:01Z</time>
   </trkpt>
   <trkpt lat="-3.1936890" lon="37.3537490">
    <ele>2199.3</ele>
    <time>2026-06-24T07:16:02Z</time>
   </trkpt>
   <trkpt lat="-3.1937020" lon="37.3537530">
    <ele>2199.1</ele>
    <time>2026-06-24T07:16:03Z</time>
   </trkpt>
   <trkpt lat="-3.1937080" lon="37.3537620">
    <ele>2199.0</ele>
    <time>2026-06-24T07:16:04Z</time>
   </trkpt>
   <trkpt lat="-3.1937150" lon="37.3537590">
    <ele>2198.9</ele>
    <time>2026-06-24T07:16:05Z</time>
   </trkpt>
   <trkpt lat="-3.1937340" lon="37.3537610">
    <ele>2198.6</ele>
    <time>2026-06-24T07:16:06Z</time>
   </trkpt>
   <trkpt lat="-3.1937480" lon="37.3537610">
    <ele>2198.4</ele>
    <time>2026-06-24T07:16:07Z</time>
   </trkpt>
   <trkpt lat="-3.1937530" lon="37.3537630">
    <ele>2198.3</ele>
    <time>2026-06-24T07:16:08Z</time>
   </trkpt>
   <trkpt lat="-3.1937570" lon="37.3537660">
    <ele>2198.2</ele>
    <time>2026-06-24T07:16:09Z</time>
   </trkpt>
   <trkpt lat="-3.1937740" lon="37.3537740">
    <ele>2198.0</ele>
    <time>2026-06-24T07:16:10Z</time>
   </trkpt>
   <trkpt lat="-3.1937860" lon="37.3537790">
    <ele>2197.8</ele>
    <time>2026-06-24T07:16:11Z</time>
   </trkpt>
   <trkpt lat="-3.1937950" lon="37.3537850">
    <ele>2197.6</ele>
    <time>2026-06-24T07:16:12Z</time>
   </trkpt>
   <trkpt lat="-3.1937970" lon="37.3537850">
    <ele>2197.6</ele>
    <time>2026-06-24T07:16:13Z</time>
   </trkpt>
   <trkpt lat="-3.1937990" lon="37.3537860">
    <ele>2197.5</ele>
    <time>2026-06-24T07:16:14Z</time>
   </trkpt>
   <trkpt lat="-3.1938030" lon="37.3537890">
    <ele>2197.4</ele>
    <time>2026-06-24T07:16:15Z</time>
   </trkpt>
   <trkpt lat="-3.1938040" lon="37.3537910">
    <ele>2197.4</ele>
    <time>2026-06-24T07:16:16Z</time>
   </trkpt>
   <trkpt lat="-3.1938100" lon="37.3537920">
    <ele>2197.3</ele>
    <time>2026-06-24T07:16:17Z</time>
   </trkpt>
   <trkpt lat="-3.1938130" lon="37.3537950">
    <ele>2197.2</ele>
    <time>2026-06-24T07:16:18Z</time>
   </trkpt>
   <trkpt lat="-3.1938160" lon="37.3537990">
    <ele>2197.2</ele>
    <time>2026-06-24T07:16:19Z</time>
   </trkpt>
   <trkpt lat="-3.1938210" lon="37.3538030">
    <ele>2197.1</ele>
    <time>2026-06-24T07:16:20Z</time>
   </trkpt>
   <trkpt lat="-3.1938290" lon="37.3538050">
    <ele>2196.9</ele>
    <time>2026-06-24T07:16:21Z</time>
   </trkpt>
   <trkpt lat="-3.1938320" lon="37.3538040">
    <ele>2196.9</ele>
    <time>2026-06-24T07:16:22Z</time>
   </trkpt>
   <trkpt lat="-3.1938320" lon="37.3538050">
    <ele>2196.8</ele>
    <time>2026-06-24T07:16:23Z</time>
   </trkpt>
   <trkpt lat="-3.1938340" lon="37.3538050">
    <ele>2196.8</ele>
    <time>2026-06-24T07:16:24Z</time>
   </trkpt>
   <trkpt lat="-3.1938390" lon="37.3537990">
    <ele>2196.7</ele>
    <time>2026-06-24T07:16:25Z</time>
   </trkpt>
   <trkpt lat="-3.1938390" lon="37.3538000">
    <ele>2196.7</ele>
    <time>2026-06-24T07:16:26Z</time>
   </trkpt>
   <trkpt lat="-3.1938480" lon="37.3537990">
    <ele>2196.5</ele>
    <time>2026-06-24T07:16:27Z</time>
   </trkpt>
   <trkpt lat="-3.1938490" lon="37.3537940">
    <ele>2196.4</ele>
    <time>2026-06-24T07:16:28Z</time>
   </trkpt>
   <trkpt lat="-3.1938590" lon="37.3537960">
    <ele>2196.2</ele>
    <time>2026-06-24T07:16:29Z</time>
   </trkpt>
   <trkpt lat="-3.1938680" lon="37.3537960">
    <ele>2196.1</ele>
    <time>2026-06-24T07:16:30Z</time>
   </trkpt>
   <trkpt lat="-3.1938700" lon="37.3537990">
    <ele>2196.0</ele>
    <time>2026-06-24T07:16:31Z</time>
   </trkpt>
   <trkpt lat="-3.1938780" lon="37.3538020">
    <ele>2195.9</ele>
    <time>2026-06-24T07:16:32Z</time>
   </trkpt>
   <trkpt lat="-3.1938780" lon="37.3538030">
    <ele>2195.8</ele>
    <time>2026-06-24T07:16:33Z</time>
   </trkpt>
   <trkpt lat="-3.1938820" lon="37.3538010">
    <ele>2195.8</ele>
    <time>2026-06-24T07:16:34Z</time>
   </trkpt>
   <trkpt lat="-3.1938870" lon="37.3537950">
    <ele>2195.6</ele>
    <time>2026-06-24T07:16:35Z</time>
   </trkpt>
   <trkpt lat="-3.1938920" lon="37.3537930">
    <ele>2195.5</ele>
    <time>2026-06-24T07:16:36Z</time>
   </trkpt>
   <trkpt lat="-3.1938960" lon="37.3537950">
    <ele>2195.4</ele>
    <time>2026-06-24T07:16:37Z</time>
   </trkpt>
   <trkpt lat="-3.1939020" lon="37.3537920">
    <ele>2195.3</ele>
    <time>2026-06-24T07:16:38Z</time>
   </trkpt>
   <trkpt lat="-3.1939100" lon="37.3537960">
    <ele>2195.2</ele>
    <time>2026-06-24T07:16:39Z</time>
   </trkpt>
   <trkpt lat="-3.1939130" lon="37.3538040">
    <ele>2195.0</ele>
    <time>2026-06-24T07:16:40Z</time>
   </trkpt>
   <trkpt lat="-3.1939270" lon="37.3538060">
    <ele>2194.7</ele>
    <time>2026-06-24T07:16:41Z</time>
   </trkpt>
   <trkpt lat="-3.1939310" lon="37.3538140">
    <ele>2194.6</ele>
    <time>2026-06-24T07:16:42Z</time>
   </trkpt>
   <trkpt lat="-3.1939420" lon="37.3538170">
    <ele>2194.3</ele>
    <time>2026-06-24T07:16:43Z</time>
   </trkpt>
   <trkpt lat="-3.1939490" lon="37.3538160">
    <ele>2194.2</ele>
    <time>2026-06-24T07:16:44Z</time>
   </trkpt>
   <trkpt lat="-3.1939560" lon="37.3538150">
    <ele>2194.1</ele>
    <time>2026-06-24T07:16:45Z</time>
   </trkpt>
   <trkpt lat="-3.1939600" lon="37.3538080">
    <ele>2193.9</ele>
    <time>2026-06-24T07:16:46Z</time>
   </trkpt>
   <trkpt lat="-3.1939840" lon="37.3538060">
    <ele>2193.5</ele>
    <time>2026-06-24T07:16:47Z</time>
   </trkpt>
   <trkpt lat="-3.1939930" lon="37.3537930">
    <ele>2193.2</ele>
    <time>2026-06-24T07:16:48Z</time>
   </trkpt>
   <trkpt lat="-3.1939890" lon="37.3537920">
    <ele>2193.1</ele>
    <time>2026-06-24T07:16:49Z</time>
   </trkpt>
   <trkpt lat="-3.1939980" lon="37.3537950">
    <ele>2192.9</ele>
    <time>2026-06-24T07:16:50Z</time>
   </trkpt>
   <trkpt lat="-3.1940080" lon="37.3537950">
    <ele>2192.7</ele>
    <time>2026-06-24T07:16:51Z</time>
   </trkpt>
   <trkpt lat="-3.1940100" lon="37.3537900">
    <ele>2192.6</ele>
    <time>2026-06-24T07:16:52Z</time>
   </trkpt>
   <trkpt lat="-3.1940210" lon="37.3537840">
    <ele>2192.3</ele>
    <time>2026-06-24T07:16:53Z</time>
   </trkpt>
   <trkpt lat="-3.1940260" lon="37.3537750">
    <ele>2192.1</ele>
    <time>2026-06-24T07:16:54Z</time>
   </trkpt>
   <trkpt lat="-3.1940360" lon="37.3537650">
    <ele>2191.9</ele>
    <time>2026-06-24T07:16:55Z</time>
   </trkpt>
   <trkpt lat="-3.1940440" lon="37.3537660">
    <ele>2191.7</ele>
    <time>2026-06-24T07:16:56Z</time>
   </trkpt>
   <trkpt lat="-3.1940490" lon="37.3537630">
    <ele>2191.6</ele>
    <time>2026-06-24T07:16:57Z</time>
   </trkpt>
   <trkpt lat="-3.1940480" lon="37.3537600">
    <ele>2191.5</ele>
    <time>2026-06-24T07:16:58Z</time>
   </trkpt>
   <trkpt lat="-3.1940540" lon="37.3537470">
    <ele>2191.2</ele>
    <time>2026-06-24T07:16:59Z</time>
   </trkpt>
   <trkpt lat="-3.1940590" lon="37.3537440">
    <ele>2191.1</ele>
    <time>2026-06-24T07:17:00Z</time>
   </trkpt>
   <trkpt lat="-3.1940610" lon="37.3537430">
    <ele>2191.0</ele>
    <time>2026-06-24T07:17:01Z</time>
   </trkpt>
   <trkpt lat="-3.1940650" lon="37.3537410">
    <ele>2191.0</ele>
    <time>2026-06-24T07:17:02Z</time>
   </trkpt>
   <trkpt lat="-3.1940710" lon="37.3537380">
    <ele>2190.8</ele>
    <time>2026-06-24T07:17:03Z</time>
   </trkpt>
   <trkpt lat="-3.1940760" lon="37.3537320">
    <ele>2190.7</ele>
    <time>2026-06-24T07:17:04Z</time>
   </trkpt>
   <trkpt lat="-3.1940790" lon="37.3537260">
    <ele>2190.5</ele>
    <time>2026-06-24T07:17:05Z</time>
   </trkpt>
   <trkpt lat="-3.1940840" lon="37.3537200">
    <ele>2190.3</ele>
    <time>2026-06-24T07:17:06Z</time>
   </trkpt>
   <trkpt lat="-3.1940880" lon="37.3537210">
    <ele>2190.3</ele>
    <time>2026-06-24T07:17:07Z</time>
   </trkpt>
   <trkpt lat="-3.1940910" lon="37.3537140">
    <ele>2190.1</ele>
    <time>2026-06-24T07:17:08Z</time>
   </trkpt>
   <trkpt lat="-3.1940940" lon="37.3537110">
    <ele>2190.0</ele>
    <time>2026-06-24T07:17:09Z</time>
   </trkpt>
   <trkpt lat="-3.1940960" lon="37.3537070">
    <ele>2189.9</ele>
    <time>2026-06-24T07:17:10Z</time>
   </trkpt>
   <trkpt lat="-3.1940970" lon="37.3537010">
    <ele>2189.8</ele>
    <time>2026-06-24T07:17:11Z</time>
   </trkpt>
   <trkpt lat="-3.1941080" lon="37.3536860">
    <ele>2189.4</ele>
    <time>2026-06-24T07:17:12Z</time>
   </trkpt>
   <trkpt lat="-3.1941130" lon="37.3536820">
    <ele>2189.3</ele>
    <time>2026-06-24T07:17:13Z</time>
   </trkpt>
   <trkpt lat="-3.1941230" lon="37.3536830">
    <ele>2189.0</ele>
    <time>2026-06-24T07:17:14Z</time>
   </trkpt>
   <trkpt lat="-3.1941330" lon="37.3536800">
    <ele>2188.8</ele>
    <time>2026-06-24T07:17:15Z</time>
   </trkpt>
   <trkpt lat="-3.1941360" lon="37.3536670">
    <ele>2188.5</ele>
    <time>2026-06-24T07:17:16Z</time>
   </trkpt>
   <trkpt lat="-3.1941320" lon="37.3536600">
    <ele>2188.3</ele>
    <time>2026-06-24T07:17:17Z</time>
   </trkpt>
   <trkpt lat="-3.1941390" lon="37.3536530">
    <ele>2188.1</ele>
    <time>2026-06-24T07:17:18Z</time>
   </trkpt>
   <trkpt lat="-3.1941470" lon="37.3536470">
    <ele>2187.9</ele>
    <time>2026-06-24T07:17:19Z</time>
   </trkpt>
   <trkpt lat="-3.1941520" lon="37.3536510">
    <ele>2187.7</ele>
    <time>2026-06-24T07:17:20Z</time>
   </trkpt>
   <trkpt lat="-3.1941560" lon="37.3536490">
    <ele>2187.6</ele>
    <time>2026-06-24T07:17:21Z</time>
   </trkpt>
   <trkpt lat="-3.1941570" lon="37.3536390">
    <ele>2187.4</ele>
    <time>2026-06-24T07:17:22Z</time>
   </trkpt>
   <trkpt lat="-3.1941600" lon="37.3536440">
    <ele>2187.3</ele>
    <time>2026-06-24T07:17:23Z</time>
   </trkpt>
   <trkpt lat="-3.1941690" lon="37.3536380">
    <ele>2187.0</ele>
    <time>2026-06-24T07:17:24Z</time>
   </trkpt>
   <trkpt lat="-3.1941660" lon="37.3536340">
    <ele>2186.9</ele>
    <time>2026-06-24T07:17:25Z</time>
   </trkpt>
   <trkpt lat="-3.1941750" lon="37.3536250">
    <ele>2186.7</ele>
    <time>2026-06-24T07:17:26Z</time>
   </trkpt>
   <trkpt lat="-3.1941830" lon="37.3536230">
    <ele>2186.5</ele>
    <time>2026-06-24T07:17:27Z</time>
   </trkpt>
   <trkpt lat="-3.1941880" lon="37.3536270">
    <ele>2186.3</ele>
    <time>2026-06-24T07:17:28Z</time>
   </trkpt>
   <trkpt lat="-3.1941920" lon="37.3536260">
    <ele>2186.2</ele>
    <time>2026-06-24T07:17:29Z</time>
   </trkpt>
   <trkpt lat="-3.1941950" lon="37.3536360">
    <ele>2186.0</ele>
    <time>2026-06-24T07:17:30Z</time>
   </trkpt>
   <trkpt lat="-3.1941990" lon="37.3536350">
    <ele>2185.9</ele>
    <time>2026-06-24T07:17:31Z</time>
   </trkpt>
   <trkpt lat="-3.1942070" lon="37.3536260">
    <ele>2185.6</ele>
    <time>2026-06-24T07:17:32Z</time>
   </trkpt>
   <trkpt lat="-3.1942070" lon="37.3536270">
    <ele>2185.6</ele>
    <time>2026-06-24T07:17:33Z</time>
   </trkpt>
   <trkpt lat="-3.1942120" lon="37.3536250">
    <ele>2185.5</ele>
    <time>2026-06-24T07:17:34Z</time>
   </trkpt>
   <trkpt lat="-3.1942220" lon="37.3536270">
    <ele>2185.3</ele>
    <time>2026-06-24T07:17:35Z</time>
   </trkpt>
   <trkpt lat="-3.1942320" lon="37.3536270">
    <ele>2185.1</ele>
    <time>2026-06-24T07:17:36Z</time>
   </trkpt>
   <trkpt lat="-3.1942360" lon="37.3536280">
    <ele>2185.0</ele>
    <time>2026-06-24T07:17:37Z</time>
   </trkpt>
   <trkpt lat="-3.1942350" lon="37.3536360">
    <ele>2184.8</ele>
    <time>2026-06-24T07:17:38Z</time>
   </trkpt>
   <trkpt lat="-3.1942320" lon="37.3536370">
    <ele>2184.7</ele>
    <time>2026-06-24T07:17:39Z</time>
   </trkpt>
   <trkpt lat="-3.1942270" lon="37.3536430">
    <ele>2184.6</ele>
    <time>2026-06-24T07:17:40Z</time>
   </trkpt>
   <trkpt lat="-3.1942330" lon="37.3536450">
    <ele>2184.4</ele>
    <time>2026-06-24T07:17:41Z</time>
   </trkpt>
   <trkpt lat="-3.1942400" lon="37.3536430">
    <ele>2184.3</ele>
    <time>2026-06-24T07:17:42Z</time>
   </trkpt>
   <trkpt lat="-3.1942510" lon="37.3536390">
    <ele>2184.0</ele>
    <time>2026-06-24T07:17:43Z</time>
   </trkpt>
   <trkpt lat="-3.1942750" lon="37.3536510">
    <ele>2183.5</ele>
    <time>2026-06-24T07:17:44Z</time>
   </trkpt>
   <trkpt lat="-3.1942920" lon="37.3536420">
    <ele>2183.1</ele>
    <time>2026-06-24T07:17:45Z</time>
   </trkpt>
   <trkpt lat="-3.1942940" lon="37.3536400">
    <ele>2183.0</ele>
    <time>2026-06-24T07:17:46Z</time>
   </trkpt>
   <trkpt lat="-3.1942930" lon="37.3536360">
    <ele>2182.9</ele>
    <time>2026-06-24T07:17:47Z</time>
   </trkpt>
   <trkpt lat="-3.1942980" lon="37.3536250">
    <ele>2182.7</ele>
    <time>2026-06-24T07:17:48Z</time>
   </trkpt>
   <trkpt lat="-3.1943010" lon="37.3536230">
    <ele>2182.6</ele>
    <time>2026-06-24T07:17:49Z</time>
   </trkpt>
   <trkpt lat="-3.1943080" lon="37.3536240">
    <ele>2182.5</ele>
    <time>2026-06-24T07:17:50Z</time>
   </trkpt>
   <trkpt lat="-3.1943230" lon="37.3536230">
    <ele>2182.2</ele>
    <time>2026-06-24T07:17:51Z</time>
   </trkpt>
   <trkpt lat="-3.1943270" lon="37.3536090">
    <ele>2181.9</ele>
    <time>2026-06-24T07:17:52Z</time>
   </trkpt>
   <trkpt lat="-3.1943330" lon="37.3536040">
    <ele>2181.7</ele>
    <time>2026-06-24T07:17:53Z</time>
   </trkpt>
   <trkpt lat="-3.1943470" lon="37.3536020">
    <ele>2181.5</ele>
    <time>2026-06-24T07:17:54Z</time>
   </trkpt>
   <trkpt lat="-3.1943480" lon="37.3536030">
    <ele>2181.4</ele>
    <time>2026-06-24T07:17:55Z</time>
   </trkpt>
   <trkpt lat="-3.1943520" lon="37.3536000">
    <ele>2181.3</ele>
    <time>2026-06-24T07:17:56Z</time>
   </trkpt>
   <trkpt lat="-3.1943440" lon="37.3535990">
    <ele>2181.2</ele>
    <time>2026-06-24T07:17:57Z</time>
   </trkpt>
   <trkpt lat="-3.1943370" lon="37.3536010">
    <ele>2181.1</ele>
    <time>2026-06-24T07:17:58Z</time>
   </trkpt>
   <trkpt lat="-3.1943400" lon="37.3535980">
    <ele>2181.0</ele>
    <time>2026-06-24T07:17:59Z</time>
   </trkpt>
   <trkpt lat="-3.1943440" lon="37.3535940">
    <ele>2180.9</ele>
    <time>2026-06-24T07:18:00Z</time>
   </trkpt>
   <trkpt lat="-3.1943480" lon="37.3535870">
    <ele>2180.7</ele>
    <time>2026-06-24T07:18:01Z</time>
   </trkpt>
   <trkpt lat="-3.1943510" lon="37.3535800">
    <ele>2180.6</ele>
    <time>2026-06-24T07:18:02Z</time>
   </trkpt>
   <trkpt lat="-3.1943550" lon="37.3535730">
    <ele>2180.4</ele>
    <time>2026-06-24T07:18:03Z</time>
   </trkpt>
   <trkpt lat="-3.1943520" lon="37.3535710">
    <ele>2180.4</ele>
    <time>2026-06-24T07:18:04Z</time>
   </trkpt>
   <trkpt lat="-3.1943540" lon="37.3535710">
    <ele>2180.3</ele>
    <time>2026-06-24T07:18:05Z</time>
   </trkpt>
   <trkpt lat="-3.1943550" lon="37.3535700">
    <ele>2180.3</ele>
    <time>2026-06-24T07:18:06Z</time>
   </trkpt>
   <trkpt lat="-3.1943590" lon="37.3535700">
    <ele>2180.2</ele>
    <time>2026-06-24T07:18:07Z</time>
   </trkpt>
   <trkpt lat="-3.1943640" lon="37.3535630">
    <ele>2180.1</ele>
    <time>2026-06-24T07:18:08Z</time>
   </trkpt>
   <trkpt lat="-3.1943740" lon="37.3535650">
    <ele>2179.9</ele>
    <time>2026-06-24T07:18:09Z</time>
   </trkpt>
   <trkpt lat="-3.1943790" lon="37.3535590">
    <ele>2179.8</ele>
    <time>2026-06-24T07:18:10Z</time>
   </trkpt>
   <trkpt lat="-3.1943930" lon="37.3535500">
    <ele>2179.5</ele>
    <time>2026-06-24T07:18:11Z</time>
   </trkpt>
   <trkpt lat="-3.1944060" lon="37.3535430">
    <ele>2179.2</ele>
    <time>2026-06-24T07:18:12Z</time>
   </trkpt>
   <trkpt lat="-3.1944150" lon="37.3535420">
    <ele>2179.1</ele>
    <time>2026-06-24T07:18:13Z</time>
   </trkpt>
   <trkpt lat="-3.1944220" lon="37.3535380">
    <ele>2178.9</ele>
    <time>2026-06-24T07:18:14Z</time>
   </trkpt>
   <trkpt lat="-3.1944290" lon="37.3535300">
    <ele>2178.8</ele>
    <time>2026-06-24T07:18:15Z</time>
   </trkpt>
   <trkpt lat="-3.1944210" lon="37.3535310">
    <ele>2178.6</ele>
    <time>2026-06-24T07:18:16Z</time>
   </trkpt>
   <trkpt lat="-3.1944180" lon="37.3535250">
    <ele>2178.5</ele>
    <time>2026-06-24T07:18:17Z</time>
   </trkpt>
   <trkpt lat="-3.1944160" lon="37.3535200">
    <ele>2178.4</ele>
    <time>2026-06-24T07:18:18Z</time>
   </trkpt>
   <trkpt lat="-3.1944130" lon="37.3535150">
    <ele>2178.4</ele>
    <time>2026-06-24T07:18:19Z</time>
   </trkpt>
   <trkpt lat="-3.1944090" lon="37.3535170">
    <ele>2178.3</ele>
    <time>2026-06-24T07:18:20Z</time>
   </trkpt>
   <trkpt lat="-3.1944120" lon="37.3535270">
    <ele>2178.1</ele>
    <time>2026-06-24T07:18:21Z</time>
   </trkpt>
   <trkpt lat="-3.1944170" lon="37.3535230">
    <ele>2178.0</ele>
    <time>2026-06-24T07:18:22Z</time>
   </trkpt>
   <trkpt lat="-3.1944260" lon="37.3535120">
    <ele>2177.8</ele>
    <time>2026-06-24T07:18:23Z</time>
   </trkpt>
   <trkpt lat="-3.1944350" lon="37.3535050">
    <ele>2177.6</ele>
    <time>2026-06-24T07:18:24Z</time>
   </trkpt>
   <trkpt lat="-3.1944410" lon="37.3535030">
    <ele>2177.6</ele>
    <time>2026-06-24T07:18:25Z</time>
   </trkpt>
   <trkpt lat="-3.1944460" lon="37.3535000">
    <ele>2177.5</ele>
    <time>2026-06-24T07:18:26Z</time>
   </trkpt>
   <trkpt lat="-3.1944520" lon="37.3534940">
    <ele>2177.3</ele>
    <time>2026-06-24T07:18:27Z</time>
   </trkpt>
   <trkpt lat="-3.1944600" lon="37.3534880">
    <ele>2177.2</ele>
    <time>2026-06-24T07:18:28Z</time>
   </trkpt>
   <trkpt lat="-3.1944670" lon="37.3534830">
    <ele>2177.1</ele>
    <time>2026-06-24T07:18:29Z</time>
   </trkpt>
   <trkpt lat="-3.1944690" lon="37.3534790">
    <ele>2177.0</ele>
    <time>2026-06-24T07:18:30Z</time>
   </trkpt>
   <trkpt lat="-3.1944790" lon="37.3534760">
    <ele>2176.9</ele>
    <time>2026-06-24T07:18:31Z</time>
   </trkpt>
   <trkpt lat="-3.1944900" lon="37.3534770">
    <ele>2176.7</ele>
    <time>2026-06-24T07:18:32Z</time>
   </trkpt>
   <trkpt lat="-3.1944980" lon="37.3534760">
    <ele>2176.6</ele>
    <time>2026-06-24T07:18:33Z</time>
   </trkpt>
   <trkpt lat="-3.1945020" lon="37.3534720">
    <ele>2176.5</ele>
    <time>2026-06-24T07:18:34Z</time>
   </trkpt>
   <trkpt lat="-3.1944980" lon="37.3534770">
    <ele>2176.4</ele>
    <time>2026-06-24T07:18:35Z</time>
   </trkpt>
   <trkpt lat="-3.1945040" lon="37.3534750">
    <ele>2176.3</ele>
    <time>2026-06-24T07:18:36Z</time>
   </trkpt>
   <trkpt lat="-3.1945100" lon="37.3534760">
    <ele>2176.2</ele>
    <time>2026-06-24T07:18:37Z</time>
   </trkpt>
   <trkpt lat="-3.1945220" lon="37.3534760">
    <ele>2176.0</ele>
    <time>2026-06-24T07:18:38Z</time>
   </trkpt>
   <trkpt lat="-3.1945220" lon="37.3534730">
    <ele>2176.0</ele>
    <time>2026-06-24T07:18:39Z</time>
   </trkpt>
   <trkpt lat="-3.1945260" lon="37.3534680">
    <ele>2175.9</ele>
    <time>2026-06-24T07:18:40Z</time>
   </trkpt>
   <trkpt lat="-3.1945360" lon="37.3534650">
    <ele>2175.8</ele>
    <time>2026-06-24T07:18:41Z</time>
   </trkpt>
   <trkpt lat="-3.1945440" lon="37.3534610">
    <ele>2175.6</ele>
    <time>2026-06-24T07:18:42Z</time>
   </trkpt>
   <trkpt lat="-3.1945540" lon="37.3534560">
    <ele>2175.5</ele>
    <time>2026-06-24T07:18:43Z</time>
   </trkpt>
   <trkpt lat="-3.1945580" lon="37.3534540">
    <ele>2175.4</ele>
    <time>2026-06-24T07:18:44Z</time>
   </trkpt>
   <trkpt lat="-3.1945740" lon="37.3534460">
    <ele>2175.1</ele>
    <time>2026-06-24T07:18:45Z</time>
   </trkpt>
   <trkpt lat="-3.1945810" lon="37.3534390">
    <ele>2175.0</ele>
    <time>2026-06-24T07:18:46Z</time>
   </trkpt>
   <trkpt lat="-3.1945840" lon="37.3534360">
    <ele>2174.9</ele>
    <time>2026-06-24T07:18:47Z</time>
   </trkpt>
   <trkpt lat="-3.1945980" lon="37.3534290">
    <ele>2174.7</ele>
    <time>2026-06-24T07:18:48Z</time>
   </trkpt>
   <trkpt lat="-3.1945990" lon="37.3534270">
    <ele>2174.7</ele>
    <time>2026-06-24T07:18:49Z</time>
   </trkpt>
   <trkpt lat="-3.1946030" lon="37.3534240">
    <ele>2174.6</ele>
    <time>2026-06-24T07:18:50Z</time>
   </trkpt>
   <trkpt lat="-3.1946100" lon="37.3534200">
    <ele>2174.5</ele>
    <time>2026-06-24T07:18:51Z</time>
   </trkpt>
   <trkpt lat="-3.1946090" lon="37.3534160">
    <ele>2174.4</ele>
    <time>2026-06-24T07:18:52Z</time>
   </trkpt>
   <trkpt lat="-3.1946140" lon="37.3534110">
    <ele>2174.3</ele>
    <time>2026-06-24T07:18:53Z</time>
   </trkpt>
   <trkpt lat="-3.1946220" lon="37.3534100">
    <ele>2174.2</ele>
    <time>2026-06-24T07:18:54Z</time>
   </trkpt>
   <trkpt lat="-3.1946260" lon="37.3534100">
    <ele>2174.1</ele>
    <time>2026-06-24T07:18:55Z</time>
   </trkpt>
   <trkpt lat="-3.1946320" lon="37.3534080">
    <ele>2174.0</ele>
    <time>2026-06-24T07:18:56Z</time>
   </trkpt>
   <trkpt lat="-3.1946360" lon="37.3534070">
    <ele>2174.0</ele>
    <time>2026-06-24T07:18:57Z</time>
   </trkpt>
   <trkpt lat="-3.1946410" lon="37.3534060">
    <ele>2173.9</ele>
    <time>2026-06-24T07:18:58Z</time>
   </trkpt>
   <trkpt lat="-3.1946460" lon="37.3534020">
    <ele>2173.8</ele>
    <time>2026-06-24T07:18:59Z</time>
   </trkpt>
   <trkpt lat="-3.1946470" lon="37.3534020">
    <ele>2173.8</ele>
    <time>2026-06-24T07:19:00Z</time>
   </trkpt>
   <trkpt lat="-3.1946490" lon="37.3534020">
    <ele>2173.8</ele>
    <time>2026-06-24T07:19:01Z</time>
   </trkpt>
   <trkpt lat="-3.1946490" lon="37.3534020">
    <ele>2173.8</ele>
    <time>2026-06-24T07:19:02Z</time>
   </trkpt>
   <trkpt lat="-3.1946560" lon="37.3534010">
    <ele>2173.7</ele>
    <time>2026-06-24T07:19:03Z</time>
   </trkpt>
   <trkpt lat="-3.1946590" lon="37.3533990">
    <ele>2173.6</ele>
    <time>2026-06-24T07:19:04Z</time>
   </trkpt>
   <trkpt lat="-3.1946560" lon="37.3533970">
    <ele>2173.5</ele>
    <time>2026-06-24T07:19:05Z</time>
   </trkpt>
   <trkpt lat="-3.1946540" lon="37.3533950">
    <ele>2173.5</ele>
    <time>2026-06-24T07:19:06Z</time>
   </trkpt>
   <trkpt lat="-3.1946570" lon="37.3533960">
    <ele>2173.4</ele>
    <time>2026-06-24T07:19:07Z</time>
   </trkpt>
   <trkpt lat="-3.1946670" lon="37.3533990">
    <ele>2173.3</ele>
    <time>2026-06-24T07:19:08Z</time>
   </trkpt>
   <trkpt lat="-3.1946730" lon="37.3533950">
    <ele>2173.2</ele>
    <time>2026-06-24T07:19:09Z</time>
   </trkpt>
   <trkpt lat="-3.1946770" lon="37.3533930">
    <ele>2173.1</ele>
    <time>2026-06-24T07:19:10Z</time>
   </trkpt>
   <trkpt lat="-3.1946810" lon="37.3533920">
    <ele>2173.0</ele>
    <time>2026-06-24T07:19:11Z</time>
   </trkpt>
   <trkpt lat="-3.1946910" lon="37.3533910">
    <ele>2172.9</ele>
    <time>2026-06-24T07:19:12Z</time>
   </trkpt>
   <trkpt lat="-3.1946970" lon="37.3533890">
    <ele>2172.8</ele>
    <time>2026-06-24T07:19:13Z</time>
   </trkpt>
   <trkpt lat="-3.1946970" lon="37.3533900">
    <ele>2172.8</ele>
    <time>2026-06-24T07:19:14Z</time>
   </trkpt>
   <trkpt lat="-3.1947040" lon="37.3533900">
    <ele>2172.7</ele>
    <time>2026-06-24T07:19:15Z</time>
   </trkpt>
   <trkpt lat="-3.1947100" lon="37.3533890">
    <ele>2172.6</ele>
    <time>2026-06-24T07:19:16Z</time>
   </trkpt>
   <trkpt lat="-3.1947170" lon="37.3533860">
    <ele>2172.5</ele>
    <time>2026-06-24T07:19:17Z</time>
   </trkpt>
   <trkpt lat="-3.1947180" lon="37.3533810">
    <ele>2172.4</ele>
    <time>2026-06-24T07:19:18Z</time>
   </trkpt>
   <trkpt lat="-3.1947220" lon="37.3533780">
    <ele>2172.3</ele>
    <time>2026-06-24T07:19:19Z</time>
   </trkpt>
   <trkpt lat="-3.1947260" lon="37.3533780">
    <ele>2172.2</ele>
    <time>2026-06-24T07:19:20Z</time>
   </trkpt>
   <trkpt lat="-3.1947370" lon="37.3533760">
    <ele>2172.1</ele>
    <time>2026-06-24T07:19:21Z</time>
   </trkpt>
   <trkpt lat="-3.1947460" lon="37.3533730">
    <ele>2171.9</ele>
    <time>2026-06-24T07:19:22Z</time>
   </trkpt>
   <trkpt lat="-3.1947500" lon="37.3533710">
    <ele>2171.8</ele>
    <time>2026-06-24T07:19:23Z</time>
   </trkpt>
   <trkpt lat="-3.1947580" lon="37.3533670">
    <ele>2171.7</ele>
    <time>2026-06-24T07:19:24Z</time>
   </trkpt>
   <trkpt lat="-3.1947630" lon="37.3533660">
    <ele>2171.6</ele>
    <time>2026-06-24T07:19:25Z</time>
   </trkpt>
   <trkpt lat="-3.1947690" lon="37.3533600">
    <ele>2171.5</ele>
    <time>2026-06-24T07:19:26Z</time>
   </trkpt>
   <trkpt lat="-3.1947670" lon="37.3533590">
    <ele>2171.4</ele>
    <time>2026-06-24T07:19:27Z</time>
   </trkpt>
   <trkpt lat="-3.1947720" lon="37.3533610">
    <ele>2171.4</ele>
    <time>2026-06-24T07:19:28Z</time>
   </trkpt>
   <trkpt lat="-3.1947770" lon="37.3533580">
    <ele>2171.3</ele>
    <time>2026-06-24T07:19:29Z</time>
   </trkpt>
   <trkpt lat="-3.1947920" lon="37.3533570">
    <ele>2171.0</ele>
    <time>2026-06-24T07:19:30Z</time>
   </trkpt>
   <trkpt lat="-3.1948000" lon="37.3533560">
    <ele>2170.9</ele>
    <time>2026-06-24T07:19:31Z</time>
   </trkpt>
   <trkpt lat="-3.1948020" lon="37.3533520">
    <ele>2170.8</ele>
    <time>2026-06-24T07:19:32Z</time>
   </trkpt>
   <trkpt lat="-3.1948050" lon="37.3533470">
    <ele>2170.7</ele>
    <time>2026-06-24T07:19:33Z</time>
   </trkpt>
   <trkpt lat="-3.1948070" lon="37.3533420">
    <ele>2170.7</ele>
    <time>2026-06-24T07:19:34Z</time>
   </trkpt>
   <trkpt lat="-3.1948180" lon="37.3533390">
    <ele>2170.5</ele>
    <time>2026-06-24T07:19:35Z</time>
   </trkpt>
   <trkpt lat="-3.1948230" lon="37.3533300">
    <ele>2170.3</ele>
    <time>2026-06-24T07:19:36Z</time>
   </trkpt>
   <trkpt lat="-3.1948290" lon="37.3533330">
    <ele>2170.2</ele>
    <time>2026-06-24T07:19:37Z</time>
   </trkpt>
   <trkpt lat="-3.1948390" lon="37.3533340">
    <ele>2170.0</ele>
    <time>2026-06-24T07:19:38Z</time>
   </trkpt>
   <trkpt lat="-3.1948450" lon="37.3533320">
    <ele>2169.9</ele>
    <time>2026-06-24T07:19:39Z</time>
   </trkpt>
   <trkpt lat="-3.1948510" lon="37.3533280">
    <ele>2169.8</ele>
    <time>2026-06-24T07:19:40Z</time>
   </trkpt>
   <trkpt lat="-3.1948520" lon="37.3533260">
    <ele>2169.8</ele>
    <time>2026-06-24T07:19:41Z</time>
   </trkpt>
   <trkpt lat="-3.1948570" lon="37.3533240">
    <ele>2169.7</ele>
    <time>2026-06-24T07:19:42Z</time>
   </trkpt>
   <trkpt lat="-3.1948640" lon="37.3533210">
    <ele>2169.6</ele>
    <time>2026-06-24T07:19:43Z</time>
   </trkpt>
   <trkpt lat="-3.1948670" lon="37.3533150">
    <ele>2169.5</ele>
    <time>2026-06-24T07:19:44Z</time>
   </trkpt>
   <trkpt lat="-3.1948760" lon="37.3533130">
    <ele>2169.3</ele>
    <time>2026-06-24T07:19:45Z</time>
   </trkpt>
   <trkpt lat="-3.1948800" lon="37.3533150">
    <ele>2169.3</ele>
    <time>2026-06-24T07:19:46Z</time>
   </trkpt>
   <trkpt lat="-3.1948830" lon="37.3533130">
    <ele>2169.2</ele>
    <time>2026-06-24T07:19:47Z</time>
   </trkpt>
   <trkpt lat="-3.1948890" lon="37.3533120">
    <ele>2169.1</ele>
    <time>2026-06-24T07:19:48Z</time>
   </trkpt>
   <trkpt lat="-3.1948990" lon="37.3533130">
    <ele>2169.0</ele>
    <time>2026-06-24T07:19:49Z</time>
   </trkpt>
   <trkpt lat="-3.1949070" lon="37.3533110">
    <ele>2168.9</ele>
    <time>2026-06-24T07:19:50Z</time>
   </trkpt>
   <trkpt lat="-3.1949180" lon="37.3533170">
    <ele>2168.7</ele>
    <time>2026-06-24T07:19:51Z</time>
   </trkpt>
   <trkpt lat="-3.1949280" lon="37.3533120">
    <ele>2168.5</ele>
    <time>2026-06-24T07:19:52Z</time>
   </trkpt>
   <trkpt lat="-3.1949370" lon="37.3533090">
    <ele>2168.4</ele>
    <time>2026-06-24T07:19:53Z</time>
   </trkpt>
   <trkpt lat="-3.1949390" lon="37.3533000">
    <ele>2168.3</ele>
    <time>2026-06-24T07:19:54Z</time>
   </trkpt>
   <trkpt lat="-3.1949480" lon="37.3533010">
    <ele>2168.2</ele>
    <time>2026-06-24T07:19:55Z</time>
   </trkpt>
   <trkpt lat="-3.1949600" lon="37.3532970">
    <ele>2168.0</ele>
    <time>2026-06-24T07:19:56Z</time>
   </trkpt>
   <trkpt lat="-3.1949700" lon="37.3533000">
    <ele>2167.8</ele>
    <time>2026-06-24T07:19:57Z</time>
   </trkpt>
   <trkpt lat="-3.1949730" lon="37.3532990">
    <ele>2167.8</ele>
    <time>2026-06-24T07:19:58Z</time>
   </trkpt>
   <trkpt lat="-3.1949760" lon="37.3533050">
    <ele>2167.7</ele>
    <time>2026-06-24T07:19:59Z</time>
   </trkpt>
   <trkpt lat="-3.1949840" lon="37.3532990">
    <ele>2167.6</ele>
    <time>2026-06-24T07:20:00Z</time>
   </trkpt>
   <trkpt lat="-3.1949910" lon="37.3532990">
    <ele>2167.5</ele>
    <time>2026-06-24T07:20:01Z</time>
   </trkpt>
   <trkpt lat="-3.1950000" lon="37.3533030">
    <ele>2167.4</ele>
    <time>2026-06-24T07:20:02Z</time>
   </trkpt>
   <trkpt lat="-3.1950100" lon="37.3533030">
    <ele>2167.3</ele>
    <time>2026-06-24T07:20:03Z</time>
   </trkpt>
   <trkpt lat="-3.1950140" lon="37.3532960">
    <ele>2167.2</ele>
    <time>2026-06-24T07:20:04Z</time>
   </trkpt>
   <trkpt lat="-3.1950210" lon="37.3532850">
    <ele>2167.0</ele>
    <time>2026-06-24T07:20:05Z</time>
   </trkpt>
   <trkpt lat="-3.1950240" lon="37.3532730">
    <ele>2166.9</ele>
    <time>2026-06-24T07:20:06Z</time>
   </trkpt>
   <trkpt lat="-3.1950230" lon="37.3532590">
    <ele>2166.7</ele>
    <time>2026-06-24T07:20:07Z</time>
   </trkpt>
   <trkpt lat="-3.1950260" lon="37.3532500">
    <ele>2166.6</ele>
    <time>2026-06-24T07:20:08Z</time>
   </trkpt>
   <trkpt lat="-3.1950350" lon="37.3532450">
    <ele>2166.5</ele>
    <time>2026-06-24T07:20:09Z</time>
   </trkpt>
   <trkpt lat="-3.1950390" lon="37.3532380">
    <ele>2166.4</ele>
    <time>2026-06-24T07:20:10Z</time>
   </trkpt>
   <trkpt lat="-3.1950460" lon="37.3532360">
    <ele>2166.3</ele>
    <time>2026-06-24T07:20:11Z</time>
   </trkpt>
   <trkpt lat="-3.1950530" lon="37.3532310">
    <ele>2166.2</ele>
    <time>2026-06-24T07:20:12Z</time>
   </trkpt>
   <trkpt lat="-3.1950600" lon="37.3532260">
    <ele>2166.1</ele>
    <time>2026-06-24T07:20:13Z</time>
   </trkpt>
   <trkpt lat="-3.1950650" lon="37.3532180">
    <ele>2166.0</ele>
    <time>2026-06-24T07:20:14Z</time>
   </trkpt>
   <trkpt lat="-3.1950680" lon="37.3532100">
    <ele>2166.0</ele>
    <time>2026-06-24T07:20:15Z</time>
   </trkpt>
   <trkpt lat="-3.1950700" lon="37.3532050">
    <ele>2165.9</ele>
    <time>2026-06-24T07:20:16Z</time>
   </trkpt>
   <trkpt lat="-3.1950740" lon="37.3531970">
    <ele>2165.8</ele>
    <time>2026-06-24T07:20:17Z</time>
   </trkpt>
   <trkpt lat="-3.1950790" lon="37.3531920">
    <ele>2165.8</ele>
    <time>2026-06-24T07:20:18Z</time>
   </trkpt>
   <trkpt lat="-3.1950820" lon="37.3531790">
    <ele>2165.6</ele>
    <time>2026-06-24T07:20:19Z</time>
   </trkpt>
   <trkpt lat="-3.1950860" lon="37.3531700">
    <ele>2165.5</ele>
    <time>2026-06-24T07:20:20Z</time>
   </trkpt>
   <trkpt lat="-3.1950910" lon="37.3531660">
    <ele>2165.5</ele>
    <time>2026-06-24T07:20:21Z</time>
   </trkpt>
   <trkpt lat="-3.1950980" lon="37.3531560">
    <ele>2165.4</ele>
    <time>2026-06-24T07:20:22Z</time>
   </trkpt>
   <trkpt lat="-3.1951070" lon="37.3531450">
    <ele>2165.3</ele>
    <time>2026-06-24T07:20:23Z</time>
   </trkpt>
   <trkpt lat="-3.1951140" lon="37.3531370">
    <ele>2165.2</ele>
    <time>2026-06-24T07:20:24Z</time>
   </trkpt>
   <trkpt lat="-3.1951170" lon="37.3531330">
    <ele>2165.1</ele>
    <time>2026-06-24T07:20:25Z</time>
   </trkpt>
   <trkpt lat="-3.1951170" lon="37.3531270">
    <ele>2165.1</ele>
    <time>2026-06-24T07:20:26Z</time>
   </trkpt>
   <trkpt lat="-3.1951230" lon="37.3531090">
    <ele>2164.9</ele>
    <time>2026-06-24T07:20:27Z</time>
   </trkpt>
   <trkpt lat="-3.1951320" lon="37.3531140">
    <ele>2164.9</ele>
    <time>2026-06-24T07:20:28Z</time>
   </trkpt>
   <trkpt lat="-3.1951410" lon="37.3531070">
    <ele>2164.8</ele>
    <time>2026-06-24T07:20:29Z</time>
   </trkpt>
   <trkpt lat="-3.1951540" lon="37.3531070">
    <ele>2164.7</ele>
    <time>2026-06-24T07:20:30Z</time>
   </trkpt>
   <trkpt lat="-3.1951640" lon="37.3531080">
    <ele>2164.7</ele>
    <time>2026-06-24T07:20:31Z</time>
   </trkpt>
   <trkpt lat="-3.1951750" lon="37.3531040">
    <ele>2164.6</ele>
    <time>2026-06-24T07:20:32Z</time>
   </trkpt>
   <trkpt lat="-3.1951860" lon="37.3530970">
    <ele>2164.5</ele>
    <time>2026-06-24T07:20:33Z</time>
   </trkpt>
   <trkpt lat="-3.1951930" lon="37.3530880">
    <ele>2164.5</ele>
    <time>2026-06-24T07:20:34Z</time>
   </trkpt>
   <trkpt lat="-3.1952060" lon="37.3530790">
    <ele>2164.4</ele>
    <time>2026-06-24T07:20:35Z</time>
   </trkpt>
   <trkpt lat="-3.1952180" lon="37.3530670">
    <ele>2164.3</ele>
    <time>2026-06-24T07:20:36Z</time>
   </trkpt>
   <trkpt lat="-3.1952270" lon="37.3530570">
    <ele>2164.2</ele>
    <time>2026-06-24T07:20:37Z</time>
   </trkpt>
   <trkpt lat="-3.1952350" lon="37.3530480">
    <ele>2164.2</ele>
    <time>2026-06-24T07:20:38Z</time>
   </trkpt>
   <trkpt lat="-3.1952420" lon="37.3530420">
    <ele>2164.1</ele>
    <time>2026-06-24T07:20:39Z</time>
   </trkpt>
   <trkpt lat="-3.1952520" lon="37.3530290">
    <ele>2164.0</ele>
    <time>2026-06-24T07:20:40Z</time>
   </trkpt>
   <trkpt lat="-3.1952590" lon="37.3530210">
    <ele>2164.0</ele>
    <time>2026-06-24T07:20:41Z</time>
   </trkpt>
   <trkpt lat="-3.1952650" lon="37.3530150">
    <ele>2163.9</ele>
    <time>2026-06-24T07:20:42Z</time>
   </trkpt>
   <trkpt lat="-3.1952730" lon="37.3530180">
    <ele>2163.9</ele>
    <time>2026-06-24T07:20:43Z</time>
   </trkpt>
   <trkpt lat="-3.1952790" lon="37.3530170">
    <ele>2163.8</ele>
    <time>2026-06-24T07:20:44Z</time>
   </trkpt>
   <trkpt lat="-3.1952880" lon="37.3530120">
    <ele>2163.8</ele>
    <time>2026-06-24T07:20:45Z</time>
   </trkpt>
   <trkpt lat="-3.1953080" lon="37.3529990">
    <ele>2163.7</ele>
    <time>2026-06-24T07:20:46Z</time>
   </trkpt>
   <trkpt lat="-3.1953150" lon="37.3529900">
    <ele>2163.6</ele>
    <time>2026-06-24T07:20:47Z</time>
   </trkpt>
   <trkpt lat="-3.1953170" lon="37.3529830">
    <ele>2163.5</ele>
    <time>2026-06-24T07:20:49Z</time>
   </trkpt>
   <trkpt lat="-3.1953240" lon="37.3529710">
    <ele>2163.4</ele>
    <time>2026-06-24T07:20:50Z</time>
   </trkpt>
   <trkpt lat="-3.1953240" lon="37.3529670">
    <ele>2163.4</ele>
    <time>2026-06-24T07:20:51Z</time>
   </trkpt>
   <trkpt lat="-3.1953270" lon="37.3529580">
    <ele>2163.3</ele>
    <time>2026-06-24T07:20:52Z</time>
   </trkpt>
   <trkpt lat="-3.1953240" lon="37.3529590">
    <ele>2163.3</ele>
    <time>2026-06-24T07:20:53Z</time>
   </trkpt>
   <trkpt lat="-3.1953290" lon="37.3529610">
    <ele>2163.3</ele>
    <time>2026-06-24T07:20:54Z</time>
   </trkpt>
   <trkpt lat="-3.1953350" lon="37.3529610">
    <ele>2163.2</ele>
    <time>2026-06-24T07:20:55Z</time>
   </trkpt>
   <trkpt lat="-3.1953450" lon="37.3529600">
    <ele>2163.1</ele>
    <time>2026-06-24T07:20:56Z</time>
   </trkpt>
   <trkpt lat="-3.1953500" lon="37.3529570">
    <ele>2163.1</ele>
    <time>2026-06-24T07:20:57Z</time>
   </trkpt>
   <trkpt lat="-3.1953630" lon="37.3529560">
    <ele>2163.0</ele>
    <time>2026-06-24T07:20:58Z</time>
   </trkpt>
   <trkpt lat="-3.1953710" lon="37.3529490">
    <ele>2162.9</ele>
    <time>2026-06-24T07:20:59Z</time>
   </trkpt>
   <trkpt lat="-3.1953790" lon="37.3529520">
    <ele>2162.8</ele>
    <time>2026-06-24T07:21:00Z</time>
   </trkpt>
   <trkpt lat="-3.1953900" lon="37.3529510">
    <ele>2162.7</ele>
    <time>2026-06-24T07:21:01Z</time>
   </trkpt>
   <trkpt lat="-3.1954020" lon="37.3529450">
    <ele>2162.6</ele>
    <time>2026-06-24T07:21:02Z</time>
   </trkpt>
   <trkpt lat="-3.1954070" lon="37.3529380">
    <ele>2162.5</ele>
    <time>2026-06-24T07:21:03Z</time>
   </trkpt>
   <trkpt lat="-3.1954120" lon="37.3529310">
    <ele>2162.4</ele>
    <time>2026-06-24T07:21:04Z</time>
   </trkpt>
   <trkpt lat="-3.1954180" lon="37.3529240">
    <ele>2162.3</ele>
    <time>2026-06-24T07:21:05Z</time>
   </trkpt>
   <trkpt lat="-3.1954210" lon="37.3529200">
    <ele>2162.3</ele>
    <time>2026-06-24T07:21:06Z</time>
   </trkpt>
   <trkpt lat="-3.1954290" lon="37.3529150">
    <ele>2162.2</ele>
    <time>2026-06-24T07:21:07Z</time>
   </trkpt>
   <trkpt lat="-3.1954290" lon="37.3529120">
    <ele>2162.2</ele>
    <time>2026-06-24T07:21:08Z</time>
   </trkpt>
   <trkpt lat="-3.1954380" lon="37.3528950">
    <ele>2161.9</ele>
    <time>2026-06-24T07:21:09Z</time>
   </trkpt>
   <trkpt lat="-3.1954480" lon="37.3528870">
    <ele>2161.8</ele>
    <time>2026-06-24T07:21:10Z</time>
   </trkpt>
   <trkpt lat="-3.1954510" lon="37.3528770">
    <ele>2161.7</ele>
    <time>2026-06-24T07:21:11Z</time>
   </trkpt>
   <trkpt lat="-3.1954530" lon="37.3528680">
    <ele>2161.6</ele>
    <time>2026-06-24T07:21:12Z</time>
   </trkpt>
   <trkpt lat="-3.1954550" lon="37.3528580">
    <ele>2161.5</ele>
    <time>2026-06-24T07:21:13Z</time>
   </trkpt>
   <trkpt lat="-3.1954600" lon="37.3528490">
    <ele>2161.4</ele>
    <time>2026-06-24T07:21:14Z</time>
   </trkpt>
   <trkpt lat="-3.1954660" lon="37.3528390">
    <ele>2161.2</ele>
    <time>2026-06-24T07:21:15Z</time>
   </trkpt>
   <trkpt lat="-3.1954690" lon="37.3528310">
    <ele>2161.2</ele>
    <time>2026-06-24T07:21:16Z</time>
   </trkpt>
   <trkpt lat="-3.1954740" lon="37.3528200">
    <ele>2161.0</ele>
    <time>2026-06-24T07:21:17Z</time>
   </trkpt>
   <trkpt lat="-3.1954770" lon="37.3528090">
    <ele>2160.9</ele>
    <time>2026-06-24T07:21:18Z</time>
   </trkpt>
   <trkpt lat="-3.1954810" lon="37.3527960">
    <ele>2160.7</ele>
    <time>2026-06-24T07:21:19Z</time>
   </trkpt>
   <trkpt lat="-3.1954870" lon="37.3527870">
    <ele>2160.5</ele>
    <time>2026-06-24T07:21:20Z</time>
   </trkpt>
   <trkpt lat="-3.1954960" lon="37.3527790">
    <ele>2160.3</ele>
    <time>2026-06-24T07:21:21Z</time>
   </trkpt>
   <trkpt lat="-3.1955020" lon="37.3527660">
    <ele>2160.1</ele>
    <time>2026-06-24T07:21:22Z</time>
   </trkpt>
   <trkpt lat="-3.1955100" lon="37.3527580">
    <ele>2160.0</ele>
    <time>2026-06-24T07:21:23Z</time>
   </trkpt>
   <trkpt lat="-3.1955180" lon="37.3527500">
    <ele>2159.8</ele>
    <time>2026-06-24T07:21:24Z</time>
   </trkpt>
   <trkpt lat="-3.1955240" lon="37.3527430">
    <ele>2159.7</ele>
    <time>2026-06-24T07:21:25Z</time>
   </trkpt>
   <trkpt lat="-3.1955300" lon="37.3527390">
    <ele>2159.6</ele>
    <time>2026-06-24T07:21:26Z</time>
   </trkpt>
   <trkpt lat="-3.1955440" lon="37.3527310">
    <ele>2159.4</ele>
    <time>2026-06-24T07:21:27Z</time>
   </trkpt>
   <trkpt lat="-3.1955510" lon="37.3527290">
    <ele>2159.3</ele>
    <time>2026-06-24T07:21:28Z</time>
   </trkpt>
   <trkpt lat="-3.1955570" lon="37.3527290">
    <ele>2159.2</ele>
    <time>2026-06-24T07:21:29Z</time>
   </trkpt>
   <trkpt lat="-3.1955660" lon="37.3527280">
    <ele>2159.0</ele>
    <time>2026-06-24T07:21:30Z</time>
   </trkpt>
   <trkpt lat="-3.1955750" lon="37.3527210">
    <ele>2158.9</ele>
    <time>2026-06-24T07:21:31Z</time>
   </trkpt>
   <trkpt lat="-3.1955840" lon="37.3527160">
    <ele>2158.7</ele>
    <time>2026-06-24T07:21:32Z</time>
   </trkpt>
   <trkpt lat="-3.1955970" lon="37.3527190">
    <ele>2158.5</ele>
    <time>2026-06-24T07:21:33Z</time>
   </trkpt>
   <trkpt lat="-3.1956100" lon="37.3527170">
    <ele>2158.3</ele>
    <time>2026-06-24T07:21:34Z</time>
   </trkpt>
   <trkpt lat="-3.1956230" lon="37.3527120">
    <ele>2158.1</ele>
    <time>2026-06-24T07:21:35Z</time>
   </trkpt>
   <trkpt lat="-3.1956150" lon="37.3527140">
    <ele>2157.9</ele>
    <time>2026-06-24T07:21:36Z</time>
   </trkpt>
   <trkpt lat="-3.1956190" lon="37.3527110">
    <ele>2157.9</ele>
    <time>2026-06-24T07:21:37Z</time>
   </trkpt>
   <trkpt lat="-3.1956260" lon="37.3527140">
    <ele>2157.7</ele>
    <time>2026-06-24T07:21:38Z</time>
   </trkpt>
   <trkpt lat="-3.1956220" lon="37.3527170">
    <ele>2157.7</ele>
    <time>2026-06-24T07:21:39Z</time>
   </trkpt>
   <trkpt lat="-3.1956250" lon="37.3527130">
    <ele>2157.6</ele>
    <time>2026-06-24T07:21:40Z</time>
   </trkpt>
   <trkpt lat="-3.1956280" lon="37.3527110">
    <ele>2157.5</ele>
    <time>2026-06-24T07:21:41Z</time>
   </trkpt>
   <trkpt lat="-3.1956340" lon="37.3527080">
    <ele>2157.4</ele>
    <time>2026-06-24T07:21:42Z</time>
   </trkpt>
   <trkpt lat="-3.1956410" lon="37.3526970">
    <ele>2157.2</ele>
    <time>2026-06-24T07:21:43Z</time>
   </trkpt>
   <trkpt lat="-3.1956550" lon="37.3526940">
    <ele>2156.9</ele>
    <time>2026-06-24T07:21:44Z</time>
   </trkpt>
   <trkpt lat="-3.1956740" lon="37.3526860">
    <ele>2156.6</ele>
    <time>2026-06-24T07:21:45Z</time>
   </trkpt>
   <trkpt lat="-3.1956810" lon="37.3526830">
    <ele>2156.5</ele>
    <time>2026-06-24T07:21:46Z</time>
   </trkpt>
   <trkpt lat="-3.1956810" lon="37.3526800">
    <ele>2156.4</ele>
    <time>2026-06-24T07:21:47Z</time>
   </trkpt>
   <trkpt lat="-3.1956810" lon="37.3526750">
    <ele>2156.3</ele>
    <time>2026-06-24T07:21:48Z</time>
   </trkpt>
   <trkpt lat="-3.1956830" lon="37.3526680">
    <ele>2156.2</ele>
    <time>2026-06-24T07:21:49Z</time>
   </trkpt>
   <trkpt lat="-3.1956880" lon="37.3526660">
    <ele>2156.1</ele>
    <time>2026-06-24T07:21:50Z</time>
   </trkpt>
   <trkpt lat="-3.1957050" lon="37.3526590">
    <ele>2155.8</ele>
    <time>2026-06-24T07:21:51Z</time>
   </trkpt>
   <trkpt lat="-3.1957090" lon="37.3526490">
    <ele>2155.6</ele>
    <time>2026-06-24T07:21:52Z</time>
   </trkpt>
   <trkpt lat="-3.1957050" lon="37.3526480">
    <ele>2155.5</ele>
    <time>2026-06-24T07:21:53Z</time>
   </trkpt>
   <trkpt lat="-3.1957050" lon="37.3526490">
    <ele>2155.5</ele>
    <time>2026-06-24T07:21:54Z</time>
   </trkpt>
   <trkpt lat="-3.1957150" lon="37.3526410">
    <ele>2155.3</ele>
    <time>2026-06-24T07:21:55Z</time>
   </trkpt>
   <trkpt lat="-3.1957180" lon="37.3526380">
    <ele>2155.2</ele>
    <time>2026-06-24T07:21:56Z</time>
   </trkpt>
   <trkpt lat="-3.1957230" lon="37.3526290">
    <ele>2155.0</ele>
    <time>2026-06-24T07:21:57Z</time>
   </trkpt>
   <trkpt lat="-3.1957200" lon="37.3526340">
    <ele>2154.9</ele>
    <time>2026-06-24T07:21:58Z</time>
   </trkpt>
   <trkpt lat="-3.1957280" lon="37.3526300">
    <ele>2154.7</ele>
    <time>2026-06-24T07:21:59Z</time>
   </trkpt>
   <trkpt lat="-3.1957320" lon="37.3526310">
    <ele>2154.7</ele>
    <time>2026-06-24T07:22:00Z</time>
   </trkpt>
   <trkpt lat="-3.1957470" lon="37.3526270">
    <ele>2154.4</ele>
    <time>2026-06-24T07:22:01Z</time>
   </trkpt>
   <trkpt lat="-3.1957480" lon="37.3526300">
    <ele>2154.3</ele>
    <time>2026-06-24T07:22:02Z</time>
   </trkpt>
   <trkpt lat="-3.1957550" lon="37.3526300">
    <ele>2154.2</ele>
    <time>2026-06-24T07:22:03Z</time>
   </trkpt>
   <trkpt lat="-3.1957660" lon="37.3526230">
    <ele>2154.0</ele>
    <time>2026-06-24T07:22:04Z</time>
   </trkpt>
   <trkpt lat="-3.1957770" lon="37.3526170">
    <ele>2153.7</ele>
    <time>2026-06-24T07:22:05Z</time>
   </trkpt>
   <trkpt lat="-3.1957870" lon="37.3526150">
    <ele>2153.6</ele>
    <time>2026-06-24T07:22:06Z</time>
   </trkpt>
   <trkpt lat="-3.1958010" lon="37.3526080">
    <ele>2153.3</ele>
    <time>2026-06-24T07:22:07Z</time>
   </trkpt>
   <trkpt lat="-3.1958040" lon="37.3525920">
    <ele>2153.0</ele>
    <time>2026-06-24T07:22:08Z</time>
   </trkpt>
   <trkpt lat="-3.1958060" lon="37.3525830">
    <ele>2152.8</ele>
    <time>2026-06-24T07:22:09Z</time>
   </trkpt>
   <trkpt lat="-3.1958050" lon="37.3525770">
    <ele>2152.7</ele>
    <time>2026-06-24T07:22:10Z</time>
   </trkpt>
   <trkpt lat="-3.1958060" lon="37.3525740">
    <ele>2152.6</ele>
    <time>2026-06-24T07:22:11Z</time>
   </trkpt>
   <trkpt lat="-3.1958080" lon="37.3525680">
    <ele>2152.5</ele>
    <time>2026-06-24T07:22:12Z</time>
   </trkpt>
   <trkpt lat="-3.1958050" lon="37.3525700">
    <ele>2152.4</ele>
    <time>2026-06-24T07:22:13Z</time>
   </trkpt>
   <trkpt lat="-3.1958080" lon="37.3525670">
    <ele>2152.3</ele>
    <time>2026-06-24T07:22:14Z</time>
   </trkpt>
   <trkpt lat="-3.1958170" lon="37.3525620">
    <ele>2152.1</ele>
    <time>2026-06-24T07:22:15Z</time>
   </trkpt>
   <trkpt lat="-3.1958220" lon="37.3525620">
    <ele>2152.0</ele>
    <time>2026-06-24T07:22:16Z</time>
   </trkpt>
   <trkpt lat="-3.1958230" lon="37.3525640">
    <ele>2152.0</ele>
    <time>2026-06-24T07:22:17Z</time>
   </trkpt>
   <trkpt lat="-3.1958300" lon="37.3525640">
    <ele>2151.9</ele>
    <time>2026-06-24T07:22:18Z</time>
   </trkpt>
   <trkpt lat="-3.1958350" lon="37.3525690">
    <ele>2151.7</ele>
    <time>2026-06-24T07:22:19Z</time>
   </trkpt>
   <trkpt lat="-3.1958380" lon="37.3525690">
    <ele>2151.6</ele>
    <time>2026-06-24T07:22:20Z</time>
   </trkpt>
   <trkpt lat="-3.1958380" lon="37.3525650">
    <ele>2151.6</ele>
    <time>2026-06-24T07:22:21Z</time>
   </trkpt>
   <trkpt lat="-3.1958380" lon="37.3525680">
    <ele>2151.5</ele>
    <time>2026-06-24T07:22:22Z</time>
   </trkpt>
   <trkpt lat="-3.1958430" lon="37.3525710">
    <ele>2151.4</ele>
    <time>2026-06-24T07:22:23Z</time>
   </trkpt>
   <trkpt lat="-3.1958520" lon="37.3525660">
    <ele>2151.2</ele>
    <time>2026-06-24T07:22:24Z</time>
   </trkpt>
   <trkpt lat="-3.1958580" lon="37.3525620">
    <ele>2151.0</ele>
    <time>2026-06-24T07:22:25Z</time>
   </trkpt>
   <trkpt lat="-3.1958670" lon="37.3525530">
    <ele>2150.8</ele>
    <time>2026-06-24T07:22:26Z</time>
   </trkpt>
   <trkpt lat="-3.1958760" lon="37.3525510">
    <ele>2150.6</ele>
    <time>2026-06-24T07:22:27Z</time>
   </trkpt>
   <trkpt lat="-3.1958820" lon="37.3525510">
    <ele>2150.5</ele>
    <time>2026-06-24T07:22:28Z</time>
   </trkpt>
   <trkpt lat="-3.1958950" lon="37.3525470">
    <ele>2150.2</ele>
    <time>2026-06-24T07:22:29Z</time>
   </trkpt>
   <trkpt lat="-3.1959000" lon="37.3525510">
    <ele>2150.1</ele>
    <time>2026-06-24T07:22:30Z</time>
   </trkpt>
   <trkpt lat="-3.1959060" lon="37.3525500">
    <ele>2149.9</ele>
    <time>2026-06-24T07:22:31Z</time>
   </trkpt>
   <trkpt lat="-3.1959200" lon="37.3525420">
    <ele>2149.6</ele>
    <time>2026-06-24T07:22:32Z</time>
   </trkpt>
   <trkpt lat="-3.1959320" lon="37.3525370">
    <ele>2149.3</ele>
    <time>2026-06-24T07:22:33Z</time>
   </trkpt>
   <trkpt lat="-3.1959300" lon="37.3525340">
    <ele>2149.2</ele>
    <time>2026-06-24T07:22:34Z</time>
   </trkpt>
   <trkpt lat="-3.1959350" lon="37.3525350">
    <ele>2149.1</ele>
    <time>2026-06-24T07:22:35Z</time>
   </trkpt>
   <trkpt lat="-3.1959400" lon="37.3525330">
    <ele>2149.0</ele>
    <time>2026-06-24T07:22:36Z</time>
   </trkpt>
   <trkpt lat="-3.1959390" lon="37.3525300">
    <ele>2148.9</ele>
    <time>2026-06-24T07:22:37Z</time>
   </trkpt>
   <trkpt lat="-3.1959470" lon="37.3525250">
    <ele>2148.7</ele>
    <time>2026-06-24T07:22:38Z</time>
   </trkpt>
   <trkpt lat="-3.1959470" lon="37.3525220">
    <ele>2148.7</ele>
    <time>2026-06-24T07:22:39Z</time>
   </trkpt>
   <trkpt lat="-3.1959560" lon="37.3525160">
    <ele>2148.4</ele>
    <time>2026-06-24T07:22:40Z</time>
   </trkpt>
   <trkpt lat="-3.1959660" lon="37.3525100">
    <ele>2148.2</ele>
    <time>2026-06-24T07:22:41Z</time>
   </trkpt>
   <trkpt lat="-3.1959790" lon="37.3525060">
    <ele>2147.9</ele>
    <time>2026-06-24T07:22:42Z</time>
   </trkpt>
   <trkpt lat="-3.1959820" lon="37.3525070">
    <ele>2147.8</ele>
    <time>2026-06-24T07:22:43Z</time>
   </trkpt>
   <trkpt lat="-3.1959830" lon="37.3525080">
    <ele>2147.8</ele>
    <time>2026-06-24T07:22:44Z</time>
   </trkpt>
   <trkpt lat="-3.1959830" lon="37.3525130">
    <ele>2147.7</ele>
    <time>2026-06-24T07:22:45Z</time>
   </trkpt>
   <trkpt lat="-3.1959890" lon="37.3525140">
    <ele>2147.5</ele>
    <time>2026-06-24T07:22:46Z</time>
   </trkpt>
   <trkpt lat="-3.1960050" lon="37.3525140">
    <ele>2147.2</ele>
    <time>2026-06-24T07:22:47Z</time>
   </trkpt>
   <trkpt lat="-3.1960100" lon="37.3525140">
    <ele>2147.1</ele>
    <time>2026-06-24T07:22:48Z</time>
   </trkpt>
   <trkpt lat="-3.1960200" lon="37.3525110">
    <ele>2146.8</ele>
    <time>2026-06-24T07:22:49Z</time>
   </trkpt>
   <trkpt lat="-3.1960230" lon="37.3525130">
    <ele>2146.8</ele>
    <time>2026-06-24T07:22:50Z</time>
   </trkpt>
   <trkpt lat="-3.1960290" lon="37.3525140">
    <ele>2146.6</ele>
    <time>2026-06-24T07:22:51Z</time>
   </trkpt>
   <trkpt lat="-3.1960390" lon="37.3525170">
    <ele>2146.4</ele>
    <time>2026-06-24T07:22:52Z</time>
   </trkpt>
   <trkpt lat="-3.1960440" lon="37.3525210">
    <ele>2146.3</ele>
    <time>2026-06-24T07:22:54Z</time>
   </trkpt>
   <trkpt lat="-3.1960530" lon="37.3525260">
    <ele>2146.0</ele>
    <time>2026-06-24T07:22:55Z</time>
   </trkpt>
   <trkpt lat="-3.1960610" lon="37.3525310">
    <ele>2145.8</ele>
    <time>2026-06-24T07:22:56Z</time>
   </trkpt>
   <trkpt lat="-3.1960520" lon="37.3525230">
    <ele>2145.6</ele>
    <time>2026-06-24T07:22:57Z</time>
   </trkpt>
   <trkpt lat="-3.1960580" lon="37.3525310">
    <ele>2145.3</ele>
    <time>2026-06-24T07:22:58Z</time>
   </trkpt>
   <trkpt lat="-3.1960690" lon="37.3525280">
    <ele>2145.1</ele>
    <time>2026-06-24T07:22:59Z</time>
   </trkpt>
   <trkpt lat="-3.1960770" lon="37.3525300">
    <ele>2144.9</ele>
    <time>2026-06-24T07:23:00Z</time>
   </trkpt>
   <trkpt lat="-3.1960860" lon="37.3525250">
    <ele>2144.7</ele>
    <time>2026-06-24T07:23:01Z</time>
   </trkpt>
   <trkpt lat="-3.1960900" lon="37.3525280">
    <ele>2144.6</ele>
    <time>2026-06-24T07:23:02Z</time>
   </trkpt>
   <trkpt lat="-3.1960960" lon="37.3525300">
    <ele>2144.4</ele>
    <time>2026-06-24T07:23:03Z</time>
   </trkpt>
   <trkpt lat="-3.1960990" lon="37.3525370">
    <ele>2144.3</ele>
    <time>2026-06-24T07:23:04Z</time>
   </trkpt>
   <trkpt lat="-3.1961090" lon="37.3525400">
    <ele>2144.0</ele>
    <time>2026-06-24T07:23:05Z</time>
   </trkpt>
   <trkpt lat="-3.1961170" lon="37.3525420">
    <ele>2143.9</ele>
    <time>2026-06-24T07:23:06Z</time>
   </trkpt>
   <trkpt lat="-3.1961230" lon="37.3525400">
    <ele>2143.7</ele>
    <time>2026-06-24T07:23:07Z</time>
   </trkpt>
   <trkpt lat="-3.1961280" lon="37.3525350">
    <ele>2143.6</ele>
    <time>2026-06-24T07:23:08Z</time>
   </trkpt>
   <trkpt lat="-3.1961340" lon="37.3525350">
    <ele>2143.4</ele>
    <time>2026-06-24T07:23:09Z</time>
   </trkpt>
   <trkpt lat="-3.1961390" lon="37.3525400">
    <ele>2143.3</ele>
    <time>2026-06-24T07:23:10Z</time>
   </trkpt>
   <trkpt lat="-3.1961460" lon="37.3525400">
    <ele>2143.1</ele>
    <time>2026-06-24T07:23:11Z</time>
   </trkpt>
   <trkpt lat="-3.1961600" lon="37.3525390">
    <ele>2142.8</ele>
    <time>2026-06-24T07:23:12Z</time>
   </trkpt>
   <trkpt lat="-3.1961630" lon="37.3525350">
    <ele>2142.7</ele>
    <time>2026-06-24T07:23:13Z</time>
   </trkpt>
   <trkpt lat="-3.1961640" lon="37.3525380">
    <ele>2142.7</ele>
    <time>2026-06-24T07:23:14Z</time>
   </trkpt>
   <trkpt lat="-3.1961690" lon="37.3525390">
    <ele>2142.6</ele>
    <time>2026-06-24T07:23:15Z</time>
   </trkpt>
   <trkpt lat="-3.1961760" lon="37.3525410">
    <ele>2142.4</ele>
    <time>2026-06-24T07:23:16Z</time>
   </trkpt>
   <trkpt lat="-3.1961810" lon="37.3525450">
    <ele>2142.3</ele>
    <time>2026-06-24T07:23:17Z</time>
   </trkpt>
   <trkpt lat="-3.1961870" lon="37.3525430">
    <ele>2142.1</ele>
    <time>2026-06-24T07:23:18Z</time>
   </trkpt>
   <trkpt lat="-3.1961990" lon="37.3525390">
    <ele>2141.9</ele>
    <time>2026-06-24T07:23:19Z</time>
   </trkpt>
   <trkpt lat="-3.1962080" lon="37.3525390">
    <ele>2141.7</ele>
    <time>2026-06-24T07:23:20Z</time>
   </trkpt>
   <trkpt lat="-3.1962110" lon="37.3525310">
    <ele>2141.5</ele>
    <time>2026-06-24T07:23:21Z</time>
   </trkpt>
   <trkpt lat="-3.1962140" lon="37.3525320">
    <ele>2141.4</ele>
    <time>2026-06-24T07:23:22Z</time>
   </trkpt>
   <trkpt lat="-3.1962210" lon="37.3525300">
    <ele>2141.3</ele>
    <time>2026-06-24T07:23:23Z</time>
   </trkpt>
   <trkpt lat="-3.1962350" lon="37.3525280">
    <ele>2141.0</ele>
    <time>2026-06-24T07:23:24Z</time>
   </trkpt>
   <trkpt lat="-3.1962380" lon="37.3525240">
    <ele>2140.9</ele>
    <time>2026-06-24T07:23:25Z</time>
   </trkpt>
   <trkpt lat="-3.1962470" lon="37.3525250">
    <ele>2140.7</ele>
    <time>2026-06-24T07:23:26Z</time>
   </trkpt>
   <trkpt lat="-3.1962500" lon="37.3525280">
    <ele>2140.6</ele>
    <time>2026-06-24T07:23:27Z</time>
   </trkpt>
   <trkpt lat="-3.1962540" lon="37.3525270">
    <ele>2140.5</ele>
    <time>2026-06-24T07:23:28Z</time>
   </trkpt>
   <trkpt lat="-3.1962680" lon="37.3525240">
    <ele>2140.2</ele>
    <time>2026-06-24T07:23:29Z</time>
   </trkpt>
   <trkpt lat="-3.1962570" lon="37.3525270">
    <ele>2139.9</ele>
    <time>2026-06-24T07:23:30Z</time>
   </trkpt>
   <trkpt lat="-3.1962660" lon="37.3525290">
    <ele>2139.7</ele>
    <time>2026-06-24T07:23:31Z</time>
   </trkpt>
   <trkpt lat="-3.1962850" lon="37.3525320">
    <ele>2139.3</ele>
    <time>2026-06-24T07:23:32Z</time>
   </trkpt>
   <trkpt lat="-3.1962890" lon="37.3525420">
    <ele>2139.1</ele>
    <time>2026-06-24T07:23:33Z</time>
   </trkpt>
   <trkpt lat="-3.1963020" lon="37.3525430">
    <ele>2138.8</ele>
    <time>2026-06-24T07:23:34Z</time>
   </trkpt>
   <trkpt lat="-3.1963150" lon="37.3525440">
    <ele>2138.5</ele>
    <time>2026-06-24T07:23:35Z</time>
   </trkpt>
   <trkpt lat="-3.1963270" lon="37.3525440">
    <ele>2138.3</ele>
    <time>2026-06-24T07:23:36Z</time>
   </trkpt>
   <trkpt lat="-3.1963390" lon="37.3525360">
    <ele>2138.0</ele>
    <time>2026-06-24T07:23:37Z</time>
   </trkpt>
   <trkpt lat="-3.1963390" lon="37.3525280">
    <ele>2137.8</ele>
    <time>2026-06-24T07:23:38Z</time>
   </trkpt>
   <trkpt lat="-3.1963650" lon="37.3525160">
    <ele>2137.2</ele>
    <time>2026-06-24T07:23:39Z</time>
   </trkpt>
   <trkpt lat="-3.1963740" lon="37.3525050">
    <ele>2136.9</ele>
    <time>2026-06-24T07:23:40Z</time>
   </trkpt>
   <trkpt lat="-3.1963720" lon="37.3525000">
    <ele>2136.8</ele>
    <time>2026-06-24T07:23:41Z</time>
   </trkpt>
   <trkpt lat="-3.1963750" lon="37.3524950">
    <ele>2136.7</ele>
    <time>2026-06-24T07:23:42Z</time>
   </trkpt>
   <trkpt lat="-3.1963890" lon="37.3524930">
    <ele>2136.4</ele>
    <time>2026-06-24T07:23:43Z</time>
   </trkpt>
   <trkpt lat="-3.1963910" lon="37.3524880">
    <ele>2136.3</ele>
    <time>2026-06-24T07:23:44Z</time>
   </trkpt>
   <trkpt lat="-3.1964020" lon="37.3524840">
    <ele>2136.0</ele>
    <time>2026-06-24T07:23:45Z</time>
   </trkpt>
   <trkpt lat="-3.1964060" lon="37.3524830">
    <ele>2136.0</ele>
    <time>2026-06-24T07:23:46Z</time>
   </trkpt>
   <trkpt lat="-3.1964180" lon="37.3524820">
    <ele>2135.7</ele>
    <time>2026-06-24T07:23:47Z</time>
   </trkpt>
   <trkpt lat="-3.1964270" lon="37.3524770">
    <ele>2135.5</ele>
    <time>2026-06-24T07:23:48Z</time>
   </trkpt>
   <trkpt lat="-3.1964310" lon="37.3524730">
    <ele>2135.4</ele>
    <time>2026-06-24T07:23:49Z</time>
   </trkpt>
   <trkpt lat="-3.1964330" lon="37.3524710">
    <ele>2135.4</ele>
    <time>2026-06-24T07:23:50Z</time>
   </trkpt>
   <trkpt lat="-3.1964400" lon="37.3524700">
    <ele>2135.2</ele>
    <time>2026-06-24T07:23:51Z</time>
   </trkpt>
   <trkpt lat="-3.1964420" lon="37.3524740">
    <ele>2135.1</ele>
    <time>2026-06-24T07:23:52Z</time>
   </trkpt>
   <trkpt lat="-3.1964450" lon="37.3524780">
    <ele>2135.1</ele>
    <time>2026-06-24T07:23:53Z</time>
   </trkpt>
   <trkpt lat="-3.1964540" lon="37.3524720">
    <ele>2134.8</ele>
    <time>2026-06-24T07:23:54Z</time>
   </trkpt>
   <trkpt lat="-3.1964550" lon="37.3524700">
    <ele>2134.8</ele>
    <time>2026-06-24T07:23:55Z</time>
   </trkpt>
   <trkpt lat="-3.1964620" lon="37.3524720">
    <ele>2134.7</ele>
    <time>2026-06-24T07:23:56Z</time>
   </trkpt>
   <trkpt lat="-3.1964840" lon="37.3524810">
    <ele>2134.2</ele>
    <time>2026-06-24T07:23:57Z</time>
   </trkpt>
   <trkpt lat="-3.1964880" lon="37.3524830">
    <ele>2134.2</ele>
    <time>2026-06-24T07:23:58Z</time>
   </trkpt>
   <trkpt lat="-3.1964880" lon="37.3524820">
    <ele>2134.2</ele>
    <time>2026-06-24T07:23:59Z</time>
   </trkpt>
   <trkpt lat="-3.1964860" lon="37.3524840">
    <ele>2134.1</ele>
    <time>2026-06-24T07:24:00Z</time>
   </trkpt>
   <trkpt lat="-3.1964910" lon="37.3524860">
    <ele>2134.0</ele>
    <time>2026-06-24T07:24:01Z</time>
   </trkpt>
   <trkpt lat="-3.1964900" lon="37.3524980">
    <ele>2133.8</ele>
    <time>2026-06-24T07:24:02Z</time>
   </trkpt>
   <trkpt lat="-3.1964980" lon="37.3524910">
    <ele>2133.6</ele>
    <time>2026-06-24T07:24:03Z</time>
   </trkpt>
   <trkpt lat="-3.1964960" lon="37.3524880">
    <ele>2133.6</ele>
    <time>2026-06-24T07:24:04Z</time>
   </trkpt>
   <trkpt lat="-3.1964940" lon="37.3524900">
    <ele>2133.5</ele>
    <time>2026-06-24T07:24:05Z</time>
   </trkpt>
   <trkpt lat="-3.1965010" lon="37.3524920">
    <ele>2133.4</ele>
    <time>2026-06-24T07:24:06Z</time>
   </trkpt>
   <trkpt lat="-3.1965050" lon="37.3524930">
    <ele>2133.3</ele>
    <time>2026-06-24T07:24:07Z</time>
   </trkpt>
   <trkpt lat="-3.1965070" lon="37.3524920">
    <ele>2133.3</ele>
    <time>2026-06-24T07:24:08Z</time>
   </trkpt>
   <trkpt lat="-3.1965070" lon="37.3524890">
    <ele>2133.2</ele>
    <time>2026-06-24T07:24:09Z</time>
   </trkpt>
   <trkpt lat="-3.1965110" lon="37.3525050">
    <ele>2133.0</ele>
    <time>2026-06-24T07:24:10Z</time>
   </trkpt>
   <trkpt lat="-3.1965040" lon="37.3525090">
    <ele>2132.8</ele>
    <time>2026-06-24T07:24:11Z</time>
   </trkpt>
   <trkpt lat="-3.1964970" lon="37.3525100">
    <ele>2132.7</ele>
    <time>2026-06-24T07:24:12Z</time>
   </trkpt>
   <trkpt lat="-3.1964970" lon="37.3525180">
    <ele>2132.6</ele>
    <time>2026-06-24T07:24:13Z</time>
   </trkpt>
   <trkpt lat="-3.1965000" lon="37.3525240">
    <ele>2132.5</ele>
    <time>2026-06-24T07:24:14Z</time>
   </trkpt>
   <trkpt lat="-3.1965170" lon="37.3525350">
    <ele>2132.2</ele>
    <time>2026-06-24T07:24:15Z</time>
   </trkpt>
   <trkpt lat="-3.1965250" lon="37.3525480">
    <ele>2131.9</ele>
    <time>2026-06-24T07:24:16Z</time>
   </trkpt>
   <trkpt lat="-3.1965320" lon="37.3525600">
    <ele>2131.7</ele>
    <time>2026-06-24T07:24:17Z</time>
   </trkpt>
   <trkpt lat="-3.1965310" lon="37.3525550">
    <ele>2131.7</ele>
    <time>2026-06-24T07:24:18Z</time>
   </trkpt>
   <trkpt lat="-3.1965350" lon="37.3525570">
    <ele>2131.6</ele>
    <time>2026-06-24T07:24:19Z</time>
   </trkpt>
   <trkpt lat="-3.1965360" lon="37.3525570">
    <ele>2131.6</ele>
    <time>2026-06-24T07:24:20Z</time>
   </trkpt>
   <trkpt lat="-3.1965440" lon="37.3525570">
    <ele>2131.5</ele>
    <time>2026-06-24T07:24:21Z</time>
   </trkpt>
   <trkpt lat="-3.1965500" lon="37.3525510">
    <ele>2131.3</ele>
    <time>2026-06-24T07:24:22Z</time>
   </trkpt>
   <trkpt lat="-3.1965620" lon="37.3525400">
    <ele>2131.1</ele>
    <time>2026-06-24T07:24:23Z</time>
   </trkpt>
   <trkpt lat="-3.1965720" lon="37.3525390">
    <ele>2131.0</ele>
    <time>2026-06-24T07:24:24Z</time>
   </trkpt>
   <trkpt lat="-3.1965790" lon="37.3525430">
    <ele>2130.9</ele>
    <time>2026-06-24T07:24:25Z</time>
   </trkpt>
   <trkpt lat="-3.1965890" lon="37.3525370">
    <ele>2130.7</ele>
    <time>2026-06-24T07:24:26Z</time>
   </trkpt>
   <trkpt lat="-3.1965980" lon="37.3525370">
    <ele>2130.6</ele>
    <time>2026-06-24T07:24:27Z</time>
   </trkpt>
   <trkpt lat="-3.1966030" lon="37.3525380">
    <ele>2130.5</ele>
    <time>2026-06-24T07:24:28Z</time>
   </trkpt>
   <trkpt lat="-3.1966070" lon="37.3525300">
    <ele>2130.4</ele>
    <time>2026-06-24T07:24:29Z</time>
   </trkpt>
   <trkpt lat="-3.1966100" lon="37.3525300">
    <ele>2130.3</ele>
    <time>2026-06-24T07:24:30Z</time>
   </trkpt>
   <trkpt lat="-3.1966180" lon="37.3525350">
    <ele>2130.2</ele>
    <time>2026-06-24T07:24:31Z</time>
   </trkpt>
   <trkpt lat="-3.1966270" lon="37.3525350">
    <ele>2130.1</ele>
    <time>2026-06-24T07:24:32Z</time>
   </trkpt>
   <trkpt lat="-3.1966380" lon="37.3525420">
    <ele>2129.9</ele>
    <time>2026-06-24T07:24:33Z</time>
   </trkpt>
   <trkpt lat="-3.1966410" lon="37.3525440">
    <ele>2129.9</ele>
    <time>2026-06-24T07:24:34Z</time>
   </trkpt>
   <trkpt lat="-3.1966450" lon="37.3525520">
    <ele>2129.8</ele>
    <time>2026-06-24T07:24:35Z</time>
   </trkpt>
   <trkpt lat="-3.1966520" lon="37.3525580">
    <ele>2129.7</ele>
    <time>2026-06-24T07:24:36Z</time>
   </trkpt>
   <trkpt lat="-3.1966600" lon="37.3525630">
    <ele>2129.5</ele>
    <time>2026-06-24T07:24:37Z</time>
   </trkpt>
   <trkpt lat="-3.1966630" lon="37.3525700">
    <ele>2129.5</ele>
    <time>2026-06-24T07:24:38Z</time>
   </trkpt>
   <trkpt lat="-3.1966720" lon="37.3525710">
    <ele>2129.4</ele>
    <time>2026-06-24T07:24:39Z</time>
   </trkpt>
   <trkpt lat="-3.1966790" lon="37.3525810">
    <ele>2129.2</ele>
    <time>2026-06-24T07:24:40Z</time>
   </trkpt>
   <trkpt lat="-3.1966880" lon="37.3525870">
    <ele>2129.1</ele>
    <time>2026-06-24T07:24:41Z</time>
   </trkpt>
   <trkpt lat="-3.1966930" lon="37.3525910">
    <ele>2129.0</ele>
    <time>2026-06-24T07:24:42Z</time>
   </trkpt>
   <trkpt lat="-3.1966990" lon="37.3525950">
    <ele>2128.9</ele>
    <time>2026-06-24T07:24:43Z</time>
   </trkpt>
   <trkpt lat="-3.1967120" lon="37.3526030">
    <ele>2128.8</ele>
    <time>2026-06-24T07:24:44Z</time>
   </trkpt>
   <trkpt lat="-3.1967260" lon="37.3526040">
    <ele>2128.6</ele>
    <time>2026-06-24T07:24:45Z</time>
   </trkpt>
   <trkpt lat="-3.1967270" lon="37.3526030">
    <ele>2128.6</ele>
    <time>2026-06-24T07:24:46Z</time>
   </trkpt>
   <trkpt lat="-3.1967290" lon="37.3526010">
    <ele>2128.6</ele>
    <time>2026-06-24T07:24:47Z</time>
   </trkpt>
   <trkpt lat="-3.1967500" lon="37.3526030">
    <ele>2128.3</ele>
    <time>2026-06-24T07:24:48Z</time>
   </trkpt>
   <trkpt lat="-3.1967530" lon="37.3525990">
    <ele>2128.3</ele>
    <time>2026-06-24T07:24:49Z</time>
   </trkpt>
   <trkpt lat="-3.1967600" lon="37.3525990">
    <ele>2128.2</ele>
    <time>2026-06-24T07:24:50Z</time>
   </trkpt>
   <trkpt lat="-3.1967660" lon="37.3526050">
    <ele>2128.1</ele>
    <time>2026-06-24T07:24:51Z</time>
   </trkpt>
   <trkpt lat="-3.1967740" lon="37.3526090">
    <ele>2128.0</ele>
    <time>2026-06-24T07:24:52Z</time>
   </trkpt>
   <trkpt lat="-3.1967810" lon="37.3526150">
    <ele>2127.9</ele>
    <time>2026-06-24T07:24:53Z</time>
   </trkpt>
   <trkpt lat="-3.1967860" lon="37.3526210">
    <ele>2127.8</ele>
    <time>2026-06-24T07:24:54Z</time>
   </trkpt>
   <trkpt lat="-3.1967890" lon="37.3526170">
    <ele>2127.8</ele>
    <time>2026-06-24T07:24:55Z</time>
   </trkpt>
   <trkpt lat="-3.1968040" lon="37.3526220">
    <ele>2127.6</ele>
    <time>2026-06-24T07:24:56Z</time>
   </trkpt>
   <trkpt lat="-3.1968120" lon="37.3526300">
    <ele>2127.5</ele>
    <time>2026-06-24T07:24:57Z</time>
   </trkpt>
   <trkpt lat="-3.1968220" lon="37.3526280">
    <ele>2127.4</ele>
    <time>2026-06-24T07:24:59Z</time>
   </trkpt>
   <trkpt lat="-3.1968260" lon="37.3526290">
    <ele>2127.3</ele>
    <time>2026-06-24T07:25:00Z</time>
   </trkpt>
   <trkpt lat="-3.1968390" lon="37.3526330">
    <ele>2127.2</ele>
    <time>2026-06-24T07:25:01Z</time>
   </trkpt>
   <trkpt lat="-3.1968430" lon="37.3526300">
    <ele>2127.2</ele>
    <time>2026-06-24T07:25:02Z</time>
   </trkpt>
   <trkpt lat="-3.1968450" lon="37.3526280">
    <ele>2127.1</ele>
    <time>2026-06-24T07:25:03Z</time>
   </trkpt>
   <trkpt lat="-3.1968560" lon="37.3526270">
    <ele>2127.0</ele>
    <time>2026-06-24T07:25:04Z</time>
   </trkpt>
   <trkpt lat="-3.1968590" lon="37.3526210">
    <ele>2126.9</ele>
    <time>2026-06-24T07:25:05Z</time>
   </trkpt>
   <trkpt lat="-3.1968670" lon="37.3526150">
    <ele>2126.8</ele>
    <time>2026-06-24T07:25:06Z</time>
   </trkpt>
   <trkpt lat="-3.1968720" lon="37.3526110">
    <ele>2126.8</ele>
    <time>2026-06-24T07:25:07Z</time>
   </trkpt>
   <trkpt lat="-3.1968830" lon="37.3526070">
    <ele>2126.6</ele>
    <time>2026-06-24T07:25:08Z</time>
   </trkpt>
   <trkpt lat="-3.1968910" lon="37.3526030">
    <ele>2126.6</ele>
    <time>2026-06-24T07:25:09Z</time>
   </trkpt>
   <trkpt lat="-3.1968960" lon="37.3525970">
    <ele>2126.5</ele>
    <time>2026-06-24T07:25:10Z</time>
   </trkpt>
   <trkpt lat="-3.1969020" lon="37.3525940">
    <ele>2126.4</ele>
    <time>2026-06-24T07:25:11Z</time>
   </trkpt>
   <trkpt lat="-3.1969100" lon="37.3525920">
    <ele>2126.3</ele>
    <time>2026-06-24T07:25:12Z</time>
   </trkpt>
   <trkpt lat="-3.1969130" lon="37.3525900">
    <ele>2126.3</ele>
    <time>2026-06-24T07:25:13Z</time>
   </trkpt>
   <trkpt lat="-3.1969190" lon="37.3525880">
    <ele>2126.2</ele>
    <time>2026-06-24T07:25:14Z</time>
   </trkpt>
   <trkpt lat="-3.1969260" lon="37.3525870">
    <ele>2126.1</ele>
    <time>2026-06-24T07:25:15Z</time>
   </trkpt>
   <trkpt lat="-3.1969350" lon="37.3525810">
    <ele>2126.0</ele>
    <time>2026-06-24T07:25:16Z</time>
   </trkpt>
   <trkpt lat="-3.1969370" lon="37.3525750">
    <ele>2125.9</ele>
    <time>2026-06-24T07:25:17Z</time>
   </trkpt>
   <trkpt lat="-3.1969460" lon="37.3525740">
    <ele>2125.8</ele>
    <time>2026-06-24T07:25:18Z</time>
   </trkpt>
   <trkpt lat="-3.1969550" lon="37.3525780">
    <ele>2125.7</ele>
    <time>2026-06-24T07:25:19Z</time>
   </trkpt>
   <trkpt lat="-3.1969650" lon="37.3525810">
    <ele>2125.6</ele>
    <time>2026-06-24T07:25:20Z</time>
   </trkpt>
   <trkpt lat="-3.1969700" lon="37.3525820">
    <ele>2125.6</ele>
    <time>2026-06-24T07:25:21Z</time>
   </trkpt>
   <trkpt lat="-3.1969890" lon="37.3525860">
    <ele>2125.4</ele>
    <time>2026-06-24T07:25:22Z</time>
   </trkpt>
   <trkpt lat="-3.1969930" lon="37.3525860">
    <ele>2125.3</ele>
    <time>2026-06-24T07:25:23Z</time>
   </trkpt>
   <trkpt lat="-3.1969980" lon="37.3525880">
    <ele>2125.2</ele>
    <time>2026-06-24T07:25:24Z</time>
   </trkpt>
   <trkpt lat="-3.1970040" lon="37.3525820">
    <ele>2125.2</ele>
    <time>2026-06-24T07:25:25Z</time>
   </trkpt>
   <trkpt lat="-3.1970090" lon="37.3525740">
    <ele>2125.0</ele>
    <time>2026-06-24T07:25:26Z</time>
   </trkpt>
   <trkpt lat="-3.1970140" lon="37.3525690">
    <ele>2125.0</ele>
    <time>2026-06-24T07:25:27Z</time>
   </trkpt>
   <trkpt lat="-3.1970200" lon="37.3525660">
    <ele>2124.9</ele>
    <time>2026-06-24T07:25:28Z</time>
   </trkpt>
   <trkpt lat="-3.1970260" lon="37.3525640">
    <ele>2124.8</ele>
    <time>2026-06-24T07:25:29Z</time>
   </trkpt>
   <trkpt lat="-3.1970330" lon="37.3525600">
    <ele>2124.7</ele>
    <time>2026-06-24T07:25:30Z</time>
   </trkpt>
   <trkpt lat="-3.1970410" lon="37.3525470">
    <ele>2124.5</ele>
    <time>2026-06-24T07:25:31Z</time>
   </trkpt>
   <trkpt lat="-3.1970470" lon="37.3525440">
    <ele>2124.4</ele>
    <time>2026-06-24T07:25:32Z</time>
   </trkpt>
   <trkpt lat="-3.1970490" lon="37.3525470">
    <ele>2124.4</ele>
    <time>2026-06-24T07:25:33Z</time>
   </trkpt>
   <trkpt lat="-3.1970490" lon="37.3525490">
    <ele>2124.4</ele>
    <time>2026-06-24T07:25:34Z</time>
   </trkpt>
   <trkpt lat="-3.1970540" lon="37.3525480">
    <ele>2124.3</ele>
    <time>2026-06-24T07:25:35Z</time>
   </trkpt>
   <trkpt lat="-3.1970630" lon="37.3525480">
    <ele>2124.2</ele>
    <time>2026-06-24T07:25:36Z</time>
   </trkpt>
   <trkpt lat="-3.1970710" lon="37.3525520">
    <ele>2124.1</ele>
    <time>2026-06-24T07:25:37Z</time>
   </trkpt>
   <trkpt lat="-3.1970770" lon="37.3525480">
    <ele>2124.0</ele>
    <time>2026-06-24T07:25:38Z</time>
   </trkpt>
   <trkpt lat="-3.1970830" lon="37.3525460">
    <ele>2123.9</ele>
    <time>2026-06-24T07:25:39Z</time>
   </trkpt>
   <trkpt lat="-3.1970940" lon="37.3525450">
    <ele>2123.8</ele>
    <time>2026-06-24T07:25:40Z</time>
   </trkpt>
   <trkpt lat="-3.1971000" lon="37.3525440">
    <ele>2123.7</ele>
    <time>2026-06-24T07:25:41Z</time>
   </trkpt>
   <trkpt lat="-3.1971080" lon="37.3525480">
    <ele>2123.6</ele>
    <time>2026-06-24T07:25:42Z</time>
   </trkpt>
   <trkpt lat="-3.1971210" lon="37.3525530">
    <ele>2123.5</ele>
    <time>2026-06-24T07:25:43Z</time>
   </trkpt>
   <trkpt lat="-3.1971240" lon="37.3525510">
    <ele>2123.4</ele>
    <time>2026-06-24T07:25:44Z</time>
   </trkpt>
   <trkpt lat="-3.1971300" lon="37.3525490">
    <ele>2123.4</ele>
    <time>2026-06-24T07:25:45Z</time>
   </trkpt>
   <trkpt lat="-3.1971380" lon="37.3525490">
    <ele>2123.3</ele>
    <time>2026-06-24T07:25:46Z</time>
   </trkpt>
   <trkpt lat="-3.1971410" lon="37.3525450">
    <ele>2123.2</ele>
    <time>2026-06-24T07:25:47Z</time>
   </trkpt>
   <trkpt lat="-3.1971460" lon="37.3525410">
    <ele>2123.1</ele>
    <time>2026-06-24T07:25:48Z</time>
   </trkpt>
   <trkpt lat="-3.1971500" lon="37.3525400">
    <ele>2123.1</ele>
    <time>2026-06-24T07:25:49Z</time>
   </trkpt>
   <trkpt lat="-3.1971590" lon="37.3525440">
    <ele>2123.0</ele>
    <time>2026-06-24T07:25:50Z</time>
   </trkpt>
   <trkpt lat="-3.1971690" lon="37.3525460">
    <ele>2122.8</ele>
    <time>2026-06-24T07:25:51Z</time>
   </trkpt>
   <trkpt lat="-3.1971840" lon="37.3525450">
    <ele>2122.7</ele>
    <time>2026-06-24T07:25:52Z</time>
   </trkpt>
   <trkpt lat="-3.1971930" lon="37.3525430">
    <ele>2122.5</ele>
    <time>2026-06-24T07:25:53Z</time>
   </trkpt>
   <trkpt lat="-3.1971980" lon="37.3525450">
    <ele>2122.5</ele>
    <time>2026-06-24T07:25:54Z</time>
   </trkpt>
   <trkpt lat="-3.1972060" lon="37.3525480">
    <ele>2122.4</ele>
    <time>2026-06-24T07:25:55Z</time>
   </trkpt>
   <trkpt lat="-3.1972110" lon="37.3525480">
    <ele>2122.3</ele>
    <time>2026-06-24T07:25:56Z</time>
   </trkpt>
   <trkpt lat="-3.1972170" lon="37.3525450">
    <ele>2122.2</ele>
    <time>2026-06-24T07:25:57Z</time>
   </trkpt>
   <trkpt lat="-3.1972270" lon="37.3525470">
    <ele>2122.1</ele>
    <time>2026-06-24T07:25:58Z</time>
   </trkpt>
   <trkpt lat="-3.1972330" lon="37.3525500">
    <ele>2122.0</ele>
    <time>2026-06-24T07:25:59Z</time>
   </trkpt>
   <trkpt lat="-3.1972370" lon="37.3525520">
    <ele>2122.0</ele>
    <time>2026-06-24T07:26:00Z</time>
   </trkpt>
   <trkpt lat="-3.1972380" lon="37.3525540">
    <ele>2122.0</ele>
    <time>2026-06-24T07:26:01Z</time>
   </trkpt>
   <trkpt lat="-3.1972510" lon="37.3525590">
    <ele>2121.8</ele>
    <time>2026-06-24T07:26:02Z</time>
   </trkpt>
   <trkpt lat="-3.1972520" lon="37.3525560">
    <ele>2121.8</ele>
    <time>2026-06-24T07:26:03Z</time>
   </trkpt>
   <trkpt lat="-3.1972630" lon="37.3525630">
    <ele>2121.6</ele>
    <time>2026-06-24T07:26:04Z</time>
   </trkpt>
   <trkpt lat="-3.1972650" lon="37.3525630">
    <ele>2121.6</ele>
    <time>2026-06-24T07:26:05Z</time>
   </trkpt>
   <trkpt lat="-3.1972730" lon="37.3525610">
    <ele>2121.5</ele>
    <time>2026-06-24T07:26:06Z</time>
   </trkpt>
   <trkpt lat="-3.1972790" lon="37.3525600">
    <ele>2121.4</ele>
    <time>2026-06-24T07:26:07Z</time>
   </trkpt>
   <trkpt lat="-3.1972890" lon="37.3525630">
    <ele>2121.3</ele>
    <time>2026-06-24T07:26:08Z</time>
   </trkpt>
   <trkpt lat="-3.1972990" lon="37.3525630">
    <ele>2121.2</ele>
    <time>2026-06-24T07:26:09Z</time>
   </trkpt>
   <trkpt lat="-3.1973180" lon="37.3525620">
    <ele>2121.0</ele>
    <time>2026-06-24T07:26:10Z</time>
   </trkpt>
   <trkpt lat="-3.1973300" lon="37.3525610">
    <ele>2120.8</ele>
    <time>2026-06-24T07:26:11Z</time>
   </trkpt>
   <trkpt lat="-3.1973340" lon="37.3525610">
    <ele>2120.8</ele>
    <time>2026-06-24T07:26:12Z</time>
   </trkpt>
   <trkpt lat="-3.1973390" lon="37.3525610">
    <ele>2120.7</ele>
    <time>2026-06-24T07:26:13Z</time>
   </trkpt>
   <trkpt lat="-3.1973330" lon="37.3525530">
    <ele>2120.6</ele>
    <time>2026-06-24T07:26:14Z</time>
   </trkpt>
   <trkpt lat="-3.1973370" lon="37.3525510">
    <ele>2120.6</ele>
    <time>2026-06-24T07:26:15Z</time>
   </trkpt>
   <trkpt lat="-3.1973440" lon="37.3525540">
    <ele>2120.5</ele>
    <time>2026-06-24T07:26:16Z</time>
   </trkpt>
   <trkpt lat="-3.1973570" lon="37.3525560">
    <ele>2120.3</ele>
    <time>2026-06-24T07:26:17Z</time>
   </trkpt>
   <trkpt lat="-3.1973650" lon="37.3525560">
    <ele>2120.2</ele>
    <time>2026-06-24T07:26:18Z</time>
   </trkpt>
   <trkpt lat="-3.1973780" lon="37.3525550">
    <ele>2120.1</ele>
    <time>2026-06-24T07:26:19Z</time>
   </trkpt>
   <trkpt lat="-3.1973800" lon="37.3525560">
    <ele>2120.0</ele>
    <time>2026-06-24T07:26:20Z</time>
   </trkpt>
   <trkpt lat="-3.1973840" lon="37.3525500">
    <ele>2120.0</ele>
    <time>2026-06-24T07:26:21Z</time>
   </trkpt>
   <trkpt lat="-3.1973990" lon="37.3525510">
    <ele>2119.8</ele>
    <time>2026-06-24T07:26:22Z</time>
   </trkpt>
   <trkpt lat="-3.1974050" lon="37.3525490">
    <ele>2119.7</ele>
    <time>2026-06-24T07:26:23Z</time>
   </trkpt>
   <trkpt lat="-3.1974120" lon="37.3525480">
    <ele>2119.6</ele>
    <time>2026-06-24T07:26:24Z</time>
   </trkpt>
   <trkpt lat="-3.1974190" lon="37.3525460">
    <ele>2119.5</ele>
    <time>2026-06-24T07:26:25Z</time>
   </trkpt>
   <trkpt lat="-3.1974290" lon="37.3525460">
    <ele>2119.4</ele>
    <time>2026-06-24T07:26:26Z</time>
   </trkpt>
   <trkpt lat="-3.1974410" lon="37.3525510">
    <ele>2119.2</ele>
    <time>2026-06-24T07:26:27Z</time>
   </trkpt>
   <trkpt lat="-3.1974440" lon="37.3525460">
    <ele>2119.2</ele>
    <time>2026-06-24T07:26:28Z</time>
   </trkpt>
   <trkpt lat="-3.1974520" lon="37.3525460">
    <ele>2119.1</ele>
    <time>2026-06-24T07:26:29Z</time>
   </trkpt>
   <trkpt lat="-3.1974650" lon="37.3525400">
    <ele>2118.9</ele>
    <time>2026-06-24T07:26:30Z</time>
   </trkpt>
   <trkpt lat="-3.1974740" lon="37.3525370">
    <ele>2118.8</ele>
    <time>2026-06-24T07:26:31Z</time>
   </trkpt>
   <trkpt lat="-3.1974850" lon="37.3525280">
    <ele>2118.6</ele>
    <time>2026-06-24T07:26:32Z</time>
   </trkpt>
   <trkpt lat="-3.1974820" lon="37.3525240">
    <ele>2118.5</ele>
    <time>2026-06-24T07:26:33Z</time>
   </trkpt>
   <trkpt lat="-3.1974930" lon="37.3525160">
    <ele>2118.3</ele>
    <time>2026-06-24T07:26:34Z</time>
   </trkpt>
   <trkpt lat="-3.1975030" lon="37.3525160">
    <ele>2118.2</ele>
    <time>2026-06-24T07:26:35Z</time>
   </trkpt>
   <trkpt lat="-3.1975150" lon="37.3525220">
    <ele>2118.0</ele>
    <time>2026-06-24T07:26:36Z</time>
   </trkpt>
   <trkpt lat="-3.1975220" lon="37.3525270">
    <ele>2117.9</ele>
    <time>2026-06-24T07:26:37Z</time>
   </trkpt>
   <trkpt lat="-3.1975210" lon="37.3525290">
    <ele>2117.9</ele>
    <time>2026-06-24T07:26:38Z</time>
   </trkpt>
   <trkpt lat="-3.1975250" lon="37.3525230">
    <ele>2117.8</ele>
    <time>2026-06-24T07:26:39Z</time>
   </trkpt>
   <trkpt lat="-3.1975360" lon="37.3525220">
    <ele>2117.6</ele>
    <time>2026-06-24T07:26:40Z</time>
   </trkpt>
   <trkpt lat="-3.1975470" lon="37.3525210">
    <ele>2117.5</ele>
    <time>2026-06-24T07:26:41Z</time>
   </trkpt>
   <trkpt lat="-3.1975790" lon="37.3525160">
    <ele>2117.0</ele>
    <time>2026-06-24T07:26:42Z</time>
   </trkpt>
   <trkpt lat="-3.1975820" lon="37.3525250">
    <ele>2116.9</ele>
    <time>2026-06-24T07:26:43Z</time>
   </trkpt>
   <trkpt lat="-3.1975760" lon="37.3525280">
    <ele>2116.8</ele>
    <time>2026-06-24T07:26:44Z</time>
   </trkpt>
   <trkpt lat="-3.1975740" lon="37.3525270">
    <ele>2116.8</ele>
    <time>2026-06-24T07:26:45Z</time>
   </trkpt>
   <trkpt lat="-3.1975810" lon="37.3525250">
    <ele>2116.7</ele>
    <time>2026-06-24T07:26:46Z</time>
   </trkpt>
   <trkpt lat="-3.1975850" lon="37.3525250">
    <ele>2116.6</ele>
    <time>2026-06-24T07:26:47Z</time>
   </trkpt>
   <trkpt lat="-3.1975960" lon="37.3525220">
    <ele>2116.4</ele>
    <time>2026-06-24T07:26:48Z</time>
   </trkpt>
   <trkpt lat="-3.1976080" lon="37.3525200">
    <ele>2116.3</ele>
    <time>2026-06-24T07:26:49Z</time>
   </trkpt>
   <trkpt lat="-3.1976100" lon="37.3525180">
    <ele>2116.2</ele>
    <time>2026-06-24T07:26:50Z</time>
   </trkpt>
   <trkpt lat="-3.1976150" lon="37.3525150">
    <ele>2116.2</ele>
    <time>2026-06-24T07:26:51Z</time>
   </trkpt>
   <trkpt lat="-3.1976220" lon="37.3525100">
    <ele>2116.0</ele>
    <time>2026-06-24T07:26:52Z</time>
   </trkpt>
   <trkpt lat="-3.1976270" lon="37.3525070">
    <ele>2116.0</ele>
    <time>2026-06-24T07:26:53Z</time>
   </trkpt>
   <trkpt lat="-3.1976260" lon="37.3525060">
    <ele>2115.9</ele>
    <time>2026-06-24T07:26:54Z</time>
   </trkpt>
   <trkpt lat="-3.1976410" lon="37.3524990">
    <ele>2115.7</ele>
    <time>2026-06-24T07:26:55Z</time>
   </trkpt>
   <trkpt lat="-3.1976570" lon="37.3524900">
    <ele>2115.4</ele>
    <time>2026-06-24T07:26:56Z</time>
   </trkpt>
   <trkpt lat="-3.1976640" lon="37.3524860">
    <ele>2115.3</ele>
    <time>2026-06-24T07:26:57Z</time>
   </trkpt>
   <trkpt lat="-3.1976690" lon="37.3524830">
    <ele>2115.2</ele>
    <time>2026-06-24T07:26:58Z</time>
   </trkpt>
   <trkpt lat="-3.1976780" lon="37.3524800">
    <ele>2115.1</ele>
    <time>2026-06-24T07:26:59Z</time>
   </trkpt>
   <trkpt lat="-3.1976850" lon="37.3524790">
    <ele>2115.0</ele>
    <time>2026-06-24T07:27:00Z</time>
   </trkpt>
   <trkpt lat="-3.1976910" lon="37.3524790">
    <ele>2114.9</ele>
    <time>2026-06-24T07:27:01Z</time>
   </trkpt>
   <trkpt lat="-3.1976960" lon="37.3524770">
    <ele>2114.9</ele>
    <time>2026-06-24T07:27:02Z</time>
   </trkpt>
   <trkpt lat="-3.1977010" lon="37.3524720">
    <ele>2114.8</ele>
    <time>2026-06-24T07:27:03Z</time>
   </trkpt>
   <trkpt lat="-3.1977100" lon="37.3524650">
    <ele>2114.6</ele>
    <time>2026-06-24T07:27:05Z</time>
   </trkpt>
   <trkpt lat="-3.1977120" lon="37.3524690">
    <ele>2114.5</ele>
    <time>2026-06-24T07:27:06Z</time>
   </trkpt>
   <trkpt lat="-3.1977190" lon="37.3524670">
    <ele>2114.4</ele>
    <time>2026-06-24T07:27:07Z</time>
   </trkpt>
   <trkpt lat="-3.1977260" lon="37.3524620">
    <ele>2114.3</ele>
    <time>2026-06-24T07:27:08Z</time>
   </trkpt>
   <trkpt lat="-3.1977390" lon="37.3524560">
    <ele>2114.1</ele>
    <time>2026-06-24T07:27:09Z</time>
   </trkpt>
   <trkpt lat="-3.1977400" lon="37.3524540">
    <ele>2114.0</ele>
    <time>2026-06-24T07:27:10Z</time>
   </trkpt>
   <trkpt lat="-3.1977490" lon="37.3524480">
    <ele>2113.9</ele>
    <time>2026-06-24T07:27:11Z</time>
   </trkpt>
   <trkpt lat="-3.1977540" lon="37.3524420">
    <ele>2113.8</ele>
    <time>2026-06-24T07:27:12Z</time>
   </trkpt>
   <trkpt lat="-3.1977650" lon="37.3524430">
    <ele>2113.6</ele>
    <time>2026-06-24T07:27:13Z</time>
   </trkpt>
   <trkpt lat="-3.1977670" lon="37.3524450">
    <ele>2113.6</ele>
    <time>2026-06-24T07:27:14Z</time>
   </trkpt>
   <trkpt lat="-3.1977580" lon="37.3524420">
    <ele>2113.4</ele>
    <time>2026-06-24T07:27:15Z</time>
   </trkpt>
   <trkpt lat="-3.1977640" lon="37.3524400">
    <ele>2113.3</ele>
    <time>2026-06-24T07:27:16Z</time>
   </trkpt>
   <trkpt lat="-3.1977760" lon="37.3524300">
    <ele>2113.1</ele>
    <time>2026-06-24T07:27:17Z</time>
   </trkpt>
   <trkpt lat="-3.1977810" lon="37.3524280">
    <ele>2113.0</ele>
    <time>2026-06-24T07:27:18Z</time>
   </trkpt>
   <trkpt lat="-3.1977910" lon="37.3524200">
    <ele>2112.8</ele>
    <time>2026-06-24T07:27:19Z</time>
   </trkpt>
   <trkpt lat="-3.1978000" lon="37.3524180">
    <ele>2112.7</ele>
    <time>2026-06-24T07:27:20Z</time>
   </trkpt>
   <trkpt lat="-3.1978050" lon="37.3524150">
    <ele>2112.6</ele>
    <time>2026-06-24T07:27:21Z</time>
   </trkpt>
   <trkpt lat="-3.1978110" lon="37.3524110">
    <ele>2112.5</ele>
    <time>2026-06-24T07:27:22Z</time>
   </trkpt>
   <trkpt lat="-3.1978170" lon="37.3524070">
    <ele>2112.4</ele>
    <time>2026-06-24T07:27:23Z</time>
   </trkpt>
   <trkpt lat="-3.1978250" lon="37.3524040">
    <ele>2112.2</ele>
    <time>2026-06-24T07:27:24Z</time>
   </trkpt>
   <trkpt lat="-3.1978320" lon="37.3524010">
    <ele>2112.1</ele>
    <time>2026-06-24T07:27:25Z</time>
   </trkpt>
   <trkpt lat="-3.1978380" lon="37.3523980">
    <ele>2112.0</ele>
    <time>2026-06-24T07:27:26Z</time>
   </trkpt>
   <trkpt lat="-3.1978440" lon="37.3523930">
    <ele>2111.9</ele>
    <time>2026-06-24T07:27:27Z</time>
   </trkpt>
   <trkpt lat="-3.1978470" lon="37.3523910">
    <ele>2111.8</ele>
    <time>2026-06-24T07:27:28Z</time>
   </trkpt>
   <trkpt lat="-3.1978530" lon="37.3523870">
    <ele>2111.7</ele>
    <time>2026-06-24T07:27:29Z</time>
   </trkpt>
   <trkpt lat="-3.1978590" lon="37.3523840">
    <ele>2111.6</ele>
    <time>2026-06-24T07:27:30Z</time>
   </trkpt>
   <trkpt lat="-3.1978680" lon="37.3523800">
    <ele>2111.4</ele>
    <time>2026-06-24T07:27:31Z</time>
   </trkpt>
   <trkpt lat="-3.1978750" lon="37.3523770">
    <ele>2111.3</ele>
    <time>2026-06-24T07:27:32Z</time>
   </trkpt>
   <trkpt lat="-3.1978810" lon="37.3523770">
    <ele>2111.2</ele>
    <time>2026-06-24T07:27:33Z</time>
   </trkpt>
   <trkpt lat="-3.1978860" lon="37.3523760">
    <ele>2111.2</ele>
    <time>2026-06-24T07:27:34Z</time>
   </trkpt>
   <trkpt lat="-3.1978930" lon="37.3523720">
    <ele>2111.0</ele>
    <time>2026-06-24T07:27:35Z</time>
   </trkpt>
   <trkpt lat="-3.1978970" lon="37.3523690">
    <ele>2110.9</ele>
    <time>2026-06-24T07:27:36Z</time>
   </trkpt>
   <trkpt lat="-3.1979070" lon="37.3523670">
    <ele>2110.8</ele>
    <time>2026-06-24T07:27:37Z</time>
   </trkpt>
   <trkpt lat="-3.1979130" lon="37.3523670">
    <ele>2110.7</ele>
    <time>2026-06-24T07:27:38Z</time>
   </trkpt>
   <trkpt lat="-3.1979170" lon="37.3523650">
    <ele>2110.6</ele>
    <time>2026-06-24T07:27:39Z</time>
   </trkpt>
   <trkpt lat="-3.1979220" lon="37.3523650">
    <ele>2110.5</ele>
    <time>2026-06-24T07:27:40Z</time>
   </trkpt>
   <trkpt lat="-3.1979260" lon="37.3523630">
    <ele>2110.5</ele>
    <time>2026-06-24T07:27:41Z</time>
   </trkpt>
   <trkpt lat="-3.1979310" lon="37.3523600">
    <ele>2110.4</ele>
    <time>2026-06-24T07:27:42Z</time>
   </trkpt>
   <trkpt lat="-3.1979410" lon="37.3523560">
    <ele>2110.2</ele>
    <time>2026-06-24T07:27:43Z</time>
   </trkpt>
   <trkpt lat="-3.1979510" lon="37.3523540">
    <ele>2110.1</ele>
    <time>2026-06-24T07:27:44Z</time>
   </trkpt>
   <trkpt lat="-3.1979570" lon="37.3523510">
    <ele>2110.0</ele>
    <time>2026-06-24T07:27:45Z</time>
   </trkpt>
   <trkpt lat="-3.1979680" lon="37.3523540">
    <ele>2109.8</ele>
    <time>2026-06-24T07:27:46Z</time>
   </trkpt>
   <trkpt lat="-3.1979720" lon="37.3523590">
    <ele>2109.7</ele>
    <time>2026-06-24T07:27:47Z</time>
   </trkpt>
   <trkpt lat="-3.1979800" lon="37.3523690">
    <ele>2109.5</ele>
    <time>2026-06-24T07:27:48Z</time>
   </trkpt>
   <trkpt lat="-3.1979880" lon="37.3523770">
    <ele>2109.4</ele>
    <time>2026-06-24T07:27:49Z</time>
   </trkpt>
   <trkpt lat="-3.1979920" lon="37.3523790">
    <ele>2109.3</ele>
    <time>2026-06-24T07:27:50Z</time>
   </trkpt>
   <trkpt lat="-3.1979990" lon="37.3523790">
    <ele>2109.2</ele>
    <time>2026-06-24T07:27:51Z</time>
   </trkpt>
   <trkpt lat="-3.1980090" lon="37.3523710">
    <ele>2109.0</ele>
    <time>2026-06-24T07:27:52Z</time>
   </trkpt>
   <trkpt lat="-3.1980170" lon="37.3523730">
    <ele>2108.9</ele>
    <time>2026-06-24T07:27:53Z</time>
   </trkpt>
   <trkpt lat="-3.1980220" lon="37.3523730">
    <ele>2108.9</ele>
    <time>2026-06-24T07:27:54Z</time>
   </trkpt>
   <trkpt lat="-3.1980240" lon="37.3523750">
    <ele>2108.8</ele>
    <time>2026-06-24T07:27:55Z</time>
   </trkpt>
   <trkpt lat="-3.1980360" lon="37.3523770">
    <ele>2108.7</ele>
    <time>2026-06-24T07:27:56Z</time>
   </trkpt>
   <trkpt lat="-3.1980470" lon="37.3523760">
    <ele>2108.5</ele>
    <time>2026-06-24T07:27:57Z</time>
   </trkpt>
   <trkpt lat="-3.1980570" lon="37.3523720">
    <ele>2108.4</ele>
    <time>2026-06-24T07:27:58Z</time>
   </trkpt>
   <trkpt lat="-3.1980630" lon="37.3523750">
    <ele>2108.3</ele>
    <time>2026-06-24T07:27:59Z</time>
   </trkpt>
   <trkpt lat="-3.1980640" lon="37.3523820">
    <ele>2108.2</ele>
    <time>2026-06-24T07:28:00Z</time>
   </trkpt>
   <trkpt lat="-3.1980710" lon="37.3523890">
    <ele>2108.1</ele>
    <time>2026-06-24T07:28:01Z</time>
   </trkpt>
   <trkpt lat="-3.1980700" lon="37.3523880">
    <ele>2108.1</ele>
    <time>2026-06-24T07:28:02Z</time>
   </trkpt>
   <trkpt lat="-3.1980790" lon="37.3523850">
    <ele>2108.0</ele>
    <time>2026-06-24T07:28:03Z</time>
   </trkpt>
   <trkpt lat="-3.1980860" lon="37.3523810">
    <ele>2107.9</ele>
    <time>2026-06-24T07:28:04Z</time>
   </trkpt>
   <trkpt lat="-3.1980980" lon="37.3523760">
    <ele>2107.8</ele>
    <time>2026-06-24T07:28:05Z</time>
   </trkpt>
   <trkpt lat="-3.1981060" lon="37.3523730">
    <ele>2107.7</ele>
    <time>2026-06-24T07:28:06Z</time>
   </trkpt>
   <trkpt lat="-3.1981120" lon="37.3523740">
    <ele>2107.6</ele>
    <time>2026-06-24T07:28:07Z</time>
   </trkpt>
   <trkpt lat="-3.1981160" lon="37.3523800">
    <ele>2107.5</ele>
    <time>2026-06-24T07:28:08Z</time>
   </trkpt>
   <trkpt lat="-3.1981210" lon="37.3523820">
    <ele>2107.5</ele>
    <time>2026-06-24T07:28:09Z</time>
   </trkpt>
   <trkpt lat="-3.1981220" lon="37.3523780">
    <ele>2107.4</ele>
    <time>2026-06-24T07:28:10Z</time>
   </trkpt>
   <trkpt lat="-3.1981310" lon="37.3523710">
    <ele>2107.3</ele>
    <time>2026-06-24T07:28:11Z</time>
   </trkpt>
   <trkpt lat="-3.1981280" lon="37.3523700">
    <ele>2107.3</ele>
    <time>2026-06-24T07:28:12Z</time>
   </trkpt>
   <trkpt lat="-3.1981360" lon="37.3523680">
    <ele>2107.2</ele>
    <time>2026-06-24T07:28:13Z</time>
   </trkpt>
   <trkpt lat="-3.1981470" lon="37.3523650">
    <ele>2107.1</ele>
    <time>2026-06-24T07:28:14Z</time>
   </trkpt>
   <trkpt lat="-3.1981540" lon="37.3523610">
    <ele>2107.0</ele>
    <time>2026-06-24T07:28:15Z</time>
   </trkpt>
   <trkpt lat="-3.1981670" lon="37.3523510">
    <ele>2106.8</ele>
    <time>2026-06-24T07:28:16Z</time>
   </trkpt>
   <trkpt lat="-3.1981770" lon="37.3523520">
    <ele>2106.7</ele>
    <time>2026-06-24T07:28:17Z</time>
   </trkpt>
   <trkpt lat="-3.1981890" lon="37.3523510">
    <ele>2106.6</ele>
    <time>2026-06-24T07:28:18Z</time>
   </trkpt>
   <trkpt lat="-3.1981890" lon="37.3523550">
    <ele>2106.5</ele>
    <time>2026-06-24T07:28:19Z</time>
   </trkpt>
   <trkpt lat="-3.1981930" lon="37.3523580">
    <ele>2106.5</ele>
    <time>2026-06-24T07:28:20Z</time>
   </trkpt>
   <trkpt lat="-3.1981960" lon="37.3523630">
    <ele>2106.4</ele>
    <time>2026-06-24T07:28:21Z</time>
   </trkpt>
   <trkpt lat="-3.1982000" lon="37.3523680">
    <ele>2106.4</ele>
    <time>2026-06-24T07:28:22Z</time>
   </trkpt>
   <trkpt lat="-3.1982140" lon="37.3523680">
    <ele>2106.2</ele>
    <time>2026-06-24T07:28:23Z</time>
   </trkpt>
   <trkpt lat="-3.1982250" lon="37.3523690">
    <ele>2106.1</ele>
    <time>2026-06-24T07:28:24Z</time>
   </trkpt>
   <trkpt lat="-3.1982350" lon="37.3523680">
    <ele>2106.0</ele>
    <time>2026-06-24T07:28:25Z</time>
   </trkpt>
   <trkpt lat="-3.1982550" lon="37.3523700">
    <ele>2105.8</ele>
    <time>2026-06-24T07:28:26Z</time>
   </trkpt>
   <trkpt lat="-3.1982690" lon="37.3523640">
    <ele>2105.6</ele>
    <time>2026-06-24T07:28:27Z</time>
   </trkpt>
   <trkpt lat="-3.1982770" lon="37.3523570">
    <ele>2105.5</ele>
    <time>2026-06-24T07:28:28Z</time>
   </trkpt>
   <trkpt lat="-3.1982870" lon="37.3523520">
    <ele>2105.4</ele>
    <time>2026-06-24T07:28:29Z</time>
   </trkpt>
   <trkpt lat="-3.1982900" lon="37.3523550">
    <ele>2105.4</ele>
    <time>2026-06-24T07:28:30Z</time>
   </trkpt>
   <trkpt lat="-3.1983000" lon="37.3523610">
    <ele>2105.2</ele>
    <time>2026-06-24T07:28:31Z</time>
   </trkpt>
   <trkpt lat="-3.1983070" lon="37.3523640">
    <ele>2105.2</ele>
    <time>2026-06-24T07:28:32Z</time>
   </trkpt>
   <trkpt lat="-3.1983050" lon="37.3523670">
    <ele>2105.1</ele>
    <time>2026-06-24T07:28:33Z</time>
   </trkpt>
   <trkpt lat="-3.1983080" lon="37.3523690">
    <ele>2105.1</ele>
    <time>2026-06-24T07:28:34Z</time>
   </trkpt>
   <trkpt lat="-3.1983130" lon="37.3523640">
    <ele>2105.0</ele>
    <time>2026-06-24T07:28:35Z</time>
   </trkpt>
   <trkpt lat="-3.1983220" lon="37.3523600">
    <ele>2104.9</ele>
    <time>2026-06-24T07:28:36Z</time>
   </trkpt>
   <trkpt lat="-3.1983330" lon="37.3523580">
    <ele>2104.8</ele>
    <time>2026-06-24T07:28:37Z</time>
   </trkpt>
   <trkpt lat="-3.1983350" lon="37.3523630">
    <ele>2104.8</ele>
    <time>2026-06-24T07:28:38Z</time>
   </trkpt>
   <trkpt lat="-3.1983340" lon="37.3523650">
    <ele>2104.7</ele>
    <time>2026-06-24T07:28:39Z</time>
   </trkpt>
   <trkpt lat="-3.1983480" lon="37.3523620">
    <ele>2104.6</ele>
    <time>2026-06-24T07:28:40Z</time>
   </trkpt>
   <trkpt lat="-3.1983610" lon="37.3523630">
    <ele>2104.5</ele>
    <time>2026-06-24T07:28:41Z</time>
   </trkpt>
   <trkpt lat="-3.1983710" lon="37.3523670">
    <ele>2104.3</ele>
    <time>2026-06-24T07:28:42Z</time>
   </trkpt>
   <trkpt lat="-3.1983760" lon="37.3523690">
    <ele>2104.3</ele>
    <time>2026-06-24T07:28:43Z</time>
   </trkpt>
   <trkpt lat="-3.1983810" lon="37.3523740">
    <ele>2104.2</ele>
    <time>2026-06-24T07:28:44Z</time>
   </trkpt>
   <trkpt lat="-3.1983880" lon="37.3523780">
    <ele>2104.2</ele>
    <time>2026-06-24T07:28:45Z</time>
   </trkpt>
   <trkpt lat="-3.1983960" lon="37.3523790">
    <ele>2104.1</ele>
    <time>2026-06-24T07:28:46Z</time>
   </trkpt>
   <trkpt lat="-3.1984060" lon="37.3523880">
    <ele>2104.0</ele>
    <time>2026-06-24T07:28:47Z</time>
   </trkpt>
   <trkpt lat="-3.1984200" lon="37.3523990">
    <ele>2103.8</ele>
    <time>2026-06-24T07:28:48Z</time>
   </trkpt>
   <trkpt lat="-3.1984300" lon="37.3524060">
    <ele>2103.7</ele>
    <time>2026-06-24T07:28:49Z</time>
   </trkpt>
   <trkpt lat="-3.1984260" lon="37.3523910">
    <ele>2103.6</ele>
    <time>2026-06-24T07:28:50Z</time>
   </trkpt>
   <trkpt lat="-3.1984290" lon="37.3523870">
    <ele>2103.5</ele>
    <time>2026-06-24T07:28:51Z</time>
   </trkpt>
   <trkpt lat="-3.1984410" lon="37.3523950">
    <ele>2103.4</ele>
    <time>2026-06-24T07:28:52Z</time>
   </trkpt>
   <trkpt lat="-3.1984470" lon="37.3523960">
    <ele>2103.4</ele>
    <time>2026-06-24T07:28:53Z</time>
   </trkpt>
   <trkpt lat="-3.1984540" lon="37.3523990">
    <ele>2103.3</ele>
    <time>2026-06-24T07:28:54Z</time>
   </trkpt>
   <trkpt lat="-3.1984600" lon="37.3524020">
    <ele>2103.3</ele>
    <time>2026-06-24T07:28:55Z</time>
   </trkpt>
   <trkpt lat="-3.1984590" lon="37.3524070">
    <ele>2103.2</ele>
    <time>2026-06-24T07:28:56Z</time>
   </trkpt>
   <trkpt lat="-3.1984690" lon="37.3524110">
    <ele>2103.1</ele>
    <time>2026-06-24T07:28:57Z</time>
   </trkpt>
   <trkpt lat="-3.1984770" lon="37.3524110">
    <ele>2103.1</ele>
    <time>2026-06-24T07:28:58Z</time>
   </trkpt>
   <trkpt lat="-3.1984830" lon="37.3524140">
    <ele>2103.0</ele>
    <time>2026-06-24T07:28:59Z</time>
   </trkpt>
   <trkpt lat="-3.1984880" lon="37.3524100">
    <ele>2103.0</ele>
    <time>2026-06-24T07:29:00Z</time>
   </trkpt>
   <trkpt lat="-3.1985010" lon="37.3524140">
    <ele>2102.8</ele>
    <time>2026-06-24T07:29:01Z</time>
   </trkpt>
   <trkpt lat="-3.1985110" lon="37.3524170">
    <ele>2102.8</ele>
    <time>2026-06-24T07:29:02Z</time>
   </trkpt>
   <trkpt lat="-3.1985200" lon="37.3524210">
    <ele>2102.7</ele>
    <time>2026-06-24T07:29:03Z</time>
   </trkpt>
   <trkpt lat="-3.1985380" lon="37.3524270">
    <ele>2102.5</ele>
    <time>2026-06-24T07:29:04Z</time>
   </trkpt>
   <trkpt lat="-3.1985550" lon="37.3524350">
    <ele>2102.4</ele>
    <time>2026-06-24T07:29:05Z</time>
   </trkpt>
   <trkpt lat="-3.1985650" lon="37.3524400">
    <ele>2102.3</ele>
    <time>2026-06-24T07:29:06Z</time>
   </trkpt>
   <trkpt lat="-3.1985820" lon="37.3524380">
    <ele>2102.1</ele>
    <time>2026-06-24T07:29:07Z</time>
   </trkpt>
   <trkpt lat="-3.1985960" lon="37.3524370">
    <ele>2102.0</ele>
    <time>2026-06-24T07:29:08Z</time>
   </trkpt>
   <trkpt lat="-3.1986160" lon="37.3524300">
    <ele>2101.8</ele>
    <time>2026-06-24T07:29:09Z</time>
   </trkpt>
   <trkpt lat="-3.1986240" lon="37.3524310">
    <ele>2101.8</ele>
    <time>2026-06-24T07:29:11Z</time>
   </trkpt>
   <trkpt lat="-3.1986380" lon="37.3524300">
    <ele>2101.6</ele>
    <time>2026-06-24T07:29:12Z</time>
   </trkpt>
   <trkpt lat="-3.1986440" lon="37.3524270">
    <ele>2101.6</ele>
    <time>2026-06-24T07:29:13Z</time>
   </trkpt>
   <trkpt lat="-3.1986610" lon="37.3524250">
    <ele>2101.4</ele>
    <time>2026-06-24T07:29:14Z</time>
   </trkpt>
   <trkpt lat="-3.1986660" lon="37.3524290">
    <ele>2101.4</ele>
    <time>2026-06-24T07:29:15Z</time>
   </trkpt>
   <trkpt lat="-3.1986720" lon="37.3524290">
    <ele>2101.3</ele>
    <time>2026-06-24T07:29:16Z</time>
   </trkpt>
   <trkpt lat="-3.1986800" lon="37.3524280">
    <ele>2101.3</ele>
    <time>2026-06-24T07:29:17Z</time>
   </trkpt>
   <trkpt lat="-3.1986880" lon="37.3524280">
    <ele>2101.2</ele>
    <time>2026-06-24T07:29:18Z</time>
   </trkpt>
   <trkpt lat="-3.1987050" lon="37.3524280">
    <ele>2101.1</ele>
    <time>2026-06-24T07:29:19Z</time>
   </trkpt>
   <trkpt lat="-3.1987220" lon="37.3524300">
    <ele>2100.9</ele>
    <time>2026-06-24T07:29:20Z</time>
   </trkpt>
   <trkpt lat="-3.1987280" lon="37.3524260">
    <ele>2100.9</ele>
    <time>2026-06-24T07:29:21Z</time>
   </trkpt>
   <trkpt lat="-3.1987360" lon="37.3524230">
    <ele>2100.8</ele>
    <time>2026-06-24T07:29:22Z</time>
   </trkpt>
   <trkpt lat="-3.1987390" lon="37.3524210">
    <ele>2100.8</ele>
    <time>2026-06-24T07:29:23Z</time>
   </trkpt>
   <trkpt lat="-3.1987410" lon="37.3524230">
    <ele>2100.8</ele>
    <time>2026-06-24T07:29:24Z</time>
   </trkpt>
   <trkpt lat="-3.1987490" lon="37.3524280">
    <ele>2100.7</ele>
    <time>2026-06-24T07:29:25Z</time>
   </trkpt>
   <trkpt lat="-3.1987580" lon="37.3524310">
    <ele>2100.6</ele>
    <time>2026-06-24T07:29:26Z</time>
   </trkpt>
   <trkpt lat="-3.1987730" lon="37.3524270">
    <ele>2100.5</ele>
    <time>2026-06-24T07:29:27Z</time>
   </trkpt>
   <trkpt lat="-3.1987810" lon="37.3524250">
    <ele>2100.4</ele>
    <time>2026-06-24T07:29:28Z</time>
   </trkpt>
   <trkpt lat="-3.1987910" lon="37.3524220">
    <ele>2100.4</ele>
    <time>2026-06-24T07:29:29Z</time>
   </trkpt>
   <trkpt lat="-3.1988120" lon="37.3524130">
    <ele>2100.2</ele>
    <time>2026-06-24T07:29:30Z</time>
   </trkpt>
   <trkpt lat="-3.1988180" lon="37.3524050">
    <ele>2100.1</ele>
    <time>2026-06-24T07:29:31Z</time>
   </trkpt>
   <trkpt lat="-3.1988250" lon="37.3524010">
    <ele>2100.1</ele>
    <time>2026-06-24T07:29:32Z</time>
   </trkpt>
   <trkpt lat="-3.1988350" lon="37.3524030">
    <ele>2100.0</ele>
    <time>2026-06-24T07:29:33Z</time>
   </trkpt>
   <trkpt lat="-3.1988480" lon="37.3524020">
    <ele>2099.9</ele>
    <time>2026-06-24T07:29:34Z</time>
   </trkpt>
   <trkpt lat="-3.1988560" lon="37.3524040">
    <ele>2099.9</ele>
    <time>2026-06-24T07:29:35Z</time>
   </trkpt>
   <trkpt lat="-3.1988640" lon="37.3523980">
    <ele>2099.8</ele>
    <time>2026-06-24T07:29:36Z</time>
   </trkpt>
   <trkpt lat="-3.1988740" lon="37.3524000">
    <ele>2099.7</ele>
    <time>2026-06-24T07:29:37Z</time>
   </trkpt>
   <trkpt lat="-3.1988820" lon="37.3524010">
    <ele>2099.7</ele>
    <time>2026-06-24T07:29:38Z</time>
   </trkpt>
   <trkpt lat="-3.1988880" lon="37.3523960">
    <ele>2099.6</ele>
    <time>2026-06-24T07:29:39Z</time>
   </trkpt>
   <trkpt lat="-3.1988930" lon="37.3523930">
    <ele>2099.6</ele>
    <time>2026-06-24T07:29:40Z</time>
   </trkpt>
   <trkpt lat="-3.1989020" lon="37.3523920">
    <ele>2099.5</ele>
    <time>2026-06-24T07:29:41Z</time>
   </trkpt>
   <trkpt lat="-3.1989120" lon="37.3523920">
    <ele>2099.5</ele>
    <time>2026-06-24T07:29:42Z</time>
   </trkpt>
   <trkpt lat="-3.1989170" lon="37.3523910">
    <ele>2099.4</ele>
    <time>2026-06-24T07:29:43Z</time>
   </trkpt>
   <trkpt lat="-3.1989310" lon="37.3523890">
    <ele>2099.3</ele>
    <time>2026-06-24T07:29:44Z</time>
   </trkpt>
   <trkpt lat="-3.1989370" lon="37.3523840">
    <ele>2099.3</ele>
    <time>2026-06-24T07:29:45Z</time>
   </trkpt>
   <trkpt lat="-3.1989360" lon="37.3523830">
    <ele>2099.3</ele>
    <time>2026-06-24T07:29:46Z</time>
   </trkpt>
   <trkpt lat="-3.1989380" lon="37.3523810">
    <ele>2099.3</ele>
    <time>2026-06-24T07:29:47Z</time>
   </trkpt>
   <trkpt lat="-3.1989420" lon="37.3523760">
    <ele>2099.2</ele>
    <time>2026-06-24T07:29:48Z</time>
   </trkpt>
   <trkpt lat="-3.1989470" lon="37.3523670">
    <ele>2099.2</ele>
    <time>2026-06-24T07:29:49Z</time>
   </trkpt>
   <trkpt lat="-3.1989760" lon="37.3523600">
    <ele>2099.0</ele>
    <time>2026-06-24T07:29:50Z</time>
   </trkpt>
   <trkpt lat="-3.1989820" lon="37.3523650">
    <ele>2098.9</ele>
    <time>2026-06-24T07:29:51Z</time>
   </trkpt>
   <trkpt lat="-3.1989880" lon="37.3523590">
    <ele>2098.9</ele>
    <time>2026-06-24T07:29:52Z</time>
   </trkpt>
   <trkpt lat="-3.1989980" lon="37.3523610">
    <ele>2098.8</ele>
    <time>2026-06-24T07:29:53Z</time>
   </trkpt>
   <trkpt lat="-3.1990110" lon="37.3523610">
    <ele>2098.7</ele>
    <time>2026-06-24T07:29:54Z</time>
   </trkpt>
   <trkpt lat="-3.1990240" lon="37.3523530">
    <ele>2098.6</ele>
    <time>2026-06-24T07:29:55Z</time>
   </trkpt>
   <trkpt lat="-3.1990310" lon="37.3523550">
    <ele>2098.6</ele>
    <time>2026-06-24T07:29:56Z</time>
   </trkpt>
   <trkpt lat="-3.1990460" lon="37.3523550">
    <ele>2098.5</ele>
    <time>2026-06-24T07:29:57Z</time>
   </trkpt>
   <trkpt lat="-3.1990640" lon="37.3523570">
    <ele>2098.4</ele>
    <time>2026-06-24T07:29:58Z</time>
   </trkpt>
   <trkpt lat="-3.1990770" lon="37.3523600">
    <ele>2098.3</ele>
    <time>2026-06-24T07:29:59Z</time>
   </trkpt>
   <trkpt lat="-3.1990890" lon="37.3523630">
    <ele>2098.2</ele>
    <time>2026-06-24T07:30:00Z</time>
   </trkpt>
   <trkpt lat="-3.1990920" lon="37.3523700">
    <ele>2098.2</ele>
    <time>2026-06-24T07:30:01Z</time>
   </trkpt>
   <trkpt lat="-3.1990990" lon="37.3523790">
    <ele>2098.1</ele>
    <time>2026-06-24T07:30:02Z</time>
   </trkpt>
   <trkpt lat="-3.1991060" lon="37.3523890">
    <ele>2098.0</ele>
    <time>2026-06-24T07:30:03Z</time>
   </trkpt>
   <trkpt lat="-3.1991210" lon="37.3524060">
    <ele>2097.9</ele>
    <time>2026-06-24T07:30:04Z</time>
   </trkpt>
   <trkpt lat="-3.1991190" lon="37.3524120">
    <ele>2097.9</ele>
    <time>2026-06-24T07:30:05Z</time>
   </trkpt>
   <trkpt lat="-3.1991230" lon="37.3524210">
    <ele>2097.8</ele>
    <time>2026-06-24T07:30:06Z</time>
   </trkpt>
   <trkpt lat="-3.1991330" lon="37.3524290">
    <ele>2097.7</ele>
    <time>2026-06-24T07:30:07Z</time>
   </trkpt>
   <trkpt lat="-3.1991370" lon="37.3524330">
    <ele>2097.7</ele>
    <time>2026-06-24T07:30:08Z</time>
   </trkpt>
   <trkpt lat="-3.1991390" lon="37.3524330">
    <ele>2097.7</ele>
    <time>2026-06-24T07:30:09Z</time>
   </trkpt>
   <trkpt lat="-3.1991480" lon="37.3524370">
    <ele>2097.7</ele>
    <time>2026-06-24T07:30:10Z</time>
   </trkpt>
   <trkpt lat="-3.1991610" lon="37.3524420">
    <ele>2097.6</ele>
    <time>2026-06-24T07:30:11Z</time>
   </trkpt>
   <trkpt lat="-3.1991650" lon="37.3524420">
    <ele>2097.6</ele>
    <time>2026-06-24T07:30:12Z</time>
   </trkpt>
   <trkpt lat="-3.1991740" lon="37.3524470">
    <ele>2097.5</ele>
    <time>2026-06-24T07:30:13Z</time>
   </trkpt>
   <trkpt lat="-3.1991860" lon="37.3524500">
    <ele>2097.5</ele>
    <time>2026-06-24T07:30:14Z</time>
   </trkpt>
   <trkpt lat="-3.1991990" lon="37.3524500">
    <ele>2097.4</ele>
    <time>2026-06-24T07:30:15Z</time>
   </trkpt>
   <trkpt lat="-3.1992020" lon="37.3524440">
    <ele>2097.4</ele>
    <time>2026-06-24T07:30:16Z</time>
   </trkpt>
   <trkpt lat="-3.1992070" lon="37.3524440">
    <ele>2097.4</ele>
    <time>2026-06-24T07:30:17Z</time>
   </trkpt>
   <trkpt lat="-3.1992130" lon="37.3524410">
    <ele>2097.3</ele>
    <time>2026-06-24T07:30:18Z</time>
   </trkpt>
   <trkpt lat="-3.1992230" lon="37.3524420">
    <ele>2097.3</ele>
    <time>2026-06-24T07:30:19Z</time>
   </trkpt>
   <trkpt lat="-3.1992270" lon="37.3524450">
    <ele>2097.3</ele>
    <time>2026-06-24T07:30:20Z</time>
   </trkpt>
   <trkpt lat="-3.1992340" lon="37.3524440">
    <ele>2097.2</ele>
    <time>2026-06-24T07:30:21Z</time>
   </trkpt>
   <trkpt lat="-3.1992450" lon="37.3524420">
    <ele>2097.2</ele>
    <time>2026-06-24T07:30:22Z</time>
   </trkpt>
   <trkpt lat="-3.1992550" lon="37.3524390">
    <ele>2097.1</ele>
    <time>2026-06-24T07:30:23Z</time>
   </trkpt>
   <trkpt lat="-3.1992620" lon="37.3524390">
    <ele>2097.1</ele>
    <time>2026-06-24T07:30:24Z</time>
   </trkpt>
   <trkpt lat="-3.1992710" lon="37.3524380">
    <ele>2097.1</ele>
    <time>2026-06-24T07:30:25Z</time>
   </trkpt>
   <trkpt lat="-3.1992790" lon="37.3524300">
    <ele>2097.0</ele>
    <time>2026-06-24T07:30:26Z</time>
   </trkpt>
   <trkpt lat="-3.1992900" lon="37.3524270">
    <ele>2097.0</ele>
    <time>2026-06-24T07:30:27Z</time>
   </trkpt>
   <trkpt lat="-3.1993040" lon="37.3524220">
    <ele>2096.9</ele>
    <time>2026-06-24T07:30:28Z</time>
   </trkpt>
   <trkpt lat="-3.1993140" lon="37.3524190">
    <ele>2096.9</ele>
    <time>2026-06-24T07:30:29Z</time>
   </trkpt>
   <trkpt lat="-3.1993260" lon="37.3524190">
    <ele>2096.8</ele>
    <time>2026-06-24T07:30:30Z</time>
   </trkpt>
   <trkpt lat="-3.1993380" lon="37.3524130">
    <ele>2096.8</ele>
    <time>2026-06-24T07:30:31Z</time>
   </trkpt>
   <trkpt lat="-3.1993470" lon="37.3524030">
    <ele>2096.7</ele>
    <time>2026-06-24T07:30:32Z</time>
   </trkpt>
   <trkpt lat="-3.1993610" lon="37.3523940">
    <ele>2096.7</ele>
    <time>2026-06-24T07:30:33Z</time>
   </trkpt>
   <trkpt lat="-3.1993680" lon="37.3523880">
    <ele>2096.6</ele>
    <time>2026-06-24T07:30:34Z</time>
   </trkpt>
   <trkpt lat="-3.1993830" lon="37.3523730">
    <ele>2096.5</ele>
    <time>2026-06-24T07:30:35Z</time>
   </trkpt>
   <trkpt lat="-3.1993870" lon="37.3523700">
    <ele>2096.5</ele>
    <time>2026-06-24T07:30:36Z</time>
   </trkpt>
   <trkpt lat="-3.1993930" lon="37.3523640">
    <ele>2096.5</ele>
    <time>2026-06-24T07:30:37Z</time>
   </trkpt>
   <trkpt lat="-3.1994020" lon="37.3523570">
    <ele>2096.4</ele>
    <time>2026-06-24T07:30:38Z</time>
   </trkpt>
   <trkpt lat="-3.1994080" lon="37.3523530">
    <ele>2096.4</ele>
    <time>2026-06-24T07:30:39Z</time>
   </trkpt>
   <trkpt lat="-3.1994160" lon="37.3523490">
    <ele>2096.4</ele>
    <time>2026-06-24T07:30:40Z</time>
   </trkpt>
   <trkpt lat="-3.1994220" lon="37.3523410">
    <ele>2096.3</ele>
    <time>2026-06-24T07:30:41Z</time>
   </trkpt>
   <trkpt lat="-3.1994280" lon="37.3523310">
    <ele>2096.3</ele>
    <time>2026-06-24T07:30:42Z</time>
   </trkpt>
   <trkpt lat="-3.1994330" lon="37.3523240">
    <ele>2096.2</ele>
    <time>2026-06-24T07:30:43Z</time>
   </trkpt>
   <trkpt lat="-3.1994400" lon="37.3523180">
    <ele>2096.2</ele>
    <time>2026-06-24T07:30:44Z</time>
   </trkpt>
   <trkpt lat="-3.1994510" lon="37.3523090">
    <ele>2096.1</ele>
    <time>2026-06-24T07:30:45Z</time>
   </trkpt>
   <trkpt lat="-3.1994570" lon="37.3523040">
    <ele>2096.1</ele>
    <time>2026-06-24T07:30:46Z</time>
   </trkpt>
   <trkpt lat="-3.1994640" lon="37.3522990">
    <ele>2096.0</ele>
    <time>2026-06-24T07:30:47Z</time>
   </trkpt>
   <trkpt lat="-3.1994720" lon="37.3522970">
    <ele>2096.0</ele>
    <time>2026-06-24T07:30:48Z</time>
   </trkpt>
   <trkpt lat="-3.1994790" lon="37.3522940">
    <ele>2096.0</ele>
    <time>2026-06-24T07:30:49Z</time>
   </trkpt>
   <trkpt lat="-3.1994840" lon="37.3522970">
    <ele>2096.0</ele>
    <time>2026-06-24T07:30:50Z</time>
   </trkpt>
   <trkpt lat="-3.1994870" lon="37.3522850">
    <ele>2095.9</ele>
    <time>2026-06-24T07:30:51Z</time>
   </trkpt>
   <trkpt lat="-3.1994920" lon="37.3522840">
    <ele>2095.9</ele>
    <time>2026-06-24T07:30:52Z</time>
   </trkpt>
   <trkpt lat="-3.1994970" lon="37.3522940">
    <ele>2095.8</ele>
    <time>2026-06-24T07:30:53Z</time>
   </trkpt>
   <trkpt lat="-3.1994990" lon="37.3522920">
    <ele>2095.8</ele>
    <time>2026-06-24T07:30:54Z</time>
   </trkpt>
   <trkpt lat="-3.1995080" lon="37.3522890">
    <ele>2095.8</ele>
    <time>2026-06-24T07:30:55Z</time>
   </trkpt>
   <trkpt lat="-3.1995190" lon="37.3522800">
    <ele>2095.7</ele>
    <time>2026-06-24T07:30:56Z</time>
   </trkpt>
   <trkpt lat="-3.1995310" lon="37.3522810">
    <ele>2095.6</ele>
    <time>2026-06-24T07:30:57Z</time>
   </trkpt>
   <trkpt lat="-3.1995410" lon="37.3522790">
    <ele>2095.6</ele>
    <time>2026-06-24T07:30:58Z</time>
   </trkpt>
   <trkpt lat="-3.1995460" lon="37.3522750">
    <ele>2095.6</ele>
    <time>2026-06-24T07:30:59Z</time>
   </trkpt>
   <trkpt lat="-3.1995530" lon="37.3522780">
    <ele>2095.5</ele>
    <time>2026-06-24T07:31:00Z</time>
   </trkpt>
   <trkpt lat="-3.1995590" lon="37.3522770">
    <ele>2095.5</ele>
    <time>2026-06-24T07:31:01Z</time>
   </trkpt>
   <trkpt lat="-3.1995660" lon="37.3522760">
    <ele>2095.5</ele>
    <time>2026-06-24T07:31:02Z</time>
   </trkpt>
   <trkpt lat="-3.1995720" lon="37.3522790">
    <ele>2095.4</ele>
    <time>2026-06-24T07:31:03Z</time>
   </trkpt>
   <trkpt lat="-3.1995770" lon="37.3522770">
    <ele>2095.4</ele>
    <time>2026-06-24T07:31:04Z</time>
   </trkpt>
   <trkpt lat="-3.1995900" lon="37.3522730">
    <ele>2095.3</ele>
    <time>2026-06-24T07:31:05Z</time>
   </trkpt>
   <trkpt lat="-3.1995970" lon="37.3522700">
    <ele>2095.3</ele>
    <time>2026-06-24T07:31:06Z</time>
   </trkpt>
   <trkpt lat="-3.1996020" lon="37.3522670">
    <ele>2095.3</ele>
    <time>2026-06-24T07:31:07Z</time>
   </trkpt>
   <trkpt lat="-3.1996040" lon="37.3522670">
    <ele>2095.3</ele>
    <time>2026-06-24T07:31:08Z</time>
   </trkpt>
   <trkpt lat="-3.1996120" lon="37.3522660">
    <ele>2095.2</ele>
    <time>2026-06-24T07:31:09Z</time>
   </trkpt>
   <trkpt lat="-3.1996200" lon="37.3522610">
    <ele>2095.2</ele>
    <time>2026-06-24T07:31:10Z</time>
   </trkpt>
   <trkpt lat="-3.1996260" lon="37.3522560">
    <ele>2095.1</ele>
    <time>2026-06-24T07:31:11Z</time>
   </trkpt>
   <trkpt lat="-3.1996320" lon="37.3522540">
    <ele>2095.1</ele>
    <time>2026-06-24T07:31:12Z</time>
   </trkpt>
   <trkpt lat="-3.1996450" lon="37.3522400">
    <ele>2095.0</ele>
    <time>2026-06-24T07:31:13Z</time>
   </trkpt>
   <trkpt lat="-3.1996430" lon="37.3522310">
    <ele>2094.9</ele>
    <time>2026-06-24T07:31:14Z</time>
   </trkpt>
   <trkpt lat="-3.1996450" lon="37.3522340">
    <ele>2094.9</ele>
    <time>2026-06-24T07:31:15Z</time>
   </trkpt>
   <trkpt lat="-3.1996510" lon="37.3522230">
    <ele>2094.8</ele>
    <time>2026-06-24T07:31:17Z</time>
   </trkpt>
   <trkpt lat="-3.1996570" lon="37.3522070">
    <ele>2094.7</ele>
    <time>2026-06-24T07:31:18Z</time>
   </trkpt>
   <trkpt lat="-3.1996600" lon="37.3522010">
    <ele>2094.7</ele>
    <time>2026-06-24T07:31:19Z</time>
   </trkpt>
   <trkpt lat="-3.1996600" lon="37.3521990">
    <ele>2094.7</ele>
    <time>2026-06-24T07:31:20Z</time>
   </trkpt>
   <trkpt lat="-3.1996690" lon="37.3521910">
    <ele>2094.6</ele>
    <time>2026-06-24T07:31:21Z</time>
   </trkpt>
   <trkpt lat="-3.1996760" lon="37.3521770">
    <ele>2094.5</ele>
    <time>2026-06-24T07:31:22Z</time>
   </trkpt>
   <trkpt lat="-3.1996740" lon="37.3521720">
    <ele>2094.5</ele>
    <time>2026-06-24T07:31:23Z</time>
   </trkpt>
   <trkpt lat="-3.1996790" lon="37.3521690">
    <ele>2094.4</ele>
    <time>2026-06-24T07:31:24Z</time>
   </trkpt>
   <trkpt lat="-3.1996890" lon="37.3521630">
    <ele>2094.4</ele>
    <time>2026-06-24T07:31:25Z</time>
   </trkpt>
   <trkpt lat="-3.1996950" lon="37.3521570">
    <ele>2094.3</ele>
    <time>2026-06-24T07:31:26Z</time>
   </trkpt>
   <trkpt lat="-3.1996950" lon="37.3521540">
    <ele>2094.3</ele>
    <time>2026-06-24T07:31:27Z</time>
   </trkpt>
   <trkpt lat="-3.1996950" lon="37.3521480">
    <ele>2094.2</ele>
    <time>2026-06-24T07:31:28Z</time>
   </trkpt>
   <trkpt lat="-3.1996940" lon="37.3521370">
    <ele>2094.2</ele>
    <time>2026-06-24T07:31:29Z</time>
   </trkpt>
   <trkpt lat="-3.1996930" lon="37.3521260">
    <ele>2094.1</ele>
    <time>2026-06-24T07:31:30Z</time>
   </trkpt>
   <trkpt lat="-3.1996940" lon="37.3521180">
    <ele>2094.0</ele>
    <time>2026-06-24T07:31:31Z</time>
   </trkpt>
   <trkpt lat="-3.1996990" lon="37.3521160">
    <ele>2094.0</ele>
    <time>2026-06-24T07:31:32Z</time>
   </trkpt>
   <trkpt lat="-3.1997030" lon="37.3521100">
    <ele>2093.9</ele>
    <time>2026-06-24T07:31:33Z</time>
   </trkpt>
   <trkpt lat="-3.1997100" lon="37.3521150">
    <ele>2093.9</ele>
    <time>2026-06-24T07:31:34Z</time>
   </trkpt>
   <trkpt lat="-3.1997140" lon="37.3521100">
    <ele>2093.8</ele>
    <time>2026-06-24T07:31:35Z</time>
   </trkpt>
   <trkpt lat="-3.1997150" lon="37.3521080">
    <ele>2093.8</ele>
    <time>2026-06-24T07:31:36Z</time>
   </trkpt>
   <trkpt lat="-3.1997170" lon="37.3521040">
    <ele>2093.8</ele>
    <time>2026-06-24T07:31:37Z</time>
   </trkpt>
   <trkpt lat="-3.1997190" lon="37.3521000">
    <ele>2093.7</ele>
    <time>2026-06-24T07:31:38Z</time>
   </trkpt>
   <trkpt lat="-3.1997270" lon="37.3520940">
    <ele>2093.7</ele>
    <time>2026-06-24T07:31:39Z</time>
   </trkpt>
   <trkpt lat="-3.1997270" lon="37.3520870">
    <ele>2093.6</ele>
    <time>2026-06-24T07:31:40Z</time>
   </trkpt>
   <trkpt lat="-3.1997320" lon="37.3520730">
    <ele>2093.5</ele>
    <time>2026-06-24T07:31:41Z</time>
   </trkpt>
   <trkpt lat="-3.1997400" lon="37.3520610">
    <ele>2093.3</ele>
    <time>2026-06-24T07:31:42Z</time>
   </trkpt>
   <trkpt lat="-3.1997400" lon="37.3520620">
    <ele>2093.3</ele>
    <time>2026-06-24T07:31:43Z</time>
   </trkpt>
   <trkpt lat="-3.1997420" lon="37.3520610">
    <ele>2093.3</ele>
    <time>2026-06-24T07:31:44Z</time>
   </trkpt>
   <trkpt lat="-3.1997500" lon="37.3520570">
    <ele>2093.2</ele>
    <time>2026-06-24T07:31:45Z</time>
   </trkpt>
   <trkpt lat="-3.1997530" lon="37.3520500">
    <ele>2093.2</ele>
    <time>2026-06-24T07:31:46Z</time>
   </trkpt>
   <trkpt lat="-3.1997520" lon="37.3520470">
    <ele>2093.1</ele>
    <time>2026-06-24T07:31:47Z</time>
   </trkpt>
   <trkpt lat="-3.1997580" lon="37.3520350">
    <ele>2093.0</ele>
    <time>2026-06-24T07:31:48Z</time>
   </trkpt>
   <trkpt lat="-3.1997550" lon="37.3520230">
    <ele>2092.9</ele>
    <time>2026-06-24T07:31:49Z</time>
   </trkpt>
   <trkpt lat="-3.1997530" lon="37.3520170">
    <ele>2092.8</ele>
    <time>2026-06-24T07:31:50Z</time>
   </trkpt>
   <trkpt lat="-3.1997590" lon="37.3520160">
    <ele>2092.8</ele>
    <time>2026-06-24T07:31:51Z</time>
   </trkpt>
   <trkpt lat="-3.1997600" lon="37.3520070">
    <ele>2092.7</ele>
    <time>2026-06-24T07:31:52Z</time>
   </trkpt>
   <trkpt lat="-3.1997590" lon="37.3520070">
    <ele>2092.7</ele>
    <time>2026-06-24T07:31:53Z</time>
   </trkpt>
   <trkpt lat="-3.1997610" lon="37.3520000">
    <ele>2092.6</ele>
    <time>2026-06-24T07:31:54Z</time>
   </trkpt>
   <trkpt lat="-3.1997630" lon="37.3519880">
    <ele>2092.5</ele>
    <time>2026-06-24T07:31:55Z</time>
   </trkpt>
   <trkpt lat="-3.1997580" lon="37.3519850">
    <ele>2092.4</ele>
    <time>2026-06-24T07:31:56Z</time>
   </trkpt>
   <trkpt lat="-3.1997550" lon="37.3519850">
    <ele>2092.4</ele>
    <time>2026-06-24T07:31:57Z</time>
   </trkpt>
   <trkpt lat="-3.1997540" lon="37.3519830">
    <ele>2092.3</ele>
    <time>2026-06-24T07:31:58Z</time>
   </trkpt>
   <trkpt lat="-3.1997540" lon="37.3519770">
    <ele>2092.3</ele>
    <time>2026-06-24T07:31:59Z</time>
   </trkpt>
   <trkpt lat="-3.1997550" lon="37.3519730">
    <ele>2092.2</ele>
    <time>2026-06-24T07:32:00Z</time>
   </trkpt>
   <trkpt lat="-3.1997580" lon="37.3519760">
    <ele>2092.2</ele>
    <time>2026-06-24T07:32:01Z</time>
   </trkpt>
   <trkpt lat="-3.1997600" lon="37.3519750">
    <ele>2092.2</ele>
    <time>2026-06-24T07:32:02Z</time>
   </trkpt>
   <trkpt lat="-3.1997620" lon="37.3519780">
    <ele>2092.1</ele>
    <time>2026-06-24T07:32:03Z</time>
   </trkpt>
   <trkpt lat="-3.1997680" lon="37.3519750">
    <ele>2092.0</ele>
    <time>2026-06-24T07:32:04Z</time>
   </trkpt>
   <trkpt lat="-3.1997740" lon="37.3519710">
    <ele>2092.0</ele>
    <time>2026-06-24T07:32:05Z</time>
   </trkpt>
   <trkpt lat="-3.1997750" lon="37.3519680">
    <ele>2091.9</ele>
    <time>2026-06-24T07:32:06Z</time>
   </trkpt>
   <trkpt lat="-3.1997750" lon="37.3519610">
    <ele>2091.8</ele>
    <time>2026-06-24T07:32:07Z</time>
   </trkpt>
   <trkpt lat="-3.1997730" lon="37.3519550">
    <ele>2091.7</ele>
    <time>2026-06-24T07:32:08Z</time>
   </trkpt>
   <trkpt lat="-3.1997720" lon="37.3519490">
    <ele>2091.7</ele>
    <time>2026-06-24T07:32:09Z</time>
   </trkpt>
   <trkpt lat="-3.1997760" lon="37.3519420">
    <ele>2091.6</ele>
    <time>2026-06-24T07:32:10Z</time>
   </trkpt>
   <trkpt lat="-3.1997730" lon="37.3519390">
    <ele>2091.5</ele>
    <time>2026-06-24T07:32:11Z</time>
   </trkpt>
   <trkpt lat="-3.1997740" lon="37.3519360">
    <ele>2091.5</ele>
    <time>2026-06-24T07:32:12Z</time>
   </trkpt>
   <trkpt lat="-3.1997740" lon="37.3519320">
    <ele>2091.4</ele>
    <time>2026-06-24T07:32:13Z</time>
   </trkpt>
   <trkpt lat="-3.1997730" lon="37.3519330">
    <ele>2091.4</ele>
    <time>2026-06-24T07:32:14Z</time>
   </trkpt>
   <trkpt lat="-3.1997730" lon="37.3519330">
    <ele>2091.4</ele>
    <time>2026-06-24T07:32:15Z</time>
   </trkpt>
   <trkpt lat="-3.1997720" lon="37.3519400">
    <ele>2091.3</ele>
    <time>2026-06-24T07:32:16Z</time>
   </trkpt>
   <trkpt lat="-3.1997730" lon="37.3519430">
    <ele>2091.3</ele>
    <time>2026-06-24T07:32:17Z</time>
   </trkpt>
   <trkpt lat="-3.1997770" lon="37.3519340">
    <ele>2091.1</ele>
    <time>2026-06-24T07:32:18Z</time>
   </trkpt>
   <trkpt lat="-3.1997820" lon="37.3519370">
    <ele>2091.1</ele>
    <time>2026-06-24T07:32:19Z</time>
   </trkpt>
   <trkpt lat="-3.1997810" lon="37.3519430">
    <ele>2091.0</ele>
    <time>2026-06-24T07:32:20Z</time>
   </trkpt>
   <trkpt lat="-3.1997790" lon="37.3519450">
    <ele>2090.9</ele>
    <time>2026-06-24T07:32:21Z</time>
   </trkpt>
   <trkpt lat="-3.1997750" lon="37.3519450">
    <ele>2090.9</ele>
    <time>2026-06-24T07:32:22Z</time>
   </trkpt>
   <trkpt lat="-3.1997750" lon="37.3519350">
    <ele>2090.7</ele>
    <time>2026-06-24T07:32:23Z</time>
   </trkpt>
   <trkpt lat="-3.1997690" lon="37.3519340">
    <ele>2090.6</ele>
    <time>2026-06-24T07:32:24Z</time>
   </trkpt>
   <trkpt lat="-3.1997630" lon="37.3519290">
    <ele>2090.5</ele>
    <time>2026-06-24T07:32:25Z</time>
   </trkpt>
   <trkpt lat="-3.1997650" lon="37.3519260">
    <ele>2090.5</ele>
    <time>2026-06-24T07:32:26Z</time>
   </trkpt>
   <trkpt lat="-3.1997690" lon="37.3519240">
    <ele>2090.4</ele>
    <time>2026-06-24T07:32:27Z</time>
   </trkpt>
   <trkpt lat="-3.1997700" lon="37.3519230">
    <ele>2090.4</ele>
    <time>2026-06-24T07:32:28Z</time>
   </trkpt>
   <trkpt lat="-3.1997710" lon="37.3519210">
    <ele>2090.3</ele>
    <time>2026-06-24T07:32:29Z</time>
   </trkpt>
   <trkpt lat="-3.1997770" lon="37.3519140">
    <ele>2090.2</ele>
    <time>2026-06-24T07:32:30Z</time>
   </trkpt>
   <trkpt lat="-3.1997770" lon="37.3519110">
    <ele>2090.1</ele>
    <time>2026-06-24T07:32:31Z</time>
   </trkpt>
   <trkpt lat="-3.1997790" lon="37.3519080">
    <ele>2090.1</ele>
    <time>2026-06-24T07:32:32Z</time>
   </trkpt>
   <trkpt lat="-3.1997810" lon="37.3519120">
    <ele>2090.0</ele>
    <time>2026-06-24T07:32:33Z</time>
   </trkpt>
   <trkpt lat="-3.1997810" lon="37.3519160">
    <ele>2089.9</ele>
    <time>2026-06-24T07:32:34Z</time>
   </trkpt>
   <trkpt lat="-3.1997860" lon="37.3519150">
    <ele>2089.8</ele>
    <time>2026-06-24T07:32:35Z</time>
   </trkpt>
   <trkpt lat="-3.1997900" lon="37.3519120">
    <ele>2089.8</ele>
    <time>2026-06-24T07:32:36Z</time>
   </trkpt>
   <trkpt lat="-3.1997980" lon="37.3519130">
    <ele>2089.6</ele>
    <time>2026-06-24T07:32:37Z</time>
   </trkpt>
   <trkpt lat="-3.1998010" lon="37.3519260">
    <ele>2089.4</ele>
    <time>2026-06-24T07:32:38Z</time>
   </trkpt>
   <trkpt lat="-3.1998070" lon="37.3519280">
    <ele>2089.3</ele>
    <time>2026-06-24T07:32:39Z</time>
   </trkpt>
   <trkpt lat="-3.1998100" lon="37.3519300">
    <ele>2089.2</ele>
    <time>2026-06-24T07:32:40Z</time>
   </trkpt>
   <trkpt lat="-3.1998090" lon="37.3519290">
    <ele>2089.2</ele>
    <time>2026-06-24T07:32:41Z</time>
   </trkpt>
   <trkpt lat="-3.1998190" lon="37.3519280">
    <ele>2089.0</ele>
    <time>2026-06-24T07:32:42Z</time>
   </trkpt>
   <trkpt lat="-3.1998200" lon="37.3519270">
    <ele>2089.0</ele>
    <time>2026-06-24T07:32:43Z</time>
   </trkpt>
   <trkpt lat="-3.1998230" lon="37.3519260">
    <ele>2088.9</ele>
    <time>2026-06-24T07:32:44Z</time>
   </trkpt>
   <trkpt lat="-3.1998280" lon="37.3519250">
    <ele>2088.8</ele>
    <time>2026-06-24T07:32:45Z</time>
   </trkpt>
   <trkpt lat="-3.1998300" lon="37.3519280">
    <ele>2088.7</ele>
    <time>2026-06-24T07:32:46Z</time>
   </trkpt>
   <trkpt lat="-3.1998300" lon="37.3519320">
    <ele>2088.7</ele>
    <time>2026-06-24T07:32:47Z</time>
   </trkpt>
   <trkpt lat="-3.1998360" lon="37.3519320">
    <ele>2088.5</ele>
    <time>2026-06-24T07:32:48Z</time>
   </trkpt>
   <trkpt lat="-3.1998440" lon="37.3519240">
    <ele>2088.3</ele>
    <time>2026-06-24T07:32:49Z</time>
   </trkpt>
   <trkpt lat="-3.1998470" lon="37.3519260">
    <ele>2088.3</ele>
    <time>2026-06-24T07:32:50Z</time>
   </trkpt>
   <trkpt lat="-3.1998630" lon="37.3519190">
    <ele>2087.9</ele>
    <time>2026-06-24T07:32:51Z</time>
   </trkpt>
   <trkpt lat="-3.1998650" lon="37.3519150">
    <ele>2087.8</ele>
    <time>2026-06-24T07:32:52Z</time>
   </trkpt>
   <trkpt lat="-3.1998740" lon="37.3519060">
    <ele>2087.5</ele>
    <time>2026-06-24T07:32:53Z</time>
   </trkpt>
   <trkpt lat="-3.1998640" lon="37.3519040">
    <ele>2087.3</ele>
    <time>2026-06-24T07:32:54Z</time>
   </trkpt>
   <trkpt lat="-3.1998590" lon="37.3519030">
    <ele>2087.1</ele>
    <time>2026-06-24T07:32:55Z</time>
   </trkpt>
   <trkpt lat="-3.1998530" lon="37.3519010">
    <ele>2087.0</ele>
    <time>2026-06-24T07:32:56Z</time>
   </trkpt>
   <trkpt lat="-3.1998510" lon="37.3519010">
    <ele>2086.9</ele>
    <time>2026-06-24T07:32:57Z</time>
   </trkpt>
   <trkpt lat="-3.1998460" lon="37.3519000">
    <ele>2086.8</ele>
    <time>2026-06-24T07:32:58Z</time>
   </trkpt>
   <trkpt lat="-3.1998460" lon="37.3518890">
    <ele>2086.5</ele>
    <time>2026-06-24T07:32:59Z</time>
   </trkpt>
   <trkpt lat="-3.1998410" lon="37.3518880">
    <ele>2086.4</ele>
    <time>2026-06-24T07:33:00Z</time>
   </trkpt>
   <trkpt lat="-3.1998460" lon="37.3518800">
    <ele>2086.2</ele>
    <time>2026-06-24T07:33:01Z</time>
   </trkpt>
   <trkpt lat="-3.1998460" lon="37.3518760">
    <ele>2086.1</ele>
    <time>2026-06-24T07:33:02Z</time>
   </trkpt>
   <trkpt lat="-3.1998470" lon="37.3518770">
    <ele>2086.0</ele>
    <time>2026-06-24T07:33:03Z</time>
   </trkpt>
   <trkpt lat="-3.1998520" lon="37.3518700">
    <ele>2085.8</ele>
    <time>2026-06-24T07:33:04Z</time>
   </trkpt>
   <trkpt lat="-3.1998590" lon="37.3518720">
    <ele>2085.6</ele>
    <time>2026-06-24T07:33:05Z</time>
   </trkpt>
   <trkpt lat="-3.1998670" lon="37.3518640">
    <ele>2085.4</ele>
    <time>2026-06-24T07:33:06Z</time>
   </trkpt>
   <trkpt lat="-3.1998670" lon="37.3518620">
    <ele>2085.3</ele>
    <time>2026-06-24T07:33:07Z</time>
   </trkpt>
   <trkpt lat="-3.1998660" lon="37.3518580">
    <ele>2085.2</ele>
    <time>2026-06-24T07:33:08Z</time>
   </trkpt>
   <trkpt lat="-3.1998660" lon="37.3518490">
    <ele>2084.9</ele>
    <time>2026-06-24T07:33:09Z</time>
   </trkpt>
   <trkpt lat="-3.1998650" lon="37.3518500">
    <ele>2084.9</ele>
    <time>2026-06-24T07:33:10Z</time>
   </trkpt>
   <trkpt lat="-3.1998650" lon="37.3518450">
    <ele>2084.8</ele>
    <time>2026-06-24T07:33:11Z</time>
   </trkpt>
   <trkpt lat="-3.1998650" lon="37.3518370">
    <ele>2084.5</ele>
    <time>2026-06-24T07:33:12Z</time>
   </trkpt>
   <trkpt lat="-3.1998660" lon="37.3518240">
    <ele>2084.2</ele>
    <time>2026-06-24T07:33:13Z</time>
   </trkpt>
   <trkpt lat="-3.1998680" lon="37.3518270">
    <ele>2084.1</ele>
    <time>2026-06-24T07:33:14Z</time>
   </trkpt>
   <trkpt lat="-3.1998750" lon="37.3518250">
    <ele>2083.9</ele>
    <time>2026-06-24T07:33:15Z</time>
   </trkpt>
   <trkpt lat="-3.1998770" lon="37.3518260">
    <ele>2083.8</ele>
    <time>2026-06-24T07:33:16Z</time>
   </trkpt>
   <trkpt lat="-3.1998800" lon="37.3518200">
    <ele>2083.6</ele>
    <time>2026-06-24T07:33:17Z</time>
   </trkpt>
   <trkpt lat="-3.1998840" lon="37.3518190">
    <ele>2083.5</ele>
    <time>2026-06-24T07:33:18Z</time>
   </trkpt>
   <trkpt lat="-3.1998930" lon="37.3518120">
    <ele>2083.2</ele>
    <time>2026-06-24T07:33:19Z</time>
   </trkpt>
   <trkpt lat="-3.1998900" lon="37.3518180">
    <ele>2083.0</ele>
    <time>2026-06-24T07:33:20Z</time>
   </trkpt>
   <trkpt lat="-3.1998950" lon="37.3518150">
    <ele>2082.8</ele>
    <time>2026-06-24T07:33:21Z</time>
   </trkpt>
   <trkpt lat="-3.1998930" lon="37.3518150">
    <ele>2082.8</ele>
    <time>2026-06-24T07:33:23Z</time>
   </trkpt>
   <trkpt lat="-3.1998850" lon="37.3518120">
    <ele>2082.5</ele>
    <time>2026-06-24T07:33:24Z</time>
   </trkpt>
   <trkpt lat="-3.1998920" lon="37.3518080">
    <ele>2082.3</ele>
    <time>2026-06-24T07:33:25Z</time>
   </trkpt>
   <trkpt lat="-3.1998940" lon="37.3518070">
    <ele>2082.2</ele>
    <time>2026-06-24T07:33:26Z</time>
   </trkpt>
   <trkpt lat="-3.1998910" lon="37.3518030">
    <ele>2082.1</ele>
    <time>2026-06-24T07:33:27Z</time>
   </trkpt>
   <trkpt lat="-3.1999010" lon="37.3517960">
    <ele>2081.8</ele>
    <time>2026-06-24T07:33:28Z</time>
   </trkpt>
   <trkpt lat="-3.1999030" lon="37.3517940">
    <ele>2081.7</ele>
    <time>2026-06-24T07:33:29Z</time>
   </trkpt>
   <trkpt lat="-3.1999130" lon="37.3517890">
    <ele>2081.4</ele>
    <time>2026-06-24T07:33:30Z</time>
   </trkpt>
   <trkpt lat="-3.1999190" lon="37.3517840">
    <ele>2081.2</ele>
    <time>2026-06-24T07:33:31Z</time>
   </trkpt>
   <trkpt lat="-3.1999230" lon="37.3517760">
    <ele>2080.9</ele>
    <time>2026-06-24T07:33:32Z</time>
   </trkpt>
   <trkpt lat="-3.1999210" lon="37.3517750">
    <ele>2080.8</ele>
    <time>2026-06-24T07:33:33Z</time>
   </trkpt>
   <trkpt lat="-3.1999200" lon="37.3517700">
    <ele>2080.7</ele>
    <time>2026-06-24T07:33:34Z</time>
   </trkpt>
   <trkpt lat="-3.1999200" lon="37.3517710">
    <ele>2080.7</ele>
    <time>2026-06-24T07:33:35Z</time>
   </trkpt>
   <trkpt lat="-3.1999210" lon="37.3517670">
    <ele>2080.5</ele>
    <time>2026-06-24T07:33:36Z</time>
   </trkpt>
   <trkpt lat="-3.1999250" lon="37.3517640">
    <ele>2080.4</ele>
    <time>2026-06-24T07:33:37Z</time>
   </trkpt>
   <trkpt lat="-3.1999270" lon="37.3517620">
    <ele>2080.3</ele>
    <time>2026-06-24T07:33:38Z</time>
   </trkpt>
   <trkpt lat="-3.1999330" lon="37.3517650">
    <ele>2080.1</ele>
    <time>2026-06-24T07:33:39Z</time>
   </trkpt>
   <trkpt lat="-3.1999370" lon="37.3517640">
    <ele>2080.0</ele>
    <time>2026-06-24T07:33:40Z</time>
   </trkpt>
   <trkpt lat="-3.1999380" lon="37.3517650">
    <ele>2080.0</ele>
    <time>2026-06-24T07:33:41Z</time>
   </trkpt>
   <trkpt lat="-3.1999390" lon="37.3517650">
    <ele>2080.0</ele>
    <time>2026-06-24T07:33:42Z</time>
   </trkpt>
   <trkpt lat="-3.1999410" lon="37.3517620">
    <ele>2079.9</ele>
    <time>2026-06-24T07:33:43Z</time>
   </trkpt>
   <trkpt lat="-3.1999470" lon="37.3517600">
    <ele>2079.7</ele>
    <time>2026-06-24T07:33:44Z</time>
   </trkpt>
   <trkpt lat="-3.1999480" lon="37.3517560">
    <ele>2079.6</ele>
    <time>2026-06-24T07:33:45Z</time>
   </trkpt>
   <trkpt lat="-3.1999530" lon="37.3517480">
    <ele>2079.3</ele>
    <time>2026-06-24T07:33:46Z</time>
   </trkpt>
   <trkpt lat="-3.1999570" lon="37.3517500">
    <ele>2079.2</ele>
    <time>2026-06-24T07:33:47Z</time>
   </trkpt>
   <trkpt lat="-3.1999610" lon="37.3517490">
    <ele>2079.1</ele>
    <time>2026-06-24T07:33:48Z</time>
   </trkpt>
   <trkpt lat="-3.1999640" lon="37.3517480">
    <ele>2079.0</ele>
    <time>2026-06-24T07:33:49Z</time>
   </trkpt>
   <trkpt lat="-3.1999710" lon="37.3517480">
    <ele>2078.8</ele>
    <time>2026-06-24T07:33:50Z</time>
   </trkpt>
   <trkpt lat="-3.1999760" lon="37.3517460">
    <ele>2078.6</ele>
    <time>2026-06-24T07:33:51Z</time>
   </trkpt>
   <trkpt lat="-3.1999830" lon="37.3517370">
    <ele>2078.3</ele>
    <time>2026-06-24T07:33:52Z</time>
   </trkpt>
   <trkpt lat="-3.1999830" lon="37.3517260">
    <ele>2078.0</ele>
    <time>2026-06-24T07:33:53Z</time>
   </trkpt>
   <trkpt lat="-3.1999870" lon="37.3517320">
    <ele>2077.8</ele>
    <time>2026-06-24T07:33:54Z</time>
   </trkpt>
   <trkpt lat="-3.1999970" lon="37.3517330">
    <ele>2077.5</ele>
    <time>2026-06-24T07:33:55Z</time>
   </trkpt>
   <trkpt lat="-3.2000030" lon="37.3517300">
    <ele>2077.3</ele>
    <time>2026-06-24T07:33:56Z</time>
   </trkpt>
   <trkpt lat="-3.2000030" lon="37.3517250">
    <ele>2077.2</ele>
    <time>2026-06-24T07:33:57Z</time>
   </trkpt>
   <trkpt lat="-3.2000130" lon="37.3517240">
    <ele>2076.9</ele>
    <time>2026-06-24T07:33:58Z</time>
   </trkpt>
   <trkpt lat="-3.2000200" lon="37.3517250">
    <ele>2076.7</ele>
    <time>2026-06-24T07:33:59Z</time>
   </trkpt>
   <trkpt lat="-3.2000240" lon="37.3517240">
    <ele>2076.6</ele>
    <time>2026-06-24T07:34:00Z</time>
   </trkpt>
   <trkpt lat="-3.2000280" lon="37.3517230">
    <ele>2076.5</ele>
    <time>2026-06-24T07:34:01Z</time>
   </trkpt>
   <trkpt lat="-3.2000360" lon="37.3517280">
    <ele>2076.2</ele>
    <time>2026-06-24T07:34:02Z</time>
   </trkpt>
   <trkpt lat="-3.2000450" lon="37.3517290">
    <ele>2076.0</ele>
    <time>2026-06-24T07:34:03Z</time>
   </trkpt>
   <trkpt lat="-3.2000520" lon="37.3517320">
    <ele>2075.8</ele>
    <time>2026-06-24T07:34:04Z</time>
   </trkpt>
   <trkpt lat="-3.2000490" lon="37.3517310">
    <ele>2075.7</ele>
    <time>2026-06-24T07:34:05Z</time>
   </trkpt>
   <trkpt lat="-3.2000500" lon="37.3517300">
    <ele>2075.7</ele>
    <time>2026-06-24T07:34:06Z</time>
   </trkpt>
   <trkpt lat="-3.2000590" lon="37.3517200">
    <ele>2075.3</ele>
    <time>2026-06-24T07:34:07Z</time>
   </trkpt>
   <trkpt lat="-3.2000780" lon="37.3517100">
    <ele>2074.7</ele>
    <time>2026-06-24T07:34:08Z</time>
   </trkpt>
   <trkpt lat="-3.2000900" lon="37.3517070">
    <ele>2074.4</ele>
    <time>2026-06-24T07:34:09Z</time>
   </trkpt>
   <trkpt lat="-3.2000990" lon="37.3517080">
    <ele>2074.1</ele>
    <time>2026-06-24T07:34:10Z</time>
   </trkpt>
   <trkpt lat="-3.2001000" lon="37.3517090">
    <ele>2074.1</ele>
    <time>2026-06-24T07:34:11Z</time>
   </trkpt>
   <trkpt lat="-3.2001010" lon="37.3517090">
    <ele>2074.1</ele>
    <time>2026-06-24T07:34:12Z</time>
   </trkpt>
   <trkpt lat="-3.2001070" lon="37.3517070">
    <ele>2073.9</ele>
    <time>2026-06-24T07:34:13Z</time>
   </trkpt>
   <trkpt lat="-3.2001120" lon="37.3517120">
    <ele>2073.7</ele>
    <time>2026-06-24T07:34:14Z</time>
   </trkpt>
   <trkpt lat="-3.2001130" lon="37.3517160">
    <ele>2073.6</ele>
    <time>2026-06-24T07:34:15Z</time>
   </trkpt>
   <trkpt lat="-3.2001210" lon="37.3517160">
    <ele>2073.4</ele>
    <time>2026-06-24T07:34:16Z</time>
   </trkpt>
   <trkpt lat="-3.2001120" lon="37.3517240">
    <ele>2073.1</ele>
    <time>2026-06-24T07:34:17Z</time>
   </trkpt>
   <trkpt lat="-3.2001120" lon="37.3517290">
    <ele>2073.0</ele>
    <time>2026-06-24T07:34:18Z</time>
   </trkpt>
   <trkpt lat="-3.2001240" lon="37.3517290">
    <ele>2072.7</ele>
    <time>2026-06-24T07:34:19Z</time>
   </trkpt>
   <trkpt lat="-3.2001300" lon="37.3517320">
    <ele>2072.5</ele>
    <time>2026-06-24T07:34:20Z</time>
   </trkpt>
   <trkpt lat="-3.2001360" lon="37.3517290">
    <ele>2072.3</ele>
    <time>2026-06-24T07:34:21Z</time>
   </trkpt>
   <trkpt lat="-3.2001330" lon="37.3517230">
    <ele>2072.2</ele>
    <time>2026-06-24T07:34:22Z</time>
   </trkpt>
   <trkpt lat="-3.2001330" lon="37.3517220">
    <ele>2072.2</ele>
    <time>2026-06-24T07:34:23Z</time>
   </trkpt>
   <trkpt lat="-3.2001400" lon="37.3517170">
    <ele>2072.0</ele>
    <time>2026-06-24T07:34:24Z</time>
   </trkpt>
   <trkpt lat="-3.2001430" lon="37.3517100">
    <ele>2071.8</ele>
    <time>2026-06-24T07:34:25Z</time>
   </trkpt>
   <trkpt lat="-3.2001410" lon="37.3517070">
    <ele>2071.7</ele>
    <time>2026-06-24T07:34:26Z</time>
   </trkpt>
   <trkpt lat="-3.2001440" lon="37.3517010">
    <ele>2071.5</ele>
    <time>2026-06-24T07:34:27Z</time>
   </trkpt>
   <trkpt lat="-3.2001480" lon="37.3517060">
    <ele>2071.4</ele>
    <time>2026-06-24T07:34:28Z</time>
   </trkpt>
   <trkpt lat="-3.2001460" lon="37.3517070">
    <ele>2071.3</ele>
    <time>2026-06-24T07:34:29Z</time>
   </trkpt>
   <trkpt lat="-3.2001560" lon="37.3517040">
    <ele>2071.1</ele>
    <time>2026-06-24T07:34:30Z</time>
   </trkpt>
   <trkpt lat="-3.2001680" lon="37.3516980">
    <ele>2070.8</ele>
    <time>2026-06-24T07:34:31Z</time>
   </trkpt>
   <trkpt lat="-3.2001780" lon="37.3516920">
    <ele>2070.5</ele>
    <time>2026-06-24T07:34:32Z</time>
   </trkpt>
   <trkpt lat="-3.2001830" lon="37.3516950">
    <ele>2070.4</ele>
    <time>2026-06-24T07:34:33Z</time>
   </trkpt>
   <trkpt lat="-3.2001900" lon="37.3516960">
    <ele>2070.2</ele>
    <time>2026-06-24T07:34:34Z</time>
   </trkpt>
   <trkpt lat="-3.2001980" lon="37.3516980">
    <ele>2070.0</ele>
    <time>2026-06-24T07:34:35Z</time>
   </trkpt>
   <trkpt lat="-3.2002030" lon="37.3516950">
    <ele>2069.9</ele>
    <time>2026-06-24T07:34:36Z</time>
   </trkpt>
   <trkpt lat="-3.2002120" lon="37.3516950">
    <ele>2069.7</ele>
    <time>2026-06-24T07:34:37Z</time>
   </trkpt>
   <trkpt lat="-3.2002190" lon="37.3516910">
    <ele>2069.5</ele>
    <time>2026-06-24T07:34:38Z</time>
   </trkpt>
   <trkpt lat="-3.2002290" lon="37.3516870">
    <ele>2069.3</ele>
    <time>2026-06-24T07:34:39Z</time>
   </trkpt>
   <trkpt lat="-3.2002500" lon="37.3516860">
    <ele>2068.8</ele>
    <time>2026-06-24T07:34:40Z</time>
   </trkpt>
   <trkpt lat="-3.2002520" lon="37.3516860">
    <ele>2068.8</ele>
    <time>2026-06-24T07:34:41Z</time>
   </trkpt>
   <trkpt lat="-3.2002690" lon="37.3516830">
    <ele>2068.4</ele>
    <time>2026-06-24T07:34:42Z</time>
   </trkpt>
   <trkpt lat="-3.2002820" lon="37.3516810">
    <ele>2068.1</ele>
    <time>2026-06-24T07:34:43Z</time>
   </trkpt>
   <trkpt lat="-3.2002840" lon="37.3516850">
    <ele>2068.0</ele>
    <time>2026-06-24T07:34:44Z</time>
   </trkpt>
   <trkpt lat="-3.2002940" lon="37.3516830">
    <ele>2067.8</ele>
    <time>2026-06-24T07:34:45Z</time>
   </trkpt>
   <trkpt lat="-3.2003080" lon="37.3516820">
    <ele>2067.5</ele>
    <time>2026-06-24T07:34:46Z</time>
   </trkpt>
   <trkpt lat="-3.2003020" lon="37.3516850">
    <ele>2067.4</ele>
    <time>2026-06-24T07:34:47Z</time>
   </trkpt>
   <trkpt lat="-3.2003090" lon="37.3516810">
    <ele>2067.2</ele>
    <time>2026-06-24T07:34:48Z</time>
   </trkpt>
   <trkpt lat="-3.2003160" lon="37.3516770">
    <ele>2067.0</ele>
    <time>2026-06-24T07:34:49Z</time>
   </trkpt>
   <trkpt lat="-3.2003180" lon="37.3516700">
    <ele>2066.9</ele>
    <time>2026-06-24T07:34:50Z</time>
   </trkpt>
   <trkpt lat="-3.2003210" lon="37.3516700">
    <ele>2066.8</ele>
    <time>2026-06-24T07:34:51Z</time>
   </trkpt>
   <trkpt lat="-3.2003320" lon="37.3516560">
    <ele>2066.5</ele>
    <time>2026-06-24T07:34:52Z</time>
   </trkpt>
   <trkpt lat="-3.2003310" lon="37.3516540">
    <ele>2066.4</ele>
    <time>2026-06-24T07:34:53Z</time>
   </trkpt>
   <trkpt lat="-3.2003410" lon="37.3516470">
    <ele>2066.2</ele>
    <time>2026-06-24T07:34:54Z</time>
   </trkpt>
   <trkpt lat="-3.2003530" lon="37.3516400">
    <ele>2065.9</ele>
    <time>2026-06-24T07:34:55Z</time>
   </trkpt>
   <trkpt lat="-3.2003610" lon="37.3516380">
    <ele>2065.7</ele>
    <time>2026-06-24T07:34:56Z</time>
   </trkpt>
   <trkpt lat="-3.2003680" lon="37.3516320">
    <ele>2065.6</ele>
    <time>2026-06-24T07:34:57Z</time>
   </trkpt>
   <trkpt lat="-3.2003800" lon="37.3516190">
    <ele>2065.2</ele>
    <time>2026-06-24T07:34:58Z</time>
   </trkpt>
   <trkpt lat="-3.2003910" lon="37.3516050">
    <ele>2064.9</ele>
    <time>2026-06-24T07:34:59Z</time>
   </trkpt>
   <trkpt lat="-3.2003980" lon="37.3515970">
    <ele>2064.7</ele>
    <time>2026-06-24T07:35:00Z</time>
   </trkpt>
   <trkpt lat="-3.2004030" lon="37.3515920">
    <ele>2064.5</ele>
    <time>2026-06-24T07:35:01Z</time>
   </trkpt>
   <trkpt lat="-3.2004070" lon="37.3515920">
    <ele>2064.5</ele>
    <time>2026-06-24T07:35:02Z</time>
   </trkpt>
   <trkpt lat="-3.2004150" lon="37.3515870">
    <ele>2064.3</ele>
    <time>2026-06-24T07:35:03Z</time>
   </trkpt>
   <trkpt lat="-3.2004190" lon="37.3515820">
    <ele>2064.2</ele>
    <time>2026-06-24T07:35:04Z</time>
   </trkpt>
   <trkpt lat="-3.2004260" lon="37.3515830">
    <ele>2064.1</ele>
    <time>2026-06-24T07:35:05Z</time>
   </trkpt>
   <trkpt lat="-3.2004370" lon="37.3515790">
    <ele>2063.8</ele>
    <time>2026-06-24T07:35:06Z</time>
   </trkpt>
   <trkpt lat="-3.2004400" lon="37.3515840">
    <ele>2063.8</ele>
    <time>2026-06-24T07:35:07Z</time>
   </trkpt>
   <trkpt lat="-3.2004590" lon="37.3515830">
    <ele>2063.4</ele>
    <time>2026-06-24T07:35:08Z</time>
   </trkpt>
   <trkpt lat="-3.2004580" lon="37.3515910">
    <ele>2063.3</ele>
    <time>2026-06-24T07:35:09Z</time>
   </trkpt>
   <trkpt lat="-3.2004600" lon="37.3515920">
    <ele>2063.2</ele>
    <time>2026-06-24T07:35:10Z</time>
   </trkpt>
   <trkpt lat="-3.2004620" lon="37.3515920">
    <ele>2063.2</ele>
    <time>2026-06-24T07:35:11Z</time>
   </trkpt>
   <trkpt lat="-3.2004620" lon="37.3515890">
    <ele>2063.2</ele>
    <time>2026-06-24T07:35:12Z</time>
   </trkpt>
   <trkpt lat="-3.2004620" lon="37.3515900">
    <ele>2063.1</ele>
    <time>2026-06-24T07:35:13Z</time>
   </trkpt>
   <trkpt lat="-3.2004650" lon="37.3515880">
    <ele>2063.1</ele>
    <time>2026-06-24T07:35:14Z</time>
   </trkpt>
   <trkpt lat="-3.2004700" lon="37.3515890">
    <ele>2063.0</ele>
    <time>2026-06-24T07:35:15Z</time>
   </trkpt>
   <trkpt lat="-3.2004680" lon="37.3515910">
    <ele>2062.9</ele>
    <time>2026-06-24T07:35:16Z</time>
   </trkpt>
   <trkpt lat="-3.2004750" lon="37.3515900">
    <ele>2062.8</ele>
    <time>2026-06-24T07:35:17Z</time>
   </trkpt>
   <trkpt lat="-3.2004810" lon="37.3515900">
    <ele>2062.7</ele>
    <time>2026-06-24T07:35:18Z</time>
   </trkpt>
   <trkpt lat="-3.2004870" lon="37.3515910">
    <ele>2062.6</ele>
    <time>2026-06-24T07:35:19Z</time>
   </trkpt>
   <trkpt lat="-3.2004900" lon="37.3515900">
    <ele>2062.6</ele>
    <time>2026-06-24T07:35:20Z</time>
   </trkpt>
   <trkpt lat="-3.2005130" lon="37.3515850">
    <ele>2062.2</ele>
    <time>2026-06-24T07:35:21Z</time>
   </trkpt>
   <trkpt lat="-3.2005080" lon="37.3515850">
    <ele>2062.1</ele>
    <time>2026-06-24T07:35:22Z</time>
   </trkpt>
   <trkpt lat="-3.2004980" lon="37.3515890">
    <ele>2061.9</ele>
    <time>2026-06-24T07:35:23Z</time>
   </trkpt>
   <trkpt lat="-3.2004950" lon="37.3515900">
    <ele>2061.8</ele>
    <time>2026-06-24T07:35:24Z</time>
   </trkpt>
   <trkpt lat="-3.2005180" lon="37.3515950">
    <ele>2061.5</ele>
    <time>2026-06-24T07:35:25Z</time>
   </trkpt>
   <trkpt lat="-3.2005210" lon="37.3515960">
    <ele>2061.4</ele>
    <time>2026-06-24T07:35:26Z</time>
   </trkpt>
   <trkpt lat="-3.2005230" lon="37.3515980">
    <ele>2061.4</ele>
    <time>2026-06-24T07:35:27Z</time>
   </trkpt>
   <trkpt lat="-3.2005310" lon="37.3516010">
    <ele>2061.2</ele>
    <time>2026-06-24T07:35:29Z</time>
   </trkpt>
   <trkpt lat="-3.2005460" lon="37.3516020">
    <ele>2061.0</ele>
    <time>2026-06-24T07:35:30Z</time>
   </trkpt>
   <trkpt lat="-3.2005470" lon="37.3516020">
    <ele>2061.0</ele>
    <time>2026-06-24T07:35:31Z</time>
   </trkpt>
   <trkpt lat="-3.2005550" lon="37.3516040">
    <ele>2060.8</ele>
    <time>2026-06-24T07:35:32Z</time>
   </trkpt>
   <trkpt lat="-3.2005660" lon="37.3516050">
    <ele>2060.6</ele>
    <time>2026-06-24T07:35:33Z</time>
   </trkpt>
   <trkpt lat="-3.2005720" lon="37.3516030">
    <ele>2060.5</ele>
    <time>2026-06-24T07:35:34Z</time>
   </trkpt>
   <trkpt lat="-3.2005750" lon="37.3516030">
    <ele>2060.5</ele>
    <time>2026-06-24T07:35:35Z</time>
   </trkpt>
   <trkpt lat="-3.2005810" lon="37.3516040">
    <ele>2060.4</ele>
    <time>2026-06-24T07:35:36Z</time>
   </trkpt>
   <trkpt lat="-3.2005780" lon="37.3516070">
    <ele>2060.3</ele>
    <time>2026-06-24T07:35:37Z</time>
   </trkpt>
   <trkpt lat="-3.2005880" lon="37.3516080">
    <ele>2060.1</ele>
    <time>2026-06-24T07:35:38Z</time>
   </trkpt>
   <trkpt lat="-3.2005920" lon="37.3515980">
    <ele>2060.0</ele>
    <time>2026-06-24T07:35:39Z</time>
   </trkpt>
   <trkpt lat="-3.2005980" lon="37.3515970">
    <ele>2059.9</ele>
    <time>2026-06-24T07:35:40Z</time>
   </trkpt>
   <trkpt lat="-3.2005960" lon="37.3516000">
    <ele>2059.8</ele>
    <time>2026-06-24T07:35:41Z</time>
   </trkpt>
   <trkpt lat="-3.2005990" lon="37.3516000">
    <ele>2059.8</ele>
    <time>2026-06-24T07:35:42Z</time>
   </trkpt>
   <trkpt lat="-3.2006050" lon="37.3516030">
    <ele>2059.6</ele>
    <time>2026-06-24T07:35:43Z</time>
   </trkpt>
   <trkpt lat="-3.2006000" lon="37.3516030">
    <ele>2059.6</ele>
    <time>2026-06-24T07:35:44Z</time>
   </trkpt>
   <trkpt lat="-3.2006020" lon="37.3516070">
    <ele>2059.5</ele>
    <time>2026-06-24T07:35:45Z</time>
   </trkpt>
   <trkpt lat="-3.2006030" lon="37.3516080">
    <ele>2059.5</ele>
    <time>2026-06-24T07:35:46Z</time>
   </trkpt>
   <trkpt lat="-3.2006180" lon="37.3516050">
    <ele>2059.2</ele>
    <time>2026-06-24T07:35:47Z</time>
   </trkpt>
   <trkpt lat="-3.2006240" lon="37.3516040">
    <ele>2059.1</ele>
    <time>2026-06-24T07:35:48Z</time>
   </trkpt>
   <trkpt lat="-3.2006200" lon="37.3516050">
    <ele>2059.0</ele>
    <time>2026-06-24T07:35:49Z</time>
   </trkpt>
   <trkpt lat="-3.2006220" lon="37.3516100">
    <ele>2059.0</ele>
    <time>2026-06-24T07:35:50Z</time>
   </trkpt>
   <trkpt lat="-3.2006210" lon="37.3516120">
    <ele>2058.9</ele>
    <time>2026-06-24T07:35:51Z</time>
   </trkpt>
   <trkpt lat="-3.2006230" lon="37.3516090">
    <ele>2058.9</ele>
    <time>2026-06-24T07:35:52Z</time>
   </trkpt>
   <trkpt lat="-3.2006240" lon="37.3516110">
    <ele>2058.8</ele>
    <time>2026-06-24T07:35:53Z</time>
   </trkpt>
   <trkpt lat="-3.2006330" lon="37.3516090">
    <ele>2058.7</ele>
    <time>2026-06-24T07:35:54Z</time>
   </trkpt>
   <trkpt lat="-3.2006340" lon="37.3516100">
    <ele>2058.7</ele>
    <time>2026-06-24T07:35:55Z</time>
   </trkpt>
   <trkpt lat="-3.2006410" lon="37.3516060">
    <ele>2058.5</ele>
    <time>2026-06-24T07:35:56Z</time>
   </trkpt>
   <trkpt lat="-3.2006440" lon="37.3516080">
    <ele>2058.5</ele>
    <time>2026-06-24T07:35:57Z</time>
   </trkpt>
   <trkpt lat="-3.2006470" lon="37.3516070">
    <ele>2058.4</ele>
    <time>2026-06-24T07:35:58Z</time>
   </trkpt>
   <trkpt lat="-3.2006500" lon="37.3516060">
    <ele>2058.4</ele>
    <time>2026-06-24T07:35:59Z</time>
   </trkpt>
   <trkpt lat="-3.2006580" lon="37.3516070">
    <ele>2058.2</ele>
    <time>2026-06-24T07:36:00Z</time>
   </trkpt>
   <trkpt lat="-3.2006600" lon="37.3516040">
    <ele>2058.2</ele>
    <time>2026-06-24T07:36:01Z</time>
   </trkpt>
   <trkpt lat="-3.2006640" lon="37.3516070">
    <ele>2058.1</ele>
    <time>2026-06-24T07:36:02Z</time>
   </trkpt>
   <trkpt lat="-3.2006730" lon="37.3516050">
    <ele>2058.0</ele>
    <time>2026-06-24T07:36:03Z</time>
   </trkpt>
   <trkpt lat="-3.2006850" lon="37.3515950">
    <ele>2057.7</ele>
    <time>2026-06-24T07:36:04Z</time>
   </trkpt>
   <trkpt lat="-3.2006880" lon="37.3515910">
    <ele>2057.6</ele>
    <time>2026-06-24T07:36:05Z</time>
   </trkpt>
   <trkpt lat="-3.2006900" lon="37.3515880">
    <ele>2057.6</ele>
    <time>2026-06-24T07:36:06Z</time>
   </trkpt>
   <trkpt lat="-3.2006950" lon="37.3515840">
    <ele>2057.5</ele>
    <time>2026-06-24T07:36:07Z</time>
   </trkpt>
   <trkpt lat="-3.2006950" lon="37.3515820">
    <ele>2057.4</ele>
    <time>2026-06-24T07:36:08Z</time>
   </trkpt>
   <trkpt lat="-3.2006990" lon="37.3515730">
    <ele>2057.3</ele>
    <time>2026-06-24T07:36:09Z</time>
   </trkpt>
   <trkpt lat="-3.2007060" lon="37.3515660">
    <ele>2057.1</ele>
    <time>2026-06-24T07:36:10Z</time>
   </trkpt>
   <trkpt lat="-3.2007160" lon="37.3515560">
    <ele>2056.9</ele>
    <time>2026-06-24T07:36:11Z</time>
   </trkpt>
   <trkpt lat="-3.2007200" lon="37.3515510">
    <ele>2056.8</ele>
    <time>2026-06-24T07:36:12Z</time>
   </trkpt>
   <trkpt lat="-3.2007240" lon="37.3515460">
    <ele>2056.7</ele>
    <time>2026-06-24T07:36:13Z</time>
   </trkpt>
   <trkpt lat="-3.2007340" lon="37.3515460">
    <ele>2056.6</ele>
    <time>2026-06-24T07:36:14Z</time>
   </trkpt>
   <trkpt lat="-3.2007380" lon="37.3515450">
    <ele>2056.5</ele>
    <time>2026-06-24T07:36:15Z</time>
   </trkpt>
   <trkpt lat="-3.2007450" lon="37.3515430">
    <ele>2056.4</ele>
    <time>2026-06-24T07:36:16Z</time>
   </trkpt>
   <trkpt lat="-3.2007490" lon="37.3515430">
    <ele>2056.3</ele>
    <time>2026-06-24T07:36:17Z</time>
   </trkpt>
   <trkpt lat="-3.2007550" lon="37.3515350">
    <ele>2056.2</ele>
    <time>2026-06-24T07:36:18Z</time>
   </trkpt>
   <trkpt lat="-3.2007690" lon="37.3515330">
    <ele>2056.0</ele>
    <time>2026-06-24T07:36:19Z</time>
   </trkpt>
   <trkpt lat="-3.2007710" lon="37.3515350">
    <ele>2055.9</ele>
    <time>2026-06-24T07:36:20Z</time>
   </trkpt>
   <trkpt lat="-3.2007750" lon="37.3515350">
    <ele>2055.9</ele>
    <time>2026-06-24T07:36:21Z</time>
   </trkpt>
   <trkpt lat="-3.2007790" lon="37.3515320">
    <ele>2055.8</ele>
    <time>2026-06-24T07:36:22Z</time>
   </trkpt>
   <trkpt lat="-3.2007840" lon="37.3515300">
    <ele>2055.7</ele>
    <time>2026-06-24T07:36:23Z</time>
   </trkpt>
   <trkpt lat="-3.2007900" lon="37.3515300">
    <ele>2055.6</ele>
    <time>2026-06-24T07:36:24Z</time>
   </trkpt>
   <trkpt lat="-3.2007990" lon="37.3515260">
    <ele>2055.5</ele>
    <time>2026-06-24T07:36:25Z</time>
   </trkpt>
   <trkpt lat="-3.2008050" lon="37.3515270">
    <ele>2055.4</ele>
    <time>2026-06-24T07:36:26Z</time>
   </trkpt>
   <trkpt lat="-3.2008130" lon="37.3515210">
    <ele>2055.3</ele>
    <time>2026-06-24T07:36:27Z</time>
   </trkpt>
   <trkpt lat="-3.2008240" lon="37.3515200">
    <ele>2055.1</ele>
    <time>2026-06-24T07:36:28Z</time>
   </trkpt>
   <trkpt lat="-3.2008250" lon="37.3515230">
    <ele>2055.1</ele>
    <time>2026-06-24T07:36:29Z</time>
   </trkpt>
   <trkpt lat="-3.2008370" lon="37.3515170">
    <ele>2054.9</ele>
    <time>2026-06-24T07:36:30Z</time>
   </trkpt>
   <trkpt lat="-3.2008470" lon="37.3515160">
    <ele>2054.8</ele>
    <time>2026-06-24T07:36:31Z</time>
   </trkpt>
   <trkpt lat="-3.2008570" lon="37.3515060">
    <ele>2054.6</ele>
    <time>2026-06-24T07:36:32Z</time>
   </trkpt>
   <trkpt lat="-3.2008610" lon="37.3515020">
    <ele>2054.5</ele>
    <time>2026-06-24T07:36:33Z</time>
   </trkpt>
   <trkpt lat="-3.2008630" lon="37.3514960">
    <ele>2054.4</ele>
    <time>2026-06-24T07:36:34Z</time>
   </trkpt>
   <trkpt lat="-3.2008680" lon="37.3514920">
    <ele>2054.3</ele>
    <time>2026-06-24T07:36:35Z</time>
   </trkpt>
   <trkpt lat="-3.2008720" lon="37.3514870">
    <ele>2054.2</ele>
    <time>2026-06-24T07:36:36Z</time>
   </trkpt>
   <trkpt lat="-3.2008780" lon="37.3514750">
    <ele>2054.1</ele>
    <time>2026-06-24T07:36:37Z</time>
   </trkpt>
   <trkpt lat="-3.2008830" lon="37.3514650">
    <ele>2053.9</ele>
    <time>2026-06-24T07:36:38Z</time>
   </trkpt>
   <trkpt lat="-3.2008840" lon="37.3514580">
    <ele>2053.8</ele>
    <time>2026-06-24T07:36:39Z</time>
   </trkpt>
   <trkpt lat="-3.2008960" lon="37.3514540">
    <ele>2053.7</ele>
    <time>2026-06-24T07:36:40Z</time>
   </trkpt>
   <trkpt lat="-3.2009050" lon="37.3514470">
    <ele>2053.5</ele>
    <time>2026-06-24T07:36:41Z</time>
   </trkpt>
   <trkpt lat="-3.2009210" lon="37.3514400">
    <ele>2053.3</ele>
    <time>2026-06-24T07:36:42Z</time>
   </trkpt>
   <trkpt lat="-3.2009230" lon="37.3514360">
    <ele>2053.3</ele>
    <time>2026-06-24T07:36:43Z</time>
   </trkpt>
   <trkpt lat="-3.2009270" lon="37.3514330">
    <ele>2053.2</ele>
    <time>2026-06-24T07:36:44Z</time>
   </trkpt>
   <trkpt lat="-3.2009350" lon="37.3514320">
    <ele>2053.1</ele>
    <time>2026-06-24T07:36:45Z</time>
   </trkpt>
   <trkpt lat="-3.2009360" lon="37.3514370">
    <ele>2053.1</ele>
    <time>2026-06-24T07:36:46Z</time>
   </trkpt>
   <trkpt lat="-3.2009430" lon="37.3514280">
    <ele>2052.9</ele>
    <time>2026-06-24T07:36:47Z</time>
   </trkpt>
   <trkpt lat="-3.2009560" lon="37.3514300">
    <ele>2052.8</ele>
    <time>2026-06-24T07:36:48Z</time>
   </trkpt>
   <trkpt lat="-3.2009680" lon="37.3514240">
    <ele>2052.7</ele>
    <time>2026-06-24T07:36:49Z</time>
   </trkpt>
   <trkpt lat="-3.2009750" lon="37.3514170">
    <ele>2052.6</ele>
    <time>2026-06-24T07:36:50Z</time>
   </trkpt>
   <trkpt lat="-3.2009810" lon="37.3514070">
    <ele>2052.4</ele>
    <time>2026-06-24T07:36:51Z</time>
   </trkpt>
   <trkpt lat="-3.2009890" lon="37.3514070">
    <ele>2052.3</ele>
    <time>2026-06-24T07:36:52Z</time>
   </trkpt>
   <trkpt lat="-3.2009870" lon="37.3514100">
    <ele>2052.3</ele>
    <time>2026-06-24T07:36:53Z</time>
   </trkpt>
   <trkpt lat="-3.2009920" lon="37.3513980">
    <ele>2052.2</ele>
    <time>2026-06-24T07:36:54Z</time>
   </trkpt>
   <trkpt lat="-3.2009980" lon="37.3513900">
    <ele>2052.1</ele>
    <time>2026-06-24T07:36:55Z</time>
   </trkpt>
   <trkpt lat="-3.2009980" lon="37.3513940">
    <ele>2052.0</ele>
    <time>2026-06-24T07:36:56Z</time>
   </trkpt>
   <trkpt lat="-3.2010020" lon="37.3513780">
    <ele>2051.8</ele>
    <time>2026-06-24T07:36:57Z</time>
   </trkpt>
   <trkpt lat="-3.2010060" lon="37.3513780">
    <ele>2051.8</ele>
    <time>2026-06-24T07:36:58Z</time>
   </trkpt>
   <trkpt lat="-3.2010140" lon="37.3513870">
    <ele>2051.7</ele>
    <time>2026-06-24T07:36:59Z</time>
   </trkpt>
   <trkpt lat="-3.2010280" lon="37.3513890">
    <ele>2051.5</ele>
    <time>2026-06-24T07:37:00Z</time>
   </trkpt>
   <trkpt lat="-3.2010330" lon="37.3513920">
    <ele>2051.5</ele>
    <time>2026-06-24T07:37:01Z</time>
   </trkpt>
   <trkpt lat="-3.2010350" lon="37.3513930">
    <ele>2051.5</ele>
    <time>2026-06-24T07:37:02Z</time>
   </trkpt>
   <trkpt lat="-3.2010370" lon="37.3513940">
    <ele>2051.4</ele>
    <time>2026-06-24T07:37:03Z</time>
   </trkpt>
   <trkpt lat="-3.2010490" lon="37.3513920">
    <ele>2051.3</ele>
    <time>2026-06-24T07:37:04Z</time>
   </trkpt>
   <trkpt lat="-3.2010430" lon="37.3513840">
    <ele>2051.2</ele>
    <time>2026-06-24T07:37:05Z</time>
   </trkpt>
   <trkpt lat="-3.2010430" lon="37.3513780">
    <ele>2051.2</ele>
    <time>2026-06-24T07:37:06Z</time>
   </trkpt>
   <trkpt lat="-3.2010460" lon="37.3513720">
    <ele>2051.1</ele>
    <time>2026-06-24T07:37:07Z</time>
   </trkpt>
   <trkpt lat="-3.2010590" lon="37.3513590">
    <ele>2051.0</ele>
    <time>2026-06-24T07:37:08Z</time>
   </trkpt>
   <trkpt lat="-3.2010710" lon="37.3513480">
    <ele>2050.8</ele>
    <time>2026-06-24T07:37:09Z</time>
   </trkpt>
   <trkpt lat="-3.2010850" lon="37.3513400">
    <ele>2050.7</ele>
    <time>2026-06-24T07:37:10Z</time>
   </trkpt>
   <trkpt lat="-3.2010970" lon="37.3513340">
    <ele>2050.6</ele>
    <time>2026-06-24T07:37:11Z</time>
   </trkpt>
   <trkpt lat="-3.2010980" lon="37.3513290">
    <ele>2050.5</ele>
    <time>2026-06-24T07:37:12Z</time>
   </trkpt>
   <trkpt lat="-3.2011050" lon="37.3513150">
    <ele>2050.4</ele>
    <time>2026-06-24T07:37:13Z</time>
   </trkpt>
   <trkpt lat="-3.2011040" lon="37.3513050">
    <ele>2050.3</ele>
    <time>2026-06-24T07:37:14Z</time>
   </trkpt>
   <trkpt lat="-3.2011070" lon="37.3512900">
    <ele>2050.2</ele>
    <time>2026-06-24T07:37:15Z</time>
   </trkpt>
   <trkpt lat="-3.2011030" lon="37.3512860">
    <ele>2050.2</ele>
    <time>2026-06-24T07:37:16Z</time>
   </trkpt>
   <trkpt lat="-3.2011000" lon="37.3512820">
    <ele>2050.1</ele>
    <time>2026-06-24T07:37:17Z</time>
   </trkpt>
   <trkpt lat="-3.2011000" lon="37.3512800">
    <ele>2050.1</ele>
    <time>2026-06-24T07:37:18Z</time>
   </trkpt>
   <trkpt lat="-3.2011000" lon="37.3512710">
    <ele>2050.1</ele>
    <time>2026-06-24T07:37:19Z</time>
   </trkpt>
   <trkpt lat="-3.2011000" lon="37.3512570">
    <ele>2050.0</ele>
    <time>2026-06-24T07:37:20Z</time>
   </trkpt>
   <trkpt lat="-3.2011020" lon="37.3512460">
    <ele>2049.9</ele>
    <time>2026-06-24T07:37:21Z</time>
   </trkpt>
   <trkpt lat="-3.2011020" lon="37.3512390">
    <ele>2049.9</ele>
    <time>2026-06-24T07:37:22Z</time>
   </trkpt>
   <trkpt lat="-3.2011080" lon="37.3512240">
    <ele>2049.8</ele>
    <time>2026-06-24T07:37:23Z</time>
   </trkpt>
   <trkpt lat="-3.2011140" lon="37.3512210">
    <ele>2049.7</ele>
    <time>2026-06-24T07:37:24Z</time>
   </trkpt>
   <trkpt lat="-3.2011240" lon="37.3512200">
    <ele>2049.7</ele>
    <time>2026-06-24T07:37:25Z</time>
   </trkpt>
   <trkpt lat="-3.2011320" lon="37.3512160">
    <ele>2049.6</ele>
    <time>2026-06-24T07:37:26Z</time>
   </trkpt>
   <trkpt lat="-3.2011460" lon="37.3512110">
    <ele>2049.5</ele>
    <time>2026-06-24T07:37:27Z</time>
   </trkpt>
   <trkpt lat="-3.2011550" lon="37.3512070">
    <ele>2049.5</ele>
    <time>2026-06-24T07:37:28Z</time>
   </trkpt>
   <trkpt lat="-3.2011560" lon="37.3512090">
    <ele>2049.5</ele>
    <time>2026-06-24T07:37:29Z</time>
   </trkpt>
   <trkpt lat="-3.2011640" lon="37.3512140">
    <ele>2049.4</ele>
    <time>2026-06-24T07:37:30Z</time>
   </trkpt>
   <trkpt lat="-3.2011710" lon="37.3512200">
    <ele>2049.4</ele>
    <time>2026-06-24T07:37:31Z</time>
   </trkpt>
   <trkpt lat="-3.2011710" lon="37.3512190">
    <ele>2049.3</ele>
    <time>2026-06-24T07:37:32Z</time>
   </trkpt>
   <trkpt lat="-3.2011790" lon="37.3512290">
    <ele>2049.3</ele>
    <time>2026-06-24T07:37:34Z</time>
   </trkpt>
   <trkpt lat="-3.2011840" lon="37.3512250">
    <ele>2049.2</ele>
    <time>2026-06-24T07:37:35Z</time>
   </trkpt>
   <trkpt lat="-3.2011880" lon="37.3512140">
    <ele>2049.2</ele>
    <time>2026-06-24T07:37:36Z</time>
   </trkpt>
   <trkpt lat="-3.2011940" lon="37.3512060">
    <ele>2049.1</ele>
    <time>2026-06-24T07:37:37Z</time>
   </trkpt>
   <trkpt lat="-3.2012170" lon="37.3511970">
    <ele>2049.0</ele>
    <time>2026-06-24T07:37:38Z</time>
   </trkpt>
   <trkpt lat="-3.2012180" lon="37.3511950">
    <ele>2049.0</ele>
    <time>2026-06-24T07:37:39Z</time>
   </trkpt>
   <trkpt lat="-3.2012210" lon="37.3511950">
    <ele>2048.9</ele>
    <time>2026-06-24T07:37:40Z</time>
   </trkpt>
   <trkpt lat="-3.2012220" lon="37.3511850">
    <ele>2048.9</ele>
    <time>2026-06-24T07:37:41Z</time>
   </trkpt>
   <trkpt lat="-3.2012240" lon="37.3511760">
    <ele>2048.8</ele>
    <time>2026-06-24T07:37:42Z</time>
   </trkpt>
   <trkpt lat="-3.2012200" lon="37.3511750">
    <ele>2048.8</ele>
    <time>2026-06-24T07:37:43Z</time>
   </trkpt>
   <trkpt lat="-3.2012190" lon="37.3511750">
    <ele>2048.8</ele>
    <time>2026-06-24T07:37:44Z</time>
   </trkpt>
   <trkpt lat="-3.2012220" lon="37.3511700">
    <ele>2048.8</ele>
    <time>2026-06-24T07:37:45Z</time>
   </trkpt>
   <trkpt lat="-3.2012360" lon="37.3511650">
    <ele>2048.7</ele>
    <time>2026-06-24T07:37:46Z</time>
   </trkpt>
   <trkpt lat="-3.2012470" lon="37.3511630">
    <ele>2048.6</ele>
    <time>2026-06-24T07:37:47Z</time>
   </trkpt>
   <trkpt lat="-3.2012540" lon="37.3511570">
    <ele>2048.5</ele>
    <time>2026-06-24T07:37:48Z</time>
   </trkpt>
   <trkpt lat="-3.2012600" lon="37.3511500">
    <ele>2048.5</ele>
    <time>2026-06-24T07:37:49Z</time>
   </trkpt>
   <trkpt lat="-3.2012700" lon="37.3511430">
    <ele>2048.4</ele>
    <time>2026-06-24T07:37:50Z</time>
   </trkpt>
   <trkpt lat="-3.2012800" lon="37.3511420">
    <ele>2048.3</ele>
    <time>2026-06-24T07:37:51Z</time>
   </trkpt>
   <trkpt lat="-3.2012910" lon="37.3511390">
    <ele>2048.2</ele>
    <time>2026-06-24T07:37:52Z</time>
   </trkpt>
   <trkpt lat="-3.2013000" lon="37.3511360">
    <ele>2048.2</ele>
    <time>2026-06-24T07:37:53Z</time>
   </trkpt>
   <trkpt lat="-3.2013070" lon="37.3511310">
    <ele>2048.1</ele>
    <time>2026-06-24T07:37:54Z</time>
   </trkpt>
   <trkpt lat="-3.2013070" lon="37.3511260">
    <ele>2048.1</ele>
    <time>2026-06-24T07:37:55Z</time>
   </trkpt>
   <trkpt lat="-3.2013150" lon="37.3511220">
    <ele>2048.0</ele>
    <time>2026-06-24T07:37:56Z</time>
   </trkpt>
   <trkpt lat="-3.2013210" lon="37.3511190">
    <ele>2048.0</ele>
    <time>2026-06-24T07:37:57Z</time>
   </trkpt>
   <trkpt lat="-3.2013320" lon="37.3511180">
    <ele>2047.9</ele>
    <time>2026-06-24T07:37:58Z</time>
   </trkpt>
   <trkpt lat="-3.2013320" lon="37.3511210">
    <ele>2047.8</ele>
    <time>2026-06-24T07:37:59Z</time>
   </trkpt>
   <trkpt lat="-3.2013410" lon="37.3511180">
    <ele>2047.8</ele>
    <time>2026-06-24T07:38:00Z</time>
   </trkpt>
   <trkpt lat="-3.2013480" lon="37.3511170">
    <ele>2047.7</ele>
    <time>2026-06-24T07:38:01Z</time>
   </trkpt>
   <trkpt lat="-3.2013570" lon="37.3511000">
    <ele>2047.6</ele>
    <time>2026-06-24T07:38:02Z</time>
   </trkpt>
   <trkpt lat="-3.2013630" lon="37.3510900">
    <ele>2047.5</ele>
    <time>2026-06-24T07:38:03Z</time>
   </trkpt>
   <trkpt lat="-3.2013740" lon="37.3510900">
    <ele>2047.4</ele>
    <time>2026-06-24T07:38:04Z</time>
   </trkpt>
   <trkpt lat="-3.2013890" lon="37.3510890">
    <ele>2047.3</ele>
    <time>2026-06-24T07:38:05Z</time>
   </trkpt>
   <trkpt lat="-3.2013970" lon="37.3510850">
    <ele>2047.2</ele>
    <time>2026-06-24T07:38:06Z</time>
   </trkpt>
   <trkpt lat="-3.2014050" lon="37.3510730">
    <ele>2047.1</ele>
    <time>2026-06-24T07:38:07Z</time>
   </trkpt>
   <trkpt lat="-3.2014120" lon="37.3510730">
    <ele>2047.1</ele>
    <time>2026-06-24T07:38:08Z</time>
   </trkpt>
   <trkpt lat="-3.2014160" lon="37.3510700">
    <ele>2047.0</ele>
    <time>2026-06-24T07:38:09Z</time>
   </trkpt>
   <trkpt lat="-3.2014310" lon="37.3510720">
    <ele>2046.9</ele>
    <time>2026-06-24T07:38:10Z</time>
   </trkpt>
   <trkpt lat="-3.2014380" lon="37.3510720">
    <ele>2046.8</ele>
    <time>2026-06-24T07:38:11Z</time>
   </trkpt>
   <trkpt lat="-3.2014450" lon="37.3510670">
    <ele>2046.8</ele>
    <time>2026-06-24T07:38:12Z</time>
   </trkpt>
   <trkpt lat="-3.2014420" lon="37.3510680">
    <ele>2046.8</ele>
    <time>2026-06-24T07:38:13Z</time>
   </trkpt>
   <trkpt lat="-3.2014470" lon="37.3510650">
    <ele>2046.7</ele>
    <time>2026-06-24T07:38:14Z</time>
   </trkpt>
   <trkpt lat="-3.2014500" lon="37.3510610">
    <ele>2046.7</ele>
    <time>2026-06-24T07:38:15Z</time>
   </trkpt>
   <trkpt lat="-3.2014600" lon="37.3510470">
    <ele>2046.5</ele>
    <time>2026-06-24T07:38:16Z</time>
   </trkpt>
   <trkpt lat="-3.2014660" lon="37.3510300">
    <ele>2046.4</ele>
    <time>2026-06-24T07:38:17Z</time>
   </trkpt>
   <trkpt lat="-3.2014710" lon="37.3510280">
    <ele>2046.4</ele>
    <time>2026-06-24T07:38:18Z</time>
   </trkpt>
   <trkpt lat="-3.2014710" lon="37.3510150">
    <ele>2046.3</ele>
    <time>2026-06-24T07:38:19Z</time>
   </trkpt>
   <trkpt lat="-3.2014790" lon="37.3510020">
    <ele>2046.1</ele>
    <time>2026-06-24T07:38:20Z</time>
   </trkpt>
   <trkpt lat="-3.2014870" lon="37.3509870">
    <ele>2046.0</ele>
    <time>2026-06-24T07:38:21Z</time>
   </trkpt>
   <trkpt lat="-3.2014890" lon="37.3509750">
    <ele>2045.9</ele>
    <time>2026-06-24T07:38:22Z</time>
   </trkpt>
   <trkpt lat="-3.2014950" lon="37.3509650">
    <ele>2045.8</ele>
    <time>2026-06-24T07:38:23Z</time>
   </trkpt>
   <trkpt lat="-3.2015060" lon="37.3509560">
    <ele>2045.7</ele>
    <time>2026-06-24T07:38:24Z</time>
   </trkpt>
   <trkpt lat="-3.2015110" lon="37.3509410">
    <ele>2045.6</ele>
    <time>2026-06-24T07:38:25Z</time>
   </trkpt>
   <trkpt lat="-3.2015140" lon="37.3509380">
    <ele>2045.6</ele>
    <time>2026-06-24T07:38:26Z</time>
   </trkpt>
   <trkpt lat="-3.2015250" lon="37.3509370">
    <ele>2045.5</ele>
    <time>2026-06-24T07:38:27Z</time>
   </trkpt>
   <trkpt lat="-3.2015300" lon="37.3509330">
    <ele>2045.4</ele>
    <time>2026-06-24T07:38:28Z</time>
   </trkpt>
   <trkpt lat="-3.2015350" lon="37.3509310">
    <ele>2045.4</ele>
    <time>2026-06-24T07:38:29Z</time>
   </trkpt>
   <trkpt lat="-3.2015350" lon="37.3509320">
    <ele>2045.4</ele>
    <time>2026-06-24T07:38:30Z</time>
   </trkpt>
   <trkpt lat="-3.2015380" lon="37.3509270">
    <ele>2045.3</ele>
    <time>2026-06-24T07:38:31Z</time>
   </trkpt>
   <trkpt lat="-3.2015380" lon="37.3509260">
    <ele>2045.3</ele>
    <time>2026-06-24T07:38:32Z</time>
   </trkpt>
   <trkpt lat="-3.2015370" lon="37.3509280">
    <ele>2045.3</ele>
    <time>2026-06-24T07:38:33Z</time>
   </trkpt>
   <trkpt lat="-3.2015360" lon="37.3509300">
    <ele>2045.3</ele>
    <time>2026-06-24T07:38:34Z</time>
   </trkpt>
   <trkpt lat="-3.2015420" lon="37.3509270">
    <ele>2045.2</ele>
    <time>2026-06-24T07:38:35Z</time>
   </trkpt>
   <trkpt lat="-3.2015460" lon="37.3509280">
    <ele>2045.2</ele>
    <time>2026-06-24T07:38:36Z</time>
   </trkpt>
   <trkpt lat="-3.2015490" lon="37.3509250">
    <ele>2045.2</ele>
    <time>2026-06-24T07:38:37Z</time>
   </trkpt>
   <trkpt lat="-3.2015560" lon="37.3509210">
    <ele>2045.1</ele>
    <time>2026-06-24T07:38:38Z</time>
   </trkpt>
   <trkpt lat="-3.2015620" lon="37.3509140">
    <ele>2045.0</ele>
    <time>2026-06-24T07:38:39Z</time>
   </trkpt>
   <trkpt lat="-3.2015720" lon="37.3509130">
    <ele>2045.0</ele>
    <time>2026-06-24T07:38:40Z</time>
   </trkpt>
   <trkpt lat="-3.2015800" lon="37.3509060">
    <ele>2044.9</ele>
    <time>2026-06-24T07:38:41Z</time>
   </trkpt>
   <trkpt lat="-3.2015880" lon="37.3509020">
    <ele>2044.8</ele>
    <time>2026-06-24T07:38:42Z</time>
   </trkpt>
   <trkpt lat="-3.2015950" lon="37.3508940">
    <ele>2044.7</ele>
    <time>2026-06-24T07:38:43Z</time>
   </trkpt>
   <trkpt lat="-3.2015990" lon="37.3508880">
    <ele>2044.7</ele>
    <time>2026-06-24T07:38:44Z</time>
   </trkpt>
   <trkpt lat="-3.2015990" lon="37.3508850">
    <ele>2044.6</ele>
    <time>2026-06-24T07:38:45Z</time>
   </trkpt>
   <trkpt lat="-3.2016050" lon="37.3508760">
    <ele>2044.6</ele>
    <time>2026-06-24T07:38:46Z</time>
   </trkpt>
   <trkpt lat="-3.2016110" lon="37.3508730">
    <ele>2044.5</ele>
    <time>2026-06-24T07:38:47Z</time>
   </trkpt>
   <trkpt lat="-3.2016190" lon="37.3508670">
    <ele>2044.4</ele>
    <time>2026-06-24T07:38:48Z</time>
   </trkpt>
   <trkpt lat="-3.2016260" lon="37.3508590">
    <ele>2044.3</ele>
    <time>2026-06-24T07:38:49Z</time>
   </trkpt>
   <trkpt lat="-3.2016270" lon="37.3508550">
    <ele>2044.3</ele>
    <time>2026-06-24T07:38:50Z</time>
   </trkpt>
   <trkpt lat="-3.2016400" lon="37.3508540">
    <ele>2044.2</ele>
    <time>2026-06-24T07:38:51Z</time>
   </trkpt>
   <trkpt lat="-3.2016450" lon="37.3508540">
    <ele>2044.2</ele>
    <time>2026-06-24T07:38:52Z</time>
   </trkpt>
   <trkpt lat="-3.2016550" lon="37.3508520">
    <ele>2044.1</ele>
    <time>2026-06-24T07:38:53Z</time>
   </trkpt>
   <trkpt lat="-3.2016650" lon="37.3508420">
    <ele>2044.0</ele>
    <time>2026-06-24T07:38:54Z</time>
   </trkpt>
   <trkpt lat="-3.2016590" lon="37.3508380">
    <ele>2043.9</ele>
    <time>2026-06-24T07:38:55Z</time>
   </trkpt>
   <trkpt lat="-3.2016590" lon="37.3508390">
    <ele>2043.9</ele>
    <time>2026-06-24T07:38:56Z</time>
   </trkpt>
   <trkpt lat="-3.2016590" lon="37.3508390">
    <ele>2043.9</ele>
    <time>2026-06-24T07:38:57Z</time>
   </trkpt>
   <trkpt lat="-3.2016590" lon="37.3508390">
    <ele>2043.9</ele>
    <time>2026-06-24T07:38:58Z</time>
   </trkpt>
   <trkpt lat="-3.2016590" lon="37.3508390">
    <ele>2043.9</ele>
    <time>2026-06-24T07:38:59Z</time>
   </trkpt>
   <trkpt lat="-3.2016400" lon="37.3508310">
    <ele>2043.7</ele>
    <time>2026-06-24T07:39:00Z</time>
   </trkpt>
   <trkpt lat="-3.2016400" lon="37.3508310">
    <ele>2043.7</ele>
    <time>2026-06-24T07:39:01Z</time>
   </trkpt>
   <trkpt lat="-3.2016380" lon="37.3508280">
    <ele>2043.7</ele>
    <time>2026-06-24T07:39:02Z</time>
   </trkpt>
   <trkpt lat="-3.2016400" lon="37.3508270">
    <ele>2043.6</ele>
    <time>2026-06-24T07:39:03Z</time>
   </trkpt>
   <trkpt lat="-3.2016410" lon="37.3508250">
    <ele>2043.6</ele>
    <time>2026-06-24T07:39:04Z</time>
   </trkpt>
   <trkpt lat="-3.2016430" lon="37.3508170">
    <ele>2043.5</ele>
    <time>2026-06-24T07:39:05Z</time>
   </trkpt>
   <trkpt lat="-3.2016460" lon="37.3508140">
    <ele>2043.5</ele>
    <time>2026-06-24T07:39:06Z</time>
   </trkpt>
   <trkpt lat="-3.2016450" lon="37.3508130">
    <ele>2043.5</ele>
    <time>2026-06-24T07:39:07Z</time>
   </trkpt>
   <trkpt lat="-3.2016500" lon="37.3508130">
    <ele>2043.5</ele>
    <time>2026-06-24T07:39:08Z</time>
   </trkpt>
   <trkpt lat="-3.2016540" lon="37.3508100">
    <ele>2043.4</ele>
    <time>2026-06-24T07:39:09Z</time>
   </trkpt>
   <trkpt lat="-3.2016650" lon="37.3508060">
    <ele>2043.3</ele>
    <time>2026-06-24T07:39:10Z</time>
   </trkpt>
   <trkpt lat="-3.2016760" lon="37.3508080">
    <ele>2043.2</ele>
    <time>2026-06-24T07:39:11Z</time>
   </trkpt>
   <trkpt lat="-3.2016760" lon="37.3507970">
    <ele>2043.1</ele>
    <time>2026-06-24T07:39:12Z</time>
   </trkpt>
   <trkpt lat="-3.2016830" lon="37.3507990">
    <ele>2043.0</ele>
    <time>2026-06-24T07:39:13Z</time>
   </trkpt>
   <trkpt lat="-3.2016970" lon="37.3507960">
    <ele>2042.9</ele>
    <time>2026-06-24T07:39:14Z</time>
   </trkpt>
   <trkpt lat="-3.2017090" lon="37.3507960">
    <ele>2042.7</ele>
    <time>2026-06-24T07:39:15Z</time>
   </trkpt>
   <trkpt lat="-3.2017170" lon="37.3508010">
    <ele>2042.6</ele>
    <time>2026-06-24T07:39:16Z</time>
   </trkpt>
   <trkpt lat="-3.2017230" lon="37.3508020">
    <ele>2042.6</ele>
    <time>2026-06-24T07:39:17Z</time>
   </trkpt>
   <trkpt lat="-3.2017280" lon="37.3507970">
    <ele>2042.5</ele>
    <time>2026-06-24T07:39:18Z</time>
   </trkpt>
   <trkpt lat="-3.2017360" lon="37.3507940">
    <ele>2042.4</ele>
    <time>2026-06-24T07:39:19Z</time>
   </trkpt>
   <trkpt lat="-3.2017430" lon="37.3507970">
    <ele>2042.3</ele>
    <time>2026-06-24T07:39:20Z</time>
   </trkpt>
   <trkpt lat="-3.2017480" lon="37.3507930">
    <ele>2042.3</ele>
    <time>2026-06-24T07:39:21Z</time>
   </trkpt>
   <trkpt lat="-3.2017530" lon="37.3507940">
    <ele>2042.2</ele>
    <time>2026-06-24T07:39:22Z</time>
   </trkpt>
   <trkpt lat="-3.2017590" lon="37.3507880">
    <ele>2042.1</ele>
    <time>2026-06-24T07:39:23Z</time>
   </trkpt>
   <trkpt lat="-3.2017700" lon="37.3507880">
    <ele>2042.0</ele>
    <time>2026-06-24T07:39:24Z</time>
   </trkpt>
   <trkpt lat="-3.2017700" lon="37.3507950">
    <ele>2042.0</ele>
    <time>2026-06-24T07:39:25Z</time>
   </trkpt>
   <trkpt lat="-3.2017800" lon="37.3507890">
    <ele>2041.8</ele>
    <time>2026-06-24T07:39:26Z</time>
   </trkpt>
   <trkpt lat="-3.2017830" lon="37.3507900">
    <ele>2041.8</ele>
    <time>2026-06-24T07:39:27Z</time>
   </trkpt>
   <trkpt lat="-3.2017830" lon="37.3507880">
    <ele>2041.8</ele>
    <time>2026-06-24T07:39:28Z</time>
   </trkpt>
   <trkpt lat="-3.2017770" lon="37.3507890">
    <ele>2041.7</ele>
    <time>2026-06-24T07:39:29Z</time>
   </trkpt>
   <trkpt lat="-3.2017690" lon="37.3507860">
    <ele>2041.6</ele>
    <time>2026-06-24T07:39:30Z</time>
   </trkpt>
   <trkpt lat="-3.2017700" lon="37.3507860">
    <ele>2041.6</ele>
    <time>2026-06-24T07:39:31Z</time>
   </trkpt>
   <trkpt lat="-3.2017790" lon="37.3507760">
    <ele>2041.5</ele>
    <time>2026-06-24T07:39:32Z</time>
   </trkpt>
   <trkpt lat="-3.2017820" lon="37.3507770">
    <ele>2041.5</ele>
    <time>2026-06-24T07:39:33Z</time>
   </trkpt>
   <trkpt lat="-3.2017800" lon="37.3507750">
    <ele>2041.4</ele>
    <time>2026-06-24T07:39:34Z</time>
   </trkpt>
   <trkpt lat="-3.2017800" lon="37.3507750">
    <ele>2041.4</ele>
    <time>2026-06-24T07:39:35Z</time>
   </trkpt>
   <trkpt lat="-3.2017800" lon="37.3507750">
    <ele>2041.4</ele>
    <time>2026-06-24T07:39:36Z</time>
   </trkpt>
   <trkpt lat="-3.2017760" lon="37.3507650">
    <ele>2041.3</ele>
    <time>2026-06-24T07:39:37Z</time>
   </trkpt>
   <trkpt lat="-3.2017760" lon="37.3507670">
    <ele>2041.3</ele>
    <time>2026-06-24T07:39:38Z</time>
   </trkpt>
   <trkpt lat="-3.2017770" lon="37.3507670">
    <ele>2041.3</ele>
    <time>2026-06-24T07:39:40Z</time>
   </trkpt>
   <trkpt lat="-3.2017760" lon="37.3507680">
    <ele>2041.3</ele>
    <time>2026-06-24T07:39:41Z</time>
   </trkpt>
   <trkpt lat="-3.2017820" lon="37.3507660">
    <ele>2041.2</ele>
    <time>2026-06-24T07:39:42Z</time>
   </trkpt>
   <trkpt lat="-3.2017820" lon="37.3507660">
    <ele>2041.2</ele>
    <time>2026-06-24T07:39:43Z</time>
   </trkpt>
   <trkpt lat="-3.2017820" lon="37.3507660">
    <ele>2041.2</ele>
    <time>2026-06-24T07:39:44Z</time>
   </trkpt>
   <trkpt lat="-3.2017820" lon="37.3507660">
    <ele>2041.2</ele>
    <time>2026-06-24T07:39:45Z</time>
   </trkpt>
   <trkpt lat="-3.2017820" lon="37.3507660">
    <ele>2041.2</ele>
    <time>2026-06-24T07:39:46Z</time>
   </trkpt>
   <trkpt lat="-3.2017820" lon="37.3507660">
    <ele>2041.2</ele>
    <time>2026-06-24T07:39:47Z</time>
   </trkpt>
   <trkpt lat="-3.2017850" lon="37.3507570">
    <ele>2041.1</ele>
    <time>2026-06-24T07:39:48Z</time>
   </trkpt>
   <trkpt lat="-3.2017880" lon="37.3507560">
    <ele>2041.1</ele>
    <time>2026-06-24T07:39:49Z</time>
   </trkpt>
   <trkpt lat="-3.2017910" lon="37.3507540">
    <ele>2041.1</ele>
    <time>2026-06-24T07:39:50Z</time>
   </trkpt>
   <trkpt lat="-3.2017860" lon="37.3507540">
    <ele>2041.0</ele>
    <time>2026-06-24T07:39:51Z</time>
   </trkpt>
   <trkpt lat="-3.2017900" lon="37.3507480">
    <ele>2040.9</ele>
    <time>2026-06-24T07:39:52Z</time>
   </trkpt>
   <trkpt lat="-3.2017950" lon="37.3507500">
    <ele>2040.9</ele>
    <time>2026-06-24T07:39:53Z</time>
   </trkpt>
   <trkpt lat="-3.2017970" lon="37.3507510">
    <ele>2040.9</ele>
    <time>2026-06-24T07:39:54Z</time>
   </trkpt>
   <trkpt lat="-3.2018020" lon="37.3507590">
    <ele>2040.8</ele>
    <time>2026-06-24T07:39:55Z</time>
   </trkpt>
   <trkpt lat="-3.2017980" lon="37.3507620">
    <ele>2040.7</ele>
    <time>2026-06-24T07:39:56Z</time>
   </trkpt>
   <trkpt lat="-3.2017970" lon="37.3507630">
    <ele>2040.7</ele>
    <time>2026-06-24T07:39:57Z</time>
   </trkpt>
   <trkpt lat="-3.2017970" lon="37.3507630">
    <ele>2040.7</ele>
    <time>2026-06-24T07:39:58Z</time>
   </trkpt>
   <trkpt lat="-3.2017970" lon="37.3507630">
    <ele>2040.7</ele>
    <time>2026-06-24T07:39:59Z</time>
   </trkpt>
   <trkpt lat="-3.2017970" lon="37.3507630">
    <ele>2040.7</ele>
    <time>2026-06-24T07:40:00Z</time>
   </trkpt>
   <trkpt lat="-3.2017970" lon="37.3507630">
    <ele>2040.7</ele>
    <time>2026-06-24T07:40:01Z</time>
   </trkpt>
   <trkpt lat="-3.2017970" lon="37.3507630">
    <ele>2040.7</ele>
    <time>2026-06-24T07:40:02Z</time>
   </trkpt>
   <trkpt lat="-3.2017970" lon="37.3507630">
    <ele>2040.7</ele>
    <time>2026-06-24T07:40:03Z</time>
   </trkpt>
   <trkpt lat="-3.2017970" lon="37.3507630">
    <ele>2040.7</ele>
    <time>2026-06-24T07:40:04Z</time>
   </trkpt>
   <trkpt lat="-3.2017970" lon="37.3507630">
    <ele>2040.7</ele>
    <time>2026-06-24T07:40:05Z</time>
   </trkpt>
   <trkpt lat="-3.2017970" lon="37.3507630">
    <ele>2040.7</ele>
    <time>2026-06-24T07:40:06Z</time>
   </trkpt>
   <trkpt lat="-3.2017970" lon="37.3507630">
    <ele>2040.7</ele>
    <time>2026-06-24T07:40:07Z</time>
   </trkpt>
   <trkpt lat="-3.2017970" lon="37.3507630">
    <ele>2040.7</ele>
    <time>2026-06-24T07:40:08Z</time>
   </trkpt>
   <trkpt lat="-3.2017970" lon="37.3507630">
    <ele>2040.7</ele>
    <time>2026-06-24T07:40:09Z</time>
   </trkpt>
   <trkpt lat="-3.2017970" lon="37.3507630">
    <ele>2040.7</ele>
    <time>2026-06-24T07:40:10Z</time>
   </trkpt>
   <trkpt lat="-3.2017790" lon="37.3507580">
    <ele>2040.5</ele>
    <time>2026-06-24T07:40:11Z</time>
   </trkpt>
   <trkpt lat="-3.2017790" lon="37.3507580">
    <ele>2040.5</ele>
    <time>2026-06-24T07:40:12Z</time>
   </trkpt>
   <trkpt lat="-3.2017790" lon="37.3507580">
    <ele>2040.5</ele>
    <time>2026-06-24T07:40:13Z</time>
   </trkpt>
   <trkpt lat="-3.2017850" lon="37.3507490">
    <ele>2040.4</ele>
    <time>2026-06-24T07:40:14Z</time>
   </trkpt>
   <trkpt lat="-3.2017850" lon="37.3507490">
    <ele>2040.4</ele>
    <time>2026-06-24T07:40:15Z</time>
   </trkpt>
   <trkpt lat="-3.2017870" lon="37.3507490">
    <ele>2040.4</ele>
    <time>2026-06-24T07:40:16Z</time>
   </trkpt>
   <trkpt lat="-3.2017870" lon="37.3507490">
    <ele>2040.4</ele>
    <time>2026-06-24T07:40:17Z</time>
   </trkpt>
   <trkpt lat="-3.2017880" lon="37.3507470">
    <ele>2040.4</ele>
    <time>2026-06-24T07:40:18Z</time>
   </trkpt>
   <trkpt lat="-3.2017880" lon="37.3507470">
    <ele>2040.4</ele>
    <time>2026-06-24T07:40:19Z</time>
   </trkpt>
   <trkpt lat="-3.2017880" lon="37.3507470">
    <ele>2040.4</ele>
    <time>2026-06-24T07:40:20Z</time>
   </trkpt>
   <trkpt lat="-3.2017880" lon="37.3507470">
    <ele>2040.4</ele>
    <time>2026-06-24T07:40:21Z</time>
   </trkpt>
   <trkpt lat="-3.2017840" lon="37.3507500">
    <ele>2040.4</ele>
    <time>2026-06-24T07:40:22Z</time>
   </trkpt>
   <trkpt lat="-3.2017840" lon="37.3507500">
    <ele>2040.4</ele>
    <time>2026-06-24T07:40:23Z</time>
   </trkpt>
   <trkpt lat="-3.2017840" lon="37.3507500">
    <ele>2040.4</ele>
    <time>2026-06-24T07:40:24Z</time>
   </trkpt>
   <trkpt lat="-3.2017840" lon="37.3507500">
    <ele>2040.4</ele>
    <time>2026-06-24T07:40:25Z</time>
   </trkpt>
   <trkpt lat="-3.2017880" lon="37.3507510">
    <ele>2040.3</ele>
    <time>2026-06-24T07:40:26Z</time>
   </trkpt>
   <trkpt lat="-3.2017870" lon="37.3507520">
    <ele>2040.3</ele>
    <time>2026-06-24T07:40:27Z</time>
   </trkpt>
   <trkpt lat="-3.2017870" lon="37.3507520">
    <ele>2040.3</ele>
    <time>2026-06-24T07:40:28Z</time>
   </trkpt>
   <trkpt lat="-3.2017870" lon="37.3507520">
    <ele>2040.3</ele>
    <time>2026-06-24T07:40:29Z</time>
   </trkpt>
   <trkpt lat="-3.2017870" lon="37.3507520">
    <ele>2040.3</ele>
    <time>2026-06-24T07:40:30Z</time>
   </trkpt>
   <trkpt lat="-3.2017870" lon="37.3507520">
    <ele>2040.3</ele>
    <time>2026-06-24T07:40:31Z</time>
   </trkpt>
   <trkpt lat="-3.2017870" lon="37.3507520">
    <ele>2040.3</ele>
    <time>2026-06-24T07:40:32Z</time>
   </trkpt>
   <trkpt lat="-3.2017870" lon="37.3507520">
    <ele>2040.3</ele>
    <time>2026-06-24T07:40:33Z</time>
   </trkpt>
   <trkpt lat="-3.2018080" lon="37.3507530">
    <ele>2040.1</ele>
    <time>2026-06-24T07:40:34Z</time>
   </trkpt>
   <trkpt lat="-3.2018080" lon="37.3507530">
    <ele>2040.1</ele>
    <time>2026-06-24T07:40:35Z</time>
   </trkpt>
   <trkpt lat="-3.2018080" lon="37.3507530">
    <ele>2040.1</ele>
    <time>2026-06-24T07:40:36Z</time>
   </trkpt>
   <trkpt lat="-3.2018080" lon="37.3507530">
    <ele>2040.1</ele>
    <time>2026-06-24T07:40:37Z</time>
   </trkpt>
   <trkpt lat="-3.2018130" lon="37.3507500">
    <ele>2040.1</ele>
    <time>2026-06-24T07:40:38Z</time>
   </trkpt>
   <trkpt lat="-3.2018140" lon="37.3507460">
    <ele>2040.0</ele>
    <time>2026-06-24T07:40:39Z</time>
   </trkpt>
   <trkpt lat="-3.2018130" lon="37.3507460">
    <ele>2040.0</ele>
    <time>2026-06-24T07:40:40Z</time>
   </trkpt>
   <trkpt lat="-3.2018120" lon="37.3507480">
    <ele>2040.0</ele>
    <time>2026-06-24T07:40:41Z</time>
   </trkpt>
   <trkpt lat="-3.2018120" lon="37.3507480">
    <ele>2040.0</ele>
    <time>2026-06-24T07:40:42Z</time>
   </trkpt>
   <trkpt lat="-3.2018100" lon="37.3507490">
    <ele>2040.0</ele>
    <time>2026-06-24T07:40:43Z</time>
   </trkpt>
   <trkpt lat="-3.2018100" lon="37.3507490">
    <ele>2040.0</ele>
    <time>2026-06-24T07:40:44Z</time>
   </trkpt>
   <trkpt lat="-3.2018100" lon="37.3507490">
    <ele>2040.0</ele>
    <time>2026-06-24T07:40:45Z</time>
   </trkpt>
   <trkpt lat="-3.2018100" lon="37.3507490">
    <ele>2040.0</ele>
    <time>2026-06-24T07:40:46Z</time>
   </trkpt>
   <trkpt lat="-3.2018100" lon="37.3507490">
    <ele>2040.0</ele>
    <time>2026-06-24T07:40:47Z</time>
   </trkpt>
   <trkpt lat="-3.2018020" lon="37.3507550">
    <ele>2039.9</ele>
    <time>2026-06-24T07:40:48Z</time>
   </trkpt>
   <trkpt lat="-3.2018020" lon="37.3507550">
    <ele>2039.9</ele>
    <time>2026-06-24T07:40:49Z</time>
   </trkpt>
   <trkpt lat="-3.2018020" lon="37.3507510">
    <ele>2039.8</ele>
    <time>2026-06-24T07:40:50Z</time>
   </trkpt>
   <trkpt lat="-3.2018020" lon="37.3507510">
    <ele>2039.8</ele>
    <time>2026-06-24T07:40:51Z</time>
   </trkpt>
   <trkpt lat="-3.2018080" lon="37.3507480">
    <ele>2039.8</ele>
    <time>2026-06-24T07:40:52Z</time>
   </trkpt>
   <trkpt lat="-3.2018100" lon="37.3507430">
    <ele>2039.7</ele>
    <time>2026-06-24T07:40:53Z</time>
   </trkpt>
   <trkpt lat="-3.2018090" lon="37.3507420">
    <ele>2039.7</ele>
    <time>2026-06-24T07:40:54Z</time>
   </trkpt>
   <trkpt lat="-3.2018090" lon="37.3507420">
    <ele>2039.7</ele>
    <time>2026-06-24T07:40:55Z</time>
   </trkpt>
   <trkpt lat="-3.2018090" lon="37.3507420">
    <ele>2039.7</ele>
    <time>2026-06-24T07:40:56Z</time>
   </trkpt>
   <trkpt lat="-3.2018010" lon="37.3507370">
    <ele>2039.6</ele>
    <time>2026-06-24T07:40:57Z</time>
   </trkpt>
   <trkpt lat="-3.2018000" lon="37.3507350">
    <ele>2039.6</ele>
    <time>2026-06-24T07:40:58Z</time>
   </trkpt>
   <trkpt lat="-3.2018000" lon="37.3507340">
    <ele>2039.6</ele>
    <time>2026-06-24T07:40:59Z</time>
   </trkpt>
   <trkpt lat="-3.2018020" lon="37.3507410">
    <ele>2039.5</ele>
    <time>2026-06-24T07:41:00Z</time>
   </trkpt>
   <trkpt lat="-3.2018070" lon="37.3507410">
    <ele>2039.5</ele>
    <time>2026-06-24T07:41:01Z</time>
   </trkpt>
   <trkpt lat="-3.2018140" lon="37.3507370">
    <ele>2039.4</ele>
    <time>2026-06-24T07:41:02Z</time>
   </trkpt>
   <trkpt lat="-3.2018090" lon="37.3507400">
    <ele>2039.4</ele>
    <time>2026-06-24T07:41:03Z</time>
   </trkpt>
   <trkpt lat="-3.2018140" lon="37.3507360">
    <ele>2039.3</ele>
    <time>2026-06-24T07:41:04Z</time>
   </trkpt>
   <trkpt lat="-3.2018180" lon="37.3507400">
    <ele>2039.3</ele>
    <time>2026-06-24T07:41:05Z</time>
   </trkpt>
   <trkpt lat="-3.2018240" lon="37.3507430">
    <ele>2039.2</ele>
    <time>2026-06-24T07:41:06Z</time>
   </trkpt>
   <trkpt lat="-3.2018230" lon="37.3507390">
    <ele>2039.2</ele>
    <time>2026-06-24T07:41:07Z</time>
   </trkpt>
   <trkpt lat="-3.2018370" lon="37.3507380">
    <ele>2039.0</ele>
    <time>2026-06-24T07:41:08Z</time>
   </trkpt>
   <trkpt lat="-3.2018430" lon="37.3507340">
    <ele>2039.0</ele>
    <time>2026-06-24T07:41:09Z</time>
   </trkpt>
   <trkpt lat="-3.2018490" lon="37.3507360">
    <ele>2038.9</ele>
    <time>2026-06-24T07:41:10Z</time>
   </trkpt>
   <trkpt lat="-3.2018520" lon="37.3507340">
    <ele>2038.9</ele>
    <time>2026-06-24T07:41:11Z</time>
   </trkpt>
   <trkpt lat="-3.2018590" lon="37.3507400">
    <ele>2038.8</ele>
    <time>2026-06-24T07:41:12Z</time>
   </trkpt>
   <trkpt lat="-3.2018640" lon="37.3507370">
    <ele>2038.7</ele>
    <time>2026-06-24T07:41:13Z</time>
   </trkpt>
   <trkpt lat="-3.2018700" lon="37.3507440">
    <ele>2038.6</ele>
    <time>2026-06-24T07:41:14Z</time>
   </trkpt>
   <trkpt lat="-3.2018710" lon="37.3507410">
    <ele>2038.6</ele>
    <time>2026-06-24T07:41:15Z</time>
   </trkpt>
   <trkpt lat="-3.2018710" lon="37.3507470">
    <ele>2038.6</ele>
    <time>2026-06-24T07:41:16Z</time>
   </trkpt>
   <trkpt lat="-3.2018770" lon="37.3507500">
    <ele>2038.5</ele>
    <time>2026-06-24T07:41:17Z</time>
   </trkpt>
   <trkpt lat="-3.2018830" lon="37.3507560">
    <ele>2038.4</ele>
    <time>2026-06-24T07:41:18Z</time>
   </trkpt>
   <trkpt lat="-3.2018890" lon="37.3507610">
    <ele>2038.4</ele>
    <time>2026-06-24T07:41:19Z</time>
   </trkpt>
   <trkpt lat="-3.2018930" lon="37.3507570">
    <ele>2038.3</ele>
    <time>2026-06-24T07:41:20Z</time>
   </trkpt>
   <trkpt lat="-3.2019000" lon="37.3507630">
    <ele>2038.2</ele>
    <time>2026-06-24T07:41:21Z</time>
   </trkpt>
   <trkpt lat="-3.2019040" lon="37.3507700">
    <ele>2038.1</ele>
    <time>2026-06-24T07:41:22Z</time>
   </trkpt>
   <trkpt lat="-3.2019040" lon="37.3507730">
    <ele>2038.1</ele>
    <time>2026-06-24T07:41:23Z</time>
   </trkpt>
   <trkpt lat="-3.2019040" lon="37.3507740">
    <ele>2038.1</ele>
    <time>2026-06-24T07:41:24Z</time>
   </trkpt>
   <trkpt lat="-3.2019160" lon="37.3507640">
    <ele>2038.0</ele>
    <time>2026-06-24T07:41:25Z</time>
   </trkpt>
   <trkpt lat="-3.2019190" lon="37.3507520">
    <ele>2037.8</ele>
    <time>2026-06-24T07:41:26Z</time>
   </trkpt>
   <trkpt lat="-3.2019210" lon="37.3507480">
    <ele>2037.8</ele>
    <time>2026-06-24T07:41:27Z</time>
   </trkpt>
   <trkpt lat="-3.2019240" lon="37.3507430">
    <ele>2037.7</ele>
    <time>2026-06-24T07:41:28Z</time>
   </trkpt>
   <trkpt lat="-3.2019290" lon="37.3507420">
    <ele>2037.7</ele>
    <time>2026-06-24T07:41:29Z</time>
   </trkpt>
   <trkpt lat="-3.2019370" lon="37.3507370">
    <ele>2037.6</ele>
    <time>2026-06-24T07:41:30Z</time>
   </trkpt>
   <trkpt lat="-3.2019470" lon="37.3507270">
    <ele>2037.5</ele>
    <time>2026-06-24T07:41:31Z</time>
   </trkpt>
   <trkpt lat="-3.2019560" lon="37.3507270">
    <ele>2037.4</ele>
    <time>2026-06-24T07:41:32Z</time>
   </trkpt>
   <trkpt lat="-3.2019610" lon="37.3507280">
    <ele>2037.3</ele>
    <time>2026-06-24T07:41:33Z</time>
   </trkpt>
   <trkpt lat="-3.2019630" lon="37.3507350">
    <ele>2037.3</ele>
    <time>2026-06-24T07:41:34Z</time>
   </trkpt>
   <trkpt lat="-3.2019730" lon="37.3507350">
    <ele>2037.2</ele>
    <time>2026-06-24T07:41:35Z</time>
   </trkpt>
   <trkpt lat="-3.2019880" lon="37.3507260">
    <ele>2037.0</ele>
    <time>2026-06-24T07:41:36Z</time>
   </trkpt>
   <trkpt lat="-3.2019950" lon="37.3507190">
    <ele>2036.9</ele>
    <time>2026-06-24T07:41:37Z</time>
   </trkpt>
   <trkpt lat="-3.2020010" lon="37.3507190">
    <ele>2036.9</ele>
    <time>2026-06-24T07:41:38Z</time>
   </trkpt>
   <trkpt lat="-3.2020090" lon="37.3507230">
    <ele>2036.8</ele>
    <time>2026-06-24T07:41:39Z</time>
   </trkpt>
   <trkpt lat="-3.2020120" lon="37.3507170">
    <ele>2036.7</ele>
    <time>2026-06-24T07:41:40Z</time>
   </trkpt>
   <trkpt lat="-3.2020210" lon="37.3507170">
    <ele>2036.6</ele>
    <time>2026-06-24T07:41:41Z</time>
   </trkpt>
   <trkpt lat="-3.2020250" lon="37.3507140">
    <ele>2036.6</ele>
    <time>2026-06-24T07:41:42Z</time>
   </trkpt>
   <trkpt lat="-3.2020270" lon="37.3507080">
    <ele>2036.5</ele>
    <time>2026-06-24T07:41:43Z</time>
   </trkpt>
   <trkpt lat="-3.2020370" lon="37.3507040">
    <ele>2036.4</ele>
    <time>2026-06-24T07:41:45Z</time>
   </trkpt>
   <trkpt lat="-3.2020410" lon="37.3507010">
    <ele>2036.4</ele>
    <time>2026-06-24T07:41:46Z</time>
   </trkpt>
   <trkpt lat="-3.2020460" lon="37.3506970">
    <ele>2036.3</ele>
    <time>2026-06-24T07:41:47Z</time>
   </trkpt>
   <trkpt lat="-3.2020450" lon="37.3506900">
    <ele>2036.2</ele>
    <time>2026-06-24T07:41:48Z</time>
   </trkpt>
   <trkpt lat="-3.2020590" lon="37.3506860">
    <ele>2036.1</ele>
    <time>2026-06-24T07:41:49Z</time>
   </trkpt>
   <trkpt lat="-3.2020650" lon="37.3506850">
    <ele>2036.0</ele>
    <time>2026-06-24T07:41:50Z</time>
   </trkpt>
   <trkpt lat="-3.2020730" lon="37.3506760">
    <ele>2035.9</ele>
    <time>2026-06-24T07:41:51Z</time>
   </trkpt>
   <trkpt lat="-3.2020810" lon="37.3506720">
    <ele>2035.8</ele>
    <time>2026-06-24T07:41:52Z</time>
   </trkpt>
   <trkpt lat="-3.2020940" lon="37.3506670">
    <ele>2035.7</ele>
    <time>2026-06-24T07:41:53Z</time>
   </trkpt>
   <trkpt lat="-3.2021040" lon="37.3506630">
    <ele>2035.6</ele>
    <time>2026-06-24T07:41:54Z</time>
   </trkpt>
   <trkpt lat="-3.2021060" lon="37.3506610">
    <ele>2035.6</ele>
    <time>2026-06-24T07:41:55Z</time>
   </trkpt>
   <trkpt lat="-3.2021070" lon="37.3506570">
    <ele>2035.5</ele>
    <time>2026-06-24T07:41:56Z</time>
   </trkpt>
   <trkpt lat="-3.2021130" lon="37.3506540">
    <ele>2035.5</ele>
    <time>2026-06-24T07:41:57Z</time>
   </trkpt>
   <trkpt lat="-3.2021200" lon="37.3506530">
    <ele>2035.4</ele>
    <time>2026-06-24T07:41:58Z</time>
   </trkpt>
   <trkpt lat="-3.2021300" lon="37.3506500">
    <ele>2035.3</ele>
    <time>2026-06-24T07:41:59Z</time>
   </trkpt>
   <trkpt lat="-3.2021390" lon="37.3506450">
    <ele>2035.2</ele>
    <time>2026-06-24T07:42:00Z</time>
   </trkpt>
   <trkpt lat="-3.2021560" lon="37.3506360">
    <ele>2035.0</ele>
    <time>2026-06-24T07:42:01Z</time>
   </trkpt>
   <trkpt lat="-3.2021620" lon="37.3506290">
    <ele>2035.0</ele>
    <time>2026-06-24T07:42:02Z</time>
   </trkpt>
   <trkpt lat="-3.2021650" lon="37.3506290">
    <ele>2034.9</ele>
    <time>2026-06-24T07:42:03Z</time>
   </trkpt>
   <trkpt lat="-3.2021700" lon="37.3506280">
    <ele>2034.9</ele>
    <time>2026-06-24T07:42:04Z</time>
   </trkpt>
   <trkpt lat="-3.2021720" lon="37.3506260">
    <ele>2034.9</ele>
    <time>2026-06-24T07:42:05Z</time>
   </trkpt>
   <trkpt lat="-3.2021800" lon="37.3506220">
    <ele>2034.8</ele>
    <time>2026-06-24T07:42:06Z</time>
   </trkpt>
   <trkpt lat="-3.2021940" lon="37.3506170">
    <ele>2034.7</ele>
    <time>2026-06-24T07:42:07Z</time>
   </trkpt>
   <trkpt lat="-3.2021980" lon="37.3506200">
    <ele>2034.6</ele>
    <time>2026-06-24T07:42:08Z</time>
   </trkpt>
   <trkpt lat="-3.2021990" lon="37.3506200">
    <ele>2034.6</ele>
    <time>2026-06-24T07:42:09Z</time>
   </trkpt>
   <trkpt lat="-3.2022060" lon="37.3506170">
    <ele>2034.6</ele>
    <time>2026-06-24T07:42:10Z</time>
   </trkpt>
   <trkpt lat="-3.2022160" lon="37.3506080">
    <ele>2034.5</ele>
    <time>2026-06-24T07:42:11Z</time>
   </trkpt>
   <trkpt lat="-3.2022240" lon="37.3505980">
    <ele>2034.4</ele>
    <time>2026-06-24T07:42:12Z</time>
   </trkpt>
   <trkpt lat="-3.2022390" lon="37.3505880">
    <ele>2034.2</ele>
    <time>2026-06-24T07:42:13Z</time>
   </trkpt>
   <trkpt lat="-3.2022430" lon="37.3505880">
    <ele>2034.2</ele>
    <time>2026-06-24T07:42:14Z</time>
   </trkpt>
   <trkpt lat="-3.2022380" lon="37.3505890">
    <ele>2034.2</ele>
    <time>2026-06-24T07:42:15Z</time>
   </trkpt>
   <trkpt lat="-3.2022400" lon="37.3505890">
    <ele>2034.2</ele>
    <time>2026-06-24T07:42:16Z</time>
   </trkpt>
   <trkpt lat="-3.2022490" lon="37.3505840">
    <ele>2034.1</ele>
    <time>2026-06-24T07:42:17Z</time>
   </trkpt>
   <trkpt lat="-3.2022500" lon="37.3505780">
    <ele>2034.0</ele>
    <time>2026-06-24T07:42:18Z</time>
   </trkpt>
   <trkpt lat="-3.2022480" lon="37.3505660">
    <ele>2034.0</ele>
    <time>2026-06-24T07:42:19Z</time>
   </trkpt>
   <trkpt lat="-3.2022550" lon="37.3505510">
    <ele>2033.9</ele>
    <time>2026-06-24T07:42:20Z</time>
   </trkpt>
   <trkpt lat="-3.2022560" lon="37.3505450">
    <ele>2033.8</ele>
    <time>2026-06-24T07:42:21Z</time>
   </trkpt>
   <trkpt lat="-3.2022620" lon="37.3505340">
    <ele>2033.7</ele>
    <time>2026-06-24T07:42:22Z</time>
   </trkpt>
   <trkpt lat="-3.2022690" lon="37.3505130">
    <ele>2033.6</ele>
    <time>2026-06-24T07:42:23Z</time>
   </trkpt>
   <trkpt lat="-3.2022790" lon="37.3505060">
    <ele>2033.5</ele>
    <time>2026-06-24T07:42:24Z</time>
   </trkpt>
   <trkpt lat="-3.2022890" lon="37.3505090">
    <ele>2033.4</ele>
    <time>2026-06-24T07:42:25Z</time>
   </trkpt>
   <trkpt lat="-3.2022970" lon="37.3505070">
    <ele>2033.4</ele>
    <time>2026-06-24T07:42:26Z</time>
   </trkpt>
   <trkpt lat="-3.2022980" lon="37.3505040">
    <ele>2033.4</ele>
    <time>2026-06-24T07:42:27Z</time>
   </trkpt>
   <trkpt lat="-3.2023020" lon="37.3505000">
    <ele>2033.3</ele>
    <time>2026-06-24T07:42:28Z</time>
   </trkpt>
   <trkpt lat="-3.2023060" lon="37.3504920">
    <ele>2033.3</ele>
    <time>2026-06-24T07:42:29Z</time>
   </trkpt>
   <trkpt lat="-3.2023060" lon="37.3504880">
    <ele>2033.2</ele>
    <time>2026-06-24T07:42:30Z</time>
   </trkpt>
   <trkpt lat="-3.2023070" lon="37.3504810">
    <ele>2033.2</ele>
    <time>2026-06-24T07:42:31Z</time>
   </trkpt>
   <trkpt lat="-3.2023130" lon="37.3504720">
    <ele>2033.1</ele>
    <time>2026-06-24T07:42:32Z</time>
   </trkpt>
   <trkpt lat="-3.2023140" lon="37.3504690">
    <ele>2033.1</ele>
    <time>2026-06-24T07:42:33Z</time>
   </trkpt>
   <trkpt lat="-3.2023180" lon="37.3504620">
    <ele>2033.0</ele>
    <time>2026-06-24T07:42:34Z</time>
   </trkpt>
   <trkpt lat="-3.2023210" lon="37.3504510">
    <ele>2033.0</ele>
    <time>2026-06-24T07:42:35Z</time>
   </trkpt>
   <trkpt lat="-3.2023240" lon="37.3504540">
    <ele>2032.9</ele>
    <time>2026-06-24T07:42:36Z</time>
   </trkpt>
   <trkpt lat="-3.2023320" lon="37.3504500">
    <ele>2032.9</ele>
    <time>2026-06-24T07:42:37Z</time>
   </trkpt>
   <trkpt lat="-3.2023480" lon="37.3504450">
    <ele>2032.7</ele>
    <time>2026-06-24T07:42:38Z</time>
   </trkpt>
   <trkpt lat="-3.2023580" lon="37.3504320">
    <ele>2032.6</ele>
    <time>2026-06-24T07:42:39Z</time>
   </trkpt>
   <trkpt lat="-3.2023630" lon="37.3504230">
    <ele>2032.5</ele>
    <time>2026-06-24T07:42:40Z</time>
   </trkpt>
   <trkpt lat="-3.2023620" lon="37.3504170">
    <ele>2032.5</ele>
    <time>2026-06-24T07:42:41Z</time>
   </trkpt>
   <trkpt lat="-3.2023700" lon="37.3504100">
    <ele>2032.3</ele>
    <time>2026-06-24T07:42:42Z</time>
   </trkpt>
   <trkpt lat="-3.2023760" lon="37.3504010">
    <ele>2032.2</ele>
    <time>2026-06-24T07:42:43Z</time>
   </trkpt>
   <trkpt lat="-3.2023790" lon="37.3503910">
    <ele>2032.1</ele>
    <time>2026-06-24T07:42:44Z</time>
   </trkpt>
   <trkpt lat="-3.2023800" lon="37.3503850">
    <ele>2032.1</ele>
    <time>2026-06-24T07:42:45Z</time>
   </trkpt>
   <trkpt lat="-3.2023820" lon="37.3503790">
    <ele>2032.0</ele>
    <time>2026-06-24T07:42:46Z</time>
   </trkpt>
   <trkpt lat="-3.2023830" lon="37.3503760">
    <ele>2032.0</ele>
    <time>2026-06-24T07:42:47Z</time>
   </trkpt>
   <trkpt lat="-3.2023960" lon="37.3503700">
    <ele>2031.8</ele>
    <time>2026-06-24T07:42:48Z</time>
   </trkpt>
   <trkpt lat="-3.2023940" lon="37.3503690">
    <ele>2031.8</ele>
    <time>2026-06-24T07:42:49Z</time>
   </trkpt>
   <trkpt lat="-3.2024000" lon="37.3503640">
    <ele>2031.7</ele>
    <time>2026-06-24T07:42:50Z</time>
   </trkpt>
   <trkpt lat="-3.2024010" lon="37.3503550">
    <ele>2031.6</ele>
    <time>2026-06-24T07:42:51Z</time>
   </trkpt>
   <trkpt lat="-3.2024010" lon="37.3503520">
    <ele>2031.6</ele>
    <time>2026-06-24T07:42:52Z</time>
   </trkpt>
   <trkpt lat="-3.2024040" lon="37.3503510">
    <ele>2031.5</ele>
    <time>2026-06-24T07:42:53Z</time>
   </trkpt>
   <trkpt lat="-3.2024060" lon="37.3503450">
    <ele>2031.4</ele>
    <time>2026-06-24T07:42:54Z</time>
   </trkpt>
   <trkpt lat="-3.2024140" lon="37.3503260">
    <ele>2031.2</ele>
    <time>2026-06-24T07:42:55Z</time>
   </trkpt>
   <trkpt lat="-3.2024150" lon="37.3503260">
    <ele>2031.2</ele>
    <time>2026-06-24T07:42:56Z</time>
   </trkpt>
   <trkpt lat="-3.2024220" lon="37.3503200">
    <ele>2031.1</ele>
    <time>2026-06-24T07:42:57Z</time>
   </trkpt>
   <trkpt lat="-3.2024240" lon="37.3503100">
    <ele>2030.9</ele>
    <time>2026-06-24T07:42:58Z</time>
   </trkpt>
   <trkpt lat="-3.2024280" lon="37.3503070">
    <ele>2030.8</ele>
    <time>2026-06-24T07:42:59Z</time>
   </trkpt>
   <trkpt lat="-3.2024340" lon="37.3502940">
    <ele>2030.6</ele>
    <time>2026-06-24T07:43:00Z</time>
   </trkpt>
   <trkpt lat="-3.2024410" lon="37.3502910">
    <ele>2030.5</ele>
    <time>2026-06-24T07:43:01Z</time>
   </trkpt>
   <trkpt lat="-3.2024460" lon="37.3502820">
    <ele>2030.4</ele>
    <time>2026-06-24T07:43:02Z</time>
   </trkpt>
   <trkpt lat="-3.2024520" lon="37.3502680">
    <ele>2030.2</ele>
    <time>2026-06-24T07:43:03Z</time>
   </trkpt>
   <trkpt lat="-3.2024530" lon="37.3502590">
    <ele>2030.0</ele>
    <time>2026-06-24T07:43:04Z</time>
   </trkpt>
   <trkpt lat="-3.2024570" lon="37.3502490">
    <ele>2029.9</ele>
    <time>2026-06-24T07:43:05Z</time>
   </trkpt>
   <trkpt lat="-3.2024620" lon="37.3502400">
    <ele>2029.7</ele>
    <time>2026-06-24T07:43:06Z</time>
   </trkpt>
   <trkpt lat="-3.2024660" lon="37.3502310">
    <ele>2029.6</ele>
    <time>2026-06-24T07:43:07Z</time>
   </trkpt>
   <trkpt lat="-3.2024680" lon="37.3502240">
    <ele>2029.5</ele>
    <time>2026-06-24T07:43:08Z</time>
   </trkpt>
   <trkpt lat="-3.2024680" lon="37.3502220">
    <ele>2029.4</ele>
    <time>2026-06-24T07:43:09Z</time>
   </trkpt>
   <trkpt lat="-3.2024680" lon="37.3502300">
    <ele>2029.3</ele>
    <time>2026-06-24T07:43:10Z</time>
   </trkpt>
   <trkpt lat="-3.2024720" lon="37.3502280">
    <ele>2029.2</ele>
    <time>2026-06-24T07:43:11Z</time>
   </trkpt>
   <trkpt lat="-3.2024760" lon="37.3502210">
    <ele>2029.1</ele>
    <time>2026-06-24T07:43:12Z</time>
   </trkpt>
   <trkpt lat="-3.2024810" lon="37.3502190">
    <ele>2029.0</ele>
    <time>2026-06-24T07:43:13Z</time>
   </trkpt>
   <trkpt lat="-3.2024910" lon="37.3502170">
    <ele>2028.9</ele>
    <time>2026-06-24T07:43:14Z</time>
   </trkpt>
   <trkpt lat="-3.2024960" lon="37.3502130">
    <ele>2028.8</ele>
    <time>2026-06-24T07:43:15Z</time>
   </trkpt>
   <trkpt lat="-3.2024940" lon="37.3502170">
    <ele>2028.7</ele>
    <time>2026-06-24T07:43:16Z</time>
   </trkpt>
   <trkpt lat="-3.2025010" lon="37.3502140">
    <ele>2028.6</ele>
    <time>2026-06-24T07:43:17Z</time>
   </trkpt>
   <trkpt lat="-3.2025030" lon="37.3502160">
    <ele>2028.5</ele>
    <time>2026-06-24T07:43:18Z</time>
   </trkpt>
   <trkpt lat="-3.2025100" lon="37.3502090">
    <ele>2028.4</ele>
    <time>2026-06-24T07:43:19Z</time>
   </trkpt>
   <trkpt lat="-3.2025140" lon="37.3502080">
    <ele>2028.3</ele>
    <time>2026-06-24T07:43:20Z</time>
   </trkpt>
   <trkpt lat="-3.2025220" lon="37.3502000">
    <ele>2028.1</ele>
    <time>2026-06-24T07:43:21Z</time>
   </trkpt>
   <trkpt lat="-3.2025290" lon="37.3501990">
    <ele>2028.0</ele>
    <time>2026-06-24T07:43:22Z</time>
   </trkpt>
   <trkpt lat="-3.2025320" lon="37.3501980">
    <ele>2028.0</ele>
    <time>2026-06-24T07:43:23Z</time>
   </trkpt>
   <trkpt lat="-3.2025360" lon="37.3501980">
    <ele>2027.9</ele>
    <time>2026-06-24T07:43:24Z</time>
   </trkpt>
   <trkpt lat="-3.2025440" lon="37.3501950">
    <ele>2027.8</ele>
    <time>2026-06-24T07:43:25Z</time>
   </trkpt>
   <trkpt lat="-3.2025480" lon="37.3501900">
    <ele>2027.7</ele>
    <time>2026-06-24T07:43:26Z</time>
   </trkpt>
   <trkpt lat="-3.2025570" lon="37.3501900">
    <ele>2027.5</ele>
    <time>2026-06-24T07:43:27Z</time>
   </trkpt>
   <trkpt lat="-3.2025600" lon="37.3501980">
    <ele>2027.4</ele>
    <time>2026-06-24T07:43:28Z</time>
   </trkpt>
   <trkpt lat="-3.2025620" lon="37.3501950">
    <ele>2027.3</ele>
    <time>2026-06-24T07:43:29Z</time>
   </trkpt>
   <trkpt lat="-3.2025680" lon="37.3501950">
    <ele>2027.2</ele>
    <time>2026-06-24T07:43:30Z</time>
   </trkpt>
   <trkpt lat="-3.2025740" lon="37.3502000">
    <ele>2027.1</ele>
    <time>2026-06-24T07:43:31Z</time>
   </trkpt>
   <trkpt lat="-3.2025840" lon="37.3501930">
    <ele>2026.9</ele>
    <time>2026-06-24T07:43:32Z</time>
   </trkpt>
   <trkpt lat="-3.2025880" lon="37.3501940">
    <ele>2026.8</ele>
    <time>2026-06-24T07:43:33Z</time>
   </trkpt>
   <trkpt lat="-3.2025900" lon="37.3501910">
    <ele>2026.8</ele>
    <time>2026-06-24T07:43:34Z</time>
   </trkpt>
   <trkpt lat="-3.2026040" lon="37.3501860">
    <ele>2026.5</ele>
    <time>2026-06-24T07:43:35Z</time>
   </trkpt>
   <trkpt lat="-3.2026170" lon="37.3501890">
    <ele>2026.3</ele>
    <time>2026-06-24T07:43:36Z</time>
   </trkpt>
   <trkpt lat="-3.2026200" lon="37.3501870">
    <ele>2026.3</ele>
    <time>2026-06-24T07:43:37Z</time>
   </trkpt>
   <trkpt lat="-3.2026170" lon="37.3501910">
    <ele>2026.2</ele>
    <time>2026-06-24T07:43:38Z</time>
   </trkpt>
   <trkpt lat="-3.2026230" lon="37.3501930">
    <ele>2026.1</ele>
    <time>2026-06-24T07:43:39Z</time>
   </trkpt>
   <trkpt lat="-3.2026280" lon="37.3501920">
    <ele>2026.0</ele>
    <time>2026-06-24T07:43:40Z</time>
   </trkpt>
   <trkpt lat="-3.2026360" lon="37.3501870">
    <ele>2025.8</ele>
    <time>2026-06-24T07:43:41Z</time>
   </trkpt>
   <trkpt lat="-3.2026320" lon="37.3501890">
    <ele>2025.8</ele>
    <time>2026-06-24T07:43:42Z</time>
   </trkpt>
   <trkpt lat="-3.2026330" lon="37.3501940">
    <ele>2025.7</ele>
    <time>2026-06-24T07:43:43Z</time>
   </trkpt>
   <trkpt lat="-3.2026270" lon="37.3501950">
    <ele>2025.6</ele>
    <time>2026-06-24T07:43:44Z</time>
   </trkpt>
   <trkpt lat="-3.2026250" lon="37.3501970">
    <ele>2025.5</ele>
    <time>2026-06-24T07:43:45Z</time>
   </trkpt>
   <trkpt lat="-3.2026260" lon="37.3501960">
    <ele>2025.5</ele>
    <time>2026-06-24T07:43:46Z</time>
   </trkpt>
   <trkpt lat="-3.2026340" lon="37.3501950">
    <ele>2025.4</ele>
    <time>2026-06-24T07:43:47Z</time>
   </trkpt>
   <trkpt lat="-3.2026410" lon="37.3501920">
    <ele>2025.2</ele>
    <time>2026-06-24T07:43:48Z</time>
   </trkpt>
   <trkpt lat="-3.2026430" lon="37.3501840">
    <ele>2025.1</ele>
    <time>2026-06-24T07:43:49Z</time>
   </trkpt>
   <trkpt lat="-3.2026450" lon="37.3501770">
    <ele>2025.0</ele>
    <time>2026-06-24T07:43:51Z</time>
   </trkpt>
   <trkpt lat="-3.2026450" lon="37.3501710">
    <ele>2024.9</ele>
    <time>2026-06-24T07:43:52Z</time>
   </trkpt>
   <trkpt lat="-3.2026550" lon="37.3501670">
    <ele>2024.7</ele>
    <time>2026-06-24T07:43:53Z</time>
   </trkpt>
   <trkpt lat="-3.2026630" lon="37.3501610">
    <ele>2024.6</ele>
    <time>2026-06-24T07:43:54Z</time>
   </trkpt>
   <trkpt lat="-3.2026710" lon="37.3501580">
    <ele>2024.4</ele>
    <time>2026-06-24T07:43:55Z</time>
   </trkpt>
   <trkpt lat="-3.2026750" lon="37.3501540">
    <ele>2024.3</ele>
    <time>2026-06-24T07:43:56Z</time>
   </trkpt>
   <trkpt lat="-3.2026740" lon="37.3501550">
    <ele>2024.3</ele>
    <time>2026-06-24T07:43:57Z</time>
   </trkpt>
   <trkpt lat="-3.2026740" lon="37.3501540">
    <ele>2024.3</ele>
    <time>2026-06-24T07:43:58Z</time>
   </trkpt>
   <trkpt lat="-3.2026860" lon="37.3501480">
    <ele>2024.1</ele>
    <time>2026-06-24T07:43:59Z</time>
   </trkpt>
   <trkpt lat="-3.2026950" lon="37.3501390">
    <ele>2023.9</ele>
    <time>2026-06-24T07:44:00Z</time>
   </trkpt>
   <trkpt lat="-3.2026980" lon="37.3501390">
    <ele>2023.8</ele>
    <time>2026-06-24T07:44:01Z</time>
   </trkpt>
   <trkpt lat="-3.2027030" lon="37.3501380">
    <ele>2023.7</ele>
    <time>2026-06-24T07:44:02Z</time>
   </trkpt>
   <trkpt lat="-3.2027140" lon="37.3501350">
    <ele>2023.5</ele>
    <time>2026-06-24T07:44:03Z</time>
   </trkpt>
   <trkpt lat="-3.2027100" lon="37.3501410">
    <ele>2023.4</ele>
    <time>2026-06-24T07:44:04Z</time>
   </trkpt>
   <trkpt lat="-3.2027050" lon="37.3501420">
    <ele>2023.3</ele>
    <time>2026-06-24T07:44:05Z</time>
   </trkpt>
   <trkpt lat="-3.2027090" lon="37.3501400">
    <ele>2023.3</ele>
    <time>2026-06-24T07:44:06Z</time>
   </trkpt>
   <trkpt lat="-3.2027090" lon="37.3501430">
    <ele>2023.2</ele>
    <time>2026-06-24T07:44:07Z</time>
   </trkpt>
   <trkpt lat="-3.2027130" lon="37.3501370">
    <ele>2023.1</ele>
    <time>2026-06-24T07:44:08Z</time>
   </trkpt>
   <trkpt lat="-3.2027070" lon="37.3501280">
    <ele>2022.9</ele>
    <time>2026-06-24T07:44:09Z</time>
   </trkpt>
   <trkpt lat="-3.2027100" lon="37.3501240">
    <ele>2022.8</ele>
    <time>2026-06-24T07:44:10Z</time>
   </trkpt>
   <trkpt lat="-3.2027140" lon="37.3501250">
    <ele>2022.8</ele>
    <time>2026-06-24T07:44:11Z</time>
   </trkpt>
   <trkpt lat="-3.2027230" lon="37.3501230">
    <ele>2022.6</ele>
    <time>2026-06-24T07:44:12Z</time>
   </trkpt>
   <trkpt lat="-3.2027250" lon="37.3501190">
    <ele>2022.6</ele>
    <time>2026-06-24T07:44:13Z</time>
   </trkpt>
   <trkpt lat="-3.2027290" lon="37.3501170">
    <ele>2022.5</ele>
    <time>2026-06-24T07:44:14Z</time>
   </trkpt>
   <trkpt lat="-3.2027390" lon="37.3501110">
    <ele>2022.3</ele>
    <time>2026-06-24T07:44:15Z</time>
   </trkpt>
   <trkpt lat="-3.2027630" lon="37.3501060">
    <ele>2021.9</ele>
    <time>2026-06-24T07:44:16Z</time>
   </trkpt>
   <trkpt lat="-3.2027650" lon="37.3501070">
    <ele>2021.9</ele>
    <time>2026-06-24T07:44:17Z</time>
   </trkpt>
   <trkpt lat="-3.2027730" lon="37.3500980">
    <ele>2021.7</ele>
    <time>2026-06-24T07:44:18Z</time>
   </trkpt>
   <trkpt lat="-3.2027770" lon="37.3500980">
    <ele>2021.7</ele>
    <time>2026-06-24T07:44:19Z</time>
   </trkpt>
   <trkpt lat="-3.2027790" lon="37.3500980">
    <ele>2021.6</ele>
    <time>2026-06-24T07:44:20Z</time>
   </trkpt>
   <trkpt lat="-3.2027880" lon="37.3500920">
    <ele>2021.5</ele>
    <time>2026-06-24T07:44:21Z</time>
   </trkpt>
   <trkpt lat="-3.2027930" lon="37.3500850">
    <ele>2021.3</ele>
    <time>2026-06-24T07:44:22Z</time>
   </trkpt>
   <trkpt lat="-3.2027990" lon="37.3500780">
    <ele>2021.2</ele>
    <time>2026-06-24T07:44:23Z</time>
   </trkpt>
   <trkpt lat="-3.2028030" lon="37.3500740">
    <ele>2021.1</ele>
    <time>2026-06-24T07:44:24Z</time>
   </trkpt>
   <trkpt lat="-3.2028060" lon="37.3500770">
    <ele>2021.0</ele>
    <time>2026-06-24T07:44:25Z</time>
   </trkpt>
   <trkpt lat="-3.2028130" lon="37.3500700">
    <ele>2020.9</ele>
    <time>2026-06-24T07:44:26Z</time>
   </trkpt>
   <trkpt lat="-3.2028200" lon="37.3500690">
    <ele>2020.8</ele>
    <time>2026-06-24T07:44:27Z</time>
   </trkpt>
   <trkpt lat="-3.2028260" lon="37.3500690">
    <ele>2020.7</ele>
    <time>2026-06-24T07:44:28Z</time>
   </trkpt>
   <trkpt lat="-3.2028290" lon="37.3500680">
    <ele>2020.7</ele>
    <time>2026-06-24T07:44:29Z</time>
   </trkpt>
   <trkpt lat="-3.2028360" lon="37.3500540">
    <ele>2020.5</ele>
    <time>2026-06-24T07:44:30Z</time>
   </trkpt>
   <trkpt lat="-3.2028370" lon="37.3500470">
    <ele>2020.4</ele>
    <time>2026-06-24T07:44:31Z</time>
   </trkpt>
   <trkpt lat="-3.2028450" lon="37.3500380">
    <ele>2020.2</ele>
    <time>2026-06-24T07:44:32Z</time>
   </trkpt>
   <trkpt lat="-3.2028440" lon="37.3500300">
    <ele>2020.1</ele>
    <time>2026-06-24T07:44:33Z</time>
   </trkpt>
   <trkpt lat="-3.2028490" lon="37.3500210">
    <ele>2020.0</ele>
    <time>2026-06-24T07:44:34Z</time>
   </trkpt>
   <trkpt lat="-3.2028520" lon="37.3500180">
    <ele>2019.9</ele>
    <time>2026-06-24T07:44:35Z</time>
   </trkpt>
   <trkpt lat="-3.2028550" lon="37.3500210">
    <ele>2019.9</ele>
    <time>2026-06-24T07:44:36Z</time>
   </trkpt>
   <trkpt lat="-3.2028590" lon="37.3500220">
    <ele>2019.8</ele>
    <time>2026-06-24T07:44:37Z</time>
   </trkpt>
   <trkpt lat="-3.2028670" lon="37.3500220">
    <ele>2019.7</ele>
    <time>2026-06-24T07:44:38Z</time>
   </trkpt>
   <trkpt lat="-3.2028720" lon="37.3500170">
    <ele>2019.6</ele>
    <time>2026-06-24T07:44:39Z</time>
   </trkpt>
   <trkpt lat="-3.2028790" lon="37.3500080">
    <ele>2019.5</ele>
    <time>2026-06-24T07:44:40Z</time>
   </trkpt>
   <trkpt lat="-3.2028790" lon="37.3500030">
    <ele>2019.4</ele>
    <time>2026-06-24T07:44:41Z</time>
   </trkpt>
   <trkpt lat="-3.2028820" lon="37.3499990">
    <ele>2019.4</ele>
    <time>2026-06-24T07:44:42Z</time>
   </trkpt>
   <trkpt lat="-3.2028800" lon="37.3499900">
    <ele>2019.2</ele>
    <time>2026-06-24T07:44:43Z</time>
   </trkpt>
   <trkpt lat="-3.2028820" lon="37.3499840">
    <ele>2019.2</ele>
    <time>2026-06-24T07:44:44Z</time>
   </trkpt>
   <trkpt lat="-3.2028820" lon="37.3499830">
    <ele>2019.2</ele>
    <time>2026-06-24T07:44:45Z</time>
   </trkpt>
   <trkpt lat="-3.2028770" lon="37.3499780">
    <ele>2019.1</ele>
    <time>2026-06-24T07:44:46Z</time>
   </trkpt>
   <trkpt lat="-3.2028810" lon="37.3499650">
    <ele>2018.9</ele>
    <time>2026-06-24T07:44:47Z</time>
   </trkpt>
   <trkpt lat="-3.2028790" lon="37.3499610">
    <ele>2018.9</ele>
    <time>2026-06-24T07:44:48Z</time>
   </trkpt>
   <trkpt lat="-3.2028800" lon="37.3499600">
    <ele>2018.8</ele>
    <time>2026-06-24T07:44:49Z</time>
   </trkpt>
   <trkpt lat="-3.2028800" lon="37.3499620">
    <ele>2018.8</ele>
    <time>2026-06-24T07:44:50Z</time>
   </trkpt>
   <trkpt lat="-3.2028800" lon="37.3499580">
    <ele>2018.8</ele>
    <time>2026-06-24T07:44:51Z</time>
   </trkpt>
   <trkpt lat="-3.2028830" lon="37.3499490">
    <ele>2018.7</ele>
    <time>2026-06-24T07:44:52Z</time>
   </trkpt>
   <trkpt lat="-3.2028870" lon="37.3499430">
    <ele>2018.6</ele>
    <time>2026-06-24T07:44:53Z</time>
   </trkpt>
   <trkpt lat="-3.2028940" lon="37.3499370">
    <ele>2018.5</ele>
    <time>2026-06-24T07:44:54Z</time>
   </trkpt>
   <trkpt lat="-3.2028990" lon="37.3499350">
    <ele>2018.5</ele>
    <time>2026-06-24T07:44:55Z</time>
   </trkpt>
   <trkpt lat="-3.2029020" lon="37.3499290">
    <ele>2018.4</ele>
    <time>2026-06-24T07:44:56Z</time>
   </trkpt>
   <trkpt lat="-3.2029080" lon="37.3499240">
    <ele>2018.3</ele>
    <time>2026-06-24T07:44:57Z</time>
   </trkpt>
   <trkpt lat="-3.2029160" lon="37.3499160">
    <ele>2018.2</ele>
    <time>2026-06-24T07:44:58Z</time>
   </trkpt>
   <trkpt lat="-3.2029180" lon="37.3499100">
    <ele>2018.1</ele>
    <time>2026-06-24T07:44:59Z</time>
   </trkpt>
   <trkpt lat="-3.2029200" lon="37.3499020">
    <ele>2018.0</ele>
    <time>2026-06-24T07:45:00Z</time>
   </trkpt>
   <trkpt lat="-3.2029240" lon="37.3499090">
    <ele>2017.9</ele>
    <time>2026-06-24T07:45:01Z</time>
   </trkpt>
   <trkpt lat="-3.2029280" lon="37.3499070">
    <ele>2017.9</ele>
    <time>2026-06-24T07:45:02Z</time>
   </trkpt>
   <trkpt lat="-3.2029350" lon="37.3499020">
    <ele>2017.8</ele>
    <time>2026-06-24T07:45:03Z</time>
   </trkpt>
   <trkpt lat="-3.2029460" lon="37.3498990">
    <ele>2017.7</ele>
    <time>2026-06-24T07:45:04Z</time>
   </trkpt>
   <trkpt lat="-3.2029470" lon="37.3498880">
    <ele>2017.6</ele>
    <time>2026-06-24T07:45:05Z</time>
   </trkpt>
   <trkpt lat="-3.2029530" lon="37.3498790">
    <ele>2017.5</ele>
    <time>2026-06-24T07:45:06Z</time>
   </trkpt>
   <trkpt lat="-3.2029620" lon="37.3498710">
    <ele>2017.4</ele>
    <time>2026-06-24T07:45:07Z</time>
   </trkpt>
   <trkpt lat="-3.2029610" lon="37.3498690">
    <ele>2017.4</ele>
    <time>2026-06-24T07:45:08Z</time>
   </trkpt>
   <trkpt lat="-3.2029650" lon="37.3498630">
    <ele>2017.4</ele>
    <time>2026-06-24T07:45:09Z</time>
   </trkpt>
   <trkpt lat="-3.2029690" lon="37.3498590">
    <ele>2017.3</ele>
    <time>2026-06-24T07:45:10Z</time>
   </trkpt>
   <trkpt lat="-3.2029800" lon="37.3498500">
    <ele>2017.2</ele>
    <time>2026-06-24T07:45:11Z</time>
   </trkpt>
   <trkpt lat="-3.2029900" lon="37.3498370">
    <ele>2017.1</ele>
    <time>2026-06-24T07:45:12Z</time>
   </trkpt>
   <trkpt lat="-3.2029920" lon="37.3498300">
    <ele>2017.1</ele>
    <time>2026-06-24T07:45:13Z</time>
   </trkpt>
   <trkpt lat="-3.2029940" lon="37.3498240">
    <ele>2017.0</ele>
    <time>2026-06-24T07:45:14Z</time>
   </trkpt>
   <trkpt lat="-3.2030010" lon="37.3498180">
    <ele>2017.0</ele>
    <time>2026-06-24T07:45:15Z</time>
   </trkpt>
   <trkpt lat="-3.2029980" lon="37.3498150">
    <ele>2017.0</ele>
    <time>2026-06-24T07:45:16Z</time>
   </trkpt>
   <trkpt lat="-3.2029940" lon="37.3498040">
    <ele>2016.9</ele>
    <time>2026-06-24T07:45:17Z</time>
   </trkpt>
   <trkpt lat="-3.2029950" lon="37.3497910">
    <ele>2016.8</ele>
    <time>2026-06-24T07:45:18Z</time>
   </trkpt>
   <trkpt lat="-3.2030040" lon="37.3497850">
    <ele>2016.7</ele>
    <time>2026-06-24T07:45:19Z</time>
   </trkpt>
   <trkpt lat="-3.2030130" lon="37.3497760">
    <ele>2016.7</ele>
    <time>2026-06-24T07:45:20Z</time>
   </trkpt>
   <trkpt lat="-3.2030120" lon="37.3497720">
    <ele>2016.6</ele>
    <time>2026-06-24T07:45:21Z</time>
   </trkpt>
   <trkpt lat="-3.2030130" lon="37.3497580">
    <ele>2016.5</ele>
    <time>2026-06-24T07:45:22Z</time>
   </trkpt>
   <trkpt lat="-3.2030110" lon="37.3497520">
    <ele>2016.5</ele>
    <time>2026-06-24T07:45:23Z</time>
   </trkpt>
   <trkpt lat="-3.2030110" lon="37.3497480">
    <ele>2016.5</ele>
    <time>2026-06-24T07:45:24Z</time>
   </trkpt>
   <trkpt lat="-3.2030090" lon="37.3497480">
    <ele>2016.4</ele>
    <time>2026-06-24T07:45:25Z</time>
   </trkpt>
   <trkpt lat="-3.2030120" lon="37.3497450">
    <ele>2016.4</ele>
    <time>2026-06-24T07:45:26Z</time>
   </trkpt>
   <trkpt lat="-3.2030170" lon="37.3497400">
    <ele>2016.4</ele>
    <time>2026-06-24T07:45:27Z</time>
   </trkpt>
   <trkpt lat="-3.2030200" lon="37.3497390">
    <ele>2016.3</ele>
    <time>2026-06-24T07:45:28Z</time>
   </trkpt>
   <trkpt lat="-3.2030230" lon="37.3497310">
    <ele>2016.3</ele>
    <time>2026-06-24T07:45:29Z</time>
   </trkpt>
   <trkpt lat="-3.2030340" lon="37.3497240">
    <ele>2016.2</ele>
    <time>2026-06-24T07:45:30Z</time>
   </trkpt>
   <trkpt lat="-3.2030410" lon="37.3497160">
    <ele>2016.1</ele>
    <time>2026-06-24T07:45:31Z</time>
   </trkpt>
   <trkpt lat="-3.2030430" lon="37.3497210">
    <ele>2016.1</ele>
    <time>2026-06-24T07:45:32Z</time>
   </trkpt>
   <trkpt lat="-3.2030460" lon="37.3497240">
    <ele>2016.0</ele>
    <time>2026-06-24T07:45:33Z</time>
   </trkpt>
   <trkpt lat="-3.2030500" lon="37.3497230">
    <ele>2016.0</ele>
    <time>2026-06-24T07:45:34Z</time>
   </trkpt>
   <trkpt lat="-3.2030550" lon="37.3497140">
    <ele>2015.9</ele>
    <time>2026-06-24T07:45:35Z</time>
   </trkpt>
   <trkpt lat="-3.2030570" lon="37.3497180">
    <ele>2015.9</ele>
    <time>2026-06-24T07:45:36Z</time>
   </trkpt>
   <trkpt lat="-3.2030700" lon="37.3497190">
    <ele>2015.8</ele>
    <time>2026-06-24T07:45:37Z</time>
   </trkpt>
   <trkpt lat="-3.2030750" lon="37.3497170">
    <ele>2015.7</ele>
    <time>2026-06-24T07:45:38Z</time>
   </trkpt>
   <trkpt lat="-3.2030830" lon="37.3497080">
    <ele>2015.6</ele>
    <time>2026-06-24T07:45:39Z</time>
   </trkpt>
   <trkpt lat="-3.2030880" lon="37.3497090">
    <ele>2015.6</ele>
    <time>2026-06-24T07:45:40Z</time>
   </trkpt>
   <trkpt lat="-3.2030880" lon="37.3496990">
    <ele>2015.5</ele>
    <time>2026-06-24T07:45:41Z</time>
   </trkpt>
   <trkpt lat="-3.2030910" lon="37.3497010">
    <ele>2015.4</ele>
    <time>2026-06-24T07:45:42Z</time>
   </trkpt>
   <trkpt lat="-3.2031030" lon="37.3496990">
    <ele>2015.3</ele>
    <time>2026-06-24T07:45:43Z</time>
   </trkpt>
   <trkpt lat="-3.2031090" lon="37.3496980">
    <ele>2015.3</ele>
    <time>2026-06-24T07:45:44Z</time>
   </trkpt>
   <trkpt lat="-3.2031170" lon="37.3496990">
    <ele>2015.2</ele>
    <time>2026-06-24T07:45:45Z</time>
   </trkpt>
   <trkpt lat="-3.2031200" lon="37.3496920">
    <ele>2015.1</ele>
    <time>2026-06-24T07:45:46Z</time>
   </trkpt>
   <trkpt lat="-3.2031260" lon="37.3496910">
    <ele>2015.0</ele>
    <time>2026-06-24T07:45:47Z</time>
   </trkpt>
   <trkpt lat="-3.2031350" lon="37.3496850">
    <ele>2014.9</ele>
    <time>2026-06-24T07:45:48Z</time>
   </trkpt>
   <trkpt lat="-3.2031440" lon="37.3496850">
    <ele>2014.8</ele>
    <time>2026-06-24T07:45:49Z</time>
   </trkpt>
   <trkpt lat="-3.2031500" lon="37.3496810">
    <ele>2014.7</ele>
    <time>2026-06-24T07:45:50Z</time>
   </trkpt>
   <trkpt lat="-3.2031600" lon="37.3496750">
    <ele>2014.6</ele>
    <time>2026-06-24T07:45:51Z</time>
   </trkpt>
   <trkpt lat="-3.2031630" lon="37.3496720">
    <ele>2014.5</ele>
    <time>2026-06-24T07:45:52Z</time>
   </trkpt>
   <trkpt lat="-3.2031690" lon="37.3496660">
    <ele>2014.4</ele>
    <time>2026-06-24T07:45:53Z</time>
   </trkpt>
   <trkpt lat="-3.2031730" lon="37.3496670">
    <ele>2014.4</ele>
    <time>2026-06-24T07:45:54Z</time>
   </trkpt>
   <trkpt lat="-3.2031820" lon="37.3496690">
    <ele>2014.3</ele>
    <time>2026-06-24T07:45:55Z</time>
   </trkpt>
   <trkpt lat="-3.2032010" lon="37.3496510">
    <ele>2013.9</ele>
    <time>2026-06-24T07:45:57Z</time>
   </trkpt>
   <trkpt lat="-3.2032040" lon="37.3496510">
    <ele>2013.9</ele>
    <time>2026-06-24T07:45:58Z</time>
   </trkpt>
   <trkpt lat="-3.2032100" lon="37.3496470">
    <ele>2013.8</ele>
    <time>2026-06-24T07:45:59Z</time>
   </trkpt>
   <trkpt lat="-3.2032160" lon="37.3496490">
    <ele>2013.7</ele>
    <time>2026-06-24T07:46:00Z</time>
   </trkpt>
   <trkpt lat="-3.2032220" lon="37.3496410">
    <ele>2013.5</ele>
    <time>2026-06-24T07:46:01Z</time>
   </trkpt>
   <trkpt lat="-3.2032270" lon="37.3496310">
    <ele>2013.4</ele>
    <time>2026-06-24T07:46:02Z</time>
   </trkpt>
   <trkpt lat="-3.2032390" lon="37.3496210">
    <ele>2013.2</ele>
    <time>2026-06-24T07:46:03Z</time>
   </trkpt>
   <trkpt lat="-3.2032410" lon="37.3496170">
    <ele>2013.1</ele>
    <time>2026-06-24T07:46:04Z</time>
   </trkpt>
   <trkpt lat="-3.2032460" lon="37.3496130">
    <ele>2013.0</ele>
    <time>2026-06-24T07:46:05Z</time>
   </trkpt>
   <trkpt lat="-3.2032440" lon="37.3496100">
    <ele>2013.0</ele>
    <time>2026-06-24T07:46:06Z</time>
   </trkpt>
   <trkpt lat="-3.2032470" lon="37.3496110">
    <ele>2012.9</ele>
    <time>2026-06-24T07:46:07Z</time>
   </trkpt>
   <trkpt lat="-3.2032410" lon="37.3496030">
    <ele>2012.7</ele>
    <time>2026-06-24T07:46:08Z</time>
   </trkpt>
   <trkpt lat="-3.2032430" lon="37.3496020">
    <ele>2012.7</ele>
    <time>2026-06-24T07:46:09Z</time>
   </trkpt>
   <trkpt lat="-3.2032450" lon="37.3496010">
    <ele>2012.7</ele>
    <time>2026-06-24T07:46:10Z</time>
   </trkpt>
   <trkpt lat="-3.2032440" lon="37.3495950">
    <ele>2012.6</ele>
    <time>2026-06-24T07:46:11Z</time>
   </trkpt>
   <trkpt lat="-3.2032410" lon="37.3495900">
    <ele>2012.5</ele>
    <time>2026-06-24T07:46:12Z</time>
   </trkpt>
   <trkpt lat="-3.2032410" lon="37.3495750">
    <ele>2012.3</ele>
    <time>2026-06-24T07:46:13Z</time>
   </trkpt>
   <trkpt lat="-3.2032500" lon="37.3495680">
    <ele>2012.1</ele>
    <time>2026-06-24T07:46:14Z</time>
   </trkpt>
   <trkpt lat="-3.2032510" lon="37.3495620">
    <ele>2012.0</ele>
    <time>2026-06-24T07:46:15Z</time>
   </trkpt>
   <trkpt lat="-3.2032540" lon="37.3495540">
    <ele>2011.9</ele>
    <time>2026-06-24T07:46:16Z</time>
   </trkpt>
   <trkpt lat="-3.2032570" lon="37.3495450">
    <ele>2011.7</ele>
    <time>2026-06-24T07:46:17Z</time>
   </trkpt>
   <trkpt lat="-3.2032570" lon="37.3495370">
    <ele>2011.6</ele>
    <time>2026-06-24T07:46:18Z</time>
   </trkpt>
   <trkpt lat="-3.2032580" lon="37.3495310">
    <ele>2011.5</ele>
    <time>2026-06-24T07:46:19Z</time>
   </trkpt>
   <trkpt lat="-3.2032740" lon="37.3495210">
    <ele>2011.2</ele>
    <time>2026-06-24T07:46:20Z</time>
   </trkpt>
   <trkpt lat="-3.2032810" lon="37.3495130">
    <ele>2011.0</ele>
    <time>2026-06-24T07:46:21Z</time>
   </trkpt>
   <trkpt lat="-3.2032930" lon="37.3495090">
    <ele>2010.8</ele>
    <time>2026-06-24T07:46:22Z</time>
   </trkpt>
   <trkpt lat="-3.2032920" lon="37.3494980">
    <ele>2010.6</ele>
    <time>2026-06-24T07:46:23Z</time>
   </trkpt>
   <trkpt lat="-3.2032960" lon="37.3494900">
    <ele>2010.5</ele>
    <time>2026-06-24T07:46:24Z</time>
   </trkpt>
   <trkpt lat="-3.2033020" lon="37.3494760">
    <ele>2010.2</ele>
    <time>2026-06-24T07:46:25Z</time>
   </trkpt>
   <trkpt lat="-3.2033060" lon="37.3494690">
    <ele>2010.1</ele>
    <time>2026-06-24T07:46:26Z</time>
   </trkpt>
   <trkpt lat="-3.2033100" lon="37.3494540">
    <ele>2009.9</ele>
    <time>2026-06-24T07:46:27Z</time>
   </trkpt>
   <trkpt lat="-3.2033140" lon="37.3494530">
    <ele>2009.8</ele>
    <time>2026-06-24T07:46:28Z</time>
   </trkpt>
   <trkpt lat="-3.2033140" lon="37.3494350">
    <ele>2009.5</ele>
    <time>2026-06-24T07:46:29Z</time>
   </trkpt>
   <trkpt lat="-3.2033140" lon="37.3494310">
    <ele>2009.4</ele>
    <time>2026-06-24T07:46:30Z</time>
   </trkpt>
   <trkpt lat="-3.2033130" lon="37.3494200">
    <ele>2009.2</ele>
    <time>2026-06-24T07:46:31Z</time>
   </trkpt>
   <trkpt lat="-3.2033080" lon="37.3494130">
    <ele>2009.1</ele>
    <time>2026-06-24T07:46:32Z</time>
   </trkpt>
   <trkpt lat="-3.2033040" lon="37.3494020">
    <ele>2008.9</ele>
    <time>2026-06-24T07:46:33Z</time>
   </trkpt>
   <trkpt lat="-3.2033020" lon="37.3493930">
    <ele>2008.7</ele>
    <time>2026-06-24T07:46:34Z</time>
   </trkpt>
   <trkpt lat="-3.2033070" lon="37.3493880">
    <ele>2008.6</ele>
    <time>2026-06-24T07:46:35Z</time>
   </trkpt>
   <trkpt lat="-3.2033110" lon="37.3493840">
    <ele>2008.5</ele>
    <time>2026-06-24T07:46:36Z</time>
   </trkpt>
   <trkpt lat="-3.2033150" lon="37.3493710">
    <ele>2008.2</ele>
    <time>2026-06-24T07:46:37Z</time>
   </trkpt>
   <trkpt lat="-3.2033160" lon="37.3493590">
    <ele>2008.0</ele>
    <time>2026-06-24T07:46:38Z</time>
   </trkpt>
   <trkpt lat="-3.2033160" lon="37.3493620">
    <ele>2008.0</ele>
    <time>2026-06-24T07:46:39Z</time>
   </trkpt>
   <trkpt lat="-3.2033210" lon="37.3493590">
    <ele>2007.9</ele>
    <time>2026-06-24T07:46:40Z</time>
   </trkpt>
   <trkpt lat="-3.2033240" lon="37.3493570">
    <ele>2007.8</ele>
    <time>2026-06-24T07:46:41Z</time>
   </trkpt>
   <trkpt lat="-3.2033270" lon="37.3493520">
    <ele>2007.7</ele>
    <time>2026-06-24T07:46:42Z</time>
   </trkpt>
   <trkpt lat="-3.2033320" lon="37.3493550">
    <ele>2007.6</ele>
    <time>2026-06-24T07:46:43Z</time>
   </trkpt>
   <trkpt lat="-3.2033380" lon="37.3493550">
    <ele>2007.5</ele>
    <time>2026-06-24T07:46:44Z</time>
   </trkpt>
   <trkpt lat="-3.2033410" lon="37.3493550">
    <ele>2007.5</ele>
    <time>2026-06-24T07:46:45Z</time>
   </trkpt>
   <trkpt lat="-3.2033460" lon="37.3493520">
    <ele>2007.4</ele>
    <time>2026-06-24T07:46:46Z</time>
   </trkpt>
   <trkpt lat="-3.2033550" lon="37.3493580">
    <ele>2007.2</ele>
    <time>2026-06-24T07:46:47Z</time>
   </trkpt>
   <trkpt lat="-3.2033600" lon="37.3493560">
    <ele>2007.1</ele>
    <time>2026-06-24T07:46:48Z</time>
   </trkpt>
   <trkpt lat="-3.2033650" lon="37.3493440">
    <ele>2006.9</ele>
    <time>2026-06-24T07:46:49Z</time>
   </trkpt>
   <trkpt lat="-3.2033700" lon="37.3493340">
    <ele>2006.7</ele>
    <time>2026-06-24T07:46:50Z</time>
   </trkpt>
   <trkpt lat="-3.2033690" lon="37.3493320">
    <ele>2006.7</ele>
    <time>2026-06-24T07:46:51Z</time>
   </trkpt>
   <trkpt lat="-3.2033740" lon="37.3493310">
    <ele>2006.6</ele>
    <time>2026-06-24T07:46:52Z</time>
   </trkpt>
   <trkpt lat="-3.2033780" lon="37.3493300">
    <ele>2006.6</ele>
    <time>2026-06-24T07:46:53Z</time>
   </trkpt>
   <trkpt lat="-3.2033890" lon="37.3493240">
    <ele>2006.4</ele>
    <time>2026-06-24T07:46:54Z</time>
   </trkpt>
   <trkpt lat="-3.2034020" lon="37.3493180">
    <ele>2006.1</ele>
    <time>2026-06-24T07:46:55Z</time>
   </trkpt>
   <trkpt lat="-3.2034090" lon="37.3493230">
    <ele>2006.0</ele>
    <time>2026-06-24T07:46:56Z</time>
   </trkpt>
   <trkpt lat="-3.2034130" lon="37.3493220">
    <ele>2006.0</ele>
    <time>2026-06-24T07:46:57Z</time>
   </trkpt>
   <trkpt lat="-3.2034150" lon="37.3493240">
    <ele>2005.9</ele>
    <time>2026-06-24T07:46:58Z</time>
   </trkpt>
   <trkpt lat="-3.2034240" lon="37.3493260">
    <ele>2005.8</ele>
    <time>2026-06-24T07:46:59Z</time>
   </trkpt>
   <trkpt lat="-3.2034260" lon="37.3493210">
    <ele>2005.7</ele>
    <time>2026-06-24T07:47:00Z</time>
   </trkpt>
   <trkpt lat="-3.2034340" lon="37.3493170">
    <ele>2005.6</ele>
    <time>2026-06-24T07:47:01Z</time>
   </trkpt>
   <trkpt lat="-3.2034400" lon="37.3493120">
    <ele>2005.5</ele>
    <time>2026-06-24T07:47:02Z</time>
   </trkpt>
   <trkpt lat="-3.2034420" lon="37.3493100">
    <ele>2005.4</ele>
    <time>2026-06-24T07:47:03Z</time>
   </trkpt>
   <trkpt lat="-3.2034490" lon="37.3493040">
    <ele>2005.3</ele>
    <time>2026-06-24T07:47:04Z</time>
   </trkpt>
   <trkpt lat="-3.2034480" lon="37.3493020">
    <ele>2005.3</ele>
    <time>2026-06-24T07:47:05Z</time>
   </trkpt>
   <trkpt lat="-3.2034490" lon="37.3492910">
    <ele>2005.1</ele>
    <time>2026-06-24T07:47:06Z</time>
   </trkpt>
   <trkpt lat="-3.2034560" lon="37.3492840">
    <ele>2005.0</ele>
    <time>2026-06-24T07:47:07Z</time>
   </trkpt>
   <trkpt lat="-3.2034680" lon="37.3492780">
    <ele>2004.8</ele>
    <time>2026-06-24T07:47:08Z</time>
   </trkpt>
   <trkpt lat="-3.2034780" lon="37.3492740">
    <ele>2004.6</ele>
    <time>2026-06-24T07:47:09Z</time>
   </trkpt>
   <trkpt lat="-3.2034760" lon="37.3492650">
    <ele>2004.5</ele>
    <time>2026-06-24T07:47:10Z</time>
   </trkpt>
   <trkpt lat="-3.2034790" lon="37.3492520">
    <ele>2004.3</ele>
    <time>2026-06-24T07:47:11Z</time>
   </trkpt>
   <trkpt lat="-3.2034720" lon="37.3492480">
    <ele>2004.2</ele>
    <time>2026-06-24T07:47:12Z</time>
   </trkpt>
   <trkpt lat="-3.2034770" lon="37.3492510">
    <ele>2004.1</ele>
    <time>2026-06-24T07:47:13Z</time>
   </trkpt>
   <trkpt lat="-3.2034750" lon="37.3492440">
    <ele>2004.0</ele>
    <time>2026-06-24T07:47:14Z</time>
   </trkpt>
   <trkpt lat="-3.2034760" lon="37.3492360">
    <ele>2003.9</ele>
    <time>2026-06-24T07:47:15Z</time>
   </trkpt>
   <trkpt lat="-3.2034790" lon="37.3492340">
    <ele>2003.8</ele>
    <time>2026-06-24T07:47:16Z</time>
   </trkpt>
   <trkpt lat="-3.2034850" lon="37.3492330">
    <ele>2003.7</ele>
    <time>2026-06-24T07:47:17Z</time>
   </trkpt>
   <trkpt lat="-3.2034840" lon="37.3492340">
    <ele>2003.7</ele>
    <time>2026-06-24T07:47:18Z</time>
   </trkpt>
   <trkpt lat="-3.2034900" lon="37.3492240">
    <ele>2003.5</ele>
    <time>2026-06-24T07:47:19Z</time>
   </trkpt>
   <trkpt lat="-3.2034790" lon="37.3492220">
    <ele>2003.4</ele>
    <time>2026-06-24T07:47:20Z</time>
   </trkpt>
   <trkpt lat="-3.2034850" lon="37.3492200">
    <ele>2003.3</ele>
    <time>2026-06-24T07:47:21Z</time>
   </trkpt>
   <trkpt lat="-3.2034910" lon="37.3492040">
    <ele>2003.0</ele>
    <time>2026-06-24T07:47:22Z</time>
   </trkpt>
   <trkpt lat="-3.2034950" lon="37.3492070">
    <ele>2002.9</ele>
    <time>2026-06-24T07:47:23Z</time>
   </trkpt>
   <trkpt lat="-3.2035020" lon="37.3492020">
    <ele>2002.8</ele>
    <time>2026-06-24T07:47:24Z</time>
   </trkpt>
   <trkpt lat="-3.2035100" lon="37.3491970">
    <ele>2002.7</ele>
    <time>2026-06-24T07:47:25Z</time>
   </trkpt>
   <trkpt lat="-3.2035140" lon="37.3491950">
    <ele>2002.6</ele>
    <time>2026-06-24T07:47:26Z</time>
   </trkpt>
   <trkpt lat="-3.2035190" lon="37.3491910">
    <ele>2002.5</ele>
    <time>2026-06-24T07:47:27Z</time>
   </trkpt>
   <trkpt lat="-3.2035280" lon="37.3491810">
    <ele>2002.3</ele>
    <time>2026-06-24T07:47:28Z</time>
   </trkpt>
   <trkpt lat="-3.2035360" lon="37.3491730">
    <ele>2002.2</ele>
    <time>2026-06-24T07:47:29Z</time>
   </trkpt>
   <trkpt lat="-3.2035430" lon="37.3491710">
    <ele>2002.1</ele>
    <time>2026-06-24T07:47:30Z</time>
   </trkpt>
   <trkpt lat="-3.2035510" lon="37.3491650">
    <ele>2001.9</ele>
    <time>2026-06-24T07:47:31Z</time>
   </trkpt>
   <trkpt lat="-3.2035600" lon="37.3491620">
    <ele>2001.8</ele>
    <time>2026-06-24T07:47:32Z</time>
   </trkpt>
   <trkpt lat="-3.2035640" lon="37.3491580">
    <ele>2001.7</ele>
    <time>2026-06-24T07:47:33Z</time>
   </trkpt>
   <trkpt lat="-3.2035690" lon="37.3491540">
    <ele>2001.6</ele>
    <time>2026-06-24T07:47:34Z</time>
   </trkpt>
   <trkpt lat="-3.2035740" lon="37.3491520">
    <ele>2001.6</ele>
    <time>2026-06-24T07:47:35Z</time>
   </trkpt>
   <trkpt lat="-3.2035810" lon="37.3491480">
    <ele>2001.4</ele>
    <time>2026-06-24T07:47:36Z</time>
   </trkpt>
   <trkpt lat="-3.2035900" lon="37.3491400">
    <ele>2001.3</ele>
    <time>2026-06-24T07:47:37Z</time>
   </trkpt>
   <trkpt lat="-3.2036030" lon="37.3491390">
    <ele>2001.1</ele>
    <time>2026-06-24T07:47:38Z</time>
   </trkpt>
   <trkpt lat="-3.2036050" lon="37.3491380">
    <ele>2001.1</ele>
    <time>2026-06-24T07:47:39Z</time>
   </trkpt>
   <trkpt lat="-3.2036130" lon="37.3491330">
    <ele>2000.9</ele>
    <time>2026-06-24T07:47:40Z</time>
   </trkpt>
   <trkpt lat="-3.2036190" lon="37.3491260">
    <ele>2000.8</ele>
    <time>2026-06-24T07:47:41Z</time>
   </trkpt>
   <trkpt lat="-3.2036240" lon="37.3491230">
    <ele>2000.7</ele>
    <time>2026-06-24T07:47:42Z</time>
   </trkpt>
   <trkpt lat="-3.2036220" lon="37.3491220">
    <ele>2000.7</ele>
    <time>2026-06-24T07:47:43Z</time>
   </trkpt>
   <trkpt lat="-3.2036290" lon="37.3491120">
    <ele>2000.5</ele>
    <time>2026-06-24T07:47:44Z</time>
   </trkpt>
   <trkpt lat="-3.2036310" lon="37.3491090">
    <ele>2000.5</ele>
    <time>2026-06-24T07:47:45Z</time>
   </trkpt>
   <trkpt lat="-3.2036370" lon="37.3491040">
    <ele>2000.4</ele>
    <time>2026-06-24T07:47:46Z</time>
   </trkpt>
   <trkpt lat="-3.2036510" lon="37.3490970">
    <ele>2000.2</ele>
    <time>2026-06-24T07:47:47Z</time>
   </trkpt>
   <trkpt lat="-3.2036560" lon="37.3490950">
    <ele>2000.1</ele>
    <time>2026-06-24T07:47:48Z</time>
   </trkpt>
   <trkpt lat="-3.2036640" lon="37.3490880">
    <ele>2000.0</ele>
    <time>2026-06-24T07:47:49Z</time>
   </trkpt>
   <trkpt lat="-3.2036680" lon="37.3490840">
    <ele>1999.9</ele>
    <time>2026-06-24T07:47:50Z</time>
   </trkpt>
   <trkpt lat="-3.2036830" lon="37.3490750">
    <ele>1999.7</ele>
    <time>2026-06-24T07:47:51Z</time>
   </trkpt>
   <trkpt lat="-3.2036820" lon="37.3490730">
    <ele>1999.6</ele>
    <time>2026-06-24T07:47:52Z</time>
   </trkpt>
   <trkpt lat="-3.2036860" lon="37.3490650">
    <ele>1999.5</ele>
    <time>2026-06-24T07:47:53Z</time>
   </trkpt>
   <trkpt lat="-3.2036910" lon="37.3490560">
    <ele>1999.4</ele>
    <time>2026-06-24T07:47:54Z</time>
   </trkpt>
   <trkpt lat="-3.2037000" lon="37.3490470">
    <ele>1999.2</ele>
    <time>2026-06-24T07:47:55Z</time>
   </trkpt>
   <trkpt lat="-3.2037100" lon="37.3490400">
    <ele>1999.1</ele>
    <time>2026-06-24T07:47:56Z</time>
   </trkpt>
   <trkpt lat="-3.2037170" lon="37.3490380">
    <ele>1999.0</ele>
    <time>2026-06-24T07:47:57Z</time>
   </trkpt>
   <trkpt lat="-3.2037280" lon="37.3490230">
    <ele>1998.8</ele>
    <time>2026-06-24T07:47:58Z</time>
   </trkpt>
   <trkpt lat="-3.2037290" lon="37.3490220">
    <ele>1998.8</ele>
    <time>2026-06-24T07:47:59Z</time>
   </trkpt>
   <trkpt lat="-3.2037320" lon="37.3490210">
    <ele>1998.7</ele>
    <time>2026-06-24T07:48:00Z</time>
   </trkpt>
   <trkpt lat="-3.2037430" lon="37.3490120">
    <ele>1998.5</ele>
    <time>2026-06-24T07:48:01Z</time>
   </trkpt>
   <trkpt lat="-3.2037500" lon="37.3490070">
    <ele>1998.4</ele>
    <time>2026-06-24T07:48:03Z</time>
   </trkpt>
   <trkpt lat="-3.2037570" lon="37.3490060">
    <ele>1998.3</ele>
    <time>2026-06-24T07:48:04Z</time>
   </trkpt>
   <trkpt lat="-3.2037550" lon="37.3490070">
    <ele>1998.3</ele>
    <time>2026-06-24T07:48:05Z</time>
   </trkpt>
   <trkpt lat="-3.2037710" lon="37.3490010">
    <ele>1998.1</ele>
    <time>2026-06-24T07:48:06Z</time>
   </trkpt>
   <trkpt lat="-3.2037810" lon="37.3489940">
    <ele>1998.0</ele>
    <time>2026-06-24T07:48:07Z</time>
   </trkpt>
   <trkpt lat="-3.2037830" lon="37.3489890">
    <ele>1997.9</ele>
    <time>2026-06-24T07:48:08Z</time>
   </trkpt>
   <trkpt lat="-3.2037870" lon="37.3489820">
    <ele>1997.8</ele>
    <time>2026-06-24T07:48:09Z</time>
   </trkpt>
   <trkpt lat="-3.2037940" lon="37.3489830">
    <ele>1997.7</ele>
    <time>2026-06-24T07:48:10Z</time>
   </trkpt>
   <trkpt lat="-3.2038030" lon="37.3489850">
    <ele>1997.6</ele>
    <time>2026-06-24T07:48:11Z</time>
   </trkpt>
   <trkpt lat="-3.2038110" lon="37.3489780">
    <ele>1997.4</ele>
    <time>2026-06-24T07:48:12Z</time>
   </trkpt>
   <trkpt lat="-3.2038190" lon="37.3489750">
    <ele>1997.3</ele>
    <time>2026-06-24T07:48:13Z</time>
   </trkpt>
   <trkpt lat="-3.2038250" lon="37.3489690">
    <ele>1997.2</ele>
    <time>2026-06-24T07:48:14Z</time>
   </trkpt>
   <trkpt lat="-3.2038230" lon="37.3489710">
    <ele>1997.1</ele>
    <time>2026-06-24T07:48:15Z</time>
   </trkpt>
   <trkpt lat="-3.2038270" lon="37.3489700">
    <ele>1997.1</ele>
    <time>2026-06-24T07:48:16Z</time>
   </trkpt>
   <trkpt lat="-3.2038330" lon="37.3489630">
    <ele>1996.9</ele>
    <time>2026-06-24T07:48:17Z</time>
   </trkpt>
   <trkpt lat="-3.2038460" lon="37.3489570">
    <ele>1996.7</ele>
    <time>2026-06-24T07:48:18Z</time>
   </trkpt>
   <trkpt lat="-3.2038480" lon="37.3489550">
    <ele>1996.7</ele>
    <time>2026-06-24T07:48:19Z</time>
   </trkpt>
   <trkpt lat="-3.2038690" lon="37.3489480">
    <ele>1996.4</ele>
    <time>2026-06-24T07:48:20Z</time>
   </trkpt>
   <trkpt lat="-3.2038820" lon="37.3489360">
    <ele>1996.1</ele>
    <time>2026-06-24T07:48:21Z</time>
   </trkpt>
   <trkpt lat="-3.2038910" lon="37.3489280">
    <ele>1995.9</ele>
    <time>2026-06-24T07:48:22Z</time>
   </trkpt>
   <trkpt lat="-3.2038940" lon="37.3489300">
    <ele>1995.9</ele>
    <time>2026-06-24T07:48:23Z</time>
   </trkpt>
   <trkpt lat="-3.2039000" lon="37.3489310">
    <ele>1995.8</ele>
    <time>2026-06-24T07:48:24Z</time>
   </trkpt>
   <trkpt lat="-3.2039000" lon="37.3489380">
    <ele>1995.7</ele>
    <time>2026-06-24T07:48:25Z</time>
   </trkpt>
   <trkpt lat="-3.2039000" lon="37.3489330">
    <ele>1995.6</ele>
    <time>2026-06-24T07:48:26Z</time>
   </trkpt>
   <trkpt lat="-3.2039060" lon="37.3489220">
    <ele>1995.4</ele>
    <time>2026-06-24T07:48:27Z</time>
   </trkpt>
   <trkpt lat="-3.2039200" lon="37.3489060">
    <ele>1995.1</ele>
    <time>2026-06-24T07:48:28Z</time>
   </trkpt>
   <trkpt lat="-3.2039290" lon="37.3489010">
    <ele>1994.9</ele>
    <time>2026-06-24T07:48:29Z</time>
   </trkpt>
   <trkpt lat="-3.2039350" lon="37.3488990">
    <ele>1994.8</ele>
    <time>2026-06-24T07:48:30Z</time>
   </trkpt>
   <trkpt lat="-3.2039410" lon="37.3489030">
    <ele>1994.7</ele>
    <time>2026-06-24T07:48:31Z</time>
   </trkpt>
   <trkpt lat="-3.2039490" lon="37.3488970">
    <ele>1994.5</ele>
    <time>2026-06-24T07:48:32Z</time>
   </trkpt>
   <trkpt lat="-3.2039520" lon="37.3488940">
    <ele>1994.5</ele>
    <time>2026-06-24T07:48:33Z</time>
   </trkpt>
   <trkpt lat="-3.2039590" lon="37.3488900">
    <ele>1994.3</ele>
    <time>2026-06-24T07:48:34Z</time>
   </trkpt>
   <trkpt lat="-3.2039650" lon="37.3488880">
    <ele>1994.2</ele>
    <time>2026-06-24T07:48:35Z</time>
   </trkpt>
   <trkpt lat="-3.2039750" lon="37.3488860">
    <ele>1994.1</ele>
    <time>2026-06-24T07:48:36Z</time>
   </trkpt>
   <trkpt lat="-3.2039800" lon="37.3488800">
    <ele>1993.9</ele>
    <time>2026-06-24T07:48:37Z</time>
   </trkpt>
   <trkpt lat="-3.2039850" lon="37.3488790">
    <ele>1993.9</ele>
    <time>2026-06-24T07:48:38Z</time>
   </trkpt>
   <trkpt lat="-3.2039930" lon="37.3488720">
    <ele>1993.7</ele>
    <time>2026-06-24T07:48:39Z</time>
   </trkpt>
   <trkpt lat="-3.2039960" lon="37.3488710">
    <ele>1993.6</ele>
    <time>2026-06-24T07:48:40Z</time>
   </trkpt>
   <trkpt lat="-3.2040030" lon="37.3488680">
    <ele>1993.5</ele>
    <time>2026-06-24T07:48:41Z</time>
   </trkpt>
   <trkpt lat="-3.2040060" lon="37.3488680">
    <ele>1993.5</ele>
    <time>2026-06-24T07:48:42Z</time>
   </trkpt>
   <trkpt lat="-3.2040170" lon="37.3488620">
    <ele>1993.3</ele>
    <time>2026-06-24T07:48:43Z</time>
   </trkpt>
   <trkpt lat="-3.2040230" lon="37.3488700">
    <ele>1993.1</ele>
    <time>2026-06-24T07:48:44Z</time>
   </trkpt>
   <trkpt lat="-3.2040340" lon="37.3488590">
    <ele>1992.8</ele>
    <time>2026-06-24T07:48:45Z</time>
   </trkpt>
   <trkpt lat="-3.2040460" lon="37.3488450">
    <ele>1992.5</ele>
    <time>2026-06-24T07:48:46Z</time>
   </trkpt>
   <trkpt lat="-3.2040330" lon="37.3488410">
    <ele>1992.3</ele>
    <time>2026-06-24T07:48:47Z</time>
   </trkpt>
   <trkpt lat="-3.2040370" lon="37.3488390">
    <ele>1992.2</ele>
    <time>2026-06-24T07:48:48Z</time>
   </trkpt>
   <trkpt lat="-3.2040410" lon="37.3488390">
    <ele>1992.2</ele>
    <time>2026-06-24T07:48:49Z</time>
   </trkpt>
   <trkpt lat="-3.2040490" lon="37.3488390">
    <ele>1992.0</ele>
    <time>2026-06-24T07:48:50Z</time>
   </trkpt>
   <trkpt lat="-3.2040560" lon="37.3488390">
    <ele>1991.9</ele>
    <time>2026-06-24T07:48:51Z</time>
   </trkpt>
   <trkpt lat="-3.2040630" lon="37.3488360">
    <ele>1991.8</ele>
    <time>2026-06-24T07:48:52Z</time>
   </trkpt>
   <trkpt lat="-3.2040710" lon="37.3488310">
    <ele>1991.7</ele>
    <time>2026-06-24T07:48:53Z</time>
   </trkpt>
   <trkpt lat="-3.2040720" lon="37.3488290">
    <ele>1991.6</ele>
    <time>2026-06-24T07:48:54Z</time>
   </trkpt>
   <trkpt lat="-3.2040800" lon="37.3488290">
    <ele>1991.5</ele>
    <time>2026-06-24T07:48:55Z</time>
   </trkpt>
   <trkpt lat="-3.2040880" lon="37.3488190">
    <ele>1991.3</ele>
    <time>2026-06-24T07:48:56Z</time>
   </trkpt>
   <trkpt lat="-3.2040930" lon="37.3488110">
    <ele>1991.1</ele>
    <time>2026-06-24T07:48:57Z</time>
   </trkpt>
   <trkpt lat="-3.2041070" lon="37.3488120">
    <ele>1990.9</ele>
    <time>2026-06-24T07:48:58Z</time>
   </trkpt>
   <trkpt lat="-3.2041120" lon="37.3488100">
    <ele>1990.8</ele>
    <time>2026-06-24T07:48:59Z</time>
   </trkpt>
   <trkpt lat="-3.2041190" lon="37.3488080">
    <ele>1990.7</ele>
    <time>2026-06-24T07:49:00Z</time>
   </trkpt>
   <trkpt lat="-3.2041280" lon="37.3488040">
    <ele>1990.6</ele>
    <time>2026-06-24T07:49:01Z</time>
   </trkpt>
   <trkpt lat="-3.2041330" lon="37.3488040">
    <ele>1990.5</ele>
    <time>2026-06-24T07:49:02Z</time>
   </trkpt>
   <trkpt lat="-3.2041390" lon="37.3487970">
    <ele>1990.4</ele>
    <time>2026-06-24T07:49:03Z</time>
   </trkpt>
   <trkpt lat="-3.2041470" lon="37.3487920">
    <ele>1990.2</ele>
    <time>2026-06-24T07:49:04Z</time>
   </trkpt>
   <trkpt lat="-3.2041520" lon="37.3487840">
    <ele>1990.1</ele>
    <time>2026-06-24T07:49:05Z</time>
   </trkpt>
   <trkpt lat="-3.2041540" lon="37.3487820">
    <ele>1990.0</ele>
    <time>2026-06-24T07:49:06Z</time>
   </trkpt>
   <trkpt lat="-3.2041580" lon="37.3487780">
    <ele>1989.9</ele>
    <time>2026-06-24T07:49:07Z</time>
   </trkpt>
   <trkpt lat="-3.2041690" lon="37.3487810">
    <ele>1989.8</ele>
    <time>2026-06-24T07:49:08Z</time>
   </trkpt>
   <trkpt lat="-3.2041820" lon="37.3487830">
    <ele>1989.6</ele>
    <time>2026-06-24T07:49:09Z</time>
   </trkpt>
   <trkpt lat="-3.2041870" lon="37.3487910">
    <ele>1989.5</ele>
    <time>2026-06-24T07:49:10Z</time>
   </trkpt>
   <trkpt lat="-3.2041930" lon="37.3487870">
    <ele>1989.4</ele>
    <time>2026-06-24T07:49:11Z</time>
   </trkpt>
   <trkpt lat="-3.2042070" lon="37.3487870">
    <ele>1989.3</ele>
    <time>2026-06-24T07:49:12Z</time>
   </trkpt>
   <trkpt lat="-3.2042220" lon="37.3487800">
    <ele>1989.2</ele>
    <time>2026-06-24T07:49:13Z</time>
   </trkpt>
   <trkpt lat="-3.2042360" lon="37.3487800">
    <ele>1989.1</ele>
    <time>2026-06-24T07:49:14Z</time>
   </trkpt>
   <trkpt lat="-3.2042490" lon="37.3487730">
    <ele>1988.9</ele>
    <time>2026-06-24T07:49:15Z</time>
   </trkpt>
   <trkpt lat="-3.2042640" lon="37.3487670">
    <ele>1988.8</ele>
    <time>2026-06-24T07:49:16Z</time>
   </trkpt>
   <trkpt lat="-3.2042730" lon="37.3487660">
    <ele>1988.7</ele>
    <time>2026-06-24T07:49:17Z</time>
   </trkpt>
   <trkpt lat="-3.2042840" lon="37.3487650">
    <ele>1988.6</ele>
    <time>2026-06-24T07:49:18Z</time>
   </trkpt>
   <trkpt lat="-3.2042960" lon="37.3487620">
    <ele>1988.5</ele>
    <time>2026-06-24T07:49:19Z</time>
   </trkpt>
   <trkpt lat="-3.2043120" lon="37.3487590">
    <ele>1988.4</ele>
    <time>2026-06-24T07:49:20Z</time>
   </trkpt>
   <trkpt lat="-3.2043200" lon="37.3487530">
    <ele>1988.3</ele>
    <time>2026-06-24T07:49:21Z</time>
   </trkpt>
   <trkpt lat="-3.2043270" lon="37.3487520">
    <ele>1988.2</ele>
    <time>2026-06-24T07:49:22Z</time>
   </trkpt>
   <trkpt lat="-3.2043330" lon="37.3487450">
    <ele>1988.2</ele>
    <time>2026-06-24T07:49:23Z</time>
   </trkpt>
   <trkpt lat="-3.2043610" lon="37.3487390">
    <ele>1987.9</ele>
    <time>2026-06-24T07:49:24Z</time>
   </trkpt>
   <trkpt lat="-3.2043730" lon="37.3487320">
    <ele>1987.8</ele>
    <time>2026-06-24T07:49:25Z</time>
   </trkpt>
   <trkpt lat="-3.2043900" lon="37.3487240">
    <ele>1987.6</ele>
    <time>2026-06-24T07:49:26Z</time>
   </trkpt>
   <trkpt lat="-3.2044020" lon="37.3487180">
    <ele>1987.4</ele>
    <time>2026-06-24T07:49:27Z</time>
   </trkpt>
   <trkpt lat="-3.2044060" lon="37.3487050">
    <ele>1987.3</ele>
    <time>2026-06-24T07:49:28Z</time>
   </trkpt>
   <trkpt lat="-3.2044160" lon="37.3486900">
    <ele>1987.1</ele>
    <time>2026-06-24T07:49:29Z</time>
   </trkpt>
   <trkpt lat="-3.2044260" lon="37.3486740">
    <ele>1986.9</ele>
    <time>2026-06-24T07:49:30Z</time>
   </trkpt>
   <trkpt lat="-3.2044370" lon="37.3486580">
    <ele>1986.7</ele>
    <time>2026-06-24T07:49:31Z</time>
   </trkpt>
   <trkpt lat="-3.2044380" lon="37.3486480">
    <ele>1986.6</ele>
    <time>2026-06-24T07:49:32Z</time>
   </trkpt>
   <trkpt lat="-3.2044420" lon="37.3486390">
    <ele>1986.5</ele>
    <time>2026-06-24T07:49:33Z</time>
   </trkpt>
   <trkpt lat="-3.2044400" lon="37.3486370">
    <ele>1986.5</ele>
    <time>2026-06-24T07:49:34Z</time>
   </trkpt>
   <trkpt lat="-3.2044450" lon="37.3486260">
    <ele>1986.4</ele>
    <time>2026-06-24T07:49:35Z</time>
   </trkpt>
   <trkpt lat="-3.2044460" lon="37.3486260">
    <ele>1986.3</ele>
    <time>2026-06-24T07:49:36Z</time>
   </trkpt>
   <trkpt lat="-3.2044520" lon="37.3486210">
    <ele>1986.3</ele>
    <time>2026-06-24T07:49:37Z</time>
   </trkpt>
   <trkpt lat="-3.2044530" lon="37.3485810">
    <ele>1985.8</ele>
    <time>2026-06-24T07:49:38Z</time>
   </trkpt>
   <trkpt lat="-3.2044570" lon="37.3485490">
    <ele>1985.4</ele>
    <time>2026-06-24T07:49:39Z</time>
   </trkpt>
   <trkpt lat="-3.2044620" lon="37.3485530">
    <ele>1985.3</ele>
    <time>2026-06-24T07:49:40Z</time>
   </trkpt>
   <trkpt lat="-3.2044780" lon="37.3485520">
    <ele>1985.1</ele>
    <time>2026-06-24T07:49:41Z</time>
   </trkpt>
   <trkpt lat="-3.2044830" lon="37.3485380">
    <ele>1985.0</ele>
    <time>2026-06-24T07:49:42Z</time>
   </trkpt>
   <trkpt lat="-3.2045030" lon="37.3485290">
    <ele>1984.7</ele>
    <time>2026-06-24T07:49:43Z</time>
   </trkpt>
   <trkpt lat="-3.2045080" lon="37.3485240">
    <ele>1984.6</ele>
    <time>2026-06-24T07:49:44Z</time>
   </trkpt>
   <trkpt lat="-3.2045100" lon="37.3485270">
    <ele>1984.6</ele>
    <time>2026-06-24T07:49:45Z</time>
   </trkpt>
   <trkpt lat="-3.2045130" lon="37.3485240">
    <ele>1984.5</ele>
    <time>2026-06-24T07:49:46Z</time>
   </trkpt>
   <trkpt lat="-3.2045070" lon="37.3485370">
    <ele>1984.3</ele>
    <time>2026-06-24T07:49:47Z</time>
   </trkpt>
   <trkpt lat="-3.2045100" lon="37.3485490">
    <ele>1984.2</ele>
    <time>2026-06-24T07:49:48Z</time>
   </trkpt>
   <trkpt lat="-3.2045110" lon="37.3485630">
    <ele>1984.0</ele>
    <time>2026-06-24T07:49:49Z</time>
   </trkpt>
   <trkpt lat="-3.2045110" lon="37.3485740">
    <ele>1983.8</ele>
    <time>2026-06-24T07:49:50Z</time>
   </trkpt>
   <trkpt lat="-3.2045060" lon="37.3485570">
    <ele>1983.6</ele>
    <time>2026-06-24T07:49:51Z</time>
   </trkpt>
   <trkpt lat="-3.2045080" lon="37.3485440">
    <ele>1983.5</ele>
    <time>2026-06-24T07:49:52Z</time>
   </trkpt>
   <trkpt lat="-3.2045040" lon="37.3485480">
    <ele>1983.4</ele>
    <time>2026-06-24T07:49:53Z</time>
   </trkpt>
   <trkpt lat="-3.2045020" lon="37.3485530">
    <ele>1983.3</ele>
    <time>2026-06-24T07:49:54Z</time>
   </trkpt>
   <trkpt lat="-3.2045100" lon="37.3485470">
    <ele>1983.2</ele>
    <time>2026-06-24T07:49:55Z</time>
   </trkpt>
   <trkpt lat="-3.2045020" lon="37.3485660">
    <ele>1982.9</ele>
    <time>2026-06-24T07:49:56Z</time>
   </trkpt>
   <trkpt lat="-3.2044900" lon="37.3485970">
    <ele>1982.5</ele>
    <time>2026-06-24T07:49:57Z</time>
   </trkpt>
   <trkpt lat="-3.2044770" lon="37.3486160">
    <ele>1982.2</ele>
    <time>2026-06-24T07:49:58Z</time>
   </trkpt>
   <trkpt lat="-3.2044720" lon="37.3486240">
    <ele>1982.1</ele>
    <time>2026-06-24T07:49:59Z</time>
   </trkpt>
   <trkpt lat="-3.2044650" lon="37.3486220">
    <ele>1982.0</ele>
    <time>2026-06-24T07:50:00Z</time>
   </trkpt>
   <trkpt lat="-3.2044700" lon="37.3486150">
    <ele>1981.9</ele>
    <time>2026-06-24T07:50:01Z</time>
   </trkpt>
   <trkpt lat="-3.2044690" lon="37.3486090">
    <ele>1981.8</ele>
    <time>2026-06-24T07:50:02Z</time>
   </trkpt>
   <trkpt lat="-3.2044690" lon="37.3486090">
    <ele>1981.8</ele>
    <time>2026-06-24T07:50:03Z</time>
   </trkpt>
   <trkpt lat="-3.2044690" lon="37.3486090">
    <ele>1981.8</ele>
    <time>2026-06-24T07:50:04Z</time>
   </trkpt>
   <trkpt lat="-3.2044690" lon="37.3486090">
    <ele>1981.8</ele>
    <time>2026-06-24T07:50:05Z</time>
   </trkpt>
   <trkpt lat="-3.2044690" lon="37.3486090">
    <ele>1981.8</ele>
    <time>2026-06-24T07:50:06Z</time>
   </trkpt>
   <trkpt lat="-3.2044690" lon="37.3486090">
    <ele>1981.8</ele>
    <time>2026-06-24T07:50:07Z</time>
   </trkpt>
   <trkpt lat="-3.2044690" lon="37.3486090">
    <ele>1981.8</ele>
    <time>2026-06-24T07:50:09Z</time>
   </trkpt>
   <trkpt lat="-3.2044710" lon="37.3486370">
    <ele>1981.5</ele>
    <time>2026-06-24T07:50:10Z</time>
   </trkpt>
   <trkpt lat="-3.2044710" lon="37.3486370">
    <ele>1981.5</ele>
    <time>2026-06-24T07:50:11Z</time>
   </trkpt>
   <trkpt lat="-3.2044710" lon="37.3486370">
    <ele>1981.5</ele>
    <time>2026-06-24T07:50:12Z</time>
   </trkpt>
   <trkpt lat="-3.2044710" lon="37.3486370">
    <ele>1981.5</ele>
    <time>2026-06-24T07:50:13Z</time>
   </trkpt>
   <trkpt lat="-3.2044710" lon="37.3486370">
    <ele>1981.5</ele>
    <time>2026-06-24T07:50:14Z</time>
   </trkpt>
   <trkpt lat="-3.2044710" lon="37.3486370">
    <ele>1981.5</ele>
    <time>2026-06-24T07:50:15Z</time>
   </trkpt>
   <trkpt lat="-3.2044710" lon="37.3486370">
    <ele>1981.5</ele>
    <time>2026-06-24T07:50:16Z</time>
   </trkpt>
   <trkpt lat="-3.2044710" lon="37.3486370">
    <ele>1981.5</ele>
    <time>2026-06-24T07:50:17Z</time>
   </trkpt>
   <trkpt lat="-3.2044710" lon="37.3486370">
    <ele>1981.5</ele>
    <time>2026-06-24T07:50:18Z</time>
   </trkpt>
   <trkpt lat="-3.2044700" lon="37.3486710">
    <ele>1981.1</ele>
    <time>2026-06-24T07:50:19Z</time>
   </trkpt>
   <trkpt lat="-3.2044730" lon="37.3486390">
    <ele>1980.7</ele>
    <time>2026-06-24T07:50:20Z</time>
   </trkpt>
   <trkpt lat="-3.2044790" lon="37.3486350">
    <ele>1980.7</ele>
    <time>2026-06-24T07:50:21Z</time>
   </trkpt>
   <trkpt lat="-3.2044770" lon="37.3486370">
    <ele>1980.6</ele>
    <time>2026-06-24T07:50:22Z</time>
   </trkpt>
   <trkpt lat="-3.2044700" lon="37.3486410">
    <ele>1980.5</ele>
    <time>2026-06-24T07:50:23Z</time>
   </trkpt>
   <trkpt lat="-3.2044790" lon="37.3486380">
    <ele>1980.4</ele>
    <time>2026-06-24T07:50:24Z</time>
   </trkpt>
   <trkpt lat="-3.2044790" lon="37.3486310">
    <ele>1980.3</ele>
    <time>2026-06-24T07:50:25Z</time>
   </trkpt>
   <trkpt lat="-3.2044700" lon="37.3486240">
    <ele>1980.2</ele>
    <time>2026-06-24T07:50:26Z</time>
   </trkpt>
   <trkpt lat="-3.2044700" lon="37.3486150">
    <ele>1980.1</ele>
    <time>2026-06-24T07:50:27Z</time>
   </trkpt>
   <trkpt lat="-3.2044760" lon="37.3486030">
    <ele>1980.0</ele>
    <time>2026-06-24T07:50:28Z</time>
   </trkpt>
   <trkpt lat="-3.2044550" lon="37.3486200">
    <ele>1979.7</ele>
    <time>2026-06-24T07:50:29Z</time>
   </trkpt>
   <trkpt lat="-3.2044690" lon="37.3485910">
    <ele>1979.3</ele>
    <time>2026-06-24T07:50:30Z</time>
   </trkpt>
   <trkpt lat="-3.2044840" lon="37.3485430">
    <ele>1978.7</ele>
    <time>2026-06-24T07:50:31Z</time>
   </trkpt>
   <trkpt lat="-3.2045060" lon="37.3485060">
    <ele>1978.2</ele>
    <time>2026-06-24T07:50:32Z</time>
   </trkpt>
   <trkpt lat="-3.2044970" lon="37.3485300">
    <ele>1977.9</ele>
    <time>2026-06-24T07:50:33Z</time>
   </trkpt>
   <trkpt lat="-3.2045020" lon="37.3484840">
    <ele>1977.4</ele>
    <time>2026-06-24T07:50:34Z</time>
   </trkpt>
   <trkpt lat="-3.2045080" lon="37.3485010">
    <ele>1977.1</ele>
    <time>2026-06-24T07:50:35Z</time>
   </trkpt>
   <trkpt lat="-3.2045120" lon="37.3485110">
    <ele>1977.0</ele>
    <time>2026-06-24T07:50:36Z</time>
   </trkpt>
   <trkpt lat="-3.2045150" lon="37.3485220">
    <ele>1976.9</ele>
    <time>2026-06-24T07:50:37Z</time>
   </trkpt>
   <trkpt lat="-3.2045190" lon="37.3485320">
    <ele>1976.8</ele>
    <time>2026-06-24T07:50:38Z</time>
   </trkpt>
   <trkpt lat="-3.2045330" lon="37.3485250">
    <ele>1976.6</ele>
    <time>2026-06-24T07:50:39Z</time>
   </trkpt>
   <trkpt lat="-3.2045480" lon="37.3485190">
    <ele>1976.4</ele>
    <time>2026-06-24T07:50:40Z</time>
   </trkpt>
   <trkpt lat="-3.2045620" lon="37.3485120">
    <ele>1976.2</ele>
    <time>2026-06-24T07:50:41Z</time>
   </trkpt>
   <trkpt lat="-3.2045250" lon="37.3484900">
    <ele>1975.8</ele>
    <time>2026-06-24T07:50:42Z</time>
   </trkpt>
   <trkpt lat="-3.2045040" lon="37.3484940">
    <ele>1975.5</ele>
    <time>2026-06-24T07:50:43Z</time>
   </trkpt>
   <trkpt lat="-3.2045150" lon="37.3484770">
    <ele>1975.3</ele>
    <time>2026-06-24T07:50:44Z</time>
   </trkpt>
   <trkpt lat="-3.2045070" lon="37.3485280">
    <ele>1974.9</ele>
    <time>2026-06-24T07:50:45Z</time>
   </trkpt>
   <trkpt lat="-3.2045030" lon="37.3485320">
    <ele>1974.8</ele>
    <time>2026-06-24T07:50:46Z</time>
   </trkpt>
   <trkpt lat="-3.2044930" lon="37.3485590">
    <ele>1974.6</ele>
    <time>2026-06-24T07:50:47Z</time>
   </trkpt>
   <trkpt lat="-3.2044830" lon="37.3485760">
    <ele>1974.4</ele>
    <time>2026-06-24T07:50:48Z</time>
   </trkpt>
   <trkpt lat="-3.2044720" lon="37.3485930">
    <ele>1974.2</ele>
    <time>2026-06-24T07:50:49Z</time>
   </trkpt>
   <trkpt lat="-3.2044620" lon="37.3486150">
    <ele>1974.0</ele>
    <time>2026-06-24T07:50:50Z</time>
   </trkpt>
   <trkpt lat="-3.2044640" lon="37.3486340">
    <ele>1973.8</ele>
    <time>2026-06-24T07:50:51Z</time>
   </trkpt>
   <trkpt lat="-3.2044600" lon="37.3486540">
    <ele>1973.6</ele>
    <time>2026-06-24T07:50:52Z</time>
   </trkpt>
   <trkpt lat="-3.2044640" lon="37.3486620">
    <ele>1973.5</ele>
    <time>2026-06-24T07:50:53Z</time>
   </trkpt>
   <trkpt lat="-3.2044720" lon="37.3486800">
    <ele>1973.4</ele>
    <time>2026-06-24T07:50:54Z</time>
   </trkpt>
   <trkpt lat="-3.2044580" lon="37.3486790">
    <ele>1973.2</ele>
    <time>2026-06-24T07:50:55Z</time>
   </trkpt>
   <trkpt lat="-3.2044520" lon="37.3486780">
    <ele>1973.2</ele>
    <time>2026-06-24T07:50:56Z</time>
   </trkpt>
   <trkpt lat="-3.2044320" lon="37.3486750">
    <ele>1973.0</ele>
    <time>2026-06-24T07:50:57Z</time>
   </trkpt>
   <trkpt lat="-3.2044300" lon="37.3486810">
    <ele>1972.9</ele>
    <time>2026-06-24T07:50:58Z</time>
   </trkpt>
   <trkpt lat="-3.2044200" lon="37.3486870">
    <ele>1972.8</ele>
    <time>2026-06-24T07:50:59Z</time>
   </trkpt>
   <trkpt lat="-3.2044170" lon="37.3486940">
    <ele>1972.7</ele>
    <time>2026-06-24T07:51:00Z</time>
   </trkpt>
   <trkpt lat="-3.2044160" lon="37.3486980">
    <ele>1972.7</ele>
    <time>2026-06-24T07:51:01Z</time>
   </trkpt>
   <trkpt lat="-3.2044020" lon="37.3487090">
    <ele>1972.5</ele>
    <time>2026-06-24T07:51:02Z</time>
   </trkpt>
   <trkpt lat="-3.2043920" lon="37.3487260">
    <ele>1972.3</ele>
    <time>2026-06-24T07:51:03Z</time>
   </trkpt>
   <trkpt lat="-3.2043800" lon="37.3487200">
    <ele>1972.2</ele>
    <time>2026-06-24T07:51:04Z</time>
   </trkpt>
   <trkpt lat="-3.2043680" lon="37.3487240">
    <ele>1972.0</ele>
    <time>2026-06-24T07:51:05Z</time>
   </trkpt>
   <trkpt lat="-3.2043550" lon="37.3487300">
    <ele>1971.8</ele>
    <time>2026-06-24T07:51:06Z</time>
   </trkpt>
   <trkpt lat="-3.2043420" lon="37.3487290">
    <ele>1971.7</ele>
    <time>2026-06-24T07:51:07Z</time>
   </trkpt>
   <trkpt lat="-3.2043330" lon="37.3487300">
    <ele>1971.6</ele>
    <time>2026-06-24T07:51:08Z</time>
   </trkpt>
   <trkpt lat="-3.2043260" lon="37.3487280">
    <ele>1971.5</ele>
    <time>2026-06-24T07:51:09Z</time>
   </trkpt>
   <trkpt lat="-3.2043120" lon="37.3487260">
    <ele>1971.3</ele>
    <time>2026-06-24T07:51:10Z</time>
   </trkpt>
   <trkpt lat="-3.2043010" lon="37.3487240">
    <ele>1971.2</ele>
    <time>2026-06-24T07:51:11Z</time>
   </trkpt>
   <trkpt lat="-3.2042900" lon="37.3487240">
    <ele>1971.1</ele>
    <time>2026-06-24T07:51:12Z</time>
   </trkpt>
   <trkpt lat="-3.2042830" lon="37.3487300">
    <ele>1970.9</ele>
    <time>2026-06-24T07:51:13Z</time>
   </trkpt>
   <trkpt lat="-3.2042800" lon="37.3487280">
    <ele>1970.9</ele>
    <time>2026-06-24T07:51:14Z</time>
   </trkpt>
   <trkpt lat="-3.2042720" lon="37.3487240">
    <ele>1970.8</ele>
    <time>2026-06-24T07:51:15Z</time>
   </trkpt>
   <trkpt lat="-3.2042620" lon="37.3487290">
    <ele>1970.6</ele>
    <time>2026-06-24T07:51:16Z</time>
   </trkpt>
   <trkpt lat="-3.2042520" lon="37.3487380">
    <ele>1970.5</ele>
    <time>2026-06-24T07:51:17Z</time>
   </trkpt>
   <trkpt lat="-3.2042450" lon="37.3487370">
    <ele>1970.4</ele>
    <time>2026-06-24T07:51:18Z</time>
   </trkpt>
   <trkpt lat="-3.2042380" lon="37.3487340">
    <ele>1970.3</ele>
    <time>2026-06-24T07:51:19Z</time>
   </trkpt>
   <trkpt lat="-3.2042270" lon="37.3487360">
    <ele>1970.1</ele>
    <time>2026-06-24T07:51:20Z</time>
   </trkpt>
   <trkpt lat="-3.2042200" lon="37.3487310">
    <ele>1970.0</ele>
    <time>2026-06-24T07:51:21Z</time>
   </trkpt>
   <trkpt lat="-3.2042170" lon="37.3487300">
    <ele>1970.0</ele>
    <time>2026-06-24T07:51:22Z</time>
   </trkpt>
   <trkpt lat="-3.2042170" lon="37.3487370">
    <ele>1969.9</ele>
    <time>2026-06-24T07:51:23Z</time>
   </trkpt>
   <trkpt lat="-3.2042180" lon="37.3487360">
    <ele>1969.9</ele>
    <time>2026-06-24T07:51:24Z</time>
   </trkpt>
   <trkpt lat="-3.2042180" lon="37.3487330">
    <ele>1969.8</ele>
    <time>2026-06-24T07:51:25Z</time>
   </trkpt>
   <trkpt lat="-3.2042180" lon="37.3487330">
    <ele>1969.8</ele>
    <time>2026-06-24T07:51:26Z</time>
   </trkpt>
   <trkpt lat="-3.2042180" lon="37.3487460">
    <ele>1969.6</ele>
    <time>2026-06-24T07:51:27Z</time>
   </trkpt>
   <trkpt lat="-3.2042120" lon="37.3487500">
    <ele>1969.5</ele>
    <time>2026-06-24T07:51:28Z</time>
   </trkpt>
   <trkpt lat="-3.2042160" lon="37.3487510">
    <ele>1969.5</ele>
    <time>2026-06-24T07:51:29Z</time>
   </trkpt>
   <trkpt lat="-3.2042160" lon="37.3487510">
    <ele>1969.5</ele>
    <time>2026-06-24T07:51:30Z</time>
   </trkpt>
   <trkpt lat="-3.2042160" lon="37.3487510">
    <ele>1969.5</ele>
    <time>2026-06-24T07:51:31Z</time>
   </trkpt>
   <trkpt lat="-3.2042160" lon="37.3487510">
    <ele>1969.5</ele>
    <time>2026-06-24T07:51:32Z</time>
   </trkpt>
   <trkpt lat="-3.2042160" lon="37.3487510">
    <ele>1969.5</ele>
    <time>2026-06-24T07:51:33Z</time>
   </trkpt>
   <trkpt lat="-3.2042160" lon="37.3487510">
    <ele>1969.5</ele>
    <time>2026-06-24T07:51:34Z</time>
   </trkpt>
   <trkpt lat="-3.2042280" lon="37.3487670">
    <ele>1969.2</ele>
    <time>2026-06-24T07:51:35Z</time>
   </trkpt>
   <trkpt lat="-3.2042350" lon="37.3487670">
    <ele>1969.1</ele>
    <time>2026-06-24T07:51:36Z</time>
   </trkpt>
   <trkpt lat="-3.2042360" lon="37.3487660">
    <ele>1969.1</ele>
    <time>2026-06-24T07:51:37Z</time>
   </trkpt>
   <trkpt lat="-3.2042380" lon="37.3487630">
    <ele>1969.1</ele>
    <time>2026-06-24T07:51:38Z</time>
   </trkpt>
   <trkpt lat="-3.2042350" lon="37.3487630">
    <ele>1969.0</ele>
    <time>2026-06-24T07:51:39Z</time>
   </trkpt>
   <trkpt lat="-3.2042350" lon="37.3487580">
    <ele>1969.0</ele>
    <time>2026-06-24T07:51:40Z</time>
   </trkpt>
   <trkpt lat="-3.2042340" lon="37.3487580">
    <ele>1969.0</ele>
    <time>2026-06-24T07:51:41Z</time>
   </trkpt>
   <trkpt lat="-3.2042340" lon="37.3487560">
    <ele>1968.9</ele>
    <time>2026-06-24T07:51:42Z</time>
   </trkpt>
   <trkpt lat="-3.2042340" lon="37.3487540">
    <ele>1968.9</ele>
    <time>2026-06-24T07:51:43Z</time>
   </trkpt>
   <trkpt lat="-3.2042340" lon="37.3487540">
    <ele>1968.9</ele>
    <time>2026-06-24T07:51:44Z</time>
   </trkpt>
   <trkpt lat="-3.2042340" lon="37.3487540">
    <ele>1968.9</ele>
    <time>2026-06-24T07:51:45Z</time>
   </trkpt>
   <trkpt lat="-3.2042340" lon="37.3487540">
    <ele>1968.9</ele>
    <time>2026-06-24T07:51:46Z</time>
   </trkpt>
   <trkpt lat="-3.2042340" lon="37.3487540">
    <ele>1968.9</ele>
    <time>2026-06-24T07:51:47Z</time>
   </trkpt>
   <trkpt lat="-3.2042340" lon="37.3487540">
    <ele>1968.9</ele>
    <time>2026-06-24T07:51:48Z</time>
   </trkpt>
   <trkpt lat="-3.2042340" lon="37.3487540">
    <ele>1968.9</ele>
    <time>2026-06-24T07:51:49Z</time>
   </trkpt>
   <trkpt lat="-3.2042380" lon="37.3487530">
    <ele>1968.8</ele>
    <time>2026-06-24T07:51:50Z</time>
   </trkpt>
   <trkpt lat="-3.2042360" lon="37.3487550">
    <ele>1968.8</ele>
    <time>2026-06-24T07:51:51Z</time>
   </trkpt>
   <trkpt lat="-3.2042360" lon="37.3487550">
    <ele>1968.8</ele>
    <time>2026-06-24T07:51:52Z</time>
   </trkpt>
   <trkpt lat="-3.2042350" lon="37.3487560">
    <ele>1968.8</ele>
    <time>2026-06-24T07:51:53Z</time>
   </trkpt>
   <trkpt lat="-3.2042370" lon="37.3487620">
    <ele>1968.7</ele>
    <time>2026-06-24T07:51:54Z</time>
   </trkpt>
   <trkpt lat="-3.2042370" lon="37.3487630">
    <ele>1968.7</ele>
    <time>2026-06-24T07:51:55Z</time>
   </trkpt>
   <trkpt lat="-3.2042370" lon="37.3487630">
    <ele>1968.7</ele>
    <time>2026-06-24T07:51:56Z</time>
   </trkpt>
   <trkpt lat="-3.2042350" lon="37.3487700">
    <ele>1968.6</ele>
    <time>2026-06-24T07:51:57Z</time>
   </trkpt>
   <trkpt lat="-3.2042340" lon="37.3487690">
    <ele>1968.6</ele>
    <time>2026-06-24T07:51:58Z</time>
   </trkpt>
   <trkpt lat="-3.2042310" lon="37.3487680">
    <ele>1968.5</ele>
    <time>2026-06-24T07:51:59Z</time>
   </trkpt>
   <trkpt lat="-3.2042320" lon="37.3487690">
    <ele>1968.5</ele>
    <time>2026-06-24T07:52:00Z</time>
   </trkpt>
   <trkpt lat="-3.2042320" lon="37.3487690">
    <ele>1968.5</ele>
    <time>2026-06-24T07:52:01Z</time>
   </trkpt>
   <trkpt lat="-3.2042320" lon="37.3487690">
    <ele>1968.5</ele>
    <time>2026-06-24T07:52:02Z</time>
   </trkpt>
   <trkpt lat="-3.2042320" lon="37.3487690">
    <ele>1968.5</ele>
    <time>2026-06-24T07:52:03Z</time>
   </trkpt>
   <trkpt lat="-3.2042320" lon="37.3487690">
    <ele>1968.5</ele>
    <time>2026-06-24T07:52:04Z</time>
   </trkpt>
   <trkpt lat="-3.2042320" lon="37.3487690">
    <ele>1968.5</ele>
    <time>2026-06-24T07:52:05Z</time>
   </trkpt>
   <trkpt lat="-3.2042320" lon="37.3487690">
    <ele>1968.5</ele>
    <time>2026-06-24T07:52:06Z</time>
   </trkpt>
   <trkpt lat="-3.2042320" lon="37.3487690">
    <ele>1968.5</ele>
    <time>2026-06-24T07:52:07Z</time>
   </trkpt>
   <trkpt lat="-3.2042320" lon="37.3487690">
    <ele>1968.5</ele>
    <time>2026-06-24T07:52:08Z</time>
   </trkpt>
   <trkpt lat="-3.2042440" lon="37.3487670">
    <ele>1968.4</ele>
    <time>2026-06-24T07:52:09Z</time>
   </trkpt>
   <trkpt lat="-3.2042440" lon="37.3487690">
    <ele>1968.3</ele>
    <time>2026-06-24T07:52:10Z</time>
   </trkpt>
   <trkpt lat="-3.2042430" lon="37.3487660">
    <ele>1968.3</ele>
    <time>2026-06-24T07:52:11Z</time>
   </trkpt>
   <trkpt lat="-3.2042450" lon="37.3487640">
    <ele>1968.3</ele>
    <time>2026-06-24T07:52:12Z</time>
   </trkpt>
   <trkpt lat="-3.2042450" lon="37.3487640">
    <ele>1968.3</ele>
    <time>2026-06-24T07:52:14Z</time>
   </trkpt>
   <trkpt lat="-3.2042450" lon="37.3487640">
    <ele>1968.3</ele>
    <time>2026-06-24T07:52:15Z</time>
   </trkpt>
   <trkpt lat="-3.2042450" lon="37.3487640">
    <ele>1968.3</ele>
    <time>2026-06-24T07:52:16Z</time>
   </trkpt>
   <trkpt lat="-3.2042450" lon="37.3487640">
    <ele>1968.3</ele>
    <time>2026-06-24T07:52:17Z</time>
   </trkpt>
   <trkpt lat="-3.2042450" lon="37.3487640">
    <ele>1968.3</ele>
    <time>2026-06-24T07:52:18Z</time>
   </trkpt>
   <trkpt lat="-3.2042450" lon="37.3487640">
    <ele>1968.3</ele>
    <time>2026-06-24T07:52:19Z</time>
   </trkpt>
   <trkpt lat="-3.2042450" lon="37.3487640">
    <ele>1968.3</ele>
    <time>2026-06-24T07:52:20Z</time>
   </trkpt>
   <trkpt lat="-3.2042450" lon="37.3487640">
    <ele>1968.3</ele>
    <time>2026-06-24T07:52:21Z</time>
   </trkpt>
   <trkpt lat="-3.2042450" lon="37.3487640">
    <ele>1968.3</ele>
    <time>2026-06-24T07:52:22Z</time>
   </trkpt>
   <trkpt lat="-3.2042450" lon="37.3487640">
    <ele>1968.3</ele>
    <time>2026-06-24T07:52:23Z</time>
   </trkpt>
   <trkpt lat="-3.2042450" lon="37.3487640">
    <ele>1968.3</ele>
    <time>2026-06-24T07:52:24Z</time>
   </trkpt>
   <trkpt lat="-3.2042450" lon="37.3487640">
    <ele>1968.3</ele>
    <time>2026-06-24T07:52:25Z</time>
   </trkpt>
   <trkpt lat="-3.2042450" lon="37.3487640">
    <ele>1968.3</ele>
    <time>2026-06-24T07:52:26Z</time>
   </trkpt>
   <trkpt lat="-3.2042590" lon="37.3487560">
    <ele>1968.1</ele>
    <time>2026-06-24T07:52:27Z</time>
   </trkpt>
   <trkpt lat="-3.2042590" lon="37.3487560">
    <ele>1968.1</ele>
    <time>2026-06-24T07:52:28Z</time>
   </trkpt>
   <trkpt lat="-3.2042590" lon="37.3487560">
    <ele>1968.1</ele>
    <time>2026-06-24T07:52:29Z</time>
   </trkpt>
   <trkpt lat="-3.2042590" lon="37.3487560">
    <ele>1968.1</ele>
    <time>2026-06-24T07:52:30Z</time>
   </trkpt>
   <trkpt lat="-3.2042680" lon="37.3487530">
    <ele>1967.9</ele>
    <time>2026-06-24T07:52:31Z</time>
   </trkpt>
   <trkpt lat="-3.2042680" lon="37.3487520">
    <ele>1967.9</ele>
    <time>2026-06-24T07:52:32Z</time>
   </trkpt>
   <trkpt lat="-3.2042660" lon="37.3487520">
    <ele>1967.9</ele>
    <time>2026-06-24T07:52:33Z</time>
   </trkpt>
   <trkpt lat="-3.2042620" lon="37.3487510">
    <ele>1967.9</ele>
    <time>2026-06-24T07:52:34Z</time>
   </trkpt>
   <trkpt lat="-3.2042530" lon="37.3487570">
    <ele>1967.7</ele>
    <time>2026-06-24T07:52:35Z</time>
   </trkpt>
   <trkpt lat="-3.2042570" lon="37.3487510">
    <ele>1967.6</ele>
    <time>2026-06-24T07:52:36Z</time>
   </trkpt>
   <trkpt lat="-3.2042570" lon="37.3487510">
    <ele>1967.6</ele>
    <time>2026-06-24T07:52:37Z</time>
   </trkpt>
   <trkpt lat="-3.2042570" lon="37.3487510">
    <ele>1967.6</ele>
    <time>2026-06-24T07:52:38Z</time>
   </trkpt>
   <trkpt lat="-3.2042570" lon="37.3487510">
    <ele>1967.6</ele>
    <time>2026-06-24T07:52:39Z</time>
   </trkpt>
   <trkpt lat="-3.2042410" lon="37.3487670">
    <ele>1967.3</ele>
    <time>2026-06-24T07:52:40Z</time>
   </trkpt>
   <trkpt lat="-3.2042410" lon="37.3487670">
    <ele>1967.3</ele>
    <time>2026-06-24T07:52:41Z</time>
   </trkpt>
   <trkpt lat="-3.2042410" lon="37.3487560">
    <ele>1967.2</ele>
    <time>2026-06-24T07:52:42Z</time>
   </trkpt>
   <trkpt lat="-3.2042410" lon="37.3487560">
    <ele>1967.2</ele>
    <time>2026-06-24T07:52:43Z</time>
   </trkpt>
   <trkpt lat="-3.2042410" lon="37.3487560">
    <ele>1967.2</ele>
    <time>2026-06-24T07:52:44Z</time>
   </trkpt>
   <trkpt lat="-3.2042410" lon="37.3487560">
    <ele>1967.2</ele>
    <time>2026-06-24T07:52:45Z</time>
   </trkpt>
   <trkpt lat="-3.2042410" lon="37.3487560">
    <ele>1967.2</ele>
    <time>2026-06-24T07:52:46Z</time>
   </trkpt>
   <trkpt lat="-3.2042410" lon="37.3487560">
    <ele>1967.2</ele>
    <time>2026-06-24T07:52:47Z</time>
   </trkpt>
   <trkpt lat="-3.2042410" lon="37.3487560">
    <ele>1967.2</ele>
    <time>2026-06-24T07:52:48Z</time>
   </trkpt>
   <trkpt lat="-3.2042410" lon="37.3487560">
    <ele>1967.2</ele>
    <time>2026-06-24T07:52:49Z</time>
   </trkpt>
   <trkpt lat="-3.2042410" lon="37.3487560">
    <ele>1967.2</ele>
    <time>2026-06-24T07:52:50Z</time>
   </trkpt>
   <trkpt lat="-3.2042410" lon="37.3487560">
    <ele>1967.2</ele>
    <time>2026-06-24T07:52:51Z</time>
   </trkpt>
   <trkpt lat="-3.2042410" lon="37.3487560">
    <ele>1967.2</ele>
    <time>2026-06-24T07:52:52Z</time>
   </trkpt>
   <trkpt lat="-3.2042410" lon="37.3487560">
    <ele>1967.2</ele>
    <time>2026-06-24T07:52:53Z</time>
   </trkpt>
   <trkpt lat="-3.2042410" lon="37.3487560">
    <ele>1967.2</ele>
    <time>2026-06-24T07:52:54Z</time>
   </trkpt>
   <trkpt lat="-3.2042410" lon="37.3487560">
    <ele>1967.2</ele>
    <time>2026-06-24T07:52:55Z</time>
   </trkpt>
   <trkpt lat="-3.2042410" lon="37.3487560">
    <ele>1967.2</ele>
    <time>2026-06-24T07:52:56Z</time>
   </trkpt>
   <trkpt lat="-3.2042410" lon="37.3487560">
    <ele>1967.2</ele>
    <time>2026-06-24T07:52:57Z</time>
   </trkpt>
   <trkpt lat="-3.2042410" lon="37.3487560">
    <ele>1967.2</ele>
    <time>2026-06-24T07:52:58Z</time>
   </trkpt>
   <trkpt lat="-3.2042410" lon="37.3487560">
    <ele>1967.2</ele>
    <time>2026-06-24T07:52:59Z</time>
   </trkpt>
   <trkpt lat="-3.2042410" lon="37.3487560">
    <ele>1967.2</ele>
    <time>2026-06-24T07:53:00Z</time>
   </trkpt>
   <trkpt lat="-3.2042410" lon="37.3487560">
    <ele>1967.2</ele>
    <time>2026-06-24T07:53:01Z</time>
   </trkpt>
   <trkpt lat="-3.2042410" lon="37.3487560">
    <ele>1967.2</ele>
    <time>2026-06-24T07:53:02Z</time>
   </trkpt>
   <trkpt lat="-3.2042410" lon="37.3487560">
    <ele>1967.2</ele>
    <time>2026-06-24T07:53:03Z</time>
   </trkpt>
   <trkpt lat="-3.2042410" lon="37.3487560">
    <ele>1967.2</ele>
    <time>2026-06-24T07:53:04Z</time>
   </trkpt>
   <trkpt lat="-3.2042410" lon="37.3487560">
    <ele>1967.2</ele>
    <time>2026-06-24T07:53:05Z</time>
   </trkpt>
   <trkpt lat="-3.2042410" lon="37.3487560">
    <ele>1967.2</ele>
    <time>2026-06-24T07:53:06Z</time>
   </trkpt>
   <trkpt lat="-3.2042410" lon="37.3487560">
    <ele>1967.2</ele>
    <time>2026-06-24T07:53:07Z</time>
   </trkpt>
   <trkpt lat="-3.2042410" lon="37.3487560">
    <ele>1967.2</ele>
    <time>2026-06-24T07:53:08Z</time>
   </trkpt>
   <trkpt lat="-3.2042410" lon="37.3487560">
    <ele>1967.2</ele>
    <time>2026-06-24T07:53:09Z</time>
   </trkpt>
   <trkpt lat="-3.2042410" lon="37.3487560">
    <ele>1967.2</ele>
    <time>2026-06-24T07:53:10Z</time>
   </trkpt>
   <trkpt lat="-3.2042410" lon="37.3487560">
    <ele>1967.2</ele>
    <time>2026-06-24T07:53:11Z</time>
   </trkpt>
   <trkpt lat="-3.2042410" lon="37.3487560">
    <ele>1967.2</ele>
    <time>2026-06-24T07:53:12Z</time>
   </trkpt>
   <trkpt lat="-3.2042410" lon="37.3487560">
    <ele>1967.2</ele>
    <time>2026-06-24T07:53:13Z</time>
   </trkpt>
   <trkpt lat="-3.2042410" lon="37.3487560">
    <ele>1967.2</ele>
    <time>2026-06-24T07:53:14Z</time>
   </trkpt>
   <trkpt lat="-3.2042410" lon="37.3487560">
    <ele>1967.2</ele>
    <time>2026-06-24T07:53:15Z</time>
   </trkpt>
   <trkpt lat="-3.2042410" lon="37.3487560">
    <ele>1967.2</ele>
    <time>2026-06-24T07:53:16Z</time>
   </trkpt>
   <trkpt lat="-3.2042410" lon="37.3487560">
    <ele>1967.2</ele>
    <time>2026-06-24T07:53:17Z</time>
   </trkpt>
   <trkpt lat="-3.2042410" lon="37.3487560">
    <ele>1967.2</ele>
    <time>2026-06-24T07:53:18Z</time>
   </trkpt>
   <trkpt lat="-3.2042410" lon="37.3487560">
    <ele>1967.2</ele>
    <time>2026-06-24T07:53:19Z</time>
   </trkpt>
   <trkpt lat="-3.2042410" lon="37.3487560">
    <ele>1967.2</ele>
    <time>2026-06-24T07:53:20Z</time>
   </trkpt>
   <trkpt lat="-3.2042410" lon="37.3487560">
    <ele>1967.2</ele>
    <time>2026-06-24T07:53:21Z</time>
   </trkpt>
   <trkpt lat="-3.2042410" lon="37.3487560">
    <ele>1967.2</ele>
    <time>2026-06-24T07:53:22Z</time>
   </trkpt>
   <trkpt lat="-3.2042410" lon="37.3487560">
    <ele>1967.2</ele>
    <time>2026-06-24T07:53:23Z</time>
   </trkpt>
   <trkpt lat="-3.2042410" lon="37.3487560">
    <ele>1967.2</ele>
    <time>2026-06-24T07:53:24Z</time>
   </trkpt>
   <trkpt lat="-3.2042410" lon="37.3487560">
    <ele>1967.2</ele>
    <time>2026-06-24T07:53:25Z</time>
   </trkpt>
   <trkpt lat="-3.2042410" lon="37.3487560">
    <ele>1967.2</ele>
    <time>2026-06-24T07:53:26Z</time>
   </trkpt>
   <trkpt lat="-3.2042410" lon="37.3487560">
    <ele>1967.2</ele>
    <time>2026-06-24T07:53:27Z</time>
   </trkpt>
   <trkpt lat="-3.2042410" lon="37.3487560">
    <ele>1967.2</ele>
    <time>2026-06-24T07:53:28Z</time>
   </trkpt>
   <trkpt lat="-3.2042410" lon="37.3487560">
    <ele>1967.2</ele>
    <time>2026-06-24T07:53:29Z</time>
   </trkpt>
   <trkpt lat="-3.2042410" lon="37.3487560">
    <ele>1967.2</ele>
    <time>2026-06-24T07:53:30Z</time>
   </trkpt>
   <trkpt lat="-3.2042410" lon="37.3487560">
    <ele>1967.2</ele>
    <time>2026-06-24T07:53:31Z</time>
   </trkpt>
   <trkpt lat="-3.2042410" lon="37.3487560">
    <ele>1967.2</ele>
    <time>2026-06-24T07:53:32Z</time>
   </trkpt>
   <trkpt lat="-3.2042410" lon="37.3487560">
    <ele>1967.2</ele>
    <time>2026-06-24T07:53:33Z</time>
   </trkpt>
   <trkpt lat="-3.2042410" lon="37.3487560">
    <ele>1967.2</ele>
    <time>2026-06-24T07:53:34Z</time>
   </trkpt>
   <trkpt lat="-3.2042410" lon="37.3487560">
    <ele>1967.2</ele>
    <time>2026-06-24T07:53:35Z</time>
   </trkpt>
   <trkpt lat="-3.2042410" lon="37.3487560">
    <ele>1967.2</ele>
    <time>2026-06-24T07:53:36Z</time>
   </trkpt>
   <trkpt lat="-3.2042410" lon="37.3487560">
    <ele>1967.2</ele>
    <time>2026-06-24T07:53:37Z</time>
   </trkpt>
   <trkpt lat="-3.2042410" lon="37.3487560">
    <ele>1967.2</ele>
    <time>2026-06-24T07:53:38Z</time>
   </trkpt>
   <trkpt lat="-3.2042410" lon="37.3487560">
    <ele>1967.2</ele>
    <time>2026-06-24T07:53:39Z</time>
   </trkpt>
   <trkpt lat="-3.2042410" lon="37.3487560">
    <ele>1967.2</ele>
    <time>2026-06-24T07:53:40Z</time>
   </trkpt>
   <trkpt lat="-3.2042410" lon="37.3487560">
    <ele>1967.2</ele>
    <time>2026-06-24T07:53:41Z</time>
   </trkpt>
   <trkpt lat="-3.2042410" lon="37.3487560">
    <ele>1967.2</ele>
    <time>2026-06-24T07:53:42Z</time>
   </trkpt>
   <trkpt lat="-3.2042410" lon="37.3487560">
    <ele>1967.2</ele>
    <time>2026-06-24T07:53:43Z</time>
   </trkpt>
   <trkpt lat="-3.2042410" lon="37.3487560">
    <ele>1967.2</ele>
    <time>2026-06-24T07:53:44Z</time>
   </trkpt>
   <trkpt lat="-3.2042410" lon="37.3487560">
    <ele>1967.2</ele>
    <time>2026-06-24T07:53:45Z</time>
   </trkpt>
   <trkpt lat="-3.2042410" lon="37.3487560">
    <ele>1967.2</ele>
    <time>2026-06-24T07:53:46Z</time>
   </trkpt>
   <trkpt lat="-3.2042410" lon="37.3487560">
    <ele>1967.2</ele>
    <time>2026-06-24T07:53:47Z</time>
   </trkpt>
   <trkpt lat="-3.2042410" lon="37.3487560">
    <ele>1967.2</ele>
    <time>2026-06-24T07:53:48Z</time>
   </trkpt>
   <trkpt lat="-3.2042410" lon="37.3487560">
    <ele>1967.2</ele>
    <time>2026-06-24T07:53:49Z</time>
   </trkpt>
   <trkpt lat="-3.2042410" lon="37.3487560">
    <ele>1967.2</ele>
    <time>2026-06-24T07:53:50Z</time>
   </trkpt>
   <trkpt lat="-3.2042410" lon="37.3487560">
    <ele>1967.2</ele>
    <time>2026-06-24T07:53:51Z</time>
   </trkpt>
   <trkpt lat="-3.2042410" lon="37.3487450">
    <ele>1967.1</ele>
    <time>2026-06-24T07:53:52Z</time>
   </trkpt>
   <trkpt lat="-3.2042410" lon="37.3487450">
    <ele>1967.1</ele>
    <time>2026-06-24T07:53:53Z</time>
   </trkpt>
   <trkpt lat="-3.2042410" lon="37.3487450">
    <ele>1967.1</ele>
    <time>2026-06-24T07:53:54Z</time>
   </trkpt>
   <trkpt lat="-3.2042410" lon="37.3487450">
    <ele>1967.1</ele>
    <time>2026-06-24T07:53:55Z</time>
   </trkpt>
   <trkpt lat="-3.2042410" lon="37.3487450">
    <ele>1967.1</ele>
    <time>2026-06-24T07:53:56Z</time>
   </trkpt>
   <trkpt lat="-3.2042420" lon="37.3487330">
    <ele>1966.9</ele>
    <time>2026-06-24T07:53:57Z</time>
   </trkpt>
   <trkpt lat="-3.2042420" lon="37.3487330">
    <ele>1966.9</ele>
    <time>2026-06-24T07:53:58Z</time>
   </trkpt>
   <trkpt lat="-3.2042420" lon="37.3487330">
    <ele>1966.9</ele>
    <time>2026-06-24T07:53:59Z</time>
   </trkpt>
   <trkpt lat="-3.2042420" lon="37.3487320">
    <ele>1966.9</ele>
    <time>2026-06-24T07:54:00Z</time>
   </trkpt>
   <trkpt lat="-3.2042420" lon="37.3487320">
    <ele>1966.9</ele>
    <time>2026-06-24T07:54:01Z</time>
   </trkpt>
   <trkpt lat="-3.2042420" lon="37.3487310">
    <ele>1966.9</ele>
    <time>2026-06-24T07:54:02Z</time>
   </trkpt>
   <trkpt lat="-3.2042420" lon="37.3487310">
    <ele>1966.9</ele>
    <time>2026-06-24T07:54:03Z</time>
   </trkpt>
   <trkpt lat="-3.2042420" lon="37.3487300">
    <ele>1966.9</ele>
    <time>2026-06-24T07:54:04Z</time>
   </trkpt>
   <trkpt lat="-3.2042420" lon="37.3487300">
    <ele>1966.9</ele>
    <time>2026-06-24T07:54:05Z</time>
   </trkpt>
   <trkpt lat="-3.2042420" lon="37.3487290">
    <ele>1966.9</ele>
    <time>2026-06-24T07:54:06Z</time>
   </trkpt>
   <trkpt lat="-3.2042420" lon="37.3487290">
    <ele>1966.9</ele>
    <time>2026-06-24T07:54:07Z</time>
   </trkpt>
   <trkpt lat="-3.2042420" lon="37.3487290">
    <ele>1966.9</ele>
    <time>2026-06-24T07:54:08Z</time>
   </trkpt>
   <trkpt lat="-3.2042420" lon="37.3487280">
    <ele>1966.9</ele>
    <time>2026-06-24T07:54:09Z</time>
   </trkpt>
   <trkpt lat="-3.2042420" lon="37.3487280">
    <ele>1966.9</ele>
    <time>2026-06-24T07:54:10Z</time>
   </trkpt>
   <trkpt lat="-3.2042420" lon="37.3487270">
    <ele>1966.9</ele>
    <time>2026-06-24T07:54:11Z</time>
   </trkpt>
   <trkpt lat="-3.2042420" lon="37.3487270">
    <ele>1966.9</ele>
    <time>2026-06-24T07:54:12Z</time>
   </trkpt>
   <trkpt lat="-3.2042420" lon="37.3487260">
    <ele>1966.8</ele>
    <time>2026-06-24T07:54:13Z</time>
   </trkpt>
   <trkpt lat="-3.2042420" lon="37.3487260">
    <ele>1966.8</ele>
    <time>2026-06-24T07:54:14Z</time>
   </trkpt>
   <trkpt lat="-3.2042420" lon="37.3487250">
    <ele>1966.8</ele>
    <time>2026-06-24T07:54:15Z</time>
   </trkpt>
   <trkpt lat="-3.2042420" lon="37.3487250">
    <ele>1966.8</ele>
    <time>2026-06-24T07:54:16Z</time>
   </trkpt>
   <trkpt lat="-3.2042420" lon="37.3487240">
    <ele>1966.8</ele>
    <time>2026-06-24T07:54:17Z</time>
   </trkpt>
   <trkpt lat="-3.2042420" lon="37.3487240">
    <ele>1966.8</ele>
    <time>2026-06-24T07:54:18Z</time>
   </trkpt>
   <trkpt lat="-3.2042420" lon="37.3487240">
    <ele>1966.8</ele>
    <time>2026-06-24T07:54:19Z</time>
   </trkpt>
   <trkpt lat="-3.2042420" lon="37.3487230">
    <ele>1966.8</ele>
    <time>2026-06-24T07:54:20Z</time>
   </trkpt>
   <trkpt lat="-3.2042420" lon="37.3487230">
    <ele>1966.8</ele>
    <time>2026-06-24T07:54:21Z</time>
   </trkpt>
   <trkpt lat="-3.2042420" lon="37.3487220">
    <ele>1966.8</ele>
    <time>2026-06-24T07:54:22Z</time>
   </trkpt>
   <trkpt lat="-3.2042420" lon="37.3487220">
    <ele>1966.8</ele>
    <time>2026-06-24T07:54:23Z</time>
   </trkpt>
   <trkpt lat="-3.2042420" lon="37.3487210">
    <ele>1966.8</ele>
    <time>2026-06-24T07:54:24Z</time>
   </trkpt>
   <trkpt lat="-3.2042420" lon="37.3487210">
    <ele>1966.8</ele>
    <time>2026-06-24T07:54:25Z</time>
   </trkpt>
   <trkpt lat="-3.2042420" lon="37.3487200">
    <ele>1966.8</ele>
    <time>2026-06-24T07:54:26Z</time>
   </trkpt>
   <trkpt lat="-3.2042420" lon="37.3487200">
    <ele>1966.8</ele>
    <time>2026-06-24T07:54:27Z</time>
   </trkpt>
   <trkpt lat="-3.2042420" lon="37.3487200">
    <ele>1966.8</ele>
    <time>2026-06-24T07:54:28Z</time>
   </trkpt>
   <trkpt lat="-3.2042420" lon="37.3487190">
    <ele>1966.8</ele>
    <time>2026-06-24T07:54:29Z</time>
   </trkpt>
   <trkpt lat="-3.2042420" lon="37.3487190">
    <ele>1966.8</ele>
    <time>2026-06-24T07:54:30Z</time>
   </trkpt>
   <trkpt lat="-3.2042420" lon="37.3487180">
    <ele>1966.7</ele>
    <time>2026-06-24T07:54:31Z</time>
   </trkpt>
   <trkpt lat="-3.2042420" lon="37.3487180">
    <ele>1966.7</ele>
    <time>2026-06-24T07:54:32Z</time>
   </trkpt>
   <trkpt lat="-3.2042420" lon="37.3487170">
    <ele>1966.7</ele>
    <time>2026-06-24T07:54:33Z</time>
   </trkpt>
   <trkpt lat="-3.2042420" lon="37.3487170">
    <ele>1966.7</ele>
    <time>2026-06-24T07:54:34Z</time>
   </trkpt>
   <trkpt lat="-3.2042420" lon="37.3487160">
    <ele>1966.7</ele>
    <time>2026-06-24T07:54:35Z</time>
   </trkpt>
   <trkpt lat="-3.2042420" lon="37.3487160">
    <ele>1966.7</ele>
    <time>2026-06-24T07:54:36Z</time>
   </trkpt>
   <trkpt lat="-3.2042420" lon="37.3487150">
    <ele>1966.7</ele>
    <time>2026-06-24T07:54:37Z</time>
   </trkpt>
   <trkpt lat="-3.2042420" lon="37.3487150">
    <ele>1966.7</ele>
    <time>2026-06-24T07:54:38Z</time>
   </trkpt>
   <trkpt lat="-3.2042420" lon="37.3487150">
    <ele>1966.7</ele>
    <time>2026-06-24T07:54:39Z</time>
   </trkpt>
   <trkpt lat="-3.2042420" lon="37.3487140">
    <ele>1966.7</ele>
    <time>2026-06-24T07:54:40Z</time>
   </trkpt>
   <trkpt lat="-3.2042420" lon="37.3487140">
    <ele>1966.7</ele>
    <time>2026-06-24T07:54:41Z</time>
   </trkpt>
   <trkpt lat="-3.2042420" lon="37.3487130">
    <ele>1966.7</ele>
    <time>2026-06-24T07:54:42Z</time>
   </trkpt>
   <trkpt lat="-3.2042420" lon="37.3487130">
    <ele>1966.7</ele>
    <time>2026-06-24T07:54:43Z</time>
   </trkpt>
   <trkpt lat="-3.2042420" lon="37.3487120">
    <ele>1966.7</ele>
    <time>2026-06-24T07:54:44Z</time>
   </trkpt>
   <trkpt lat="-3.2042420" lon="37.3487120">
    <ele>1966.7</ele>
    <time>2026-06-24T07:54:45Z</time>
   </trkpt>
   <trkpt lat="-3.2042420" lon="37.3487110">
    <ele>1966.7</ele>
    <time>2026-06-24T07:54:46Z</time>
   </trkpt>
   <trkpt lat="-3.2042420" lon="37.3487110">
    <ele>1966.7</ele>
    <time>2026-06-24T07:54:47Z</time>
   </trkpt>
   <trkpt lat="-3.2042420" lon="37.3487120">
    <ele>1966.7</ele>
    <time>2026-06-24T07:54:48Z</time>
   </trkpt>
   <trkpt lat="-3.2042420" lon="37.3487080">
    <ele>1966.6</ele>
    <time>2026-06-24T07:54:49Z</time>
   </trkpt>
   <trkpt lat="-3.2042400" lon="37.3487090">
    <ele>1966.6</ele>
    <time>2026-06-24T07:54:50Z</time>
   </trkpt>
   <trkpt lat="-3.2042380" lon="37.3487110">
    <ele>1966.5</ele>
    <time>2026-06-24T07:54:51Z</time>
   </trkpt>
   <trkpt lat="-3.2042450" lon="37.3487010">
    <ele>1966.4</ele>
    <time>2026-06-24T07:54:52Z</time>
   </trkpt>
   <trkpt lat="-3.2042470" lon="37.3486950">
    <ele>1966.3</ele>
    <time>2026-06-24T07:54:53Z</time>
   </trkpt>
   <trkpt lat="-3.2042420" lon="37.3486940">
    <ele>1966.3</ele>
    <time>2026-06-24T07:54:54Z</time>
   </trkpt>
   <trkpt lat="-3.2042410" lon="37.3487000">
    <ele>1966.2</ele>
    <time>2026-06-24T07:54:55Z</time>
   </trkpt>
   <trkpt lat="-3.2042410" lon="37.3487000">
    <ele>1966.2</ele>
    <time>2026-06-24T07:54:56Z</time>
   </trkpt>
   <trkpt lat="-3.2042410" lon="37.3487000">
    <ele>1966.2</ele>
    <time>2026-06-24T07:54:57Z</time>
   </trkpt>
   <trkpt lat="-3.2042410" lon="37.3487000">
    <ele>1966.2</ele>
    <time>2026-06-24T07:54:58Z</time>
   </trkpt>
   <trkpt lat="-3.2042410" lon="37.3487000">
    <ele>1966.2</ele>
    <time>2026-06-24T07:54:59Z</time>
   </trkpt>
   <trkpt lat="-3.2042410" lon="37.3487000">
    <ele>1966.2</ele>
    <time>2026-06-24T07:55:00Z</time>
   </trkpt>
   <trkpt lat="-3.2042410" lon="37.3487000">
    <ele>1966.2</ele>
    <time>2026-06-24T07:55:01Z</time>
   </trkpt>
   <trkpt lat="-3.2042410" lon="37.3487000">
    <ele>1966.2</ele>
    <time>2026-06-24T07:55:02Z</time>
   </trkpt>
   <trkpt lat="-3.2042410" lon="37.3486990">
    <ele>1966.2</ele>
    <time>2026-06-24T07:55:03Z</time>
   </trkpt>
   <trkpt lat="-3.2042410" lon="37.3486980">
    <ele>1966.2</ele>
    <time>2026-06-24T07:55:04Z</time>
   </trkpt>
   <trkpt lat="-3.2042420" lon="37.3486950">
    <ele>1966.1</ele>
    <time>2026-06-24T07:55:05Z</time>
   </trkpt>
   <trkpt lat="-3.2042440" lon="37.3486950">
    <ele>1966.1</ele>
    <time>2026-06-24T07:55:06Z</time>
   </trkpt>
   <trkpt lat="-3.2042450" lon="37.3486950">
    <ele>1966.1</ele>
    <time>2026-06-24T07:55:07Z</time>
   </trkpt>
   <trkpt lat="-3.2042490" lon="37.3486940">
    <ele>1966.1</ele>
    <time>2026-06-24T07:55:08Z</time>
   </trkpt>
   <trkpt lat="-3.2042530" lon="37.3486910">
    <ele>1966.0</ele>
    <time>2026-06-24T07:55:09Z</time>
   </trkpt>
   <trkpt lat="-3.2042550" lon="37.3486950">
    <ele>1965.9</ele>
    <time>2026-06-24T07:55:10Z</time>
   </trkpt>
   <trkpt lat="-3.2042610" lon="37.3487000">
    <ele>1965.9</ele>
    <time>2026-06-24T07:55:11Z</time>
   </trkpt>
   <trkpt lat="-3.2042670" lon="37.3487030">
    <ele>1965.8</ele>
    <time>2026-06-24T07:55:12Z</time>
   </trkpt>
   <trkpt lat="-3.2042740" lon="37.3487050">
    <ele>1965.7</ele>
    <time>2026-06-24T07:55:13Z</time>
   </trkpt>
   <trkpt lat="-3.2042830" lon="37.3487060">
    <ele>1965.6</ele>
    <time>2026-06-24T07:55:14Z</time>
   </trkpt>
   <trkpt lat="-3.2042920" lon="37.3487130">
    <ele>1965.5</ele>
    <time>2026-06-24T07:55:15Z</time>
   </trkpt>
   <trkpt lat="-3.2043070" lon="37.3487110">
    <ele>1965.3</ele>
    <time>2026-06-24T07:55:16Z</time>
   </trkpt>
   <trkpt lat="-3.2043150" lon="37.3487150">
    <ele>1965.2</ele>
    <time>2026-06-24T07:55:17Z</time>
   </trkpt>
   <trkpt lat="-3.2043220" lon="37.3487180">
    <ele>1965.1</ele>
    <time>2026-06-24T07:55:18Z</time>
   </trkpt>
   <trkpt lat="-3.2043260" lon="37.3487180">
    <ele>1965.1</ele>
    <time>2026-06-24T07:55:19Z</time>
   </trkpt>
   <trkpt lat="-3.2043330" lon="37.3487150">
    <ele>1965.0</ele>
    <time>2026-06-24T07:55:20Z</time>
   </trkpt>
   <trkpt lat="-3.2043410" lon="37.3487100">
    <ele>1964.9</ele>
    <time>2026-06-24T07:55:21Z</time>
   </trkpt>
   <trkpt lat="-3.2043480" lon="37.3487150">
    <ele>1964.8</ele>
    <time>2026-06-24T07:55:22Z</time>
   </trkpt>
   <trkpt lat="-3.2043540" lon="37.3487140">
    <ele>1964.8</ele>
    <time>2026-06-24T07:55:23Z</time>
   </trkpt>
   <trkpt lat="-3.2043630" lon="37.3487170">
    <ele>1964.7</ele>
    <time>2026-06-24T07:55:24Z</time>
   </trkpt>
   <trkpt lat="-3.2043700" lon="37.3487230">
    <ele>1964.6</ele>
    <time>2026-06-24T07:55:25Z</time>
   </trkpt>
   <trkpt lat="-3.2043740" lon="37.3487260">
    <ele>1964.6</ele>
    <time>2026-06-24T07:55:26Z</time>
   </trkpt>
   <trkpt lat="-3.2043780" lon="37.3487250">
    <ele>1964.5</ele>
    <time>2026-06-24T07:55:27Z</time>
   </trkpt>
   <trkpt lat="-3.2043850" lon="37.3487240">
    <ele>1964.4</ele>
    <time>2026-06-24T07:55:28Z</time>
   </trkpt>
   <trkpt lat="-3.2043910" lon="37.3487250">
    <ele>1964.4</ele>
    <time>2026-06-24T07:55:29Z</time>
   </trkpt>
   <trkpt lat="-3.2043950" lon="37.3487220">
    <ele>1964.3</ele>
    <time>2026-06-24T07:55:30Z</time>
   </trkpt>
   <trkpt lat="-3.2043990" lon="37.3487160">
    <ele>1964.3</ele>
    <time>2026-06-24T07:55:31Z</time>
   </trkpt>
   <trkpt lat="-3.2044050" lon="37.3487150">
    <ele>1964.2</ele>
    <time>2026-06-24T07:55:32Z</time>
   </trkpt>
   <trkpt lat="-3.2044030" lon="37.3487200">
    <ele>1964.1</ele>
    <time>2026-06-24T07:55:33Z</time>
   </trkpt>
   <trkpt lat="-3.2044140" lon="37.3487250">
    <ele>1964.0</ele>
    <time>2026-06-24T07:55:34Z</time>
   </trkpt>
   <trkpt lat="-3.2044180" lon="37.3487250">
    <ele>1964.0</ele>
    <time>2026-06-24T07:55:35Z</time>
   </trkpt>
   <trkpt lat="-3.2044210" lon="37.3487220">
    <ele>1963.9</ele>
    <time>2026-06-24T07:55:36Z</time>
   </trkpt>
   <trkpt lat="-3.2044270" lon="37.3487210">
    <ele>1963.9</ele>
    <time>2026-06-24T07:55:37Z</time>
   </trkpt>
   <trkpt lat="-3.2044220" lon="37.3487210">
    <ele>1963.8</ele>
    <time>2026-06-24T07:55:38Z</time>
   </trkpt>
   <trkpt lat="-3.2044370" lon="37.3487120">
    <ele>1963.7</ele>
    <time>2026-06-24T07:55:39Z</time>
   </trkpt>
   <trkpt lat="-3.2044470" lon="37.3487110">
    <ele>1963.6</ele>
    <time>2026-06-24T07:55:40Z</time>
   </trkpt>
   <trkpt lat="-3.2044480" lon="37.3487130">
    <ele>1963.5</ele>
    <time>2026-06-24T07:55:41Z</time>
   </trkpt>
   <trkpt lat="-3.2044470" lon="37.3487100">
    <ele>1963.5</ele>
    <time>2026-06-24T07:55:42Z</time>
   </trkpt>
   <trkpt lat="-3.2044530" lon="37.3487170">
    <ele>1963.4</ele>
    <time>2026-06-24T07:55:43Z</time>
   </trkpt>
   <trkpt lat="-3.2044520" lon="37.3487150">
    <ele>1963.4</ele>
    <time>2026-06-24T07:55:44Z</time>
   </trkpt>
   <trkpt lat="-3.2044550" lon="37.3487120">
    <ele>1963.4</ele>
    <time>2026-06-24T07:55:45Z</time>
   </trkpt>
   <trkpt lat="-3.2044620" lon="37.3487080">
    <ele>1963.3</ele>
    <time>2026-06-24T07:55:46Z</time>
   </trkpt>
   <trkpt lat="-3.2044700" lon="37.3487070">
    <ele>1963.2</ele>
    <time>2026-06-24T07:55:47Z</time>
   </trkpt>
   <trkpt lat="-3.2044760" lon="37.3487120">
    <ele>1963.1</ele>
    <time>2026-06-24T07:55:48Z</time>
   </trkpt>
   <trkpt lat="-3.2044770" lon="37.3487150">
    <ele>1963.1</ele>
    <time>2026-06-24T07:55:49Z</time>
   </trkpt>
   <trkpt lat="-3.2044810" lon="37.3487140">
    <ele>1963.1</ele>
    <time>2026-06-24T07:55:50Z</time>
   </trkpt>
   <trkpt lat="-3.2044890" lon="37.3487110">
    <ele>1963.0</ele>
    <time>2026-06-24T07:55:51Z</time>
   </trkpt>
   <trkpt lat="-3.2044950" lon="37.3487110">
    <ele>1962.9</ele>
    <time>2026-06-24T07:55:52Z</time>
   </trkpt>
   <trkpt lat="-3.2045040" lon="37.3487090">
    <ele>1962.8</ele>
    <time>2026-06-24T07:55:53Z</time>
   </trkpt>
   <trkpt lat="-3.2045070" lon="37.3487080">
    <ele>1962.8</ele>
    <time>2026-06-24T07:55:54Z</time>
   </trkpt>
   <trkpt lat="-3.2045140" lon="37.3487020">
    <ele>1962.7</ele>
    <time>2026-06-24T07:55:55Z</time>
   </trkpt>
   <trkpt lat="-3.2045170" lon="37.3487020">
    <ele>1962.7</ele>
    <time>2026-06-24T07:55:56Z</time>
   </trkpt>
   <trkpt lat="-3.2045210" lon="37.3487020">
    <ele>1962.7</ele>
    <time>2026-06-24T07:55:57Z</time>
   </trkpt>
   <trkpt lat="-3.2045330" lon="37.3487000">
    <ele>1962.5</ele>
    <time>2026-06-24T07:55:58Z</time>
   </trkpt>
   <trkpt lat="-3.2045430" lon="37.3486960">
    <ele>1962.4</ele>
    <time>2026-06-24T07:55:59Z</time>
   </trkpt>
   <trkpt lat="-3.2045490" lon="37.3486930">
    <ele>1962.4</ele>
    <time>2026-06-24T07:56:00Z</time>
   </trkpt>
   <trkpt lat="-3.2045580" lon="37.3486900">
    <ele>1962.3</ele>
    <time>2026-06-24T07:56:01Z</time>
   </trkpt>
   <trkpt lat="-3.2045700" lon="37.3486850">
    <ele>1962.2</ele>
    <time>2026-06-24T07:56:02Z</time>
   </trkpt>
   <trkpt lat="-3.2045790" lon="37.3486860">
    <ele>1962.1</ele>
    <time>2026-06-24T07:56:03Z</time>
   </trkpt>
   <trkpt lat="-3.2045860" lon="37.3486890">
    <ele>1962.0</ele>
    <time>2026-06-24T07:56:04Z</time>
   </trkpt>
   <trkpt lat="-3.2045900" lon="37.3486920">
    <ele>1962.0</ele>
    <time>2026-06-24T07:56:05Z</time>
   </trkpt>
   <trkpt lat="-3.2045960" lon="37.3486970">
    <ele>1961.9</ele>
    <time>2026-06-24T07:56:06Z</time>
   </trkpt>
   <trkpt lat="-3.2046100" lon="37.3487050">
    <ele>1961.7</ele>
    <time>2026-06-24T07:56:07Z</time>
   </trkpt>
   <trkpt lat="-3.2046230" lon="37.3487080">
    <ele>1961.6</ele>
    <time>2026-06-24T07:56:08Z</time>
   </trkpt>
   <trkpt lat="-3.2046270" lon="37.3487160">
    <ele>1961.5</ele>
    <time>2026-06-24T07:56:09Z</time>
   </trkpt>
   <trkpt lat="-3.2046380" lon="37.3487160">
    <ele>1961.4</ele>
    <time>2026-06-24T07:56:10Z</time>
   </trkpt>
   <trkpt lat="-3.2046470" lon="37.3487140">
    <ele>1961.3</ele>
    <time>2026-06-24T07:56:11Z</time>
   </trkpt>
   <trkpt lat="-3.2046580" lon="37.3487070">
    <ele>1961.2</ele>
    <time>2026-06-24T07:56:12Z</time>
   </trkpt>
   <trkpt lat="-3.2046620" lon="37.3487110">
    <ele>1961.2</ele>
    <time>2026-06-24T07:56:13Z</time>
   </trkpt>
   <trkpt lat="-3.2046810" lon="37.3487130">
    <ele>1961.0</ele>
    <time>2026-06-24T07:56:14Z</time>
   </trkpt>
   <trkpt lat="-3.2046880" lon="37.3487070">
    <ele>1960.9</ele>
    <time>2026-06-24T07:56:15Z</time>
   </trkpt>
   <trkpt lat="-3.2046970" lon="37.3487000">
    <ele>1960.8</ele>
    <time>2026-06-24T07:56:16Z</time>
   </trkpt>
   <trkpt lat="-3.2047070" lon="37.3486970">
    <ele>1960.7</ele>
    <time>2026-06-24T07:56:17Z</time>
   </trkpt>
   <trkpt lat="-3.2047190" lon="37.3486960">
    <ele>1960.6</ele>
    <time>2026-06-24T07:56:18Z</time>
   </trkpt>
   <trkpt lat="-3.2047330" lon="37.3486940">
    <ele>1960.5</ele>
    <time>2026-06-24T07:56:19Z</time>
   </trkpt>
   <trkpt lat="-3.2047450" lon="37.3486930">
    <ele>1960.3</ele>
    <time>2026-06-24T07:56:20Z</time>
   </trkpt>
   <trkpt lat="-3.2047550" lon="37.3486940">
    <ele>1960.2</ele>
    <time>2026-06-24T07:56:21Z</time>
   </trkpt>
   <trkpt lat="-3.2047610" lon="37.3486950">
    <ele>1960.2</ele>
    <time>2026-06-24T07:56:22Z</time>
   </trkpt>
   <trkpt lat="-3.2047740" lon="37.3486940">
    <ele>1960.1</ele>
    <time>2026-06-24T07:56:23Z</time>
   </trkpt>
   <trkpt lat="-3.2047790" lon="37.3486940">
    <ele>1960.0</ele>
    <time>2026-06-24T07:56:24Z</time>
   </trkpt>
   <trkpt lat="-3.2047910" lon="37.3486950">
    <ele>1959.9</ele>
    <time>2026-06-24T07:56:25Z</time>
   </trkpt>
   <trkpt lat="-3.2048060" lon="37.3486940">
    <ele>1959.8</ele>
    <time>2026-06-24T07:56:26Z</time>
   </trkpt>
   <trkpt lat="-3.2048160" lon="37.3486930">
    <ele>1959.7</ele>
    <time>2026-06-24T07:56:27Z</time>
   </trkpt>
   <trkpt lat="-3.2048300" lon="37.3486890">
    <ele>1959.5</ele>
    <time>2026-06-24T07:56:28Z</time>
   </trkpt>
   <trkpt lat="-3.2048400" lon="37.3486870">
    <ele>1959.4</ele>
    <time>2026-06-24T07:56:29Z</time>
   </trkpt>
   <trkpt lat="-3.2048550" lon="37.3486860">
    <ele>1959.3</ele>
    <time>2026-06-24T07:56:30Z</time>
   </trkpt>
   <trkpt lat="-3.2048590" lon="37.3486870">
    <ele>1959.2</ele>
    <time>2026-06-24T07:56:31Z</time>
   </trkpt>
   <trkpt lat="-3.2048630" lon="37.3486850">
    <ele>1959.2</ele>
    <time>2026-06-24T07:56:32Z</time>
   </trkpt>
   <trkpt lat="-3.2048690" lon="37.3486790">
    <ele>1959.1</ele>
    <time>2026-06-24T07:56:33Z</time>
   </trkpt>
   <trkpt lat="-3.2048810" lon="37.3486810">
    <ele>1959.0</ele>
    <time>2026-06-24T07:56:34Z</time>
   </trkpt>
   <trkpt lat="-3.2048890" lon="37.3486820">
    <ele>1958.9</ele>
    <time>2026-06-24T07:56:35Z</time>
   </trkpt>
   <trkpt lat="-3.2049020" lon="37.3486780">
    <ele>1958.8</ele>
    <time>2026-06-24T07:56:36Z</time>
   </trkpt>
   <trkpt lat="-3.2049150" lon="37.3486720">
    <ele>1958.6</ele>
    <time>2026-06-24T07:56:37Z</time>
   </trkpt>
   <trkpt lat="-3.2049250" lon="37.3486700">
    <ele>1958.5</ele>
    <time>2026-06-24T07:56:38Z</time>
   </trkpt>
   <trkpt lat="-3.2049350" lon="37.3486690">
    <ele>1958.4</ele>
    <time>2026-06-24T07:56:39Z</time>
   </trkpt>
   <trkpt lat="-3.2049420" lon="37.3486660">
    <ele>1958.4</ele>
    <time>2026-06-24T07:56:40Z</time>
   </trkpt>
   <trkpt lat="-3.2049510" lon="37.3486630">
    <ele>1958.3</ele>
    <time>2026-06-24T07:56:41Z</time>
   </trkpt>
   <trkpt lat="-3.2049630" lon="37.3486600">
    <ele>1958.1</ele>
    <time>2026-06-24T07:56:42Z</time>
   </trkpt>
   <trkpt lat="-3.2049800" lon="37.3486560">
    <ele>1958.0</ele>
    <time>2026-06-24T07:56:43Z</time>
   </trkpt>
   <trkpt lat="-3.2049910" lon="37.3486540">
    <ele>1957.8</ele>
    <time>2026-06-24T07:56:44Z</time>
   </trkpt>
   <trkpt lat="-3.2049960" lon="37.3486520">
    <ele>1957.8</ele>
    <time>2026-06-24T07:56:45Z</time>
   </trkpt>
   <trkpt lat="-3.2050010" lon="37.3486450">
    <ele>1957.7</ele>
    <time>2026-06-24T07:56:46Z</time>
   </trkpt>
   <trkpt lat="-3.2050090" lon="37.3486400">
    <ele>1957.6</ele>
    <time>2026-06-24T07:56:47Z</time>
   </trkpt>
   <trkpt lat="-3.2050080" lon="37.3486360">
    <ele>1957.6</ele>
    <time>2026-06-24T07:56:48Z</time>
   </trkpt>
   <trkpt lat="-3.2050080" lon="37.3486300">
    <ele>1957.5</ele>
    <time>2026-06-24T07:56:49Z</time>
   </trkpt>
   <trkpt lat="-3.2050100" lon="37.3486190">
    <ele>1957.4</ele>
    <time>2026-06-24T07:56:50Z</time>
   </trkpt>
   <trkpt lat="-3.2050220" lon="37.3486100">
    <ele>1957.2</ele>
    <time>2026-06-24T07:56:51Z</time>
   </trkpt>
   <trkpt lat="-3.2050270" lon="37.3486090">
    <ele>1957.2</ele>
    <time>2026-06-24T07:56:52Z</time>
   </trkpt>
   <trkpt lat="-3.2050340" lon="37.3486020">
    <ele>1957.1</ele>
    <time>2026-06-24T07:56:53Z</time>
   </trkpt>
   <trkpt lat="-3.2050470" lon="37.3485940">
    <ele>1956.9</ele>
    <time>2026-06-24T07:56:54Z</time>
   </trkpt>
   <trkpt lat="-3.2050610" lon="37.3485860">
    <ele>1956.7</ele>
    <time>2026-06-24T07:56:55Z</time>
   </trkpt>
   <trkpt lat="-3.2050700" lon="37.3485780">
    <ele>1956.6</ele>
    <time>2026-06-24T07:56:56Z</time>
   </trkpt>
   <trkpt lat="-3.2050750" lon="37.3485760">
    <ele>1956.5</ele>
    <time>2026-06-24T07:56:57Z</time>
   </trkpt>
   <trkpt lat="-3.2050830" lon="37.3485680">
    <ele>1956.4</ele>
    <time>2026-06-24T07:56:58Z</time>
   </trkpt>
   <trkpt lat="-3.2050890" lon="37.3485620">
    <ele>1956.3</ele>
    <time>2026-06-24T07:56:59Z</time>
   </trkpt>
   <trkpt lat="-3.2050990" lon="37.3485480">
    <ele>1956.1</ele>
    <time>2026-06-24T07:57:00Z</time>
   </trkpt>
   <trkpt lat="-3.2051050" lon="37.3485450">
    <ele>1956.0</ele>
    <time>2026-06-24T07:57:01Z</time>
   </trkpt>
   <trkpt lat="-3.2051160" lon="37.3485360">
    <ele>1955.8</ele>
    <time>2026-06-24T07:57:02Z</time>
   </trkpt>
   <trkpt lat="-3.2051260" lon="37.3485290">
    <ele>1955.7</ele>
    <time>2026-06-24T07:57:03Z</time>
   </trkpt>
   <trkpt lat="-3.2051380" lon="37.3485270">
    <ele>1955.5</ele>
    <time>2026-06-24T07:57:04Z</time>
   </trkpt>
   <trkpt lat="-3.2051430" lon="37.3485210">
    <ele>1955.4</ele>
    <time>2026-06-24T07:57:05Z</time>
   </trkpt>
   <trkpt lat="-3.2051520" lon="37.3485130">
    <ele>1955.3</ele>
    <time>2026-06-24T07:57:06Z</time>
   </trkpt>
   <trkpt lat="-3.2051560" lon="37.3485080">
    <ele>1955.2</ele>
    <time>2026-06-24T07:57:07Z</time>
   </trkpt>
   <trkpt lat="-3.2051650" lon="37.3484990">
    <ele>1955.0</ele>
    <time>2026-06-24T07:57:08Z</time>
   </trkpt>
   <trkpt lat="-3.2051750" lon="37.3484880">
    <ele>1954.8</ele>
    <time>2026-06-24T07:57:09Z</time>
   </trkpt>
   <trkpt lat="-3.2051830" lon="37.3484840">
    <ele>1954.7</ele>
    <time>2026-06-24T07:57:10Z</time>
   </trkpt>
   <trkpt lat="-3.2051960" lon="37.3484740">
    <ele>1954.5</ele>
    <time>2026-06-24T07:57:11Z</time>
   </trkpt>
   <trkpt lat="-3.2052060" lon="37.3484680">
    <ele>1954.3</ele>
    <time>2026-06-24T07:57:12Z</time>
   </trkpt>
   <trkpt lat="-3.2052140" lon="37.3484590">
    <ele>1954.2</ele>
    <time>2026-06-24T07:57:13Z</time>
   </trkpt>
   <trkpt lat="-3.2052200" lon="37.3484520">
    <ele>1954.0</ele>
    <time>2026-06-24T07:57:14Z</time>
   </trkpt>
   <trkpt lat="-3.2052250" lon="37.3484460">
    <ele>1953.9</ele>
    <time>2026-06-24T07:57:15Z</time>
   </trkpt>
   <trkpt lat="-3.2052340" lon="37.3484380">
    <ele>1953.8</ele>
    <time>2026-06-24T07:57:16Z</time>
   </trkpt>
   <trkpt lat="-3.2052450" lon="37.3484220">
    <ele>1953.5</ele>
    <time>2026-06-24T07:57:17Z</time>
   </trkpt>
   <trkpt lat="-3.2052540" lon="37.3484120">
    <ele>1953.3</ele>
    <time>2026-06-24T07:57:18Z</time>
   </trkpt>
   <trkpt lat="-3.2052640" lon="37.3484000">
    <ele>1953.0</ele>
    <time>2026-06-24T07:57:19Z</time>
   </trkpt>
   <trkpt lat="-3.2052740" lon="37.3483920">
    <ele>1952.8</ele>
    <time>2026-06-24T07:57:20Z</time>
   </trkpt>
   <trkpt lat="-3.2052800" lon="37.3483810">
    <ele>1952.6</ele>
    <time>2026-06-24T07:57:21Z</time>
   </trkpt>
   <trkpt lat="-3.2052900" lon="37.3483670">
    <ele>1952.4</ele>
    <time>2026-06-24T07:57:22Z</time>
   </trkpt>
   <trkpt lat="-3.2052960" lon="37.3483560">
    <ele>1952.2</ele>
    <time>2026-06-24T07:57:23Z</time>
   </trkpt>
   <trkpt lat="-3.2052980" lon="37.3483500">
    <ele>1952.1</ele>
    <time>2026-06-24T07:57:24Z</time>
   </trkpt>
   <trkpt lat="-3.2052990" lon="37.3483410">
    <ele>1952.0</ele>
    <time>2026-06-24T07:57:25Z</time>
   </trkpt>
   <trkpt lat="-3.2053080" lon="37.3483290">
    <ele>1951.7</ele>
    <time>2026-06-24T07:57:26Z</time>
   </trkpt>
   <trkpt lat="-3.2053150" lon="37.3483260">
    <ele>1951.6</ele>
    <time>2026-06-24T07:57:27Z</time>
   </trkpt>
   <trkpt lat="-3.2053240" lon="37.3483200">
    <ele>1951.4</ele>
    <time>2026-06-24T07:57:28Z</time>
   </trkpt>
   <trkpt lat="-3.2053280" lon="37.3483090">
    <ele>1951.2</ele>
    <time>2026-06-24T07:57:29Z</time>
   </trkpt>
   <trkpt lat="-3.2053320" lon="37.3483010">
    <ele>1951.1</ele>
    <time>2026-06-24T07:57:30Z</time>
   </trkpt>
   <trkpt lat="-3.2053400" lon="37.3482930">
    <ele>1950.9</ele>
    <time>2026-06-24T07:57:31Z</time>
   </trkpt>
   <trkpt lat="-3.2053460" lon="37.3482840">
    <ele>1950.7</ele>
    <time>2026-06-24T07:57:32Z</time>
   </trkpt>
   <trkpt lat="-3.2053540" lon="37.3482730">
    <ele>1950.5</ele>
    <time>2026-06-24T07:57:33Z</time>
   </trkpt>
   <trkpt lat="-3.2053590" lon="37.3482670">
    <ele>1950.3</ele>
    <time>2026-06-24T07:57:34Z</time>
   </trkpt>
   <trkpt lat="-3.2053660" lon="37.3482520">
    <ele>1950.1</ele>
    <time>2026-06-24T07:57:35Z</time>
   </trkpt>
   <trkpt lat="-3.2053710" lon="37.3482410">
    <ele>1949.9</ele>
    <time>2026-06-24T07:57:36Z</time>
   </trkpt>
   <trkpt lat="-3.2053830" lon="37.3482310">
    <ele>1949.6</ele>
    <time>2026-06-24T07:57:37Z</time>
   </trkpt>
   <trkpt lat="-3.2053900" lon="37.3482250">
    <ele>1949.4</ele>
    <time>2026-06-24T07:57:38Z</time>
   </trkpt>
   <trkpt lat="-3.2053970" lon="37.3482130">
    <ele>1949.2</ele>
    <time>2026-06-24T07:57:39Z</time>
   </trkpt>
   <trkpt lat="-3.2054030" lon="37.3482020">
    <ele>1949.0</ele>
    <time>2026-06-24T07:57:40Z</time>
   </trkpt>
   <trkpt lat="-3.2054100" lon="37.3481930">
    <ele>1948.8</ele>
    <time>2026-06-24T07:57:41Z</time>
   </trkpt>
   <trkpt lat="-3.2054140" lon="37.3481820">
    <ele>1948.6</ele>
    <time>2026-06-24T07:57:42Z</time>
   </trkpt>
   <trkpt lat="-3.2054150" lon="37.3481670">
    <ele>1948.3</ele>
    <time>2026-06-24T07:57:43Z</time>
   </trkpt>
   <trkpt lat="-3.2054200" lon="37.3481540">
    <ele>1948.1</ele>
    <time>2026-06-24T07:57:44Z</time>
   </trkpt>
   <trkpt lat="-3.2054250" lon="37.3481370">
    <ele>1947.8</ele>
    <time>2026-06-24T07:57:45Z</time>
   </trkpt>
   <trkpt lat="-3.2054320" lon="37.3481250">
    <ele>1947.6</ele>
    <time>2026-06-24T07:57:46Z</time>
   </trkpt>
   <trkpt lat="-3.2054390" lon="37.3481190">
    <ele>1947.4</ele>
    <time>2026-06-24T07:57:47Z</time>
   </trkpt>
   <trkpt lat="-3.2054450" lon="37.3481150">
    <ele>1947.3</ele>
    <time>2026-06-24T07:57:48Z</time>
   </trkpt>
   <trkpt lat="-3.2054540" lon="37.3481100">
    <ele>1947.1</ele>
    <time>2026-06-24T07:57:49Z</time>
   </trkpt>
   <trkpt lat="-3.2054590" lon="37.3481020">
    <ele>1947.0</ele>
    <time>2026-06-24T07:57:50Z</time>
   </trkpt>
   <trkpt lat="-3.2054630" lon="37.3481030">
    <ele>1946.9</ele>
    <time>2026-06-24T07:57:51Z</time>
   </trkpt>
   <trkpt lat="-3.2054700" lon="37.3480950">
    <ele>1946.8</ele>
    <time>2026-06-24T07:57:52Z</time>
   </trkpt>
   <trkpt lat="-3.2054740" lon="37.3480860">
    <ele>1946.6</ele>
    <time>2026-06-24T07:57:53Z</time>
   </trkpt>
   <trkpt lat="-3.2054840" lon="37.3480750">
    <ele>1946.3</ele>
    <time>2026-06-24T07:57:54Z</time>
   </trkpt>
   <trkpt lat="-3.2054910" lon="37.3480670">
    <ele>1946.2</ele>
    <time>2026-06-24T07:57:55Z</time>
   </trkpt>
   <trkpt lat="-3.2054980" lon="37.3480600">
    <ele>1946.0</ele>
    <time>2026-06-24T07:57:56Z</time>
   </trkpt>
   <trkpt lat="-3.2055080" lon="37.3480440">
    <ele>1945.7</ele>
    <time>2026-06-24T07:57:57Z</time>
   </trkpt>
   <trkpt lat="-3.2055130" lon="37.3480340">
    <ele>1945.6</ele>
    <time>2026-06-24T07:57:58Z</time>
   </trkpt>
   <trkpt lat="-3.2055200" lon="37.3480210">
    <ele>1945.3</ele>
    <time>2026-06-24T07:57:59Z</time>
   </trkpt>
   <trkpt lat="-3.2055280" lon="37.3480160">
    <ele>1945.2</ele>
    <time>2026-06-24T07:58:00Z</time>
   </trkpt>
   <trkpt lat="-3.2055350" lon="37.3480090">
    <ele>1945.0</ele>
    <time>2026-06-24T07:58:01Z</time>
   </trkpt>
   <trkpt lat="-3.2055400" lon="37.3479980">
    <ele>1944.8</ele>
    <time>2026-06-24T07:58:02Z</time>
   </trkpt>
   <trkpt lat="-3.2055500" lon="37.3479870">
    <ele>1944.6</ele>
    <time>2026-06-24T07:58:03Z</time>
   </trkpt>
   <trkpt lat="-3.2055570" lon="37.3479790">
    <ele>1944.5</ele>
    <time>2026-06-24T07:58:04Z</time>
   </trkpt>
   <trkpt lat="-3.2055660" lon="37.3479720">
    <ele>1944.3</ele>
    <time>2026-06-24T07:58:05Z</time>
   </trkpt>
   <trkpt lat="-3.2055830" lon="37.3479590">
    <ele>1944.0</ele>
    <time>2026-06-24T07:58:06Z</time>
   </trkpt>
   <trkpt lat="-3.2055890" lon="37.3479520">
    <ele>1943.9</ele>
    <time>2026-06-24T07:58:07Z</time>
   </trkpt>
   <trkpt lat="-3.2055930" lon="37.3479400">
    <ele>1943.7</ele>
    <time>2026-06-24T07:58:08Z</time>
   </trkpt>
   <trkpt lat="-3.2056020" lon="37.3479320">
    <ele>1943.5</ele>
    <time>2026-06-24T07:58:09Z</time>
   </trkpt>
   <trkpt lat="-3.2056120" lon="37.3479260">
    <ele>1943.4</ele>
    <time>2026-06-24T07:58:10Z</time>
   </trkpt>
   <trkpt lat="-3.2056210" lon="37.3479210">
    <ele>1943.2</ele>
    <time>2026-06-24T07:58:11Z</time>
   </trkpt>
   <trkpt lat="-3.2056250" lon="37.3479180">
    <ele>1943.2</ele>
    <time>2026-06-24T07:58:12Z</time>
   </trkpt>
   <trkpt lat="-3.2056300" lon="37.3479130">
    <ele>1943.1</ele>
    <time>2026-06-24T07:58:13Z</time>
   </trkpt>
   <trkpt lat="-3.2056400" lon="37.3479080">
    <ele>1942.9</ele>
    <time>2026-06-24T07:58:14Z</time>
   </trkpt>
   <trkpt lat="-3.2056490" lon="37.3479020">
    <ele>1942.8</ele>
    <time>2026-06-24T07:58:15Z</time>
   </trkpt>
   <trkpt lat="-3.2056580" lon="37.3478970">
    <ele>1942.7</ele>
    <time>2026-06-24T07:58:16Z</time>
   </trkpt>
   <trkpt lat="-3.2056640" lon="37.3478940">
    <ele>1942.6</ele>
    <time>2026-06-24T07:58:17Z</time>
   </trkpt>
   <trkpt lat="-3.2056730" lon="37.3478860">
    <ele>1942.4</ele>
    <time>2026-06-24T07:58:18Z</time>
   </trkpt>
   <trkpt lat="-3.2056800" lon="37.3478780">
    <ele>1942.3</ele>
    <time>2026-06-24T07:58:19Z</time>
   </trkpt>
   <trkpt lat="-3.2056910" lon="37.3478720">
    <ele>1942.2</ele>
    <time>2026-06-24T07:58:20Z</time>
   </trkpt>
   <trkpt lat="-3.2057000" lon="37.3478670">
    <ele>1942.0</ele>
    <time>2026-06-24T07:58:21Z</time>
   </trkpt>
   <trkpt lat="-3.2057080" lon="37.3478600">
    <ele>1941.9</ele>
    <time>2026-06-24T07:58:22Z</time>
   </trkpt>
   <trkpt lat="-3.2057230" lon="37.3478570">
    <ele>1941.7</ele>
    <time>2026-06-24T07:58:23Z</time>
   </trkpt>
   <trkpt lat="-3.2057290" lon="37.3478510">
    <ele>1941.6</ele>
    <time>2026-06-24T07:58:24Z</time>
   </trkpt>
   <trkpt lat="-3.2057390" lon="37.3478450">
    <ele>1941.5</ele>
    <time>2026-06-24T07:58:25Z</time>
   </trkpt>
   <trkpt lat="-3.2057520" lon="37.3478410">
    <ele>1941.3</ele>
    <time>2026-06-24T07:58:26Z</time>
   </trkpt>
   <trkpt lat="-3.2057650" lon="37.3478350">
    <ele>1941.1</ele>
    <time>2026-06-24T07:58:27Z</time>
   </trkpt>
   <trkpt lat="-3.2057740" lon="37.3478340">
    <ele>1941.0</ele>
    <time>2026-06-24T07:58:28Z</time>
   </trkpt>
   <trkpt lat="-3.2057910" lon="37.3478330">
    <ele>1940.8</ele>
    <time>2026-06-24T07:58:29Z</time>
   </trkpt>
   <trkpt lat="-3.2058050" lon="37.3478290">
    <ele>1940.7</ele>
    <time>2026-06-24T07:58:30Z</time>
   </trkpt>
   <trkpt lat="-3.2058210" lon="37.3478210">
    <ele>1940.5</ele>
    <time>2026-06-24T07:58:31Z</time>
   </trkpt>
   <trkpt lat="-3.2058300" lon="37.3478150">
    <ele>1940.3</ele>
    <time>2026-06-24T07:58:32Z</time>
   </trkpt>
   <trkpt lat="-3.2058460" lon="37.3478080">
    <ele>1940.1</ele>
    <time>2026-06-24T07:58:33Z</time>
   </trkpt>
   <trkpt lat="-3.2058490" lon="37.3478050">
    <ele>1940.1</ele>
    <time>2026-06-24T07:58:34Z</time>
   </trkpt>
   <trkpt lat="-3.2058590" lon="37.3478040">
    <ele>1939.9</ele>
    <time>2026-06-24T07:58:35Z</time>
   </trkpt>
   <trkpt lat="-3.2058710" lon="37.3478010">
    <ele>1939.8</ele>
    <time>2026-06-24T07:58:36Z</time>
   </trkpt>
   <trkpt lat="-3.2058810" lon="37.3477990">
    <ele>1939.6</ele>
    <time>2026-06-24T07:58:37Z</time>
   </trkpt>
   <trkpt lat="-3.2058980" lon="37.3477930">
    <ele>1939.4</ele>
    <time>2026-06-24T07:58:38Z</time>
   </trkpt>
   <trkpt lat="-3.2059080" lon="37.3477890">
    <ele>1939.3</ele>
    <time>2026-06-24T07:58:39Z</time>
   </trkpt>
   <trkpt lat="-3.2059170" lon="37.3477830">
    <ele>1939.1</ele>
    <time>2026-06-24T07:58:40Z</time>
   </trkpt>
   <trkpt lat="-3.2059280" lon="37.3477800">
    <ele>1939.0</ele>
    <time>2026-06-24T07:58:41Z</time>
   </trkpt>
   <trkpt lat="-3.2059370" lon="37.3477790">
    <ele>1938.9</ele>
    <time>2026-06-24T07:58:42Z</time>
   </trkpt>
   <trkpt lat="-3.2059460" lon="37.3477760">
    <ele>1938.7</ele>
    <time>2026-06-24T07:58:43Z</time>
   </trkpt>
   <trkpt lat="-3.2059510" lon="37.3477770">
    <ele>1938.7</ele>
    <time>2026-06-24T07:58:44Z</time>
   </trkpt>
   <trkpt lat="-3.2059650" lon="37.3477760">
    <ele>1938.5</ele>
    <time>2026-06-24T07:58:45Z</time>
   </trkpt>
   <trkpt lat="-3.2059840" lon="37.3477690">
    <ele>1938.2</ele>
    <time>2026-06-24T07:58:46Z</time>
   </trkpt>
   <trkpt lat="-3.2059930" lon="37.3477640">
    <ele>1938.0</ele>
    <time>2026-06-24T07:58:47Z</time>
   </trkpt>
   <trkpt lat="-3.2060030" lon="37.3477630">
    <ele>1937.9</ele>
    <time>2026-06-24T07:58:48Z</time>
   </trkpt>
   <trkpt lat="-3.2060130" lon="37.3477590">
    <ele>1937.7</ele>
    <time>2026-06-24T07:58:49Z</time>
   </trkpt>
   <trkpt lat="-3.2060200" lon="37.3477580">
    <ele>1937.6</ele>
    <time>2026-06-24T07:58:50Z</time>
   </trkpt>
   <trkpt lat="-3.2060340" lon="37.3477580">
    <ele>1937.4</ele>
    <time>2026-06-24T07:58:51Z</time>
   </trkpt>
   <trkpt lat="-3.2060420" lon="37.3477650">
    <ele>1937.3</ele>
    <time>2026-06-24T07:58:52Z</time>
   </trkpt>
   <trkpt lat="-3.2060490" lon="37.3477680">
    <ele>1937.2</ele>
    <time>2026-06-24T07:58:53Z</time>
   </trkpt>
   <trkpt lat="-3.2060590" lon="37.3477640">
    <ele>1937.0</ele>
    <time>2026-06-24T07:58:54Z</time>
   </trkpt>
   <trkpt lat="-3.2060740" lon="37.3477550">
    <ele>1936.8</ele>
    <time>2026-06-24T07:58:55Z</time>
   </trkpt>
   <trkpt lat="-3.2060890" lon="37.3477440">
    <ele>1936.5</ele>
    <time>2026-06-24T07:58:56Z</time>
   </trkpt>
   <trkpt lat="-3.2060970" lon="37.3477400">
    <ele>1936.4</ele>
    <time>2026-06-24T07:58:57Z</time>
   </trkpt>
   <trkpt lat="-3.2061060" lon="37.3477370">
    <ele>1936.2</ele>
    <time>2026-06-24T07:58:58Z</time>
   </trkpt>
   <trkpt lat="-3.2061140" lon="37.3477330">
    <ele>1936.1</ele>
    <time>2026-06-24T07:58:59Z</time>
   </trkpt>
   <trkpt lat="-3.2061230" lon="37.3477250">
    <ele>1935.9</ele>
    <time>2026-06-24T07:59:00Z</time>
   </trkpt>
   <trkpt lat="-3.2061340" lon="37.3477200">
    <ele>1935.7</ele>
    <time>2026-06-24T07:59:01Z</time>
   </trkpt>
   <trkpt lat="-3.2061490" lon="37.3477140">
    <ele>1935.5</ele>
    <time>2026-06-24T07:59:02Z</time>
   </trkpt>
   <trkpt lat="-3.2061610" lon="37.3477060">
    <ele>1935.3</ele>
    <time>2026-06-24T07:59:03Z</time>
   </trkpt>
   <trkpt lat="-3.2061730" lon="37.3477020">
    <ele>1935.1</ele>
    <time>2026-06-24T07:59:04Z</time>
   </trkpt>
   <trkpt lat="-3.2061820" lon="37.3476940">
    <ele>1934.9</ele>
    <time>2026-06-24T07:59:05Z</time>
   </trkpt>
   <trkpt lat="-3.2061940" lon="37.3476890">
    <ele>1934.7</ele>
    <time>2026-06-24T07:59:06Z</time>
   </trkpt>
   <trkpt lat="-3.2062050" lon="37.3476860">
    <ele>1934.6</ele>
    <time>2026-06-24T07:59:07Z</time>
   </trkpt>
   <trkpt lat="-3.2062140" lon="37.3476860">
    <ele>1934.5</ele>
    <time>2026-06-24T07:59:08Z</time>
   </trkpt>
   <trkpt lat="-3.2062280" lon="37.3476810">
    <ele>1934.2</ele>
    <time>2026-06-24T07:59:09Z</time>
   </trkpt>
   <trkpt lat="-3.2062380" lon="37.3476690">
    <ele>1934.0</ele>
    <time>2026-06-24T07:59:10Z</time>
   </trkpt>
   <trkpt lat="-3.2062510" lon="37.3476620">
    <ele>1933.8</ele>
    <time>2026-06-24T07:59:11Z</time>
   </trkpt>
   <trkpt lat="-3.2062610" lon="37.3476550">
    <ele>1933.6</ele>
    <time>2026-06-24T07:59:12Z</time>
   </trkpt>
   <trkpt lat="-3.2062710" lon="37.3476510">
    <ele>1933.5</ele>
    <time>2026-06-24T07:59:13Z</time>
   </trkpt>
   <trkpt lat="-3.2062850" lon="37.3476460">
    <ele>1933.2</ele>
    <time>2026-06-24T07:59:14Z</time>
   </trkpt>
   <trkpt lat="-3.2062930" lon="37.3476400">
    <ele>1933.1</ele>
    <time>2026-06-24T07:59:15Z</time>
   </trkpt>
   <trkpt lat="-3.2063090" lon="37.3476310">
    <ele>1932.8</ele>
    <time>2026-06-24T07:59:16Z</time>
   </trkpt>
   <trkpt lat="-3.2063160" lon="37.3476280">
    <ele>1932.7</ele>
    <time>2026-06-24T07:59:17Z</time>
   </trkpt>
   <trkpt lat="-3.2063240" lon="37.3476210">
    <ele>1932.6</ele>
    <time>2026-06-24T07:59:18Z</time>
   </trkpt>
   <trkpt lat="-3.2063300" lon="37.3476150">
    <ele>1932.4</ele>
    <time>2026-06-24T07:59:19Z</time>
   </trkpt>
   <trkpt lat="-3.2063420" lon="37.3476120">
    <ele>1932.3</ele>
    <time>2026-06-24T07:59:20Z</time>
   </trkpt>
   <trkpt lat="-3.2063550" lon="37.3476070">
    <ele>1932.1</ele>
    <time>2026-06-24T07:59:21Z</time>
   </trkpt>
   <trkpt lat="-3.2063660" lon="37.3476030">
    <ele>1931.9</ele>
    <time>2026-06-24T07:59:22Z</time>
   </trkpt>
   <trkpt lat="-3.2063730" lon="37.3475940">
    <ele>1931.8</ele>
    <time>2026-06-24T07:59:23Z</time>
   </trkpt>
   <trkpt lat="-3.2063840" lon="37.3475850">
    <ele>1931.6</ele>
    <time>2026-06-24T07:59:24Z</time>
   </trkpt>
   <trkpt lat="-3.2063940" lon="37.3475800">
    <ele>1931.4</ele>
    <time>2026-06-24T07:59:25Z</time>
   </trkpt>
   <trkpt lat="-3.2064090" lon="37.3475710">
    <ele>1931.2</ele>
    <time>2026-06-24T07:59:26Z</time>
   </trkpt>
   <trkpt lat="-3.2064180" lon="37.3475710">
    <ele>1931.1</ele>
    <time>2026-06-24T07:59:27Z</time>
   </trkpt>
   <trkpt lat="-3.2064260" lon="37.3475730">
    <ele>1931.0</ele>
    <time>2026-06-24T07:59:28Z</time>
   </trkpt>
   <trkpt lat="-3.2064370" lon="37.3475740">
    <ele>1930.8</ele>
    <time>2026-06-24T07:59:29Z</time>
   </trkpt>
   <trkpt lat="-3.2064470" lon="37.3475750">
    <ele>1930.7</ele>
    <time>2026-06-24T07:59:30Z</time>
   </trkpt>
   <trkpt lat="-3.2064560" lon="37.3475760">
    <ele>1930.6</ele>
    <time>2026-06-24T07:59:31Z</time>
   </trkpt>
   <trkpt lat="-3.2064640" lon="37.3475770">
    <ele>1930.4</ele>
    <time>2026-06-24T07:59:32Z</time>
   </trkpt>
   <trkpt lat="-3.2064770" lon="37.3475700">
    <ele>1930.3</ele>
    <time>2026-06-24T07:59:33Z</time>
   </trkpt>
   <trkpt lat="-3.2064820" lon="37.3475710">
    <ele>1930.2</ele>
    <time>2026-06-24T07:59:34Z</time>
   </trkpt>
   <trkpt lat="-3.2064980" lon="37.3475740">
    <ele>1930.0</ele>
    <time>2026-06-24T07:59:35Z</time>
   </trkpt>
   <trkpt lat="-3.2065030" lon="37.3475710">
    <ele>1929.9</ele>
    <time>2026-06-24T07:59:36Z</time>
   </trkpt>
   <trkpt lat="-3.2065110" lon="37.3475640">
    <ele>1929.8</ele>
    <time>2026-06-24T07:59:37Z</time>
   </trkpt>
   <trkpt lat="-3.2065090" lon="37.3475660">
    <ele>1929.8</ele>
    <time>2026-06-24T07:59:38Z</time>
   </trkpt>
   <trkpt lat="-3.2065180" lon="37.3475630">
    <ele>1929.6</ele>
    <time>2026-06-24T07:59:39Z</time>
   </trkpt>
   <trkpt lat="-3.2065270" lon="37.3475640">
    <ele>1929.5</ele>
    <time>2026-06-24T07:59:40Z</time>
   </trkpt>
   <trkpt lat="-3.2065310" lon="37.3475670">
    <ele>1929.5</ele>
    <time>2026-06-24T07:59:41Z</time>
   </trkpt>
   <trkpt lat="-3.2065390" lon="37.3475700">
    <ele>1929.4</ele>
    <time>2026-06-24T07:59:42Z</time>
   </trkpt>
   <trkpt lat="-3.2065540" lon="37.3475710">
    <ele>1929.2</ele>
    <time>2026-06-24T07:59:43Z</time>
   </trkpt>
   <trkpt lat="-3.2065650" lon="37.3475670">
    <ele>1929.1</ele>
    <time>2026-06-24T07:59:44Z</time>
   </trkpt>
   <trkpt lat="-3.2065630" lon="37.3475690">
    <ele>1929.0</ele>
    <time>2026-06-24T07:59:45Z</time>
   </trkpt>
   <trkpt lat="-3.2065680" lon="37.3475670">
    <ele>1929.0</ele>
    <time>2026-06-24T07:59:46Z</time>
   </trkpt>
   <trkpt lat="-3.2065780" lon="37.3475730">
    <ele>1928.8</ele>
    <time>2026-06-24T07:59:47Z</time>
   </trkpt>
   <trkpt lat="-3.2065890" lon="37.3475780">
    <ele>1928.7</ele>
    <time>2026-06-24T07:59:48Z</time>
   </trkpt>
   <trkpt lat="-3.2066010" lon="37.3475780">
    <ele>1928.5</ele>
    <time>2026-06-24T07:59:49Z</time>
   </trkpt>
   <trkpt lat="-3.2066110" lon="37.3475750">
    <ele>1928.4</ele>
    <time>2026-06-24T07:59:50Z</time>
   </trkpt>
   <trkpt lat="-3.2066210" lon="37.3475690">
    <ele>1928.3</ele>
    <time>2026-06-24T07:59:51Z</time>
   </trkpt>
   <trkpt lat="-3.2066270" lon="37.3475680">
    <ele>1928.2</ele>
    <time>2026-06-24T07:59:52Z</time>
   </trkpt>
   <trkpt lat="-3.2066330" lon="37.3475690">
    <ele>1928.1</ele>
    <time>2026-06-24T07:59:53Z</time>
   </trkpt>
   <trkpt lat="-3.2066420" lon="37.3475710">
    <ele>1928.0</ele>
    <time>2026-06-24T07:59:54Z</time>
   </trkpt>
   <trkpt lat="-3.2066510" lon="37.3475670">
    <ele>1927.9</ele>
    <time>2026-06-24T07:59:55Z</time>
   </trkpt>
   <trkpt lat="-3.2066670" lon="37.3475640">
    <ele>1927.7</ele>
    <time>2026-06-24T07:59:56Z</time>
   </trkpt>
   <trkpt lat="-3.2066870" lon="37.3475550">
    <ele>1927.5</ele>
    <time>2026-06-24T07:59:57Z</time>
   </trkpt>
   <trkpt lat="-3.2066940" lon="37.3475530">
    <ele>1927.4</ele>
    <time>2026-06-24T07:59:58Z</time>
   </trkpt>
   <trkpt lat="-3.2067000" lon="37.3475520">
    <ele>1927.4</ele>
    <time>2026-06-24T07:59:59Z</time>
   </trkpt>
   <trkpt lat="-3.2067070" lon="37.3475520">
    <ele>1927.3</ele>
    <time>2026-06-24T08:00:00Z</time>
   </trkpt>
   <trkpt lat="-3.2067160" lon="37.3475530">
    <ele>1927.2</ele>
    <time>2026-06-24T08:00:01Z</time>
   </trkpt>
   <trkpt lat="-3.2067230" lon="37.3475580">
    <ele>1927.1</ele>
    <time>2026-06-24T08:00:02Z</time>
   </trkpt>
   <trkpt lat="-3.2067250" lon="37.3475590">
    <ele>1927.1</ele>
    <time>2026-06-24T08:00:03Z</time>
   </trkpt>
   <trkpt lat="-3.2067290" lon="37.3475600">
    <ele>1927.0</ele>
    <time>2026-06-24T08:00:04Z</time>
   </trkpt>
   <trkpt lat="-3.2067370" lon="37.3475520">
    <ele>1926.9</ele>
    <time>2026-06-24T08:00:05Z</time>
   </trkpt>
   <trkpt lat="-3.2067400" lon="37.3475490">
    <ele>1926.8</ele>
    <time>2026-06-24T08:00:06Z</time>
   </trkpt>
   <trkpt lat="-3.2067480" lon="37.3475470">
    <ele>1926.8</ele>
    <time>2026-06-24T08:00:07Z</time>
   </trkpt>
   <trkpt lat="-3.2067590" lon="37.3475480">
    <ele>1926.6</ele>
    <time>2026-06-24T08:00:08Z</time>
   </trkpt>
   <trkpt lat="-3.2067660" lon="37.3475430">
    <ele>1926.5</ele>
    <time>2026-06-24T08:00:09Z</time>
   </trkpt>
   <trkpt lat="-3.2067770" lon="37.3475400">
    <ele>1926.4</ele>
    <time>2026-06-24T08:00:10Z</time>
   </trkpt>
   <trkpt lat="-3.2067840" lon="37.3475370">
    <ele>1926.3</ele>
    <time>2026-06-24T08:00:11Z</time>
   </trkpt>
   <trkpt lat="-3.2067940" lon="37.3475310">
    <ele>1926.2</ele>
    <time>2026-06-24T08:00:12Z</time>
   </trkpt>
   <trkpt lat="-3.2068030" lon="37.3475230">
    <ele>1926.1</ele>
    <time>2026-06-24T08:00:13Z</time>
   </trkpt>
   <trkpt lat="-3.2068090" lon="37.3475170">
    <ele>1926.0</ele>
    <time>2026-06-24T08:00:14Z</time>
   </trkpt>
   <trkpt lat="-3.2068180" lon="37.3475110">
    <ele>1925.9</ele>
    <time>2026-06-24T08:00:15Z</time>
   </trkpt>
   <trkpt lat="-3.2068270" lon="37.3475050">
    <ele>1925.8</ele>
    <time>2026-06-24T08:00:16Z</time>
   </trkpt>
   <trkpt lat="-3.2068400" lon="37.3475030">
    <ele>1925.6</ele>
    <time>2026-06-24T08:00:17Z</time>
   </trkpt>
   <trkpt lat="-3.2068470" lon="37.3474970">
    <ele>1925.5</ele>
    <time>2026-06-24T08:00:18Z</time>
   </trkpt>
   <trkpt lat="-3.2068510" lon="37.3474930">
    <ele>1925.5</ele>
    <time>2026-06-24T08:00:19Z</time>
   </trkpt>
   <trkpt lat="-3.2068590" lon="37.3474880">
    <ele>1925.4</ele>
    <time>2026-06-24T08:00:20Z</time>
   </trkpt>
   <trkpt lat="-3.2068700" lon="37.3474800">
    <ele>1925.2</ele>
    <time>2026-06-24T08:00:21Z</time>
   </trkpt>
   <trkpt lat="-3.2068760" lon="37.3474690">
    <ele>1925.1</ele>
    <time>2026-06-24T08:00:22Z</time>
   </trkpt>
   <trkpt lat="-3.2068780" lon="37.3474550">
    <ele>1924.9</ele>
    <time>2026-06-24T08:00:23Z</time>
   </trkpt>
   <trkpt lat="-3.2068810" lon="37.3474460">
    <ele>1924.8</ele>
    <time>2026-06-24T08:00:24Z</time>
   </trkpt>
   <trkpt lat="-3.2068840" lon="37.3474390">
    <ele>1924.7</ele>
    <time>2026-06-24T08:00:25Z</time>
   </trkpt>
   <trkpt lat="-3.2068880" lon="37.3474290">
    <ele>1924.6</ele>
    <time>2026-06-24T08:00:26Z</time>
   </trkpt>
   <trkpt lat="-3.2068930" lon="37.3474190">
    <ele>1924.5</ele>
    <time>2026-06-24T08:00:27Z</time>
   </trkpt>
   <trkpt lat="-3.2068920" lon="37.3474080">
    <ele>1924.3</ele>
    <time>2026-06-24T08:00:28Z</time>
   </trkpt>
   <trkpt lat="-3.2068960" lon="37.3473980">
    <ele>1924.2</ele>
    <time>2026-06-24T08:00:29Z</time>
   </trkpt>
   <trkpt lat="-3.2069000" lon="37.3473840">
    <ele>1924.1</ele>
    <time>2026-06-24T08:00:30Z</time>
   </trkpt>
   <trkpt lat="-3.2069090" lon="37.3473730">
    <ele>1923.9</ele>
    <time>2026-06-24T08:00:31Z</time>
   </trkpt>
   <trkpt lat="-3.2069130" lon="37.3473620">
    <ele>1923.8</ele>
    <time>2026-06-24T08:00:32Z</time>
   </trkpt>
   <trkpt lat="-3.2069240" lon="37.3473480">
    <ele>1923.6</ele>
    <time>2026-06-24T08:00:33Z</time>
   </trkpt>
   <trkpt lat="-3.2069250" lon="37.3473370">
    <ele>1923.4</ele>
    <time>2026-06-24T08:00:34Z</time>
   </trkpt>
   <trkpt lat="-3.2069230" lon="37.3473230">
    <ele>1923.3</ele>
    <time>2026-06-24T08:00:36Z</time>
   </trkpt>
   <trkpt lat="-3.2069230" lon="37.3473120">
    <ele>1923.2</ele>
    <time>2026-06-24T08:00:37Z</time>
   </trkpt>
   <trkpt lat="-3.2069260" lon="37.3472980">
    <ele>1923.0</ele>
    <time>2026-06-24T08:00:38Z</time>
   </trkpt>
   <trkpt lat="-3.2069300" lon="37.3472890">
    <ele>1922.9</ele>
    <time>2026-06-24T08:00:39Z</time>
   </trkpt>
   <trkpt lat="-3.2069300" lon="37.3472810">
    <ele>1922.8</ele>
    <time>2026-06-24T08:00:40Z</time>
   </trkpt>
   <trkpt lat="-3.2069290" lon="37.3472720">
    <ele>1922.7</ele>
    <time>2026-06-24T08:00:41Z</time>
   </trkpt>
   <trkpt lat="-3.2069290" lon="37.3472570">
    <ele>1922.5</ele>
    <time>2026-06-24T08:00:42Z</time>
   </trkpt>
   <trkpt lat="-3.2069270" lon="37.3472500">
    <ele>1922.4</ele>
    <time>2026-06-24T08:00:43Z</time>
   </trkpt>
   <trkpt lat="-3.2069260" lon="37.3472420">
    <ele>1922.3</ele>
    <time>2026-06-24T08:00:44Z</time>
   </trkpt>
   <trkpt lat="-3.2069270" lon="37.3472380">
    <ele>1922.2</ele>
    <time>2026-06-24T08:00:45Z</time>
   </trkpt>
   <trkpt lat="-3.2069300" lon="37.3472310">
    <ele>1922.2</ele>
    <time>2026-06-24T08:00:46Z</time>
   </trkpt>
   <trkpt lat="-3.2069330" lon="37.3472120">
    <ele>1921.9</ele>
    <time>2026-06-24T08:00:47Z</time>
   </trkpt>
   <trkpt lat="-3.2069350" lon="37.3472040">
    <ele>1921.8</ele>
    <time>2026-06-24T08:00:48Z</time>
   </trkpt>
   <trkpt lat="-3.2069330" lon="37.3471930">
    <ele>1921.7</ele>
    <time>2026-06-24T08:00:49Z</time>
   </trkpt>
   <trkpt lat="-3.2069300" lon="37.3471840">
    <ele>1921.5</ele>
    <time>2026-06-24T08:00:50Z</time>
   </trkpt>
   <trkpt lat="-3.2069250" lon="37.3471760">
    <ele>1921.4</ele>
    <time>2026-06-24T08:00:51Z</time>
   </trkpt>
   <trkpt lat="-3.2069310" lon="37.3471590">
    <ele>1921.1</ele>
    <time>2026-06-24T08:00:52Z</time>
   </trkpt>
   <trkpt lat="-3.2069310" lon="37.3471340">
    <ele>1920.8</ele>
    <time>2026-06-24T08:00:53Z</time>
   </trkpt>
   <trkpt lat="-3.2069340" lon="37.3471280">
    <ele>1920.7</ele>
    <time>2026-06-24T08:00:54Z</time>
   </trkpt>
   <trkpt lat="-3.2069370" lon="37.3471170">
    <ele>1920.5</ele>
    <time>2026-06-24T08:00:55Z</time>
   </trkpt>
   <trkpt lat="-3.2069390" lon="37.3471040">
    <ele>1920.3</ele>
    <time>2026-06-24T08:00:56Z</time>
   </trkpt>
   <trkpt lat="-3.2069420" lon="37.3470920">
    <ele>1920.2</ele>
    <time>2026-06-24T08:00:57Z</time>
   </trkpt>
   <trkpt lat="-3.2069390" lon="37.3470840">
    <ele>1920.0</ele>
    <time>2026-06-24T08:00:58Z</time>
   </trkpt>
   <trkpt lat="-3.2069330" lon="37.3470780">
    <ele>1919.9</ele>
    <time>2026-06-24T08:00:59Z</time>
   </trkpt>
   <trkpt lat="-3.2069320" lon="37.3470690">
    <ele>1919.8</ele>
    <time>2026-06-24T08:01:00Z</time>
   </trkpt>
   <trkpt lat="-3.2069310" lon="37.3470630">
    <ele>1919.7</ele>
    <time>2026-06-24T08:01:01Z</time>
   </trkpt>
   <trkpt lat="-3.2069310" lon="37.3470590">
    <ele>1919.6</ele>
    <time>2026-06-24T08:01:02Z</time>
   </trkpt>
   <trkpt lat="-3.2069300" lon="37.3470500">
    <ele>1919.5</ele>
    <time>2026-06-24T08:01:03Z</time>
   </trkpt>
   <trkpt lat="-3.2069290" lon="37.3470430">
    <ele>1919.3</ele>
    <time>2026-06-24T08:01:04Z</time>
   </trkpt>
   <trkpt lat="-3.2069290" lon="37.3470340">
    <ele>1919.2</ele>
    <time>2026-06-24T08:01:05Z</time>
   </trkpt>
   <trkpt lat="-3.2069330" lon="37.3470240">
    <ele>1919.0</ele>
    <time>2026-06-24T08:01:06Z</time>
   </trkpt>
   <trkpt lat="-3.2069300" lon="37.3470240">
    <ele>1919.0</ele>
    <time>2026-06-24T08:01:07Z</time>
   </trkpt>
   <trkpt lat="-3.2069300" lon="37.3470160">
    <ele>1918.8</ele>
    <time>2026-06-24T08:01:08Z</time>
   </trkpt>
   <trkpt lat="-3.2069290" lon="37.3470050">
    <ele>1918.7</ele>
    <time>2026-06-24T08:01:09Z</time>
   </trkpt>
   <trkpt lat="-3.2069340" lon="37.3469860">
    <ele>1918.3</ele>
    <time>2026-06-24T08:01:10Z</time>
   </trkpt>
   <trkpt lat="-3.2069340" lon="37.3469750">
    <ele>1918.1</ele>
    <time>2026-06-24T08:01:11Z</time>
   </trkpt>
   <trkpt lat="-3.2069390" lon="37.3469600">
    <ele>1917.9</ele>
    <time>2026-06-24T08:01:12Z</time>
   </trkpt>
   <trkpt lat="-3.2069450" lon="37.3469520">
    <ele>1917.7</ele>
    <time>2026-06-24T08:01:13Z</time>
   </trkpt>
   <trkpt lat="-3.2069480" lon="37.3469460">
    <ele>1917.6</ele>
    <time>2026-06-24T08:01:14Z</time>
   </trkpt>
   <trkpt lat="-3.2069490" lon="37.3469340">
    <ele>1917.4</ele>
    <time>2026-06-24T08:01:15Z</time>
   </trkpt>
   <trkpt lat="-3.2069500" lon="37.3469290">
    <ele>1917.3</ele>
    <time>2026-06-24T08:01:16Z</time>
   </trkpt>
   <trkpt lat="-3.2069540" lon="37.3469120">
    <ele>1917.0</ele>
    <time>2026-06-24T08:01:17Z</time>
   </trkpt>
   <trkpt lat="-3.2069580" lon="37.3469020">
    <ele>1916.8</ele>
    <time>2026-06-24T08:01:18Z</time>
   </trkpt>
   <trkpt lat="-3.2069650" lon="37.3468930">
    <ele>1916.6</ele>
    <time>2026-06-24T08:01:19Z</time>
   </trkpt>
   <trkpt lat="-3.2069730" lon="37.3468860">
    <ele>1916.4</ele>
    <time>2026-06-24T08:01:20Z</time>
   </trkpt>
   <trkpt lat="-3.2069800" lon="37.3468780">
    <ele>1916.2</ele>
    <time>2026-06-24T08:01:21Z</time>
   </trkpt>
   <trkpt lat="-3.2069910" lon="37.3468710">
    <ele>1915.9</ele>
    <time>2026-06-24T08:01:22Z</time>
   </trkpt>
   <trkpt lat="-3.2069970" lon="37.3468610">
    <ele>1915.7</ele>
    <time>2026-06-24T08:01:23Z</time>
   </trkpt>
   <trkpt lat="-3.2070040" lon="37.3468540">
    <ele>1915.5</ele>
    <time>2026-06-24T08:01:24Z</time>
   </trkpt>
   <trkpt lat="-3.2070090" lon="37.3468430">
    <ele>1915.3</ele>
    <time>2026-06-24T08:01:25Z</time>
   </trkpt>
   <trkpt lat="-3.2070150" lon="37.3468340">
    <ele>1915.1</ele>
    <time>2026-06-24T08:01:26Z</time>
   </trkpt>
   <trkpt lat="-3.2070140" lon="37.3468210">
    <ele>1914.9</ele>
    <time>2026-06-24T08:01:27Z</time>
   </trkpt>
   <trkpt lat="-3.2070190" lon="37.3468130">
    <ele>1914.7</ele>
    <time>2026-06-24T08:01:28Z</time>
   </trkpt>
   <trkpt lat="-3.2070240" lon="37.3468100">
    <ele>1914.6</ele>
    <time>2026-06-24T08:01:29Z</time>
   </trkpt>
   <trkpt lat="-3.2070270" lon="37.3468020">
    <ele>1914.4</ele>
    <time>2026-06-24T08:01:30Z</time>
   </trkpt>
   <trkpt lat="-3.2070340" lon="37.3467970">
    <ele>1914.3</ele>
    <time>2026-06-24T08:01:31Z</time>
   </trkpt>
   <trkpt lat="-3.2070380" lon="37.3467860">
    <ele>1914.1</ele>
    <time>2026-06-24T08:01:32Z</time>
   </trkpt>
   <trkpt lat="-3.2070420" lon="37.3467740">
    <ele>1913.8</ele>
    <time>2026-06-24T08:01:33Z</time>
   </trkpt>
   <trkpt lat="-3.2070470" lon="37.3467620">
    <ele>1913.6</ele>
    <time>2026-06-24T08:01:34Z</time>
   </trkpt>
   <trkpt lat="-3.2070500" lon="37.3467550">
    <ele>1913.5</ele>
    <time>2026-06-24T08:01:35Z</time>
   </trkpt>
   <trkpt lat="-3.2070610" lon="37.3467390">
    <ele>1913.1</ele>
    <time>2026-06-24T08:01:36Z</time>
   </trkpt>
   <trkpt lat="-3.2070720" lon="37.3467250">
    <ele>1912.8</ele>
    <time>2026-06-24T08:01:37Z</time>
   </trkpt>
   <trkpt lat="-3.2070740" lon="37.3467130">
    <ele>1912.5</ele>
    <time>2026-06-24T08:01:38Z</time>
   </trkpt>
   <trkpt lat="-3.2070740" lon="37.3467080">
    <ele>1912.4</ele>
    <time>2026-06-24T08:01:39Z</time>
   </trkpt>
   <trkpt lat="-3.2070810" lon="37.3466980">
    <ele>1912.2</ele>
    <time>2026-06-24T08:01:40Z</time>
   </trkpt>
   <trkpt lat="-3.2070860" lon="37.3466890">
    <ele>1912.0</ele>
    <time>2026-06-24T08:01:41Z</time>
   </trkpt>
   <trkpt lat="-3.2070880" lon="37.3466750">
    <ele>1911.8</ele>
    <time>2026-06-24T08:01:42Z</time>
   </trkpt>
   <trkpt lat="-3.2070980" lon="37.3466610">
    <ele>1911.5</ele>
    <time>2026-06-24T08:01:43Z</time>
   </trkpt>
   <trkpt lat="-3.2071010" lon="37.3466520">
    <ele>1911.3</ele>
    <time>2026-06-24T08:01:44Z</time>
   </trkpt>
   <trkpt lat="-3.2071050" lon="37.3466450">
    <ele>1911.2</ele>
    <time>2026-06-24T08:01:45Z</time>
   </trkpt>
   <trkpt lat="-3.2071110" lon="37.3466370">
    <ele>1911.0</ele>
    <time>2026-06-24T08:01:46Z</time>
   </trkpt>
   <trkpt lat="-3.2071140" lon="37.3466370">
    <ele>1910.9</ele>
    <time>2026-06-24T08:01:47Z</time>
   </trkpt>
   <trkpt lat="-3.2071150" lon="37.3466290">
    <ele>1910.8</ele>
    <time>2026-06-24T08:01:48Z</time>
   </trkpt>
   <trkpt lat="-3.2071200" lon="37.3466160">
    <ele>1910.6</ele>
    <time>2026-06-24T08:01:49Z</time>
   </trkpt>
   <trkpt lat="-3.2071260" lon="37.3466040">
    <ele>1910.3</ele>
    <time>2026-06-24T08:01:50Z</time>
   </trkpt>
   <trkpt lat="-3.2071320" lon="37.3465940">
    <ele>1910.1</ele>
    <time>2026-06-24T08:01:51Z</time>
   </trkpt>
   <trkpt lat="-3.2071320" lon="37.3465900">
    <ele>1910.1</ele>
    <time>2026-06-24T08:01:52Z</time>
   </trkpt>
   <trkpt lat="-3.2071300" lon="37.3465800">
    <ele>1909.9</ele>
    <time>2026-06-24T08:01:53Z</time>
   </trkpt>
   <trkpt lat="-3.2071330" lon="37.3465700">
    <ele>1909.7</ele>
    <time>2026-06-24T08:01:54Z</time>
   </trkpt>
   <trkpt lat="-3.2071380" lon="37.3465600">
    <ele>1909.5</ele>
    <time>2026-06-24T08:01:55Z</time>
   </trkpt>
   <trkpt lat="-3.2071460" lon="37.3465490">
    <ele>1909.3</ele>
    <time>2026-06-24T08:01:56Z</time>
   </trkpt>
   <trkpt lat="-3.2071470" lon="37.3465420">
    <ele>1909.2</ele>
    <time>2026-06-24T08:01:57Z</time>
   </trkpt>
   <trkpt lat="-3.2071520" lon="37.3465360">
    <ele>1909.1</ele>
    <time>2026-06-24T08:01:58Z</time>
   </trkpt>
   <trkpt lat="-3.2071560" lon="37.3465270">
    <ele>1908.9</ele>
    <time>2026-06-24T08:01:59Z</time>
   </trkpt>
   <trkpt lat="-3.2071580" lon="37.3465180">
    <ele>1908.8</ele>
    <time>2026-06-24T08:02:00Z</time>
   </trkpt>
   <trkpt lat="-3.2071620" lon="37.3465120">
    <ele>1908.7</ele>
    <time>2026-06-24T08:02:01Z</time>
   </trkpt>
   <trkpt lat="-3.2071650" lon="37.3464990">
    <ele>1908.4</ele>
    <time>2026-06-24T08:02:02Z</time>
   </trkpt>
   <trkpt lat="-3.2071720" lon="37.3464870">
    <ele>1908.2</ele>
    <time>2026-06-24T08:02:03Z</time>
   </trkpt>
   <trkpt lat="-3.2071790" lon="37.3464790">
    <ele>1908.1</ele>
    <time>2026-06-24T08:02:04Z</time>
   </trkpt>
   <trkpt lat="-3.2071870" lon="37.3464650">
    <ele>1907.8</ele>
    <time>2026-06-24T08:02:05Z</time>
   </trkpt>
   <trkpt lat="-3.2071940" lon="37.3464550">
    <ele>1907.6</ele>
    <time>2026-06-24T08:02:06Z</time>
   </trkpt>
   <trkpt lat="-3.2071970" lon="37.3464500">
    <ele>1907.5</ele>
    <time>2026-06-24T08:02:07Z</time>
   </trkpt>
   <trkpt lat="-3.2071970" lon="37.3464390">
    <ele>1907.4</ele>
    <time>2026-06-24T08:02:08Z</time>
   </trkpt>
   <trkpt lat="-3.2072000" lon="37.3464320">
    <ele>1907.3</ele>
    <time>2026-06-24T08:02:09Z</time>
   </trkpt>
   <trkpt lat="-3.2072070" lon="37.3464260">
    <ele>1907.1</ele>
    <time>2026-06-24T08:02:10Z</time>
   </trkpt>
   <trkpt lat="-3.2072090" lon="37.3464190">
    <ele>1907.0</ele>
    <time>2026-06-24T08:02:11Z</time>
   </trkpt>
   <trkpt lat="-3.2072150" lon="37.3464110">
    <ele>1906.9</ele>
    <time>2026-06-24T08:02:12Z</time>
   </trkpt>
   <trkpt lat="-3.2072190" lon="37.3464010">
    <ele>1906.7</ele>
    <time>2026-06-24T08:02:13Z</time>
   </trkpt>
   <trkpt lat="-3.2072200" lon="37.3463920">
    <ele>1906.6</ele>
    <time>2026-06-24T08:02:14Z</time>
   </trkpt>
   <trkpt lat="-3.2072230" lon="37.3463810">
    <ele>1906.4</ele>
    <time>2026-06-24T08:02:15Z</time>
   </trkpt>
   <trkpt lat="-3.2072260" lon="37.3463710">
    <ele>1906.3</ele>
    <time>2026-06-24T08:02:16Z</time>
   </trkpt>
   <trkpt lat="-3.2072320" lon="37.3463600">
    <ele>1906.1</ele>
    <time>2026-06-24T08:02:17Z</time>
   </trkpt>
   <trkpt lat="-3.2072340" lon="37.3463510">
    <ele>1905.9</ele>
    <time>2026-06-24T08:02:18Z</time>
   </trkpt>
   <trkpt lat="-3.2072350" lon="37.3463470">
    <ele>1905.9</ele>
    <time>2026-06-24T08:02:19Z</time>
   </trkpt>
   <trkpt lat="-3.2072380" lon="37.3463360">
    <ele>1905.7</ele>
    <time>2026-06-24T08:02:20Z</time>
   </trkpt>
   <trkpt lat="-3.2072440" lon="37.3463270">
    <ele>1905.6</ele>
    <time>2026-06-24T08:02:21Z</time>
   </trkpt>
   <trkpt lat="-3.2072570" lon="37.3463120">
    <ele>1905.3</ele>
    <time>2026-06-24T08:02:22Z</time>
   </trkpt>
   <trkpt lat="-3.2072630" lon="37.3463030">
    <ele>1905.1</ele>
    <time>2026-06-24T08:02:23Z</time>
   </trkpt>
   <trkpt lat="-3.2072650" lon="37.3462930">
    <ele>1905.0</ele>
    <time>2026-06-24T08:02:24Z</time>
   </trkpt>
   <trkpt lat="-3.2072690" lon="37.3462820">
    <ele>1904.8</ele>
    <time>2026-06-24T08:02:25Z</time>
   </trkpt>
   <trkpt lat="-3.2072730" lon="37.3462720">
    <ele>1904.6</ele>
    <time>2026-06-24T08:02:26Z</time>
   </trkpt>
   <trkpt lat="-3.2072810" lon="37.3462630">
    <ele>1904.4</ele>
    <time>2026-06-24T08:02:27Z</time>
   </trkpt>
   <trkpt lat="-3.2072810" lon="37.3462570">
    <ele>1904.4</ele>
    <time>2026-06-24T08:02:28Z</time>
   </trkpt>
   <trkpt lat="-3.2072860" lon="37.3462480">
    <ele>1904.2</ele>
    <time>2026-06-24T08:02:29Z</time>
   </trkpt>
   <trkpt lat="-3.2072910" lon="37.3462370">
    <ele>1904.0</ele>
    <time>2026-06-24T08:02:30Z</time>
   </trkpt>
   <trkpt lat="-3.2072990" lon="37.3462330">
    <ele>1903.9</ele>
    <time>2026-06-24T08:02:31Z</time>
   </trkpt>
   <trkpt lat="-3.2073040" lon="37.3462260">
    <ele>1903.8</ele>
    <time>2026-06-24T08:02:32Z</time>
   </trkpt>
   <trkpt lat="-3.2073070" lon="37.3462210">
    <ele>1903.7</ele>
    <time>2026-06-24T08:02:33Z</time>
   </trkpt>
   <trkpt lat="-3.2073130" lon="37.3462130">
    <ele>1903.5</ele>
    <time>2026-06-24T08:02:34Z</time>
   </trkpt>
   <trkpt lat="-3.2073170" lon="37.3462110">
    <ele>1903.5</ele>
    <time>2026-06-24T08:02:35Z</time>
   </trkpt>
   <trkpt lat="-3.2073210" lon="37.3462040">
    <ele>1903.3</ele>
    <time>2026-06-24T08:02:36Z</time>
   </trkpt>
   <trkpt lat="-3.2073240" lon="37.3462020">
    <ele>1903.3</ele>
    <time>2026-06-24T08:02:37Z</time>
   </trkpt>
   <trkpt lat="-3.2073310" lon="37.3461900">
    <ele>1903.1</ele>
    <time>2026-06-24T08:02:38Z</time>
   </trkpt>
   <trkpt lat="-3.2073350" lon="37.3461830">
    <ele>1903.0</ele>
    <time>2026-06-24T08:02:39Z</time>
   </trkpt>
   <trkpt lat="-3.2073380" lon="37.3461780">
    <ele>1902.9</ele>
    <time>2026-06-24T08:02:40Z</time>
   </trkpt>
   <trkpt lat="-3.2073420" lon="37.3461790">
    <ele>1902.8</ele>
    <time>2026-06-24T08:02:42Z</time>
   </trkpt>
   <trkpt lat="-3.2073510" lon="37.3461720">
    <ele>1902.6</ele>
    <time>2026-06-24T08:02:43Z</time>
   </trkpt>
   <trkpt lat="-3.2073600" lon="37.3461640">
    <ele>1902.4</ele>
    <time>2026-06-24T08:02:44Z</time>
   </trkpt>
   <trkpt lat="-3.2073610" lon="37.3461620">
    <ele>1902.4</ele>
    <time>2026-06-24T08:02:45Z</time>
   </trkpt>
   <trkpt lat="-3.2073660" lon="37.3461510">
    <ele>1902.2</ele>
    <time>2026-06-24T08:02:46Z</time>
   </trkpt>
   <trkpt lat="-3.2073730" lon="37.3461440">
    <ele>1902.0</ele>
    <time>2026-06-24T08:02:47Z</time>
   </trkpt>
   <trkpt lat="-3.2073860" lon="37.3461310">
    <ele>1901.7</ele>
    <time>2026-06-24T08:02:48Z</time>
   </trkpt>
   <trkpt lat="-3.2073890" lon="37.3461290">
    <ele>1901.7</ele>
    <time>2026-06-24T08:02:49Z</time>
   </trkpt>
   <trkpt lat="-3.2073960" lon="37.3461220">
    <ele>1901.5</ele>
    <time>2026-06-24T08:02:50Z</time>
   </trkpt>
   <trkpt lat="-3.2074030" lon="37.3461150">
    <ele>1901.3</ele>
    <time>2026-06-24T08:02:51Z</time>
   </trkpt>
   <trkpt lat="-3.2074120" lon="37.3461080">
    <ele>1901.1</ele>
    <time>2026-06-24T08:02:52Z</time>
   </trkpt>
   <trkpt lat="-3.2074180" lon="37.3461020">
    <ele>1901.0</ele>
    <time>2026-06-24T08:02:53Z</time>
   </trkpt>
   <trkpt lat="-3.2074250" lon="37.3460950">
    <ele>1900.8</ele>
    <time>2026-06-24T08:02:54Z</time>
   </trkpt>
   <trkpt lat="-3.2074330" lon="37.3460880">
    <ele>1900.6</ele>
    <time>2026-06-24T08:02:55Z</time>
   </trkpt>
   <trkpt lat="-3.2074360" lon="37.3460890">
    <ele>1900.6</ele>
    <time>2026-06-24T08:02:56Z</time>
   </trkpt>
   <trkpt lat="-3.2074410" lon="37.3460840">
    <ele>1900.5</ele>
    <time>2026-06-24T08:02:57Z</time>
   </trkpt>
   <trkpt lat="-3.2074470" lon="37.3460740">
    <ele>1900.2</ele>
    <time>2026-06-24T08:02:58Z</time>
   </trkpt>
   <trkpt lat="-3.2074510" lon="37.3460680">
    <ele>1900.1</ele>
    <time>2026-06-24T08:02:59Z</time>
   </trkpt>
   <trkpt lat="-3.2074600" lon="37.3460620">
    <ele>1899.9</ele>
    <time>2026-06-24T08:03:00Z</time>
   </trkpt>
   <trkpt lat="-3.2074700" lon="37.3460530">
    <ele>1899.7</ele>
    <time>2026-06-24T08:03:01Z</time>
   </trkpt>
   <trkpt lat="-3.2074800" lon="37.3460480">
    <ele>1899.5</ele>
    <time>2026-06-24T08:03:02Z</time>
   </trkpt>
   <trkpt lat="-3.2074980" lon="37.3460330">
    <ele>1899.1</ele>
    <time>2026-06-24T08:03:03Z</time>
   </trkpt>
   <trkpt lat="-3.2075070" lon="37.3460270">
    <ele>1898.9</ele>
    <time>2026-06-24T08:03:04Z</time>
   </trkpt>
   <trkpt lat="-3.2075120" lon="37.3460170">
    <ele>1898.7</ele>
    <time>2026-06-24T08:03:05Z</time>
   </trkpt>
   <trkpt lat="-3.2075170" lon="37.3460130">
    <ele>1898.6</ele>
    <time>2026-06-24T08:03:06Z</time>
   </trkpt>
   <trkpt lat="-3.2075260" lon="37.3460070">
    <ele>1898.4</ele>
    <time>2026-06-24T08:03:07Z</time>
   </trkpt>
   <trkpt lat="-3.2075310" lon="37.3460040">
    <ele>1898.3</ele>
    <time>2026-06-24T08:03:08Z</time>
   </trkpt>
   <trkpt lat="-3.2075360" lon="37.3460000">
    <ele>1898.2</ele>
    <time>2026-06-24T08:03:09Z</time>
   </trkpt>
   <trkpt lat="-3.2075450" lon="37.3460010">
    <ele>1898.0</ele>
    <time>2026-06-24T08:03:10Z</time>
   </trkpt>
   <trkpt lat="-3.2075560" lon="37.3459970">
    <ele>1897.8</ele>
    <time>2026-06-24T08:03:11Z</time>
   </trkpt>
   <trkpt lat="-3.2075650" lon="37.3459920">
    <ele>1897.6</ele>
    <time>2026-06-24T08:03:12Z</time>
   </trkpt>
   <trkpt lat="-3.2075740" lon="37.3459830">
    <ele>1897.4</ele>
    <time>2026-06-24T08:03:13Z</time>
   </trkpt>
   <trkpt lat="-3.2075830" lon="37.3459760">
    <ele>1897.2</ele>
    <time>2026-06-24T08:03:14Z</time>
   </trkpt>
   <trkpt lat="-3.2075890" lon="37.3459700">
    <ele>1897.0</ele>
    <time>2026-06-24T08:03:15Z</time>
   </trkpt>
   <trkpt lat="-3.2075880" lon="37.3459800">
    <ele>1896.8</ele>
    <time>2026-06-24T08:03:16Z</time>
   </trkpt>
   <trkpt lat="-3.2075990" lon="37.3459770">
    <ele>1896.6</ele>
    <time>2026-06-24T08:03:17Z</time>
   </trkpt>
   <trkpt lat="-3.2076130" lon="37.3459650">
    <ele>1896.3</ele>
    <time>2026-06-24T08:03:18Z</time>
   </trkpt>
   <trkpt lat="-3.2076210" lon="37.3459590">
    <ele>1896.2</ele>
    <time>2026-06-24T08:03:19Z</time>
   </trkpt>
   <trkpt lat="-3.2076340" lon="37.3459460">
    <ele>1895.9</ele>
    <time>2026-06-24T08:03:20Z</time>
   </trkpt>
   <trkpt lat="-3.2076420" lon="37.3459340">
    <ele>1895.6</ele>
    <time>2026-06-24T08:03:21Z</time>
   </trkpt>
   <trkpt lat="-3.2076450" lon="37.3459300">
    <ele>1895.6</ele>
    <time>2026-06-24T08:03:22Z</time>
   </trkpt>
   <trkpt lat="-3.2076480" lon="37.3459200">
    <ele>1895.4</ele>
    <time>2026-06-24T08:03:23Z</time>
   </trkpt>
   <trkpt lat="-3.2076570" lon="37.3459090">
    <ele>1895.2</ele>
    <time>2026-06-24T08:03:24Z</time>
   </trkpt>
   <trkpt lat="-3.2076650" lon="37.3459000">
    <ele>1895.0</ele>
    <time>2026-06-24T08:03:25Z</time>
   </trkpt>
   <trkpt lat="-3.2076720" lon="37.3458910">
    <ele>1894.8</ele>
    <time>2026-06-24T08:03:26Z</time>
   </trkpt>
   <trkpt lat="-3.2076780" lon="37.3458850">
    <ele>1894.7</ele>
    <time>2026-06-24T08:03:27Z</time>
   </trkpt>
   <trkpt lat="-3.2076830" lon="37.3458730">
    <ele>1894.5</ele>
    <time>2026-06-24T08:03:28Z</time>
   </trkpt>
   <trkpt lat="-3.2076860" lon="37.3458710">
    <ele>1894.5</ele>
    <time>2026-06-24T08:03:29Z</time>
   </trkpt>
   <trkpt lat="-3.2076930" lon="37.3458690">
    <ele>1894.4</ele>
    <time>2026-06-24T08:03:30Z</time>
   </trkpt>
   <trkpt lat="-3.2077020" lon="37.3458640">
    <ele>1894.2</ele>
    <time>2026-06-24T08:03:31Z</time>
   </trkpt>
   <trkpt lat="-3.2077120" lon="37.3458560">
    <ele>1894.0</ele>
    <time>2026-06-24T08:03:32Z</time>
   </trkpt>
   <trkpt lat="-3.2077160" lon="37.3458520">
    <ele>1894.0</ele>
    <time>2026-06-24T08:03:33Z</time>
   </trkpt>
   <trkpt lat="-3.2077220" lon="37.3458510">
    <ele>1893.9</ele>
    <time>2026-06-24T08:03:34Z</time>
   </trkpt>
   <trkpt lat="-3.2077350" lon="37.3458460">
    <ele>1893.7</ele>
    <time>2026-06-24T08:03:35Z</time>
   </trkpt>
   <trkpt lat="-3.2077440" lon="37.3458430">
    <ele>1893.6</ele>
    <time>2026-06-24T08:03:36Z</time>
   </trkpt>
   <trkpt lat="-3.2077590" lon="37.3458270">
    <ele>1893.3</ele>
    <time>2026-06-24T08:03:37Z</time>
   </trkpt>
   <trkpt lat="-3.2077720" lon="37.3458140">
    <ele>1893.0</ele>
    <time>2026-06-24T08:03:38Z</time>
   </trkpt>
   <trkpt lat="-3.2077780" lon="37.3458080">
    <ele>1892.9</ele>
    <time>2026-06-24T08:03:39Z</time>
   </trkpt>
   <trkpt lat="-3.2077830" lon="37.3458030">
    <ele>1892.8</ele>
    <time>2026-06-24T08:03:40Z</time>
   </trkpt>
   <trkpt lat="-3.2077930" lon="37.3457910">
    <ele>1892.6</ele>
    <time>2026-06-24T08:03:41Z</time>
   </trkpt>
   <trkpt lat="-3.2078000" lon="37.3457840">
    <ele>1892.5</ele>
    <time>2026-06-24T08:03:42Z</time>
   </trkpt>
   <trkpt lat="-3.2078100" lon="37.3457790">
    <ele>1892.3</ele>
    <time>2026-06-24T08:03:43Z</time>
   </trkpt>
   <trkpt lat="-3.2078150" lon="37.3457760">
    <ele>1892.3</ele>
    <time>2026-06-24T08:03:44Z</time>
   </trkpt>
   <trkpt lat="-3.2078230" lon="37.3457680">
    <ele>1892.1</ele>
    <time>2026-06-24T08:03:45Z</time>
   </trkpt>
   <trkpt lat="-3.2078310" lon="37.3457630">
    <ele>1892.0</ele>
    <time>2026-06-24T08:03:46Z</time>
   </trkpt>
   <trkpt lat="-3.2078370" lon="37.3457590">
    <ele>1891.9</ele>
    <time>2026-06-24T08:03:47Z</time>
   </trkpt>
   <trkpt lat="-3.2078480" lon="37.3457530">
    <ele>1891.7</ele>
    <time>2026-06-24T08:03:48Z</time>
   </trkpt>
   <trkpt lat="-3.2078590" lon="37.3457470">
    <ele>1891.6</ele>
    <time>2026-06-24T08:03:49Z</time>
   </trkpt>
   <trkpt lat="-3.2078700" lon="37.3457410">
    <ele>1891.4</ele>
    <time>2026-06-24T08:03:50Z</time>
   </trkpt>
   <trkpt lat="-3.2078790" lon="37.3457340">
    <ele>1891.3</ele>
    <time>2026-06-24T08:03:51Z</time>
   </trkpt>
   <trkpt lat="-3.2078850" lon="37.3457280">
    <ele>1891.2</ele>
    <time>2026-06-24T08:03:52Z</time>
   </trkpt>
   <trkpt lat="-3.2078950" lon="37.3457200">
    <ele>1891.0</ele>
    <time>2026-06-24T08:03:53Z</time>
   </trkpt>
   <trkpt lat="-3.2079020" lon="37.3457150">
    <ele>1890.9</ele>
    <time>2026-06-24T08:03:54Z</time>
   </trkpt>
   <trkpt lat="-3.2079090" lon="37.3457160">
    <ele>1890.8</ele>
    <time>2026-06-24T08:03:55Z</time>
   </trkpt>
   <trkpt lat="-3.2079200" lon="37.3457160">
    <ele>1890.7</ele>
    <time>2026-06-24T08:03:56Z</time>
   </trkpt>
   <trkpt lat="-3.2079250" lon="37.3457180">
    <ele>1890.6</ele>
    <time>2026-06-24T08:03:57Z</time>
   </trkpt>
   <trkpt lat="-3.2079300" lon="37.3457150">
    <ele>1890.6</ele>
    <time>2026-06-24T08:03:58Z</time>
   </trkpt>
   <trkpt lat="-3.2079420" lon="37.3457130">
    <ele>1890.4</ele>
    <time>2026-06-24T08:03:59Z</time>
   </trkpt>
   <trkpt lat="-3.2079560" lon="37.3457080">
    <ele>1890.2</ele>
    <time>2026-06-24T08:04:00Z</time>
   </trkpt>
   <trkpt lat="-3.2079670" lon="37.3457010">
    <ele>1890.1</ele>
    <time>2026-06-24T08:04:01Z</time>
   </trkpt>
   <trkpt lat="-3.2079820" lon="37.3457010">
    <ele>1889.9</ele>
    <time>2026-06-24T08:04:02Z</time>
   </trkpt>
   <trkpt lat="-3.2079910" lon="37.3457020">
    <ele>1889.8</ele>
    <time>2026-06-24T08:04:03Z</time>
   </trkpt>
   <trkpt lat="-3.2079990" lon="37.3456970">
    <ele>1889.7</ele>
    <time>2026-06-24T08:04:04Z</time>
   </trkpt>
   <trkpt lat="-3.2080060" lon="37.3456940">
    <ele>1889.6</ele>
    <time>2026-06-24T08:04:05Z</time>
   </trkpt>
   <trkpt lat="-3.2080140" lon="37.3456940">
    <ele>1889.5</ele>
    <time>2026-06-24T08:04:06Z</time>
   </trkpt>
   <trkpt lat="-3.2080250" lon="37.3456940">
    <ele>1889.4</ele>
    <time>2026-06-24T08:04:07Z</time>
   </trkpt>
   <trkpt lat="-3.2080440" lon="37.3456950">
    <ele>1889.2</ele>
    <time>2026-06-24T08:04:08Z</time>
   </trkpt>
   <trkpt lat="-3.2080570" lon="37.3456960">
    <ele>1889.0</ele>
    <time>2026-06-24T08:04:09Z</time>
   </trkpt>
   <trkpt lat="-3.2080580" lon="37.3457010">
    <ele>1889.0</ele>
    <time>2026-06-24T08:04:10Z</time>
   </trkpt>
   <trkpt lat="-3.2080640" lon="37.3457080">
    <ele>1888.9</ele>
    <time>2026-06-24T08:04:11Z</time>
   </trkpt>
   <trkpt lat="-3.2080760" lon="37.3457100">
    <ele>1888.8</ele>
    <time>2026-06-24T08:04:12Z</time>
   </trkpt>
   <trkpt lat="-3.2080870" lon="37.3457120">
    <ele>1888.6</ele>
    <time>2026-06-24T08:04:13Z</time>
   </trkpt>
   <trkpt lat="-3.2080870" lon="37.3457150">
    <ele>1888.6</ele>
    <time>2026-06-24T08:04:14Z</time>
   </trkpt>
   <trkpt lat="-3.2080980" lon="37.3457180">
    <ele>1888.5</ele>
    <time>2026-06-24T08:04:15Z</time>
   </trkpt>
   <trkpt lat="-3.2081070" lon="37.3457210">
    <ele>1888.4</ele>
    <time>2026-06-24T08:04:16Z</time>
   </trkpt>
   <trkpt lat="-3.2081240" lon="37.3457280">
    <ele>1888.2</ele>
    <time>2026-06-24T08:04:17Z</time>
   </trkpt>
   <trkpt lat="-3.2081310" lon="37.3457310">
    <ele>1888.1</ele>
    <time>2026-06-24T08:04:18Z</time>
   </trkpt>
   <trkpt lat="-3.2081350" lon="37.3457390">
    <ele>1888.0</ele>
    <time>2026-06-24T08:04:19Z</time>
   </trkpt>
   <trkpt lat="-3.2081430" lon="37.3457410">
    <ele>1887.9</ele>
    <time>2026-06-24T08:04:20Z</time>
   </trkpt>
   <trkpt lat="-3.2081540" lon="37.3457440">
    <ele>1887.8</ele>
    <time>2026-06-24T08:04:21Z</time>
   </trkpt>
   <trkpt lat="-3.2081630" lon="37.3457500">
    <ele>1887.7</ele>
    <time>2026-06-24T08:04:22Z</time>
   </trkpt>
   <trkpt lat="-3.2081700" lon="37.3457470">
    <ele>1887.7</ele>
    <time>2026-06-24T08:04:23Z</time>
   </trkpt>
   <trkpt lat="-3.2081710" lon="37.3457500">
    <ele>1887.6</ele>
    <time>2026-06-24T08:04:24Z</time>
   </trkpt>
   <trkpt lat="-3.2081820" lon="37.3457570">
    <ele>1887.5</ele>
    <time>2026-06-24T08:04:25Z</time>
   </trkpt>
   <trkpt lat="-3.2081920" lon="37.3457590">
    <ele>1887.4</ele>
    <time>2026-06-24T08:04:26Z</time>
   </trkpt>
   <trkpt lat="-3.2082040" lon="37.3457630">
    <ele>1887.3</ele>
    <time>2026-06-24T08:04:27Z</time>
   </trkpt>
   <trkpt lat="-3.2082100" lon="37.3457620">
    <ele>1887.2</ele>
    <time>2026-06-24T08:04:28Z</time>
   </trkpt>
   <trkpt lat="-3.2082160" lon="37.3457640">
    <ele>1887.2</ele>
    <time>2026-06-24T08:04:29Z</time>
   </trkpt>
   <trkpt lat="-3.2082230" lon="37.3457660">
    <ele>1887.1</ele>
    <time>2026-06-24T08:04:30Z</time>
   </trkpt>
   <trkpt lat="-3.2082290" lon="37.3457680">
    <ele>1887.1</ele>
    <time>2026-06-24T08:04:31Z</time>
   </trkpt>
   <trkpt lat="-3.2082330" lon="37.3457750">
    <ele>1887.0</ele>
    <time>2026-06-24T08:04:32Z</time>
   </trkpt>
   <trkpt lat="-3.2082440" lon="37.3457820">
    <ele>1886.9</ele>
    <time>2026-06-24T08:04:33Z</time>
   </trkpt>
   <trkpt lat="-3.2082540" lon="37.3457850">
    <ele>1886.8</ele>
    <time>2026-06-24T08:04:34Z</time>
   </trkpt>
   <trkpt lat="-3.2082620" lon="37.3457960">
    <ele>1886.6</ele>
    <time>2026-06-24T08:04:35Z</time>
   </trkpt>
   <trkpt lat="-3.2082730" lon="37.3458050">
    <ele>1886.5</ele>
    <time>2026-06-24T08:04:36Z</time>
   </trkpt>
   <trkpt lat="-3.2082840" lon="37.3458130">
    <ele>1886.4</ele>
    <time>2026-06-24T08:04:37Z</time>
   </trkpt>
   <trkpt lat="-3.2082980" lon="37.3458240">
    <ele>1886.2</ele>
    <time>2026-06-24T08:04:38Z</time>
   </trkpt>
   <trkpt lat="-3.2083100" lon="37.3458290">
    <ele>1886.1</ele>
    <time>2026-06-24T08:04:39Z</time>
   </trkpt>
   <trkpt lat="-3.2083230" lon="37.3458300">
    <ele>1886.0</ele>
    <time>2026-06-24T08:04:40Z</time>
   </trkpt>
   <trkpt lat="-3.2083400" lon="37.3458310">
    <ele>1885.8</ele>
    <time>2026-06-24T08:04:41Z</time>
   </trkpt>
   <trkpt lat="-3.2083590" lon="37.3458350">
    <ele>1885.7</ele>
    <time>2026-06-24T08:04:42Z</time>
   </trkpt>
   <trkpt lat="-3.2083780" lon="37.3458390">
    <ele>1885.5</ele>
    <time>2026-06-24T08:04:43Z</time>
   </trkpt>
   <trkpt lat="-3.2083880" lon="37.3458340">
    <ele>1885.4</ele>
    <time>2026-06-24T08:04:44Z</time>
   </trkpt>
   <trkpt lat="-3.2083940" lon="37.3458370">
    <ele>1885.3</ele>
    <time>2026-06-24T08:04:45Z</time>
   </trkpt>
   <trkpt lat="-3.2084030" lon="37.3458440">
    <ele>1885.2</ele>
    <time>2026-06-24T08:04:46Z</time>
   </trkpt>
   <trkpt lat="-3.2084140" lon="37.3458510">
    <ele>1885.1</ele>
    <time>2026-06-24T08:04:48Z</time>
   </trkpt>
   <trkpt lat="-3.2084270" lon="37.3458540">
    <ele>1885.0</ele>
    <time>2026-06-24T08:04:49Z</time>
   </trkpt>
   <trkpt lat="-3.2084360" lon="37.3458580">
    <ele>1884.9</ele>
    <time>2026-06-24T08:04:50Z</time>
   </trkpt>
   <trkpt lat="-3.2084450" lon="37.3458550">
    <ele>1884.8</ele>
    <time>2026-06-24T08:04:51Z</time>
   </trkpt>
   <trkpt lat="-3.2084570" lon="37.3458580">
    <ele>1884.7</ele>
    <time>2026-06-24T08:04:52Z</time>
   </trkpt>
   <trkpt lat="-3.2084650" lon="37.3458660">
    <ele>1884.5</ele>
    <time>2026-06-24T08:04:53Z</time>
   </trkpt>
   <trkpt lat="-3.2084850" lon="37.3458870">
    <ele>1884.3</ele>
    <time>2026-06-24T08:04:54Z</time>
   </trkpt>
   <trkpt lat="-3.2084950" lon="37.3458910">
    <ele>1884.2</ele>
    <time>2026-06-24T08:04:55Z</time>
   </trkpt>
   <trkpt lat="-3.2085080" lon="37.3458990">
    <ele>1884.0</ele>
    <time>2026-06-24T08:04:56Z</time>
   </trkpt>
   <trkpt lat="-3.2085210" lon="37.3459020">
    <ele>1883.9</ele>
    <time>2026-06-24T08:04:57Z</time>
   </trkpt>
   <trkpt lat="-3.2085340" lon="37.3458960">
    <ele>1883.7</ele>
    <time>2026-06-24T08:04:58Z</time>
   </trkpt>
   <trkpt lat="-3.2085510" lon="37.3458980">
    <ele>1883.5</ele>
    <time>2026-06-24T08:04:59Z</time>
   </trkpt>
   <trkpt lat="-3.2085620" lon="37.3459020">
    <ele>1883.4</ele>
    <time>2026-06-24T08:05:00Z</time>
   </trkpt>
   <trkpt lat="-3.2085700" lon="37.3459020">
    <ele>1883.3</ele>
    <time>2026-06-24T08:05:01Z</time>
   </trkpt>
   <trkpt lat="-3.2085810" lon="37.3459080">
    <ele>1883.2</ele>
    <time>2026-06-24T08:05:02Z</time>
   </trkpt>
   <trkpt lat="-3.2086000" lon="37.3459120">
    <ele>1883.0</ele>
    <time>2026-06-24T08:05:03Z</time>
   </trkpt>
   <trkpt lat="-3.2086080" lon="37.3459150">
    <ele>1882.9</ele>
    <time>2026-06-24T08:05:04Z</time>
   </trkpt>
   <trkpt lat="-3.2086150" lon="37.3459170">
    <ele>1882.8</ele>
    <time>2026-06-24T08:05:05Z</time>
   </trkpt>
   <trkpt lat="-3.2086210" lon="37.3459230">
    <ele>1882.8</ele>
    <time>2026-06-24T08:05:06Z</time>
   </trkpt>
   <trkpt lat="-3.2086440" lon="37.3459190">
    <ele>1882.5</ele>
    <time>2026-06-24T08:05:07Z</time>
   </trkpt>
   <trkpt lat="-3.2086670" lon="37.3459220">
    <ele>1882.2</ele>
    <time>2026-06-24T08:05:08Z</time>
   </trkpt>
   <trkpt lat="-3.2086760" lon="37.3459240">
    <ele>1882.1</ele>
    <time>2026-06-24T08:05:09Z</time>
   </trkpt>
   <trkpt lat="-3.2086880" lon="37.3459250">
    <ele>1882.0</ele>
    <time>2026-06-24T08:05:10Z</time>
   </trkpt>
   <trkpt lat="-3.2086960" lon="37.3459190">
    <ele>1881.9</ele>
    <time>2026-06-24T08:05:11Z</time>
   </trkpt>
   <trkpt lat="-3.2087040" lon="37.3459170">
    <ele>1881.8</ele>
    <time>2026-06-24T08:05:12Z</time>
   </trkpt>
   <trkpt lat="-3.2087140" lon="37.3459100">
    <ele>1881.7</ele>
    <time>2026-06-24T08:05:13Z</time>
   </trkpt>
   <trkpt lat="-3.2087230" lon="37.3459060">
    <ele>1881.6</ele>
    <time>2026-06-24T08:05:14Z</time>
   </trkpt>
   <trkpt lat="-3.2087290" lon="37.3459010">
    <ele>1881.5</ele>
    <time>2026-06-24T08:05:15Z</time>
   </trkpt>
   <trkpt lat="-3.2087400" lon="37.3459060">
    <ele>1881.3</ele>
    <time>2026-06-24T08:05:16Z</time>
   </trkpt>
   <trkpt lat="-3.2087480" lon="37.3459070">
    <ele>1881.3</ele>
    <time>2026-06-24T08:05:17Z</time>
   </trkpt>
   <trkpt lat="-3.2087610" lon="37.3459040">
    <ele>1881.1</ele>
    <time>2026-06-24T08:05:18Z</time>
   </trkpt>
   <trkpt lat="-3.2087770" lon="37.3458990">
    <ele>1880.9</ele>
    <time>2026-06-24T08:05:19Z</time>
   </trkpt>
   <trkpt lat="-3.2087870" lon="37.3458920">
    <ele>1880.8</ele>
    <time>2026-06-24T08:05:20Z</time>
   </trkpt>
   <trkpt lat="-3.2087940" lon="37.3458830">
    <ele>1880.7</ele>
    <time>2026-06-24T08:05:21Z</time>
   </trkpt>
   <trkpt lat="-3.2088020" lon="37.3458820">
    <ele>1880.6</ele>
    <time>2026-06-24T08:05:22Z</time>
   </trkpt>
   <trkpt lat="-3.2088140" lon="37.3458830">
    <ele>1880.4</ele>
    <time>2026-06-24T08:05:23Z</time>
   </trkpt>
   <trkpt lat="-3.2088270" lon="37.3458750">
    <ele>1880.3</ele>
    <time>2026-06-24T08:05:24Z</time>
   </trkpt>
   <trkpt lat="-3.2088410" lon="37.3458670">
    <ele>1880.1</ele>
    <time>2026-06-24T08:05:25Z</time>
   </trkpt>
   <trkpt lat="-3.2088550" lon="37.3458610">
    <ele>1879.9</ele>
    <time>2026-06-24T08:05:26Z</time>
   </trkpt>
   <trkpt lat="-3.2088640" lon="37.3458550">
    <ele>1879.8</ele>
    <time>2026-06-24T08:05:27Z</time>
   </trkpt>
   <trkpt lat="-3.2088790" lon="37.3458540">
    <ele>1879.6</ele>
    <time>2026-06-24T08:05:28Z</time>
   </trkpt>
   <trkpt lat="-3.2088910" lon="37.3458510">
    <ele>1879.4</ele>
    <time>2026-06-24T08:05:29Z</time>
   </trkpt>
   <trkpt lat="-3.2089040" lon="37.3458490">
    <ele>1879.3</ele>
    <time>2026-06-24T08:05:30Z</time>
   </trkpt>
   <trkpt lat="-3.2089170" lon="37.3458510">
    <ele>1879.1</ele>
    <time>2026-06-24T08:05:31Z</time>
   </trkpt>
   <trkpt lat="-3.2089270" lon="37.3458490">
    <ele>1879.0</ele>
    <time>2026-06-24T08:05:32Z</time>
   </trkpt>
   <trkpt lat="-3.2089370" lon="37.3458440">
    <ele>1878.9</ele>
    <time>2026-06-24T08:05:33Z</time>
   </trkpt>
   <trkpt lat="-3.2089450" lon="37.3458440">
    <ele>1878.8</ele>
    <time>2026-06-24T08:05:34Z</time>
   </trkpt>
   <trkpt lat="-3.2089630" lon="37.3458390">
    <ele>1878.5</ele>
    <time>2026-06-24T08:05:35Z</time>
   </trkpt>
   <trkpt lat="-3.2089720" lon="37.3458310">
    <ele>1878.4</ele>
    <time>2026-06-24T08:05:36Z</time>
   </trkpt>
   <trkpt lat="-3.2089860" lon="37.3458220">
    <ele>1878.2</ele>
    <time>2026-06-24T08:05:37Z</time>
   </trkpt>
   <trkpt lat="-3.2090050" lon="37.3458110">
    <ele>1877.9</ele>
    <time>2026-06-24T08:05:38Z</time>
   </trkpt>
   <trkpt lat="-3.2090120" lon="37.3458100">
    <ele>1877.8</ele>
    <time>2026-06-24T08:05:39Z</time>
   </trkpt>
   <trkpt lat="-3.2090210" lon="37.3458070">
    <ele>1877.7</ele>
    <time>2026-06-24T08:05:40Z</time>
   </trkpt>
   <trkpt lat="-3.2090290" lon="37.3458100">
    <ele>1877.6</ele>
    <time>2026-06-24T08:05:41Z</time>
   </trkpt>
   <trkpt lat="-3.2090440" lon="37.3458080">
    <ele>1877.4</ele>
    <time>2026-06-24T08:05:42Z</time>
   </trkpt>
   <trkpt lat="-3.2090560" lon="37.3458030">
    <ele>1877.2</ele>
    <time>2026-06-24T08:05:43Z</time>
   </trkpt>
   <trkpt lat="-3.2090680" lon="37.3457970">
    <ele>1877.1</ele>
    <time>2026-06-24T08:05:44Z</time>
   </trkpt>
   <trkpt lat="-3.2090760" lon="37.3457940">
    <ele>1876.9</ele>
    <time>2026-06-24T08:05:45Z</time>
   </trkpt>
   <trkpt lat="-3.2090850" lon="37.3457880">
    <ele>1876.8</ele>
    <time>2026-06-24T08:05:46Z</time>
   </trkpt>
   <trkpt lat="-3.2090960" lon="37.3457830">
    <ele>1876.7</ele>
    <time>2026-06-24T08:05:47Z</time>
   </trkpt>
   <trkpt lat="-3.2091070" lon="37.3457780">
    <ele>1876.5</ele>
    <time>2026-06-24T08:05:48Z</time>
   </trkpt>
   <trkpt lat="-3.2091180" lon="37.3457740">
    <ele>1876.4</ele>
    <time>2026-06-24T08:05:49Z</time>
   </trkpt>
   <trkpt lat="-3.2091210" lon="37.3457680">
    <ele>1876.3</ele>
    <time>2026-06-24T08:05:50Z</time>
   </trkpt>
   <trkpt lat="-3.2091320" lon="37.3457590">
    <ele>1876.1</ele>
    <time>2026-06-24T08:05:51Z</time>
   </trkpt>
   <trkpt lat="-3.2091390" lon="37.3457530">
    <ele>1876.0</ele>
    <time>2026-06-24T08:05:52Z</time>
   </trkpt>
   <trkpt lat="-3.2091550" lon="37.3457470">
    <ele>1875.8</ele>
    <time>2026-06-24T08:05:53Z</time>
   </trkpt>
   <trkpt lat="-3.2091620" lon="37.3457400">
    <ele>1875.6</ele>
    <time>2026-06-24T08:05:54Z</time>
   </trkpt>
   <trkpt lat="-3.2091660" lon="37.3457350">
    <ele>1875.6</ele>
    <time>2026-06-24T08:05:55Z</time>
   </trkpt>
   <trkpt lat="-3.2091730" lon="37.3457350">
    <ele>1875.5</ele>
    <time>2026-06-24T08:05:56Z</time>
   </trkpt>
   <trkpt lat="-3.2091850" lon="37.3457270">
    <ele>1875.3</ele>
    <time>2026-06-24T08:05:57Z</time>
   </trkpt>
   <trkpt lat="-3.2091940" lon="37.3457220">
    <ele>1875.2</ele>
    <time>2026-06-24T08:05:58Z</time>
   </trkpt>
   <trkpt lat="-3.2092030" lon="37.3457150">
    <ele>1875.0</ele>
    <time>2026-06-24T08:05:59Z</time>
   </trkpt>
   <trkpt lat="-3.2092130" lon="37.3457050">
    <ele>1874.9</ele>
    <time>2026-06-24T08:06:00Z</time>
   </trkpt>
   <trkpt lat="-3.2092170" lon="37.3456990">
    <ele>1874.8</ele>
    <time>2026-06-24T08:06:01Z</time>
   </trkpt>
   <trkpt lat="-3.2092250" lon="37.3456920">
    <ele>1874.6</ele>
    <time>2026-06-24T08:06:02Z</time>
   </trkpt>
   <trkpt lat="-3.2092380" lon="37.3456800">
    <ele>1874.4</ele>
    <time>2026-06-24T08:06:03Z</time>
   </trkpt>
   <trkpt lat="-3.2092460" lon="37.3456790">
    <ele>1874.3</ele>
    <time>2026-06-24T08:06:04Z</time>
   </trkpt>
   <trkpt lat="-3.2092480" lon="37.3456740">
    <ele>1874.3</ele>
    <time>2026-06-24T08:06:05Z</time>
   </trkpt>
   <trkpt lat="-3.2092550" lon="37.3456670">
    <ele>1874.1</ele>
    <time>2026-06-24T08:06:06Z</time>
   </trkpt>
   <trkpt lat="-3.2092640" lon="37.3456700">
    <ele>1874.0</ele>
    <time>2026-06-24T08:06:07Z</time>
   </trkpt>
   <trkpt lat="-3.2092840" lon="37.3456640">
    <ele>1873.8</ele>
    <time>2026-06-24T08:06:08Z</time>
   </trkpt>
   <trkpt lat="-3.2092980" lon="37.3456580">
    <ele>1873.6</ele>
    <time>2026-06-24T08:06:09Z</time>
   </trkpt>
   <trkpt lat="-3.2093040" lon="37.3456530">
    <ele>1873.5</ele>
    <time>2026-06-24T08:06:10Z</time>
   </trkpt>
   <trkpt lat="-3.2093110" lon="37.3456480">
    <ele>1873.4</ele>
    <time>2026-06-24T08:06:11Z</time>
   </trkpt>
   <trkpt lat="-3.2093170" lon="37.3456440">
    <ele>1873.3</ele>
    <time>2026-06-24T08:06:12Z</time>
   </trkpt>
   <trkpt lat="-3.2093270" lon="37.3456360">
    <ele>1873.2</ele>
    <time>2026-06-24T08:06:13Z</time>
   </trkpt>
   <trkpt lat="-3.2093340" lon="37.3456280">
    <ele>1873.1</ele>
    <time>2026-06-24T08:06:14Z</time>
   </trkpt>
   <trkpt lat="-3.2093490" lon="37.3456220">
    <ele>1872.9</ele>
    <time>2026-06-24T08:06:15Z</time>
   </trkpt>
   <trkpt lat="-3.2093600" lon="37.3456120">
    <ele>1872.7</ele>
    <time>2026-06-24T08:06:16Z</time>
   </trkpt>
   <trkpt lat="-3.2093690" lon="37.3456050">
    <ele>1872.6</ele>
    <time>2026-06-24T08:06:17Z</time>
   </trkpt>
   <trkpt lat="-3.2093780" lon="37.3455990">
    <ele>1872.5</ele>
    <time>2026-06-24T08:06:18Z</time>
   </trkpt>
   <trkpt lat="-3.2093880" lon="37.3455920">
    <ele>1872.3</ele>
    <time>2026-06-24T08:06:19Z</time>
   </trkpt>
   <trkpt lat="-3.2093930" lon="37.3455870">
    <ele>1872.3</ele>
    <time>2026-06-24T08:06:20Z</time>
   </trkpt>
   <trkpt lat="-3.2094080" lon="37.3455730">
    <ele>1872.0</ele>
    <time>2026-06-24T08:06:21Z</time>
   </trkpt>
   <trkpt lat="-3.2094120" lon="37.3455670">
    <ele>1871.9</ele>
    <time>2026-06-24T08:06:22Z</time>
   </trkpt>
   <trkpt lat="-3.2094200" lon="37.3455540">
    <ele>1871.8</ele>
    <time>2026-06-24T08:06:23Z</time>
   </trkpt>
   <trkpt lat="-3.2094290" lon="37.3455490">
    <ele>1871.7</ele>
    <time>2026-06-24T08:06:24Z</time>
   </trkpt>
   <trkpt lat="-3.2094350" lon="37.3455380">
    <ele>1871.5</ele>
    <time>2026-06-24T08:06:25Z</time>
   </trkpt>
   <trkpt lat="-3.2094430" lon="37.3455310">
    <ele>1871.4</ele>
    <time>2026-06-24T08:06:26Z</time>
   </trkpt>
   <trkpt lat="-3.2094500" lon="37.3455270">
    <ele>1871.3</ele>
    <time>2026-06-24T08:06:27Z</time>
   </trkpt>
   <trkpt lat="-3.2094590" lon="37.3455170">
    <ele>1871.2</ele>
    <time>2026-06-24T08:06:28Z</time>
   </trkpt>
   <trkpt lat="-3.2094670" lon="37.3455040">
    <ele>1871.0</ele>
    <time>2026-06-24T08:06:29Z</time>
   </trkpt>
   <trkpt lat="-3.2094740" lon="37.3454950">
    <ele>1870.9</ele>
    <time>2026-06-24T08:06:30Z</time>
   </trkpt>
   <trkpt lat="-3.2094830" lon="37.3454900">
    <ele>1870.8</ele>
    <time>2026-06-24T08:06:31Z</time>
   </trkpt>
   <trkpt lat="-3.2094900" lon="37.3454840">
    <ele>1870.6</ele>
    <time>2026-06-24T08:06:32Z</time>
   </trkpt>
   <trkpt lat="-3.2094960" lon="37.3454760">
    <ele>1870.5</ele>
    <time>2026-06-24T08:06:33Z</time>
   </trkpt>
   <trkpt lat="-3.2095020" lon="37.3454670">
    <ele>1870.4</ele>
    <time>2026-06-24T08:06:34Z</time>
   </trkpt>
   <trkpt lat="-3.2095100" lon="37.3454590">
    <ele>1870.3</ele>
    <time>2026-06-24T08:06:35Z</time>
   </trkpt>
   <trkpt lat="-3.2095110" lon="37.3454540">
    <ele>1870.2</ele>
    <time>2026-06-24T08:06:36Z</time>
   </trkpt>
   <trkpt lat="-3.2095170" lon="37.3454480">
    <ele>1870.1</ele>
    <time>2026-06-24T08:06:37Z</time>
   </trkpt>
   <trkpt lat="-3.2095220" lon="37.3454390">
    <ele>1870.0</ele>
    <time>2026-06-24T08:06:38Z</time>
   </trkpt>
   <trkpt lat="-3.2095300" lon="37.3454310">
    <ele>1869.8</ele>
    <time>2026-06-24T08:06:39Z</time>
   </trkpt>
   <trkpt lat="-3.2095360" lon="37.3454250">
    <ele>1869.7</ele>
    <time>2026-06-24T08:06:40Z</time>
   </trkpt>
   <trkpt lat="-3.2095430" lon="37.3454190">
    <ele>1869.6</ele>
    <time>2026-06-24T08:06:41Z</time>
   </trkpt>
   <trkpt lat="-3.2095510" lon="37.3454110">
    <ele>1869.5</ele>
    <time>2026-06-24T08:06:42Z</time>
   </trkpt>
   <trkpt lat="-3.2095590" lon="37.3454050">
    <ele>1869.4</ele>
    <time>2026-06-24T08:06:43Z</time>
   </trkpt>
   <trkpt lat="-3.2095630" lon="37.3453990">
    <ele>1869.3</ele>
    <time>2026-06-24T08:06:44Z</time>
   </trkpt>
   <trkpt lat="-3.2095670" lon="37.3453930">
    <ele>1869.2</ele>
    <time>2026-06-24T08:06:45Z</time>
   </trkpt>
   <trkpt lat="-3.2095700" lon="37.3453870">
    <ele>1869.1</ele>
    <time>2026-06-24T08:06:46Z</time>
   </trkpt>
   <trkpt lat="-3.2095730" lon="37.3453770">
    <ele>1869.0</ele>
    <time>2026-06-24T08:06:47Z</time>
   </trkpt>
   <trkpt lat="-3.2095770" lon="37.3453680">
    <ele>1868.9</ele>
    <time>2026-06-24T08:06:48Z</time>
   </trkpt>
   <trkpt lat="-3.2095800" lon="37.3453630">
    <ele>1868.8</ele>
    <time>2026-06-24T08:06:49Z</time>
   </trkpt>
   <trkpt lat="-3.2095840" lon="37.3453560">
    <ele>1868.7</ele>
    <time>2026-06-24T08:06:50Z</time>
   </trkpt>
   <trkpt lat="-3.2095890" lon="37.3453550">
    <ele>1868.6</ele>
    <time>2026-06-24T08:06:51Z</time>
   </trkpt>
   <trkpt lat="-3.2096060" lon="37.3453500">
    <ele>1868.4</ele>
    <time>2026-06-24T08:06:52Z</time>
   </trkpt>
   <trkpt lat="-3.2096200" lon="37.3453410">
    <ele>1868.2</ele>
    <time>2026-06-24T08:06:53Z</time>
   </trkpt>
   <trkpt lat="-3.2096360" lon="37.3453370">
    <ele>1868.0</ele>
    <time>2026-06-24T08:06:54Z</time>
   </trkpt>
   <trkpt lat="-3.2096440" lon="37.3453280">
    <ele>1867.8</ele>
    <time>2026-06-24T08:06:55Z</time>
   </trkpt>
   <trkpt lat="-3.2096460" lon="37.3453200">
    <ele>1867.7</ele>
    <time>2026-06-24T08:06:56Z</time>
   </trkpt>
   <trkpt lat="-3.2096480" lon="37.3453150">
    <ele>1867.7</ele>
    <time>2026-06-24T08:06:57Z</time>
   </trkpt>
   <trkpt lat="-3.2096540" lon="37.3453070">
    <ele>1867.5</ele>
    <time>2026-06-24T08:06:58Z</time>
   </trkpt>
   <trkpt lat="-3.2096650" lon="37.3452990">
    <ele>1867.4</ele>
    <time>2026-06-24T08:06:59Z</time>
   </trkpt>
   <trkpt lat="-3.2096750" lon="37.3452890">
    <ele>1867.2</ele>
    <time>2026-06-24T08:07:00Z</time>
   </trkpt>
   <trkpt lat="-3.2096790" lon="37.3452810">
    <ele>1867.1</ele>
    <time>2026-06-24T08:07:01Z</time>
   </trkpt>
   <trkpt lat="-3.2096820" lon="37.3452740">
    <ele>1867.0</ele>
    <time>2026-06-24T08:07:02Z</time>
   </trkpt>
   <trkpt lat="-3.2096890" lon="37.3452690">
    <ele>1866.9</ele>
    <time>2026-06-24T08:07:03Z</time>
   </trkpt>
   <trkpt lat="-3.2096830" lon="37.3452730">
    <ele>1866.8</ele>
    <time>2026-06-24T08:07:04Z</time>
   </trkpt>
   <trkpt lat="-3.2097030" lon="37.3452610">
    <ele>1866.6</ele>
    <time>2026-06-24T08:07:05Z</time>
   </trkpt>
   <trkpt lat="-3.2097080" lon="37.3452570">
    <ele>1866.5</ele>
    <time>2026-06-24T08:07:06Z</time>
   </trkpt>
   <trkpt lat="-3.2097180" lon="37.3452480">
    <ele>1866.4</ele>
    <time>2026-06-24T08:07:07Z</time>
   </trkpt>
   <trkpt lat="-3.2097290" lon="37.3452390">
    <ele>1866.2</ele>
    <time>2026-06-24T08:07:08Z</time>
   </trkpt>
   <trkpt lat="-3.2097360" lon="37.3452350">
    <ele>1866.1</ele>
    <time>2026-06-24T08:07:09Z</time>
   </trkpt>
   <trkpt lat="-3.2097450" lon="37.3452240">
    <ele>1866.0</ele>
    <time>2026-06-24T08:07:10Z</time>
   </trkpt>
   <trkpt lat="-3.2097560" lon="37.3452180">
    <ele>1865.8</ele>
    <time>2026-06-24T08:07:11Z</time>
   </trkpt>
   <trkpt lat="-3.2097670" lon="37.3452070">
    <ele>1865.7</ele>
    <time>2026-06-24T08:07:12Z</time>
   </trkpt>
   <trkpt lat="-3.2097750" lon="37.3451960">
    <ele>1865.5</ele>
    <time>2026-06-24T08:07:13Z</time>
   </trkpt>
   <trkpt lat="-3.2097780" lon="37.3451870">
    <ele>1865.4</ele>
    <time>2026-06-24T08:07:14Z</time>
   </trkpt>
   <trkpt lat="-3.2097850" lon="37.3451770">
    <ele>1865.3</ele>
    <time>2026-06-24T08:07:15Z</time>
   </trkpt>
   <trkpt lat="-3.2097950" lon="37.3451740">
    <ele>1865.2</ele>
    <time>2026-06-24T08:07:16Z</time>
   </trkpt>
   <trkpt lat="-3.2097980" lon="37.3451690">
    <ele>1865.1</ele>
    <time>2026-06-24T08:07:17Z</time>
   </trkpt>
   <trkpt lat="-3.2098090" lon="37.3451590">
    <ele>1865.0</ele>
    <time>2026-06-24T08:07:18Z</time>
   </trkpt>
   <trkpt lat="-3.2098150" lon="37.3451530">
    <ele>1864.9</ele>
    <time>2026-06-24T08:07:19Z</time>
   </trkpt>
   <trkpt lat="-3.2098210" lon="37.3451440">
    <ele>1864.8</ele>
    <time>2026-06-24T08:07:20Z</time>
   </trkpt>
   <trkpt lat="-3.2098260" lon="37.3451380">
    <ele>1864.7</ele>
    <time>2026-06-24T08:07:21Z</time>
   </trkpt>
   <trkpt lat="-3.2098320" lon="37.3451300">
    <ele>1864.6</ele>
    <time>2026-06-24T08:07:22Z</time>
   </trkpt>
   <trkpt lat="-3.2098440" lon="37.3451190">
    <ele>1864.4</ele>
    <time>2026-06-24T08:07:23Z</time>
   </trkpt>
   <trkpt lat="-3.2098530" lon="37.3451110">
    <ele>1864.3</ele>
    <time>2026-06-24T08:07:24Z</time>
   </trkpt>
   <trkpt lat="-3.2098590" lon="37.3451080">
    <ele>1864.2</ele>
    <time>2026-06-24T08:07:25Z</time>
   </trkpt>
   <trkpt lat="-3.2098660" lon="37.3451020">
    <ele>1864.2</ele>
    <time>2026-06-24T08:07:26Z</time>
   </trkpt>
   <trkpt lat="-3.2098760" lon="37.3450940">
    <ele>1864.0</ele>
    <time>2026-06-24T08:07:27Z</time>
   </trkpt>
   <trkpt lat="-3.2098820" lon="37.3450870">
    <ele>1863.9</ele>
    <time>2026-06-24T08:07:28Z</time>
   </trkpt>
   <trkpt lat="-3.2098870" lon="37.3450780">
    <ele>1863.8</ele>
    <time>2026-06-24T08:07:29Z</time>
   </trkpt>
   <trkpt lat="-3.2098970" lon="37.3450700">
    <ele>1863.7</ele>
    <time>2026-06-24T08:07:30Z</time>
   </trkpt>
   <trkpt lat="-3.2099110" lon="37.3450600">
    <ele>1863.5</ele>
    <time>2026-06-24T08:07:31Z</time>
   </trkpt>
   <trkpt lat="-3.2099170" lon="37.3450530">
    <ele>1863.4</ele>
    <time>2026-06-24T08:07:32Z</time>
   </trkpt>
   <trkpt lat="-3.2099220" lon="37.3450490">
    <ele>1863.4</ele>
    <time>2026-06-24T08:07:33Z</time>
   </trkpt>
   <trkpt lat="-3.2099340" lon="37.3450390">
    <ele>1863.2</ele>
    <time>2026-06-24T08:07:34Z</time>
   </trkpt>
   <trkpt lat="-3.2099450" lon="37.3450280">
    <ele>1863.0</ele>
    <time>2026-06-24T08:07:35Z</time>
   </trkpt>
   <trkpt lat="-3.2099520" lon="37.3450230">
    <ele>1862.9</ele>
    <time>2026-06-24T08:07:36Z</time>
   </trkpt>
   <trkpt lat="-3.2099590" lon="37.3450160">
    <ele>1862.8</ele>
    <time>2026-06-24T08:07:37Z</time>
   </trkpt>
   <trkpt lat="-3.2099680" lon="37.3450070">
    <ele>1862.7</ele>
    <time>2026-06-24T08:07:38Z</time>
   </trkpt>
   <trkpt lat="-3.2099770" lon="37.3450010">
    <ele>1862.6</ele>
    <time>2026-06-24T08:07:39Z</time>
   </trkpt>
   <trkpt lat="-3.2099890" lon="37.3449910">
    <ele>1862.4</ele>
    <time>2026-06-24T08:07:40Z</time>
   </trkpt>
   <trkpt lat="-3.2099990" lon="37.3449790">
    <ele>1862.3</ele>
    <time>2026-06-24T08:07:41Z</time>
   </trkpt>
   <trkpt lat="-3.2100020" lon="37.3449690">
    <ele>1862.2</ele>
    <time>2026-06-24T08:07:42Z</time>
   </trkpt>
   <trkpt lat="-3.2100090" lon="37.3449570">
    <ele>1862.0</ele>
    <time>2026-06-24T08:07:43Z</time>
   </trkpt>
   <trkpt lat="-3.2100150" lon="37.3449490">
    <ele>1861.9</ele>
    <time>2026-06-24T08:07:44Z</time>
   </trkpt>
   <trkpt lat="-3.2100180" lon="37.3449420">
    <ele>1861.8</ele>
    <time>2026-06-24T08:07:45Z</time>
   </trkpt>
   <trkpt lat="-3.2100220" lon="37.3449370">
    <ele>1861.7</ele>
    <time>2026-06-24T08:07:46Z</time>
   </trkpt>
   <trkpt lat="-3.2100290" lon="37.3449240">
    <ele>1861.6</ele>
    <time>2026-06-24T08:07:47Z</time>
   </trkpt>
   <trkpt lat="-3.2100350" lon="37.3449140">
    <ele>1861.4</ele>
    <time>2026-06-24T08:07:48Z</time>
   </trkpt>
   <trkpt lat="-3.2100410" lon="37.3449070">
    <ele>1861.3</ele>
    <time>2026-06-24T08:07:49Z</time>
   </trkpt>
   <trkpt lat="-3.2100470" lon="37.3448930">
    <ele>1861.2</ele>
    <time>2026-06-24T08:07:50Z</time>
   </trkpt>
   <trkpt lat="-3.2100540" lon="37.3448880">
    <ele>1861.1</ele>
    <time>2026-06-24T08:07:51Z</time>
   </trkpt>
   <trkpt lat="-3.2100610" lon="37.3448830">
    <ele>1861.0</ele>
    <time>2026-06-24T08:07:52Z</time>
   </trkpt>
   <trkpt lat="-3.2100640" lon="37.3448740">
    <ele>1860.9</ele>
    <time>2026-06-24T08:07:53Z</time>
   </trkpt>
   <trkpt lat="-3.2100730" lon="37.3448630">
    <ele>1860.7</ele>
    <time>2026-06-24T08:07:54Z</time>
   </trkpt>
   <trkpt lat="-3.2100800" lon="37.3448530">
    <ele>1860.6</ele>
    <time>2026-06-24T08:07:55Z</time>
   </trkpt>
   <trkpt lat="-3.2100830" lon="37.3448480">
    <ele>1860.5</ele>
    <time>2026-06-24T08:07:56Z</time>
   </trkpt>
   <trkpt lat="-3.2100860" lon="37.3448410">
    <ele>1860.4</ele>
    <time>2026-06-24T08:07:57Z</time>
   </trkpt>
   <trkpt lat="-3.2100940" lon="37.3448310">
    <ele>1860.3</ele>
    <time>2026-06-24T08:07:58Z</time>
   </trkpt>
   <trkpt lat="-3.2101050" lon="37.3448030">
    <ele>1859.9</ele>
    <time>2026-06-24T08:07:59Z</time>
   </trkpt>
   <trkpt lat="-3.2101100" lon="37.3447970">
    <ele>1859.8</ele>
    <time>2026-06-24T08:08:00Z</time>
   </trkpt>
   <trkpt lat="-3.2101210" lon="37.3447890">
    <ele>1859.6</ele>
    <time>2026-06-24T08:08:01Z</time>
   </trkpt>
   <trkpt lat="-3.2101270" lon="37.3447800">
    <ele>1859.5</ele>
    <time>2026-06-24T08:08:02Z</time>
   </trkpt>
   <trkpt lat="-3.2101320" lon="37.3447730">
    <ele>1859.4</ele>
    <time>2026-06-24T08:08:03Z</time>
   </trkpt>
   <trkpt lat="-3.2101380" lon="37.3447640">
    <ele>1859.2</ele>
    <time>2026-06-24T08:08:04Z</time>
   </trkpt>
   <trkpt lat="-3.2101450" lon="37.3447610">
    <ele>1859.1</ele>
    <time>2026-06-24T08:08:05Z</time>
   </trkpt>
   <trkpt lat="-3.2101510" lon="37.3447500">
    <ele>1859.0</ele>
    <time>2026-06-24T08:08:06Z</time>
   </trkpt>
   <trkpt lat="-3.2101560" lon="37.3447410">
    <ele>1858.8</ele>
    <time>2026-06-24T08:08:07Z</time>
   </trkpt>
   <trkpt lat="-3.2101630" lon="37.3447360">
    <ele>1858.7</ele>
    <time>2026-06-24T08:08:08Z</time>
   </trkpt>
   <trkpt lat="-3.2101720" lon="37.3447330">
    <ele>1858.6</ele>
    <time>2026-06-24T08:08:09Z</time>
   </trkpt>
   <trkpt lat="-3.2101800" lon="37.3447270">
    <ele>1858.4</ele>
    <time>2026-06-24T08:08:10Z</time>
   </trkpt>
   <trkpt lat="-3.2101900" lon="37.3447190">
    <ele>1858.3</ele>
    <time>2026-06-24T08:08:11Z</time>
   </trkpt>
   <trkpt lat="-3.2102020" lon="37.3447100">
    <ele>1858.1</ele>
    <time>2026-06-24T08:08:12Z</time>
   </trkpt>
   <trkpt lat="-3.2102100" lon="37.3447000">
    <ele>1857.9</ele>
    <time>2026-06-24T08:08:13Z</time>
   </trkpt>
   <trkpt lat="-3.2102180" lon="37.3446920">
    <ele>1857.7</ele>
    <time>2026-06-24T08:08:14Z</time>
   </trkpt>
   <trkpt lat="-3.2102240" lon="37.3446840">
    <ele>1857.6</ele>
    <time>2026-06-24T08:08:15Z</time>
   </trkpt>
   <trkpt lat="-3.2102290" lon="37.3446770">
    <ele>1857.4</ele>
    <time>2026-06-24T08:08:16Z</time>
   </trkpt>
   <trkpt lat="-3.2102350" lon="37.3446710">
    <ele>1857.3</ele>
    <time>2026-06-24T08:08:17Z</time>
   </trkpt>
   <trkpt lat="-3.2102390" lon="37.3446630">
    <ele>1857.2</ele>
    <time>2026-06-24T08:08:18Z</time>
   </trkpt>
   <trkpt lat="-3.2102440" lon="37.3446590">
    <ele>1857.1</ele>
    <time>2026-06-24T08:08:19Z</time>
   </trkpt>
   <trkpt lat="-3.2102500" lon="37.3446490">
    <ele>1856.9</ele>
    <time>2026-06-24T08:08:20Z</time>
   </trkpt>
   <trkpt lat="-3.2102570" lon="37.3446390">
    <ele>1856.7</ele>
    <time>2026-06-24T08:08:21Z</time>
   </trkpt>
   <trkpt lat="-3.2102590" lon="37.3446320">
    <ele>1856.6</ele>
    <time>2026-06-24T08:08:22Z</time>
   </trkpt>
   <trkpt lat="-3.2102610" lon="37.3446160">
    <ele>1856.4</ele>
    <time>2026-06-24T08:08:23Z</time>
   </trkpt>
   <trkpt lat="-3.2102660" lon="37.3446110">
    <ele>1856.3</ele>
    <time>2026-06-24T08:08:24Z</time>
   </trkpt>
   <trkpt lat="-3.2102750" lon="37.3446040">
    <ele>1856.1</ele>
    <time>2026-06-24T08:08:25Z</time>
   </trkpt>
   <trkpt lat="-3.2102870" lon="37.3445990">
    <ele>1856.0</ele>
    <time>2026-06-24T08:08:26Z</time>
   </trkpt>
   <trkpt lat="-3.2102990" lon="37.3445910">
    <ele>1855.7</ele>
    <time>2026-06-24T08:08:27Z</time>
   </trkpt>
   <trkpt lat="-3.2103060" lon="37.3445830">
    <ele>1855.6</ele>
    <time>2026-06-24T08:08:28Z</time>
   </trkpt>
   <trkpt lat="-3.2103080" lon="37.3445730">
    <ele>1855.5</ele>
    <time>2026-06-24T08:08:29Z</time>
   </trkpt>
   <trkpt lat="-3.2103040" lon="37.3445680">
    <ele>1855.4</ele>
    <time>2026-06-24T08:08:30Z</time>
   </trkpt>
   <trkpt lat="-3.2103040" lon="37.3445670">
    <ele>1855.4</ele>
    <time>2026-06-24T08:08:31Z</time>
   </trkpt>
   <trkpt lat="-3.2103080" lon="37.3445630">
    <ele>1855.3</ele>
    <time>2026-06-24T08:08:32Z</time>
   </trkpt>
   <trkpt lat="-3.2103090" lon="37.3445530">
    <ele>1855.1</ele>
    <time>2026-06-24T08:08:33Z</time>
   </trkpt>
   <trkpt lat="-3.2103130" lon="37.3445470">
    <ele>1855.0</ele>
    <time>2026-06-24T08:08:34Z</time>
   </trkpt>
   <trkpt lat="-3.2103160" lon="37.3445460">
    <ele>1855.0</ele>
    <time>2026-06-24T08:08:35Z</time>
   </trkpt>
   <trkpt lat="-3.2103230" lon="37.3445430">
    <ele>1854.9</ele>
    <time>2026-06-24T08:08:36Z</time>
   </trkpt>
   <trkpt lat="-3.2103310" lon="37.3445300">
    <ele>1854.7</ele>
    <time>2026-06-24T08:08:37Z</time>
   </trkpt>
   <trkpt lat="-3.2103370" lon="37.3445200">
    <ele>1854.6</ele>
    <time>2026-06-24T08:08:38Z</time>
   </trkpt>
   <trkpt lat="-3.2103420" lon="37.3445110">
    <ele>1854.4</ele>
    <time>2026-06-24T08:08:39Z</time>
   </trkpt>
   <trkpt lat="-3.2103430" lon="37.3445030">
    <ele>1854.3</ele>
    <time>2026-06-24T08:08:40Z</time>
   </trkpt>
   <trkpt lat="-3.2103510" lon="37.3444950">
    <ele>1854.2</ele>
    <time>2026-06-24T08:08:41Z</time>
   </trkpt>
   <trkpt lat="-3.2103620" lon="37.3444850">
    <ele>1854.0</ele>
    <time>2026-06-24T08:08:42Z</time>
   </trkpt>
   <trkpt lat="-3.2103730" lon="37.3444740">
    <ele>1853.8</ele>
    <time>2026-06-24T08:08:43Z</time>
   </trkpt>
   <trkpt lat="-3.2103860" lon="37.3444620">
    <ele>1853.6</ele>
    <time>2026-06-24T08:08:44Z</time>
   </trkpt>
   <trkpt lat="-3.2103950" lon="37.3444510">
    <ele>1853.4</ele>
    <time>2026-06-24T08:08:45Z</time>
   </trkpt>
   <trkpt lat="-3.2104080" lon="37.3444360">
    <ele>1853.2</ele>
    <time>2026-06-24T08:08:46Z</time>
   </trkpt>
   <trkpt lat="-3.2104160" lon="37.3444280">
    <ele>1853.0</ele>
    <time>2026-06-24T08:08:47Z</time>
   </trkpt>
   <trkpt lat="-3.2104230" lon="37.3444160">
    <ele>1852.9</ele>
    <time>2026-06-24T08:08:48Z</time>
   </trkpt>
   <trkpt lat="-3.2104270" lon="37.3444040">
    <ele>1852.7</ele>
    <time>2026-06-24T08:08:49Z</time>
   </trkpt>
   <trkpt lat="-3.2104290" lon="37.3443940">
    <ele>1852.6</ele>
    <time>2026-06-24T08:08:50Z</time>
   </trkpt>
   <trkpt lat="-3.2104380" lon="37.3443900">
    <ele>1852.5</ele>
    <time>2026-06-24T08:08:51Z</time>
   </trkpt>
   <trkpt lat="-3.2104540" lon="37.3443810">
    <ele>1852.3</ele>
    <time>2026-06-24T08:08:52Z</time>
   </trkpt>
   <trkpt lat="-3.2104650" lon="37.3443730">
    <ele>1852.2</ele>
    <time>2026-06-24T08:08:53Z</time>
   </trkpt>
   <trkpt lat="-3.2104720" lon="37.3443540">
    <ele>1851.9</ele>
    <time>2026-06-24T08:08:54Z</time>
   </trkpt>
   <trkpt lat="-3.2104800" lon="37.3443430">
    <ele>1851.8</ele>
    <time>2026-06-24T08:08:55Z</time>
   </trkpt>
   <trkpt lat="-3.2104880" lon="37.3443360">
    <ele>1851.7</ele>
    <time>2026-06-24T08:08:56Z</time>
   </trkpt>
   <trkpt lat="-3.2104990" lon="37.3443240">
    <ele>1851.5</ele>
    <time>2026-06-24T08:08:57Z</time>
   </trkpt>
   <trkpt lat="-3.2105080" lon="37.3443130">
    <ele>1851.3</ele>
    <time>2026-06-24T08:08:58Z</time>
   </trkpt>
   <trkpt lat="-3.2105120" lon="37.3443020">
    <ele>1851.2</ele>
    <time>2026-06-24T08:08:59Z</time>
   </trkpt>
   <trkpt lat="-3.2105160" lon="37.3442920">
    <ele>1851.1</ele>
    <time>2026-06-24T08:09:00Z</time>
   </trkpt>
   <trkpt lat="-3.2105210" lon="37.3442850">
    <ele>1851.0</ele>
    <time>2026-06-24T08:09:01Z</time>
   </trkpt>
   <trkpt lat="-3.2105280" lon="37.3442810">
    <ele>1850.9</ele>
    <time>2026-06-24T08:09:02Z</time>
   </trkpt>
   <trkpt lat="-3.2105340" lon="37.3442750">
    <ele>1850.9</ele>
    <time>2026-06-24T08:09:03Z</time>
   </trkpt>
   <trkpt lat="-3.2105410" lon="37.3442670">
    <ele>1850.7</ele>
    <time>2026-06-24T08:09:04Z</time>
   </trkpt>
   <trkpt lat="-3.2105450" lon="37.3442550">
    <ele>1850.6</ele>
    <time>2026-06-24T08:09:05Z</time>
   </trkpt>
   <trkpt lat="-3.2105510" lon="37.3442480">
    <ele>1850.5</ele>
    <time>2026-06-24T08:09:06Z</time>
   </trkpt>
   <trkpt lat="-3.2105570" lon="37.3442390">
    <ele>1850.4</ele>
    <time>2026-06-24T08:09:07Z</time>
   </trkpt>
   <trkpt lat="-3.2105670" lon="37.3442260">
    <ele>1850.2</ele>
    <time>2026-06-24T08:09:08Z</time>
   </trkpt>
   <trkpt lat="-3.2105680" lon="37.3442180">
    <ele>1850.2</ele>
    <time>2026-06-24T08:09:09Z</time>
   </trkpt>
   <trkpt lat="-3.2105720" lon="37.3442090">
    <ele>1850.1</ele>
    <time>2026-06-24T08:09:10Z</time>
   </trkpt>
   <trkpt lat="-3.2105780" lon="37.3441960">
    <ele>1849.9</ele>
    <time>2026-06-24T08:09:11Z</time>
   </trkpt>
   <trkpt lat="-3.2105940" lon="37.3441890">
    <ele>1849.7</ele>
    <time>2026-06-24T08:09:12Z</time>
   </trkpt>
   <trkpt lat="-3.2105970" lon="37.3441810">
    <ele>1849.6</ele>
    <time>2026-06-24T08:09:13Z</time>
   </trkpt>
   <trkpt lat="-3.2105970" lon="37.3441740">
    <ele>1849.6</ele>
    <time>2026-06-24T08:09:14Z</time>
   </trkpt>
   <trkpt lat="-3.2106020" lon="37.3441630">
    <ele>1849.4</ele>
    <time>2026-06-24T08:09:15Z</time>
   </trkpt>
   <trkpt lat="-3.2106040" lon="37.3441510">
    <ele>1849.3</ele>
    <time>2026-06-24T08:09:16Z</time>
   </trkpt>
   <trkpt lat="-3.2106040" lon="37.3441390">
    <ele>1849.2</ele>
    <time>2026-06-24T08:09:17Z</time>
   </trkpt>
   <trkpt lat="-3.2106080" lon="37.3441290">
    <ele>1849.1</ele>
    <time>2026-06-24T08:09:18Z</time>
   </trkpt>
   <trkpt lat="-3.2106130" lon="37.3441180">
    <ele>1848.9</ele>
    <time>2026-06-24T08:09:19Z</time>
   </trkpt>
   <trkpt lat="-3.2106160" lon="37.3441070">
    <ele>1848.8</ele>
    <time>2026-06-24T08:09:20Z</time>
   </trkpt>
   <trkpt lat="-3.2106240" lon="37.3440920">
    <ele>1848.6</ele>
    <time>2026-06-24T08:09:21Z</time>
   </trkpt>
   <trkpt lat="-3.2106260" lon="37.3440750">
    <ele>1848.4</ele>
    <time>2026-06-24T08:09:22Z</time>
   </trkpt>
   <trkpt lat="-3.2106260" lon="37.3440680">
    <ele>1848.4</ele>
    <time>2026-06-24T08:09:23Z</time>
   </trkpt>
   <trkpt lat="-3.2106330" lon="37.3440590">
    <ele>1848.2</ele>
    <time>2026-06-24T08:09:24Z</time>
   </trkpt>
   <trkpt lat="-3.2106370" lon="37.3440490">
    <ele>1848.1</ele>
    <time>2026-06-24T08:09:25Z</time>
   </trkpt>
   <trkpt lat="-3.2106420" lon="37.3440370">
    <ele>1848.0</ele>
    <time>2026-06-24T08:09:26Z</time>
   </trkpt>
   <trkpt lat="-3.2106470" lon="37.3440250">
    <ele>1847.8</ele>
    <time>2026-06-24T08:09:27Z</time>
   </trkpt>
   <trkpt lat="-3.2106500" lon="37.3440180">
    <ele>1847.7</ele>
    <time>2026-06-24T08:09:28Z</time>
   </trkpt>
   <trkpt lat="-3.2106540" lon="37.3440130">
    <ele>1847.6</ele>
    <time>2026-06-24T08:09:29Z</time>
   </trkpt>
   <trkpt lat="-3.2106640" lon="37.3440000">
    <ele>1847.4</ele>
    <time>2026-06-24T08:09:30Z</time>
   </trkpt>
   <trkpt lat="-3.2106720" lon="37.3439870">
    <ele>1847.3</ele>
    <time>2026-06-24T08:09:31Z</time>
   </trkpt>
   <trkpt lat="-3.2106790" lon="37.3439860">
    <ele>1847.2</ele>
    <time>2026-06-24T08:09:32Z</time>
   </trkpt>
   <trkpt lat="-3.2106860" lon="37.3439850">
    <ele>1847.1</ele>
    <time>2026-06-24T08:09:33Z</time>
   </trkpt>
   <trkpt lat="-3.2106820" lon="37.3439930">
    <ele>1847.0</ele>
    <time>2026-06-24T08:09:34Z</time>
   </trkpt>
   <trkpt lat="-3.2106820" lon="37.3439940">
    <ele>1847.0</ele>
    <time>2026-06-24T08:09:35Z</time>
   </trkpt>
   <trkpt lat="-3.2106680" lon="37.3439960">
    <ele>1846.8</ele>
    <time>2026-06-24T08:09:36Z</time>
   </trkpt>
   <trkpt lat="-3.2106680" lon="37.3439960">
    <ele>1846.8</ele>
    <time>2026-06-24T08:09:37Z</time>
   </trkpt>
   <trkpt lat="-3.2106680" lon="37.3439960">
    <ele>1846.8</ele>
    <time>2026-06-24T08:09:38Z</time>
   </trkpt>
   <trkpt lat="-3.2106680" lon="37.3439960">
    <ele>1846.8</ele>
    <time>2026-06-24T08:09:39Z</time>
   </trkpt>
   <trkpt lat="-3.2106680" lon="37.3439960">
    <ele>1846.8</ele>
    <time>2026-06-24T08:09:40Z</time>
   </trkpt>
   <trkpt lat="-3.2106680" lon="37.3439960">
    <ele>1846.8</ele>
    <time>2026-06-24T08:09:41Z</time>
   </trkpt>
   <trkpt lat="-3.2106530" lon="37.3439700">
    <ele>1846.4</ele>
    <time>2026-06-24T08:09:42Z</time>
   </trkpt>
   <trkpt lat="-3.2106480" lon="37.3439660">
    <ele>1846.3</ele>
    <time>2026-06-24T08:09:43Z</time>
   </trkpt>
   <trkpt lat="-3.2106470" lon="37.3439680">
    <ele>1846.3</ele>
    <time>2026-06-24T08:09:44Z</time>
   </trkpt>
   <trkpt lat="-3.2106460" lon="37.3439680">
    <ele>1846.3</ele>
    <time>2026-06-24T08:09:45Z</time>
   </trkpt>
   <trkpt lat="-3.2106610" lon="37.3439670">
    <ele>1846.1</ele>
    <time>2026-06-24T08:09:46Z</time>
   </trkpt>
   <trkpt lat="-3.2106640" lon="37.3439610">
    <ele>1846.0</ele>
    <time>2026-06-24T08:09:47Z</time>
   </trkpt>
   <trkpt lat="-3.2106720" lon="37.3439550">
    <ele>1845.8</ele>
    <time>2026-06-24T08:09:48Z</time>
   </trkpt>
   <trkpt lat="-3.2106830" lon="37.3439500">
    <ele>1845.7</ele>
    <time>2026-06-24T08:09:49Z</time>
   </trkpt>
   <trkpt lat="-3.2106990" lon="37.3439380">
    <ele>1845.3</ele>
    <time>2026-06-24T08:09:50Z</time>
   </trkpt>
   <trkpt lat="-3.2107040" lon="37.3439320">
    <ele>1845.2</ele>
    <time>2026-06-24T08:09:51Z</time>
   </trkpt>
   <trkpt lat="-3.2107050" lon="37.3439260">
    <ele>1845.1</ele>
    <time>2026-06-24T08:09:52Z</time>
   </trkpt>
   <trkpt lat="-3.2107070" lon="37.3439180">
    <ele>1845.0</ele>
    <time>2026-06-24T08:09:53Z</time>
   </trkpt>
   <trkpt lat="-3.2107110" lon="37.3439170">
    <ele>1844.9</ele>
    <time>2026-06-24T08:09:54Z</time>
   </trkpt>
   <trkpt lat="-3.2107200" lon="37.3439070">
    <ele>1844.6</ele>
    <time>2026-06-24T08:09:55Z</time>
   </trkpt>
   <trkpt lat="-3.2107280" lon="37.3438940">
    <ele>1844.3</ele>
    <time>2026-06-24T08:09:56Z</time>
   </trkpt>
   <trkpt lat="-3.2107330" lon="37.3438850">
    <ele>1844.1</ele>
    <time>2026-06-24T08:09:57Z</time>
   </trkpt>
   <trkpt lat="-3.2107380" lon="37.3438770">
    <ele>1843.9</ele>
    <time>2026-06-24T08:09:58Z</time>
   </trkpt>
   <trkpt lat="-3.2107420" lon="37.3438690">
    <ele>1843.8</ele>
    <time>2026-06-24T08:09:59Z</time>
   </trkpt>
   <trkpt lat="-3.2107460" lon="37.3438590">
    <ele>1843.5</ele>
    <time>2026-06-24T08:10:00Z</time>
   </trkpt>
   <trkpt lat="-3.2107530" lon="37.3438520">
    <ele>1843.3</ele>
    <time>2026-06-24T08:10:01Z</time>
   </trkpt>
   <trkpt lat="-3.2107500" lon="37.3438440">
    <ele>1843.1</ele>
    <time>2026-06-24T08:10:02Z</time>
   </trkpt>
   <trkpt lat="-3.2107520" lon="37.3438360">
    <ele>1842.9</ele>
    <time>2026-06-24T08:10:03Z</time>
   </trkpt>
   <trkpt lat="-3.2107580" lon="37.3438250">
    <ele>1842.6</ele>
    <time>2026-06-24T08:10:04Z</time>
   </trkpt>
   <trkpt lat="-3.2107660" lon="37.3438140">
    <ele>1842.3</ele>
    <time>2026-06-24T08:10:05Z</time>
   </trkpt>
   <trkpt lat="-3.2107730" lon="37.3438040">
    <ele>1842.0</ele>
    <time>2026-06-24T08:10:06Z</time>
   </trkpt>
   <trkpt lat="-3.2107790" lon="37.3437980">
    <ele>1841.8</ele>
    <time>2026-06-24T08:10:07Z</time>
   </trkpt>
   <trkpt lat="-3.2107840" lon="37.3437890">
    <ele>1841.6</ele>
    <time>2026-06-24T08:10:08Z</time>
   </trkpt>
   <trkpt lat="-3.2107920" lon="37.3437790">
    <ele>1841.3</ele>
    <time>2026-06-24T08:10:09Z</time>
   </trkpt>
   <trkpt lat="-3.2107980" lon="37.3437740">
    <ele>1841.1</ele>
    <time>2026-06-24T08:10:10Z</time>
   </trkpt>
   <trkpt lat="-3.2108110" lon="37.3437670">
    <ele>1840.8</ele>
    <time>2026-06-24T08:10:11Z</time>
   </trkpt>
   <trkpt lat="-3.2108230" lon="37.3437620">
    <ele>1840.5</ele>
    <time>2026-06-24T08:10:12Z</time>
   </trkpt>
   <trkpt lat="-3.2108290" lon="37.3437600">
    <ele>1840.3</ele>
    <time>2026-06-24T08:10:13Z</time>
   </trkpt>
   <trkpt lat="-3.2108350" lon="37.3437570">
    <ele>1840.2</ele>
    <time>2026-06-24T08:10:14Z</time>
   </trkpt>
   <trkpt lat="-3.2108390" lon="37.3437550">
    <ele>1840.1</ele>
    <time>2026-06-24T08:10:15Z</time>
   </trkpt>
   <trkpt lat="-3.2108400" lon="37.3437560">
    <ele>1840.0</ele>
    <time>2026-06-24T08:10:16Z</time>
   </trkpt>
   <trkpt lat="-3.2108450" lon="37.3437490">
    <ele>1839.8</ele>
    <time>2026-06-24T08:10:17Z</time>
   </trkpt>
   <trkpt lat="-3.2108430" lon="37.3437450">
    <ele>1839.7</ele>
    <time>2026-06-24T08:10:18Z</time>
   </trkpt>
   <trkpt lat="-3.2108470" lon="37.3437370">
    <ele>1839.5</ele>
    <time>2026-06-24T08:10:19Z</time>
   </trkpt>
   <trkpt lat="-3.2108480" lon="37.3437260">
    <ele>1839.3</ele>
    <time>2026-06-24T08:10:20Z</time>
   </trkpt>
   <trkpt lat="-3.2108490" lon="37.3437230">
    <ele>1839.2</ele>
    <time>2026-06-24T08:10:21Z</time>
   </trkpt>
   <trkpt lat="-3.2108450" lon="37.3437220">
    <ele>1839.1</ele>
    <time>2026-06-24T08:10:22Z</time>
   </trkpt>
   <trkpt lat="-3.2108500" lon="37.3437050">
    <ele>1838.7</ele>
    <time>2026-06-24T08:10:23Z</time>
   </trkpt>
   <trkpt lat="-3.2108490" lon="37.3436950">
    <ele>1838.5</ele>
    <time>2026-06-24T08:10:24Z</time>
   </trkpt>
   <trkpt lat="-3.2108470" lon="37.3436860">
    <ele>1838.3</ele>
    <time>2026-06-24T08:10:25Z</time>
   </trkpt>
   <trkpt lat="-3.2108490" lon="37.3436870">
    <ele>1838.3</ele>
    <time>2026-06-24T08:10:26Z</time>
   </trkpt>
   <trkpt lat="-3.2108510" lon="37.3436830">
    <ele>1838.2</ele>
    <time>2026-06-24T08:10:27Z</time>
   </trkpt>
   <trkpt lat="-3.2108560" lon="37.3436730">
    <ele>1838.0</ele>
    <time>2026-06-24T08:10:28Z</time>
   </trkpt>
   <trkpt lat="-3.2108570" lon="37.3436690">
    <ele>1837.9</ele>
    <time>2026-06-24T08:10:29Z</time>
   </trkpt>
   <trkpt lat="-3.2108610" lon="37.3436610">
    <ele>1837.7</ele>
    <time>2026-06-24T08:10:30Z</time>
   </trkpt>
   <trkpt lat="-3.2108660" lon="37.3436510">
    <ele>1837.5</ele>
    <time>2026-06-24T08:10:31Z</time>
   </trkpt>
   <trkpt lat="-3.2108710" lon="37.3436430">
    <ele>1837.3</ele>
    <time>2026-06-24T08:10:32Z</time>
   </trkpt>
   <trkpt lat="-3.2108790" lon="37.3436400">
    <ele>1837.1</ele>
    <time>2026-06-24T08:10:33Z</time>
   </trkpt>
   <trkpt lat="-3.2108800" lon="37.3436330">
    <ele>1837.0</ele>
    <time>2026-06-24T08:10:34Z</time>
   </trkpt>
   <trkpt lat="-3.2108800" lon="37.3436320">
    <ele>1836.9</ele>
    <time>2026-06-24T08:10:35Z</time>
   </trkpt>
   <trkpt lat="-3.2108810" lon="37.3436250">
    <ele>1836.8</ele>
    <time>2026-06-24T08:10:36Z</time>
   </trkpt>
   <trkpt lat="-3.2108870" lon="37.3436190">
    <ele>1836.6</ele>
    <time>2026-06-24T08:10:37Z</time>
   </trkpt>
   <trkpt lat="-3.2108890" lon="37.3436140">
    <ele>1836.5</ele>
    <time>2026-06-24T08:10:38Z</time>
   </trkpt>
   <trkpt lat="-3.2108930" lon="37.3436020">
    <ele>1836.3</ele>
    <time>2026-06-24T08:10:39Z</time>
   </trkpt>
   <trkpt lat="-3.2108960" lon="37.3435960">
    <ele>1836.1</ele>
    <time>2026-06-24T08:10:40Z</time>
   </trkpt>
   <trkpt lat="-3.2108990" lon="37.3435850">
    <ele>1835.9</ele>
    <time>2026-06-24T08:10:41Z</time>
   </trkpt>
   <trkpt lat="-3.2109040" lon="37.3435720">
    <ele>1835.7</ele>
    <time>2026-06-24T08:10:42Z</time>
   </trkpt>
   <trkpt lat="-3.2109080" lon="37.3435640">
    <ele>1835.5</ele>
    <time>2026-06-24T08:10:43Z</time>
   </trkpt>
   <trkpt lat="-3.2109120" lon="37.3435510">
    <ele>1835.2</ele>
    <time>2026-06-24T08:10:44Z</time>
   </trkpt>
   <trkpt lat="-3.2109140" lon="37.3435380">
    <ele>1835.0</ele>
    <time>2026-06-24T08:10:45Z</time>
   </trkpt>
   <trkpt lat="-3.2109200" lon="37.3435300">
    <ele>1834.8</ele>
    <time>2026-06-24T08:10:46Z</time>
   </trkpt>
   <trkpt lat="-3.2109250" lon="37.3435280">
    <ele>1834.7</ele>
    <time>2026-06-24T08:10:47Z</time>
   </trkpt>
   <trkpt lat="-3.2109270" lon="37.3435240">
    <ele>1834.6</ele>
    <time>2026-06-24T08:10:48Z</time>
   </trkpt>
   <trkpt lat="-3.2109300" lon="37.3435120">
    <ele>1834.4</ele>
    <time>2026-06-24T08:10:49Z</time>
   </trkpt>
   <trkpt lat="-3.2109390" lon="37.3435010">
    <ele>1834.1</ele>
    <time>2026-06-24T08:10:50Z</time>
   </trkpt>
   <trkpt lat="-3.2109530" lon="37.3434840">
    <ele>1833.7</ele>
    <time>2026-06-24T08:10:51Z</time>
   </trkpt>
   <trkpt lat="-3.2109590" lon="37.3434810">
    <ele>1833.5</ele>
    <time>2026-06-24T08:10:52Z</time>
   </trkpt>
   <trkpt lat="-3.2109640" lon="37.3434760">
    <ele>1833.4</ele>
    <time>2026-06-24T08:10:53Z</time>
   </trkpt>
   <trkpt lat="-3.2109690" lon="37.3434760">
    <ele>1833.3</ele>
    <time>2026-06-24T08:10:54Z</time>
   </trkpt>
   <trkpt lat="-3.2109720" lon="37.3434700">
    <ele>1833.2</ele>
    <time>2026-06-24T08:10:55Z</time>
   </trkpt>
   <trkpt lat="-3.2109800" lon="37.3434560">
    <ele>1832.9</ele>
    <time>2026-06-24T08:10:56Z</time>
   </trkpt>
   <trkpt lat="-3.2109850" lon="37.3434470">
    <ele>1832.7</ele>
    <time>2026-06-24T08:10:57Z</time>
   </trkpt>
   <trkpt lat="-3.2109940" lon="37.3434350">
    <ele>1832.4</ele>
    <time>2026-06-24T08:10:58Z</time>
   </trkpt>
   <trkpt lat="-3.2110040" lon="37.3434210">
    <ele>1832.1</ele>
    <time>2026-06-24T08:10:59Z</time>
   </trkpt>
   <trkpt lat="-3.2110080" lon="37.3434150">
    <ele>1831.9</ele>
    <time>2026-06-24T08:11:00Z</time>
   </trkpt>
   <trkpt lat="-3.2110150" lon="37.3434010">
    <ele>1831.6</ele>
    <time>2026-06-24T08:11:01Z</time>
   </trkpt>
   <trkpt lat="-3.2110240" lon="37.3433910">
    <ele>1831.4</ele>
    <time>2026-06-24T08:11:02Z</time>
   </trkpt>
   <trkpt lat="-3.2110320" lon="37.3433870">
    <ele>1831.2</ele>
    <time>2026-06-24T08:11:03Z</time>
   </trkpt>
   <trkpt lat="-3.2110360" lon="37.3433830">
    <ele>1831.1</ele>
    <time>2026-06-24T08:11:04Z</time>
   </trkpt>
   <trkpt lat="-3.2110400" lon="37.3433790">
    <ele>1831.0</ele>
    <time>2026-06-24T08:11:05Z</time>
   </trkpt>
   <trkpt lat="-3.2110500" lon="37.3433720">
    <ele>1830.8</ele>
    <time>2026-06-24T08:11:06Z</time>
   </trkpt>
   <trkpt lat="-3.2110560" lon="37.3433670">
    <ele>1830.6</ele>
    <time>2026-06-24T08:11:07Z</time>
   </trkpt>
   <trkpt lat="-3.2110670" lon="37.3433560">
    <ele>1830.3</ele>
    <time>2026-06-24T08:11:08Z</time>
   </trkpt>
   <trkpt lat="-3.2110750" lon="37.3433450">
    <ele>1830.1</ele>
    <time>2026-06-24T08:11:09Z</time>
   </trkpt>
   <trkpt lat="-3.2110820" lon="37.3433370">
    <ele>1829.9</ele>
    <time>2026-06-24T08:11:10Z</time>
   </trkpt>
   <trkpt lat="-3.2110910" lon="37.3433320">
    <ele>1829.7</ele>
    <time>2026-06-24T08:11:11Z</time>
   </trkpt>
   <trkpt lat="-3.2111020" lon="37.3433230">
    <ele>1829.4</ele>
    <time>2026-06-24T08:11:12Z</time>
   </trkpt>
   <trkpt lat="-3.2111120" lon="37.3433110">
    <ele>1829.1</ele>
    <time>2026-06-24T08:11:13Z</time>
   </trkpt>
   <trkpt lat="-3.2111180" lon="37.3433060">
    <ele>1829.0</ele>
    <time>2026-06-24T08:11:14Z</time>
   </trkpt>
   <trkpt lat="-3.2111280" lon="37.3432980">
    <ele>1828.8</ele>
    <time>2026-06-24T08:11:15Z</time>
   </trkpt>
   <trkpt lat="-3.2111340" lon="37.3432920">
    <ele>1828.6</ele>
    <time>2026-06-24T08:11:16Z</time>
   </trkpt>
   <trkpt lat="-3.2111400" lon="37.3432900">
    <ele>1828.5</ele>
    <time>2026-06-24T08:11:17Z</time>
   </trkpt>
   <trkpt lat="-3.2111510" lon="37.3432830">
    <ele>1828.3</ele>
    <time>2026-06-24T08:11:18Z</time>
   </trkpt>
   <trkpt lat="-3.2111560" lon="37.3432720">
    <ele>1828.1</ele>
    <time>2026-06-24T08:11:19Z</time>
   </trkpt>
   <trkpt lat="-3.2111590" lon="37.3432630">
    <ele>1827.9</ele>
    <time>2026-06-24T08:11:20Z</time>
   </trkpt>
   <trkpt lat="-3.2111670" lon="37.3432590">
    <ele>1827.7</ele>
    <time>2026-06-24T08:11:21Z</time>
   </trkpt>
   <trkpt lat="-3.2111760" lon="37.3432490">
    <ele>1827.5</ele>
    <time>2026-06-24T08:11:22Z</time>
   </trkpt>
   <trkpt lat="-3.2111820" lon="37.3432360">
    <ele>1827.2</ele>
    <time>2026-06-24T08:11:23Z</time>
   </trkpt>
   <trkpt lat="-3.2111860" lon="37.3432270">
    <ele>1827.1</ele>
    <time>2026-06-24T08:11:24Z</time>
   </trkpt>
   <trkpt lat="-3.2111910" lon="37.3432230">
    <ele>1827.0</ele>
    <time>2026-06-24T08:11:25Z</time>
   </trkpt>
   <trkpt lat="-3.2111970" lon="37.3432130">
    <ele>1826.7</ele>
    <time>2026-06-24T08:11:26Z</time>
   </trkpt>
   <trkpt lat="-3.2112070" lon="37.3432060">
    <ele>1826.5</ele>
    <time>2026-06-24T08:11:27Z</time>
   </trkpt>
   <trkpt lat="-3.2112160" lon="37.3431990">
    <ele>1826.3</ele>
    <time>2026-06-24T08:11:28Z</time>
   </trkpt>
   <trkpt lat="-3.2112200" lon="37.3431860">
    <ele>1826.1</ele>
    <time>2026-06-24T08:11:29Z</time>
   </trkpt>
   <trkpt lat="-3.2112270" lon="37.3431780">
    <ele>1825.9</ele>
    <time>2026-06-24T08:11:30Z</time>
   </trkpt>
   <trkpt lat="-3.2112340" lon="37.3431750">
    <ele>1825.8</ele>
    <time>2026-06-24T08:11:31Z</time>
   </trkpt>
   <trkpt lat="-3.2112420" lon="37.3431670">
    <ele>1825.6</ele>
    <time>2026-06-24T08:11:32Z</time>
   </trkpt>
   <trkpt lat="-3.2112550" lon="37.3431650">
    <ele>1825.3</ele>
    <time>2026-06-24T08:11:33Z</time>
   </trkpt>
   <trkpt lat="-3.2112620" lon="37.3431570">
    <ele>1825.1</ele>
    <time>2026-06-24T08:11:34Z</time>
   </trkpt>
   <trkpt lat="-3.2112660" lon="37.3431500">
    <ele>1825.0</ele>
    <time>2026-06-24T08:11:35Z</time>
   </trkpt>
   <trkpt lat="-3.2112780" lon="37.3431410">
    <ele>1824.7</ele>
    <time>2026-06-24T08:11:36Z</time>
   </trkpt>
   <trkpt lat="-3.2112820" lon="37.3431360">
    <ele>1824.6</ele>
    <time>2026-06-24T08:11:37Z</time>
   </trkpt>
   <trkpt lat="-3.2112970" lon="37.3431300">
    <ele>1824.3</ele>
    <time>2026-06-24T08:11:38Z</time>
   </trkpt>
   <trkpt lat="-3.2112990" lon="37.3431260">
    <ele>1824.3</ele>
    <time>2026-06-24T08:11:39Z</time>
   </trkpt>
   <trkpt lat="-3.2113000" lon="37.3431220">
    <ele>1824.2</ele>
    <time>2026-06-24T08:11:40Z</time>
   </trkpt>
   <trkpt lat="-3.2113120" lon="37.3431110">
    <ele>1823.9</ele>
    <time>2026-06-24T08:11:41Z</time>
   </trkpt>
   <trkpt lat="-3.2113210" lon="37.3431020">
    <ele>1823.7</ele>
    <time>2026-06-24T08:11:42Z</time>
   </trkpt>
   <trkpt lat="-3.2113290" lon="37.3430910">
    <ele>1823.5</ele>
    <time>2026-06-24T08:11:43Z</time>
   </trkpt>
   <trkpt lat="-3.2113440" lon="37.3430790">
    <ele>1823.2</ele>
    <time>2026-06-24T08:11:44Z</time>
   </trkpt>
   <trkpt lat="-3.2113440" lon="37.3430730">
    <ele>1823.1</ele>
    <time>2026-06-24T08:11:45Z</time>
   </trkpt>
   <trkpt lat="-3.2113520" lon="37.3430650">
    <ele>1822.9</ele>
    <time>2026-06-24T08:11:46Z</time>
   </trkpt>
   <trkpt lat="-3.2113560" lon="37.3430600">
    <ele>1822.8</ele>
    <time>2026-06-24T08:11:47Z</time>
   </trkpt>
   <trkpt lat="-3.2113650" lon="37.3430490">
    <ele>1822.6</ele>
    <time>2026-06-24T08:11:48Z</time>
   </trkpt>
   <trkpt lat="-3.2113700" lon="37.3430450">
    <ele>1822.5</ele>
    <time>2026-06-24T08:11:49Z</time>
   </trkpt>
   <trkpt lat="-3.2113780" lon="37.3430400">
    <ele>1822.3</ele>
    <time>2026-06-24T08:11:50Z</time>
   </trkpt>
   <trkpt lat="-3.2113840" lon="37.3430370">
    <ele>1822.2</ele>
    <time>2026-06-24T08:11:51Z</time>
   </trkpt>
   <trkpt lat="-3.2113940" lon="37.3430290">
    <ele>1822.0</ele>
    <time>2026-06-24T08:11:52Z</time>
   </trkpt>
   <trkpt lat="-3.2113980" lon="37.3430200">
    <ele>1821.9</ele>
    <time>2026-06-24T08:11:53Z</time>
   </trkpt>
   <trkpt lat="-3.2114110" lon="37.3430100">
    <ele>1821.6</ele>
    <time>2026-06-24T08:11:54Z</time>
   </trkpt>
   <trkpt lat="-3.2114150" lon="37.3430000">
    <ele>1821.5</ele>
    <time>2026-06-24T08:11:55Z</time>
   </trkpt>
   <trkpt lat="-3.2114180" lon="37.3429920">
    <ele>1821.3</ele>
    <time>2026-06-24T08:11:56Z</time>
   </trkpt>
   <trkpt lat="-3.2114200" lon="37.3429860">
    <ele>1821.2</ele>
    <time>2026-06-24T08:11:57Z</time>
   </trkpt>
   <trkpt lat="-3.2114290" lon="37.3429760">
    <ele>1821.0</ele>
    <time>2026-06-24T08:11:58Z</time>
   </trkpt>
   <trkpt lat="-3.2114310" lon="37.3429700">
    <ele>1820.9</ele>
    <time>2026-06-24T08:11:59Z</time>
   </trkpt>
   <trkpt lat="-3.2114320" lon="37.3429650">
    <ele>1820.9</ele>
    <time>2026-06-24T08:12:00Z</time>
   </trkpt>
   <trkpt lat="-3.2114350" lon="37.3429580">
    <ele>1820.7</ele>
    <time>2026-06-24T08:12:01Z</time>
   </trkpt>
   <trkpt lat="-3.2114440" lon="37.3429500">
    <ele>1820.6</ele>
    <time>2026-06-24T08:12:02Z</time>
   </trkpt>
   <trkpt lat="-3.2114570" lon="37.3429350">
    <ele>1820.3</ele>
    <time>2026-06-24T08:12:03Z</time>
   </trkpt>
   <trkpt lat="-3.2114600" lon="37.3429250">
    <ele>1820.1</ele>
    <time>2026-06-24T08:12:04Z</time>
   </trkpt>
   <trkpt lat="-3.2114610" lon="37.3429050">
    <ele>1819.8</ele>
    <time>2026-06-24T08:12:05Z</time>
   </trkpt>
   <trkpt lat="-3.2114670" lon="37.3429030">
    <ele>1819.7</ele>
    <time>2026-06-24T08:12:06Z</time>
   </trkpt>
   <trkpt lat="-3.2114780" lon="37.3428950">
    <ele>1819.5</ele>
    <time>2026-06-24T08:12:07Z</time>
   </trkpt>
   <trkpt lat="-3.2114880" lon="37.3428840">
    <ele>1819.3</ele>
    <time>2026-06-24T08:12:08Z</time>
   </trkpt>
   <trkpt lat="-3.2115000" lon="37.3428670">
    <ele>1819.0</ele>
    <time>2026-06-24T08:12:09Z</time>
   </trkpt>
   <trkpt lat="-3.2115130" lon="37.3428500">
    <ele>1818.7</ele>
    <time>2026-06-24T08:12:10Z</time>
   </trkpt>
   <trkpt lat="-3.2115220" lon="37.3428340">
    <ele>1818.4</ele>
    <time>2026-06-24T08:12:11Z</time>
   </trkpt>
   <trkpt lat="-3.2115260" lon="37.3428320">
    <ele>1818.4</ele>
    <time>2026-06-24T08:12:12Z</time>
   </trkpt>
   <trkpt lat="-3.2115340" lon="37.3428260">
    <ele>1818.2</ele>
    <time>2026-06-24T08:12:13Z</time>
   </trkpt>
   <trkpt lat="-3.2115470" lon="37.3428190">
    <ele>1818.0</ele>
    <time>2026-06-24T08:12:14Z</time>
   </trkpt>
   <trkpt lat="-3.2115540" lon="37.3428120">
    <ele>1817.9</ele>
    <time>2026-06-24T08:12:15Z</time>
   </trkpt>
   <trkpt lat="-3.2115630" lon="37.3428010">
    <ele>1817.7</ele>
    <time>2026-06-24T08:12:16Z</time>
   </trkpt>
   <trkpt lat="-3.2115720" lon="37.3427940">
    <ele>1817.5</ele>
    <time>2026-06-24T08:12:17Z</time>
   </trkpt>
   <trkpt lat="-3.2115840" lon="37.3427910">
    <ele>1817.3</ele>
    <time>2026-06-24T08:12:18Z</time>
   </trkpt>
   <trkpt lat="-3.2115940" lon="37.3427870">
    <ele>1817.2</ele>
    <time>2026-06-24T08:12:19Z</time>
   </trkpt>
   <trkpt lat="-3.2116060" lon="37.3427840">
    <ele>1817.0</ele>
    <time>2026-06-24T08:12:20Z</time>
   </trkpt>
   <trkpt lat="-3.2116130" lon="37.3427800">
    <ele>1816.9</ele>
    <time>2026-06-24T08:12:21Z</time>
   </trkpt>
   <trkpt lat="-3.2116230" lon="37.3427740">
    <ele>1816.7</ele>
    <time>2026-06-24T08:12:22Z</time>
   </trkpt>
   <trkpt lat="-3.2116340" lon="37.3427670">
    <ele>1816.5</ele>
    <time>2026-06-24T08:12:23Z</time>
   </trkpt>
   <trkpt lat="-3.2116410" lon="37.3427610">
    <ele>1816.4</ele>
    <time>2026-06-24T08:12:24Z</time>
   </trkpt>
   <trkpt lat="-3.2116520" lon="37.3427510">
    <ele>1816.2</ele>
    <time>2026-06-24T08:12:25Z</time>
   </trkpt>
   <trkpt lat="-3.2116640" lon="37.3427390">
    <ele>1815.9</ele>
    <time>2026-06-24T08:12:26Z</time>
   </trkpt>
   <trkpt lat="-3.2116740" lon="37.3427310">
    <ele>1815.7</ele>
    <time>2026-06-24T08:12:27Z</time>
   </trkpt>
   <trkpt lat="-3.2116810" lon="37.3427240">
    <ele>1815.6</ele>
    <time>2026-06-24T08:12:28Z</time>
   </trkpt>
   <trkpt lat="-3.2116950" lon="37.3427150">
    <ele>1815.3</ele>
    <time>2026-06-24T08:12:29Z</time>
   </trkpt>
   <trkpt lat="-3.2117060" lon="37.3427020">
    <ele>1815.1</ele>
    <time>2026-06-24T08:12:30Z</time>
   </trkpt>
   <trkpt lat="-3.2117140" lon="37.3426950">
    <ele>1814.9</ele>
    <time>2026-06-24T08:12:31Z</time>
   </trkpt>
   <trkpt lat="-3.2117270" lon="37.3426800">
    <ele>1814.6</ele>
    <time>2026-06-24T08:12:32Z</time>
   </trkpt>
   <trkpt lat="-3.2117370" lon="37.3426740">
    <ele>1814.5</ele>
    <time>2026-06-24T08:12:33Z</time>
   </trkpt>
   <trkpt lat="-3.2117450" lon="37.3426700">
    <ele>1814.3</ele>
    <time>2026-06-24T08:12:34Z</time>
   </trkpt>
   <trkpt lat="-3.2117490" lon="37.3426620">
    <ele>1814.2</ele>
    <time>2026-06-24T08:12:35Z</time>
   </trkpt>
   <trkpt lat="-3.2117530" lon="37.3426540">
    <ele>1814.0</ele>
    <time>2026-06-24T08:12:36Z</time>
   </trkpt>
   <trkpt lat="-3.2117600" lon="37.3426460">
    <ele>1813.9</ele>
    <time>2026-06-24T08:12:37Z</time>
   </trkpt>
   <trkpt lat="-3.2117640" lon="37.3426450">
    <ele>1813.8</ele>
    <time>2026-06-24T08:12:38Z</time>
   </trkpt>
   <trkpt lat="-3.2117720" lon="37.3426470">
    <ele>1813.7</ele>
    <time>2026-06-24T08:12:39Z</time>
   </trkpt>
   <trkpt lat="-3.2117740" lon="37.3426480">
    <ele>1813.7</ele>
    <time>2026-06-24T08:12:40Z</time>
   </trkpt>
   <trkpt lat="-3.2117850" lon="37.3426380">
    <ele>1813.4</ele>
    <time>2026-06-24T08:12:41Z</time>
   </trkpt>
   <trkpt lat="-3.2117940" lon="37.3426290">
    <ele>1813.2</ele>
    <time>2026-06-24T08:12:42Z</time>
   </trkpt>
   <trkpt lat="-3.2118020" lon="37.3426270">
    <ele>1813.1</ele>
    <time>2026-06-24T08:12:43Z</time>
   </trkpt>
   <trkpt lat="-3.2118110" lon="37.3426210">
    <ele>1812.9</ele>
    <time>2026-06-24T08:12:44Z</time>
   </trkpt>
   <trkpt lat="-3.2118200" lon="37.3426110">
    <ele>1812.7</ele>
    <time>2026-06-24T08:12:45Z</time>
   </trkpt>
   <trkpt lat="-3.2118270" lon="37.3426040">
    <ele>1812.6</ele>
    <time>2026-06-24T08:12:46Z</time>
   </trkpt>
   <trkpt lat="-3.2118350" lon="37.3425980">
    <ele>1812.4</ele>
    <time>2026-06-24T08:12:47Z</time>
   </trkpt>
   <trkpt lat="-3.2118480" lon="37.3425900">
    <ele>1812.2</ele>
    <time>2026-06-24T08:12:48Z</time>
   </trkpt>
   <trkpt lat="-3.2118570" lon="37.3425840">
    <ele>1812.0</ele>
    <time>2026-06-24T08:12:49Z</time>
   </trkpt>
   <trkpt lat="-3.2118630" lon="37.3425800">
    <ele>1811.9</ele>
    <time>2026-06-24T08:12:50Z</time>
   </trkpt>
   <trkpt lat="-3.2118690" lon="37.3425760">
    <ele>1811.8</ele>
    <time>2026-06-24T08:12:51Z</time>
   </trkpt>
   <trkpt lat="-3.2118800" lon="37.3425750">
    <ele>1811.6</ele>
    <time>2026-06-24T08:12:52Z</time>
   </trkpt>
   <trkpt lat="-3.2118860" lon="37.3425650">
    <ele>1811.5</ele>
    <time>2026-06-24T08:12:53Z</time>
   </trkpt>
   <trkpt lat="-3.2118940" lon="37.3425630">
    <ele>1811.3</ele>
    <time>2026-06-24T08:12:54Z</time>
   </trkpt>
   <trkpt lat="-3.2119030" lon="37.3425590">
    <ele>1811.2</ele>
    <time>2026-06-24T08:12:55Z</time>
   </trkpt>
   <trkpt lat="-3.2119190" lon="37.3425530">
    <ele>1810.9</ele>
    <time>2026-06-24T08:12:56Z</time>
   </trkpt>
   <trkpt lat="-3.2119260" lon="37.3425510">
    <ele>1810.8</ele>
    <time>2026-06-24T08:12:57Z</time>
   </trkpt>
   <trkpt lat="-3.2119250" lon="37.3425440">
    <ele>1810.7</ele>
    <time>2026-06-24T08:12:58Z</time>
   </trkpt>
   <trkpt lat="-3.2119300" lon="37.3425380">
    <ele>1810.6</ele>
    <time>2026-06-24T08:12:59Z</time>
   </trkpt>
   <trkpt lat="-3.2119370" lon="37.3425290">
    <ele>1810.4</ele>
    <time>2026-06-24T08:13:00Z</time>
   </trkpt>
   <trkpt lat="-3.2119500" lon="37.3425230">
    <ele>1810.2</ele>
    <time>2026-06-24T08:13:01Z</time>
   </trkpt>
   <trkpt lat="-3.2119530" lon="37.3425240">
    <ele>1810.1</ele>
    <time>2026-06-24T08:13:02Z</time>
   </trkpt>
   <trkpt lat="-3.2119560" lon="37.3425160">
    <ele>1810.0</ele>
    <time>2026-06-24T08:13:03Z</time>
   </trkpt>
   <trkpt lat="-3.2119580" lon="37.3425060">
    <ele>1809.8</ele>
    <time>2026-06-24T08:13:04Z</time>
   </trkpt>
   <trkpt lat="-3.2119690" lon="37.3424940">
    <ele>1809.6</ele>
    <time>2026-06-24T08:13:05Z</time>
   </trkpt>
   <trkpt lat="-3.2119810" lon="37.3424840">
    <ele>1809.3</ele>
    <time>2026-06-24T08:13:06Z</time>
   </trkpt>
   <trkpt lat="-3.2119880" lon="37.3424770">
    <ele>1809.1</ele>
    <time>2026-06-24T08:13:07Z</time>
   </trkpt>
   <trkpt lat="-3.2119970" lon="37.3424720">
    <ele>1809.0</ele>
    <time>2026-06-24T08:13:08Z</time>
   </trkpt>
   <trkpt lat="-3.2120040" lon="37.3424650">
    <ele>1808.8</ele>
    <time>2026-06-24T08:13:09Z</time>
   </trkpt>
   <trkpt lat="-3.2120110" lon="37.3424610">
    <ele>1808.7</ele>
    <time>2026-06-24T08:13:10Z</time>
   </trkpt>
   <trkpt lat="-3.2120190" lon="37.3424580">
    <ele>1808.6</ele>
    <time>2026-06-24T08:13:11Z</time>
   </trkpt>
   <trkpt lat="-3.2120300" lon="37.3424530">
    <ele>1808.4</ele>
    <time>2026-06-24T08:13:12Z</time>
   </trkpt>
   <trkpt lat="-3.2120430" lon="37.3424470">
    <ele>1808.1</ele>
    <time>2026-06-24T08:13:13Z</time>
   </trkpt>
   <trkpt lat="-3.2120570" lon="37.3424400">
    <ele>1807.9</ele>
    <time>2026-06-24T08:13:14Z</time>
   </trkpt>
   <trkpt lat="-3.2120640" lon="37.3424320">
    <ele>1807.7</ele>
    <time>2026-06-24T08:13:15Z</time>
   </trkpt>
   <trkpt lat="-3.2120660" lon="37.3424370">
    <ele>1807.6</ele>
    <time>2026-06-24T08:13:16Z</time>
   </trkpt>
   <trkpt lat="-3.2120750" lon="37.3424340">
    <ele>1807.5</ele>
    <time>2026-06-24T08:13:17Z</time>
   </trkpt>
   <trkpt lat="-3.2120810" lon="37.3424290">
    <ele>1807.3</ele>
    <time>2026-06-24T08:13:18Z</time>
   </trkpt>
   <trkpt lat="-3.2120900" lon="37.3424250">
    <ele>1807.2</ele>
    <time>2026-06-24T08:13:19Z</time>
   </trkpt>
   <trkpt lat="-3.2120990" lon="37.3424170">
    <ele>1807.0</ele>
    <time>2026-06-24T08:13:20Z</time>
   </trkpt>
   <trkpt lat="-3.2121100" lon="37.3424170">
    <ele>1806.8</ele>
    <time>2026-06-24T08:13:21Z</time>
   </trkpt>
   <trkpt lat="-3.2121170" lon="37.3424130">
    <ele>1806.6</ele>
    <time>2026-06-24T08:13:22Z</time>
   </trkpt>
   <trkpt lat="-3.2121240" lon="37.3424090">
    <ele>1806.5</ele>
    <time>2026-06-24T08:13:23Z</time>
   </trkpt>
   <trkpt lat="-3.2121420" lon="37.3423990">
    <ele>1806.1</ele>
    <time>2026-06-24T08:13:24Z</time>
   </trkpt>
   <trkpt lat="-3.2121490" lon="37.3423900">
    <ele>1805.9</ele>
    <time>2026-06-24T08:13:25Z</time>
   </trkpt>
   <trkpt lat="-3.2121490" lon="37.3423910">
    <ele>1805.9</ele>
    <time>2026-06-24T08:13:26Z</time>
   </trkpt>
   <trkpt lat="-3.2121490" lon="37.3423920">
    <ele>1805.9</ele>
    <time>2026-06-24T08:13:27Z</time>
   </trkpt>
   <trkpt lat="-3.2121560" lon="37.3423930">
    <ele>1805.8</ele>
    <time>2026-06-24T08:13:28Z</time>
   </trkpt>
   <trkpt lat="-3.2121680" lon="37.3423850">
    <ele>1805.5</ele>
    <time>2026-06-24T08:13:29Z</time>
   </trkpt>
   <trkpt lat="-3.2121740" lon="37.3423830">
    <ele>1805.4</ele>
    <time>2026-06-24T08:13:30Z</time>
   </trkpt>
   <trkpt lat="-3.2121900" lon="37.3423730">
    <ele>1805.1</ele>
    <time>2026-06-24T08:13:31Z</time>
   </trkpt>
   <trkpt lat="-3.2122030" lon="37.3423750">
    <ele>1804.9</ele>
    <time>2026-06-24T08:13:32Z</time>
   </trkpt>
   <trkpt lat="-3.2122050" lon="37.3423730">
    <ele>1804.8</ele>
    <time>2026-06-24T08:13:33Z</time>
   </trkpt>
   <trkpt lat="-3.2122150" lon="37.3423690">
    <ele>1804.6</ele>
    <time>2026-06-24T08:13:34Z</time>
   </trkpt>
   <trkpt lat="-3.2122280" lon="37.3423640">
    <ele>1804.4</ele>
    <time>2026-06-24T08:13:35Z</time>
   </trkpt>
   <trkpt lat="-3.2122390" lon="37.3423560">
    <ele>1804.2</ele>
    <time>2026-06-24T08:13:36Z</time>
   </trkpt>
   <trkpt lat="-3.2122490" lon="37.3423480">
    <ele>1804.0</ele>
    <time>2026-06-24T08:13:37Z</time>
   </trkpt>
   <trkpt lat="-3.2122620" lon="37.3423380">
    <ele>1803.7</ele>
    <time>2026-06-24T08:13:38Z</time>
   </trkpt>
   <trkpt lat="-3.2122730" lon="37.3423310">
    <ele>1803.5</ele>
    <time>2026-06-24T08:13:39Z</time>
   </trkpt>
   <trkpt lat="-3.2122810" lon="37.3423270">
    <ele>1803.3</ele>
    <time>2026-06-24T08:13:40Z</time>
   </trkpt>
   <trkpt lat="-3.2122950" lon="37.3423200">
    <ele>1803.1</ele>
    <time>2026-06-24T08:13:41Z</time>
   </trkpt>
   <trkpt lat="-3.2123010" lon="37.3423130">
    <ele>1802.9</ele>
    <time>2026-06-24T08:13:42Z</time>
   </trkpt>
   <trkpt lat="-3.2123080" lon="37.3423060">
    <ele>1802.8</ele>
    <time>2026-06-24T08:13:43Z</time>
   </trkpt>
   <trkpt lat="-3.2123180" lon="37.3423050">
    <ele>1802.6</ele>
    <time>2026-06-24T08:13:44Z</time>
   </trkpt>
   <trkpt lat="-3.2123260" lon="37.3423030">
    <ele>1802.5</ele>
    <time>2026-06-24T08:13:45Z</time>
   </trkpt>
   <trkpt lat="-3.2123320" lon="37.3422980">
    <ele>1802.4</ele>
    <time>2026-06-24T08:13:46Z</time>
   </trkpt>
   <trkpt lat="-3.2123520" lon="37.3422910">
    <ele>1802.0</ele>
    <time>2026-06-24T08:13:47Z</time>
   </trkpt>
   <trkpt lat="-3.2123620" lon="37.3422840">
    <ele>1801.8</ele>
    <time>2026-06-24T08:13:48Z</time>
   </trkpt>
   <trkpt lat="-3.2123740" lon="37.3422800">
    <ele>1801.6</ele>
    <time>2026-06-24T08:13:49Z</time>
   </trkpt>
   <trkpt lat="-3.2123880" lon="37.3422750">
    <ele>1801.4</ele>
    <time>2026-06-24T08:13:50Z</time>
   </trkpt>
   <trkpt lat="-3.2123950" lon="37.3422650">
    <ele>1801.2</ele>
    <time>2026-06-24T08:13:51Z</time>
   </trkpt>
   <trkpt lat="-3.2124070" lon="37.3422580">
    <ele>1801.0</ele>
    <time>2026-06-24T08:13:52Z</time>
   </trkpt>
   <trkpt lat="-3.2124120" lon="37.3422530">
    <ele>1800.9</ele>
    <time>2026-06-24T08:13:53Z</time>
   </trkpt>
   <trkpt lat="-3.2124230" lon="37.3422520">
    <ele>1800.7</ele>
    <time>2026-06-24T08:13:54Z</time>
   </trkpt>
   <trkpt lat="-3.2124350" lon="37.3422480">
    <ele>1800.5</ele>
    <time>2026-06-24T08:13:55Z</time>
   </trkpt>
   <trkpt lat="-3.2124470" lon="37.3422470">
    <ele>1800.4</ele>
    <time>2026-06-24T08:13:56Z</time>
   </trkpt>
   <trkpt lat="-3.2124530" lon="37.3422430">
    <ele>1800.3</ele>
    <time>2026-06-24T08:13:57Z</time>
   </trkpt>
   <trkpt lat="-3.2124630" lon="37.3422400">
    <ele>1800.1</ele>
    <time>2026-06-24T08:13:58Z</time>
   </trkpt>
   <trkpt lat="-3.2124720" lon="37.3422370">
    <ele>1799.9</ele>
    <time>2026-06-24T08:13:59Z</time>
   </trkpt>
   <trkpt lat="-3.2124810" lon="37.3422360">
    <ele>1799.8</ele>
    <time>2026-06-24T08:14:00Z</time>
   </trkpt>
   <trkpt lat="-3.2124870" lon="37.3422290">
    <ele>1799.7</ele>
    <time>2026-06-24T08:14:01Z</time>
   </trkpt>
   <trkpt lat="-3.2124960" lon="37.3422220">
    <ele>1799.5</ele>
    <time>2026-06-24T08:14:02Z</time>
   </trkpt>
   <trkpt lat="-3.2125040" lon="37.3422190">
    <ele>1799.4</ele>
    <time>2026-06-24T08:14:03Z</time>
   </trkpt>
   <trkpt lat="-3.2125150" lon="37.3422130">
    <ele>1799.2</ele>
    <time>2026-06-24T08:14:04Z</time>
   </trkpt>
   <trkpt lat="-3.2125200" lon="37.3422110">
    <ele>1799.1</ele>
    <time>2026-06-24T08:14:05Z</time>
   </trkpt>
   <trkpt lat="-3.2125290" lon="37.3422090">
    <ele>1798.9</ele>
    <time>2026-06-24T08:14:06Z</time>
   </trkpt>
   <trkpt lat="-3.2125340" lon="37.3422040">
    <ele>1798.8</ele>
    <time>2026-06-24T08:14:07Z</time>
   </trkpt>
   <trkpt lat="-3.2125470" lon="37.3421970">
    <ele>1798.6</ele>
    <time>2026-06-24T08:14:08Z</time>
   </trkpt>
   <trkpt lat="-3.2125590" lon="37.3421900">
    <ele>1798.4</ele>
    <time>2026-06-24T08:14:09Z</time>
   </trkpt>
   <trkpt lat="-3.2125700" lon="37.3421850">
    <ele>1798.2</ele>
    <time>2026-06-24T08:14:10Z</time>
   </trkpt>
   <trkpt lat="-3.2125770" lon="37.3421830">
    <ele>1798.1</ele>
    <time>2026-06-24T08:14:11Z</time>
   </trkpt>
   <trkpt lat="-3.2125820" lon="37.3421770">
    <ele>1798.0</ele>
    <time>2026-06-24T08:14:12Z</time>
   </trkpt>
   <trkpt lat="-3.2125890" lon="37.3421680">
    <ele>1797.8</ele>
    <time>2026-06-24T08:14:13Z</time>
   </trkpt>
   <trkpt lat="-3.2126000" lon="37.3421610">
    <ele>1797.6</ele>
    <time>2026-06-24T08:14:14Z</time>
   </trkpt>
   <trkpt lat="-3.2126090" lon="37.3421540">
    <ele>1797.4</ele>
    <time>2026-06-24T08:14:15Z</time>
   </trkpt>
   <trkpt lat="-3.2126160" lon="37.3421500">
    <ele>1797.3</ele>
    <time>2026-06-24T08:14:16Z</time>
   </trkpt>
   <trkpt lat="-3.2126220" lon="37.3421410">
    <ele>1797.1</ele>
    <time>2026-06-24T08:14:17Z</time>
   </trkpt>
   <trkpt lat="-3.2126280" lon="37.3421320">
    <ele>1796.9</ele>
    <time>2026-06-24T08:14:18Z</time>
   </trkpt>
   <trkpt lat="-3.2126400" lon="37.3421220">
    <ele>1796.7</ele>
    <time>2026-06-24T08:14:19Z</time>
   </trkpt>
   <trkpt lat="-3.2126500" lon="37.3421160">
    <ele>1796.5</ele>
    <time>2026-06-24T08:14:20Z</time>
   </trkpt>
   <trkpt lat="-3.2126620" lon="37.3421050">
    <ele>1796.3</ele>
    <time>2026-06-24T08:14:21Z</time>
   </trkpt>
   <trkpt lat="-3.2126750" lon="37.3421010">
    <ele>1796.0</ele>
    <time>2026-06-24T08:14:22Z</time>
   </trkpt>
   <trkpt lat="-3.2126910" lon="37.3420910">
    <ele>1795.7</ele>
    <time>2026-06-24T08:14:23Z</time>
   </trkpt>
   <trkpt lat="-3.2126990" lon="37.3420900">
    <ele>1795.6</ele>
    <time>2026-06-24T08:14:24Z</time>
   </trkpt>
   <trkpt lat="-3.2127080" lon="37.3420920">
    <ele>1795.5</ele>
    <time>2026-06-24T08:14:25Z</time>
   </trkpt>
   <trkpt lat="-3.2127210" lon="37.3420920">
    <ele>1795.3</ele>
    <time>2026-06-24T08:14:26Z</time>
   </trkpt>
   <trkpt lat="-3.2127390" lon="37.3420910">
    <ele>1795.0</ele>
    <time>2026-06-24T08:14:27Z</time>
   </trkpt>
   <trkpt lat="-3.2127500" lon="37.3420870">
    <ele>1794.8</ele>
    <time>2026-06-24T08:14:28Z</time>
   </trkpt>
   <trkpt lat="-3.2127580" lon="37.3420790">
    <ele>1794.6</ele>
    <time>2026-06-24T08:14:29Z</time>
   </trkpt>
   <trkpt lat="-3.2127660" lon="37.3420720">
    <ele>1794.4</ele>
    <time>2026-06-24T08:14:30Z</time>
   </trkpt>
   <trkpt lat="-3.2127720" lon="37.3420670">
    <ele>1794.3</ele>
    <time>2026-06-24T08:14:31Z</time>
   </trkpt>
   <trkpt lat="-3.2127780" lon="37.3420630">
    <ele>1794.2</ele>
    <time>2026-06-24T08:14:32Z</time>
   </trkpt>
   <trkpt lat="-3.2127850" lon="37.3420580">
    <ele>1794.1</ele>
    <time>2026-06-24T08:14:33Z</time>
   </trkpt>
   <trkpt lat="-3.2127930" lon="37.3420540">
    <ele>1793.9</ele>
    <time>2026-06-24T08:14:34Z</time>
   </trkpt>
   <trkpt lat="-3.2128010" lon="37.3420470">
    <ele>1793.8</ele>
    <time>2026-06-24T08:14:35Z</time>
   </trkpt>
   <trkpt lat="-3.2128100" lon="37.3420410">
    <ele>1793.6</ele>
    <time>2026-06-24T08:14:36Z</time>
   </trkpt>
   <trkpt lat="-3.2128190" lon="37.3420330">
    <ele>1793.4</ele>
    <time>2026-06-24T08:14:37Z</time>
   </trkpt>
   <trkpt lat="-3.2128310" lon="37.3420290">
    <ele>1793.2</ele>
    <time>2026-06-24T08:14:38Z</time>
   </trkpt>
   <trkpt lat="-3.2128390" lon="37.3420240">
    <ele>1793.1</ele>
    <time>2026-06-24T08:14:39Z</time>
   </trkpt>
   <trkpt lat="-3.2128490" lon="37.3420190">
    <ele>1792.9</ele>
    <time>2026-06-24T08:14:40Z</time>
   </trkpt>
   <trkpt lat="-3.2128600" lon="37.3420130">
    <ele>1792.7</ele>
    <time>2026-06-24T08:14:41Z</time>
   </trkpt>
   <trkpt lat="-3.2128740" lon="37.3420060">
    <ele>1792.5</ele>
    <time>2026-06-24T08:14:42Z</time>
   </trkpt>
   <trkpt lat="-3.2128880" lon="37.3420030">
    <ele>1792.3</ele>
    <time>2026-06-24T08:14:43Z</time>
   </trkpt>
   <trkpt lat="-3.2128970" lon="37.3420030">
    <ele>1792.1</ele>
    <time>2026-06-24T08:14:44Z</time>
   </trkpt>
   <trkpt lat="-3.2129080" lon="37.3420000">
    <ele>1791.9</ele>
    <time>2026-06-24T08:14:45Z</time>
   </trkpt>
   <trkpt lat="-3.2129130" lon="37.3419970">
    <ele>1791.9</ele>
    <time>2026-06-24T08:14:46Z</time>
   </trkpt>
   <trkpt lat="-3.2129270" lon="37.3419910">
    <ele>1791.6</ele>
    <time>2026-06-24T08:14:47Z</time>
   </trkpt>
   <trkpt lat="-3.2129340" lon="37.3419880">
    <ele>1791.5</ele>
    <time>2026-06-24T08:14:48Z</time>
   </trkpt>
   <trkpt lat="-3.2129400" lon="37.3419770">
    <ele>1791.3</ele>
    <time>2026-06-24T08:14:49Z</time>
   </trkpt>
   <trkpt lat="-3.2129450" lon="37.3419740">
    <ele>1791.2</ele>
    <time>2026-06-24T08:14:50Z</time>
   </trkpt>
   <trkpt lat="-3.2129540" lon="37.3419700">
    <ele>1791.1</ele>
    <time>2026-06-24T08:14:51Z</time>
   </trkpt>
   <trkpt lat="-3.2129670" lon="37.3419690">
    <ele>1790.9</ele>
    <time>2026-06-24T08:14:52Z</time>
   </trkpt>
   <trkpt lat="-3.2129740" lon="37.3419640">
    <ele>1790.8</ele>
    <time>2026-06-24T08:14:53Z</time>
   </trkpt>
   <trkpt lat="-3.2129770" lon="37.3419620">
    <ele>1790.7</ele>
    <time>2026-06-24T08:14:54Z</time>
   </trkpt>
   <trkpt lat="-3.2129790" lon="37.3419610">
    <ele>1790.7</ele>
    <time>2026-06-24T08:14:55Z</time>
   </trkpt>
   <trkpt lat="-3.2129820" lon="37.3419610">
    <ele>1790.6</ele>
    <time>2026-06-24T08:14:56Z</time>
   </trkpt>
   <trkpt lat="-3.2129970" lon="37.3419570">
    <ele>1790.4</ele>
    <time>2026-06-24T08:14:57Z</time>
   </trkpt>
   <trkpt lat="-3.2130070" lon="37.3419580">
    <ele>1790.3</ele>
    <time>2026-06-24T08:14:58Z</time>
   </trkpt>
   <trkpt lat="-3.2130130" lon="37.3419660">
    <ele>1790.1</ele>
    <time>2026-06-24T08:14:59Z</time>
   </trkpt>
   <trkpt lat="-3.2130220" lon="37.3419600">
    <ele>1790.0</ele>
    <time>2026-06-24T08:15:00Z</time>
   </trkpt>
   <trkpt lat="-3.2130360" lon="37.3419520">
    <ele>1789.7</ele>
    <time>2026-06-24T08:15:01Z</time>
   </trkpt>
   <trkpt lat="-3.2130490" lon="37.3419480">
    <ele>1789.6</ele>
    <time>2026-06-24T08:15:02Z</time>
   </trkpt>
   <trkpt lat="-3.2130560" lon="37.3419470">
    <ele>1789.5</ele>
    <time>2026-06-24T08:15:03Z</time>
   </trkpt>
   <trkpt lat="-3.2130650" lon="37.3419480">
    <ele>1789.3</ele>
    <time>2026-06-24T08:15:04Z</time>
   </trkpt>
   <trkpt lat="-3.2130760" lon="37.3419460">
    <ele>1789.2</ele>
    <time>2026-06-24T08:15:05Z</time>
   </trkpt>
   <trkpt lat="-3.2130830" lon="37.3419430">
    <ele>1789.1</ele>
    <time>2026-06-24T08:15:06Z</time>
   </trkpt>
   <trkpt lat="-3.2131030" lon="37.3419360">
    <ele>1788.8</ele>
    <time>2026-06-24T08:15:07Z</time>
   </trkpt>
   <trkpt lat="-3.2131150" lon="37.3419330">
    <ele>1788.7</ele>
    <time>2026-06-24T08:15:08Z</time>
   </trkpt>
   <trkpt lat="-3.2131230" lon="37.3419260">
    <ele>1788.6</ele>
    <time>2026-06-24T08:15:09Z</time>
   </trkpt>
   <trkpt lat="-3.2131330" lon="37.3419210">
    <ele>1788.4</ele>
    <time>2026-06-24T08:15:10Z</time>
   </trkpt>
   <trkpt lat="-3.2131450" lon="37.3419100">
    <ele>1788.2</ele>
    <time>2026-06-24T08:15:11Z</time>
   </trkpt>
   <trkpt lat="-3.2131480" lon="37.3419050">
    <ele>1788.2</ele>
    <time>2026-06-24T08:15:12Z</time>
   </trkpt>
   <trkpt lat="-3.2131600" lon="37.3419030">
    <ele>1788.0</ele>
    <time>2026-06-24T08:15:13Z</time>
   </trkpt>
   <trkpt lat="-3.2131740" lon="37.3418970">
    <ele>1787.8</ele>
    <time>2026-06-24T08:15:14Z</time>
   </trkpt>
   <trkpt lat="-3.2131840" lon="37.3418920">
    <ele>1787.7</ele>
    <time>2026-06-24T08:15:16Z</time>
   </trkpt>
   <trkpt lat="-3.2131910" lon="37.3418780">
    <ele>1787.5</ele>
    <time>2026-06-24T08:15:17Z</time>
   </trkpt>
   <trkpt lat="-3.2132010" lon="37.3418670">
    <ele>1787.4</ele>
    <time>2026-06-24T08:15:18Z</time>
   </trkpt>
   <trkpt lat="-3.2132090" lon="37.3418580">
    <ele>1787.2</ele>
    <time>2026-06-24T08:15:19Z</time>
   </trkpt>
   <trkpt lat="-3.2132390" lon="37.3418380">
    <ele>1786.8</ele>
    <time>2026-06-24T08:15:20Z</time>
   </trkpt>
   <trkpt lat="-3.2132540" lon="37.3418280">
    <ele>1786.6</ele>
    <time>2026-06-24T08:15:21Z</time>
   </trkpt>
   <trkpt lat="-3.2132660" lon="37.3418170">
    <ele>1786.4</ele>
    <time>2026-06-24T08:15:22Z</time>
   </trkpt>
   <trkpt lat="-3.2132710" lon="37.3418140">
    <ele>1786.3</ele>
    <time>2026-06-24T08:15:23Z</time>
   </trkpt>
   <trkpt lat="-3.2132830" lon="37.3418140">
    <ele>1786.2</ele>
    <time>2026-06-24T08:15:24Z</time>
   </trkpt>
   <trkpt lat="-3.2132940" lon="37.3418130">
    <ele>1786.0</ele>
    <time>2026-06-24T08:15:25Z</time>
   </trkpt>
   <trkpt lat="-3.2133060" lon="37.3418100">
    <ele>1785.8</ele>
    <time>2026-06-24T08:15:26Z</time>
   </trkpt>
   <trkpt lat="-3.2133150" lon="37.3418030">
    <ele>1785.7</ele>
    <time>2026-06-24T08:15:27Z</time>
   </trkpt>
   <trkpt lat="-3.2133300" lon="37.3417950">
    <ele>1785.5</ele>
    <time>2026-06-24T08:15:28Z</time>
   </trkpt>
   <trkpt lat="-3.2133390" lon="37.3417840">
    <ele>1785.3</ele>
    <time>2026-06-24T08:15:29Z</time>
   </trkpt>
   <trkpt lat="-3.2133510" lon="37.3417760">
    <ele>1785.1</ele>
    <time>2026-06-24T08:15:30Z</time>
   </trkpt>
   <trkpt lat="-3.2133590" lon="37.3417740">
    <ele>1785.0</ele>
    <time>2026-06-24T08:15:31Z</time>
   </trkpt>
   <trkpt lat="-3.2133640" lon="37.3417670">
    <ele>1784.9</ele>
    <time>2026-06-24T08:15:32Z</time>
   </trkpt>
   <trkpt lat="-3.2133750" lon="37.3417580">
    <ele>1784.7</ele>
    <time>2026-06-24T08:15:33Z</time>
   </trkpt>
   <trkpt lat="-3.2133860" lon="37.3417510">
    <ele>1784.5</ele>
    <time>2026-06-24T08:15:34Z</time>
   </trkpt>
   <trkpt lat="-3.2133950" lon="37.3417410">
    <ele>1784.3</ele>
    <time>2026-06-24T08:15:35Z</time>
   </trkpt>
   <trkpt lat="-3.2134030" lon="37.3417340">
    <ele>1784.1</ele>
    <time>2026-06-24T08:15:36Z</time>
   </trkpt>
   <trkpt lat="-3.2134110" lon="37.3417280">
    <ele>1784.0</ele>
    <time>2026-06-24T08:15:37Z</time>
   </trkpt>
   <trkpt lat="-3.2134200" lon="37.3417190">
    <ele>1783.8</ele>
    <time>2026-06-24T08:15:38Z</time>
   </trkpt>
   <trkpt lat="-3.2134290" lon="37.3417150">
    <ele>1783.6</ele>
    <time>2026-06-24T08:15:39Z</time>
   </trkpt>
   <trkpt lat="-3.2134380" lon="37.3417120">
    <ele>1783.5</ele>
    <time>2026-06-24T08:15:40Z</time>
   </trkpt>
   <trkpt lat="-3.2134490" lon="37.3417040">
    <ele>1783.2</ele>
    <time>2026-06-24T08:15:41Z</time>
   </trkpt>
   <trkpt lat="-3.2134540" lon="37.3416990">
    <ele>1783.1</ele>
    <time>2026-06-24T08:15:42Z</time>
   </trkpt>
   <trkpt lat="-3.2134610" lon="37.3416920">
    <ele>1783.0</ele>
    <time>2026-06-24T08:15:43Z</time>
   </trkpt>
   <trkpt lat="-3.2134680" lon="37.3416880">
    <ele>1782.8</ele>
    <time>2026-06-24T08:15:44Z</time>
   </trkpt>
   <trkpt lat="-3.2134710" lon="37.3416810">
    <ele>1782.7</ele>
    <time>2026-06-24T08:15:45Z</time>
   </trkpt>
   <trkpt lat="-3.2134760" lon="37.3416730">
    <ele>1782.5</ele>
    <time>2026-06-24T08:15:46Z</time>
   </trkpt>
   <trkpt lat="-3.2134850" lon="37.3416630">
    <ele>1782.3</ele>
    <time>2026-06-24T08:15:47Z</time>
   </trkpt>
   <trkpt lat="-3.2134930" lon="37.3416590">
    <ele>1782.1</ele>
    <time>2026-06-24T08:15:48Z</time>
   </trkpt>
   <trkpt lat="-3.2134950" lon="37.3416570">
    <ele>1782.1</ele>
    <time>2026-06-24T08:15:49Z</time>
   </trkpt>
   <trkpt lat="-3.2135000" lon="37.3416620">
    <ele>1782.0</ele>
    <time>2026-06-24T08:15:50Z</time>
   </trkpt>
   <trkpt lat="-3.2135060" lon="37.3416600">
    <ele>1781.9</ele>
    <time>2026-06-24T08:15:51Z</time>
   </trkpt>
   <trkpt lat="-3.2135170" lon="37.3416540">
    <ele>1781.6</ele>
    <time>2026-06-24T08:15:52Z</time>
   </trkpt>
   <trkpt lat="-3.2135240" lon="37.3416470">
    <ele>1781.4</ele>
    <time>2026-06-24T08:15:53Z</time>
   </trkpt>
   <trkpt lat="-3.2135310" lon="37.3416400">
    <ele>1781.2</ele>
    <time>2026-06-24T08:15:54Z</time>
   </trkpt>
   <trkpt lat="-3.2135340" lon="37.3416320">
    <ele>1781.1</ele>
    <time>2026-06-24T08:15:55Z</time>
   </trkpt>
   <trkpt lat="-3.2135420" lon="37.3416230">
    <ele>1780.8</ele>
    <time>2026-06-24T08:15:56Z</time>
   </trkpt>
   <trkpt lat="-3.2135480" lon="37.3416210">
    <ele>1780.7</ele>
    <time>2026-06-24T08:15:57Z</time>
   </trkpt>
   <trkpt lat="-3.2135600" lon="37.3416190">
    <ele>1780.4</ele>
    <time>2026-06-24T08:15:58Z</time>
   </trkpt>
   <trkpt lat="-3.2135710" lon="37.3416140">
    <ele>1780.2</ele>
    <time>2026-06-24T08:15:59Z</time>
   </trkpt>
   <trkpt lat="-3.2135740" lon="37.3416110">
    <ele>1780.1</ele>
    <time>2026-06-24T08:16:00Z</time>
   </trkpt>
   <trkpt lat="-3.2135760" lon="37.3416040">
    <ele>1779.9</ele>
    <time>2026-06-24T08:16:01Z</time>
   </trkpt>
   <trkpt lat="-3.2135760" lon="37.3415980">
    <ele>1779.8</ele>
    <time>2026-06-24T08:16:02Z</time>
   </trkpt>
   <trkpt lat="-3.2135790" lon="37.3415990">
    <ele>1779.7</ele>
    <time>2026-06-24T08:16:03Z</time>
   </trkpt>
   <trkpt lat="-3.2135900" lon="37.3415900">
    <ele>1779.4</ele>
    <time>2026-06-24T08:16:04Z</time>
   </trkpt>
   <trkpt lat="-3.2136030" lon="37.3415840">
    <ele>1779.1</ele>
    <time>2026-06-24T08:16:05Z</time>
   </trkpt>
   <trkpt lat="-3.2136050" lon="37.3415820">
    <ele>1779.0</ele>
    <time>2026-06-24T08:16:06Z</time>
   </trkpt>
   <trkpt lat="-3.2136080" lon="37.3415740">
    <ele>1778.8</ele>
    <time>2026-06-24T08:16:07Z</time>
   </trkpt>
   <trkpt lat="-3.2136130" lon="37.3415660">
    <ele>1778.6</ele>
    <time>2026-06-24T08:16:08Z</time>
   </trkpt>
   <trkpt lat="-3.2136170" lon="37.3415590">
    <ele>1778.4</ele>
    <time>2026-06-24T08:16:09Z</time>
   </trkpt>
   <trkpt lat="-3.2136190" lon="37.3415570">
    <ele>1778.3</ele>
    <time>2026-06-24T08:16:10Z</time>
   </trkpt>
   <trkpt lat="-3.2136260" lon="37.3415550">
    <ele>1778.1</ele>
    <time>2026-06-24T08:16:11Z</time>
   </trkpt>
   <trkpt lat="-3.2136340" lon="37.3415550">
    <ele>1777.9</ele>
    <time>2026-06-24T08:16:12Z</time>
   </trkpt>
   <trkpt lat="-3.2136410" lon="37.3415460">
    <ele>1777.6</ele>
    <time>2026-06-24T08:16:13Z</time>
   </trkpt>
   <trkpt lat="-3.2136470" lon="37.3415390">
    <ele>1777.4</ele>
    <time>2026-06-24T08:16:14Z</time>
   </trkpt>
   <trkpt lat="-3.2136510" lon="37.3415340">
    <ele>1777.2</ele>
    <time>2026-06-24T08:16:15Z</time>
   </trkpt>
   <trkpt lat="-3.2136520" lon="37.3415330">
    <ele>1777.2</ele>
    <time>2026-06-24T08:16:16Z</time>
   </trkpt>
   <trkpt lat="-3.2136540" lon="37.3415310">
    <ele>1777.1</ele>
    <time>2026-06-24T08:16:17Z</time>
   </trkpt>
   <trkpt lat="-3.2136670" lon="37.3415240">
    <ele>1776.8</ele>
    <time>2026-06-24T08:16:18Z</time>
   </trkpt>
   <trkpt lat="-3.2136620" lon="37.3415170">
    <ele>1776.6</ele>
    <time>2026-06-24T08:16:19Z</time>
   </trkpt>
   <trkpt lat="-3.2136690" lon="37.3415070">
    <ele>1776.3</ele>
    <time>2026-06-24T08:16:20Z</time>
   </trkpt>
   <trkpt lat="-3.2136730" lon="37.3415030">
    <ele>1776.1</ele>
    <time>2026-06-24T08:16:21Z</time>
   </trkpt>
   <trkpt lat="-3.2136760" lon="37.3415000">
    <ele>1776.0</ele>
    <time>2026-06-24T08:16:22Z</time>
   </trkpt>
   <trkpt lat="-3.2136850" lon="37.3414980">
    <ele>1775.8</ele>
    <time>2026-06-24T08:16:23Z</time>
   </trkpt>
   <trkpt lat="-3.2136900" lon="37.3414900">
    <ele>1775.5</ele>
    <time>2026-06-24T08:16:24Z</time>
   </trkpt>
   <trkpt lat="-3.2136900" lon="37.3414840">
    <ele>1775.4</ele>
    <time>2026-06-24T08:16:25Z</time>
   </trkpt>
   <trkpt lat="-3.2136950" lon="37.3414840">
    <ele>1775.3</ele>
    <time>2026-06-24T08:16:26Z</time>
   </trkpt>
   <trkpt lat="-3.2137000" lon="37.3414770">
    <ele>1775.1</ele>
    <time>2026-06-24T08:16:27Z</time>
   </trkpt>
   <trkpt lat="-3.2137030" lon="37.3414710">
    <ele>1774.9</ele>
    <time>2026-06-24T08:16:28Z</time>
   </trkpt>
   <trkpt lat="-3.2137060" lon="37.3414630">
    <ele>1774.7</ele>
    <time>2026-06-24T08:16:29Z</time>
   </trkpt>
   <trkpt lat="-3.2137120" lon="37.3414590">
    <ele>1774.5</ele>
    <time>2026-06-24T08:16:30Z</time>
   </trkpt>
   <trkpt lat="-3.2137190" lon="37.3414530">
    <ele>1774.3</ele>
    <time>2026-06-24T08:16:31Z</time>
   </trkpt>
   <trkpt lat="-3.2137250" lon="37.3414450">
    <ele>1774.1</ele>
    <time>2026-06-24T08:16:32Z</time>
   </trkpt>
   <trkpt lat="-3.2137270" lon="37.3414380">
    <ele>1773.9</ele>
    <time>2026-06-24T08:16:33Z</time>
   </trkpt>
   <trkpt lat="-3.2137310" lon="37.3414280">
    <ele>1773.7</ele>
    <time>2026-06-24T08:16:34Z</time>
   </trkpt>
   <trkpt lat="-3.2137430" lon="37.3414200">
    <ele>1773.3</ele>
    <time>2026-06-24T08:16:35Z</time>
   </trkpt>
   <trkpt lat="-3.2137540" lon="37.3414160">
    <ele>1773.0</ele>
    <time>2026-06-24T08:16:36Z</time>
   </trkpt>
   <trkpt lat="-3.2137590" lon="37.3414080">
    <ele>1772.8</ele>
    <time>2026-06-24T08:16:37Z</time>
   </trkpt>
   <trkpt lat="-3.2137680" lon="37.3413980">
    <ele>1772.5</ele>
    <time>2026-06-24T08:16:38Z</time>
   </trkpt>
   <trkpt lat="-3.2137770" lon="37.3413890">
    <ele>1772.3</ele>
    <time>2026-06-24T08:16:39Z</time>
   </trkpt>
   <trkpt lat="-3.2137830" lon="37.3413840">
    <ele>1772.1</ele>
    <time>2026-06-24T08:16:40Z</time>
   </trkpt>
   <trkpt lat="-3.2137890" lon="37.3413780">
    <ele>1771.9</ele>
    <time>2026-06-24T08:16:41Z</time>
   </trkpt>
   <trkpt lat="-3.2137940" lon="37.3413690">
    <ele>1771.7</ele>
    <time>2026-06-24T08:16:42Z</time>
   </trkpt>
   <trkpt lat="-3.2137980" lon="37.3413600">
    <ele>1771.5</ele>
    <time>2026-06-24T08:16:43Z</time>
   </trkpt>
   <trkpt lat="-3.2138060" lon="37.3413500">
    <ele>1771.2</ele>
    <time>2026-06-24T08:16:44Z</time>
   </trkpt>
   <trkpt lat="-3.2138110" lon="37.3413400">
    <ele>1771.0</ele>
    <time>2026-06-24T08:16:45Z</time>
   </trkpt>
   <trkpt lat="-3.2138160" lon="37.3413370">
    <ele>1770.9</ele>
    <time>2026-06-24T08:16:46Z</time>
   </trkpt>
   <trkpt lat="-3.2138270" lon="37.3413320">
    <ele>1770.6</ele>
    <time>2026-06-24T08:16:47Z</time>
   </trkpt>
   <trkpt lat="-3.2138370" lon="37.3413200">
    <ele>1770.3</ele>
    <time>2026-06-24T08:16:48Z</time>
   </trkpt>
   <trkpt lat="-3.2138430" lon="37.3413120">
    <ele>1770.1</ele>
    <time>2026-06-24T08:16:49Z</time>
   </trkpt>
   <trkpt lat="-3.2138530" lon="37.3413070">
    <ele>1769.9</ele>
    <time>2026-06-24T08:16:50Z</time>
   </trkpt>
   <trkpt lat="-3.2138570" lon="37.3413020">
    <ele>1769.8</ele>
    <time>2026-06-24T08:16:51Z</time>
   </trkpt>
   <trkpt lat="-3.2138600" lon="37.3412910">
    <ele>1769.6</ele>
    <time>2026-06-24T08:16:52Z</time>
   </trkpt>
   <trkpt lat="-3.2138650" lon="37.3412840">
    <ele>1769.4</ele>
    <time>2026-06-24T08:16:53Z</time>
   </trkpt>
   <trkpt lat="-3.2138680" lon="37.3412780">
    <ele>1769.3</ele>
    <time>2026-06-24T08:16:54Z</time>
   </trkpt>
   <trkpt lat="-3.2138730" lon="37.3412740">
    <ele>1769.2</ele>
    <time>2026-06-24T08:16:55Z</time>
   </trkpt>
   <trkpt lat="-3.2138800" lon="37.3412700">
    <ele>1769.0</ele>
    <time>2026-06-24T08:16:56Z</time>
   </trkpt>
   <trkpt lat="-3.2138830" lon="37.3412650">
    <ele>1768.9</ele>
    <time>2026-06-24T08:16:57Z</time>
   </trkpt>
   <trkpt lat="-3.2138890" lon="37.3412560">
    <ele>1768.8</ele>
    <time>2026-06-24T08:16:58Z</time>
   </trkpt>
   <trkpt lat="-3.2138930" lon="37.3412510">
    <ele>1768.6</ele>
    <time>2026-06-24T08:16:59Z</time>
   </trkpt>
   <trkpt lat="-3.2138960" lon="37.3412450">
    <ele>1768.5</ele>
    <time>2026-06-24T08:17:00Z</time>
   </trkpt>
   <trkpt lat="-3.2138990" lon="37.3412410">
    <ele>1768.4</ele>
    <time>2026-06-24T08:17:01Z</time>
   </trkpt>
   <trkpt lat="-3.2139030" lon="37.3412300">
    <ele>1768.2</ele>
    <time>2026-06-24T08:17:02Z</time>
   </trkpt>
   <trkpt lat="-3.2139050" lon="37.3412240">
    <ele>1768.1</ele>
    <time>2026-06-24T08:17:03Z</time>
   </trkpt>
   <trkpt lat="-3.2139070" lon="37.3412150">
    <ele>1768.0</ele>
    <time>2026-06-24T08:17:04Z</time>
   </trkpt>
   <trkpt lat="-3.2139110" lon="37.3412080">
    <ele>1767.9</ele>
    <time>2026-06-24T08:17:05Z</time>
   </trkpt>
   <trkpt lat="-3.2139170" lon="37.3411970">
    <ele>1767.7</ele>
    <time>2026-06-24T08:17:06Z</time>
   </trkpt>
   <trkpt lat="-3.2139250" lon="37.3411920">
    <ele>1767.5</ele>
    <time>2026-06-24T08:17:07Z</time>
   </trkpt>
   <trkpt lat="-3.2139290" lon="37.3411830">
    <ele>1767.4</ele>
    <time>2026-06-24T08:17:08Z</time>
   </trkpt>
   <trkpt lat="-3.2139360" lon="37.3411700">
    <ele>1767.2</ele>
    <time>2026-06-24T08:17:09Z</time>
   </trkpt>
   <trkpt lat="-3.2139440" lon="37.3411580">
    <ele>1766.9</ele>
    <time>2026-06-24T08:17:10Z</time>
   </trkpt>
   <trkpt lat="-3.2139500" lon="37.3411490">
    <ele>1766.8</ele>
    <time>2026-06-24T08:17:11Z</time>
   </trkpt>
   <trkpt lat="-3.2139550" lon="37.3411450">
    <ele>1766.7</ele>
    <time>2026-06-24T08:17:12Z</time>
   </trkpt>
   <trkpt lat="-3.2139620" lon="37.3411310">
    <ele>1766.5</ele>
    <time>2026-06-24T08:17:13Z</time>
   </trkpt>
   <trkpt lat="-3.2139700" lon="37.3411230">
    <ele>1766.3</ele>
    <time>2026-06-24T08:17:14Z</time>
   </trkpt>
   <trkpt lat="-3.2139760" lon="37.3411160">
    <ele>1766.2</ele>
    <time>2026-06-24T08:17:15Z</time>
   </trkpt>
   <trkpt lat="-3.2139820" lon="37.3411090">
    <ele>1766.0</ele>
    <time>2026-06-24T08:17:16Z</time>
   </trkpt>
   <trkpt lat="-3.2139870" lon="37.3411010">
    <ele>1765.9</ele>
    <time>2026-06-24T08:17:17Z</time>
   </trkpt>
   <trkpt lat="-3.2139990" lon="37.3410910">
    <ele>1765.7</ele>
    <time>2026-06-24T08:17:18Z</time>
   </trkpt>
   <trkpt lat="-3.2140090" lon="37.3410780">
    <ele>1765.5</ele>
    <time>2026-06-24T08:17:19Z</time>
   </trkpt>
   <trkpt lat="-3.2140160" lon="37.3410690">
    <ele>1765.3</ele>
    <time>2026-06-24T08:17:20Z</time>
   </trkpt>
   <trkpt lat="-3.2140210" lon="37.3410600">
    <ele>1765.2</ele>
    <time>2026-06-24T08:17:21Z</time>
   </trkpt>
   <trkpt lat="-3.2140290" lon="37.3410520">
    <ele>1765.0</ele>
    <time>2026-06-24T08:17:22Z</time>
   </trkpt>
   <trkpt lat="-3.2140350" lon="37.3410440">
    <ele>1764.9</ele>
    <time>2026-06-24T08:17:23Z</time>
   </trkpt>
   <trkpt lat="-3.2140480" lon="37.3410290">
    <ele>1764.6</ele>
    <time>2026-06-24T08:17:24Z</time>
   </trkpt>
   <trkpt lat="-3.2140540" lon="37.3410150">
    <ele>1764.4</ele>
    <time>2026-06-24T08:17:25Z</time>
   </trkpt>
   <trkpt lat="-3.2140580" lon="37.3410050">
    <ele>1764.3</ele>
    <time>2026-06-24T08:17:26Z</time>
   </trkpt>
   <trkpt lat="-3.2140620" lon="37.3409990">
    <ele>1764.2</ele>
    <time>2026-06-24T08:17:27Z</time>
   </trkpt>
   <trkpt lat="-3.2140710" lon="37.3409910">
    <ele>1764.0</ele>
    <time>2026-06-24T08:17:28Z</time>
   </trkpt>
   <trkpt lat="-3.2140750" lon="37.3409850">
    <ele>1763.9</ele>
    <time>2026-06-24T08:17:29Z</time>
   </trkpt>
   <trkpt lat="-3.2140860" lon="37.3409790">
    <ele>1763.7</ele>
    <time>2026-06-24T08:17:30Z</time>
   </trkpt>
   <trkpt lat="-3.2140910" lon="37.3409750">
    <ele>1763.7</ele>
    <time>2026-06-24T08:17:31Z</time>
   </trkpt>
   <trkpt lat="-3.2140960" lon="37.3409700">
    <ele>1763.6</ele>
    <time>2026-06-24T08:17:32Z</time>
   </trkpt>
   <trkpt lat="-3.2141050" lon="37.3409600">
    <ele>1763.4</ele>
    <time>2026-06-24T08:17:33Z</time>
   </trkpt>
   <trkpt lat="-3.2141170" lon="37.3409510">
    <ele>1763.2</ele>
    <time>2026-06-24T08:17:34Z</time>
   </trkpt>
   <trkpt lat="-3.2141210" lon="37.3409440">
    <ele>1763.0</ele>
    <time>2026-06-24T08:17:35Z</time>
   </trkpt>
   <trkpt lat="-3.2141300" lon="37.3409370">
    <ele>1762.9</ele>
    <time>2026-06-24T08:17:36Z</time>
   </trkpt>
   <trkpt lat="-3.2141380" lon="37.3409290">
    <ele>1762.7</ele>
    <time>2026-06-24T08:17:37Z</time>
   </trkpt>
   <trkpt lat="-3.2141480" lon="37.3409140">
    <ele>1762.4</ele>
    <time>2026-06-24T08:17:38Z</time>
   </trkpt>
   <trkpt lat="-3.2141540" lon="37.3409090">
    <ele>1762.3</ele>
    <time>2026-06-24T08:17:39Z</time>
   </trkpt>
   <trkpt lat="-3.2141580" lon="37.3409040">
    <ele>1762.2</ele>
    <time>2026-06-24T08:17:40Z</time>
   </trkpt>
   <trkpt lat="-3.2141670" lon="37.3408960">
    <ele>1762.0</ele>
    <time>2026-06-24T08:17:41Z</time>
   </trkpt>
   <trkpt lat="-3.2141720" lon="37.3408890">
    <ele>1761.9</ele>
    <time>2026-06-24T08:17:42Z</time>
   </trkpt>
   <trkpt lat="-3.2141810" lon="37.3408770">
    <ele>1761.7</ele>
    <time>2026-06-24T08:17:43Z</time>
   </trkpt>
   <trkpt lat="-3.2141890" lon="37.3408710">
    <ele>1761.5</ele>
    <time>2026-06-24T08:17:44Z</time>
   </trkpt>
   <trkpt lat="-3.2141970" lon="37.3408660">
    <ele>1761.3</ele>
    <time>2026-06-24T08:17:45Z</time>
   </trkpt>
   <trkpt lat="-3.2142020" lon="37.3408620">
    <ele>1761.2</ele>
    <time>2026-06-24T08:17:46Z</time>
   </trkpt>
   <trkpt lat="-3.2142110" lon="37.3408540">
    <ele>1761.0</ele>
    <time>2026-06-24T08:17:47Z</time>
   </trkpt>
   <trkpt lat="-3.2142150" lon="37.3408490">
    <ele>1760.9</ele>
    <time>2026-06-24T08:17:48Z</time>
   </trkpt>
   <trkpt lat="-3.2142250" lon="37.3408430">
    <ele>1760.7</ele>
    <time>2026-06-24T08:17:49Z</time>
   </trkpt>
   <trkpt lat="-3.2142310" lon="37.3408410">
    <ele>1760.6</ele>
    <time>2026-06-24T08:17:50Z</time>
   </trkpt>
   <trkpt lat="-3.2142370" lon="37.3408380">
    <ele>1760.5</ele>
    <time>2026-06-24T08:17:51Z</time>
   </trkpt>
   <trkpt lat="-3.2142460" lon="37.3408360">
    <ele>1760.3</ele>
    <time>2026-06-24T08:17:52Z</time>
   </trkpt>
   <trkpt lat="-3.2142540" lon="37.3408360">
    <ele>1760.1</ele>
    <time>2026-06-24T08:17:53Z</time>
   </trkpt>
   <trkpt lat="-3.2142610" lon="37.3408350">
    <ele>1760.0</ele>
    <time>2026-06-24T08:17:54Z</time>
   </trkpt>
   <trkpt lat="-3.2142710" lon="37.3408320">
    <ele>1759.8</ele>
    <time>2026-06-24T08:17:55Z</time>
   </trkpt>
   <trkpt lat="-3.2142790" lon="37.3408340">
    <ele>1759.6</ele>
    <time>2026-06-24T08:17:56Z</time>
   </trkpt>
   <trkpt lat="-3.2142850" lon="37.3408290">
    <ele>1759.5</ele>
    <time>2026-06-24T08:17:57Z</time>
   </trkpt>
   <trkpt lat="-3.2142960" lon="37.3408270">
    <ele>1759.3</ele>
    <time>2026-06-24T08:17:58Z</time>
   </trkpt>
   <trkpt lat="-3.2143010" lon="37.3408270">
    <ele>1759.1</ele>
    <time>2026-06-24T08:17:59Z</time>
   </trkpt>
   <trkpt lat="-3.2143080" lon="37.3408240">
    <ele>1759.0</ele>
    <time>2026-06-24T08:18:00Z</time>
   </trkpt>
   <trkpt lat="-3.2143160" lon="37.3408240">
    <ele>1758.8</ele>
    <time>2026-06-24T08:18:01Z</time>
   </trkpt>
   <trkpt lat="-3.2143260" lon="37.3408230">
    <ele>1758.6</ele>
    <time>2026-06-24T08:18:02Z</time>
   </trkpt>
   <trkpt lat="-3.2143380" lon="37.3408290">
    <ele>1758.3</ele>
    <time>2026-06-24T08:18:03Z</time>
   </trkpt>
   <trkpt lat="-3.2143450" lon="37.3408300">
    <ele>1758.2</ele>
    <time>2026-06-24T08:18:04Z</time>
   </trkpt>
   <trkpt lat="-3.2143510" lon="37.3408320">
    <ele>1758.0</ele>
    <time>2026-06-24T08:18:05Z</time>
   </trkpt>
   <trkpt lat="-3.2143590" lon="37.3408360">
    <ele>1757.8</ele>
    <time>2026-06-24T08:18:06Z</time>
   </trkpt>
   <trkpt lat="-3.2143720" lon="37.3408390">
    <ele>1757.5</ele>
    <time>2026-06-24T08:18:07Z</time>
   </trkpt>
   <trkpt lat="-3.2143810" lon="37.3408430">
    <ele>1757.3</ele>
    <time>2026-06-24T08:18:08Z</time>
   </trkpt>
   <trkpt lat="-3.2143850" lon="37.3408390">
    <ele>1757.2</ele>
    <time>2026-06-24T08:18:09Z</time>
   </trkpt>
   <trkpt lat="-3.2143940" lon="37.3408400">
    <ele>1757.0</ele>
    <time>2026-06-24T08:18:10Z</time>
   </trkpt>
   <trkpt lat="-3.2144090" lon="37.3408450">
    <ele>1756.7</ele>
    <time>2026-06-24T08:18:11Z</time>
   </trkpt>
   <trkpt lat="-3.2144160" lon="37.3408520">
    <ele>1756.4</ele>
    <time>2026-06-24T08:18:12Z</time>
   </trkpt>
   <trkpt lat="-3.2144290" lon="37.3408540">
    <ele>1756.1</ele>
    <time>2026-06-24T08:18:13Z</time>
   </trkpt>
   <trkpt lat="-3.2144350" lon="37.3408530">
    <ele>1756.0</ele>
    <time>2026-06-24T08:18:14Z</time>
   </trkpt>
   <trkpt lat="-3.2144440" lon="37.3408510">
    <ele>1755.8</ele>
    <time>2026-06-24T08:18:15Z</time>
   </trkpt>
   <trkpt lat="-3.2144510" lon="37.3408510">
    <ele>1755.6</ele>
    <time>2026-06-24T08:18:16Z</time>
   </trkpt>
   <trkpt lat="-3.2144590" lon="37.3408540">
    <ele>1755.4</ele>
    <time>2026-06-24T08:18:17Z</time>
   </trkpt>
   <trkpt lat="-3.2144670" lon="37.3408550">
    <ele>1755.3</ele>
    <time>2026-06-24T08:18:18Z</time>
   </trkpt>
   <trkpt lat="-3.2144780" lon="37.3408560">
    <ele>1755.0</ele>
    <time>2026-06-24T08:18:19Z</time>
   </trkpt>
   <trkpt lat="-3.2144840" lon="37.3408530">
    <ele>1754.9</ele>
    <time>2026-06-24T08:18:20Z</time>
   </trkpt>
   <trkpt lat="-3.2144950" lon="37.3408480">
    <ele>1754.6</ele>
    <time>2026-06-24T08:18:21Z</time>
   </trkpt>
   <trkpt lat="-3.2145040" lon="37.3408410">
    <ele>1754.3</ele>
    <time>2026-06-24T08:18:22Z</time>
   </trkpt>
   <trkpt lat="-3.2145140" lon="37.3408460">
    <ele>1754.1</ele>
    <time>2026-06-24T08:18:23Z</time>
   </trkpt>
   <trkpt lat="-3.2145180" lon="37.3408460">
    <ele>1754.0</ele>
    <time>2026-06-24T08:18:24Z</time>
   </trkpt>
   <trkpt lat="-3.2145270" lon="37.3408430">
    <ele>1753.8</ele>
    <time>2026-06-24T08:18:25Z</time>
   </trkpt>
   <trkpt lat="-3.2145350" lon="37.3408450">
    <ele>1753.6</ele>
    <time>2026-06-24T08:18:26Z</time>
   </trkpt>
   <trkpt lat="-3.2145410" lon="37.3408450">
    <ele>1753.5</ele>
    <time>2026-06-24T08:18:27Z</time>
   </trkpt>
   <trkpt lat="-3.2145480" lon="37.3408470">
    <ele>1753.3</ele>
    <time>2026-06-24T08:18:28Z</time>
   </trkpt>
   <trkpt lat="-3.2145580" lon="37.3408460">
    <ele>1753.1</ele>
    <time>2026-06-24T08:18:29Z</time>
   </trkpt>
   <trkpt lat="-3.2145640" lon="37.3408450">
    <ele>1752.9</ele>
    <time>2026-06-24T08:18:30Z</time>
   </trkpt>
   <trkpt lat="-3.2145680" lon="37.3408490">
    <ele>1752.8</ele>
    <time>2026-06-24T08:18:31Z</time>
   </trkpt>
   <trkpt lat="-3.2145750" lon="37.3408520">
    <ele>1752.6</ele>
    <time>2026-06-24T08:18:32Z</time>
   </trkpt>
   <trkpt lat="-3.2145790" lon="37.3408520">
    <ele>1752.5</ele>
    <time>2026-06-24T08:18:33Z</time>
   </trkpt>
   <trkpt lat="-3.2145830" lon="37.3408530">
    <ele>1752.4</ele>
    <time>2026-06-24T08:18:34Z</time>
   </trkpt>
   <trkpt lat="-3.2145880" lon="37.3408520">
    <ele>1752.3</ele>
    <time>2026-06-24T08:18:35Z</time>
   </trkpt>
   <trkpt lat="-3.2145940" lon="37.3408540">
    <ele>1752.2</ele>
    <time>2026-06-24T08:18:36Z</time>
   </trkpt>
   <trkpt lat="-3.2146070" lon="37.3408610">
    <ele>1751.9</ele>
    <time>2026-06-24T08:18:37Z</time>
   </trkpt>
   <trkpt lat="-3.2146170" lon="37.3408610">
    <ele>1751.6</ele>
    <time>2026-06-24T08:18:38Z</time>
   </trkpt>
   <trkpt lat="-3.2146180" lon="37.3408590">
    <ele>1751.6</ele>
    <time>2026-06-24T08:18:39Z</time>
   </trkpt>
   <trkpt lat="-3.2146260" lon="37.3408570">
    <ele>1751.4</ele>
    <time>2026-06-24T08:18:40Z</time>
   </trkpt>
   <trkpt lat="-3.2146310" lon="37.3408550">
    <ele>1751.3</ele>
    <time>2026-06-24T08:18:41Z</time>
   </trkpt>
   <trkpt lat="-3.2146410" lon="37.3408550">
    <ele>1751.0</ele>
    <time>2026-06-24T08:18:42Z</time>
   </trkpt>
   <trkpt lat="-3.2146510" lon="37.3408510">
    <ele>1750.8</ele>
    <time>2026-06-24T08:18:43Z</time>
   </trkpt>
   <trkpt lat="-3.2146600" lon="37.3408540">
    <ele>1750.6</ele>
    <time>2026-06-24T08:18:44Z</time>
   </trkpt>
   <trkpt lat="-3.2146690" lon="37.3408600">
    <ele>1750.3</ele>
    <time>2026-06-24T08:18:45Z</time>
   </trkpt>
   <trkpt lat="-3.2146790" lon="37.3408590">
    <ele>1750.1</ele>
    <time>2026-06-24T08:18:46Z</time>
   </trkpt>
   <trkpt lat="-3.2146830" lon="37.3408550">
    <ele>1750.0</ele>
    <time>2026-06-24T08:18:47Z</time>
   </trkpt>
   <trkpt lat="-3.2146890" lon="37.3408550">
    <ele>1749.9</ele>
    <time>2026-06-24T08:18:48Z</time>
   </trkpt>
   <trkpt lat="-3.2146970" lon="37.3408500">
    <ele>1749.6</ele>
    <time>2026-06-24T08:18:49Z</time>
   </trkpt>
   <trkpt lat="-3.2147030" lon="37.3408410">
    <ele>1749.4</ele>
    <time>2026-06-24T08:18:50Z</time>
   </trkpt>
   <trkpt lat="-3.2147110" lon="37.3408330">
    <ele>1749.2</ele>
    <time>2026-06-24T08:18:51Z</time>
   </trkpt>
   <trkpt lat="-3.2147240" lon="37.3408250">
    <ele>1748.8</ele>
    <time>2026-06-24T08:18:52Z</time>
   </trkpt>
   <trkpt lat="-3.2147320" lon="37.3408300">
    <ele>1748.6</ele>
    <time>2026-06-24T08:18:53Z</time>
   </trkpt>
   <trkpt lat="-3.2147460" lon="37.3408290">
    <ele>1748.3</ele>
    <time>2026-06-24T08:18:54Z</time>
   </trkpt>
   <trkpt lat="-3.2147560" lon="37.3408290">
    <ele>1748.0</ele>
    <time>2026-06-24T08:18:55Z</time>
   </trkpt>
   <trkpt lat="-3.2147650" lon="37.3408240">
    <ele>1747.8</ele>
    <time>2026-06-24T08:18:56Z</time>
   </trkpt>
   <trkpt lat="-3.2147730" lon="37.3408160">
    <ele>1747.5</ele>
    <time>2026-06-24T08:18:57Z</time>
   </trkpt>
   <trkpt lat="-3.2147820" lon="37.3408080">
    <ele>1747.2</ele>
    <time>2026-06-24T08:18:58Z</time>
   </trkpt>
   <trkpt lat="-3.2147890" lon="37.3407990">
    <ele>1747.0</ele>
    <time>2026-06-24T08:18:59Z</time>
   </trkpt>
   <trkpt lat="-3.2147960" lon="37.3407910">
    <ele>1746.7</ele>
    <time>2026-06-24T08:19:00Z</time>
   </trkpt>
   <trkpt lat="-3.2148030" lon="37.3407850">
    <ele>1746.5</ele>
    <time>2026-06-24T08:19:01Z</time>
   </trkpt>
   <trkpt lat="-3.2148150" lon="37.3407740">
    <ele>1746.1</ele>
    <time>2026-06-24T08:19:02Z</time>
   </trkpt>
   <trkpt lat="-3.2148210" lon="37.3407750">
    <ele>1745.9</ele>
    <time>2026-06-24T08:19:03Z</time>
   </trkpt>
   <trkpt lat="-3.2148310" lon="37.3407710">
    <ele>1745.7</ele>
    <time>2026-06-24T08:19:04Z</time>
   </trkpt>
   <trkpt lat="-3.2148330" lon="37.3407650">
    <ele>1745.5</ele>
    <time>2026-06-24T08:19:05Z</time>
   </trkpt>
   <trkpt lat="-3.2148350" lon="37.3407630">
    <ele>1745.4</ele>
    <time>2026-06-24T08:19:06Z</time>
   </trkpt>
   <trkpt lat="-3.2148340" lon="37.3407650">
    <ele>1745.4</ele>
    <time>2026-06-24T08:19:07Z</time>
   </trkpt>
   <trkpt lat="-3.2148400" lon="37.3407620">
    <ele>1745.2</ele>
    <time>2026-06-24T08:19:08Z</time>
   </trkpt>
   <trkpt lat="-3.2148470" lon="37.3407530">
    <ele>1744.9</ele>
    <time>2026-06-24T08:19:09Z</time>
   </trkpt>
   <trkpt lat="-3.2148490" lon="37.3407490">
    <ele>1744.8</ele>
    <time>2026-06-24T08:19:10Z</time>
   </trkpt>
   <trkpt lat="-3.2148570" lon="37.3407510">
    <ele>1744.6</ele>
    <time>2026-06-24T08:19:11Z</time>
   </trkpt>
   <trkpt lat="-3.2148630" lon="37.3407460">
    <ele>1744.4</ele>
    <time>2026-06-24T08:19:12Z</time>
   </trkpt>
   <trkpt lat="-3.2148670" lon="37.3407380">
    <ele>1744.2</ele>
    <time>2026-06-24T08:19:13Z</time>
   </trkpt>
   <trkpt lat="-3.2148690" lon="37.3407340">
    <ele>1744.0</ele>
    <time>2026-06-24T08:19:14Z</time>
   </trkpt>
   <trkpt lat="-3.2148680" lon="37.3407320">
    <ele>1744.0</ele>
    <time>2026-06-24T08:19:15Z</time>
   </trkpt>
   <trkpt lat="-3.2148780" lon="37.3407260">
    <ele>1743.7</ele>
    <time>2026-06-24T08:19:16Z</time>
   </trkpt>
   <trkpt lat="-3.2148850" lon="37.3407170">
    <ele>1743.4</ele>
    <time>2026-06-24T08:19:17Z</time>
   </trkpt>
   <trkpt lat="-3.2148910" lon="37.3407110">
    <ele>1743.2</ele>
    <time>2026-06-24T08:19:18Z</time>
   </trkpt>
   <trkpt lat="-3.2148980" lon="37.3407030">
    <ele>1742.9</ele>
    <time>2026-06-24T08:19:19Z</time>
   </trkpt>
   <trkpt lat="-3.2149050" lon="37.3406960">
    <ele>1742.6</ele>
    <time>2026-06-24T08:19:20Z</time>
   </trkpt>
   <trkpt lat="-3.2149090" lon="37.3406940">
    <ele>1742.5</ele>
    <time>2026-06-24T08:19:21Z</time>
   </trkpt>
   <trkpt lat="-3.2149150" lon="37.3406910">
    <ele>1742.3</ele>
    <time>2026-06-24T08:19:22Z</time>
   </trkpt>
   <trkpt lat="-3.2149240" lon="37.3406840">
    <ele>1742.0</ele>
    <time>2026-06-24T08:19:23Z</time>
   </trkpt>
   <trkpt lat="-3.2149280" lon="37.3406790">
    <ele>1741.9</ele>
    <time>2026-06-24T08:19:24Z</time>
   </trkpt>
   <trkpt lat="-3.2149370" lon="37.3406720">
    <ele>1741.6</ele>
    <time>2026-06-24T08:19:25Z</time>
   </trkpt>
   <trkpt lat="-3.2149410" lon="37.3406660">
    <ele>1741.4</ele>
    <time>2026-06-24T08:19:26Z</time>
   </trkpt>
   <trkpt lat="-3.2149460" lon="37.3406630">
    <ele>1741.2</ele>
    <time>2026-06-24T08:19:27Z</time>
   </trkpt>
   <trkpt lat="-3.2149510" lon="37.3406570">
    <ele>1741.0</ele>
    <time>2026-06-24T08:19:28Z</time>
   </trkpt>
   <trkpt lat="-3.2149610" lon="37.3406500">
    <ele>1740.7</ele>
    <time>2026-06-24T08:19:29Z</time>
   </trkpt>
   <trkpt lat="-3.2149700" lon="37.3406460">
    <ele>1740.5</ele>
    <time>2026-06-24T08:19:30Z</time>
   </trkpt>
   <trkpt lat="-3.2149780" lon="37.3406450">
    <ele>1740.3</ele>
    <time>2026-06-24T08:19:31Z</time>
   </trkpt>
   <trkpt lat="-3.2149800" lon="37.3406360">
    <ele>1740.1</ele>
    <time>2026-06-24T08:19:32Z</time>
   </trkpt>
   <trkpt lat="-3.2149870" lon="37.3406310">
    <ele>1739.8</ele>
    <time>2026-06-24T08:19:33Z</time>
   </trkpt>
   <trkpt lat="-3.2149950" lon="37.3406270">
    <ele>1739.6</ele>
    <time>2026-06-24T08:19:34Z</time>
   </trkpt>
   <trkpt lat="-3.2149990" lon="37.3406210">
    <ele>1739.4</ele>
    <time>2026-06-24T08:19:35Z</time>
   </trkpt>
   <trkpt lat="-3.2150060" lon="37.3406120">
    <ele>1739.2</ele>
    <time>2026-06-24T08:19:36Z</time>
   </trkpt>
   <trkpt lat="-3.2150220" lon="37.3406090">
    <ele>1738.8</ele>
    <time>2026-06-24T08:19:37Z</time>
   </trkpt>
   <trkpt lat="-3.2150320" lon="37.3406050">
    <ele>1738.5</ele>
    <time>2026-06-24T08:19:38Z</time>
   </trkpt>
   <trkpt lat="-3.2150380" lon="37.3406000">
    <ele>1738.3</ele>
    <time>2026-06-24T08:19:39Z</time>
   </trkpt>
   <trkpt lat="-3.2150410" lon="37.3405970">
    <ele>1738.2</ele>
    <time>2026-06-24T08:19:40Z</time>
   </trkpt>
   <trkpt lat="-3.2150490" lon="37.3405890">
    <ele>1738.0</ele>
    <time>2026-06-24T08:19:41Z</time>
   </trkpt>
   <trkpt lat="-3.2150580" lon="37.3405840">
    <ele>1737.7</ele>
    <time>2026-06-24T08:19:42Z</time>
   </trkpt>
   <trkpt lat="-3.2150640" lon="37.3405820">
    <ele>1737.6</ele>
    <time>2026-06-24T08:19:43Z</time>
   </trkpt>
   <trkpt lat="-3.2150710" lon="37.3405790">
    <ele>1737.4</ele>
    <time>2026-06-24T08:19:44Z</time>
   </trkpt>
   <trkpt lat="-3.2150780" lon="37.3405770">
    <ele>1737.2</ele>
    <time>2026-06-24T08:19:45Z</time>
   </trkpt>
   <trkpt lat="-3.2150890" lon="37.3405760">
    <ele>1737.0</ele>
    <time>2026-06-24T08:19:46Z</time>
   </trkpt>
   <trkpt lat="-3.2150960" lon="37.3405670">
    <ele>1736.7</ele>
    <time>2026-06-24T08:19:47Z</time>
   </trkpt>
   <trkpt lat="-3.2151050" lon="37.3405610">
    <ele>1736.5</ele>
    <time>2026-06-24T08:19:48Z</time>
   </trkpt>
   <trkpt lat="-3.2151130" lon="37.3405570">
    <ele>1736.3</ele>
    <time>2026-06-24T08:19:49Z</time>
   </trkpt>
   <trkpt lat="-3.2151200" lon="37.3405520">
    <ele>1736.1</ele>
    <time>2026-06-24T08:19:50Z</time>
   </trkpt>
   <trkpt lat="-3.2151250" lon="37.3405470">
    <ele>1735.9</ele>
    <time>2026-06-24T08:19:51Z</time>
   </trkpt>
   <trkpt lat="-3.2151320" lon="37.3405410">
    <ele>1735.7</ele>
    <time>2026-06-24T08:19:52Z</time>
   </trkpt>
   <trkpt lat="-3.2151400" lon="37.3405320">
    <ele>1735.5</ele>
    <time>2026-06-24T08:19:53Z</time>
   </trkpt>
   <trkpt lat="-3.2151490" lon="37.3405360">
    <ele>1735.2</ele>
    <time>2026-06-24T08:19:54Z</time>
   </trkpt>
   <trkpt lat="-3.2151580" lon="37.3405350">
    <ele>1735.0</ele>
    <time>2026-06-24T08:19:55Z</time>
   </trkpt>
   <trkpt lat="-3.2151630" lon="37.3405280">
    <ele>1734.9</ele>
    <time>2026-06-24T08:19:56Z</time>
   </trkpt>
   <trkpt lat="-3.2151720" lon="37.3405180">
    <ele>1734.6</ele>
    <time>2026-06-24T08:19:57Z</time>
   </trkpt>
   <trkpt lat="-3.2151770" lon="37.3405220">
    <ele>1734.4</ele>
    <time>2026-06-24T08:19:58Z</time>
   </trkpt>
   <trkpt lat="-3.2151690" lon="37.3405240">
    <ele>1734.2</ele>
    <time>2026-06-24T08:19:59Z</time>
   </trkpt>
   <trkpt lat="-3.2151670" lon="37.3405270">
    <ele>1734.2</ele>
    <time>2026-06-24T08:20:00Z</time>
   </trkpt>
   <trkpt lat="-3.2151720" lon="37.3405320">
    <ele>1734.0</ele>
    <time>2026-06-24T08:20:01Z</time>
   </trkpt>
   <trkpt lat="-3.2151710" lon="37.3405340">
    <ele>1734.0</ele>
    <time>2026-06-24T08:20:02Z</time>
   </trkpt>
   <trkpt lat="-3.2151690" lon="37.3405310">
    <ele>1733.9</ele>
    <time>2026-06-24T08:20:03Z</time>
   </trkpt>
   <trkpt lat="-3.2151710" lon="37.3405280">
    <ele>1733.8</ele>
    <time>2026-06-24T08:20:04Z</time>
   </trkpt>
   <trkpt lat="-3.2151760" lon="37.3405310">
    <ele>1733.7</ele>
    <time>2026-06-24T08:20:05Z</time>
   </trkpt>
   <trkpt lat="-3.2151760" lon="37.3405340">
    <ele>1733.6</ele>
    <time>2026-06-24T08:20:06Z</time>
   </trkpt>
   <trkpt lat="-3.2151760" lon="37.3405340">
    <ele>1733.6</ele>
    <time>2026-06-24T08:20:07Z</time>
   </trkpt>
   <trkpt lat="-3.2151780" lon="37.3405360">
    <ele>1733.5</ele>
    <time>2026-06-24T08:20:08Z</time>
   </trkpt>
   <trkpt lat="-3.2151770" lon="37.3405360">
    <ele>1733.5</ele>
    <time>2026-06-24T08:20:09Z</time>
   </trkpt>
   <trkpt lat="-3.2151780" lon="37.3405380">
    <ele>1733.5</ele>
    <time>2026-06-24T08:20:10Z</time>
   </trkpt>
   <trkpt lat="-3.2151780" lon="37.3405370">
    <ele>1733.5</ele>
    <time>2026-06-24T08:20:11Z</time>
   </trkpt>
   <trkpt lat="-3.2151780" lon="37.3405380">
    <ele>1733.4</ele>
    <time>2026-06-24T08:20:12Z</time>
   </trkpt>
   <trkpt lat="-3.2151780" lon="37.3405380">
    <ele>1733.4</ele>
    <time>2026-06-24T08:20:13Z</time>
   </trkpt>
   <trkpt lat="-3.2151780" lon="37.3405380">
    <ele>1733.4</ele>
    <time>2026-06-24T08:20:14Z</time>
   </trkpt>
   <trkpt lat="-3.2151780" lon="37.3405370">
    <ele>1733.4</ele>
    <time>2026-06-24T08:20:15Z</time>
   </trkpt>
   <trkpt lat="-3.2151780" lon="37.3405390">
    <ele>1733.4</ele>
    <time>2026-06-24T08:20:16Z</time>
   </trkpt>
   <trkpt lat="-3.2151780" lon="37.3405390">
    <ele>1733.4</ele>
    <time>2026-06-24T08:20:17Z</time>
   </trkpt>
   <trkpt lat="-3.2151780" lon="37.3405390">
    <ele>1733.4</ele>
    <time>2026-06-24T08:20:18Z</time>
   </trkpt>
   <trkpt lat="-3.2151790" lon="37.3405400">
    <ele>1733.3</ele>
    <time>2026-06-24T08:20:19Z</time>
   </trkpt>
   <trkpt lat="-3.2151780" lon="37.3405400">
    <ele>1733.3</ele>
    <time>2026-06-24T08:20:20Z</time>
   </trkpt>
   <trkpt lat="-3.2151790" lon="37.3405400">
    <ele>1733.3</ele>
    <time>2026-06-24T08:20:21Z</time>
   </trkpt>
   <trkpt lat="-3.2151790" lon="37.3405400">
    <ele>1733.3</ele>
    <time>2026-06-24T08:20:22Z</time>
   </trkpt>
   <trkpt lat="-3.2151780" lon="37.3405410">
    <ele>1733.3</ele>
    <time>2026-06-24T08:20:23Z</time>
   </trkpt>
   <trkpt lat="-3.2151770" lon="37.3405400">
    <ele>1733.2</ele>
    <time>2026-06-24T08:20:24Z</time>
   </trkpt>
   <trkpt lat="-3.2151790" lon="37.3405420">
    <ele>1733.2</ele>
    <time>2026-06-24T08:20:25Z</time>
   </trkpt>
   <trkpt lat="-3.2151760" lon="37.3405410">
    <ele>1733.1</ele>
    <time>2026-06-24T08:20:26Z</time>
   </trkpt>
   <trkpt lat="-3.2151770" lon="37.3405400">
    <ele>1733.1</ele>
    <time>2026-06-24T08:20:27Z</time>
   </trkpt>
   <trkpt lat="-3.2151780" lon="37.3405400">
    <ele>1733.0</ele>
    <time>2026-06-24T08:20:28Z</time>
   </trkpt>
   <trkpt lat="-3.2151770" lon="37.3405390">
    <ele>1733.0</ele>
    <time>2026-06-24T08:20:29Z</time>
   </trkpt>
   <trkpt lat="-3.2151820" lon="37.3405400">
    <ele>1732.9</ele>
    <time>2026-06-24T08:20:30Z</time>
   </trkpt>
   <trkpt lat="-3.2151780" lon="37.3405400">
    <ele>1732.8</ele>
    <time>2026-06-24T08:20:31Z</time>
   </trkpt>
   <trkpt lat="-3.2151750" lon="37.3405410">
    <ele>1732.7</ele>
    <time>2026-06-24T08:20:32Z</time>
   </trkpt>
   <trkpt lat="-3.2151790" lon="37.3405400">
    <ele>1732.7</ele>
    <time>2026-06-24T08:20:33Z</time>
   </trkpt>
   <trkpt lat="-3.2151770" lon="37.3405390">
    <ele>1732.6</ele>
    <time>2026-06-24T08:20:34Z</time>
   </trkpt>
   <trkpt lat="-3.2151780" lon="37.3405390">
    <ele>1732.6</ele>
    <time>2026-06-24T08:20:35Z</time>
   </trkpt>
   <trkpt lat="-3.2151780" lon="37.3405390">
    <ele>1732.6</ele>
    <time>2026-06-24T08:20:36Z</time>
   </trkpt>
   <trkpt lat="-3.2151780" lon="37.3405390">
    <ele>1732.6</ele>
    <time>2026-06-24T08:20:37Z</time>
   </trkpt>
   <trkpt lat="-3.2151780" lon="37.3405400">
    <ele>1732.6</ele>
    <time>2026-06-24T08:20:38Z</time>
   </trkpt>
   <trkpt lat="-3.2151780" lon="37.3405390">
    <ele>1732.5</ele>
    <time>2026-06-24T08:20:39Z</time>
   </trkpt>
   <trkpt lat="-3.2151780" lon="37.3405390">
    <ele>1732.5</ele>
    <time>2026-06-24T08:20:40Z</time>
   </trkpt>
   <trkpt lat="-3.2151790" lon="37.3405420">
    <ele>1732.5</ele>
    <time>2026-06-24T08:20:41Z</time>
   </trkpt>
   <trkpt lat="-3.2151790" lon="37.3405400">
    <ele>1732.4</ele>
    <time>2026-06-24T08:20:42Z</time>
   </trkpt>
   <trkpt lat="-3.2151790" lon="37.3405400">
    <ele>1732.4</ele>
    <time>2026-06-24T08:20:43Z</time>
   </trkpt>
   <trkpt lat="-3.2151790" lon="37.3405400">
    <ele>1732.4</ele>
    <time>2026-06-24T08:20:44Z</time>
   </trkpt>
   <trkpt lat="-3.2151780" lon="37.3405390">
    <ele>1732.4</ele>
    <time>2026-06-24T08:20:45Z</time>
   </trkpt>
   <trkpt lat="-3.2151780" lon="37.3405400">
    <ele>1732.4</ele>
    <time>2026-06-24T08:20:46Z</time>
   </trkpt>
   <trkpt lat="-3.2151790" lon="37.3405410">
    <ele>1732.3</ele>
    <time>2026-06-24T08:20:47Z</time>
   </trkpt>
   <trkpt lat="-3.2151800" lon="37.3405410">
    <ele>1732.3</ele>
    <time>2026-06-24T08:20:48Z</time>
   </trkpt>
   <trkpt lat="-3.2151800" lon="37.3405410">
    <ele>1732.3</ele>
    <time>2026-06-24T08:20:49Z</time>
   </trkpt>
   <trkpt lat="-3.2151800" lon="37.3405420">
    <ele>1732.3</ele>
    <time>2026-06-24T08:20:50Z</time>
   </trkpt>
   <trkpt lat="-3.2151800" lon="37.3405420">
    <ele>1732.3</ele>
    <time>2026-06-24T08:20:51Z</time>
   </trkpt>
   <trkpt lat="-3.2151800" lon="37.3405410">
    <ele>1732.3</ele>
    <time>2026-06-24T08:20:52Z</time>
   </trkpt>
   <trkpt lat="-3.2151800" lon="37.3405420">
    <ele>1732.3</ele>
    <time>2026-06-24T08:20:53Z</time>
   </trkpt>
   <trkpt lat="-3.2151810" lon="37.3405430">
    <ele>1732.2</ele>
    <time>2026-06-24T08:20:54Z</time>
   </trkpt>
   <trkpt lat="-3.2151800" lon="37.3405430">
    <ele>1732.2</ele>
    <time>2026-06-24T08:20:55Z</time>
   </trkpt>
   <trkpt lat="-3.2151800" lon="37.3405420">
    <ele>1732.2</ele>
    <time>2026-06-24T08:20:56Z</time>
   </trkpt>
   <trkpt lat="-3.2151800" lon="37.3405420">
    <ele>1732.2</ele>
    <time>2026-06-24T08:20:57Z</time>
   </trkpt>
   <trkpt lat="-3.2151800" lon="37.3405410">
    <ele>1732.2</ele>
    <time>2026-06-24T08:20:58Z</time>
   </trkpt>
   <trkpt lat="-3.2151800" lon="37.3405400">
    <ele>1732.1</ele>
    <time>2026-06-24T08:20:59Z</time>
   </trkpt>
   <trkpt lat="-3.2151810" lon="37.3405400">
    <ele>1732.1</ele>
    <time>2026-06-24T08:21:00Z</time>
   </trkpt>
   <trkpt lat="-3.2151810" lon="37.3405400">
    <ele>1732.1</ele>
    <time>2026-06-24T08:21:01Z</time>
   </trkpt>
   <trkpt lat="-3.2151820" lon="37.3405410">
    <ele>1732.1</ele>
    <time>2026-06-24T08:21:02Z</time>
   </trkpt>
   <trkpt lat="-3.2151860" lon="37.3405430">
    <ele>1732.0</ele>
    <time>2026-06-24T08:21:03Z</time>
   </trkpt>
   <trkpt lat="-3.2151840" lon="37.3405420">
    <ele>1731.9</ele>
    <time>2026-06-24T08:21:04Z</time>
   </trkpt>
   <trkpt lat="-3.2151830" lon="37.3405410">
    <ele>1731.9</ele>
    <time>2026-06-24T08:21:05Z</time>
   </trkpt>
   <trkpt lat="-3.2151830" lon="37.3405410">
    <ele>1731.9</ele>
    <time>2026-06-24T08:21:06Z</time>
   </trkpt>
   <trkpt lat="-3.2151830" lon="37.3405410">
    <ele>1731.9</ele>
    <time>2026-06-24T08:21:07Z</time>
   </trkpt>
   <trkpt lat="-3.2151830" lon="37.3405400">
    <ele>1731.9</ele>
    <time>2026-06-24T08:21:08Z</time>
   </trkpt>
   <trkpt lat="-3.2151830" lon="37.3405400">
    <ele>1731.9</ele>
    <time>2026-06-24T08:21:09Z</time>
   </trkpt>
   <trkpt lat="-3.2151830" lon="37.3405400">
    <ele>1731.9</ele>
    <time>2026-06-24T08:21:10Z</time>
   </trkpt>
   <trkpt lat="-3.2151830" lon="37.3405390">
    <ele>1731.9</ele>
    <time>2026-06-24T08:21:11Z</time>
   </trkpt>
   <trkpt lat="-3.2151830" lon="37.3405390">
    <ele>1731.9</ele>
    <time>2026-06-24T08:21:12Z</time>
   </trkpt>
   <trkpt lat="-3.2151830" lon="37.3405390">
    <ele>1731.9</ele>
    <time>2026-06-24T08:21:13Z</time>
   </trkpt>
   <trkpt lat="-3.2151830" lon="37.3405390">
    <ele>1731.9</ele>
    <time>2026-06-24T08:21:14Z</time>
   </trkpt>
   <trkpt lat="-3.2151830" lon="37.3405390">
    <ele>1731.9</ele>
    <time>2026-06-24T08:21:15Z</time>
   </trkpt>
   <trkpt lat="-3.2151830" lon="37.3405390">
    <ele>1731.9</ele>
    <time>2026-06-24T08:21:16Z</time>
   </trkpt>
   <trkpt lat="-3.2151850" lon="37.3405380">
    <ele>1731.8</ele>
    <time>2026-06-24T08:21:17Z</time>
   </trkpt>
   <trkpt lat="-3.2151850" lon="37.3405380">
    <ele>1731.8</ele>
    <time>2026-06-24T08:21:18Z</time>
   </trkpt>
   <trkpt lat="-3.2151850" lon="37.3405380">
    <ele>1731.8</ele>
    <time>2026-06-24T08:21:19Z</time>
   </trkpt>
   <trkpt lat="-3.2151850" lon="37.3405380">
    <ele>1731.8</ele>
    <time>2026-06-24T08:21:20Z</time>
   </trkpt>
   <trkpt lat="-3.2151850" lon="37.3405380">
    <ele>1731.8</ele>
    <time>2026-06-24T08:21:21Z</time>
   </trkpt>
   <trkpt lat="-3.2151850" lon="37.3405380">
    <ele>1731.8</ele>
    <time>2026-06-24T08:21:22Z</time>
   </trkpt>
   <trkpt lat="-3.2151880" lon="37.3405360">
    <ele>1731.7</ele>
    <time>2026-06-24T08:21:23Z</time>
   </trkpt>
   <trkpt lat="-3.2151880" lon="37.3405360">
    <ele>1731.7</ele>
    <time>2026-06-24T08:21:24Z</time>
   </trkpt>
   <trkpt lat="-3.2151880" lon="37.3405360">
    <ele>1731.7</ele>
    <time>2026-06-24T08:21:25Z</time>
   </trkpt>
   <trkpt lat="-3.2151880" lon="37.3405360">
    <ele>1731.7</ele>
    <time>2026-06-24T08:21:26Z</time>
   </trkpt>
   <trkpt lat="-3.2151880" lon="37.3405360">
    <ele>1731.7</ele>
    <time>2026-06-24T08:21:27Z</time>
   </trkpt>
   <trkpt lat="-3.2151880" lon="37.3405360">
    <ele>1731.7</ele>
    <time>2026-06-24T08:21:28Z</time>
   </trkpt>
   <trkpt lat="-3.2151880" lon="37.3405360">
    <ele>1731.7</ele>
    <time>2026-06-24T08:21:29Z</time>
   </trkpt>
   <trkpt lat="-3.2151890" lon="37.3405340">
    <ele>1731.7</ele>
    <time>2026-06-24T08:21:30Z</time>
   </trkpt>
   <trkpt lat="-3.2151920" lon="37.3405330">
    <ele>1731.6</ele>
    <time>2026-06-24T08:21:31Z</time>
   </trkpt>
   <trkpt lat="-3.2152000" lon="37.3405350">
    <ele>1731.4</ele>
    <time>2026-06-24T08:21:32Z</time>
   </trkpt>
   <trkpt lat="-3.2152040" lon="37.3405350">
    <ele>1731.4</ele>
    <time>2026-06-24T08:21:33Z</time>
   </trkpt>
   <trkpt lat="-3.2152070" lon="37.3405360">
    <ele>1731.3</ele>
    <time>2026-06-24T08:21:34Z</time>
   </trkpt>
   <trkpt lat="-3.2152100" lon="37.3405360">
    <ele>1731.2</ele>
    <time>2026-06-24T08:21:35Z</time>
   </trkpt>
   <trkpt lat="-3.2152160" lon="37.3405360">
    <ele>1731.1</ele>
    <time>2026-06-24T08:21:36Z</time>
   </trkpt>
   <trkpt lat="-3.2152230" lon="37.3405380">
    <ele>1730.9</ele>
    <time>2026-06-24T08:21:37Z</time>
   </trkpt>
   <trkpt lat="-3.2152240" lon="37.3405370">
    <ele>1730.9</ele>
    <time>2026-06-24T08:21:38Z</time>
   </trkpt>
   <trkpt lat="-3.2152310" lon="37.3405380">
    <ele>1730.7</ele>
    <time>2026-06-24T08:21:39Z</time>
   </trkpt>
   <trkpt lat="-3.2152370" lon="37.3405390">
    <ele>1730.6</ele>
    <time>2026-06-24T08:21:40Z</time>
   </trkpt>
   <trkpt lat="-3.2152420" lon="37.3405400">
    <ele>1730.5</ele>
    <time>2026-06-24T08:21:41Z</time>
   </trkpt>
   <trkpt lat="-3.2152440" lon="37.3405420">
    <ele>1730.4</ele>
    <time>2026-06-24T08:21:42Z</time>
   </trkpt>
   <trkpt lat="-3.2152500" lon="37.3405430">
    <ele>1730.3</ele>
    <time>2026-06-24T08:21:43Z</time>
   </trkpt>
   <trkpt lat="-3.2152620" lon="37.3405440">
    <ele>1730.1</ele>
    <time>2026-06-24T08:21:44Z</time>
   </trkpt>
   <trkpt lat="-3.2152680" lon="37.3405440">
    <ele>1729.9</ele>
    <time>2026-06-24T08:21:45Z</time>
   </trkpt>
   <trkpt lat="-3.2152780" lon="37.3405450">
    <ele>1729.7</ele>
    <time>2026-06-24T08:21:46Z</time>
   </trkpt>
   <trkpt lat="-3.2152860" lon="37.3405470">
    <ele>1729.5</ele>
    <time>2026-06-24T08:21:47Z</time>
   </trkpt>
   <trkpt lat="-3.2152910" lon="37.3405490">
    <ele>1729.4</ele>
    <time>2026-06-24T08:21:48Z</time>
   </trkpt>
   <trkpt lat="-3.2152970" lon="37.3405500">
    <ele>1729.3</ele>
    <time>2026-06-24T08:21:49Z</time>
   </trkpt>
   <trkpt lat="-3.2153070" lon="37.3405510">
    <ele>1729.1</ele>
    <time>2026-06-24T08:21:50Z</time>
   </trkpt>
   <trkpt lat="-3.2153130" lon="37.3405490">
    <ele>1729.0</ele>
    <time>2026-06-24T08:21:51Z</time>
   </trkpt>
   <trkpt lat="-3.2153240" lon="37.3405510">
    <ele>1728.7</ele>
    <time>2026-06-24T08:21:52Z</time>
   </trkpt>
   <trkpt lat="-3.2153330" lon="37.3405530">
    <ele>1728.5</ele>
    <time>2026-06-24T08:21:53Z</time>
   </trkpt>
   <trkpt lat="-3.2153460" lon="37.3405580">
    <ele>1728.2</ele>
    <time>2026-06-24T08:21:54Z</time>
   </trkpt>
   <trkpt lat="-3.2153570" lon="37.3405620">
    <ele>1728.0</ele>
    <time>2026-06-24T08:21:55Z</time>
   </trkpt>
   <trkpt lat="-3.2153670" lon="37.3405670">
    <ele>1727.7</ele>
    <time>2026-06-24T08:21:56Z</time>
   </trkpt>
   <trkpt lat="-3.2153710" lon="37.3405700">
    <ele>1727.6</ele>
    <time>2026-06-24T08:21:57Z</time>
   </trkpt>
   <trkpt lat="-3.2153830" lon="37.3405770">
    <ele>1727.4</ele>
    <time>2026-06-24T08:21:58Z</time>
   </trkpt>
   <trkpt lat="-3.2153910" lon="37.3405860">
    <ele>1727.1</ele>
    <time>2026-06-24T08:21:59Z</time>
   </trkpt>
   <trkpt lat="-3.2154010" lon="37.3405930">
    <ele>1726.8</ele>
    <time>2026-06-24T08:22:00Z</time>
   </trkpt>
   <trkpt lat="-3.2154120" lon="37.3406000">
    <ele>1726.6</ele>
    <time>2026-06-24T08:22:01Z</time>
   </trkpt>
   <trkpt lat="-3.2154240" lon="37.3406020">
    <ele>1726.3</ele>
    <time>2026-06-24T08:22:02Z</time>
   </trkpt>
   <trkpt lat="-3.2154290" lon="37.3406030">
    <ele>1726.2</ele>
    <time>2026-06-24T08:22:03Z</time>
   </trkpt>
   <trkpt lat="-3.2154390" lon="37.3406080">
    <ele>1726.0</ele>
    <time>2026-06-24T08:22:04Z</time>
   </trkpt>
   <trkpt lat="-3.2154440" lon="37.3406150">
    <ele>1725.8</ele>
    <time>2026-06-24T08:22:05Z</time>
   </trkpt>
   <trkpt lat="-3.2154490" lon="37.3406220">
    <ele>1725.6</ele>
    <time>2026-06-24T08:22:06Z</time>
   </trkpt>
   <trkpt lat="-3.2154560" lon="37.3406270">
    <ele>1725.5</ele>
    <time>2026-06-24T08:22:07Z</time>
   </trkpt>
   <trkpt lat="-3.2154660" lon="37.3406300">
    <ele>1725.3</ele>
    <time>2026-06-24T08:22:08Z</time>
   </trkpt>
   <trkpt lat="-3.2154770" lon="37.3406350">
    <ele>1725.0</ele>
    <time>2026-06-24T08:22:09Z</time>
   </trkpt>
   <trkpt lat="-3.2154840" lon="37.3406380">
    <ele>1724.9</ele>
    <time>2026-06-24T08:22:10Z</time>
   </trkpt>
   <trkpt lat="-3.2154910" lon="37.3406410">
    <ele>1724.7</ele>
    <time>2026-06-24T08:22:11Z</time>
   </trkpt>
   <trkpt lat="-3.2155000" lon="37.3406430">
    <ele>1724.5</ele>
    <time>2026-06-24T08:22:12Z</time>
   </trkpt>
   <trkpt lat="-3.2155100" lon="37.3406450">
    <ele>1724.3</ele>
    <time>2026-06-24T08:22:13Z</time>
   </trkpt>
   <trkpt lat="-3.2155240" lon="37.3406490">
    <ele>1724.1</ele>
    <time>2026-06-24T08:22:14Z</time>
   </trkpt>
   <trkpt lat="-3.2155350" lon="37.3406550">
    <ele>1723.9</ele>
    <time>2026-06-24T08:22:15Z</time>
   </trkpt>
   <trkpt lat="-3.2155470" lon="37.3406580">
    <ele>1723.6</ele>
    <time>2026-06-24T08:22:16Z</time>
   </trkpt>
   <trkpt lat="-3.2155580" lon="37.3406620">
    <ele>1723.4</ele>
    <time>2026-06-24T08:22:17Z</time>
   </trkpt>
   <trkpt lat="-3.2155660" lon="37.3406630">
    <ele>1723.3</ele>
    <time>2026-06-24T08:22:18Z</time>
   </trkpt>
   <trkpt lat="-3.2155750" lon="37.3406660">
    <ele>1723.1</ele>
    <time>2026-06-24T08:22:19Z</time>
   </trkpt>
   <trkpt lat="-3.2155890" lon="37.3406760">
    <ele>1722.8</ele>
    <time>2026-06-24T08:22:20Z</time>
   </trkpt>
   <trkpt lat="-3.2155980" lon="37.3406780">
    <ele>1722.6</ele>
    <time>2026-06-24T08:22:21Z</time>
   </trkpt>
   <trkpt lat="-3.2156080" lon="37.3406820">
    <ele>1722.5</ele>
    <time>2026-06-24T08:22:22Z</time>
   </trkpt>
   <trkpt lat="-3.2156190" lon="37.3406840">
    <ele>1722.3</ele>
    <time>2026-06-24T08:22:23Z</time>
   </trkpt>
   <trkpt lat="-3.2156310" lon="37.3406880">
    <ele>1722.1</ele>
    <time>2026-06-24T08:22:24Z</time>
   </trkpt>
   <trkpt lat="-3.2156350" lon="37.3406870">
    <ele>1722.0</ele>
    <time>2026-06-24T08:22:25Z</time>
   </trkpt>
   <trkpt lat="-3.2156400" lon="37.3406850">
    <ele>1721.9</ele>
    <time>2026-06-24T08:22:26Z</time>
   </trkpt>
   <trkpt lat="-3.2156490" lon="37.3406860">
    <ele>1721.7</ele>
    <time>2026-06-24T08:22:27Z</time>
   </trkpt>
   <trkpt lat="-3.2156600" lon="37.3406870">
    <ele>1721.6</ele>
    <time>2026-06-24T08:22:28Z</time>
   </trkpt>
   <trkpt lat="-3.2156690" lon="37.3406910">
    <ele>1721.4</ele>
    <time>2026-06-24T08:22:29Z</time>
   </trkpt>
   <trkpt lat="-3.2156830" lon="37.3406950">
    <ele>1721.2</ele>
    <time>2026-06-24T08:22:30Z</time>
   </trkpt>
   <trkpt lat="-3.2156890" lon="37.3406970">
    <ele>1721.1</ele>
    <time>2026-06-24T08:22:31Z</time>
   </trkpt>
   <trkpt lat="-3.2156960" lon="37.3407000">
    <ele>1720.9</ele>
    <time>2026-06-24T08:22:32Z</time>
   </trkpt>
   <trkpt lat="-3.2157030" lon="37.3407010">
    <ele>1720.8</ele>
    <time>2026-06-24T08:22:33Z</time>
   </trkpt>
   <trkpt lat="-3.2157130" lon="37.3407040">
    <ele>1720.6</ele>
    <time>2026-06-24T08:22:34Z</time>
   </trkpt>
   <trkpt lat="-3.2157270" lon="37.3407080">
    <ele>1720.4</ele>
    <time>2026-06-24T08:22:35Z</time>
   </trkpt>
   <trkpt lat="-3.2157400" lon="37.3407140">
    <ele>1720.2</ele>
    <time>2026-06-24T08:22:36Z</time>
   </trkpt>
   <trkpt lat="-3.2157450" lon="37.3407160">
    <ele>1720.1</ele>
    <time>2026-06-24T08:22:37Z</time>
   </trkpt>
   <trkpt lat="-3.2157580" lon="37.3407180">
    <ele>1719.9</ele>
    <time>2026-06-24T08:22:38Z</time>
   </trkpt>
   <trkpt lat="-3.2157680" lon="37.3407200">
    <ele>1719.7</ele>
    <time>2026-06-24T08:22:39Z</time>
   </trkpt>
   <trkpt lat="-3.2157780" lon="37.3407210">
    <ele>1719.5</ele>
    <time>2026-06-24T08:22:40Z</time>
   </trkpt>
   <trkpt lat="-3.2157880" lon="37.3407250">
    <ele>1719.3</ele>
    <time>2026-06-24T08:22:41Z</time>
   </trkpt>
   <trkpt lat="-3.2157900" lon="37.3407300">
    <ele>1719.2</ele>
    <time>2026-06-24T08:22:42Z</time>
   </trkpt>
   <trkpt lat="-3.2158010" lon="37.3407280">
    <ele>1719.0</ele>
    <time>2026-06-24T08:22:43Z</time>
   </trkpt>
   <trkpt lat="-3.2158130" lon="37.3407270">
    <ele>1718.8</ele>
    <time>2026-06-24T08:22:44Z</time>
   </trkpt>
   <trkpt lat="-3.2158300" lon="37.3407290">
    <ele>1718.5</ele>
    <time>2026-06-24T08:22:45Z</time>
   </trkpt>
   <trkpt lat="-3.2158400" lon="37.3407290">
    <ele>1718.3</ele>
    <time>2026-06-24T08:22:46Z</time>
   </trkpt>
   <trkpt lat="-3.2158480" lon="37.3407330">
    <ele>1718.2</ele>
    <time>2026-06-24T08:22:47Z</time>
   </trkpt>
   <trkpt lat="-3.2158580" lon="37.3407370">
    <ele>1718.0</ele>
    <time>2026-06-24T08:22:48Z</time>
   </trkpt>
   <trkpt lat="-3.2158630" lon="37.3407410">
    <ele>1717.8</ele>
    <time>2026-06-24T08:22:49Z</time>
   </trkpt>
   <trkpt lat="-3.2158720" lon="37.3407490">
    <ele>1717.6</ele>
    <time>2026-06-24T08:22:50Z</time>
   </trkpt>
   <trkpt lat="-3.2158810" lon="37.3407550">
    <ele>1717.4</ele>
    <time>2026-06-24T08:22:51Z</time>
   </trkpt>
   <trkpt lat="-3.2158840" lon="37.3407580">
    <ele>1717.3</ele>
    <time>2026-06-24T08:22:52Z</time>
   </trkpt>
   <trkpt lat="-3.2158920" lon="37.3407650">
    <ele>1717.1</ele>
    <time>2026-06-24T08:22:53Z</time>
   </trkpt>
   <trkpt lat="-3.2159000" lon="37.3407690">
    <ele>1716.9</ele>
    <time>2026-06-24T08:22:54Z</time>
   </trkpt>
   <trkpt lat="-3.2159120" lon="37.3407770">
    <ele>1716.6</ele>
    <time>2026-06-24T08:22:55Z</time>
   </trkpt>
   <trkpt lat="-3.2159170" lon="37.3407780">
    <ele>1716.5</ele>
    <time>2026-06-24T08:22:56Z</time>
   </trkpt>
   <trkpt lat="-3.2159270" lon="37.3407840">
    <ele>1716.2</ele>
    <time>2026-06-24T08:22:57Z</time>
   </trkpt>
   <trkpt lat="-3.2159330" lon="37.3407910">
    <ele>1716.0</ele>
    <time>2026-06-24T08:22:58Z</time>
   </trkpt>
   <trkpt lat="-3.2159380" lon="37.3407920">
    <ele>1715.9</ele>
    <time>2026-06-24T08:22:59Z</time>
   </trkpt>
   <trkpt lat="-3.2159470" lon="37.3407940">
    <ele>1715.7</ele>
    <time>2026-06-24T08:23:00Z</time>
   </trkpt>
   <trkpt lat="-3.2159570" lon="37.3407950">
    <ele>1715.5</ele>
    <time>2026-06-24T08:23:01Z</time>
   </trkpt>
   <trkpt lat="-3.2159620" lon="37.3408000">
    <ele>1715.4</ele>
    <time>2026-06-24T08:23:02Z</time>
   </trkpt>
   <trkpt lat="-3.2159640" lon="37.3408040">
    <ele>1715.3</ele>
    <time>2026-06-24T08:23:03Z</time>
   </trkpt>
   <trkpt lat="-3.2159730" lon="37.3408060">
    <ele>1715.1</ele>
    <time>2026-06-24T08:23:04Z</time>
   </trkpt>
   <trkpt lat="-3.2159800" lon="37.3408070">
    <ele>1714.9</ele>
    <time>2026-06-24T08:23:05Z</time>
   </trkpt>
   <trkpt lat="-3.2159860" lon="37.3408090">
    <ele>1714.8</ele>
    <time>2026-06-24T08:23:06Z</time>
   </trkpt>
   <trkpt lat="-3.2159970" lon="37.3408120">
    <ele>1714.6</ele>
    <time>2026-06-24T08:23:07Z</time>
   </trkpt>
   <trkpt lat="-3.2160020" lon="37.3408160">
    <ele>1714.4</ele>
    <time>2026-06-24T08:23:08Z</time>
   </trkpt>
   <trkpt lat="-3.2160070" lon="37.3408150">
    <ele>1714.3</ele>
    <time>2026-06-24T08:23:09Z</time>
   </trkpt>
   <trkpt lat="-3.2160090" lon="37.3408180">
    <ele>1714.2</ele>
    <time>2026-06-24T08:23:10Z</time>
   </trkpt>
   <trkpt lat="-3.2160150" lon="37.3408240">
    <ele>1714.0</ele>
    <time>2026-06-24T08:23:11Z</time>
   </trkpt>
   <trkpt lat="-3.2160220" lon="37.3408300">
    <ele>1713.8</ele>
    <time>2026-06-24T08:23:12Z</time>
   </trkpt>
   <trkpt lat="-3.2160290" lon="37.3408340">
    <ele>1713.7</ele>
    <time>2026-06-24T08:23:13Z</time>
   </trkpt>
   <trkpt lat="-3.2160360" lon="37.3408400">
    <ele>1713.5</ele>
    <time>2026-06-24T08:23:14Z</time>
   </trkpt>
   <trkpt lat="-3.2160450" lon="37.3408450">
    <ele>1713.3</ele>
    <time>2026-06-24T08:23:15Z</time>
   </trkpt>
   <trkpt lat="-3.2160550" lon="37.3408490">
    <ele>1713.1</ele>
    <time>2026-06-24T08:23:16Z</time>
   </trkpt>
   <trkpt lat="-3.2160690" lon="37.3408530">
    <ele>1712.8</ele>
    <time>2026-06-24T08:23:17Z</time>
   </trkpt>
   <trkpt lat="-3.2160780" lon="37.3408580">
    <ele>1712.6</ele>
    <time>2026-06-24T08:23:18Z</time>
   </trkpt>
   <trkpt lat="-3.2160860" lon="37.3408640">
    <ele>1712.4</ele>
    <time>2026-06-24T08:23:19Z</time>
   </trkpt>
   <trkpt lat="-3.2161000" lon="37.3408670">
    <ele>1712.1</ele>
    <time>2026-06-24T08:23:20Z</time>
   </trkpt>
   <trkpt lat="-3.2161070" lon="37.3408690">
    <ele>1712.0</ele>
    <time>2026-06-24T08:23:21Z</time>
   </trkpt>
   <trkpt lat="-3.2161150" lon="37.3408740">
    <ele>1711.8</ele>
    <time>2026-06-24T08:23:22Z</time>
   </trkpt>
   <trkpt lat="-3.2161290" lon="37.3408800">
    <ele>1711.6</ele>
    <time>2026-06-24T08:23:23Z</time>
   </trkpt>
   <trkpt lat="-3.2161330" lon="37.3408870">
    <ele>1711.4</ele>
    <time>2026-06-24T08:23:24Z</time>
   </trkpt>
   <trkpt lat="-3.2161380" lon="37.3408950">
    <ele>1711.3</ele>
    <time>2026-06-24T08:23:25Z</time>
   </trkpt>
   <trkpt lat="-3.2161580" lon="37.3409050">
    <ele>1710.9</ele>
    <time>2026-06-24T08:23:26Z</time>
   </trkpt>
   <trkpt lat="-3.2161680" lon="37.3409100">
    <ele>1710.7</ele>
    <time>2026-06-24T08:23:27Z</time>
   </trkpt>
   <trkpt lat="-3.2161790" lon="37.3409130">
    <ele>1710.6</ele>
    <time>2026-06-24T08:23:28Z</time>
   </trkpt>
   <trkpt lat="-3.2161900" lon="37.3409170">
    <ele>1710.4</ele>
    <time>2026-06-24T08:23:29Z</time>
   </trkpt>
   <trkpt lat="-3.2161990" lon="37.3409170">
    <ele>1710.2</ele>
    <time>2026-06-24T08:23:30Z</time>
   </trkpt>
   <trkpt lat="-3.2162080" lon="37.3409200">
    <ele>1710.1</ele>
    <time>2026-06-24T08:23:31Z</time>
   </trkpt>
   <trkpt lat="-3.2162210" lon="37.3409250">
    <ele>1709.9</ele>
    <time>2026-06-24T08:23:32Z</time>
   </trkpt>
   <trkpt lat="-3.2162330" lon="37.3409270">
    <ele>1709.7</ele>
    <time>2026-06-24T08:23:33Z</time>
   </trkpt>
   <trkpt lat="-3.2162420" lon="37.3409260">
    <ele>1709.6</ele>
    <time>2026-06-24T08:23:34Z</time>
   </trkpt>
   <trkpt lat="-3.2162500" lon="37.3409310">
    <ele>1709.5</ele>
    <time>2026-06-24T08:23:35Z</time>
   </trkpt>
   <trkpt lat="-3.2162630" lon="37.3409340">
    <ele>1709.3</ele>
    <time>2026-06-24T08:23:36Z</time>
   </trkpt>
   <trkpt lat="-3.2162780" lon="37.3409370">
    <ele>1709.0</ele>
    <time>2026-06-24T08:23:37Z</time>
   </trkpt>
   <trkpt lat="-3.2162880" lon="37.3409420">
    <ele>1708.9</ele>
    <time>2026-06-24T08:23:38Z</time>
   </trkpt>
   <trkpt lat="-3.2162940" lon="37.3409430">
    <ele>1708.8</ele>
    <time>2026-06-24T08:23:39Z</time>
   </trkpt>
   <trkpt lat="-3.2163060" lon="37.3409510">
    <ele>1708.6</ele>
    <time>2026-06-24T08:23:40Z</time>
   </trkpt>
   <trkpt lat="-3.2163190" lon="37.3409550">
    <ele>1708.4</ele>
    <time>2026-06-24T08:23:41Z</time>
   </trkpt>
   <trkpt lat="-3.2163280" lon="37.3409550">
    <ele>1708.3</ele>
    <time>2026-06-24T08:23:42Z</time>
   </trkpt>
   <trkpt lat="-3.2163380" lon="37.3409590">
    <ele>1708.1</ele>
    <time>2026-06-24T08:23:43Z</time>
   </trkpt>
   <trkpt lat="-3.2163470" lon="37.3409630">
    <ele>1708.0</ele>
    <time>2026-06-24T08:23:44Z</time>
   </trkpt>
   <trkpt lat="-3.2163580" lon="37.3409690">
    <ele>1707.8</ele>
    <time>2026-06-24T08:23:45Z</time>
   </trkpt>
   <trkpt lat="-3.2163660" lon="37.3409750">
    <ele>1707.6</ele>
    <time>2026-06-24T08:23:46Z</time>
   </trkpt>
   <trkpt lat="-3.2163700" lon="37.3409730">
    <ele>1707.6</ele>
    <time>2026-06-24T08:23:47Z</time>
   </trkpt>
   <trkpt lat="-3.2163790" lon="37.3409750">
    <ele>1707.4</ele>
    <time>2026-06-24T08:23:48Z</time>
   </trkpt>
   <trkpt lat="-3.2163890" lon="37.3409790">
    <ele>1707.3</ele>
    <time>2026-06-24T08:23:49Z</time>
   </trkpt>
   <trkpt lat="-3.2163960" lon="37.3409820">
    <ele>1707.1</ele>
    <time>2026-06-24T08:23:50Z</time>
   </trkpt>
   <trkpt lat="-3.2164090" lon="37.3409890">
    <ele>1706.9</ele>
    <time>2026-06-24T08:23:51Z</time>
   </trkpt>
   <trkpt lat="-3.2164150" lon="37.3409920">
    <ele>1706.8</ele>
    <time>2026-06-24T08:23:52Z</time>
   </trkpt>
   <trkpt lat="-3.2164230" lon="37.3409980">
    <ele>1706.6</ele>
    <time>2026-06-24T08:23:53Z</time>
   </trkpt>
   <trkpt lat="-3.2164390" lon="37.3410050">
    <ele>1706.4</ele>
    <time>2026-06-24T08:23:54Z</time>
   </trkpt>
   <trkpt lat="-3.2164530" lon="37.3410090">
    <ele>1706.1</ele>
    <time>2026-06-24T08:23:55Z</time>
   </trkpt>
   <trkpt lat="-3.2164630" lon="37.3410150">
    <ele>1705.9</ele>
    <time>2026-06-24T08:23:56Z</time>
   </trkpt>
   <trkpt lat="-3.2164710" lon="37.3410200">
    <ele>1705.8</ele>
    <time>2026-06-24T08:23:57Z</time>
   </trkpt>
   <trkpt lat="-3.2164810" lon="37.3410250">
    <ele>1705.6</ele>
    <time>2026-06-24T08:23:58Z</time>
   </trkpt>
   <trkpt lat="-3.2165030" lon="37.3410350">
    <ele>1705.2</ele>
    <time>2026-06-24T08:23:59Z</time>
   </trkpt>
   <trkpt lat="-3.2165110" lon="37.3410380">
    <ele>1705.0</ele>
    <time>2026-06-24T08:24:00Z</time>
   </trkpt>
   <trkpt lat="-3.2165150" lon="37.3410390">
    <ele>1705.0</ele>
    <time>2026-06-24T08:24:01Z</time>
   </trkpt>
   <trkpt lat="-3.2165210" lon="37.3410390">
    <ele>1704.9</ele>
    <time>2026-06-24T08:24:02Z</time>
   </trkpt>
   <trkpt lat="-3.2165340" lon="37.3410400">
    <ele>1704.7</ele>
    <time>2026-06-24T08:24:03Z</time>
   </trkpt>
   <trkpt lat="-3.2165420" lon="37.3410480">
    <ele>1704.5</ele>
    <time>2026-06-24T08:24:04Z</time>
   </trkpt>
   <trkpt lat="-3.2165460" lon="37.3410500">
    <ele>1704.4</ele>
    <time>2026-06-24T08:24:05Z</time>
   </trkpt>
   <trkpt lat="-3.2165540" lon="37.3410540">
    <ele>1704.3</ele>
    <time>2026-06-24T08:24:06Z</time>
   </trkpt>
   <trkpt lat="-3.2165660" lon="37.3410570">
    <ele>1704.1</ele>
    <time>2026-06-24T08:24:07Z</time>
   </trkpt>
   <trkpt lat="-3.2165770" lon="37.3410590">
    <ele>1703.9</ele>
    <time>2026-06-24T08:24:08Z</time>
   </trkpt>
   <trkpt lat="-3.2165880" lon="37.3410670">
    <ele>1703.7</ele>
    <time>2026-06-24T08:24:09Z</time>
   </trkpt>
   <trkpt lat="-3.2165990" lon="37.3410730">
    <ele>1703.5</ele>
    <time>2026-06-24T08:24:10Z</time>
   </trkpt>
   <trkpt lat="-3.2166090" lon="37.3410780">
    <ele>1703.3</ele>
    <time>2026-06-24T08:24:11Z</time>
   </trkpt>
   <trkpt lat="-3.2166210" lon="37.3410800">
    <ele>1703.1</ele>
    <time>2026-06-24T08:24:12Z</time>
   </trkpt>
   <trkpt lat="-3.2166320" lon="37.3410840">
    <ele>1703.0</ele>
    <time>2026-06-24T08:24:13Z</time>
   </trkpt>
   <trkpt lat="-3.2166440" lon="37.3410860">
    <ele>1702.8</ele>
    <time>2026-06-24T08:24:14Z</time>
   </trkpt>
   <trkpt lat="-3.2166550" lon="37.3410900">
    <ele>1702.7</ele>
    <time>2026-06-24T08:24:15Z</time>
   </trkpt>
   <trkpt lat="-3.2166620" lon="37.3410930">
    <ele>1702.6</ele>
    <time>2026-06-24T08:24:16Z</time>
   </trkpt>
   <trkpt lat="-3.2166710" lon="37.3410950">
    <ele>1702.4</ele>
    <time>2026-06-24T08:24:17Z</time>
   </trkpt>
   <trkpt lat="-3.2166820" lon="37.3410960">
    <ele>1702.3</ele>
    <time>2026-06-24T08:24:18Z</time>
   </trkpt>
   <trkpt lat="-3.2166870" lon="37.3410990">
    <ele>1702.2</ele>
    <time>2026-06-24T08:24:19Z</time>
   </trkpt>
   <trkpt lat="-3.2166990" lon="37.3411060">
    <ele>1702.1</ele>
    <time>2026-06-24T08:24:20Z</time>
   </trkpt>
   <trkpt lat="-3.2167120" lon="37.3411110">
    <ele>1701.9</ele>
    <time>2026-06-24T08:24:21Z</time>
   </trkpt>
   <trkpt lat="-3.2167160" lon="37.3411170">
    <ele>1701.8</ele>
    <time>2026-06-24T08:24:22Z</time>
   </trkpt>
   <trkpt lat="-3.2167240" lon="37.3411240">
    <ele>1701.7</ele>
    <time>2026-06-24T08:24:23Z</time>
   </trkpt>
   <trkpt lat="-3.2167370" lon="37.3411280">
    <ele>1701.6</ele>
    <time>2026-06-24T08:24:24Z</time>
   </trkpt>
   <trkpt lat="-3.2167580" lon="37.3411340">
    <ele>1701.4</ele>
    <time>2026-06-24T08:24:25Z</time>
   </trkpt>
   <trkpt lat="-3.2167670" lon="37.3411350">
    <ele>1701.3</ele>
    <time>2026-06-24T08:24:26Z</time>
   </trkpt>
   <trkpt lat="-3.2167770" lon="37.3411370">
    <ele>1701.2</ele>
    <time>2026-06-24T08:24:27Z</time>
   </trkpt>
   <trkpt lat="-3.2167880" lon="37.3411430">
    <ele>1701.1</ele>
    <time>2026-06-24T08:24:28Z</time>
   </trkpt>
   <trkpt lat="-3.2167990" lon="37.3411480">
    <ele>1700.9</ele>
    <time>2026-06-24T08:24:29Z</time>
   </trkpt>
   <trkpt lat="-3.2168140" lon="37.3411530">
    <ele>1700.8</ele>
    <time>2026-06-24T08:24:30Z</time>
   </trkpt>
   <trkpt lat="-3.2168300" lon="37.3411600">
    <ele>1700.6</ele>
    <time>2026-06-24T08:24:31Z</time>
   </trkpt>
   <trkpt lat="-3.2168430" lon="37.3411660">
    <ele>1700.5</ele>
    <time>2026-06-24T08:24:32Z</time>
   </trkpt>
   <trkpt lat="-3.2168570" lon="37.3411730">
    <ele>1700.4</ele>
    <time>2026-06-24T08:24:33Z</time>
   </trkpt>
   <trkpt lat="-3.2168700" lon="37.3411850">
    <ele>1700.2</ele>
    <time>2026-06-24T08:24:34Z</time>
   </trkpt>
   <trkpt lat="-3.2168810" lon="37.3411890">
    <ele>1700.1</ele>
    <time>2026-06-24T08:24:35Z</time>
   </trkpt>
   <trkpt lat="-3.2168900" lon="37.3411950">
    <ele>1700.0</ele>
    <time>2026-06-24T08:24:36Z</time>
   </trkpt>
   <trkpt lat="-3.2169050" lon="37.3412040">
    <ele>1699.9</ele>
    <time>2026-06-24T08:24:37Z</time>
   </trkpt>
   <trkpt lat="-3.2169220" lon="37.3412130">
    <ele>1699.7</ele>
    <time>2026-06-24T08:24:38Z</time>
   </trkpt>
   <trkpt lat="-3.2169300" lon="37.3412200">
    <ele>1699.6</ele>
    <time>2026-06-24T08:24:39Z</time>
   </trkpt>
   <trkpt lat="-3.2169390" lon="37.3412290">
    <ele>1699.5</ele>
    <time>2026-06-24T08:24:40Z</time>
   </trkpt>
   <trkpt lat="-3.2169460" lon="37.3412360">
    <ele>1699.4</ele>
    <time>2026-06-24T08:24:41Z</time>
   </trkpt>
   <trkpt lat="-3.2169550" lon="37.3412450">
    <ele>1699.3</ele>
    <time>2026-06-24T08:24:42Z</time>
   </trkpt>
   <trkpt lat="-3.2169710" lon="37.3412540">
    <ele>1699.1</ele>
    <time>2026-06-24T08:24:43Z</time>
   </trkpt>
   <trkpt lat="-3.2169840" lon="37.3412630">
    <ele>1699.0</ele>
    <time>2026-06-24T08:24:44Z</time>
   </trkpt>
   <trkpt lat="-3.2169980" lon="37.3412770">
    <ele>1698.7</ele>
    <time>2026-06-24T08:24:45Z</time>
   </trkpt>
   <trkpt lat="-3.2170110" lon="37.3412880">
    <ele>1698.5</ele>
    <time>2026-06-24T08:24:46Z</time>
   </trkpt>
   <trkpt lat="-3.2170200" lon="37.3412970">
    <ele>1698.4</ele>
    <time>2026-06-24T08:24:47Z</time>
   </trkpt>
   <trkpt lat="-3.2170290" lon="37.3413070">
    <ele>1698.2</ele>
    <time>2026-06-24T08:24:48Z</time>
   </trkpt>
   <trkpt lat="-3.2170360" lon="37.3413150">
    <ele>1698.0</ele>
    <time>2026-06-24T08:24:49Z</time>
   </trkpt>
   <trkpt lat="-3.2170390" lon="37.3413220">
    <ele>1697.9</ele>
    <time>2026-06-24T08:24:50Z</time>
   </trkpt>
   <trkpt lat="-3.2170390" lon="37.3413330">
    <ele>1697.8</ele>
    <time>2026-06-24T08:24:51Z</time>
   </trkpt>
   <trkpt lat="-3.2170460" lon="37.3413410">
    <ele>1697.6</ele>
    <time>2026-06-24T08:24:52Z</time>
   </trkpt>
   <trkpt lat="-3.2170510" lon="37.3413520">
    <ele>1697.4</ele>
    <time>2026-06-24T08:24:53Z</time>
   </trkpt>
   <trkpt lat="-3.2170590" lon="37.3413570">
    <ele>1697.3</ele>
    <time>2026-06-24T08:24:54Z</time>
   </trkpt>
   <trkpt lat="-3.2170600" lon="37.3413620">
    <ele>1697.2</ele>
    <time>2026-06-24T08:24:55Z</time>
   </trkpt>
   <trkpt lat="-3.2170670" lon="37.3413770">
    <ele>1696.9</ele>
    <time>2026-06-24T08:24:56Z</time>
   </trkpt>
   <trkpt lat="-3.2170740" lon="37.3413880">
    <ele>1696.7</ele>
    <time>2026-06-24T08:24:57Z</time>
   </trkpt>
   <trkpt lat="-3.2170770" lon="37.3413950">
    <ele>1696.5</ele>
    <time>2026-06-24T08:24:58Z</time>
   </trkpt>
   <trkpt lat="-3.2170800" lon="37.3414050">
    <ele>1696.4</ele>
    <time>2026-06-24T08:24:59Z</time>
   </trkpt>
   <trkpt lat="-3.2170820" lon="37.3414130">
    <ele>1696.2</ele>
    <time>2026-06-24T08:25:00Z</time>
   </trkpt>
   <trkpt lat="-3.2170830" lon="37.3414180">
    <ele>1696.1</ele>
    <time>2026-06-24T08:25:01Z</time>
   </trkpt>
   <trkpt lat="-3.2170850" lon="37.3414240">
    <ele>1696.0</ele>
    <time>2026-06-24T08:25:02Z</time>
   </trkpt>
   <trkpt lat="-3.2170880" lon="37.3414310">
    <ele>1695.9</ele>
    <time>2026-06-24T08:25:03Z</time>
   </trkpt>
   <trkpt lat="-3.2170860" lon="37.3414410">
    <ele>1695.7</ele>
    <time>2026-06-24T08:25:04Z</time>
   </trkpt>
   <trkpt lat="-3.2170810" lon="37.3414490">
    <ele>1695.5</ele>
    <time>2026-06-24T08:25:05Z</time>
   </trkpt>
   <trkpt lat="-3.2170790" lon="37.3414620">
    <ele>1695.3</ele>
    <time>2026-06-24T08:25:06Z</time>
   </trkpt>
   <trkpt lat="-3.2170760" lon="37.3414720">
    <ele>1695.1</ele>
    <time>2026-06-24T08:25:07Z</time>
   </trkpt>
   <trkpt lat="-3.2170750" lon="37.3414800">
    <ele>1695.0</ele>
    <time>2026-06-24T08:25:08Z</time>
   </trkpt>
   <trkpt lat="-3.2170750" lon="37.3414850">
    <ele>1694.9</ele>
    <time>2026-06-24T08:25:09Z</time>
   </trkpt>
   <trkpt lat="-3.2170730" lon="37.3414940">
    <ele>1694.7</ele>
    <time>2026-06-24T08:25:10Z</time>
   </trkpt>
   <trkpt lat="-3.2170740" lon="37.3415090">
    <ele>1694.5</ele>
    <time>2026-06-24T08:25:11Z</time>
   </trkpt>
   <trkpt lat="-3.2170750" lon="37.3415210">
    <ele>1694.3</ele>
    <time>2026-06-24T08:25:12Z</time>
   </trkpt>
   <trkpt lat="-3.2170750" lon="37.3415330">
    <ele>1694.1</ele>
    <time>2026-06-24T08:25:13Z</time>
   </trkpt>
   <trkpt lat="-3.2170800" lon="37.3415410">
    <ele>1693.9</ele>
    <time>2026-06-24T08:25:14Z</time>
   </trkpt>
   <trkpt lat="-3.2170810" lon="37.3415560">
    <ele>1693.7</ele>
    <time>2026-06-24T08:25:15Z</time>
   </trkpt>
   <trkpt lat="-3.2170850" lon="37.3415640">
    <ele>1693.6</ele>
    <time>2026-06-24T08:25:16Z</time>
   </trkpt>
   <trkpt lat="-3.2170860" lon="37.3415730">
    <ele>1693.4</ele>
    <time>2026-06-24T08:25:17Z</time>
   </trkpt>
   <trkpt lat="-3.2170910" lon="37.3415870">
    <ele>1693.2</ele>
    <time>2026-06-24T08:25:18Z</time>
   </trkpt>
   <trkpt lat="-3.2170950" lon="37.3416040">
    <ele>1693.0</ele>
    <time>2026-06-24T08:25:19Z</time>
   </trkpt>
   <trkpt lat="-3.2170980" lon="37.3416100">
    <ele>1692.9</ele>
    <time>2026-06-24T08:25:20Z</time>
   </trkpt>
   <trkpt lat="-3.2171150" lon="37.3416220">
    <ele>1692.6</ele>
    <time>2026-06-24T08:25:21Z</time>
   </trkpt>
   <trkpt lat="-3.2171240" lon="37.3416340">
    <ele>1692.4</ele>
    <time>2026-06-24T08:25:22Z</time>
   </trkpt>
   <trkpt lat="-3.2171290" lon="37.3416440">
    <ele>1692.3</ele>
    <time>2026-06-24T08:25:23Z</time>
   </trkpt>
   <trkpt lat="-3.2171380" lon="37.3416550">
    <ele>1692.2</ele>
    <time>2026-06-24T08:25:24Z</time>
   </trkpt>
   <trkpt lat="-3.2171480" lon="37.3416710">
    <ele>1691.9</ele>
    <time>2026-06-24T08:25:25Z</time>
   </trkpt>
   <trkpt lat="-3.2171550" lon="37.3416810">
    <ele>1691.8</ele>
    <time>2026-06-24T08:25:26Z</time>
   </trkpt>
   <trkpt lat="-3.2171570" lon="37.3416910">
    <ele>1691.7</ele>
    <time>2026-06-24T08:25:27Z</time>
   </trkpt>
   <trkpt lat="-3.2171640" lon="37.3417010">
    <ele>1691.6</ele>
    <time>2026-06-24T08:25:28Z</time>
   </trkpt>
   <trkpt lat="-3.2171710" lon="37.3417140">
    <ele>1691.4</ele>
    <time>2026-06-24T08:25:29Z</time>
   </trkpt>
   <trkpt lat="-3.2171750" lon="37.3417220">
    <ele>1691.4</ele>
    <time>2026-06-24T08:25:30Z</time>
   </trkpt>
   <trkpt lat="-3.2171790" lon="37.3417290">
    <ele>1691.3</ele>
    <time>2026-06-24T08:25:31Z</time>
   </trkpt>
   <trkpt lat="-3.2171890" lon="37.3417420">
    <ele>1691.1</ele>
    <time>2026-06-24T08:25:32Z</time>
   </trkpt>
   <trkpt lat="-3.2172010" lon="37.3417560">
    <ele>1691.0</ele>
    <time>2026-06-24T08:25:33Z</time>
   </trkpt>
   <trkpt lat="-3.2172070" lon="37.3417660">
    <ele>1690.9</ele>
    <time>2026-06-24T08:25:34Z</time>
   </trkpt>
   <trkpt lat="-3.2172170" lon="37.3417780">
    <ele>1690.8</ele>
    <time>2026-06-24T08:25:35Z</time>
   </trkpt>
   <trkpt lat="-3.2172250" lon="37.3417890">
    <ele>1690.7</ele>
    <time>2026-06-24T08:25:36Z</time>
   </trkpt>
   <trkpt lat="-3.2172330" lon="37.3417970">
    <ele>1690.6</ele>
    <time>2026-06-24T08:25:37Z</time>
   </trkpt>
   <trkpt lat="-3.2172480" lon="37.3418100">
    <ele>1690.4</ele>
    <time>2026-06-24T08:25:38Z</time>
   </trkpt>
   <trkpt lat="-3.2172540" lon="37.3418190">
    <ele>1690.3</ele>
    <time>2026-06-24T08:25:39Z</time>
   </trkpt>
   <trkpt lat="-3.2172590" lon="37.3418290">
    <ele>1690.2</ele>
    <time>2026-06-24T08:25:40Z</time>
   </trkpt>
   <trkpt lat="-3.2172640" lon="37.3418400">
    <ele>1690.1</ele>
    <time>2026-06-24T08:25:41Z</time>
   </trkpt>
   <trkpt lat="-3.2172730" lon="37.3418510">
    <ele>1690.0</ele>
    <time>2026-06-24T08:25:42Z</time>
   </trkpt>
   <trkpt lat="-3.2172810" lon="37.3418630">
    <ele>1689.9</ele>
    <time>2026-06-24T08:25:43Z</time>
   </trkpt>
   <trkpt lat="-3.2172860" lon="37.3418700">
    <ele>1689.8</ele>
    <time>2026-06-24T08:25:44Z</time>
   </trkpt>
   <trkpt lat="-3.2172940" lon="37.3418790">
    <ele>1689.7</ele>
    <time>2026-06-24T08:25:45Z</time>
   </trkpt>
   <trkpt lat="-3.2172970" lon="37.3418880">
    <ele>1689.6</ele>
    <time>2026-06-24T08:25:46Z</time>
   </trkpt>
   <trkpt lat="-3.2173030" lon="37.3418970">
    <ele>1689.5</ele>
    <time>2026-06-24T08:25:47Z</time>
   </trkpt>
   <trkpt lat="-3.2173140" lon="37.3419080">
    <ele>1689.4</ele>
    <time>2026-06-24T08:25:48Z</time>
   </trkpt>
   <trkpt lat="-3.2173210" lon="37.3419200">
    <ele>1689.3</ele>
    <time>2026-06-24T08:25:49Z</time>
   </trkpt>
   <trkpt lat="-3.2173220" lon="37.3419270">
    <ele>1689.2</ele>
    <time>2026-06-24T08:25:50Z</time>
   </trkpt>
   <trkpt lat="-3.2173300" lon="37.3419370">
    <ele>1689.1</ele>
    <time>2026-06-24T08:25:51Z</time>
   </trkpt>
   <trkpt lat="-3.2173370" lon="37.3419490">
    <ele>1688.9</ele>
    <time>2026-06-24T08:25:52Z</time>
   </trkpt>
   <trkpt lat="-3.2173420" lon="37.3419570">
    <ele>1688.8</ele>
    <time>2026-06-24T08:25:53Z</time>
   </trkpt>
   <trkpt lat="-3.2173490" lon="37.3419620">
    <ele>1688.7</ele>
    <time>2026-06-24T08:25:54Z</time>
   </trkpt>
   <trkpt lat="-3.2173530" lon="37.3419750">
    <ele>1688.6</ele>
    <time>2026-06-24T08:25:55Z</time>
   </trkpt>
   <trkpt lat="-3.2173590" lon="37.3419910">
    <ele>1688.3</ele>
    <time>2026-06-24T08:25:56Z</time>
   </trkpt>
   <trkpt lat="-3.2173640" lon="37.3419990">
    <ele>1688.2</ele>
    <time>2026-06-24T08:25:57Z</time>
   </trkpt>
   <trkpt lat="-3.2173650" lon="37.3420050">
    <ele>1688.1</ele>
    <time>2026-06-24T08:25:58Z</time>
   </trkpt>
   <trkpt lat="-3.2173710" lon="37.3420190">
    <ele>1688.0</ele>
    <time>2026-06-24T08:25:59Z</time>
   </trkpt>
   <trkpt lat="-3.2173760" lon="37.3420370">
    <ele>1687.7</ele>
    <time>2026-06-24T08:26:00Z</time>
   </trkpt>
   <trkpt lat="-3.2173800" lon="37.3420530">
    <ele>1687.5</ele>
    <time>2026-06-24T08:26:01Z</time>
   </trkpt>
   <trkpt lat="-3.2173840" lon="37.3420650">
    <ele>1687.3</ele>
    <time>2026-06-24T08:26:02Z</time>
   </trkpt>
   <trkpt lat="-3.2173850" lon="37.3420840">
    <ele>1687.1</ele>
    <time>2026-06-24T08:26:03Z</time>
   </trkpt>
   <trkpt lat="-3.2173880" lon="37.3420960">
    <ele>1686.9</ele>
    <time>2026-06-24T08:26:04Z</time>
   </trkpt>
   <trkpt lat="-3.2173920" lon="37.3421110">
    <ele>1686.7</ele>
    <time>2026-06-24T08:26:05Z</time>
   </trkpt>
   <trkpt lat="-3.2173950" lon="37.3421220">
    <ele>1686.6</ele>
    <time>2026-06-24T08:26:06Z</time>
   </trkpt>
   <trkpt lat="-3.2173960" lon="37.3421350">
    <ele>1686.4</ele>
    <time>2026-06-24T08:26:07Z</time>
   </trkpt>
   <trkpt lat="-3.2173970" lon="37.3421460">
    <ele>1686.2</ele>
    <time>2026-06-24T08:26:08Z</time>
   </trkpt>
   <trkpt lat="-3.2173960" lon="37.3421590">
    <ele>1686.1</ele>
    <time>2026-06-24T08:26:09Z</time>
   </trkpt>
   <trkpt lat="-3.2173980" lon="37.3421650">
    <ele>1686.0</ele>
    <time>2026-06-24T08:26:10Z</time>
   </trkpt>
   <trkpt lat="-3.2173980" lon="37.3421720">
    <ele>1685.9</ele>
    <time>2026-06-24T08:26:11Z</time>
   </trkpt>
   <trkpt lat="-3.2173980" lon="37.3421840">
    <ele>1685.7</ele>
    <time>2026-06-24T08:26:12Z</time>
   </trkpt>
   <trkpt lat="-3.2173960" lon="37.3421960">
    <ele>1685.6</ele>
    <time>2026-06-24T08:26:13Z</time>
   </trkpt>
   <trkpt lat="-3.2173910" lon="37.3422120">
    <ele>1685.3</ele>
    <time>2026-06-24T08:26:14Z</time>
   </trkpt>
   <trkpt lat="-3.2173930" lon="37.3422240">
    <ele>1685.2</ele>
    <time>2026-06-24T08:26:15Z</time>
   </trkpt>
   <trkpt lat="-3.2173900" lon="37.3422370">
    <ele>1685.0</ele>
    <time>2026-06-24T08:26:16Z</time>
   </trkpt>
   <trkpt lat="-3.2173860" lon="37.3422540">
    <ele>1684.8</ele>
    <time>2026-06-24T08:26:17Z</time>
   </trkpt>
   <trkpt lat="-3.2173820" lon="37.3422590">
    <ele>1684.7</ele>
    <time>2026-06-24T08:26:18Z</time>
   </trkpt>
   <trkpt lat="-3.2173780" lon="37.3422720">
    <ele>1684.5</ele>
    <time>2026-06-24T08:26:19Z</time>
   </trkpt>
   <trkpt lat="-3.2173790" lon="37.3422840">
    <ele>1684.4</ele>
    <time>2026-06-24T08:26:20Z</time>
   </trkpt>
   <trkpt lat="-3.2173780" lon="37.3422970">
    <ele>1684.2</ele>
    <time>2026-06-24T08:26:21Z</time>
   </trkpt>
   <trkpt lat="-3.2173760" lon="37.3423110">
    <ele>1684.1</ele>
    <time>2026-06-24T08:26:22Z</time>
   </trkpt>
   <trkpt lat="-3.2173740" lon="37.3423220">
    <ele>1683.9</ele>
    <time>2026-06-24T08:26:23Z</time>
   </trkpt>
   <trkpt lat="-3.2173720" lon="37.3423390">
    <ele>1683.7</ele>
    <time>2026-06-24T08:26:24Z</time>
   </trkpt>
   <trkpt lat="-3.2173720" lon="37.3423510">
    <ele>1683.6</ele>
    <time>2026-06-24T08:26:25Z</time>
   </trkpt>
   <trkpt lat="-3.2173730" lon="37.3423600">
    <ele>1683.5</ele>
    <time>2026-06-24T08:26:26Z</time>
   </trkpt>
   <trkpt lat="-3.2173730" lon="37.3423690">
    <ele>1683.3</ele>
    <time>2026-06-24T08:26:27Z</time>
   </trkpt>
   <trkpt lat="-3.2173710" lon="37.3423840">
    <ele>1683.2</ele>
    <time>2026-06-24T08:26:28Z</time>
   </trkpt>
   <trkpt lat="-3.2173690" lon="37.3424000">
    <ele>1683.0</ele>
    <time>2026-06-24T08:26:29Z</time>
   </trkpt>
   <trkpt lat="-3.2173710" lon="37.3424110">
    <ele>1682.9</ele>
    <time>2026-06-24T08:26:30Z</time>
   </trkpt>
   <trkpt lat="-3.2173800" lon="37.3424200">
    <ele>1682.7</ele>
    <time>2026-06-24T08:26:31Z</time>
   </trkpt>
   <trkpt lat="-3.2173780" lon="37.3424350">
    <ele>1682.5</ele>
    <time>2026-06-24T08:26:32Z</time>
   </trkpt>
   <trkpt lat="-3.2173740" lon="37.3424460">
    <ele>1682.4</ele>
    <time>2026-06-24T08:26:33Z</time>
   </trkpt>
   <trkpt lat="-3.2173730" lon="37.3424570">
    <ele>1682.3</ele>
    <time>2026-06-24T08:26:34Z</time>
   </trkpt>
   <trkpt lat="-3.2173730" lon="37.3424710">
    <ele>1682.1</ele>
    <time>2026-06-24T08:26:35Z</time>
   </trkpt>
   <trkpt lat="-3.2173740" lon="37.3424810">
    <ele>1682.0</ele>
    <time>2026-06-24T08:26:36Z</time>
   </trkpt>
   <trkpt lat="-3.2173770" lon="37.3424940">
    <ele>1681.9</ele>
    <time>2026-06-24T08:26:37Z</time>
   </trkpt>
   <trkpt lat="-3.2173790" lon="37.3425040">
    <ele>1681.8</ele>
    <time>2026-06-24T08:26:38Z</time>
   </trkpt>
   <trkpt lat="-3.2173810" lon="37.3425140">
    <ele>1681.6</ele>
    <time>2026-06-24T08:26:39Z</time>
   </trkpt>
   <trkpt lat="-3.2173820" lon="37.3425280">
    <ele>1681.5</ele>
    <time>2026-06-24T08:26:40Z</time>
   </trkpt>
   <trkpt lat="-3.2173840" lon="37.3425400">
    <ele>1681.4</ele>
    <time>2026-06-24T08:26:41Z</time>
   </trkpt>
   <trkpt lat="-3.2173880" lon="37.3425510">
    <ele>1681.2</ele>
    <time>2026-06-24T08:26:42Z</time>
   </trkpt>
   <trkpt lat="-3.2173960" lon="37.3425670">
    <ele>1681.1</ele>
    <time>2026-06-24T08:26:43Z</time>
   </trkpt>
   <trkpt lat="-3.2174020" lon="37.3425780">
    <ele>1680.9</ele>
    <time>2026-06-24T08:26:44Z</time>
   </trkpt>
   <trkpt lat="-3.2174070" lon="37.3425810">
    <ele>1680.9</ele>
    <time>2026-06-24T08:26:45Z</time>
   </trkpt>
   <trkpt lat="-3.2174160" lon="37.3425920">
    <ele>1680.7</ele>
    <time>2026-06-24T08:26:46Z</time>
   </trkpt>
   <trkpt lat="-3.2174180" lon="37.3426010">
    <ele>1680.6</ele>
    <time>2026-06-24T08:26:47Z</time>
   </trkpt>
   <trkpt lat="-3.2174170" lon="37.3426100">
    <ele>1680.5</ele>
    <time>2026-06-24T08:26:48Z</time>
   </trkpt>
   <trkpt lat="-3.2174140" lon="37.3426110">
    <ele>1680.5</ele>
    <time>2026-06-24T08:26:49Z</time>
   </trkpt>
   <trkpt lat="-3.2174120" lon="37.3426140">
    <ele>1680.5</ele>
    <time>2026-06-24T08:26:50Z</time>
   </trkpt>
   <trkpt lat="-3.2174070" lon="37.3426210">
    <ele>1680.4</ele>
    <time>2026-06-24T08:26:51Z</time>
   </trkpt>
   <trkpt lat="-3.2173960" lon="37.3426360">
    <ele>1680.2</ele>
    <time>2026-06-24T08:26:52Z</time>
   </trkpt>
   <trkpt lat="-3.2173970" lon="37.3426340">
    <ele>1680.2</ele>
    <time>2026-06-24T08:26:53Z</time>
   </trkpt>
   <trkpt lat="-3.2173950" lon="37.3426270">
    <ele>1680.1</ele>
    <time>2026-06-24T08:26:54Z</time>
   </trkpt>
   <trkpt lat="-3.2173920" lon="37.3426260">
    <ele>1680.1</ele>
    <time>2026-06-24T08:26:55Z</time>
   </trkpt>
   <trkpt lat="-3.2173930" lon="37.3426230">
    <ele>1680.0</ele>
    <time>2026-06-24T08:26:56Z</time>
   </trkpt>
   <trkpt lat="-3.2173930" lon="37.3426210">
    <ele>1680.0</ele>
    <time>2026-06-24T08:26:57Z</time>
   </trkpt>
   <trkpt lat="-3.2173930" lon="37.3426210">
    <ele>1680.0</ele>
    <time>2026-06-24T08:26:58Z</time>
   </trkpt>
   <trkpt lat="-3.2173960" lon="37.3426220">
    <ele>1680.0</ele>
    <time>2026-06-24T08:26:59Z</time>
   </trkpt>
   <trkpt lat="-3.2173960" lon="37.3426220">
    <ele>1680.0</ele>
    <time>2026-06-24T08:27:00Z</time>
   </trkpt>
   <trkpt lat="-3.2173980" lon="37.3426310">
    <ele>1679.9</ele>
    <time>2026-06-24T08:27:01Z</time>
   </trkpt>
   <trkpt lat="-3.2173980" lon="37.3426310">
    <ele>1679.9</ele>
    <time>2026-06-24T08:27:02Z</time>
   </trkpt>
   <trkpt lat="-3.2173980" lon="37.3426310">
    <ele>1679.9</ele>
    <time>2026-06-24T08:27:03Z</time>
   </trkpt>
   <trkpt lat="-3.2173980" lon="37.3426310">
    <ele>1679.9</ele>
    <time>2026-06-24T08:27:04Z</time>
   </trkpt>
   <trkpt lat="-3.2173980" lon="37.3426310">
    <ele>1679.9</ele>
    <time>2026-06-24T08:27:05Z</time>
   </trkpt>
   <trkpt lat="-3.2173980" lon="37.3426310">
    <ele>1679.9</ele>
    <time>2026-06-24T08:27:06Z</time>
   </trkpt>
   <trkpt lat="-3.2173980" lon="37.3426310">
    <ele>1679.9</ele>
    <time>2026-06-24T08:27:07Z</time>
   </trkpt>
   <trkpt lat="-3.2173980" lon="37.3426310">
    <ele>1679.9</ele>
    <time>2026-06-24T08:27:08Z</time>
   </trkpt>
   <trkpt lat="-3.2173980" lon="37.3426190">
    <ele>1679.8</ele>
    <time>2026-06-24T08:27:09Z</time>
   </trkpt>
   <trkpt lat="-3.2173980" lon="37.3426170">
    <ele>1679.8</ele>
    <time>2026-06-24T08:27:10Z</time>
   </trkpt>
   <trkpt lat="-3.2173990" lon="37.3426190">
    <ele>1679.8</ele>
    <time>2026-06-24T08:27:11Z</time>
   </trkpt>
   <trkpt lat="-3.2174010" lon="37.3426180">
    <ele>1679.7</ele>
    <time>2026-06-24T08:27:12Z</time>
   </trkpt>
   <trkpt lat="-3.2174130" lon="37.3426240">
    <ele>1679.6</ele>
    <time>2026-06-24T08:27:13Z</time>
   </trkpt>
   <trkpt lat="-3.2174240" lon="37.3426290">
    <ele>1679.5</ele>
    <time>2026-06-24T08:27:14Z</time>
   </trkpt>
   <trkpt lat="-3.2174340" lon="37.3426300">
    <ele>1679.4</ele>
    <time>2026-06-24T08:27:15Z</time>
   </trkpt>
   <trkpt lat="-3.2174390" lon="37.3426280">
    <ele>1679.4</ele>
    <time>2026-06-24T08:27:16Z</time>
   </trkpt>
   <trkpt lat="-3.2174510" lon="37.3426340">
    <ele>1679.2</ele>
    <time>2026-06-24T08:27:17Z</time>
   </trkpt>
   <trkpt lat="-3.2174570" lon="37.3426370">
    <ele>1679.2</ele>
    <time>2026-06-24T08:27:18Z</time>
   </trkpt>
   <trkpt lat="-3.2174650" lon="37.3426380">
    <ele>1679.1</ele>
    <time>2026-06-24T08:27:19Z</time>
   </trkpt>
   <trkpt lat="-3.2174760" lon="37.3426410">
    <ele>1679.0</ele>
    <time>2026-06-24T08:27:20Z</time>
   </trkpt>
   <trkpt lat="-3.2174850" lon="37.3426420">
    <ele>1679.0</ele>
    <time>2026-06-24T08:27:21Z</time>
   </trkpt>
   <trkpt lat="-3.2175040" lon="37.3426370">
    <ele>1678.8</ele>
    <time>2026-06-24T08:27:22Z</time>
   </trkpt>
   <trkpt lat="-3.2175130" lon="37.3426340">
    <ele>1678.7</ele>
    <time>2026-06-24T08:27:23Z</time>
   </trkpt>
   <trkpt lat="-3.2175270" lon="37.3426310">
    <ele>1678.6</ele>
    <time>2026-06-24T08:27:24Z</time>
   </trkpt>
   <trkpt lat="-3.2175410" lon="37.3426320">
    <ele>1678.5</ele>
    <time>2026-06-24T08:27:25Z</time>
   </trkpt>
   <trkpt lat="-3.2175540" lon="37.3426240">
    <ele>1678.4</ele>
    <time>2026-06-24T08:27:26Z</time>
   </trkpt>
   <trkpt lat="-3.2175680" lon="37.3426170">
    <ele>1678.3</ele>
    <time>2026-06-24T08:27:27Z</time>
   </trkpt>
   <trkpt lat="-3.2175770" lon="37.3426130">
    <ele>1678.2</ele>
    <time>2026-06-24T08:27:28Z</time>
   </trkpt>
   <trkpt lat="-3.2175900" lon="37.3426020">
    <ele>1678.1</ele>
    <time>2026-06-24T08:27:29Z</time>
   </trkpt>
   <trkpt lat="-3.2176020" lon="37.3425930">
    <ele>1678.0</ele>
    <time>2026-06-24T08:27:30Z</time>
   </trkpt>
   <trkpt lat="-3.2176120" lon="37.3425850">
    <ele>1677.9</ele>
    <time>2026-06-24T08:27:31Z</time>
   </trkpt>
   <trkpt lat="-3.2176130" lon="37.3425820">
    <ele>1677.9</ele>
    <time>2026-06-24T08:27:32Z</time>
   </trkpt>
   <trkpt lat="-3.2176150" lon="37.3425810">
    <ele>1677.9</ele>
    <time>2026-06-24T08:27:33Z</time>
   </trkpt>
   <trkpt lat="-3.2176180" lon="37.3425790">
    <ele>1677.8</ele>
    <time>2026-06-24T08:27:34Z</time>
   </trkpt>
   <trkpt lat="-3.2176190" lon="37.3425780">
    <ele>1677.8</ele>
    <time>2026-06-24T08:27:35Z</time>
   </trkpt>
   <trkpt lat="-3.2176240" lon="37.3425720">
    <ele>1677.8</ele>
    <time>2026-06-24T08:27:36Z</time>
   </trkpt>
   <trkpt lat="-3.2176250" lon="37.3425640">
    <ele>1677.7</ele>
    <time>2026-06-24T08:27:37Z</time>
   </trkpt>
   <trkpt lat="-3.2176340" lon="37.3425650">
    <ele>1677.7</ele>
    <time>2026-06-24T08:27:38Z</time>
   </trkpt>
   <trkpt lat="-3.2176470" lon="37.3425600">
    <ele>1677.6</ele>
    <time>2026-06-24T08:27:39Z</time>
   </trkpt>
   <trkpt lat="-3.2176560" lon="37.3425570">
    <ele>1677.5</ele>
    <time>2026-06-24T08:27:40Z</time>
   </trkpt>
   <trkpt lat="-3.2176640" lon="37.3425540">
    <ele>1677.5</ele>
    <time>2026-06-24T08:27:41Z</time>
   </trkpt>
   <trkpt lat="-3.2176760" lon="37.3425510">
    <ele>1677.4</ele>
    <time>2026-06-24T08:27:42Z</time>
   </trkpt>
   <trkpt lat="-3.2176900" lon="37.3425450">
    <ele>1677.3</ele>
    <time>2026-06-24T08:27:43Z</time>
   </trkpt>
   <trkpt lat="-3.2177020" lon="37.3425390">
    <ele>1677.3</ele>
    <time>2026-06-24T08:27:44Z</time>
   </trkpt>
   <trkpt lat="-3.2177110" lon="37.3425330">
    <ele>1677.2</ele>
    <time>2026-06-24T08:27:45Z</time>
   </trkpt>
   <trkpt lat="-3.2177150" lon="37.3425340">
    <ele>1677.2</ele>
    <time>2026-06-24T08:27:46Z</time>
   </trkpt>
   <trkpt lat="-3.2177270" lon="37.3425310">
    <ele>1677.1</ele>
    <time>2026-06-24T08:27:47Z</time>
   </trkpt>
   <trkpt lat="-3.2177390" lon="37.3425310">
    <ele>1677.1</ele>
    <time>2026-06-24T08:27:48Z</time>
   </trkpt>
   <trkpt lat="-3.2177490" lon="37.3425350">
    <ele>1677.0</ele>
    <time>2026-06-24T08:27:49Z</time>
   </trkpt>
   <trkpt lat="-3.2177580" lon="37.3425290">
    <ele>1677.0</ele>
    <time>2026-06-24T08:27:50Z</time>
   </trkpt>
   <trkpt lat="-3.2177740" lon="37.3425230">
    <ele>1676.9</ele>
    <time>2026-06-24T08:27:51Z</time>
   </trkpt>
   <trkpt lat="-3.2177920" lon="37.3425100">
    <ele>1676.8</ele>
    <time>2026-06-24T08:27:52Z</time>
   </trkpt>
   <trkpt lat="-3.2177980" lon="37.3425090">
    <ele>1676.8</ele>
    <time>2026-06-24T08:27:53Z</time>
   </trkpt>
   <trkpt lat="-3.2178030" lon="37.3425050">
    <ele>1676.8</ele>
    <time>2026-06-24T08:27:54Z</time>
   </trkpt>
   <trkpt lat="-3.2178120" lon="37.3425030">
    <ele>1676.7</ele>
    <time>2026-06-24T08:27:55Z</time>
   </trkpt>
   <trkpt lat="-3.2178200" lon="37.3424950">
    <ele>1676.7</ele>
    <time>2026-06-24T08:27:56Z</time>
   </trkpt>
   <trkpt lat="-3.2178240" lon="37.3424890">
    <ele>1676.6</ele>
    <time>2026-06-24T08:27:57Z</time>
   </trkpt>
   <trkpt lat="-3.2178360" lon="37.3424870">
    <ele>1676.6</ele>
    <time>2026-06-24T08:27:58Z</time>
   </trkpt>
   <trkpt lat="-3.2178450" lon="37.3424780">
    <ele>1676.5</ele>
    <time>2026-06-24T08:27:59Z</time>
   </trkpt>
   <trkpt lat="-3.2178590" lon="37.3424720">
    <ele>1676.5</ele>
    <time>2026-06-24T08:28:00Z</time>
   </trkpt>
   <trkpt lat="-3.2178720" lon="37.3424700">
    <ele>1676.4</ele>
    <time>2026-06-24T08:28:01Z</time>
   </trkpt>
   <trkpt lat="-3.2178760" lon="37.3424660">
    <ele>1676.4</ele>
    <time>2026-06-24T08:28:02Z</time>
   </trkpt>
   <trkpt lat="-3.2178870" lon="37.3424620">
    <ele>1676.4</ele>
    <time>2026-06-24T08:28:03Z</time>
   </trkpt>
   <trkpt lat="-3.2178950" lon="37.3424580">
    <ele>1676.3</ele>
    <time>2026-06-24T08:28:04Z</time>
   </trkpt>
   <trkpt lat="-3.2179100" lon="37.3424540">
    <ele>1676.3</ele>
    <time>2026-06-24T08:28:05Z</time>
   </trkpt>
   <trkpt lat="-3.2179220" lon="37.3424480">
    <ele>1676.2</ele>
    <time>2026-06-24T08:28:06Z</time>
   </trkpt>
   <trkpt lat="-3.2179280" lon="37.3424420">
    <ele>1676.2</ele>
    <time>2026-06-24T08:28:07Z</time>
   </trkpt>
   <trkpt lat="-3.2179410" lon="37.3424340">
    <ele>1676.2</ele>
    <time>2026-06-24T08:28:08Z</time>
   </trkpt>
   <trkpt lat="-3.2179540" lon="37.3424300">
    <ele>1676.1</ele>
    <time>2026-06-24T08:28:09Z</time>
   </trkpt>
   <trkpt lat="-3.2179670" lon="37.3424300">
    <ele>1676.1</ele>
    <time>2026-06-24T08:28:10Z</time>
   </trkpt>
   <trkpt lat="-3.2179770" lon="37.3424270">
    <ele>1676.0</ele>
    <time>2026-06-24T08:28:11Z</time>
   </trkpt>
   <trkpt lat="-3.2179860" lon="37.3424280">
    <ele>1676.0</ele>
    <time>2026-06-24T08:28:12Z</time>
   </trkpt>
   <trkpt lat="-3.2180000" lon="37.3424290">
    <ele>1675.9</ele>
    <time>2026-06-24T08:28:13Z</time>
   </trkpt>
   <trkpt lat="-3.2180120" lon="37.3424250">
    <ele>1675.9</ele>
    <time>2026-06-24T08:28:14Z</time>
   </trkpt>
   <trkpt lat="-3.2180280" lon="37.3424200">
    <ele>1675.8</ele>
    <time>2026-06-24T08:28:15Z</time>
   </trkpt>
   <trkpt lat="-3.2180390" lon="37.3424140">
    <ele>1675.8</ele>
    <time>2026-06-24T08:28:16Z</time>
   </trkpt>
   <trkpt lat="-3.2180510" lon="37.3424050">
    <ele>1675.7</ele>
    <time>2026-06-24T08:28:17Z</time>
   </trkpt>
   <trkpt lat="-3.2180630" lon="37.3424030">
    <ele>1675.7</ele>
    <time>2026-06-24T08:28:18Z</time>
   </trkpt>
   <trkpt lat="-3.2180680" lon="37.3424010">
    <ele>1675.6</ele>
    <time>2026-06-24T08:28:19Z</time>
   </trkpt>
   <trkpt lat="-3.2180770" lon="37.3423980">
    <ele>1675.6</ele>
    <time>2026-06-24T08:28:20Z</time>
   </trkpt>
   <trkpt lat="-3.2180920" lon="37.3423960">
    <ele>1675.5</ele>
    <time>2026-06-24T08:28:21Z</time>
   </trkpt>
   <trkpt lat="-3.2181070" lon="37.3423940">
    <ele>1675.5</ele>
    <time>2026-06-24T08:28:22Z</time>
   </trkpt>
   <trkpt lat="-3.2181190" lon="37.3423900">
    <ele>1675.4</ele>
    <time>2026-06-24T08:28:23Z</time>
   </trkpt>
   <trkpt lat="-3.2181300" lon="37.3423840">
    <ele>1675.4</ele>
    <time>2026-06-24T08:28:24Z</time>
   </trkpt>
   <trkpt lat="-3.2181390" lon="37.3423820">
    <ele>1675.3</ele>
    <time>2026-06-24T08:28:25Z</time>
   </trkpt>
   <trkpt lat="-3.2181500" lon="37.3423800">
    <ele>1675.3</ele>
    <time>2026-06-24T08:28:26Z</time>
   </trkpt>
   <trkpt lat="-3.2181650" lon="37.3423770">
    <ele>1675.2</ele>
    <time>2026-06-24T08:28:27Z</time>
   </trkpt>
   <trkpt lat="-3.2181770" lon="37.3423790">
    <ele>1675.1</ele>
    <time>2026-06-24T08:28:28Z</time>
   </trkpt>
   <trkpt lat="-3.2181840" lon="37.3423750">
    <ele>1675.1</ele>
    <time>2026-06-24T08:28:29Z</time>
   </trkpt>
   <trkpt lat="-3.2181960" lon="37.3423700">
    <ele>1675.0</ele>
    <time>2026-06-24T08:28:30Z</time>
   </trkpt>
   <trkpt lat="-3.2182030" lon="37.3423640">
    <ele>1675.0</ele>
    <time>2026-06-24T08:28:31Z</time>
   </trkpt>
   <trkpt lat="-3.2182150" lon="37.3423570">
    <ele>1674.9</ele>
    <time>2026-06-24T08:28:32Z</time>
   </trkpt>
   <trkpt lat="-3.2182300" lon="37.3423550">
    <ele>1674.8</ele>
    <time>2026-06-24T08:28:33Z</time>
   </trkpt>
   <trkpt lat="-3.2182470" lon="37.3423590">
    <ele>1674.7</ele>
    <time>2026-06-24T08:28:34Z</time>
   </trkpt>
   <trkpt lat="-3.2182560" lon="37.3423600">
    <ele>1674.7</ele>
    <time>2026-06-24T08:28:35Z</time>
   </trkpt>
   <trkpt lat="-3.2182640" lon="37.3423580">
    <ele>1674.6</ele>
    <time>2026-06-24T08:28:36Z</time>
   </trkpt>
   <trkpt lat="-3.2182800" lon="37.3423520">
    <ele>1674.5</ele>
    <time>2026-06-24T08:28:37Z</time>
   </trkpt>
   <trkpt lat="-3.2182890" lon="37.3423480">
    <ele>1674.5</ele>
    <time>2026-06-24T08:28:38Z</time>
   </trkpt>
   <trkpt lat="-3.2182940" lon="37.3423450">
    <ele>1674.4</ele>
    <time>2026-06-24T08:28:39Z</time>
   </trkpt>
   <trkpt lat="-3.2183040" lon="37.3423440">
    <ele>1674.4</ele>
    <time>2026-06-24T08:28:40Z</time>
   </trkpt>
   <trkpt lat="-3.2183140" lon="37.3423410">
    <ele>1674.3</ele>
    <time>2026-06-24T08:28:41Z</time>
   </trkpt>
   <trkpt lat="-3.2183240" lon="37.3423380">
    <ele>1674.2</ele>
    <time>2026-06-24T08:28:42Z</time>
   </trkpt>
   <trkpt lat="-3.2183340" lon="37.3423350">
    <ele>1674.2</ele>
    <time>2026-06-24T08:28:43Z</time>
   </trkpt>
   <trkpt lat="-3.2183440" lon="37.3423320">
    <ele>1674.1</ele>
    <time>2026-06-24T08:28:44Z</time>
   </trkpt>
   <trkpt lat="-3.2183560" lon="37.3423300">
    <ele>1674.0</ele>
    <time>2026-06-24T08:28:45Z</time>
   </trkpt>
   <trkpt lat="-3.2183670" lon="37.3423230">
    <ele>1673.9</ele>
    <time>2026-06-24T08:28:46Z</time>
   </trkpt>
   <trkpt lat="-3.2183830" lon="37.3423210">
    <ele>1673.8</ele>
    <time>2026-06-24T08:28:47Z</time>
   </trkpt>
   <trkpt lat="-3.2183950" lon="37.3423180">
    <ele>1673.7</ele>
    <time>2026-06-24T08:28:48Z</time>
   </trkpt>
   <trkpt lat="-3.2184070" lon="37.3423120">
    <ele>1673.6</ele>
    <time>2026-06-24T08:28:49Z</time>
   </trkpt>
   <trkpt lat="-3.2184220" lon="37.3423090">
    <ele>1673.5</ele>
    <time>2026-06-24T08:28:50Z</time>
   </trkpt>
   <trkpt lat="-3.2184360" lon="37.3423020">
    <ele>1673.4</ele>
    <time>2026-06-24T08:28:51Z</time>
   </trkpt>
   <trkpt lat="-3.2184470" lon="37.3422950">
    <ele>1673.3</ele>
    <time>2026-06-24T08:28:52Z</time>
   </trkpt>
   <trkpt lat="-3.2184560" lon="37.3422980">
    <ele>1673.3</ele>
    <time>2026-06-24T08:28:53Z</time>
   </trkpt>
   <trkpt lat="-3.2184680" lon="37.3422960">
    <ele>1673.2</ele>
    <time>2026-06-24T08:28:54Z</time>
   </trkpt>
   <trkpt lat="-3.2184780" lon="37.3422920">
    <ele>1673.1</ele>
    <time>2026-06-24T08:28:55Z</time>
   </trkpt>
   <trkpt lat="-3.2184900" lon="37.3422880">
    <ele>1673.0</ele>
    <time>2026-06-24T08:28:56Z</time>
   </trkpt>
   <trkpt lat="-3.2185030" lon="37.3422830">
    <ele>1672.9</ele>
    <time>2026-06-24T08:28:57Z</time>
   </trkpt>
   <trkpt lat="-3.2185170" lon="37.3422820">
    <ele>1672.8</ele>
    <time>2026-06-24T08:28:58Z</time>
   </trkpt>
   <trkpt lat="-3.2185240" lon="37.3422790">
    <ele>1672.7</ele>
    <time>2026-06-24T08:28:59Z</time>
   </trkpt>
   <trkpt lat="-3.2185370" lon="37.3422760">
    <ele>1672.6</ele>
    <time>2026-06-24T08:29:00Z</time>
   </trkpt>
   <trkpt lat="-3.2185490" lon="37.3422760">
    <ele>1672.6</ele>
    <time>2026-06-24T08:29:01Z</time>
   </trkpt>
   <trkpt lat="-3.2185610" lon="37.3422730">
    <ele>1672.5</ele>
    <time>2026-06-24T08:29:02Z</time>
   </trkpt>
   <trkpt lat="-3.2185720" lon="37.3422700">
    <ele>1672.4</ele>
    <time>2026-06-24T08:29:03Z</time>
   </trkpt>
   <trkpt lat="-3.2185820" lon="37.3422640">
    <ele>1672.3</ele>
    <time>2026-06-24T08:29:04Z</time>
   </trkpt>
   <trkpt lat="-3.2186030" lon="37.3422550">
    <ele>1672.1</ele>
    <time>2026-06-24T08:29:05Z</time>
   </trkpt>
   <trkpt lat="-3.2186130" lon="37.3422490">
    <ele>1672.0</ele>
    <time>2026-06-24T08:29:06Z</time>
   </trkpt>
   <trkpt lat="-3.2186290" lon="37.3422460">
    <ele>1671.9</ele>
    <time>2026-06-24T08:29:07Z</time>
   </trkpt>
   <trkpt lat="-3.2186400" lon="37.3422440">
    <ele>1671.8</ele>
    <time>2026-06-24T08:29:08Z</time>
   </trkpt>
   <trkpt lat="-3.2186500" lon="37.3422420">
    <ele>1671.7</ele>
    <time>2026-06-24T08:29:09Z</time>
   </trkpt>
   <trkpt lat="-3.2186600" lon="37.3422390">
    <ele>1671.7</ele>
    <time>2026-06-24T08:29:10Z</time>
   </trkpt>
   <trkpt lat="-3.2186740" lon="37.3422370">
    <ele>1671.6</ele>
    <time>2026-06-24T08:29:11Z</time>
   </trkpt>
   <trkpt lat="-3.2186900" lon="37.3422330">
    <ele>1671.4</ele>
    <time>2026-06-24T08:29:12Z</time>
   </trkpt>
   <trkpt lat="-3.2187040" lon="37.3422280">
    <ele>1671.3</ele>
    <time>2026-06-24T08:29:13Z</time>
   </trkpt>
   <trkpt lat="-3.2187110" lon="37.3422230">
    <ele>1671.2</ele>
    <time>2026-06-24T08:29:14Z</time>
   </trkpt>
   <trkpt lat="-3.2187230" lon="37.3422220">
    <ele>1671.1</ele>
    <time>2026-06-24T08:29:15Z</time>
   </trkpt>
   <trkpt lat="-3.2187330" lon="37.3422190">
    <ele>1671.0</ele>
    <time>2026-06-24T08:29:16Z</time>
   </trkpt>
   <trkpt lat="-3.2187460" lon="37.3422150">
    <ele>1670.9</ele>
    <time>2026-06-24T08:29:17Z</time>
   </trkpt>
   <trkpt lat="-3.2187600" lon="37.3422080">
    <ele>1670.8</ele>
    <time>2026-06-24T08:29:18Z</time>
   </trkpt>
   <trkpt lat="-3.2187700" lon="37.3422050">
    <ele>1670.7</ele>
    <time>2026-06-24T08:29:19Z</time>
   </trkpt>
   <trkpt lat="-3.2187780" lon="37.3422040">
    <ele>1670.7</ele>
    <time>2026-06-24T08:29:20Z</time>
   </trkpt>
   <trkpt lat="-3.2187920" lon="37.3422000">
    <ele>1670.5</ele>
    <time>2026-06-24T08:29:21Z</time>
   </trkpt>
   <trkpt lat="-3.2188030" lon="37.3421960">
    <ele>1670.4</ele>
    <time>2026-06-24T08:29:22Z</time>
   </trkpt>
   <trkpt lat="-3.2188140" lon="37.3421880">
    <ele>1670.3</ele>
    <time>2026-06-24T08:29:23Z</time>
   </trkpt>
   <trkpt lat="-3.2188250" lon="37.3421790">
    <ele>1670.2</ele>
    <time>2026-06-24T08:29:24Z</time>
   </trkpt>
   <trkpt lat="-3.2188370" lon="37.3421710">
    <ele>1670.1</ele>
    <time>2026-06-24T08:29:25Z</time>
   </trkpt>
   <trkpt lat="-3.2188510" lon="37.3421630">
    <ele>1670.0</ele>
    <time>2026-06-24T08:29:26Z</time>
   </trkpt>
   <trkpt lat="-3.2188610" lon="37.3421590">
    <ele>1669.9</ele>
    <time>2026-06-24T08:29:27Z</time>
   </trkpt>
   <trkpt lat="-3.2188790" lon="37.3421510">
    <ele>1669.7</ele>
    <time>2026-06-24T08:29:28Z</time>
   </trkpt>
   <trkpt lat="-3.2188870" lon="37.3421460">
    <ele>1669.6</ele>
    <time>2026-06-24T08:29:29Z</time>
   </trkpt>
   <trkpt lat="-3.2188940" lon="37.3421400">
    <ele>1669.5</ele>
    <time>2026-06-24T08:29:30Z</time>
   </trkpt>
   <trkpt lat="-3.2189040" lon="37.3421300">
    <ele>1669.4</ele>
    <time>2026-06-24T08:29:31Z</time>
   </trkpt>
   <trkpt lat="-3.2189130" lon="37.3421230">
    <ele>1669.3</ele>
    <time>2026-06-24T08:29:32Z</time>
   </trkpt>
   <trkpt lat="-3.2189200" lon="37.3421140">
    <ele>1669.2</ele>
    <time>2026-06-24T08:29:33Z</time>
   </trkpt>
   <trkpt lat="-3.2189260" lon="37.3421040">
    <ele>1669.1</ele>
    <time>2026-06-24T08:29:34Z</time>
   </trkpt>
   <trkpt lat="-3.2189390" lon="37.3420960">
    <ele>1669.0</ele>
    <time>2026-06-24T08:29:35Z</time>
   </trkpt>
   <trkpt lat="-3.2189490" lon="37.3420930">
    <ele>1668.9</ele>
    <time>2026-06-24T08:29:36Z</time>
   </trkpt>
   <trkpt lat="-3.2189590" lon="37.3420860">
    <ele>1668.7</ele>
    <time>2026-06-24T08:29:37Z</time>
   </trkpt>
   <trkpt lat="-3.2189720" lon="37.3420770">
    <ele>1668.6</ele>
    <time>2026-06-24T08:29:38Z</time>
   </trkpt>
   <trkpt lat="-3.2189790" lon="37.3420690">
    <ele>1668.5</ele>
    <time>2026-06-24T08:29:39Z</time>
   </trkpt>
   <trkpt lat="-3.2189900" lon="37.3420600">
    <ele>1668.4</ele>
    <time>2026-06-24T08:29:40Z</time>
   </trkpt>
   <trkpt lat="-3.2190010" lon="37.3420510">
    <ele>1668.2</ele>
    <time>2026-06-24T08:29:41Z</time>
   </trkpt>
   <trkpt lat="-3.2190120" lon="37.3420420">
    <ele>1668.1</ele>
    <time>2026-06-24T08:29:42Z</time>
   </trkpt>
   <trkpt lat="-3.2190190" lon="37.3420400">
    <ele>1668.0</ele>
    <time>2026-06-24T08:29:43Z</time>
   </trkpt>
   <trkpt lat="-3.2190260" lon="37.3420360">
    <ele>1668.0</ele>
    <time>2026-06-24T08:29:44Z</time>
   </trkpt>
   <trkpt lat="-3.2190350" lon="37.3420270">
    <ele>1667.8</ele>
    <time>2026-06-24T08:29:45Z</time>
   </trkpt>
   <trkpt lat="-3.2190480" lon="37.3420170">
    <ele>1667.7</ele>
    <time>2026-06-24T08:29:46Z</time>
   </trkpt>
   <trkpt lat="-3.2190550" lon="37.3420100">
    <ele>1667.6</ele>
    <time>2026-06-24T08:29:47Z</time>
   </trkpt>
   <trkpt lat="-3.2190650" lon="37.3420010">
    <ele>1667.5</ele>
    <time>2026-06-24T08:29:48Z</time>
   </trkpt>
   <trkpt lat="-3.2190730" lon="37.3419940">
    <ele>1667.4</ele>
    <time>2026-06-24T08:29:49Z</time>
   </trkpt>
   <trkpt lat="-3.2190760" lon="37.3419870">
    <ele>1667.3</ele>
    <time>2026-06-24T08:29:50Z</time>
   </trkpt>
   <trkpt lat="-3.2190830" lon="37.3419760">
    <ele>1667.1</ele>
    <time>2026-06-24T08:29:51Z</time>
   </trkpt>
   <trkpt lat="-3.2190960" lon="37.3419630">
    <ele>1667.0</ele>
    <time>2026-06-24T08:29:52Z</time>
   </trkpt>
   <trkpt lat="-3.2191060" lon="37.3419540">
    <ele>1666.8</ele>
    <time>2026-06-24T08:29:53Z</time>
   </trkpt>
   <trkpt lat="-3.2191110" lon="37.3419580">
    <ele>1666.8</ele>
    <time>2026-06-24T08:29:54Z</time>
   </trkpt>
   <trkpt lat="-3.2191190" lon="37.3419490">
    <ele>1666.6</ele>
    <time>2026-06-24T08:29:55Z</time>
   </trkpt>
   <trkpt lat="-3.2191260" lon="37.3419410">
    <ele>1666.5</ele>
    <time>2026-06-24T08:29:56Z</time>
   </trkpt>
   <trkpt lat="-3.2191390" lon="37.3419360">
    <ele>1666.4</ele>
    <time>2026-06-24T08:29:57Z</time>
   </trkpt>
   <trkpt lat="-3.2191450" lon="37.3419290">
    <ele>1666.3</ele>
    <time>2026-06-24T08:29:58Z</time>
   </trkpt>
   <trkpt lat="-3.2191520" lon="37.3419190">
    <ele>1666.2</ele>
    <time>2026-06-24T08:29:59Z</time>
   </trkpt>
   <trkpt lat="-3.2191630" lon="37.3419050">
    <ele>1666.0</ele>
    <time>2026-06-24T08:30:00Z</time>
   </trkpt>
   <trkpt lat="-3.2191670" lon="37.3418940">
    <ele>1665.9</ele>
    <time>2026-06-24T08:30:01Z</time>
   </trkpt>
   <trkpt lat="-3.2191750" lon="37.3418830">
    <ele>1665.7</ele>
    <time>2026-06-24T08:30:02Z</time>
   </trkpt>
   <trkpt lat="-3.2191820" lon="37.3418700">
    <ele>1665.6</ele>
    <time>2026-06-24T08:30:03Z</time>
   </trkpt>
   <trkpt lat="-3.2191890" lon="37.3418590">
    <ele>1665.4</ele>
    <time>2026-06-24T08:30:04Z</time>
   </trkpt>
   <trkpt lat="-3.2191980" lon="37.3418520">
    <ele>1665.3</ele>
    <time>2026-06-24T08:30:05Z</time>
   </trkpt>
   <trkpt lat="-3.2192040" lon="37.3418530">
    <ele>1665.3</ele>
    <time>2026-06-24T08:30:06Z</time>
   </trkpt>
   <trkpt lat="-3.2192140" lon="37.3418450">
    <ele>1665.1</ele>
    <time>2026-06-24T08:30:07Z</time>
   </trkpt>
   <trkpt lat="-3.2192180" lon="37.3418400">
    <ele>1665.0</ele>
    <time>2026-06-24T08:30:08Z</time>
   </trkpt>
   <trkpt lat="-3.2192240" lon="37.3418260">
    <ele>1664.9</ele>
    <time>2026-06-24T08:30:09Z</time>
   </trkpt>
   <trkpt lat="-3.2192350" lon="37.3418200">
    <ele>1664.7</ele>
    <time>2026-06-24T08:30:10Z</time>
   </trkpt>
   <trkpt lat="-3.2192410" lon="37.3418140">
    <ele>1664.7</ele>
    <time>2026-06-24T08:30:11Z</time>
   </trkpt>
   <trkpt lat="-3.2192480" lon="37.3418110">
    <ele>1664.6</ele>
    <time>2026-06-24T08:30:12Z</time>
   </trkpt>
   <trkpt lat="-3.2192570" lon="37.3418000">
    <ele>1664.4</ele>
    <time>2026-06-24T08:30:13Z</time>
   </trkpt>
   <trkpt lat="-3.2192670" lon="37.3417920">
    <ele>1664.3</ele>
    <time>2026-06-24T08:30:14Z</time>
   </trkpt>
   <trkpt lat="-3.2192800" lon="37.3417890">
    <ele>1664.1</ele>
    <time>2026-06-24T08:30:15Z</time>
   </trkpt>
   <trkpt lat="-3.2192800" lon="37.3417870">
    <ele>1664.1</ele>
    <time>2026-06-24T08:30:16Z</time>
   </trkpt>
   <trkpt lat="-3.2192830" lon="37.3417830">
    <ele>1664.1</ele>
    <time>2026-06-24T08:30:17Z</time>
   </trkpt>
   <trkpt lat="-3.2192890" lon="37.3417800">
    <ele>1664.0</ele>
    <time>2026-06-24T08:30:18Z</time>
   </trkpt>
   <trkpt lat="-3.2192930" lon="37.3417720">
    <ele>1663.9</ele>
    <time>2026-06-24T08:30:19Z</time>
   </trkpt>
   <trkpt lat="-3.2192960" lon="37.3417640">
    <ele>1663.8</ele>
    <time>2026-06-24T08:30:20Z</time>
   </trkpt>
   <trkpt lat="-3.2193060" lon="37.3417540">
    <ele>1663.7</ele>
    <time>2026-06-24T08:30:21Z</time>
   </trkpt>
   <trkpt lat="-3.2193130" lon="37.3417490">
    <ele>1663.6</ele>
    <time>2026-06-24T08:30:22Z</time>
   </trkpt>
   <trkpt lat="-3.2193320" lon="37.3417390">
    <ele>1663.3</ele>
    <time>2026-06-24T08:30:23Z</time>
   </trkpt>
   <trkpt lat="-3.2193470" lon="37.3417300">
    <ele>1663.1</ele>
    <time>2026-06-24T08:30:24Z</time>
   </trkpt>
   <trkpt lat="-3.2193460" lon="37.3417320">
    <ele>1663.1</ele>
    <time>2026-06-24T08:30:25Z</time>
   </trkpt>
   <trkpt lat="-3.2193520" lon="37.3417280">
    <ele>1663.0</ele>
    <time>2026-06-24T08:30:26Z</time>
   </trkpt>
   <trkpt lat="-3.2193560" lon="37.3417230">
    <ele>1663.0</ele>
    <time>2026-06-24T08:30:27Z</time>
   </trkpt>
   <trkpt lat="-3.2193600" lon="37.3417190">
    <ele>1662.9</ele>
    <time>2026-06-24T08:30:28Z</time>
   </trkpt>
   <trkpt lat="-3.2193690" lon="37.3417140">
    <ele>1662.8</ele>
    <time>2026-06-24T08:30:29Z</time>
   </trkpt>
   <trkpt lat="-3.2193830" lon="37.3417040">
    <ele>1662.6</ele>
    <time>2026-06-24T08:30:30Z</time>
   </trkpt>
   <trkpt lat="-3.2193930" lon="37.3416990">
    <ele>1662.5</ele>
    <time>2026-06-24T08:30:31Z</time>
   </trkpt>
   <trkpt lat="-3.2194020" lon="37.3416940">
    <ele>1662.3</ele>
    <time>2026-06-24T08:30:32Z</time>
   </trkpt>
   <trkpt lat="-3.2194110" lon="37.3416850">
    <ele>1662.2</ele>
    <time>2026-06-24T08:30:33Z</time>
   </trkpt>
   <trkpt lat="-3.2194150" lon="37.3416800">
    <ele>1662.1</ele>
    <time>2026-06-24T08:30:34Z</time>
   </trkpt>
   <trkpt lat="-3.2194180" lon="37.3416810">
    <ele>1662.1</ele>
    <time>2026-06-24T08:30:35Z</time>
   </trkpt>
   <trkpt lat="-3.2194330" lon="37.3416700">
    <ele>1661.9</ele>
    <time>2026-06-24T08:30:36Z</time>
   </trkpt>
   <trkpt lat="-3.2194390" lon="37.3416660">
    <ele>1661.8</ele>
    <time>2026-06-24T08:30:37Z</time>
   </trkpt>
   <trkpt lat="-3.2194530" lon="37.3416600">
    <ele>1661.6</ele>
    <time>2026-06-24T08:30:38Z</time>
   </trkpt>
   <trkpt lat="-3.2194640" lon="37.3416550">
    <ele>1661.5</ele>
    <time>2026-06-24T08:30:39Z</time>
   </trkpt>
   <trkpt lat="-3.2194700" lon="37.3416490">
    <ele>1661.4</ele>
    <time>2026-06-24T08:30:40Z</time>
   </trkpt>
   <trkpt lat="-3.2194710" lon="37.3416460">
    <ele>1661.4</ele>
    <time>2026-06-24T08:30:41Z</time>
   </trkpt>
   <trkpt lat="-3.2194810" lon="37.3416360">
    <ele>1661.2</ele>
    <time>2026-06-24T08:30:42Z</time>
   </trkpt>
   <trkpt lat="-3.2194880" lon="37.3416230">
    <ele>1661.0</ele>
    <time>2026-06-24T08:30:43Z</time>
   </trkpt>
   <trkpt lat="-3.2194980" lon="37.3416120">
    <ele>1660.9</ele>
    <time>2026-06-24T08:30:44Z</time>
   </trkpt>
   <trkpt lat="-3.2194990" lon="37.3416110">
    <ele>1660.8</ele>
    <time>2026-06-24T08:30:45Z</time>
   </trkpt>
   <trkpt lat="-3.2195060" lon="37.3416100">
    <ele>1660.8</ele>
    <time>2026-06-24T08:30:46Z</time>
   </trkpt>
   <trkpt lat="-3.2195110" lon="37.3416090">
    <ele>1660.7</ele>
    <time>2026-06-24T08:30:47Z</time>
   </trkpt>
   <trkpt lat="-3.2195120" lon="37.3416050">
    <ele>1660.6</ele>
    <time>2026-06-24T08:30:48Z</time>
   </trkpt>
   <trkpt lat="-3.2195180" lon="37.3415990">
    <ele>1660.6</ele>
    <time>2026-06-24T08:30:49Z</time>
   </trkpt>
   <trkpt lat="-3.2195170" lon="37.3416010">
    <ele>1660.5</ele>
    <time>2026-06-24T08:30:50Z</time>
   </trkpt>
   <trkpt lat="-3.2195160" lon="37.3416000">
    <ele>1660.5</ele>
    <time>2026-06-24T08:30:51Z</time>
   </trkpt>
   <trkpt lat="-3.2195190" lon="37.3415970">
    <ele>1660.5</ele>
    <time>2026-06-24T08:30:52Z</time>
   </trkpt>
   <trkpt lat="-3.2195190" lon="37.3415980">
    <ele>1660.4</ele>
    <time>2026-06-24T08:30:53Z</time>
   </trkpt>
   <trkpt lat="-3.2195170" lon="37.3415990">
    <ele>1660.4</ele>
    <time>2026-06-24T08:30:54Z</time>
   </trkpt>
   <trkpt lat="-3.2195170" lon="37.3415980">
    <ele>1660.4</ele>
    <time>2026-06-24T08:30:55Z</time>
   </trkpt>
   <trkpt lat="-3.2195150" lon="37.3415990">
    <ele>1660.4</ele>
    <time>2026-06-24T08:30:56Z</time>
   </trkpt>
   <trkpt lat="-3.2195140" lon="37.3415980">
    <ele>1660.4</ele>
    <time>2026-06-24T08:30:57Z</time>
   </trkpt>
   <trkpt lat="-3.2195140" lon="37.3415980">
    <ele>1660.4</ele>
    <time>2026-06-24T08:30:58Z</time>
   </trkpt>
   <trkpt lat="-3.2195080" lon="37.3416000">
    <ele>1660.3</ele>
    <time>2026-06-24T08:30:59Z</time>
   </trkpt>
   <trkpt lat="-3.2195070" lon="37.3416000">
    <ele>1660.3</ele>
    <time>2026-06-24T08:31:00Z</time>
   </trkpt>
   <trkpt lat="-3.2195060" lon="37.3416010">
    <ele>1660.3</ele>
    <time>2026-06-24T08:31:01Z</time>
   </trkpt>
   <trkpt lat="-3.2195060" lon="37.3416010">
    <ele>1660.3</ele>
    <time>2026-06-24T08:31:02Z</time>
   </trkpt>
   <trkpt lat="-3.2195080" lon="37.3415980">
    <ele>1660.2</ele>
    <time>2026-06-24T08:31:03Z</time>
   </trkpt>
   <trkpt lat="-3.2195070" lon="37.3416010">
    <ele>1660.2</ele>
    <time>2026-06-24T08:31:04Z</time>
   </trkpt>
   <trkpt lat="-3.2195110" lon="37.3416010">
    <ele>1660.1</ele>
    <time>2026-06-24T08:31:05Z</time>
   </trkpt>
   <trkpt lat="-3.2195100" lon="37.3416060">
    <ele>1660.1</ele>
    <time>2026-06-24T08:31:06Z</time>
   </trkpt>
   <trkpt lat="-3.2195150" lon="37.3416080">
    <ele>1660.0</ele>
    <time>2026-06-24T08:31:07Z</time>
   </trkpt>
   <trkpt lat="-3.2195140" lon="37.3416110">
    <ele>1660.0</ele>
    <time>2026-06-24T08:31:08Z</time>
   </trkpt>
   <trkpt lat="-3.2195280" lon="37.3416160">
    <ele>1659.8</ele>
    <time>2026-06-24T08:31:09Z</time>
   </trkpt>
   <trkpt lat="-3.2195290" lon="37.3416140">
    <ele>1659.8</ele>
    <time>2026-06-24T08:31:10Z</time>
   </trkpt>
   <trkpt lat="-3.2195330" lon="37.3416130">
    <ele>1659.7</ele>
    <time>2026-06-24T08:31:11Z</time>
   </trkpt>
   <trkpt lat="-3.2195410" lon="37.3416120">
    <ele>1659.7</ele>
    <time>2026-06-24T08:31:12Z</time>
   </trkpt>
   <trkpt lat="-3.2195460" lon="37.3416090">
    <ele>1659.6</ele>
    <time>2026-06-24T08:31:13Z</time>
   </trkpt>
   <trkpt lat="-3.2195470" lon="37.3416040">
    <ele>1659.5</ele>
    <time>2026-06-24T08:31:14Z</time>
   </trkpt>
   <trkpt lat="-3.2195530" lon="37.3416020">
    <ele>1659.5</ele>
    <time>2026-06-24T08:31:15Z</time>
   </trkpt>
   <trkpt lat="-3.2195510" lon="37.3416010">
    <ele>1659.4</ele>
    <time>2026-06-24T08:31:16Z</time>
   </trkpt>
   <trkpt lat="-3.2195560" lon="37.3415960">
    <ele>1659.3</ele>
    <time>2026-06-24T08:31:17Z</time>
   </trkpt>
   <trkpt lat="-3.2195570" lon="37.3415940">
    <ele>1659.3</ele>
    <time>2026-06-24T08:31:18Z</time>
   </trkpt>
   <trkpt lat="-3.2195500" lon="37.3415860">
    <ele>1659.2</ele>
    <time>2026-06-24T08:31:19Z</time>
   </trkpt>
   <trkpt lat="-3.2195510" lon="37.3415850">
    <ele>1659.2</ele>
    <time>2026-06-24T08:31:20Z</time>
   </trkpt>
   <trkpt lat="-3.2195510" lon="37.3415900">
    <ele>1659.1</ele>
    <time>2026-06-24T08:31:21Z</time>
   </trkpt>
   <trkpt lat="-3.2195500" lon="37.3415920">
    <ele>1659.1</ele>
    <time>2026-06-24T08:31:22Z</time>
   </trkpt>
   <trkpt lat="-3.2195520" lon="37.3415930">
    <ele>1659.1</ele>
    <time>2026-06-24T08:31:23Z</time>
   </trkpt>
   <trkpt lat="-3.2195510" lon="37.3415940">
    <ele>1659.1</ele>
    <time>2026-06-24T08:31:24Z</time>
   </trkpt>
   <trkpt lat="-3.2195510" lon="37.3415940">
    <ele>1659.1</ele>
    <time>2026-06-24T08:31:25Z</time>
   </trkpt>
   <trkpt lat="-3.2195500" lon="37.3415940">
    <ele>1659.0</ele>
    <time>2026-06-24T08:31:26Z</time>
   </trkpt>
   <trkpt lat="-3.2195500" lon="37.3415940">
    <ele>1659.0</ele>
    <time>2026-06-24T08:31:27Z</time>
   </trkpt>
   <trkpt lat="-3.2195500" lon="37.3415940">
    <ele>1659.0</ele>
    <time>2026-06-24T08:31:28Z</time>
   </trkpt>
   <trkpt lat="-3.2195500" lon="37.3415940">
    <ele>1659.0</ele>
    <time>2026-06-24T08:31:29Z</time>
   </trkpt>
   <trkpt lat="-3.2195500" lon="37.3415940">
    <ele>1659.0</ele>
    <time>2026-06-24T08:31:30Z</time>
   </trkpt>
   <trkpt lat="-3.2195500" lon="37.3415940">
    <ele>1659.0</ele>
    <time>2026-06-24T08:31:31Z</time>
   </trkpt>
   <trkpt lat="-3.2195500" lon="37.3415940">
    <ele>1659.0</ele>
    <time>2026-06-24T08:31:32Z</time>
   </trkpt>
   <trkpt lat="-3.2195500" lon="37.3415940">
    <ele>1659.0</ele>
    <time>2026-06-24T08:31:33Z</time>
   </trkpt>
   <trkpt lat="-3.2195500" lon="37.3415940">
    <ele>1659.0</ele>
    <time>2026-06-24T08:31:34Z</time>
   </trkpt>
   <trkpt lat="-3.2195500" lon="37.3415940">
    <ele>1659.0</ele>
    <time>2026-06-24T08:31:35Z</time>
   </trkpt>
   <trkpt lat="-3.2195500" lon="37.3415940">
    <ele>1659.0</ele>
    <time>2026-06-24T08:31:36Z</time>
   </trkpt>
   <trkpt lat="-3.2195500" lon="37.3415940">
    <ele>1659.0</ele>
    <time>2026-06-24T08:31:37Z</time>
   </trkpt>
   <trkpt lat="-3.2195500" lon="37.3415940">
    <ele>1659.0</ele>
    <time>2026-06-24T08:31:38Z</time>
   </trkpt>
   <trkpt lat="-3.2195500" lon="37.3415940">
    <ele>1659.0</ele>
    <time>2026-06-24T08:31:39Z</time>
   </trkpt>
   <trkpt lat="-3.2195500" lon="37.3415940">
    <ele>1659.0</ele>
    <time>2026-06-24T08:31:40Z</time>
   </trkpt>
   <trkpt lat="-3.2195500" lon="37.3415940">
    <ele>1659.0</ele>
    <time>2026-06-24T08:31:41Z</time>
   </trkpt>
   <trkpt lat="-3.2195500" lon="37.3415940">
    <ele>1659.0</ele>
    <time>2026-06-24T08:31:42Z</time>
   </trkpt>
   <trkpt lat="-3.2195500" lon="37.3415940">
    <ele>1659.0</ele>
    <time>2026-06-24T08:31:43Z</time>
   </trkpt>
   <trkpt lat="-3.2195500" lon="37.3415940">
    <ele>1659.0</ele>
    <time>2026-06-24T08:31:44Z</time>
   </trkpt>
   <trkpt lat="-3.2195500" lon="37.3415940">
    <ele>1659.0</ele>
    <time>2026-06-24T08:31:45Z</time>
   </trkpt>
   <trkpt lat="-3.2195500" lon="37.3415940">
    <ele>1659.0</ele>
    <time>2026-06-24T08:31:46Z</time>
   </trkpt>
   <trkpt lat="-3.2195500" lon="37.3415940">
    <ele>1659.0</ele>
    <time>2026-06-24T08:31:47Z</time>
   </trkpt>
   <trkpt lat="-3.2195500" lon="37.3415940">
    <ele>1659.0</ele>
    <time>2026-06-24T08:31:48Z</time>
   </trkpt>
   <trkpt lat="-3.2195500" lon="37.3415940">
    <ele>1659.0</ele>
    <time>2026-06-24T08:31:49Z</time>
   </trkpt>
   <trkpt lat="-3.2195500" lon="37.3415940">
    <ele>1659.0</ele>
    <time>2026-06-24T08:31:50Z</time>
   </trkpt>
   <trkpt lat="-3.2195500" lon="37.3415940">
    <ele>1659.0</ele>
    <time>2026-06-24T08:31:51Z</time>
   </trkpt>
   <trkpt lat="-3.2195500" lon="37.3415940">
    <ele>1659.0</ele>
    <time>2026-06-24T08:31:52Z</time>
   </trkpt>
   <trkpt lat="-3.2195500" lon="37.3415940">
    <ele>1659.0</ele>
    <time>2026-06-24T08:31:53Z</time>
   </trkpt>
   <trkpt lat="-3.2195500" lon="37.3415940">
    <ele>1659.0</ele>
    <time>2026-06-24T08:31:54Z</time>
   </trkpt>
   <trkpt lat="-3.2195500" lon="37.3415940">
    <ele>1659.0</ele>
    <time>2026-06-24T08:31:55Z</time>
   </trkpt>
   <trkpt lat="-3.2195500" lon="37.3415940">
    <ele>1659.0</ele>
    <time>2026-06-24T08:31:56Z</time>
   </trkpt>
   <trkpt lat="-3.2195500" lon="37.3415940">
    <ele>1659.0</ele>
    <time>2026-06-24T08:31:57Z</time>
   </trkpt>
   <trkpt lat="-3.2195500" lon="37.3415940">
    <ele>1659.0</ele>
    <time>2026-06-24T08:31:58Z</time>
   </trkpt>
   <trkpt lat="-3.2195500" lon="37.3415940">
    <ele>1659.0</ele>
    <time>2026-06-24T08:31:59Z</time>
   </trkpt>
   <trkpt lat="-3.2195500" lon="37.3415940">
    <ele>1659.0</ele>
    <time>2026-06-24T08:32:00Z</time>
   </trkpt>
   <trkpt lat="-3.2195500" lon="37.3415940">
    <ele>1659.0</ele>
    <time>2026-06-24T08:32:01Z</time>
   </trkpt>
   <trkpt lat="-3.2195500" lon="37.3415940">
    <ele>1659.0</ele>
    <time>2026-06-24T08:32:02Z</time>
   </trkpt>
   <trkpt lat="-3.2195500" lon="37.3415940">
    <ele>1659.0</ele>
    <time>2026-06-24T08:32:03Z</time>
   </trkpt>
   <trkpt lat="-3.2195500" lon="37.3415940">
    <ele>1659.0</ele>
    <time>2026-06-24T08:32:04Z</time>
   </trkpt>
   <trkpt lat="-3.2195500" lon="37.3415940">
    <ele>1659.0</ele>
    <time>2026-06-24T08:32:05Z</time>
   </trkpt>
   <trkpt lat="-3.2195500" lon="37.3415940">
    <ele>1659.0</ele>
    <time>2026-06-24T08:32:06Z</time>
   </trkpt>
   <trkpt lat="-3.2195500" lon="37.3415940">
    <ele>1659.0</ele>
    <time>2026-06-24T08:32:07Z</time>
   </trkpt>
   <trkpt lat="-3.2195500" lon="37.3415940">
    <ele>1659.0</ele>
    <time>2026-06-24T08:32:08Z</time>
   </trkpt>
   <trkpt lat="-3.2195500" lon="37.3415940">
    <ele>1659.0</ele>
    <time>2026-06-24T08:32:09Z</time>
   </trkpt>
   <trkpt lat="-3.2195500" lon="37.3415940">
    <ele>1659.0</ele>
    <time>2026-06-24T08:32:10Z</time>
   </trkpt>
   <trkpt lat="-3.2195500" lon="37.3415940">
    <ele>1659.0</ele>
    <time>2026-06-24T08:32:11Z</time>
   </trkpt>
   <trkpt lat="-3.2195500" lon="37.3415940">
    <ele>1659.0</ele>
    <time>2026-06-24T08:32:12Z</time>
   </trkpt>
   <trkpt lat="-3.2195500" lon="37.3415940">
    <ele>1659.0</ele>
    <time>2026-06-24T08:32:13Z</time>
   </trkpt>
   <trkpt lat="-3.2195500" lon="37.3415940">
    <ele>1659.0</ele>
    <time>2026-06-24T08:32:14Z</time>
   </trkpt>
   <trkpt lat="-3.2195500" lon="37.3415940">
    <ele>1659.0</ele>
    <time>2026-06-24T08:32:15Z</time>
   </trkpt>
   <trkpt lat="-3.2195500" lon="37.3415940">
    <ele>1659.0</ele>
    <time>2026-06-24T08:32:16Z</time>
   </trkpt>
   <trkpt lat="-3.2195500" lon="37.3415940">
    <ele>1659.0</ele>
    <time>2026-06-24T08:32:17Z</time>
   </trkpt>
   <trkpt lat="-3.2195500" lon="37.3415940">
    <ele>1659.0</ele>
    <time>2026-06-24T08:32:18Z</time>
   </trkpt>
   <trkpt lat="-3.2195500" lon="37.3415940">
    <ele>1659.0</ele>
    <time>2026-06-24T08:32:19Z</time>
   </trkpt>
   <trkpt lat="-3.2195500" lon="37.3415940">
    <ele>1659.0</ele>
    <time>2026-06-24T08:32:20Z</time>
   </trkpt>
   <trkpt lat="-3.2195500" lon="37.3415940">
    <ele>1659.0</ele>
    <time>2026-06-24T08:32:21Z</time>
   </trkpt>
   <trkpt lat="-3.2195500" lon="37.3415940">
    <ele>1659.0</ele>
    <time>2026-06-24T08:32:22Z</time>
   </trkpt>
   <trkpt lat="-3.2195500" lon="37.3415940">
    <ele>1659.0</ele>
    <time>2026-06-24T08:32:23Z</time>
   </trkpt>
   <trkpt lat="-3.2195500" lon="37.3415940">
    <ele>1659.0</ele>
    <time>2026-06-24T08:32:24Z</time>
   </trkpt>
   <trkpt lat="-3.2195500" lon="37.3415940">
    <ele>1659.0</ele>
    <time>2026-06-24T08:32:25Z</time>
   </trkpt>
   <trkpt lat="-3.2195500" lon="37.3415940">
    <ele>1659.0</ele>
    <time>2026-06-24T08:32:26Z</time>
   </trkpt>
   <trkpt lat="-3.2195500" lon="37.3415940">
    <ele>1659.0</ele>
    <time>2026-06-24T08:32:27Z</time>
   </trkpt>
   <trkpt lat="-3.2195500" lon="37.3415940">
    <ele>1659.0</ele>
    <time>2026-06-24T08:32:28Z</time>
   </trkpt>
   <trkpt lat="-3.2195500" lon="37.3415940">
    <ele>1659.0</ele>
    <time>2026-06-24T08:32:29Z</time>
   </trkpt>
   <trkpt lat="-3.2195500" lon="37.3415940">
    <ele>1659.0</ele>
    <time>2026-06-24T08:32:30Z</time>
   </trkpt>
   <trkpt lat="-3.2195500" lon="37.3415940">
    <ele>1659.0</ele>
    <time>2026-06-24T08:32:31Z</time>
   </trkpt>
   <trkpt lat="-3.2195500" lon="37.3415940">
    <ele>1659.0</ele>
    <time>2026-06-24T08:32:32Z</time>
   </trkpt>
   <trkpt lat="-3.2195500" lon="37.3415940">
    <ele>1659.0</ele>
    <time>2026-06-24T08:32:33Z</time>
   </trkpt>
   <trkpt lat="-3.2195500" lon="37.3415940">
    <ele>1659.0</ele>
    <time>2026-06-24T08:32:34Z</time>
   </trkpt>
   <trkpt lat="-3.2195500" lon="37.3415940">
    <ele>1659.0</ele>
    <time>2026-06-24T08:32:35Z</time>
   </trkpt>
   <trkpt lat="-3.2195500" lon="37.3415940">
    <ele>1659.0</ele>
    <time>2026-06-24T08:32:36Z</time>
   </trkpt>
   <trkpt lat="-3.2195500" lon="37.3415940">
    <ele>1659.0</ele>
    <time>2026-06-24T08:32:37Z</time>
   </trkpt>
   <trkpt lat="-3.2195500" lon="37.3415940">
    <ele>1659.0</ele>
    <time>2026-06-24T08:32:38Z</time>
   </trkpt>
   <trkpt lat="-3.2195500" lon="37.3415940">
    <ele>1659.0</ele>
    <time>2026-06-24T08:32:39Z</time>
   </trkpt>
   <trkpt lat="-3.2195500" lon="37.3415940">
    <ele>1659.0</ele>
    <time>2026-06-24T08:32:40Z</time>
   </trkpt>
   <trkpt lat="-3.2195500" lon="37.3415940">
    <ele>1659.0</ele>
    <time>2026-06-24T08:32:41Z</time>
   </trkpt>
   <trkpt lat="-3.2195500" lon="37.3415940">
    <ele>1659.0</ele>
    <time>2026-06-24T08:32:42Z</time>
   </trkpt>
   <trkpt lat="-3.2195660" lon="37.3416030">
    <ele>1658.8</ele>
    <time>2026-06-24T08:32:43Z</time>
   </trkpt>
   <trkpt lat="-3.2195720" lon="37.3415960">
    <ele>1658.7</ele>
    <time>2026-06-24T08:32:44Z</time>
   </trkpt>
   <trkpt lat="-3.2195680" lon="37.3415980">
    <ele>1658.7</ele>
    <time>2026-06-24T08:32:45Z</time>
   </trkpt>
   <trkpt lat="-3.2195650" lon="37.3415970">
    <ele>1658.6</ele>
    <time>2026-06-24T08:32:46Z</time>
   </trkpt>
   <trkpt lat="-3.2195690" lon="37.3415940">
    <ele>1658.6</ele>
    <time>2026-06-24T08:32:47Z</time>
   </trkpt>
   <trkpt lat="-3.2195640" lon="37.3415940">
    <ele>1658.5</ele>
    <time>2026-06-24T08:32:48Z</time>
   </trkpt>
   <trkpt lat="-3.2195650" lon="37.3415940">
    <ele>1658.5</ele>
    <time>2026-06-24T08:32:49Z</time>
   </trkpt>
   <trkpt lat="-3.2195690" lon="37.3415870">
    <ele>1658.4</ele>
    <time>2026-06-24T08:32:50Z</time>
   </trkpt>
   <trkpt lat="-3.2195750" lon="37.3415820">
    <ele>1658.3</ele>
    <time>2026-06-24T08:32:51Z</time>
   </trkpt>
   <trkpt lat="-3.2195730" lon="37.3415770">
    <ele>1658.3</ele>
    <time>2026-06-24T08:32:52Z</time>
   </trkpt>
   <trkpt lat="-3.2195750" lon="37.3415790">
    <ele>1658.2</ele>
    <time>2026-06-24T08:32:53Z</time>
   </trkpt>
   <trkpt lat="-3.2195810" lon="37.3415740">
    <ele>1658.1</ele>
    <time>2026-06-24T08:32:54Z</time>
   </trkpt>
   <trkpt lat="-3.2195800" lon="37.3415700">
    <ele>1658.1</ele>
    <time>2026-06-24T08:32:55Z</time>
   </trkpt>
   <trkpt lat="-3.2195780" lon="37.3415620">
    <ele>1658.0</ele>
    <time>2026-06-24T08:32:56Z</time>
   </trkpt>
   <trkpt lat="-3.2195750" lon="37.3415530">
    <ele>1657.9</ele>
    <time>2026-06-24T08:32:57Z</time>
   </trkpt>
   <trkpt lat="-3.2195720" lon="37.3415500">
    <ele>1657.8</ele>
    <time>2026-06-24T08:32:58Z</time>
   </trkpt>
   <trkpt lat="-3.2195640" lon="37.3415380">
    <ele>1657.6</ele>
    <time>2026-06-24T08:32:59Z</time>
   </trkpt>
   <trkpt lat="-3.2195580" lon="37.3415330">
    <ele>1657.5</ele>
    <time>2026-06-24T08:33:00Z</time>
   </trkpt>
   <trkpt lat="-3.2195540" lon="37.3415280">
    <ele>1657.5</ele>
    <time>2026-06-24T08:33:01Z</time>
   </trkpt>
   <trkpt lat="-3.2195530" lon="37.3415280">
    <ele>1657.5</ele>
    <time>2026-06-24T08:33:02Z</time>
   </trkpt>
   <trkpt lat="-3.2195540" lon="37.3415240">
    <ele>1657.4</ele>
    <time>2026-06-24T08:33:03Z</time>
   </trkpt>
   <trkpt lat="-3.2195450" lon="37.3415330">
    <ele>1657.3</ele>
    <time>2026-06-24T08:33:04Z</time>
   </trkpt>
   <trkpt lat="-3.2195510" lon="37.3415300">
    <ele>1657.2</ele>
    <time>2026-06-24T08:33:05Z</time>
   </trkpt>
   <trkpt lat="-3.2195520" lon="37.3415300">
    <ele>1657.2</ele>
    <time>2026-06-24T08:33:06Z</time>
   </trkpt>
   <trkpt lat="-3.2195530" lon="37.3415280">
    <ele>1657.1</ele>
    <time>2026-06-24T08:33:07Z</time>
   </trkpt>
   <trkpt lat="-3.2195500" lon="37.3415300">
    <ele>1657.1</ele>
    <time>2026-06-24T08:33:08Z</time>
   </trkpt>
   <trkpt lat="-3.2195500" lon="37.3415310">
    <ele>1657.1</ele>
    <time>2026-06-24T08:33:09Z</time>
   </trkpt>
   <trkpt lat="-3.2195510" lon="37.3415320">
    <ele>1657.1</ele>
    <time>2026-06-24T08:33:10Z</time>
   </trkpt>
   <trkpt lat="-3.2195520" lon="37.3415310">
    <ele>1657.0</ele>
    <time>2026-06-24T08:33:11Z</time>
   </trkpt>
   <trkpt lat="-3.2195530" lon="37.3415310">
    <ele>1657.0</ele>
    <time>2026-06-24T08:33:12Z</time>
   </trkpt>
   <trkpt lat="-3.2195520" lon="37.3415320">
    <ele>1657.0</ele>
    <time>2026-06-24T08:33:13Z</time>
   </trkpt>
   <trkpt lat="-3.2195500" lon="37.3415320">
    <ele>1657.0</ele>
    <time>2026-06-24T08:33:14Z</time>
   </trkpt>
   <trkpt lat="-3.2195510" lon="37.3415310">
    <ele>1657.0</ele>
    <time>2026-06-24T08:33:15Z</time>
   </trkpt>
   <trkpt lat="-3.2195470" lon="37.3415300">
    <ele>1656.9</ele>
    <time>2026-06-24T08:33:16Z</time>
   </trkpt>
   <trkpt lat="-3.2195490" lon="37.3415240">
    <ele>1656.8</ele>
    <time>2026-06-24T08:33:17Z</time>
   </trkpt>
   <trkpt lat="-3.2195470" lon="37.3415200">
    <ele>1656.8</ele>
    <time>2026-06-24T08:33:18Z</time>
   </trkpt>
   <trkpt lat="-3.2195470" lon="37.3415130">
    <ele>1656.7</ele>
    <time>2026-06-24T08:33:19Z</time>
   </trkpt>
   <trkpt lat="-3.2195470" lon="37.3415160">
    <ele>1656.7</ele>
    <time>2026-06-24T08:33:20Z</time>
   </trkpt>
   <trkpt lat="-3.2195450" lon="37.3415180">
    <ele>1656.6</ele>
    <time>2026-06-24T08:33:21Z</time>
   </trkpt>
   <trkpt lat="-3.2195470" lon="37.3415150">
    <ele>1656.6</ele>
    <time>2026-06-24T08:33:22Z</time>
   </trkpt>
   <trkpt lat="-3.2195470" lon="37.3415150">
    <ele>1656.6</ele>
    <time>2026-06-24T08:33:23Z</time>
   </trkpt>
   <trkpt lat="-3.2195440" lon="37.3415130">
    <ele>1656.6</ele>
    <time>2026-06-24T08:33:24Z</time>
   </trkpt>
   <trkpt lat="-3.2195420" lon="37.3415090">
    <ele>1656.5</ele>
    <time>2026-06-24T08:33:25Z</time>
   </trkpt>
   <trkpt lat="-3.2195360" lon="37.3415040">
    <ele>1656.4</ele>
    <time>2026-06-24T08:33:26Z</time>
   </trkpt>
   <trkpt lat="-3.2195320" lon="37.3414990">
    <ele>1656.3</ele>
    <time>2026-06-24T08:33:27Z</time>
   </trkpt>
   <trkpt lat="-3.2195280" lon="37.3414910">
    <ele>1656.2</ele>
    <time>2026-06-24T08:33:28Z</time>
   </trkpt>
   <trkpt lat="-3.2195200" lon="37.3414760">
    <ele>1656.0</ele>
    <time>2026-06-24T08:33:29Z</time>
   </trkpt>
   <trkpt lat="-3.2195180" lon="37.3414720">
    <ele>1656.0</ele>
    <time>2026-06-24T08:33:30Z</time>
   </trkpt>
   <trkpt lat="-3.2195180" lon="37.3414630">
    <ele>1655.9</ele>
    <time>2026-06-24T08:33:31Z</time>
   </trkpt>
   <trkpt lat="-3.2195200" lon="37.3414600">
    <ele>1655.8</ele>
    <time>2026-06-24T08:33:32Z</time>
   </trkpt>
   <trkpt lat="-3.2195230" lon="37.3414550">
    <ele>1655.7</ele>
    <time>2026-06-24T08:33:33Z</time>
   </trkpt>
   <trkpt lat="-3.2195260" lon="37.3414570">
    <ele>1655.7</ele>
    <time>2026-06-24T08:33:34Z</time>
   </trkpt>
   <trkpt lat="-3.2195160" lon="37.3414600">
    <ele>1655.6</ele>
    <time>2026-06-24T08:33:35Z</time>
   </trkpt>
   <trkpt lat="-3.2195160" lon="37.3414610">
    <ele>1655.6</ele>
    <time>2026-06-24T08:33:36Z</time>
   </trkpt>
   <trkpt lat="-3.2195180" lon="37.3414590">
    <ele>1655.5</ele>
    <time>2026-06-24T08:33:37Z</time>
   </trkpt>
   <trkpt lat="-3.2195180" lon="37.3414600">
    <ele>1655.5</ele>
    <time>2026-06-24T08:33:38Z</time>
   </trkpt>
   <trkpt lat="-3.2195160" lon="37.3414560">
    <ele>1655.5</ele>
    <time>2026-06-24T08:33:39Z</time>
   </trkpt>
   <trkpt lat="-3.2195170" lon="37.3414530">
    <ele>1655.4</ele>
    <time>2026-06-24T08:33:40Z</time>
   </trkpt>
   <trkpt lat="-3.2195160" lon="37.3414510">
    <ele>1655.4</ele>
    <time>2026-06-24T08:33:41Z</time>
   </trkpt>
   <trkpt lat="-3.2195070" lon="37.3414530">
    <ele>1655.3</ele>
    <time>2026-06-24T08:33:42Z</time>
   </trkpt>
   <trkpt lat="-3.2195020" lon="37.3414490">
    <ele>1655.2</ele>
    <time>2026-06-24T08:33:43Z</time>
   </trkpt>
   <trkpt lat="-3.2195030" lon="37.3414510">
    <ele>1655.2</ele>
    <time>2026-06-24T08:33:44Z</time>
   </trkpt>
   <trkpt lat="-3.2195010" lon="37.3414550">
    <ele>1655.1</ele>
    <time>2026-06-24T08:33:45Z</time>
   </trkpt>
   <trkpt lat="-3.2195010" lon="37.3414560">
    <ele>1655.1</ele>
    <time>2026-06-24T08:33:46Z</time>
   </trkpt>
   <trkpt lat="-3.2195010" lon="37.3414560">
    <ele>1655.1</ele>
    <time>2026-06-24T08:33:47Z</time>
   </trkpt>
   <trkpt lat="-3.2195020" lon="37.3414540">
    <ele>1655.1</ele>
    <time>2026-06-24T08:33:48Z</time>
   </trkpt>
   <trkpt lat="-3.2195020" lon="37.3414540">
    <ele>1655.1</ele>
    <time>2026-06-24T08:33:49Z</time>
   </trkpt>
   <trkpt lat="-3.2194990" lon="37.3414570">
    <ele>1655.0</ele>
    <time>2026-06-24T08:33:50Z</time>
   </trkpt>
   <trkpt lat="-3.2194990" lon="37.3414560">
    <ele>1655.0</ele>
    <time>2026-06-24T08:33:51Z</time>
   </trkpt>
   <trkpt lat="-3.2194980" lon="37.3414580">
    <ele>1655.0</ele>
    <time>2026-06-24T08:33:52Z</time>
   </trkpt>
   <trkpt lat="-3.2194960" lon="37.3414590">
    <ele>1655.0</ele>
    <time>2026-06-24T08:33:53Z</time>
   </trkpt>
   <trkpt lat="-3.2194960" lon="37.3414580">
    <ele>1655.0</ele>
    <time>2026-06-24T08:33:54Z</time>
   </trkpt>
   <trkpt lat="-3.2194940" lon="37.3414600">
    <ele>1654.9</ele>
    <time>2026-06-24T08:33:55Z</time>
   </trkpt>
   <trkpt lat="-3.2194970" lon="37.3414590">
    <ele>1654.9</ele>
    <time>2026-06-24T08:33:56Z</time>
   </trkpt>
   <trkpt lat="-3.2194960" lon="37.3414600">
    <ele>1654.9</ele>
    <time>2026-06-24T08:33:57Z</time>
   </trkpt>
   <trkpt lat="-3.2194940" lon="37.3414620">
    <ele>1654.8</ele>
    <time>2026-06-24T08:33:58Z</time>
   </trkpt>
   <trkpt lat="-3.2194920" lon="37.3414630">
    <ele>1654.8</ele>
    <time>2026-06-24T08:33:59Z</time>
   </trkpt>
   <trkpt lat="-3.2194860" lon="37.3414630">
    <ele>1654.7</ele>
    <time>2026-06-24T08:34:00Z</time>
   </trkpt>
   <trkpt lat="-3.2194870" lon="37.3414670">
    <ele>1654.7</ele>
    <time>2026-06-24T08:34:01Z</time>
   </trkpt>
   <trkpt lat="-3.2194850" lon="37.3414630">
    <ele>1654.6</ele>
    <time>2026-06-24T08:34:02Z</time>
   </trkpt>
   <trkpt lat="-3.2194810" lon="37.3414650">
    <ele>1654.6</ele>
    <time>2026-06-24T08:34:03Z</time>
   </trkpt>
   <trkpt lat="-3.2194800" lon="37.3414630">
    <ele>1654.5</ele>
    <time>2026-06-24T08:34:04Z</time>
   </trkpt>
   <trkpt lat="-3.2194820" lon="37.3414630">
    <ele>1654.5</ele>
    <time>2026-06-24T08:34:05Z</time>
   </trkpt>
   <trkpt lat="-3.2194830" lon="37.3414640">
    <ele>1654.5</ele>
    <time>2026-06-24T08:34:06Z</time>
   </trkpt>
   <trkpt lat="-3.2194840" lon="37.3414660">
    <ele>1654.5</ele>
    <time>2026-06-24T08:34:07Z</time>
   </trkpt>
   <trkpt lat="-3.2194850" lon="37.3414670">
    <ele>1654.5</ele>
    <time>2026-06-24T08:34:08Z</time>
   </trkpt>
   <trkpt lat="-3.2194840" lon="37.3414690">
    <ele>1654.4</ele>
    <time>2026-06-24T08:34:09Z</time>
   </trkpt>
   <trkpt lat="-3.2194850" lon="37.3414750">
    <ele>1654.4</ele>
    <time>2026-06-24T08:34:10Z</time>
   </trkpt>
   <trkpt lat="-3.2194770" lon="37.3414750">
    <ele>1654.3</ele>
    <time>2026-06-24T08:34:11Z</time>
   </trkpt>
   <trkpt lat="-3.2194740" lon="37.3414820">
    <ele>1654.2</ele>
    <time>2026-06-24T08:34:12Z</time>
   </trkpt>
   <trkpt lat="-3.2194730" lon="37.3414790">
    <ele>1654.1</ele>
    <time>2026-06-24T08:34:13Z</time>
   </trkpt>
   <trkpt lat="-3.2194790" lon="37.3414770">
    <ele>1654.1</ele>
    <time>2026-06-24T08:34:14Z</time>
   </trkpt>
   <trkpt lat="-3.2194780" lon="37.3414850">
    <ele>1654.0</ele>
    <time>2026-06-24T08:34:15Z</time>
   </trkpt>
   <trkpt lat="-3.2194780" lon="37.3414800">
    <ele>1653.9</ele>
    <time>2026-06-24T08:34:16Z</time>
   </trkpt>
   <trkpt lat="-3.2194770" lon="37.3414750">
    <ele>1653.8</ele>
    <time>2026-06-24T08:34:17Z</time>
   </trkpt>
   <trkpt lat="-3.2194800" lon="37.3414770">
    <ele>1653.8</ele>
    <time>2026-06-24T08:34:18Z</time>
   </trkpt>
   <trkpt lat="-3.2194780" lon="37.3414760">
    <ele>1653.8</ele>
    <time>2026-06-24T08:34:19Z</time>
   </trkpt>
   <trkpt lat="-3.2194780" lon="37.3414730">
    <ele>1653.7</ele>
    <time>2026-06-24T08:34:20Z</time>
   </trkpt>
   <trkpt lat="-3.2194790" lon="37.3414730">
    <ele>1653.7</ele>
    <time>2026-06-24T08:34:21Z</time>
   </trkpt>
   <trkpt lat="-3.2194790" lon="37.3414720">
    <ele>1653.7</ele>
    <time>2026-06-24T08:34:22Z</time>
   </trkpt>
   <trkpt lat="-3.2194800" lon="37.3414720">
    <ele>1653.7</ele>
    <time>2026-06-24T08:34:23Z</time>
   </trkpt>
   <trkpt lat="-3.2194800" lon="37.3414700">
    <ele>1653.7</ele>
    <time>2026-06-24T08:34:24Z</time>
   </trkpt>
   <trkpt lat="-3.2194800" lon="37.3414690">
    <ele>1653.7</ele>
    <time>2026-06-24T08:34:25Z</time>
   </trkpt>
   <trkpt lat="-3.2194800" lon="37.3414680">
    <ele>1653.7</ele>
    <time>2026-06-24T08:34:26Z</time>
   </trkpt>
   <trkpt lat="-3.2194800" lon="37.3414680">
    <ele>1653.7</ele>
    <time>2026-06-24T08:34:27Z</time>
   </trkpt>
   <trkpt lat="-3.2194800" lon="37.3414680">
    <ele>1653.7</ele>
    <time>2026-06-24T08:34:28Z</time>
   </trkpt>
   <trkpt lat="-3.2194820" lon="37.3414700">
    <ele>1653.6</ele>
    <time>2026-06-24T08:34:29Z</time>
   </trkpt>
   <trkpt lat="-3.2194820" lon="37.3414700">
    <ele>1653.6</ele>
    <time>2026-06-24T08:34:30Z</time>
   </trkpt>
   <trkpt lat="-3.2194830" lon="37.3414710">
    <ele>1653.6</ele>
    <time>2026-06-24T08:34:31Z</time>
   </trkpt>
   <trkpt lat="-3.2194820" lon="37.3414690">
    <ele>1653.6</ele>
    <time>2026-06-24T08:34:32Z</time>
   </trkpt>
   <trkpt lat="-3.2194820" lon="37.3414690">
    <ele>1653.6</ele>
    <time>2026-06-24T08:34:33Z</time>
   </trkpt>
   <trkpt lat="-3.2194820" lon="37.3414690">
    <ele>1653.6</ele>
    <time>2026-06-24T08:34:34Z</time>
   </trkpt>
   <trkpt lat="-3.2194830" lon="37.3414680">
    <ele>1653.6</ele>
    <time>2026-06-24T08:34:35Z</time>
   </trkpt>
   <trkpt lat="-3.2194830" lon="37.3414680">
    <ele>1653.6</ele>
    <time>2026-06-24T08:34:36Z</time>
   </trkpt>
   <trkpt lat="-3.2194840" lon="37.3414680">
    <ele>1653.5</ele>
    <time>2026-06-24T08:34:37Z</time>
   </trkpt>
   <trkpt lat="-3.2194830" lon="37.3414670">
    <ele>1653.5</ele>
    <time>2026-06-24T08:34:38Z</time>
   </trkpt>
   <trkpt lat="-3.2194840" lon="37.3414680">
    <ele>1653.5</ele>
    <time>2026-06-24T08:34:39Z</time>
   </trkpt>
   <trkpt lat="-3.2194840" lon="37.3414690">
    <ele>1653.5</ele>
    <time>2026-06-24T08:34:40Z</time>
   </trkpt>
   <trkpt lat="-3.2194850" lon="37.3414690">
    <ele>1653.5</ele>
    <time>2026-06-24T08:34:41Z</time>
   </trkpt>
   <trkpt lat="-3.2194850" lon="37.3414690">
    <ele>1653.5</ele>
    <time>2026-06-24T08:34:42Z</time>
   </trkpt>
   <trkpt lat="-3.2194850" lon="37.3414700">
    <ele>1653.5</ele>
    <time>2026-06-24T08:34:43Z</time>
   </trkpt>
   <trkpt lat="-3.2194850" lon="37.3414700">
    <ele>1653.5</ele>
    <time>2026-06-24T08:34:44Z</time>
   </trkpt>
   <trkpt lat="-3.2194850" lon="37.3414730">
    <ele>1653.4</ele>
    <time>2026-06-24T08:34:45Z</time>
   </trkpt>
   <trkpt lat="-3.2194840" lon="37.3414730">
    <ele>1653.4</ele>
    <time>2026-06-24T08:34:46Z</time>
   </trkpt>
   <trkpt lat="-3.2194840" lon="37.3414740">
    <ele>1653.4</ele>
    <time>2026-06-24T08:34:47Z</time>
   </trkpt>
   <trkpt lat="-3.2194830" lon="37.3414740">
    <ele>1653.4</ele>
    <time>2026-06-24T08:34:48Z</time>
   </trkpt>
   <trkpt lat="-3.2194830" lon="37.3414750">
    <ele>1653.4</ele>
    <time>2026-06-24T08:34:49Z</time>
   </trkpt>
   <trkpt lat="-3.2194830" lon="37.3414750">
    <ele>1653.4</ele>
    <time>2026-06-24T08:34:50Z</time>
   </trkpt>
   <trkpt lat="-3.2194830" lon="37.3414750">
    <ele>1653.4</ele>
    <time>2026-06-24T08:34:51Z</time>
   </trkpt>
   <trkpt lat="-3.2194830" lon="37.3414740">
    <ele>1653.4</ele>
    <time>2026-06-24T08:34:52Z</time>
   </trkpt>
   <trkpt lat="-3.2194840" lon="37.3414740">
    <ele>1653.4</ele>
    <time>2026-06-24T08:34:53Z</time>
   </trkpt>
   <trkpt lat="-3.2194850" lon="37.3414740">
    <ele>1653.4</ele>
    <time>2026-06-24T08:34:54Z</time>
   </trkpt>
   <trkpt lat="-3.2194850" lon="37.3414740">
    <ele>1653.4</ele>
    <time>2026-06-24T08:34:55Z</time>
   </trkpt>
   <trkpt lat="-3.2194830" lon="37.3414710">
    <ele>1653.3</ele>
    <time>2026-06-24T08:34:56Z</time>
   </trkpt>
   <trkpt lat="-3.2194840" lon="37.3414710">
    <ele>1653.3</ele>
    <time>2026-06-24T08:34:57Z</time>
   </trkpt>
   <trkpt lat="-3.2194840" lon="37.3414710">
    <ele>1653.3</ele>
    <time>2026-06-24T08:34:58Z</time>
   </trkpt>
   <trkpt lat="-3.2194830" lon="37.3414710">
    <ele>1653.3</ele>
    <time>2026-06-24T08:34:59Z</time>
   </trkpt>
   <trkpt lat="-3.2194830" lon="37.3414710">
    <ele>1653.3</ele>
    <time>2026-06-24T08:35:00Z</time>
   </trkpt>
   <trkpt lat="-3.2194830" lon="37.3414710">
    <ele>1653.3</ele>
    <time>2026-06-24T08:35:01Z</time>
   </trkpt>
   <trkpt lat="-3.2194830" lon="37.3414710">
    <ele>1653.3</ele>
    <time>2026-06-24T08:35:02Z</time>
   </trkpt>
   <trkpt lat="-3.2194830" lon="37.3414710">
    <ele>1653.3</ele>
    <time>2026-06-24T08:35:03Z</time>
   </trkpt>
   <trkpt lat="-3.2194830" lon="37.3414710">
    <ele>1653.3</ele>
    <time>2026-06-24T08:35:04Z</time>
   </trkpt>
   <trkpt lat="-3.2194830" lon="37.3414710">
    <ele>1653.3</ele>
    <time>2026-06-24T08:35:05Z</time>
   </trkpt>
   <trkpt lat="-3.2194830" lon="37.3414710">
    <ele>1653.3</ele>
    <time>2026-06-24T08:35:06Z</time>
   </trkpt>
   <trkpt lat="-3.2194840" lon="37.3414700">
    <ele>1653.3</ele>
    <time>2026-06-24T08:35:07Z</time>
   </trkpt>
   <trkpt lat="-3.2194830" lon="37.3414710">
    <ele>1653.3</ele>
    <time>2026-06-24T08:35:08Z</time>
   </trkpt>
   <trkpt lat="-3.2194830" lon="37.3414710">
    <ele>1653.3</ele>
    <time>2026-06-24T08:35:09Z</time>
   </trkpt>
   <trkpt lat="-3.2194830" lon="37.3414710">
    <ele>1653.3</ele>
    <time>2026-06-24T08:35:10Z</time>
   </trkpt>
   <trkpt lat="-3.2194820" lon="37.3414710">
    <ele>1653.2</ele>
    <time>2026-06-24T08:35:11Z</time>
   </trkpt>
   <trkpt lat="-3.2194820" lon="37.3414710">
    <ele>1653.2</ele>
    <time>2026-06-24T08:35:12Z</time>
   </trkpt>
   <trkpt lat="-3.2194810" lon="37.3414710">
    <ele>1653.2</ele>
    <time>2026-06-24T08:35:13Z</time>
   </trkpt>
   <trkpt lat="-3.2194780" lon="37.3414710">
    <ele>1653.2</ele>
    <time>2026-06-24T08:35:14Z</time>
   </trkpt>
   <trkpt lat="-3.2194790" lon="37.3414710">
    <ele>1653.2</ele>
    <time>2026-06-24T08:35:15Z</time>
   </trkpt>
   <trkpt lat="-3.2194800" lon="37.3414680">
    <ele>1653.1</ele>
    <time>2026-06-24T08:35:16Z</time>
   </trkpt>
   <trkpt lat="-3.2194780" lon="37.3414670">
    <ele>1653.1</ele>
    <time>2026-06-24T08:35:17Z</time>
   </trkpt>
   <trkpt lat="-3.2194780" lon="37.3414680">
    <ele>1653.1</ele>
    <time>2026-06-24T08:35:18Z</time>
   </trkpt>
   <trkpt lat="-3.2194790" lon="37.3414680">
    <ele>1653.1</ele>
    <time>2026-06-24T08:35:19Z</time>
   </trkpt>
   <trkpt lat="-3.2194790" lon="37.3414680">
    <ele>1653.1</ele>
    <time>2026-06-24T08:35:20Z</time>
   </trkpt>
   <trkpt lat="-3.2194790" lon="37.3414660">
    <ele>1653.1</ele>
    <time>2026-06-24T08:35:21Z</time>
   </trkpt>
   <trkpt lat="-3.2194780" lon="37.3414650">
    <ele>1653.1</ele>
    <time>2026-06-24T08:35:22Z</time>
   </trkpt>
   <trkpt lat="-3.2194780" lon="37.3414650">
    <ele>1653.1</ele>
    <time>2026-06-24T08:35:23Z</time>
   </trkpt>
   <trkpt lat="-3.2194780" lon="37.3414650">
    <ele>1653.1</ele>
    <time>2026-06-24T08:35:24Z</time>
   </trkpt>
   <trkpt lat="-3.2194790" lon="37.3414650">
    <ele>1653.0</ele>
    <time>2026-06-24T08:35:25Z</time>
   </trkpt>
   <trkpt lat="-3.2194770" lon="37.3414650">
    <ele>1653.0</ele>
    <time>2026-06-24T08:35:26Z</time>
   </trkpt>
   <trkpt lat="-3.2194770" lon="37.3414660">
    <ele>1653.0</ele>
    <time>2026-06-24T08:35:27Z</time>
   </trkpt>
   <trkpt lat="-3.2194770" lon="37.3414660">
    <ele>1653.0</ele>
    <time>2026-06-24T08:35:28Z</time>
   </trkpt>
   <trkpt lat="-3.2194770" lon="37.3414660">
    <ele>1653.0</ele>
    <time>2026-06-24T08:35:29Z</time>
   </trkpt>
   <trkpt lat="-3.2194770" lon="37.3414670">
    <ele>1653.0</ele>
    <time>2026-06-24T08:35:30Z</time>
   </trkpt>
   <trkpt lat="-3.2194770" lon="37.3414670">
    <ele>1653.0</ele>
    <time>2026-06-24T08:35:31Z</time>
   </trkpt>
   <trkpt lat="-3.2194770" lon="37.3414670">
    <ele>1653.0</ele>
    <time>2026-06-24T08:35:32Z</time>
   </trkpt>
   <trkpt lat="-3.2194760" lon="37.3414670">
    <ele>1653.0</ele>
    <time>2026-06-24T08:35:33Z</time>
   </trkpt>
   <trkpt lat="-3.2194760" lon="37.3414670">
    <ele>1653.0</ele>
    <time>2026-06-24T08:35:34Z</time>
   </trkpt>
   <trkpt lat="-3.2194780" lon="37.3414630">
    <ele>1652.9</ele>
    <time>2026-06-24T08:35:35Z</time>
   </trkpt>
   <trkpt lat="-3.2194790" lon="37.3414640">
    <ele>1652.9</ele>
    <time>2026-06-24T08:35:36Z</time>
   </trkpt>
   <trkpt lat="-3.2194790" lon="37.3414640">
    <ele>1652.9</ele>
    <time>2026-06-24T08:35:37Z</time>
   </trkpt>
   <trkpt lat="-3.2194780" lon="37.3414660">
    <ele>1652.9</ele>
    <time>2026-06-24T08:35:38Z</time>
   </trkpt>
   <trkpt lat="-3.2194780" lon="37.3414660">
    <ele>1652.9</ele>
    <time>2026-06-24T08:35:39Z</time>
   </trkpt>
   <trkpt lat="-3.2194780" lon="37.3414660">
    <ele>1652.9</ele>
    <time>2026-06-24T08:35:40Z</time>
   </trkpt>
   <trkpt lat="-3.2194780" lon="37.3414660">
    <ele>1652.9</ele>
    <time>2026-06-24T08:35:41Z</time>
   </trkpt>
   <trkpt lat="-3.2194780" lon="37.3414680">
    <ele>1652.8</ele>
    <time>2026-06-24T08:35:42Z</time>
   </trkpt>
   <trkpt lat="-3.2194780" lon="37.3414690">
    <ele>1652.8</ele>
    <time>2026-06-24T08:35:43Z</time>
   </trkpt>
   <trkpt lat="-3.2194780" lon="37.3414700">
    <ele>1652.8</ele>
    <time>2026-06-24T08:35:44Z</time>
   </trkpt>
   <trkpt lat="-3.2194780" lon="37.3414700">
    <ele>1652.8</ele>
    <time>2026-06-24T08:35:45Z</time>
   </trkpt>
   <trkpt lat="-3.2194760" lon="37.3414690">
    <ele>1652.8</ele>
    <time>2026-06-24T08:35:46Z</time>
   </trkpt>
   <trkpt lat="-3.2194760" lon="37.3414700">
    <ele>1652.8</ele>
    <time>2026-06-24T08:35:47Z</time>
   </trkpt>
   <trkpt lat="-3.2194760" lon="37.3414700">
    <ele>1652.8</ele>
    <time>2026-06-24T08:35:48Z</time>
   </trkpt>
   <trkpt lat="-3.2194740" lon="37.3414710">
    <ele>1652.8</ele>
    <time>2026-06-24T08:35:49Z</time>
   </trkpt>
   <trkpt lat="-3.2194750" lon="37.3414710">
    <ele>1652.7</ele>
    <time>2026-06-24T08:35:50Z</time>
   </trkpt>
   <trkpt lat="-3.2194750" lon="37.3414720">
    <ele>1652.7</ele>
    <time>2026-06-24T08:35:51Z</time>
   </trkpt>
   <trkpt lat="-3.2194740" lon="37.3414730">
    <ele>1652.7</ele>
    <time>2026-06-24T08:35:52Z</time>
   </trkpt>
   <trkpt lat="-3.2194730" lon="37.3414720">
    <ele>1652.7</ele>
    <time>2026-06-24T08:35:53Z</time>
   </trkpt>
   <trkpt lat="-3.2194730" lon="37.3414720">
    <ele>1652.7</ele>
    <time>2026-06-24T08:35:54Z</time>
   </trkpt>
   <trkpt lat="-3.2194730" lon="37.3414730">
    <ele>1652.7</ele>
    <time>2026-06-24T08:35:55Z</time>
   </trkpt>
   <trkpt lat="-3.2194720" lon="37.3414730">
    <ele>1652.7</ele>
    <time>2026-06-24T08:35:56Z</time>
   </trkpt>
   <trkpt lat="-3.2194730" lon="37.3414730">
    <ele>1652.7</ele>
    <time>2026-06-24T08:35:57Z</time>
   </trkpt>
   <trkpt lat="-3.2194730" lon="37.3414720">
    <ele>1652.6</ele>
    <time>2026-06-24T08:35:58Z</time>
   </trkpt>
   <trkpt lat="-3.2194740" lon="37.3414720">
    <ele>1652.6</ele>
    <time>2026-06-24T08:35:59Z</time>
   </trkpt>
   <trkpt lat="-3.2194740" lon="37.3414730">
    <ele>1652.6</ele>
    <time>2026-06-24T08:36:00Z</time>
   </trkpt>
   <trkpt lat="-3.2194750" lon="37.3414720">
    <ele>1652.6</ele>
    <time>2026-06-24T08:36:01Z</time>
   </trkpt>
   <trkpt lat="-3.2194750" lon="37.3414720">
    <ele>1652.6</ele>
    <time>2026-06-24T08:36:02Z</time>
   </trkpt>
   <trkpt lat="-3.2194740" lon="37.3414700">
    <ele>1652.6</ele>
    <time>2026-06-24T08:36:03Z</time>
   </trkpt>
   <trkpt lat="-3.2194720" lon="37.3414690">
    <ele>1652.5</ele>
    <time>2026-06-24T08:36:04Z</time>
   </trkpt>
   <trkpt lat="-3.2194720" lon="37.3414690">
    <ele>1652.5</ele>
    <time>2026-06-24T08:36:05Z</time>
   </trkpt>
   <trkpt lat="-3.2194730" lon="37.3414690">
    <ele>1652.5</ele>
    <time>2026-06-24T08:36:06Z</time>
   </trkpt>
   <trkpt lat="-3.2194740" lon="37.3414690">
    <ele>1652.5</ele>
    <time>2026-06-24T08:36:07Z</time>
   </trkpt>
   <trkpt lat="-3.2194740" lon="37.3414690">
    <ele>1652.5</ele>
    <time>2026-06-24T08:36:08Z</time>
   </trkpt>
   <trkpt lat="-3.2194740" lon="37.3414690">
    <ele>1652.5</ele>
    <time>2026-06-24T08:36:09Z</time>
   </trkpt>
   <trkpt lat="-3.2194740" lon="37.3414680">
    <ele>1652.5</ele>
    <time>2026-06-24T08:36:10Z</time>
   </trkpt>
   <trkpt lat="-3.2194760" lon="37.3414690">
    <ele>1652.5</ele>
    <time>2026-06-24T08:36:11Z</time>
   </trkpt>
   <trkpt lat="-3.2194680" lon="37.3414660">
    <ele>1652.4</ele>
    <time>2026-06-24T08:36:12Z</time>
   </trkpt>
   <trkpt lat="-3.2194700" lon="37.3414690">
    <ele>1652.3</ele>
    <time>2026-06-24T08:36:13Z</time>
   </trkpt>
   <trkpt lat="-3.2194700" lon="37.3414690">
    <ele>1652.3</ele>
    <time>2026-06-24T08:36:14Z</time>
   </trkpt>
   <trkpt lat="-3.2194690" lon="37.3414670">
    <ele>1652.3</ele>
    <time>2026-06-24T08:36:15Z</time>
   </trkpt>
   <trkpt lat="-3.2194700" lon="37.3414660">
    <ele>1652.3</ele>
    <time>2026-06-24T08:36:16Z</time>
   </trkpt>
   <trkpt lat="-3.2194700" lon="37.3414680">
    <ele>1652.2</ele>
    <time>2026-06-24T08:36:17Z</time>
   </trkpt>
   <trkpt lat="-3.2194700" lon="37.3414690">
    <ele>1652.2</ele>
    <time>2026-06-24T08:36:18Z</time>
   </trkpt>
   <trkpt lat="-3.2194700" lon="37.3414690">
    <ele>1652.2</ele>
    <time>2026-06-24T08:36:19Z</time>
   </trkpt>
   <trkpt lat="-3.2194700" lon="37.3414660">
    <ele>1652.2</ele>
    <time>2026-06-24T08:36:20Z</time>
   </trkpt>
   <trkpt lat="-3.2194710" lon="37.3414660">
    <ele>1652.2</ele>
    <time>2026-06-24T08:36:21Z</time>
   </trkpt>
   <trkpt lat="-3.2194720" lon="37.3414650">
    <ele>1652.2</ele>
    <time>2026-06-24T08:36:22Z</time>
   </trkpt>
   <trkpt lat="-3.2194730" lon="37.3414640">
    <ele>1652.1</ele>
    <time>2026-06-24T08:36:23Z</time>
   </trkpt>
   <trkpt lat="-3.2194750" lon="37.3414640">
    <ele>1652.1</ele>
    <time>2026-06-24T08:36:24Z</time>
   </trkpt>
   <trkpt lat="-3.2194750" lon="37.3414620">
    <ele>1652.1</ele>
    <time>2026-06-24T08:36:25Z</time>
   </trkpt>
   <trkpt lat="-3.2194760" lon="37.3414620">
    <ele>1652.1</ele>
    <time>2026-06-24T08:36:26Z</time>
   </trkpt>
   <trkpt lat="-3.2194740" lon="37.3414620">
    <ele>1652.1</ele>
    <time>2026-06-24T08:36:27Z</time>
   </trkpt>
   <trkpt lat="-3.2194750" lon="37.3414630">
    <ele>1652.0</ele>
    <time>2026-06-24T08:36:28Z</time>
   </trkpt>
   <trkpt lat="-3.2194740" lon="37.3414630">
    <ele>1652.0</ele>
    <time>2026-06-24T08:36:29Z</time>
   </trkpt>
   <trkpt lat="-3.2194720" lon="37.3414680">
    <ele>1652.0</ele>
    <time>2026-06-24T08:36:30Z</time>
   </trkpt>
   <trkpt lat="-3.2194750" lon="37.3414660">
    <ele>1651.9</ele>
    <time>2026-06-24T08:36:31Z</time>
   </trkpt>
   <trkpt lat="-3.2194760" lon="37.3414670">
    <ele>1651.9</ele>
    <time>2026-06-24T08:36:32Z</time>
   </trkpt>
   <trkpt lat="-3.2194740" lon="37.3414670">
    <ele>1651.9</ele>
    <time>2026-06-24T08:36:33Z</time>
   </trkpt>
   <trkpt lat="-3.2194760" lon="37.3414690">
    <ele>1651.8</ele>
    <time>2026-06-24T08:36:34Z</time>
   </trkpt>
   <trkpt lat="-3.2194760" lon="37.3414670">
    <ele>1651.8</ele>
    <time>2026-06-24T08:36:35Z</time>
   </trkpt>
   <trkpt lat="-3.2194760" lon="37.3414660">
    <ele>1651.8</ele>
    <time>2026-06-24T08:36:36Z</time>
   </trkpt>
   <trkpt lat="-3.2194760" lon="37.3414640">
    <ele>1651.8</ele>
    <time>2026-06-24T08:36:37Z</time>
   </trkpt>
   <trkpt lat="-3.2194760" lon="37.3414630">
    <ele>1651.8</ele>
    <time>2026-06-24T08:36:38Z</time>
   </trkpt>
   <trkpt lat="-3.2194750" lon="37.3414620">
    <ele>1651.7</ele>
    <time>2026-06-24T08:36:39Z</time>
   </trkpt>
   <trkpt lat="-3.2194760" lon="37.3414640">
    <ele>1651.7</ele>
    <time>2026-06-24T08:36:40Z</time>
   </trkpt>
   <trkpt lat="-3.2194760" lon="37.3414640">
    <ele>1651.7</ele>
    <time>2026-06-24T08:36:41Z</time>
   </trkpt>
   <trkpt lat="-3.2194760" lon="37.3414640">
    <ele>1651.7</ele>
    <time>2026-06-24T08:36:42Z</time>
   </trkpt>
   <trkpt lat="-3.2194760" lon="37.3414640">
    <ele>1651.7</ele>
    <time>2026-06-24T08:36:43Z</time>
   </trkpt>
   <trkpt lat="-3.2194760" lon="37.3414660">
    <ele>1651.7</ele>
    <time>2026-06-24T08:36:44Z</time>
   </trkpt>
   <trkpt lat="-3.2194760" lon="37.3414660">
    <ele>1651.7</ele>
    <time>2026-06-24T08:36:45Z</time>
   </trkpt>
   <trkpt lat="-3.2194760" lon="37.3414660">
    <ele>1651.7</ele>
    <time>2026-06-24T08:36:46Z</time>
   </trkpt>
   <trkpt lat="-3.2194780" lon="37.3414670">
    <ele>1651.7</ele>
    <time>2026-06-24T08:36:47Z</time>
   </trkpt>
   <trkpt lat="-3.2194780" lon="37.3414670">
    <ele>1651.7</ele>
    <time>2026-06-24T08:36:48Z</time>
   </trkpt>
   <trkpt lat="-3.2194770" lon="37.3414680">
    <ele>1651.6</ele>
    <time>2026-06-24T08:36:49Z</time>
   </trkpt>
   <trkpt lat="-3.2194760" lon="37.3414660">
    <ele>1651.6</ele>
    <time>2026-06-24T08:36:50Z</time>
   </trkpt>
   <trkpt lat="-3.2194770" lon="37.3414660">
    <ele>1651.6</ele>
    <time>2026-06-24T08:36:51Z</time>
   </trkpt>
   <trkpt lat="-3.2194760" lon="37.3414690">
    <ele>1651.6</ele>
    <time>2026-06-24T08:36:52Z</time>
   </trkpt>
   <trkpt lat="-3.2194780" lon="37.3414680">
    <ele>1651.5</ele>
    <time>2026-06-24T08:36:53Z</time>
   </trkpt>
   <trkpt lat="-3.2194790" lon="37.3414700">
    <ele>1651.5</ele>
    <time>2026-06-24T08:36:54Z</time>
   </trkpt>
   <trkpt lat="-3.2194780" lon="37.3414690">
    <ele>1651.5</ele>
    <time>2026-06-24T08:36:55Z</time>
   </trkpt>
   <trkpt lat="-3.2194790" lon="37.3414680">
    <ele>1651.5</ele>
    <time>2026-06-24T08:36:56Z</time>
   </trkpt>
   <trkpt lat="-3.2194780" lon="37.3414680">
    <ele>1651.4</ele>
    <time>2026-06-24T08:36:57Z</time>
   </trkpt>
   <trkpt lat="-3.2194790" lon="37.3414660">
    <ele>1651.4</ele>
    <time>2026-06-24T08:36:58Z</time>
   </trkpt>
   <trkpt lat="-3.2194800" lon="37.3414660">
    <ele>1651.4</ele>
    <time>2026-06-24T08:36:59Z</time>
   </trkpt>
   <trkpt lat="-3.2194810" lon="37.3414660">
    <ele>1651.4</ele>
    <time>2026-06-24T08:37:00Z</time>
   </trkpt>
   <trkpt lat="-3.2194780" lon="37.3414660">
    <ele>1651.4</ele>
    <time>2026-06-24T08:37:01Z</time>
   </trkpt>
   <trkpt lat="-3.2194790" lon="37.3414650">
    <ele>1651.3</ele>
    <time>2026-06-24T08:37:02Z</time>
   </trkpt>
   <trkpt lat="-3.2194790" lon="37.3414650">
    <ele>1651.3</ele>
    <time>2026-06-24T08:37:03Z</time>
   </trkpt>
   <trkpt lat="-3.2194770" lon="37.3414650">
    <ele>1651.3</ele>
    <time>2026-06-24T08:37:04Z</time>
   </trkpt>
   <trkpt lat="-3.2194780" lon="37.3414650">
    <ele>1651.3</ele>
    <time>2026-06-24T08:37:05Z</time>
   </trkpt>
   <trkpt lat="-3.2194770" lon="37.3414650">
    <ele>1651.3</ele>
    <time>2026-06-24T08:37:06Z</time>
   </trkpt>
   <trkpt lat="-3.2194770" lon="37.3414650">
    <ele>1651.3</ele>
    <time>2026-06-24T08:37:07Z</time>
   </trkpt>
   <trkpt lat="-3.2194770" lon="37.3414620">
    <ele>1651.3</ele>
    <time>2026-06-24T08:37:08Z</time>
   </trkpt>
   <trkpt lat="-3.2194750" lon="37.3414640">
    <ele>1651.2</ele>
    <time>2026-06-24T08:37:09Z</time>
   </trkpt>
   <trkpt lat="-3.2194750" lon="37.3414650">
    <ele>1651.2</ele>
    <time>2026-06-24T08:37:10Z</time>
   </trkpt>
   <trkpt lat="-3.2194750" lon="37.3414680">
    <ele>1651.2</ele>
    <time>2026-06-24T08:37:11Z</time>
   </trkpt>
   <trkpt lat="-3.2194740" lon="37.3414700">
    <ele>1651.1</ele>
    <time>2026-06-24T08:37:12Z</time>
   </trkpt>
   <trkpt lat="-3.2194740" lon="37.3414700">
    <ele>1651.1</ele>
    <time>2026-06-24T08:37:13Z</time>
   </trkpt>
   <trkpt lat="-3.2194720" lon="37.3414740">
    <ele>1651.1</ele>
    <time>2026-06-24T08:37:14Z</time>
   </trkpt>
   <trkpt lat="-3.2194720" lon="37.3414740">
    <ele>1651.1</ele>
    <time>2026-06-24T08:37:15Z</time>
   </trkpt>
   <trkpt lat="-3.2194700" lon="37.3414750">
    <ele>1651.0</ele>
    <time>2026-06-24T08:37:16Z</time>
   </trkpt>
   <trkpt lat="-3.2194690" lon="37.3414750">
    <ele>1651.0</ele>
    <time>2026-06-24T08:37:17Z</time>
   </trkpt>
   <trkpt lat="-3.2194700" lon="37.3414740">
    <ele>1651.0</ele>
    <time>2026-06-24T08:37:18Z</time>
   </trkpt>
   <trkpt lat="-3.2194690" lon="37.3414730">
    <ele>1651.0</ele>
    <time>2026-06-24T08:37:19Z</time>
   </trkpt>
   <trkpt lat="-3.2194680" lon="37.3414710">
    <ele>1651.0</ele>
    <time>2026-06-24T08:37:20Z</time>
   </trkpt>
   <trkpt lat="-3.2194690" lon="37.3414700">
    <ele>1651.0</ele>
    <time>2026-06-24T08:37:21Z</time>
   </trkpt>
   <trkpt lat="-3.2194690" lon="37.3414700">
    <ele>1651.0</ele>
    <time>2026-06-24T08:37:22Z</time>
   </trkpt>
   <trkpt lat="-3.2194690" lon="37.3414690">
    <ele>1650.9</ele>
    <time>2026-06-24T08:37:23Z</time>
   </trkpt>
   <trkpt lat="-3.2194680" lon="37.3414700">
    <ele>1650.9</ele>
    <time>2026-06-24T08:37:24Z</time>
   </trkpt>
   <trkpt lat="-3.2194690" lon="37.3414700">
    <ele>1650.9</ele>
    <time>2026-06-24T08:37:25Z</time>
   </trkpt>
   <trkpt lat="-3.2194670" lon="37.3414710">
    <ele>1650.9</ele>
    <time>2026-06-24T08:37:26Z</time>
   </trkpt>
   <trkpt lat="-3.2194660" lon="37.3414720">
    <ele>1650.9</ele>
    <time>2026-06-24T08:37:27Z</time>
   </trkpt>
   <trkpt lat="-3.2194670" lon="37.3414720">
    <ele>1650.9</ele>
    <time>2026-06-24T08:37:28Z</time>
   </trkpt>
   <trkpt lat="-3.2194660" lon="37.3414750">
    <ele>1650.8</ele>
    <time>2026-06-24T08:37:29Z</time>
   </trkpt>
   <trkpt lat="-3.2194660" lon="37.3414770">
    <ele>1650.8</ele>
    <time>2026-06-24T08:37:30Z</time>
   </trkpt>
   <trkpt lat="-3.2194670" lon="37.3414780">
    <ele>1650.8</ele>
    <time>2026-06-24T08:37:31Z</time>
   </trkpt>
   <trkpt lat="-3.2194660" lon="37.3414800">
    <ele>1650.7</ele>
    <time>2026-06-24T08:37:32Z</time>
   </trkpt>
   <trkpt lat="-3.2194640" lon="37.3414810">
    <ele>1650.7</ele>
    <time>2026-06-24T08:37:33Z</time>
   </trkpt>
   <trkpt lat="-3.2194510" lon="37.3414850">
    <ele>1650.5</ele>
    <time>2026-06-24T08:37:34Z</time>
   </trkpt>
   <trkpt lat="-3.2194590" lon="37.3414850">
    <ele>1650.4</ele>
    <time>2026-06-24T08:37:35Z</time>
   </trkpt>
   <trkpt lat="-3.2194620" lon="37.3414840">
    <ele>1650.4</ele>
    <time>2026-06-24T08:37:36Z</time>
   </trkpt>
   <trkpt lat="-3.2194610" lon="37.3414820">
    <ele>1650.4</ele>
    <time>2026-06-24T08:37:37Z</time>
   </trkpt>
   <trkpt lat="-3.2194610" lon="37.3414820">
    <ele>1650.4</ele>
    <time>2026-06-24T08:37:38Z</time>
   </trkpt>
   <trkpt lat="-3.2194620" lon="37.3414810">
    <ele>1650.3</ele>
    <time>2026-06-24T08:37:39Z</time>
   </trkpt>
   <trkpt lat="-3.2194620" lon="37.3414810">
    <ele>1650.3</ele>
    <time>2026-06-24T08:37:40Z</time>
   </trkpt>
   <trkpt lat="-3.2194620" lon="37.3414810">
    <ele>1650.3</ele>
    <time>2026-06-24T08:37:41Z</time>
   </trkpt>
   <trkpt lat="-3.2194620" lon="37.3414810">
    <ele>1650.3</ele>
    <time>2026-06-24T08:37:42Z</time>
   </trkpt>
   <trkpt lat="-3.2194630" lon="37.3414840">
    <ele>1650.3</ele>
    <time>2026-06-24T08:37:43Z</time>
   </trkpt>
   <trkpt lat="-3.2194590" lon="37.3414820">
    <ele>1650.2</ele>
    <time>2026-06-24T08:37:44Z</time>
   </trkpt>
   <trkpt lat="-3.2194600" lon="37.3414820">
    <ele>1650.2</ele>
    <time>2026-06-24T08:37:45Z</time>
   </trkpt>
   <trkpt lat="-3.2194610" lon="37.3414770">
    <ele>1650.2</ele>
    <time>2026-06-24T08:37:46Z</time>
   </trkpt>
   <trkpt lat="-3.2194600" lon="37.3414740">
    <ele>1650.1</ele>
    <time>2026-06-24T08:37:47Z</time>
   </trkpt>
   <trkpt lat="-3.2194630" lon="37.3414720">
    <ele>1650.1</ele>
    <time>2026-06-24T08:37:48Z</time>
   </trkpt>
   <trkpt lat="-3.2194630" lon="37.3414740">
    <ele>1650.1</ele>
    <time>2026-06-24T08:37:49Z</time>
   </trkpt>
   <trkpt lat="-3.2194630" lon="37.3414760">
    <ele>1650.0</ele>
    <time>2026-06-24T08:37:50Z</time>
   </trkpt>
   <trkpt lat="-3.2194630" lon="37.3414770">
    <ele>1650.0</ele>
    <time>2026-06-24T08:37:51Z</time>
   </trkpt>
   <trkpt lat="-3.2194630" lon="37.3414770">
    <ele>1650.0</ele>
    <time>2026-06-24T08:37:52Z</time>
   </trkpt>
   <trkpt lat="-3.2194630" lon="37.3414760">
    <ele>1650.0</ele>
    <time>2026-06-24T08:37:53Z</time>
   </trkpt>
   <trkpt lat="-3.2194660" lon="37.3414790">
    <ele>1650.0</ele>
    <time>2026-06-24T08:37:54Z</time>
   </trkpt>
   <trkpt lat="-3.2194690" lon="37.3414790">
    <ele>1649.9</ele>
    <time>2026-06-24T08:37:55Z</time>
   </trkpt>
   <trkpt lat="-3.2194650" lon="37.3414800">
    <ele>1649.9</ele>
    <time>2026-06-24T08:37:56Z</time>
   </trkpt>
   <trkpt lat="-3.2194680" lon="37.3414800">
    <ele>1649.8</ele>
    <time>2026-06-24T08:37:57Z</time>
   </trkpt>
   <trkpt lat="-3.2194690" lon="37.3414790">
    <ele>1649.8</ele>
    <time>2026-06-24T08:37:58Z</time>
   </trkpt>
   <trkpt lat="-3.2194700" lon="37.3414800">
    <ele>1649.8</ele>
    <time>2026-06-24T08:37:59Z</time>
   </trkpt>
   <trkpt lat="-3.2194700" lon="37.3414820">
    <ele>1649.8</ele>
    <time>2026-06-24T08:38:00Z</time>
   </trkpt>
   <trkpt lat="-3.2194700" lon="37.3414840">
    <ele>1649.7</ele>
    <time>2026-06-24T08:38:01Z</time>
   </trkpt>
   <trkpt lat="-3.2194680" lon="37.3414830">
    <ele>1649.7</ele>
    <time>2026-06-24T08:38:02Z</time>
   </trkpt>
   <trkpt lat="-3.2194680" lon="37.3414810">
    <ele>1649.7</ele>
    <time>2026-06-24T08:38:03Z</time>
   </trkpt>
   <trkpt lat="-3.2194640" lon="37.3414810">
    <ele>1649.6</ele>
    <time>2026-06-24T08:38:04Z</time>
   </trkpt>
   <trkpt lat="-3.2194660" lon="37.3414790">
    <ele>1649.6</ele>
    <time>2026-06-24T08:38:05Z</time>
   </trkpt>
   <trkpt lat="-3.2194670" lon="37.3414790">
    <ele>1649.6</ele>
    <time>2026-06-24T08:38:06Z</time>
   </trkpt>
   <trkpt lat="-3.2194670" lon="37.3414770">
    <ele>1649.5</ele>
    <time>2026-06-24T08:38:07Z</time>
   </trkpt>
   <trkpt lat="-3.2194660" lon="37.3414750">
    <ele>1649.5</ele>
    <time>2026-06-24T08:38:08Z</time>
   </trkpt>
   <trkpt lat="-3.2194680" lon="37.3414750">
    <ele>1649.5</ele>
    <time>2026-06-24T08:38:09Z</time>
   </trkpt>
   <trkpt lat="-3.2194670" lon="37.3414770">
    <ele>1649.5</ele>
    <time>2026-06-24T08:38:10Z</time>
   </trkpt>
   <trkpt lat="-3.2194680" lon="37.3414770">
    <ele>1649.4</ele>
    <time>2026-06-24T08:38:11Z</time>
   </trkpt>
   <trkpt lat="-3.2194700" lon="37.3414770">
    <ele>1649.4</ele>
    <time>2026-06-24T08:38:12Z</time>
   </trkpt>
   <trkpt lat="-3.2194710" lon="37.3414760">
    <ele>1649.4</ele>
    <time>2026-06-24T08:38:13Z</time>
   </trkpt>
   <trkpt lat="-3.2194660" lon="37.3414750">
    <ele>1649.3</ele>
    <time>2026-06-24T08:38:14Z</time>
   </trkpt>
   <trkpt lat="-3.2194690" lon="37.3414770">
    <ele>1649.3</ele>
    <time>2026-06-24T08:38:15Z</time>
   </trkpt>
   <trkpt lat="-3.2194700" lon="37.3414770">
    <ele>1649.3</ele>
    <time>2026-06-24T08:38:16Z</time>
   </trkpt>
   <trkpt lat="-3.2194710" lon="37.3414770">
    <ele>1649.2</ele>
    <time>2026-06-24T08:38:17Z</time>
   </trkpt>
   <trkpt lat="-3.2194710" lon="37.3414770">
    <ele>1649.2</ele>
    <time>2026-06-24T08:38:18Z</time>
   </trkpt>
   <trkpt lat="-3.2194730" lon="37.3414740">
    <ele>1649.2</ele>
    <time>2026-06-24T08:38:19Z</time>
   </trkpt>
   <trkpt lat="-3.2194740" lon="37.3414740">
    <ele>1649.2</ele>
    <time>2026-06-24T08:38:20Z</time>
   </trkpt>
   <trkpt lat="-3.2194750" lon="37.3414740">
    <ele>1649.2</ele>
    <time>2026-06-24T08:38:21Z</time>
   </trkpt>
   <trkpt lat="-3.2194750" lon="37.3414740">
    <ele>1649.2</ele>
    <time>2026-06-24T08:38:22Z</time>
   </trkpt>
   <trkpt lat="-3.2194740" lon="37.3414740">
    <ele>1649.2</ele>
    <time>2026-06-24T08:38:23Z</time>
   </trkpt>
   <trkpt lat="-3.2194740" lon="37.3414760">
    <ele>1649.1</ele>
    <time>2026-06-24T08:38:24Z</time>
   </trkpt>
   <trkpt lat="-3.2194740" lon="37.3414750">
    <ele>1649.1</ele>
    <time>2026-06-24T08:38:25Z</time>
   </trkpt>
   <trkpt lat="-3.2194740" lon="37.3414760">
    <ele>1649.1</ele>
    <time>2026-06-24T08:38:26Z</time>
   </trkpt>
   <trkpt lat="-3.2194750" lon="37.3414740">
    <ele>1649.1</ele>
    <time>2026-06-24T08:38:27Z</time>
   </trkpt>
   <trkpt lat="-3.2194750" lon="37.3414740">
    <ele>1649.1</ele>
    <time>2026-06-24T08:38:28Z</time>
   </trkpt>
   <trkpt lat="-3.2194760" lon="37.3414730">
    <ele>1649.1</ele>
    <time>2026-06-24T08:38:29Z</time>
   </trkpt>
   <trkpt lat="-3.2194780" lon="37.3414760">
    <ele>1649.0</ele>
    <time>2026-06-24T08:38:30Z</time>
   </trkpt>
   <trkpt lat="-3.2194780" lon="37.3414770">
    <ele>1649.0</ele>
    <time>2026-06-24T08:38:31Z</time>
   </trkpt>
   <trkpt lat="-3.2194760" lon="37.3414760">
    <ele>1649.0</ele>
    <time>2026-06-24T08:38:32Z</time>
   </trkpt>
   <trkpt lat="-3.2194780" lon="37.3414730">
    <ele>1648.9</ele>
    <time>2026-06-24T08:38:33Z</time>
   </trkpt>
   <trkpt lat="-3.2194770" lon="37.3414750">
    <ele>1648.9</ele>
    <time>2026-06-24T08:38:34Z</time>
   </trkpt>
   <trkpt lat="-3.2194810" lon="37.3414750">
    <ele>1648.8</ele>
    <time>2026-06-24T08:38:35Z</time>
   </trkpt>
   <trkpt lat="-3.2194800" lon="37.3414780">
    <ele>1648.8</ele>
    <time>2026-06-24T08:38:36Z</time>
   </trkpt>
   <trkpt lat="-3.2194800" lon="37.3414760">
    <ele>1648.8</ele>
    <time>2026-06-24T08:38:37Z</time>
   </trkpt>
   <trkpt lat="-3.2194790" lon="37.3414730">
    <ele>1648.7</ele>
    <time>2026-06-24T08:38:38Z</time>
   </trkpt>
   <trkpt lat="-3.2194790" lon="37.3414750">
    <ele>1648.7</ele>
    <time>2026-06-24T08:38:39Z</time>
   </trkpt>
   <trkpt lat="-3.2194800" lon="37.3414730">
    <ele>1648.7</ele>
    <time>2026-06-24T08:38:40Z</time>
   </trkpt>
   <trkpt lat="-3.2194790" lon="37.3414730">
    <ele>1648.7</ele>
    <time>2026-06-24T08:38:41Z</time>
   </trkpt>
   <trkpt lat="-3.2194800" lon="37.3414740">
    <ele>1648.6</ele>
    <time>2026-06-24T08:38:42Z</time>
   </trkpt>
   <trkpt lat="-3.2194790" lon="37.3414730">
    <ele>1648.6</ele>
    <time>2026-06-24T08:38:43Z</time>
   </trkpt>
   <trkpt lat="-3.2194780" lon="37.3414730">
    <ele>1648.6</ele>
    <time>2026-06-24T08:38:44Z</time>
   </trkpt>
   <trkpt lat="-3.2194780" lon="37.3414750">
    <ele>1648.6</ele>
    <time>2026-06-24T08:38:45Z</time>
   </trkpt>
   <trkpt lat="-3.2194770" lon="37.3414730">
    <ele>1648.5</ele>
    <time>2026-06-24T08:38:46Z</time>
   </trkpt>
   <trkpt lat="-3.2194750" lon="37.3414810">
    <ele>1648.4</ele>
    <time>2026-06-24T08:38:47Z</time>
   </trkpt>
   <trkpt lat="-3.2194740" lon="37.3414760">
    <ele>1648.4</ele>
    <time>2026-06-24T08:38:48Z</time>
   </trkpt>
   <trkpt lat="-3.2194730" lon="37.3414770">
    <ele>1648.3</ele>
    <time>2026-06-24T08:38:49Z</time>
   </trkpt>
   <trkpt lat="-3.2194720" lon="37.3414770">
    <ele>1648.3</ele>
    <time>2026-06-24T08:38:50Z</time>
   </trkpt>
   <trkpt lat="-3.2194750" lon="37.3414710">
    <ele>1648.2</ele>
    <time>2026-06-24T08:38:51Z</time>
   </trkpt>
   <trkpt lat="-3.2194640" lon="37.3414590">
    <ele>1648.0</ele>
    <time>2026-06-24T08:38:52Z</time>
   </trkpt>
   <trkpt lat="-3.2194640" lon="37.3414570">
    <ele>1648.0</ele>
    <time>2026-06-24T08:38:53Z</time>
   </trkpt>
   <trkpt lat="-3.2194550" lon="37.3414500">
    <ele>1647.8</ele>
    <time>2026-06-24T08:38:54Z</time>
   </trkpt>
   <trkpt lat="-3.2194530" lon="37.3414470">
    <ele>1647.8</ele>
    <time>2026-06-24T08:38:55Z</time>
   </trkpt>
   <trkpt lat="-3.2194490" lon="37.3414430">
    <ele>1647.7</ele>
    <time>2026-06-24T08:38:56Z</time>
   </trkpt>
   <trkpt lat="-3.2194460" lon="37.3414380">
    <ele>1647.6</ele>
    <time>2026-06-24T08:38:57Z</time>
   </trkpt>
   <trkpt lat="-3.2194400" lon="37.3414300">
    <ele>1647.5</ele>
    <time>2026-06-24T08:38:58Z</time>
   </trkpt>
   <trkpt lat="-3.2194360" lon="37.3414210">
    <ele>1647.4</ele>
    <time>2026-06-24T08:38:59Z</time>
   </trkpt>
   <trkpt lat="-3.2194360" lon="37.3414190">
    <ele>1647.3</ele>
    <time>2026-06-24T08:39:00Z</time>
   </trkpt>
   <trkpt lat="-3.2194370" lon="37.3414100">
    <ele>1647.2</ele>
    <time>2026-06-24T08:39:01Z</time>
   </trkpt>
   <trkpt lat="-3.2194340" lon="37.3414050">
    <ele>1647.1</ele>
    <time>2026-06-24T08:39:02Z</time>
   </trkpt>
   <trkpt lat="-3.2194310" lon="37.3414020">
    <ele>1647.1</ele>
    <time>2026-06-24T08:39:03Z</time>
   </trkpt>
   <trkpt lat="-3.2194280" lon="37.3414000">
    <ele>1647.0</ele>
    <time>2026-06-24T08:39:04Z</time>
   </trkpt>
   <trkpt lat="-3.2194170" lon="37.3413920">
    <ele>1646.8</ele>
    <time>2026-06-24T08:39:05Z</time>
   </trkpt>
   <trkpt lat="-3.2194150" lon="37.3413900">
    <ele>1646.8</ele>
    <time>2026-06-24T08:39:06Z</time>
   </trkpt>
   <trkpt lat="-3.2194090" lon="37.3413820">
    <ele>1646.6</ele>
    <time>2026-06-24T08:39:07Z</time>
   </trkpt>
   <trkpt lat="-3.2194050" lon="37.3413700">
    <ele>1646.4</ele>
    <time>2026-06-24T08:39:08Z</time>
   </trkpt>
   <trkpt lat="-3.2194010" lon="37.3413630">
    <ele>1646.3</ele>
    <time>2026-06-24T08:39:09Z</time>
   </trkpt>
   <trkpt lat="-3.2194000" lon="37.3413580">
    <ele>1646.2</ele>
    <time>2026-06-24T08:39:10Z</time>
   </trkpt>
   <trkpt lat="-3.2193940" lon="37.3413500">
    <ele>1646.1</ele>
    <time>2026-06-24T08:39:11Z</time>
   </trkpt>
   <trkpt lat="-3.2193810" lon="37.3413480">
    <ele>1645.9</ele>
    <time>2026-06-24T08:39:12Z</time>
   </trkpt>
   <trkpt lat="-3.2193700" lon="37.3413510">
    <ele>1645.7</ele>
    <time>2026-06-24T08:39:13Z</time>
   </trkpt>
   <trkpt lat="-3.2193620" lon="37.3413510">
    <ele>1645.6</ele>
    <time>2026-06-24T08:39:14Z</time>
   </trkpt>
   <trkpt lat="-3.2193520" lon="37.3413470">
    <ele>1645.5</ele>
    <time>2026-06-24T08:39:15Z</time>
   </trkpt>
   <trkpt lat="-3.2193490" lon="37.3413430">
    <ele>1645.4</ele>
    <time>2026-06-24T08:39:16Z</time>
   </trkpt>
   <trkpt lat="-3.2193360" lon="37.3413390">
    <ele>1645.2</ele>
    <time>2026-06-24T08:39:17Z</time>
   </trkpt>
   <trkpt lat="-3.2193320" lon="37.3413400">
    <ele>1645.1</ele>
    <time>2026-06-24T08:39:18Z</time>
   </trkpt>
   <trkpt lat="-3.2193300" lon="37.3413380">
    <ele>1645.1</ele>
    <time>2026-06-24T08:39:19Z</time>
   </trkpt>
   <trkpt lat="-3.2193260" lon="37.3413380">
    <ele>1645.0</ele>
    <time>2026-06-24T08:39:20Z</time>
   </trkpt>
   <trkpt lat="-3.2193240" lon="37.3413390">
    <ele>1645.0</ele>
    <time>2026-06-24T08:39:21Z</time>
   </trkpt>
   <trkpt lat="-3.2193190" lon="37.3413340">
    <ele>1644.9</ele>
    <time>2026-06-24T08:39:22Z</time>
   </trkpt>
   <trkpt lat="-3.2193100" lon="37.3413320">
    <ele>1644.8</ele>
    <time>2026-06-24T08:39:23Z</time>
   </trkpt>
   <trkpt lat="-3.2193070" lon="37.3413310">
    <ele>1644.7</ele>
    <time>2026-06-24T08:39:24Z</time>
   </trkpt>
   <trkpt lat="-3.2192880" lon="37.3413320">
    <ele>1644.4</ele>
    <time>2026-06-24T08:39:25Z</time>
   </trkpt>
   <trkpt lat="-3.2192830" lon="37.3413300">
    <ele>1644.3</ele>
    <time>2026-06-24T08:39:26Z</time>
   </trkpt>
   <trkpt lat="-3.2192890" lon="37.3413280">
    <ele>1644.2</ele>
    <time>2026-06-24T08:39:27Z</time>
   </trkpt>
   <trkpt lat="-3.2192890" lon="37.3413270">
    <ele>1644.2</ele>
    <time>2026-06-24T08:39:28Z</time>
   </trkpt>
   <trkpt lat="-3.2192920" lon="37.3413270">
    <ele>1644.2</ele>
    <time>2026-06-24T08:39:29Z</time>
   </trkpt>
   <trkpt lat="-3.2192910" lon="37.3413280">
    <ele>1644.1</ele>
    <time>2026-06-24T08:39:30Z</time>
   </trkpt>
   <trkpt lat="-3.2192650" lon="37.3413310">
    <ele>1643.7</ele>
    <time>2026-06-24T08:39:31Z</time>
   </trkpt>
   <trkpt lat="-3.2192600" lon="37.3413250">
    <ele>1643.6</ele>
    <time>2026-06-24T08:39:32Z</time>
   </trkpt>
   <trkpt lat="-3.2192490" lon="37.3413130">
    <ele>1643.4</ele>
    <time>2026-06-24T08:39:33Z</time>
   </trkpt>
   <trkpt lat="-3.2192580" lon="37.3412930">
    <ele>1643.0</ele>
    <time>2026-06-24T08:39:34Z</time>
   </trkpt>
   <trkpt lat="-3.2192460" lon="37.3412950">
    <ele>1642.8</ele>
    <time>2026-06-24T08:39:35Z</time>
   </trkpt>
   <trkpt lat="-3.2192430" lon="37.3412960">
    <ele>1642.8</ele>
    <time>2026-06-24T08:39:36Z</time>
   </trkpt>
   <trkpt lat="-3.2192390" lon="37.3412930">
    <ele>1642.7</ele>
    <time>2026-06-24T08:39:37Z</time>
   </trkpt>
   <trkpt lat="-3.2192400" lon="37.3412930">
    <ele>1642.7</ele>
    <time>2026-06-24T08:39:38Z</time>
   </trkpt>
   <trkpt lat="-3.2192330" lon="37.3412940">
    <ele>1642.6</ele>
    <time>2026-06-24T08:39:39Z</time>
   </trkpt>
   <trkpt lat="-3.2192370" lon="37.3412940">
    <ele>1642.5</ele>
    <time>2026-06-24T08:39:40Z</time>
   </trkpt>
   <trkpt lat="-3.2192310" lon="37.3413030">
    <ele>1642.3</ele>
    <time>2026-06-24T08:39:41Z</time>
   </trkpt>
   <trkpt lat="-3.2192310" lon="37.3413030">
    <ele>1642.3</ele>
    <time>2026-06-24T08:39:42Z</time>
   </trkpt>
   <trkpt lat="-3.2192310" lon="37.3413030">
    <ele>1642.3</ele>
    <time>2026-06-24T08:39:43Z</time>
   </trkpt>
   <trkpt lat="-3.2192310" lon="37.3413030">
    <ele>1642.3</ele>
    <time>2026-06-24T08:39:44Z</time>
   </trkpt>
   <trkpt lat="-3.2192310" lon="37.3413030">
    <ele>1642.3</ele>
    <time>2026-06-24T08:39:45Z</time>
   </trkpt>
   <trkpt lat="-3.2192480" lon="37.3412960">
    <ele>1642.0</ele>
    <time>2026-06-24T08:39:46Z</time>
   </trkpt>
   <trkpt lat="-3.2192540" lon="37.3412950">
    <ele>1641.9</ele>
    <time>2026-06-24T08:39:47Z</time>
   </trkpt>
   <trkpt lat="-3.2192610" lon="37.3412950">
    <ele>1641.8</ele>
    <time>2026-06-24T08:39:48Z</time>
   </trkpt>
   <trkpt lat="-3.2192670" lon="37.3412940">
    <ele>1641.7</ele>
    <time>2026-06-24T08:39:49Z</time>
   </trkpt>
   <trkpt lat="-3.2192740" lon="37.3412940">
    <ele>1641.6</ele>
    <time>2026-06-24T08:39:50Z</time>
   </trkpt>
   <trkpt lat="-3.2192800" lon="37.3412930">
    <ele>1641.5</ele>
    <time>2026-06-24T08:39:51Z</time>
   </trkpt>
   <trkpt lat="-3.2192870" lon="37.3412930">
    <ele>1641.4</ele>
    <time>2026-06-24T08:39:52Z</time>
   </trkpt>
   <trkpt lat="-3.2192930" lon="37.3412920">
    <ele>1641.3</ele>
    <time>2026-06-24T08:39:53Z</time>
   </trkpt>
   <trkpt lat="-3.2193000" lon="37.3412920">
    <ele>1641.2</ele>
    <time>2026-06-24T08:39:54Z</time>
   </trkpt>
   <trkpt lat="-3.2193060" lon="37.3412910">
    <ele>1641.1</ele>
    <time>2026-06-24T08:39:55Z</time>
   </trkpt>
   <trkpt lat="-3.2193130" lon="37.3412910">
    <ele>1641.0</ele>
    <time>2026-06-24T08:39:56Z</time>
   </trkpt>
   <trkpt lat="-3.2193190" lon="37.3412900">
    <ele>1640.9</ele>
    <time>2026-06-24T08:39:57Z</time>
   </trkpt>
   <trkpt lat="-3.2193190" lon="37.3412900">
    <ele>1640.9</ele>
    <time>2026-06-24T08:39:58Z</time>
   </trkpt>
   <trkpt lat="-3.2193090" lon="37.3412910">
    <ele>1640.7</ele>
    <time>2026-06-24T08:39:59Z</time>
   </trkpt>
   <trkpt lat="-3.2193090" lon="37.3412910">
    <ele>1640.7</ele>
    <time>2026-06-24T08:40:00Z</time>
   </trkpt>
   <trkpt lat="-3.2193090" lon="37.3412910">
    <ele>1640.7</ele>
    <time>2026-06-24T08:40:01Z</time>
   </trkpt>
   <trkpt lat="-3.2193090" lon="37.3412910">
    <ele>1640.7</ele>
    <time>2026-06-24T08:40:02Z</time>
   </trkpt>
   <trkpt lat="-3.2193090" lon="37.3412910">
    <ele>1640.7</ele>
    <time>2026-06-24T08:40:03Z</time>
   </trkpt>
   <trkpt lat="-3.2193090" lon="37.3412910">
    <ele>1640.7</ele>
    <time>2026-06-24T08:40:04Z</time>
   </trkpt>
   <trkpt lat="-3.2193090" lon="37.3412910">
    <ele>1640.7</ele>
    <time>2026-06-24T08:40:05Z</time>
   </trkpt>
   <trkpt lat="-3.2193090" lon="37.3412910">
    <ele>1640.7</ele>
    <time>2026-06-24T08:40:06Z</time>
   </trkpt>
   <trkpt lat="-3.2193090" lon="37.3412910">
    <ele>1640.7</ele>
    <time>2026-06-24T08:40:07Z</time>
   </trkpt>
   <trkpt lat="-3.2193090" lon="37.3412910">
    <ele>1640.7</ele>
    <time>2026-06-24T08:40:08Z</time>
   </trkpt>
   <trkpt lat="-3.2193090" lon="37.3412910">
    <ele>1640.7</ele>
    <time>2026-06-24T08:40:09Z</time>
   </trkpt>
   <trkpt lat="-3.2193200" lon="37.3412870">
    <ele>1640.5</ele>
    <time>2026-06-24T08:40:10Z</time>
   </trkpt>
   <trkpt lat="-3.2193200" lon="37.3412870">
    <ele>1640.5</ele>
    <time>2026-06-24T08:40:11Z</time>
   </trkpt>
   <trkpt lat="-3.2193200" lon="37.3412870">
    <ele>1640.5</ele>
    <time>2026-06-24T08:40:12Z</time>
   </trkpt>
   <trkpt lat="-3.2193200" lon="37.3412870">
    <ele>1640.5</ele>
    <time>2026-06-24T08:40:13Z</time>
   </trkpt>
   <trkpt lat="-3.2193200" lon="37.3412870">
    <ele>1640.5</ele>
    <time>2026-06-24T08:40:14Z</time>
   </trkpt>
   <trkpt lat="-3.2193200" lon="37.3412870">
    <ele>1640.5</ele>
    <time>2026-06-24T08:40:15Z</time>
   </trkpt>
   <trkpt lat="-3.2193200" lon="37.3412870">
    <ele>1640.5</ele>
    <time>2026-06-24T08:40:16Z</time>
   </trkpt>
   <trkpt lat="-3.2193200" lon="37.3412870">
    <ele>1640.5</ele>
    <time>2026-06-24T08:40:17Z</time>
   </trkpt>
   <trkpt lat="-3.2193200" lon="37.3412870">
    <ele>1640.5</ele>
    <time>2026-06-24T08:40:18Z</time>
   </trkpt>
   <trkpt lat="-3.2193200" lon="37.3412870">
    <ele>1640.5</ele>
    <time>2026-06-24T08:40:19Z</time>
   </trkpt>
   <trkpt lat="-3.2193200" lon="37.3412870">
    <ele>1640.5</ele>
    <time>2026-06-24T08:40:20Z</time>
   </trkpt>
   <trkpt lat="-3.2193200" lon="37.3412870">
    <ele>1640.5</ele>
    <time>2026-06-24T08:40:21Z</time>
   </trkpt>
   <trkpt lat="-3.2193200" lon="37.3412870">
    <ele>1640.5</ele>
    <time>2026-06-24T08:40:22Z</time>
   </trkpt>
   <trkpt lat="-3.2193200" lon="37.3412870">
    <ele>1640.5</ele>
    <time>2026-06-24T08:40:23Z</time>
   </trkpt>
   <trkpt lat="-3.2193200" lon="37.3412870">
    <ele>1640.5</ele>
    <time>2026-06-24T08:40:24Z</time>
   </trkpt>
   <trkpt lat="-3.2193200" lon="37.3412870">
    <ele>1640.5</ele>
    <time>2026-06-24T08:40:25Z</time>
   </trkpt>
   <trkpt lat="-3.2193100" lon="37.3413000">
    <ele>1640.2</ele>
    <time>2026-06-24T08:40:26Z</time>
   </trkpt>
   <trkpt lat="-3.2193150" lon="37.3412930">
    <ele>1640.1</ele>
    <time>2026-06-24T08:40:27Z</time>
   </trkpt>
   <trkpt lat="-3.2193160" lon="37.3412930">
    <ele>1640.1</ele>
    <time>2026-06-24T08:40:28Z</time>
   </trkpt>
   <trkpt lat="-3.2193160" lon="37.3412930">
    <ele>1640.1</ele>
    <time>2026-06-24T08:40:29Z</time>
   </trkpt>
   <trkpt lat="-3.2193160" lon="37.3412930">
    <ele>1640.1</ele>
    <time>2026-06-24T08:40:30Z</time>
   </trkpt>
   <trkpt lat="-3.2192820" lon="37.3412950">
    <ele>1639.5</ele>
    <time>2026-06-24T08:40:31Z</time>
   </trkpt>
   <trkpt lat="-3.2192830" lon="37.3412960">
    <ele>1639.5</ele>
    <time>2026-06-24T08:40:32Z</time>
   </trkpt>
   <trkpt lat="-3.2192830" lon="37.3412960">
    <ele>1639.5</ele>
    <time>2026-06-24T08:40:33Z</time>
   </trkpt>
   <trkpt lat="-3.2193110" lon="37.3412880">
    <ele>1639.0</ele>
    <time>2026-06-24T08:40:34Z</time>
   </trkpt>
   <trkpt lat="-3.2193140" lon="37.3412870">
    <ele>1639.0</ele>
    <time>2026-06-24T08:40:35Z</time>
   </trkpt>
   <trkpt lat="-3.2193140" lon="37.3412910">
    <ele>1638.9</ele>
    <time>2026-06-24T08:40:36Z</time>
   </trkpt>
   <trkpt lat="-3.2193140" lon="37.3412910">
    <ele>1638.9</ele>
    <time>2026-06-24T08:40:37Z</time>
   </trkpt>
   <trkpt lat="-3.2193160" lon="37.3412960">
    <ele>1638.8</ele>
    <time>2026-06-24T08:40:38Z</time>
   </trkpt>
   <trkpt lat="-3.2193180" lon="37.3412950">
    <ele>1638.8</ele>
    <time>2026-06-24T08:40:39Z</time>
   </trkpt>
   <trkpt lat="-3.2193180" lon="37.3412950">
    <ele>1638.8</ele>
    <time>2026-06-24T08:40:40Z</time>
   </trkpt>
   <trkpt lat="-3.2193180" lon="37.3413010">
    <ele>1638.7</ele>
    <time>2026-06-24T08:40:41Z</time>
   </trkpt>
   <trkpt lat="-3.2193180" lon="37.3413010">
    <ele>1638.7</ele>
    <time>2026-06-24T08:40:42Z</time>
   </trkpt>
   <trkpt lat="-3.2193100" lon="37.3413060">
    <ele>1638.5</ele>
    <time>2026-06-24T08:40:43Z</time>
   </trkpt>
   <trkpt lat="-3.2193080" lon="37.3413070">
    <ele>1638.5</ele>
    <time>2026-06-24T08:40:44Z</time>
   </trkpt>
   <trkpt lat="-3.2193000" lon="37.3413110">
    <ele>1638.4</ele>
    <time>2026-06-24T08:40:45Z</time>
   </trkpt>
   <trkpt lat="-3.2193090" lon="37.3413210">
    <ele>1638.2</ele>
    <time>2026-06-24T08:40:46Z</time>
   </trkpt>
   <trkpt lat="-3.2193070" lon="37.3413290">
    <ele>1638.0</ele>
    <time>2026-06-24T08:40:47Z</time>
   </trkpt>
   <trkpt lat="-3.2193150" lon="37.3413230">
    <ele>1637.9</ele>
    <time>2026-06-24T08:40:48Z</time>
   </trkpt>
   <trkpt lat="-3.2193150" lon="37.3413230">
    <ele>1637.9</ele>
    <time>2026-06-24T08:40:49Z</time>
   </trkpt>
   <trkpt lat="-3.2193120" lon="37.3413060">
    <ele>1637.6</ele>
    <time>2026-06-24T08:40:50Z</time>
   </trkpt>
   <trkpt lat="-3.2193160" lon="37.3413020">
    <ele>1637.5</ele>
    <time>2026-06-24T08:40:51Z</time>
   </trkpt>
   <trkpt lat="-3.2193180" lon="37.3413030">
    <ele>1637.5</ele>
    <time>2026-06-24T08:40:52Z</time>
   </trkpt>
   <trkpt lat="-3.2193260" lon="37.3412970">
    <ele>1637.3</ele>
    <time>2026-06-24T08:40:53Z</time>
   </trkpt>
   <trkpt lat="-3.2193320" lon="37.3412970">
    <ele>1637.3</ele>
    <time>2026-06-24T08:40:54Z</time>
   </trkpt>
   <trkpt lat="-3.2193360" lon="37.3412970">
    <ele>1637.2</ele>
    <time>2026-06-24T08:40:55Z</time>
   </trkpt>
   <trkpt lat="-3.2193340" lon="37.3412980">
    <ele>1637.2</ele>
    <time>2026-06-24T08:40:56Z</time>
   </trkpt>
   <trkpt lat="-3.2193330" lon="37.3413010">
    <ele>1637.1</ele>
    <time>2026-06-24T08:40:57Z</time>
   </trkpt>
   <trkpt lat="-3.2193310" lon="37.3413040">
    <ele>1637.1</ele>
    <time>2026-06-24T08:40:58Z</time>
   </trkpt>
   <trkpt lat="-3.2193270" lon="37.3413120">
    <ele>1636.9</ele>
    <time>2026-06-24T08:40:59Z</time>
   </trkpt>
   <trkpt lat="-3.2193300" lon="37.3413110">
    <ele>1636.9</ele>
    <time>2026-06-24T08:41:00Z</time>
   </trkpt>
   <trkpt lat="-3.2193380" lon="37.3413080">
    <ele>1636.7</ele>
    <time>2026-06-24T08:41:01Z</time>
   </trkpt>
   <trkpt lat="-3.2193390" lon="37.3413080">
    <ele>1636.7</ele>
    <time>2026-06-24T08:41:02Z</time>
   </trkpt>
   <trkpt lat="-3.2193470" lon="37.3413100">
    <ele>1636.6</ele>
    <time>2026-06-24T08:41:03Z</time>
   </trkpt>
   <trkpt lat="-3.2193460" lon="37.3413160">
    <ele>1636.5</ele>
    <time>2026-06-24T08:41:04Z</time>
   </trkpt>
   <trkpt lat="-3.2193460" lon="37.3413160">
    <ele>1636.5</ele>
    <time>2026-06-24T08:41:05Z</time>
   </trkpt>
   <trkpt lat="-3.2193460" lon="37.3413160">
    <ele>1636.5</ele>
    <time>2026-06-24T08:41:06Z</time>
   </trkpt>
   <trkpt lat="-3.2193460" lon="37.3413160">
    <ele>1636.5</ele>
    <time>2026-06-24T08:41:07Z</time>
   </trkpt>
   <trkpt lat="-3.2193460" lon="37.3413160">
    <ele>1636.5</ele>
    <time>2026-06-24T08:41:08Z</time>
   </trkpt>
   <trkpt lat="-3.2193550" lon="37.3412890">
    <ele>1636.1</ele>
    <time>2026-06-24T08:41:09Z</time>
   </trkpt>
   <trkpt lat="-3.2193680" lon="37.3412930">
    <ele>1635.9</ele>
    <time>2026-06-24T08:41:10Z</time>
   </trkpt>
   <trkpt lat="-3.2193680" lon="37.3412930">
    <ele>1635.9</ele>
    <time>2026-06-24T08:41:11Z</time>
   </trkpt>
   <trkpt lat="-3.2193680" lon="37.3412930">
    <ele>1635.9</ele>
    <time>2026-06-24T08:41:12Z</time>
   </trkpt>
   <trkpt lat="-3.2193680" lon="37.3412930">
    <ele>1635.9</ele>
    <time>2026-06-24T08:41:13Z</time>
   </trkpt>
   <trkpt lat="-3.2193940" lon="37.3412940">
    <ele>1635.5</ele>
    <time>2026-06-24T08:41:14Z</time>
   </trkpt>
   <trkpt lat="-3.2193940" lon="37.3412940">
    <ele>1635.5</ele>
    <time>2026-06-24T08:41:15Z</time>
   </trkpt>
   <trkpt lat="-3.2193940" lon="37.3412940">
    <ele>1635.5</ele>
    <time>2026-06-24T08:41:16Z</time>
   </trkpt>
   <trkpt lat="-3.2193940" lon="37.3412940">
    <ele>1635.5</ele>
    <time>2026-06-24T08:41:17Z</time>
   </trkpt>
   <trkpt lat="-3.2193940" lon="37.3412940">
    <ele>1635.5</ele>
    <time>2026-06-24T08:41:18Z</time>
   </trkpt>
   <trkpt lat="-3.2193650" lon="37.3413020">
    <ele>1635.1</ele>
    <time>2026-06-24T08:41:19Z</time>
   </trkpt>
   <trkpt lat="-3.2193500" lon="37.3412950">
    <ele>1634.8</ele>
    <time>2026-06-24T08:41:20Z</time>
   </trkpt>
   <trkpt lat="-3.2193420" lon="37.3412990">
    <ele>1634.7</ele>
    <time>2026-06-24T08:41:22Z</time>
   </trkpt>
   <trkpt lat="-3.2193420" lon="37.3413000">
    <ele>1634.7</ele>
    <time>2026-06-24T08:41:23Z</time>
   </trkpt>
   <trkpt lat="-3.2193420" lon="37.3413000">
    <ele>1634.7</ele>
    <time>2026-06-24T08:41:24Z</time>
   </trkpt>
   <trkpt lat="-3.2193420" lon="37.3413000">
    <ele>1634.7</ele>
    <time>2026-06-24T08:41:25Z</time>
   </trkpt>
   <trkpt lat="-3.2193420" lon="37.3413000">
    <ele>1634.7</ele>
    <time>2026-06-24T08:41:26Z</time>
   </trkpt>
   <trkpt lat="-3.2193420" lon="37.3413000">
    <ele>1634.7</ele>
    <time>2026-06-24T08:41:27Z</time>
   </trkpt>
   <trkpt lat="-3.2193420" lon="37.3413000">
    <ele>1634.7</ele>
    <time>2026-06-24T08:41:28Z</time>
   </trkpt>
   <trkpt lat="-3.2193430" lon="37.3412920">
    <ele>1634.6</ele>
    <time>2026-06-24T08:41:29Z</time>
   </trkpt>
   <trkpt lat="-3.2193480" lon="37.3412930">
    <ele>1634.5</ele>
    <time>2026-06-24T08:41:30Z</time>
   </trkpt>
   <trkpt lat="-3.2193450" lon="37.3412970">
    <ele>1634.4</ele>
    <time>2026-06-24T08:41:31Z</time>
   </trkpt>
   <trkpt lat="-3.2193480" lon="37.3412920">
    <ele>1634.3</ele>
    <time>2026-06-24T08:41:32Z</time>
   </trkpt>
   <trkpt lat="-3.2193480" lon="37.3412930">
    <ele>1634.3</ele>
    <time>2026-06-24T08:41:33Z</time>
   </trkpt>
   <trkpt lat="-3.2193480" lon="37.3412930">
    <ele>1634.3</ele>
    <time>2026-06-24T08:41:34Z</time>
   </trkpt>
   <trkpt lat="-3.2193480" lon="37.3412930">
    <ele>1634.3</ele>
    <time>2026-06-24T08:41:35Z</time>
   </trkpt>
  </trkseg>
 </trk>
</gpx>
